
Distance (Route):
Temperature : 13.8°C
Humidity : 84.6%
Pressure : 904.4hPa| Receiver | Frames | First received | Last received |
|---|---|---|---|
| SQ6EMJ | 512 | 2026-09-04 05:28:55 | 2026-09-04 07:36:47 |
| KRY50SP-1 | 456 | 2026-09-04 05:03:32 | 2026-09-04 06:58:04 |
| POL2MAQ | 283 | 2026-09-04 05:28:58 | 2026-09-04 08:01:49 |
| SP6BVK | 242 | 2026-09-04 05:05:30 | 2026-09-04 07:38:58 |
| POL1PZ | 216 | 2026-09-04 06:09:35 | 2026-09-04 08:02:13 |
| DB0DAN | 200 | 2026-09-04 04:51:25 | 2026-09-04 06:30:25 |
| SONDE2-11 | 181 | 2026-09-04 04:46:04 | 2026-09-04 07:04:45 |
| EDDB2-12 | 174 | 2026-09-04 04:46:12 | 2026-09-04 07:04:50 |
| AA1-15 | 168 | 2026-09-04 05:01:14 | 2026-09-04 06:00:59 |
| EDDB2-11 | 157 | 2026-09-04 04:46:23 | 2026-09-04 07:01:23 |
| SP3WXH-11 | 153 | 2026-09-04 05:13:14 | 2026-09-04 07:17:20 |
| DF8AY | 127 | 2026-09-04 05:23:18 | 2026-09-04 05:54:01 |
| SP3BTT-10 | 118 | 2026-09-04 04:51:07 | 2026-09-04 07:14:27 |
| 13BRC | 109 | 2026-09-04 04:51:17 | 2026-09-04 06:27:27 |
| DM0DOS-11 | 108 | 2026-09-04 05:21:42 | 2026-09-04 05:55:44 |
| OE3JTB-15 | 96 | 2026-09-04 05:24:44 | 2026-09-04 07:26:35 |
| DL2RXE-15 | 65 | 2026-09-04 04:52:18 | 2026-09-04 06:30:41 |
| DAC517 | 60 | 2026-09-04 04:52:08 | 2026-09-04 06:13:10 |
| BIOWL1-15 | 47 | 2026-09-04 05:31:03 | 2026-09-04 05:58:33 |
| DB0NH | 42 | 2026-09-04 05:17:42 | 2026-09-04 06:17:31 |
| S3001 | 38 | 2026-09-04 04:54:50 | 2026-09-04 06:04:10 |
| SONCRA | 36 | 2026-09-04 05:10:13 | 2026-09-04 06:13:53 |
| DO3MHA-11 | 23 | 2026-09-04 05:30:29 | 2026-09-04 05:49:34 |
| OE3OSB-13 | 20 | 2026-09-04 05:36:56 | 2026-09-04 06:07:29 |
| DL1XH-west | 15 | 2026-09-04 05:39:19 | 2026-09-04 05:42:21 |
| NBG1-10 | 10 | 2026-09-04 05:15:58 | 2026-09-04 06:08:40 |
| DL1XH1-15 | 8 | 2026-09-04 05:41:06 | 2026-09-04 05:42:16 |
| AM1SDL-15 | 7 | 2026-09-04 06:05:12 | 2026-09-04 06:24:42 |
| BIOWL9-15 | 6 | 2026-09-04 05:37:46 | 2026-09-04 05:53:48 |
| 3Z3Z-3 | 4 | 2026-09-04 05:36:20 | 2026-09-04 05:39:49 |
| MECKS9 | 1 | 2026-09-04 05:18:05 | 2026-09-04 05:18:05 |
| DF8AY-15 | 1 | 2026-09-04 05:31:44 | 2026-09-04 05:31:44 |
| Receiver | Date | Latitude | Longitude | Direction | Speed | Altitude | Climb | Temperature | Humidity | Pressure | Voltage | Killtimer | Uptime | BKT | XDATA |
|---|---|---|---|---|---|---|---|---|---|---|---|---|---|---|---|
| POL1PZ | 2026-09-04 08:02:13 | 50.73398 | 18.06278 | 87° | 38km/h | 1017m | -1.3m/s | 13.8°C | 84.6% | 904.4hPa | 2.7V | 00:00:00 | 00:00:00 | 00:00:00 | |
| POL1PZ | 2026-09-04 08:01:52 | 50.73392 | 18.05965 | 90° | 35km/h | 1045m | -1.3m/s | 13.5°C | 84.4% | 901.2hPa | 2.7V | 00:00:00 | 00:00:00 | 00:00:00 | |
| POL2MAQ | 2026-09-04 08:01:49 | 50.73391 | 18.05925 | 89° | 33km/h | 1049m | -1.2m/s | 13.5°C | 84.5% | 900.7hPa | 2.7V | 00:00:00 | 00:00:00 | 00:00:00 | |
| POL1PZ | 2026-09-04 08:01:31 | 50.73377 | 18.05692 | 82° | 33km/h | 1072m | -1.1m/s | 13.3°C | 84.5% | 898.2hPa | 2.7V | 00:00:00 | 00:00:00 | 00:00:00 | |
| POL2MAQ | 2026-09-04 08:01:25 | 50.73368 | 18.05613 | 80° | 33km/h | 1079m | -1.5m/s | 13.2°C | 84.7% | 897.5hPa | 2.7V | 00:00:00 | 00:00:00 | 00:00:00 | |
| POL1PZ | 2026-09-04 08:01:11 | 50.73343 | 18.05420 | 77° | 37km/h | 1097m | -1.5m/s | 13.1°C | 84.9% | 895.6hPa | 2.7V | 00:00:00 | 00:00:00 | 00:00:00 | |
| POL2MAQ | 2026-09-04 08:01:04 | 50.73329 | 18.05315 | 80° | 40km/h | 1106m | -1.1m/s | 13.0°C | 84.7% | 894.6hPa | 2.7V | 00:00:00 | 00:00:00 | 00:00:00 | |
| POL1PZ | 2026-09-04 08:00:51 | 50.73313 | 18.05100 | 87° | 42km/h | 1123m | -1.3m/s | 12.9°C | 84.6% | 893.0hPa | 2.7V | 00:00:00 | 00:00:00 | 00:00:00 | |
| POL2MAQ | 2026-09-04 08:00:43 | 50.73311 | 18.04967 | 90° | 42km/h | 1132m | -1.3m/s | 12.8°C | 85.0% | 891.9hPa | 2.7V | 00:00:00 | 00:00:00 | 00:00:00 | |
| POL1PZ | 2026-09-04 08:00:31 | 50.73313 | 18.04766 | 90° | 37km/h | 1148m | -1.3m/s | 12.7°C | 85.7% | 890.2hPa | 2.7V | 00:00:00 | 00:00:00 | 00:00:00 | |
| POL2MAQ | 2026-09-04 08:00:23 | 50.73311 | 18.04667 | 88° | 35km/h | 1156m | -1.3m/s | 12.6°C | 85.3% | 889.3hPa | 2.7V | 00:00:00 | 00:00:00 | 00:00:00 | |
| POL1PZ | 2026-09-04 08:00:08 | 50.73302 | 18.04458 | 87° | 35km/h | 1175m | -1.5m/s | 12.5°C | 85.9% | 887.3hPa | 2.7V | 00:00:00 | 00:00:00 | 00:00:00 | |
| POL2MAQ | 2026-09-04 08:00:01 | 50.73297 | 18.04362 | 84° | 35km/h | 1184m | -1.6m/s | 12.4°C | 85.3% | 886.3hPa | 2.7V | 00:00:00 | 00:00:00 | 00:00:00 | |
| POL1PZ | 2026-09-04 07:59:45 | 50.73271 | 18.04132 | 80° | 38km/h | 1205m | -1.3m/s | 12.2°C | 85.8% | 884.3hPa | 2.7V | 00:00:00 | 00:00:00 | 00:00:00 | |
| POL2MAQ | 2026-09-04 07:59:40 | 50.73262 | 18.04053 | 81° | 40km/h | 1211m | -1.1m/s | 12.2°C | 86.0% | 883.6hPa | 2.7V | 00:00:00 | 00:00:00 | 00:00:00 | |
| POL1PZ | 2026-09-04 07:59:24 | 50.73243 | 18.03785 | 87° | 42km/h | 1230m | -0.9m/s | 12.0°C | 86.5% | 881.6hPa | 2.7V | 00:00:00 | 00:00:00 | 00:00:00 | |
| POL2MAQ | 2026-09-04 07:59:19 | 50.73240 | 18.03702 | 89° | 42km/h | 1234m | -0.9m/s | 12.0°C | 86.6% | 881.1hPa | 2.7V | 00:00:00 | 00:00:00 | 00:00:00 | |
| POL1PZ | 2026-09-04 07:59:04 | 50.73239 | 18.03470 | 90° | 35km/h | 1251m | -1.4m/s | 11.8°C | 86.9% | 879.4hPa | 2.7V | 00:00:00 | 00:00:00 | 00:00:00 | |
| POL2MAQ | 2026-09-04 07:58:51 | 50.73232 | 18.03295 | 87° | 31km/h | 1266m | -1.3m/s | 11.7°C | 86.9% | 877.9hPa | 2.7V | 00:00:00 | 00:00:00 | 00:00:00 | |
| POL2MAQ | 2026-09-04 07:58:30 | 50.73204 | 18.03026 | 78° | 35km/h | 1291m | -1.2m/s | 11.5°C | 87.8% | 875.1hPa | 2.7V | 00:00:00 | 00:00:00 | 00:00:00 | |
| POL1PZ | 2026-09-04 07:58:21 | 50.73186 | 18.02902 | 79° | 37km/h | 1301m | -1.0m/s | 11.5°C | 87.5% | 874.1hPa | 2.7V | 00:00:00 | 00:00:00 | 00:00:00 | |
| POL2MAQ | 2026-09-04 07:58:09 | 50.73160 | 18.02724 | 80° | 40km/h | 1317m | -1.4m/s | 11.4°C | 86.8% | 872.3hPa | 2.7V | 00:00:00 | 00:00:00 | 00:00:00 | |
| POL1PZ | 2026-09-04 07:58:01 | 50.73149 | 18.02596 | 84° | 40km/h | 1327m | -1.3m/s | 11.4°C | 85.7% | 871.3hPa | 2.7V | 00:00:00 | 00:00:00 | 00:00:00 | |
| POL1PZ | 2026-09-04 07:57:40 | 50.73138 | 18.02261 | 88° | 38km/h | 1352m | -1.3m/s | 11.2°C | 85.4% | 868.7hPa | 2.7V | 00:00:00 | 00:00:00 | 00:00:00 | |
| POL2MAQ | 2026-09-04 07:57:28 | 50.73132 | 18.02065 | 91° | 42km/h | 1367m | -1.0m/s | 11.1°C | 84.7% | 867.2hPa | 2.7V | 00:00:00 | 00:00:00 | 00:00:00 | |
| POL1PZ | 2026-09-04 07:57:20 | 50.73133 | 18.01937 | 92° | 38km/h | 1377m | -1.4m/s | 11.0°C | 85.3% | 866.0hPa | 2.7V | 00:00:00 | 00:00:00 | 00:00:00 | |
| POL2MAQ | 2026-09-04 07:57:08 | 50.73142 | 18.01749 | 97° | 40km/h | 1393m | -1.2m/s | 10.9°C | 85.5% | 864.6hPa | 2.7V | 00:00:00 | 00:00:00 | 00:00:00 | |
| POL1PZ | 2026-09-04 07:56:59 | 50.73149 | 18.01603 | 95° | 40km/h | 1405m | -1.3m/s | 10.8°C | 85.1% | 863.2hPa | 2.7V | 00:00:00 | 00:00:00 | 00:00:00 | |
| POL2MAQ | 2026-09-04 07:56:47 | 50.73156 | 18.01425 | 89° | 35km/h | 1420m | -1.2m/s | 10.6°C | 86.1% | 861.6hPa | 2.7V | 00:00:00 | 00:00:00 | 00:00:00 | |
| POL1PZ | 2026-09-04 07:56:38 | 50.73150 | 18.01293 | 84° | 38km/h | 1432m | -1.3m/s | 10.5°C | 86.4% | 860.4hPa | 2.7V | 00:00:00 | 00:00:00 | 00:00:00 | |
| POL2MAQ | 2026-09-04 07:56:27 | 50.73135 | 18.01122 | 86° | 42km/h | 1445m | -1.1m/s | 10.4°C | 86.1% | 859.1hPa | 2.7V | 00:00:00 | 00:00:00 | 00:00:00 | |
| POL1PZ | 2026-09-04 07:56:18 | 50.73127 | 18.00963 | 88° | 47km/h | 1458m | -1.1m/s | 10.3°C | 86.1% | 857.8hPa | 2.7V | 00:00:00 | 00:00:00 | 00:00:00 | |
| POL2MAQ | 2026-09-04 07:56:07 | 50.73121 | 18.00758 | 90° | 46km/h | 1472m | -1.3m/s | 10.2°C | 87.2% | 856.4hPa | 2.7V | 00:00:00 | 00:00:00 | 00:00:00 | |
| POL1PZ | 2026-09-04 07:55:58 | 50.73124 | 18.00587 | 94° | 47km/h | 1484m | -1.4m/s | 10.3°C | 82.3% | 855.3hPa | 2.7V | 00:00:00 | 00:00:00 | 00:00:00 | |
| POL2MAQ | 2026-09-04 07:55:46 | 50.73139 | 18.00369 | 100° | 46km/h | 1500m | -1.0m/s | 10.3°C | 80.8% | 853.7hPa | 2.7V | 00:00:00 | 00:00:00 | 00:00:00 | |
| POL1PZ | 2026-09-04 07:55:37 | 50.73154 | 18.00216 | 100° | 42km/h | 1512m | -1.2m/s | 10.4°C | 78.3% | 852.5hPa | 2.7V | 00:00:00 | 00:00:00 | 00:00:00 | |
| POL1PZ | 2026-09-04 07:55:17 | 50.73170 | 17.99889 | 92° | 44km/h | 1535m | -1.0m/s | 10.4°C | 75.8% | 850.2hPa | 2.7V | 00:00:00 | 00:00:00 | 00:00:00 | |
| POL2MAQ | 2026-09-04 07:55:05 | 50.73170 | 17.99674 | 91° | 47km/h | 1548m | -1.0m/s | 10.3°C | 76.5% | 848.8hPa | 2.7V | 00:00:00 | 00:00:00 | 00:00:00 | |
| POL1PZ | 2026-09-04 07:54:56 | 50.73173 | 17.99503 | 93° | 49km/h | 1560m | -1.0m/s | 10.2°C | 76.7% | 847.9hPa | 2.7V | 00:00:00 | 00:00:00 | 00:00:00 | |
| POL2MAQ | 2026-09-04 07:54:44 | 50.73178 | 17.99266 | 93° | 51km/h | 1572m | -1.0m/s | 10.2°C | 77.0% | 846.5hPa | 2.7V | 00:00:00 | 00:00:00 | 00:00:00 | |
| POL1PZ | 2026-09-04 07:54:36 | 50.73183 | 17.99103 | 93° | 51km/h | 1581m | -1.1m/s | 10.1°C | 77.6% | 845.4hPa | 2.7V | 00:00:00 | 00:00:00 | 00:00:00 | |
| POL2MAQ | 2026-09-04 07:54:22 | 50.73192 | 17.98814 | 94° | 53km/h | 1597m | -1.2m/s | 10.0°C | 79.7% | 843.9hPa | 2.7V | 00:00:00 | 00:00:00 | 00:00:00 | |
| POL1PZ | 2026-09-04 07:54:15 | 50.73197 | 17.98669 | 94° | 51km/h | 1605m | -1.1m/s | 9.9°C | 79.8% | 843.1hPa | 2.7V | 00:00:00 | 00:00:00 | 00:00:00 | |
| POL2MAQ | 2026-09-04 07:54:02 | 50.73214 | 17.98395 | 100° | 53km/h | 1621m | -0.8m/s | 9.8°C | 82.4% | 841.4hPa | 2.7V | 00:00:00 | 00:00:00 | 00:00:00 | |
| POL1PZ | 2026-09-04 07:53:54 | 50.73232 | 17.98230 | 101° | 53km/h | 1629m | -1.1m/s | 9.7°C | 83.5% | 840.6hPa | 2.7V | 00:00:00 | 00:00:00 | 00:00:00 | |
| POL2MAQ | 2026-09-04 07:53:42 | 50.73262 | 17.97990 | 103° | 49km/h | 1643m | -1.1m/s | 9.5°C | 84.6% | 839.1hPa | 2.7V | 00:00:00 | 00:00:00 | 00:00:00 | |
| POL1PZ | 2026-09-04 07:53:31 | 50.73280 | 17.97782 | 94° | 47km/h | 1655m | -1.0m/s | 9.5°C | 85.5% | 838.1hPa | 2.7V | 00:00:00 | 00:00:00 | 00:00:00 | |
| POL2MAQ | 2026-09-04 07:53:21 | 50.73281 | 17.97582 | 92° | 49km/h | 1665m | -0.8m/s | 9.4°C | 85.4% | 837.1hPa | 2.7V | 00:00:00 | 00:00:00 | 00:00:00 | |
| POL1PZ | 2026-09-04 07:53:07 | 50.73280 | 17.97303 | 91° | 51km/h | 1679m | -0.8m/s | 9.3°C | 87.7% | 835.7hPa | 2.7V | 00:00:00 | 00:00:00 | 00:00:00 | |
| POL2MAQ | 2026-09-04 07:53:01 | 50.73280 | 17.97182 | 89° | 51km/h | 1685m | -1.2m/s | 9.2°C | 88.3% | 835.0hPa | 2.7V | 00:00:00 | 00:00:00 | 00:00:00 | |
| POL1PZ | 2026-09-04 07:52:46 | 50.73277 | 17.96864 | 91° | 55km/h | 1700m | -1.0m/s | 9.1°C | 90.7% | 833.4hPa | 2.7V | 00:00:00 | 00:00:00 | 00:00:00 | |
| POL1PZ | 2026-09-04 07:52:26 | 50.73284 | 17.96413 | 91° | 58km/h | 1720m | -1.1m/s | 9.0°C | 91.7% | 831.5hPa | 2.7V | 00:00:00 | 00:00:00 | 00:00:00 | |
| POL2MAQ | 2026-09-04 07:52:20 | 50.73285 | 17.96272 | 92° | 60km/h | 1725m | -1.0m/s | 9.0°C | 91.4% | 830.9hPa | 2.7V | 00:00:00 | 00:00:00 | 00:00:00 | |
| POL1PZ | 2026-09-04 07:52:05 | 50.73288 | 17.95929 | 91° | 57km/h | 1739m | -0.8m/s | 8.9°C | 91.7% | 829.4hPa | 2.7V | 00:00:00 | 00:00:00 | 00:00:00 | |
| POL2MAQ | 2026-09-04 07:52:00 | 50.73288 | 17.95815 | 94° | 58km/h | 1744m | -1.0m/s | 8.8°C | 91.2% | 829.1hPa | 2.7V | 00:00:00 | 00:00:00 | 00:00:00 | |
| POL1PZ | 2026-09-04 07:51:44 | 50.73313 | 17.95445 | 100° | 57km/h | 1761m | -0.9m/s | 8.8°C | 90.9% | 827.4hPa | 2.7V | 00:00:00 | 00:00:00 | 00:00:00 | |
| POL2MAQ | 2026-09-04 07:51:39 | 50.73324 | 17.95331 | 101° | 57km/h | 1766m | -1.0m/s | 8.7°C | 91.0% | 826.9hPa | 2.7V | 00:00:00 | 00:00:00 | 00:00:00 | |
| POL1PZ | 2026-09-04 07:51:24 | 50.73363 | 17.94998 | 100° | 57km/h | 1781m | -1.2m/s | 8.6°C | 91.7% | 825.2hPa | 2.7V | 00:00:00 | 00:00:00 | 00:00:00 | |
| POL2MAQ | 2026-09-04 07:51:19 | 50.73375 | 17.94888 | 102° | 57km/h | 1786m | -1.0m/s | 8.5°C | 92.1% | 824.7hPa | 2.7V | 00:00:00 | 00:00:00 | 00:00:00 | |
| POL1PZ | 2026-09-04 07:51:04 | 50.73412 | 17.94574 | 100° | 51km/h | 1803m | -1.4m/s | 8.5°C | 91.7% | 823.1hPa | 2.7V | 00:00:00 | 00:00:00 | 00:00:00 | |
| POL2MAQ | 2026-09-04 07:50:59 | 50.73422 | 17.94472 | 101° | 51km/h | 1808m | -0.9m/s | 8.4°C | 91.7% | 822.6hPa | 2.7V | 00:00:00 | 00:00:00 | 00:00:00 | |
| POL2MAQ | 2026-09-04 07:50:39 | 50.73450 | 17.94067 | 94° | 51km/h | 1833m | -1.3m/s | 8.3°C | 89.3% | 820.3hPa | 2.7V | 00:00:00 | 00:00:00 | 00:00:00 | |
| POL1PZ | 2026-09-04 07:50:22 | 50.73461 | 17.93701 | 94° | 57km/h | 1853m | -1.0m/s | 8.2°C | 90.3% | 818.2hPa | 2.7V | 00:00:00 | 00:00:00 | 00:00:00 | |
| POL2MAQ | 2026-09-04 07:50:19 | 50.73465 | 17.93609 | 96° | 58km/h | 1857m | -1.1m/s | 8.1°C | 89.8% | 817.9hPa | 2.7V | 00:00:00 | 00:00:00 | 00:00:00 | |
| POL1PZ | 2026-09-04 07:50:01 | 50.73489 | 17.93214 | 100° | 58km/h | 1878m | -1.2m/s | 8.0°C | 89.2% | 815.6hPa | 2.7V | 00:00:00 | 00:00:00 | 00:00:00 | |
| POL2MAQ | 2026-09-04 07:49:57 | 50.73498 | 17.93122 | 99° | 58km/h | 1883m | -1.6m/s | 8.0°C | 88.3% | 815.2hPa | 2.7V | 00:00:00 | 00:00:00 | 00:00:00 | |
| POL1PZ | 2026-09-04 07:49:40 | 50.73538 | 17.92756 | 98° | 51km/h | 1907m | -1.5m/s | 7.8°C | 88.5% | 812.9hPa | 2.7V | 00:00:00 | 00:00:00 | 00:00:00 | |
| POL2MAQ | 2026-09-04 07:49:37 | 50.73543 | 17.92696 | 97° | 51km/h | 1912m | -1.6m/s | 7.7°C | 88.3% | 812.3hPa | 2.7V | 00:00:00 | 00:00:00 | 00:00:00 | |
| POL1PZ | 2026-09-04 07:49:20 | 50.73567 | 17.92360 | 96° | 51km/h | 1937m | -1.5m/s | 7.6°C | 87.8% | 809.9hPa | 2.7V | 00:00:00 | 00:00:00 | 00:00:00 | |
| POL2MAQ | 2026-09-04 07:49:17 | 50.73570 | 17.92298 | 95° | 53km/h | 1942m | -1.5m/s | 7.5°C | 89.6% | 809.4hPa | 2.7V | 00:00:00 | 00:00:00 | 00:00:00 | |
| POL1PZ | 2026-09-04 07:48:59 | 50.73588 | 17.91912 | 97° | 57km/h | 1972m | -1.8m/s | 7.3°C | 88.7% | 806.5hPa | 2.7V | 00:00:00 | 00:00:00 | 00:00:00 | |
| POL2MAQ | 2026-09-04 07:48:56 | 50.73593 | 17.91845 | 99° | 57km/h | 1978m | -1.7m/s | 7.3°C | 88.1% | 805.9hPa | 2.7V | 00:00:00 | 00:00:00 | 00:00:00 | |
| POL2MAQ | 2026-09-04 07:48:36 | 50.73630 | 17.91395 | 100° | 57km/h | 2017m | -1.9m/s | 7.0°C | 87.1% | 802.1hPa | 2.7V | 00:00:00 | 00:00:00 | 00:00:00 | |
| POL2MAQ | 2026-09-04 07:47:55 | 50.73749 | 17.90479 | 104° | 57km/h | 2100m | -1.7m/s | 5.9°C | 92.4% | 794.0hPa | 2.7V | 00:00:00 | 00:00:00 | 00:00:00 | |
| POL2MAQ | 2026-09-04 07:47:34 | 50.73811 | 17.90042 | 102° | 51km/h | 2139m | -2.2m/s | 5.5°C | 97.0% | 790.3hPa | 2.7V | 00:00:00 | 00:00:00 | 00:00:00 | |
| POL2MAQ | 2026-09-04 07:47:14 | 50.73850 | 17.89615 | 96° | 58km/h | 2182m | -1.9m/s | 5.2°C | 98.5% | 786.2hPa | 2.7V | 00:00:00 | 00:00:00 | 00:00:00 | |
| POL2MAQ | 2026-09-04 07:46:52 | 50.73897 | 17.89149 | 100° | 55km/h | 2226m | -2.1m/s | 5.0°C | 0% | 781.8hPa | 2.7V | 00:00:00 | 00:00:00 | 00:00:00 | |
| POL2MAQ | 2026-09-04 07:46:31 | 50.73935 | 17.88709 | 108° | 53km/h | 2261m | -1.6m/s | 4.8°C | 0% | 778.4hPa | 2.7V | 00:00:00 | 00:00:00 | 00:00:00 | |
| POL2MAQ | 2026-09-04 07:46:11 | 50.74010 | 17.88296 | 103° | 53km/h | 2294m | -1.7m/s | 4.6°C | 0% | 775.3hPa | 2.7V | 00:00:00 | 00:00:00 | 00:00:00 | |
| POL2MAQ | 2026-09-04 07:45:50 | 50.74075 | 17.87818 | 104° | 64km/h | 2329m | -1.2m/s | 5.6°C | 64.9% | 772.1hPa | 2.7V | 00:00:00 | 00:00:00 | 00:00:00 | |
| POL2MAQ | 2026-09-04 07:45:31 | 50.74169 | 17.87316 | 112° | 62km/h | 2342m | -0.4m/s | 5.7°C | 55.5% | 770.8hPa | 2.7V | 00:00:00 | 00:00:00 | 00:00:00 | |
| POL1PZ | 2026-09-04 07:45:23 | 50.74210 | 17.87150 | 112° | 64km/h | 2345m | -0.4m/s | 6.2°C | 46.5% | 770.4hPa | 2.7V | 00:00:00 | 00:00:00 | 00:00:00 | |
| POL2MAQ | 2026-09-04 07:45:09 | 50.74288 | 17.86824 | 112° | 62km/h | 2353m | -0.8m/s | 6.2°C | 47.9% | 769.7hPa | 2.7V | 00:00:00 | 00:00:00 | 00:00:00 | |
| POL1PZ | 2026-09-04 07:45:03 | 50.74323 | 17.86688 | 113° | 60km/h | 2358m | -1.0m/s | 6.3°C | 44.8% | 769.3hPa | 2.7V | 00:00:00 | 00:00:00 | 00:00:00 | |
| POL2MAQ | 2026-09-04 07:44:49 | 50.74397 | 17.86383 | 110° | 57km/h | 2372m | -1.0m/s | 6.3°C | 47.9% | 768.0hPa | 2.7V | 00:00:00 | 00:00:00 | 00:00:00 | |
| POL1PZ | 2026-09-04 07:44:43 | 50.74421 | 17.86249 | 105° | 60km/h | 2379m | -1.1m/s | 6.2°C | 48.5% | 767.3hPa | 2.7V | 00:00:00 | 00:00:00 | 00:00:00 | |
| POL2MAQ | 2026-09-04 07:44:28 | 50.74485 | 17.85877 | 107° | 66km/h | 2396m | -1.2m/s | 6.3°C | 62.1% | 765.8hPa | 2.7V | 00:00:00 | 00:00:00 | 00:00:00 | |
| POL1PZ | 2026-09-04 07:44:22 | 50.74511 | 17.85727 | 106° | 66km/h | 2403m | -1.3m/s | 6.4°C | 58.4% | 765.0hPa | 2.7V | 00:00:00 | 00:00:00 | 00:00:00 | |
| POL2MAQ | 2026-09-04 07:44:07 | 50.74575 | 17.85353 | 106° | 64km/h | 2422m | -1.3m/s | 6.5°C | 54.6% | 763.3hPa | 2.7V | 00:00:00 | 00:00:00 | 00:00:00 | |
| POL1PZ | 2026-09-04 07:43:59 | 50.74608 | 17.85153 | 106° | 66km/h | 2432m | -1.3m/s | 6.5°C | 51.1% | 762.4hPa | 2.7V | 00:00:00 | 00:00:00 | 00:00:00 | |
| POL2MAQ | 2026-09-04 07:43:46 | 50.74668 | 17.84818 | 108° | 69km/h | 2450m | -1.4m/s | 6.5°C | 51.6% | 760.7hPa | 2.7V | 00:00:00 | 00:00:00 | 00:00:00 | |
| POL1PZ | 2026-09-04 07:43:39 | 50.74703 | 17.84635 | 108° | 69km/h | 2460m | -1.5m/s | 6.4°C | 49.8% | 759.7hPa | 2.7V | 00:00:00 | 00:00:00 | 00:00:00 | |
| POL2MAQ | 2026-09-04 07:43:26 | 50.74775 | 17.84297 | 111° | 68km/h | 2479m | -1.4m/s | 6.1°C | 46.3% | 758.1hPa | 2.7V | 00:00:00 | 00:00:00 | 00:00:00 | |
| POL1PZ | 2026-09-04 07:43:15 | 50.74841 | 17.84017 | 112° | 68km/h | 2495m | -1.5m/s | 6.1°C | 43.9% | 756.6hPa | 2.7V | 00:00:00 | 00:00:00 | 00:00:00 | |
| POL2MAQ | 2026-09-04 07:43:05 | 50.74898 | 17.83776 | 109° | 62km/h | 2510m | -1.5m/s | 6.0°C | 38.5% | 755.1hPa | 2.7V | 00:00:00 | 00:00:00 | 00:00:00 | |
| POL1PZ | 2026-09-04 07:42:54 | 50.74943 | 17.83516 | 103° | 62km/h | 2526m | -1.6m/s | 6.0°C | 32.6% | 753.7hPa | 2.7V | 00:00:00 | 00:00:00 | 00:00:00 | |
| POL2MAQ | 2026-09-04 07:42:43 | 50.74978 | 17.83247 | 102° | 62km/h | 2543m | -1.4m/s | 6.0°C | 27.9% | 752.1hPa | 2.7V | 00:00:00 | 00:00:00 | 00:00:00 | |
| POL1PZ | 2026-09-04 07:42:34 | 50.75006 | 17.83019 | 101° | 66km/h | 2556m | -1.5m/s | 6.0°C | 25.4% | 750.9hPa | 2.7V | 00:00:00 | 00:00:00 | 00:00:00 | |
| POL2MAQ | 2026-09-04 07:42:23 | 50.75041 | 17.82727 | 102° | 68km/h | 2572m | -1.3m/s | 6.0°C | 22.0% | 749.5hPa | 2.7V | 00:00:00 | 00:00:00 | 00:00:00 | |
| POL1PZ | 2026-09-04 07:42:13 | 50.75075 | 17.82458 | 103° | 69km/h | 2586m | -1.4m/s | 6.2°C | 15.7% | 748.2hPa | 2.7V | 00:00:00 | 00:00:00 | 00:00:00 | |
| POL2MAQ | 2026-09-04 07:42:02 | 50.75121 | 17.82162 | 105° | 69km/h | 2601m | -1.4m/s | 6.4°C | 11.4% | 746.9hPa | 2.7V | 00:00:00 | 00:00:00 | 00:00:00 | |
| POL1PZ | 2026-09-04 07:41:52 | 50.75167 | 17.81896 | 108° | 68km/h | 2614m | -1.3m/s | 6.3°C | 11.9% | 745.6hPa | 2.7V | 00:00:00 | 00:00:00 | 00:00:00 | |
| POL2MAQ | 2026-09-04 07:41:42 | 50.75215 | 17.81651 | 107° | 62km/h | 2628m | -1.3m/s | 6.2°C | 13.4% | 744.3hPa | 2.7V | 00:00:00 | 00:00:00 | 00:00:00 | |
| POL1PZ | 2026-09-04 07:41:31 | 50.75254 | 17.81388 | 102° | 62km/h | 2643m | -1.3m/s | 5.9°C | 16.6% | 743.0hPa | 2.7V | 00:00:00 | 00:00:00 | 00:00:00 | |
| POL2MAQ | 2026-09-04 07:41:22 | 50.75279 | 17.81163 | 101° | 64km/h | 2655m | -1.3m/s | 5.9°C | 18.9% | 741.9hPa | 2.7V | 00:00:00 | 00:00:00 | 00:00:00 | |
| POL1PZ | 2026-09-04 07:41:10 | 50.75316 | 17.80847 | 102° | 69km/h | 2672m | -1.4m/s | 6.0°C | 19.0% | 740.5hPa | 2.7V | 00:00:00 | 00:00:00 | 00:00:00 | |
| POL2MAQ | 2026-09-04 07:41:01 | 50.75351 | 17.80604 | 106° | 69km/h | 2684m | -1.4m/s | 5.9°C | 18.0% | 739.2hPa | 2.7V | 00:00:00 | 00:00:00 | 00:00:00 | |
| POL1PZ | 2026-09-04 07:40:49 | 50.75410 | 17.80296 | 109° | 66km/h | 2701m | -1.4m/s | 5.8°C | 18.7% | 737.8hPa | 2.7V | 00:00:00 | 00:00:00 | 00:00:00 | |
| POL2MAQ | 2026-09-04 07:40:40 | 50.75454 | 17.80075 | 108° | 62km/h | 2713m | -1.4m/s | 5.7°C | 17.6% | 736.6hPa | 2.7V | 00:00:00 | 00:00:00 | 00:00:00 | |
| POL1PZ | 2026-09-04 07:40:29 | 50.75498 | 17.79818 | 104° | 60km/h | 2729m | -1.4m/s | 5.5°C | 21.2% | 735.3hPa | 2.7V | 00:00:00 | 00:00:00 | 00:00:00 | |
| POL2MAQ | 2026-09-04 07:40:20 | 50.75527 | 17.79610 | 105° | 58km/h | 2742m | -1.5m/s | 5.3°C | 21.8% | 734.0hPa | 2.7V | 00:00:00 | 00:00:00 | 00:00:00 | |
| POL1PZ | 2026-09-04 07:40:08 | 50.75566 | 17.79338 | 102° | 58km/h | 2759m | -1.4m/s | 5.2°C | 21.6% | 732.4hPa | 2.7V | 00:00:00 | 00:00:00 | 00:00:00 | |
| POL2MAQ | 2026-09-04 07:39:59 | 50.75589 | 17.79130 | 100° | 60km/h | 2772m | -1.3m/s | 5.1°C | 22.0% | 731.3hPa | 2.7V | 00:00:00 | 00:00:00 | 00:00:00 | |
| POL1PZ | 2026-09-04 07:39:48 | 50.75616 | 17.78868 | 100° | 62km/h | 2787m | -1.4m/s | 5.1°C | 20.8% | 729.9hPa | 2.7V | 00:00:00 | 00:00:00 | 00:00:00 | |
| POL2MAQ | 2026-09-04 07:39:39 | 50.75642 | 17.78637 | 103° | 68km/h | 2801m | -1.5m/s | 5.1°C | 19.7% | 728.8hPa | 2.7V | 00:00:00 | 00:00:00 | 00:00:00 | |
| POL1PZ | 2026-09-04 07:39:27 | 50.75693 | 17.78326 | 108° | 66km/h | 2818m | -1.4m/s | 5.0°C | 19.4% | 727.1hPa | 2.7V | 00:00:00 | 00:00:00 | 00:00:00 | |
| POL2MAQ | 2026-09-04 07:39:18 | 50.75739 | 17.78103 | 109° | 64km/h | 2832m | -1.4m/s | 4.8°C | 19.8% | 725.9hPa | 2.7V | 00:00:00 | 00:00:00 | 00:00:00 | |
| POL1PZ | 2026-09-04 07:39:06 | 50.75797 | 17.77821 | 109° | 60km/h | 2848m | -1.4m/s | 4.8°C | 19.8% | 724.4hPa | 2.7V | 00:00:00 | 00:00:00 | 00:00:00 | |
| SP6BVK | 2026-09-04 07:38:58 | 50.75833 | 17.77638 | 106° | 60km/h | 2860m | -1.5m/s | 4.6°C | 20.2% | 723.4hPa | 2.7V | 00:00:00 | 00:00:00 | 00:00:00 | |
| POL1PZ | 2026-09-04 07:38:46 | 50.75874 | 17.77354 | 102° | 64km/h | 2878m | -1.5m/s | 4.5°C | 20.5% | 721.9hPa | 2.7V | 00:00:00 | 00:00:00 | 00:00:00 | |
| POL2MAQ | 2026-09-04 07:38:38 | 50.75900 | 17.77152 | 103° | 66km/h | 2889m | -1.3m/s | 4.4°C | 20.8% | 720.9hPa | 2.7V | 00:00:00 | 00:00:00 | 00:00:00 | |
| SP6BVK | 2026-09-04 07:38:35 | 50.75914 | 17.77048 | 103° | 68km/h | 2895m | -1.3m/s | 4.4°C | 20.8% | 720.2hPa | 2.7V | 00:00:00 | 00:00:00 | 00:00:00 | |
| POL1PZ | 2026-09-04 07:38:26 | 50.75943 | 17.76835 | 104° | 69km/h | 2906m | -1.5m/s | 4.4°C | 20.9% | 719.2hPa | 2.7V | 00:00:00 | 00:00:00 | 00:00:00 | |
| POL2MAQ | 2026-09-04 07:38:17 | 50.75981 | 17.76586 | 105° | 73km/h | 2920m | -1.5m/s | 4.3°C | 21.2% | 718.0hPa | 2.7V | 00:00:00 | 00:00:00 | 00:00:00 | |
| SP6BVK | 2026-09-04 07:38:13 | 50.75999 | 17.76474 | 106° | 73km/h | 2926m | -1.5m/s | 4.2°C | 21.4% | 717.4hPa | 2.7V | 00:00:00 | 00:00:00 | 00:00:00 | |
| POL1PZ | 2026-09-04 07:38:05 | 50.76040 | 17.76250 | 107° | 73km/h | 2939m | -1.5m/s | 4.1°C | 21.7% | 716.2hPa | 2.7V | 00:00:00 | 00:00:00 | 00:00:00 | |
| POL2MAQ | 2026-09-04 07:37:57 | 50.76088 | 17.75997 | 108° | 73km/h | 2952m | -1.4m/s | 4.0°C | 22.0% | 715.2hPa | 2.7V | 00:00:00 | 00:00:00 | 00:00:00 | |
| POL1PZ | 2026-09-04 07:37:44 | 50.76160 | 17.75664 | 111° | 73km/h | 2970m | -1.3m/s | 3.9°C | 22.0% | 713.7hPa | 2.7V | 00:00:00 | 00:00:00 | 00:00:00 | |
| POL2MAQ | 2026-09-04 07:37:36 | 50.76213 | 17.75447 | 112° | 71km/h | 2982m | -1.5m/s | 3.8°C | 22.1% | 712.6hPa | 2.7V | 00:00:00 | 00:00:00 | 00:00:00 | |
| POL1PZ | 2026-09-04 07:37:24 | 50.76294 | 17.75130 | 113° | 71km/h | 3000m | -1.3m/s | 3.6°C | 20.8% | 711.0hPa | 2.7V | 00:00:00 | 00:00:00 | 00:00:00 | |
| POL2MAQ | 2026-09-04 07:37:15 | 50.76356 | 17.74901 | 115° | 68km/h | 3013m | -1.5m/s | 3.5°C | 20.3% | 709.8hPa | 2.7V | 00:00:00 | 00:00:00 | 00:00:00 | |
| POL1PZ | 2026-09-04 07:37:04 | 50.76432 | 17.74629 | 115° | 68km/h | 3029m | -1.3m/s | 3.4°C | 19.5% | 708.4hPa | 2.7V | 00:00:00 | 00:00:00 | 00:00:00 | |
| POL2MAQ | 2026-09-04 07:36:55 | 50.76492 | 17.74413 | 114° | 64km/h | 3041m | -1.5m/s | 3.4°C | 18.0% | 707.3hPa | 2.7V | 00:00:00 | 00:00:00 | 00:00:00 | |
| SQ6EMJ | 2026-09-04 07:36:47 | 50.76543 | 17.74225 | 114° | 64km/h | 3052m | -1.3m/s | 3.3°C | 16.4% | 706.4hPa | 2.7V | 00:00:00 | 00:00:00 | 00:00:00 | |
| POL1PZ | 2026-09-04 07:36:43 | 50.76569 | 17.74132 | 114° | 64km/h | 3058m | -1.5m/s | 3.3°C | 16.1% | 705.9hPa | 2.7V | 00:00:00 | 00:00:00 | 00:00:00 | |
| SQ6EMJ | 2026-09-04 07:36:41 | 50.76587 | 17.74063 | 114° | 62km/h | 3062m | -1.4m/s | 3.3°C | 15.7% | 705.5hPa | 2.7V | 00:00:00 | 00:00:00 | 00:00:00 | |
| SQ6EMJ | 2026-09-04 07:36:36 | 50.76616 | 17.73947 | 112° | 62km/h | 3069m | -1.5m/s | 3.3°C | 15.4% | 705.1hPa | 2.7V | 00:00:00 | 00:00:00 | 00:00:00 | |
| POL2MAQ | 2026-09-04 07:36:34 | 50.76622 | 17.73924 | 112° | 62km/h | 3070m | -1.3m/s | 3.3°C | 15.3% | 704.9hPa | 2.7V | 00:00:00 | 00:00:00 | 00:00:00 | |
| SQ6EMJ | 2026-09-04 07:36:27 | 50.76659 | 17.73760 | 110° | 64km/h | 3079m | -1.3m/s | 3.3°C | 14.9% | 704.0hPa | 2.7V | 00:00:00 | 00:00:00 | 00:00:00 | |
| POL1PZ | 2026-09-04 07:36:22 | 50.76684 | 17.73641 | 109° | 62km/h | 3086m | -1.3m/s | 3.2°C | 14.8% | 703.5hPa | 2.7V | 00:00:00 | 00:00:00 | 00:00:00 | |
| SQ6EMJ | 2026-09-04 07:36:20 | 50.76700 | 17.73569 | 110° | 64km/h | 3090m | -1.3m/s | 3.2°C | 14.7% | 703.0hPa | 2.7V | 00:00:00 | 00:00:00 | 00:00:00 | |
| POL2MAQ | 2026-09-04 07:36:14 | 50.76726 | 17.73449 | 110° | 64km/h | 3096m | -1.3m/s | 3.0°C | 14.5% | 702.5hPa | 2.7V | 00:00:00 | 00:00:00 | 00:00:00 | |
| SQ6EMJ | 2026-09-04 07:36:12 | 50.76736 | 17.73400 | 110° | 64km/h | 3099m | -1.3m/s | 3.0°C | 14.5% | 702.4hPa | 2.7V | 00:00:00 | 00:00:00 | 00:00:00 | |
| SQ6EMJ | 2026-09-04 07:36:05 | 50.76772 | 17.73224 | 109° | 68km/h | 3109m | -1.4m/s | 3.0°C | 13.9% | 701.5hPa | 2.7V | 00:00:00 | 00:00:00 | 00:00:00 | |
| POL1PZ | 2026-09-04 07:36:01 | 50.76794 | 17.73120 | 111° | 69km/h | 3114m | -1.3m/s | 3.0°C | 13.6% | 701.1hPa | 2.7V | 00:00:00 | 00:00:00 | 00:00:00 | |
| SQ6EMJ | 2026-09-04 07:35:59 | 50.76806 | 17.73068 | 112° | 69km/h | 3117m | -1.3m/s | 3.0°C | 13.5% | 701.0hPa | 2.7V | 00:00:00 | 00:00:00 | 00:00:00 | |
| SQ6EMJ | 2026-09-04 07:35:54 | 50.76847 | 17.72914 | 114° | 69km/h | 3125m | -1.3m/s | 3.0°C | 13.2% | 700.2hPa | 2.7V | 00:00:00 | 00:00:00 | 00:00:00 | |
| POL2MAQ | 2026-09-04 07:35:53 | 50.76847 | 17.72914 | 114° | 69km/h | 3125m | -1.3m/s | 3.0°C | 13.2% | 700.2hPa | 2.7V | 00:00:00 | 00:00:00 | 00:00:00 | |
| SP6BVK | 2026-09-04 07:35:48 | 50.76881 | 17.72787 | 115° | 69km/h | 3131m | -1.2m/s | 2.9°C | 12.7% | 699.6hPa | 2.7V | 00:00:00 | 00:00:00 | 00:00:00 | |
| POL1PZ | 2026-09-04 07:35:41 | 50.76931 | 17.72614 | 115° | 68km/h | 3140m | -1.3m/s | 2.9°C | 12.5% | 698.9hPa | 2.7V | 00:00:00 | 00:00:00 | 00:00:00 | |
| SQ6EMJ | 2026-09-04 07:35:35 | 50.76974 | 17.72462 | 114° | 71km/h | 3148m | -1.3m/s | 2.9°C | 11.9% | 698.1hPa | 2.7V | 00:00:00 | 00:00:00 | 00:00:00 | |
| POL2MAQ | 2026-09-04 07:35:33 | 50.76987 | 17.72409 | 114° | 71km/h | 3151m | -1.4m/s | 2.9°C | 11.8% | 698.0hPa | 2.7V | 00:00:00 | 00:00:00 | 00:00:00 | |
| SQ6EMJ | 2026-09-04 07:35:30 | 50.77009 | 17.72330 | 114° | 73km/h | 3155m | -1.5m/s | 2.8°C | 11.7% | 697.5hPa | 2.7V | 00:00:00 | 00:00:00 | 00:00:00 | |
| SP6BVK | 2026-09-04 07:35:26 | 50.77037 | 17.72222 | 114° | 73km/h | 3161m | -1.4m/s | 2.8°C | 11.6% | 697.1hPa | 2.7V | 00:00:00 | 00:00:00 | 00:00:00 | |
| SQ6EMJ | 2026-09-04 07:35:24 | 50.77051 | 17.72168 | 114° | 73km/h | 3164m | -1.5m/s | 2.8°C | 11.0% | 696.8hPa | 2.7V | 00:00:00 | 00:00:00 | 00:00:00 | |
| POL1PZ | 2026-09-04 07:35:21 | 50.77073 | 17.72087 | 113° | 73km/h | 3168m | -1.4m/s | 2.8°C | 10.6% | 696.4hPa | 2.7V | 00:00:00 | 00:00:00 | 00:00:00 | |
| POL2MAQ | 2026-09-04 07:35:13 | 50.77129 | 17.71866 | 113° | 75km/h | 3180m | -1.4m/s | 2.8°C | 9.9% | 695.4hPa | 2.7V | 00:00:00 | 00:00:00 | 00:00:00 | |
| SP6BVK | 2026-09-04 07:35:04 | 50.77192 | 17.71614 | 113° | 77km/h | 3192m | -1.4m/s | 2.9°C | 7.2% | 694.4hPa | 2.7V | 00:00:00 | 00:00:00 | 00:00:00 | |
| POL1PZ | 2026-09-04 07:35:00 | 50.77221 | 17.71501 | 113° | 77km/h | 3198m | -1.3m/s | 2.9°C | 6.6% | 693.8hPa | 2.7V | 00:00:00 | 00:00:00 | 00:00:00 | |
| SQ6EMJ | 2026-09-04 07:34:55 | 50.77257 | 17.71358 | 113° | 77km/h | 3205m | -1.4m/s | 3.1°C | 6.2% | 693.2hPa | 2.7V | 00:00:00 | 00:00:00 | 00:00:00 | |
| POL2MAQ | 2026-09-04 07:34:52 | 50.77279 | 17.71273 | 113° | 77km/h | 3209m | -1.3m/s | 3.1°C | 5.9% | 692.8hPa | 2.7V | 00:00:00 | 00:00:00 | 00:00:00 | |
| SQ6EMJ | 2026-09-04 07:34:50 | 50.77295 | 17.71216 | 114° | 77km/h | 3212m | -1.4m/s | 3.1°C | 5.7% | 692.6hPa | 2.7V | 00:00:00 | 00:00:00 | 00:00:00 | |
| SQ6EMJ | 2026-09-04 07:34:44 | 50.77340 | 17.71044 | 114° | 78km/h | 3220m | -1.3m/s | 3.1°C | 5.4% | 691.9hPa | 2.7V | 00:00:00 | 00:00:00 | 00:00:00 | |
| SP6BVK | 2026-09-04 07:34:43 | 50.77348 | 17.71015 | 114° | 78km/h | 3221m | -1.4m/s | 3.1°C | 5.3% | 691.8hPa | 2.7V | 00:00:00 | 00:00:00 | 00:00:00 | |
| POL1PZ | 2026-09-04 07:34:39 | 50.77380 | 17.70901 | 115° | 78km/h | 3226m | -1.3m/s | 3.1°C | 5.2% | 691.3hPa | 2.7V | 00:00:00 | 00:00:00 | 00:00:00 | |
| POL2MAQ | 2026-09-04 07:34:31 | 50.77445 | 17.70674 | 115° | 78km/h | 3237m | -1.4m/s | 3.1°C | 5.0% | 690.5hPa | 2.7V | 00:00:00 | 00:00:00 | 00:00:00 | |
| SP6BVK | 2026-09-04 07:34:23 | 50.77508 | 17.70441 | 114° | 80km/h | 3248m | -1.4m/s | 3.1°C | 4.6% | 689.5hPa | 2.7V | 00:00:00 | 00:00:00 | 00:00:00 | |
| POL1PZ | 2026-09-04 07:34:18 | 50.77547 | 17.70293 | 114° | 80km/h | 3254m | -1.4m/s | 3.1°C | 4.5% | 689.0hPa | 2.7V | 00:00:00 | 00:00:00 | 00:00:00 | |
| POL2MAQ | 2026-09-04 07:34:11 | 50.77603 | 17.70085 | 114° | 80km/h | 3264m | -1.3m/s | 3.0°C | 4.3% | 688.1hPa | 2.7V | 00:00:00 | 00:00:00 | 00:00:00 | |
| SP6BVK | 2026-09-04 07:34:02 | 50.77678 | 17.69821 | 115° | 80km/h | 3276m | -1.3m/s | 3.0°C | 4.0% | 687.1hPa | 2.7V | 00:00:00 | 00:00:00 | 00:00:00 | |
| POL1PZ | 2026-09-04 07:33:58 | 50.77711 | 17.69703 | 115° | 80km/h | 3281m | -1.4m/s | 2.9°C | 4.0% | 686.8hPa | 2.7V | 00:00:00 | 00:00:00 | 00:00:00 | |
| POL2MAQ | 2026-09-04 07:33:50 | 50.77779 | 17.69468 | 116° | 80km/h | 3292m | -1.4m/s | 2.9°C | 4.1% | 685.8hPa | 2.7V | 00:00:00 | 00:00:00 | 00:00:00 | |
| SP6BVK | 2026-09-04 07:33:41 | 50.77857 | 17.69205 | 116° | 82km/h | 3303m | -1.4m/s | 2.8°C | 4.9% | 684.7hPa | 2.7V | 00:00:00 | 00:00:00 | 00:00:00 | |
| POL1PZ | 2026-09-04 07:33:37 | 50.77891 | 17.69088 | 116° | 80km/h | 3309m | -1.3m/s | 2.8°C | 5.6% | 684.2hPa | 2.7V | 00:00:00 | 00:00:00 | 00:00:00 | |
| POL2MAQ | 2026-09-04 07:33:30 | 50.77954 | 17.68883 | 117° | 82km/h | 3318m | -1.5m/s | 2.8°C | 7.9% | 683.5hPa | 2.7V | 00:00:00 | 00:00:00 | 00:00:00 | |
| SP6BVK | 2026-09-04 07:33:21 | 50.78034 | 17.68616 | 116° | 84km/h | 3331m | -1.5m/s | 2.8°C | 7.5% | 682.5hPa | 2.7V | 00:00:00 | 00:00:00 | 00:00:00 | |
| POL1PZ | 2026-09-04 07:33:17 | 50.78070 | 17.68494 | 115° | 84km/h | 3337m | -1.4m/s | 2.7°C | 7.4% | 681.9hPa | 2.7V | 00:00:00 | 00:00:00 | 00:00:00 | |
| SQ6EMJ | 2026-09-04 07:33:11 | 50.78131 | 17.68279 | 116° | 84km/h | 3347m | -1.4m/s | 2.6°C | 7.9% | 681.1hPa | 2.7V | 00:00:00 | 00:00:00 | 00:00:00 | |
| POL2MAQ | 2026-09-04 07:33:10 | 50.78131 | 17.68279 | 116° | 84km/h | 3347m | -1.4m/s | 2.6°C | 7.9% | 681.1hPa | 2.7V | 00:00:00 | 00:00:00 | 00:00:00 | |
| SQ6EMJ | 2026-09-04 07:33:05 | 50.78177 | 17.68126 | 116° | 84km/h | 3354m | -1.5m/s | 2.6°C | 8.8% | 680.5hPa | 2.7V | 00:00:00 | 00:00:00 | 00:00:00 | |
| SP6BVK | 2026-09-04 07:33:01 | 50.78214 | 17.68004 | 117° | 84km/h | 3360m | -1.3m/s | 2.6°C | 9.7% | 680.1hPa | 2.7V | 00:00:00 | 00:00:00 | 00:00:00 | |
| POL1PZ | 2026-09-04 07:32:56 | 50.78262 | 17.67854 | 118° | 84km/h | 3367m | -1.4m/s | 2.6°C | 8.0% | 679.4hPa | 2.7V | 00:00:00 | 00:00:00 | 00:00:00 | |
| POL2MAQ | 2026-09-04 07:32:49 | 50.78330 | 17.67647 | 119° | 82km/h | 3377m | -1.5m/s | 2.5°C | 6.9% | 678.5hPa | 2.7V | 00:00:00 | 00:00:00 | 00:00:00 | |
| SQ6EMJ | 2026-09-04 07:32:43 | 50.78390 | 17.67474 | 120° | 82km/h | 3385m | -1.5m/s | 2.5°C | 5.9% | 677.9hPa | 2.7V | 00:00:00 | 00:00:00 | 00:00:00 | |
| SP6BVK | 2026-09-04 07:32:40 | 50.78420 | 17.67388 | 120° | 82km/h | 3389m | -1.3m/s | 2.4°C | 5.8% | 677.6hPa | 2.7V | 00:00:00 | 00:00:00 | 00:00:00 | |
| SQ6EMJ | 2026-09-04 07:32:36 | 50.78471 | 17.67245 | 120° | 82km/h | 3396m | -1.5m/s | 2.4°C | 6.0% | 677.1hPa | 2.7V | 00:00:00 | 00:00:00 | 00:00:00 | |
| POL1PZ | 2026-09-04 07:32:35 | 50.78471 | 17.67245 | 120° | 82km/h | 3396m | -1.5m/s | 2.4°C | 6.0% | 677.1hPa | 2.7V | 00:00:00 | 00:00:00 | 00:00:00 | |
| SQ6EMJ | 2026-09-04 07:32:31 | 50.78521 | 17.67103 | 121° | 80km/h | 3403m | -1.5m/s | 2.4°C | 6.1% | 676.3hPa | 2.7V | 00:00:00 | 00:00:00 | 00:00:00 | |
| POL2MAQ | 2026-09-04 07:32:29 | 50.78532 | 17.67075 | 120° | 82km/h | 3405m | -1.5m/s | 2.4°C | 6.2% | 676.3hPa | 2.7V | 00:00:00 | 00:00:00 | 00:00:00 | |
| SQ6EMJ | 2026-09-04 07:32:26 | 50.78572 | 17.66962 | 121° | 82km/h | 3410m | -1.3m/s | 2.4°C | 7.1% | 675.7hPa | 2.7V | 00:00:00 | 00:00:00 | 00:00:00 | |
| SQ6EMJ | 2026-09-04 07:32:20 | 50.78634 | 17.66791 | 121° | 82km/h | 3419m | -1.4m/s | 2.4°C | 8.0% | 675.1hPa | 2.7V | 00:00:00 | 00:00:00 | 00:00:00 | |
| POL1PZ | 2026-09-04 07:32:14 | 50.78685 | 17.66650 | 121° | 80km/h | 3426m | -1.4m/s | 2.4°C | 8.3% | 674.5hPa | 2.7V | 00:00:00 | 00:00:00 | 00:00:00 | |
| POL2MAQ | 2026-09-04 07:32:08 | 50.78746 | 17.66482 | 121° | 80km/h | 3434m | -1.4m/s | 2.3°C | 7.9% | 673.8hPa | 2.7V | 00:00:00 | 00:00:00 | 00:00:00 | |
| SP6BVK | 2026-09-04 07:32:00 | 50.78828 | 17.66260 | 122° | 80km/h | 3446m | -1.5m/s | 2.2°C | 10.3% | 672.8hPa | 2.7V | 00:00:00 | 00:00:00 | 00:00:00 | |
| POL1PZ | 2026-09-04 07:31:53 | 50.78901 | 17.66068 | 122° | 80km/h | 3456m | -1.4m/s | 2.1°C | 11.4% | 671.9hPa | 2.7V | 00:00:00 | 00:00:00 | 00:00:00 | |
| POL2MAQ | 2026-09-04 07:31:48 | 50.78953 | 17.65930 | 122° | 80km/h | 3463m | -1.3m/s | 2.1°C | 12.6% | 671.4hPa | 2.7V | 00:00:00 | 00:00:00 | 00:00:00 | |
| SQ6EMJ | 2026-09-04 07:31:41 | 50.79028 | 17.65736 | 122° | 82km/h | 3473m | -1.4m/s | 2.0°C | 15.8% | 670.5hPa | 2.7V | 00:00:00 | 00:00:00 | 00:00:00 | |
| SP6BVK | 2026-09-04 07:31:40 | 50.79039 | 17.65708 | 122° | 82km/h | 3474m | -1.4m/s | 2.0°C | 16.3% | 670.4hPa | 2.7V | 00:00:00 | 00:00:00 | 00:00:00 | |
| SQ6EMJ | 2026-09-04 07:31:36 | 50.79094 | 17.65567 | 123° | 84km/h | 3481m | -1.7m/s | 2.0°C | 18.4% | 669.8hPa | 2.7V | 00:00:00 | 00:00:00 | 00:00:00 | |
| POL1PZ | 2026-09-04 07:31:32 | 50.79127 | 17.65482 | 123° | 84km/h | 3486m | -1.6m/s | 1.9°C | 19.4% | 669.4hPa | 2.7V | 00:00:00 | 00:00:00 | 00:00:00 | |
| POL2MAQ | 2026-09-04 07:31:28 | 50.79172 | 17.65369 | 123° | 84km/h | 3492m | -1.6m/s | 1.9°C | 19.7% | 668.9hPa | 2.7V | 00:00:00 | 00:00:00 | 00:00:00 | |
| SQ6EMJ | 2026-09-04 07:31:21 | 50.79264 | 17.65136 | 122° | 88km/h | 3505m | -1.6m/s | 1.8°C | 20.5% | 667.8hPa | 2.7V | 00:00:00 | 00:00:00 | 00:00:00 | |
| SP6BVK | 2026-09-04 07:31:18 | 50.79287 | 17.65076 | 122° | 88km/h | 3508m | -1.5m/s | 1.8°C | 20.6% | 667.5hPa | 2.7V | 00:00:00 | 00:00:00 | 00:00:00 | |
| SQ6EMJ | 2026-09-04 07:31:14 | 50.79333 | 17.64956 | 122° | 88km/h | 3515m | -1.5m/s | 1.7°C | 20.8% | 666.9hPa | 2.7V | 00:00:00 | 00:00:00 | 00:00:00 | |
| POL1PZ | 2026-09-04 07:31:11 | 50.79368 | 17.64867 | 123° | 88km/h | 3520m | -1.5m/s | 1.7°C | 20.9% | 666.4hPa | 2.7V | 00:00:00 | 00:00:00 | 00:00:00 | |
| SQ6EMJ | 2026-09-04 07:31:09 | 50.79391 | 17.64808 | 123° | 86km/h | 3523m | -1.6m/s | 1.7°C | 21.1% | 666.3hPa | 2.7V | 00:00:00 | 00:00:00 | 00:00:00 | |
| POL2MAQ | 2026-09-04 07:31:07 | 50.79415 | 17.64751 | 124° | 86km/h | 3526m | -1.6m/s | 1.6°C | 21.1% | 666.1hPa | 2.7V | 00:00:00 | 00:00:00 | 00:00:00 | |
| SP6BVK | 2026-09-04 07:30:58 | 50.79514 | 17.64496 | 121° | 80km/h | 3538m | -1.4m/s | 1.4°C | 34.3% | 665.0hPa | 2.7V | 00:00:00 | 00:00:00 | 00:00:00 | |
| SQ6EMJ | 2026-09-04 07:30:54 | 50.79553 | 17.64384 | 120° | 80km/h | 3543m | -1.2m/s | 1.4°C | 42.9% | 664.6hPa | 2.7V | 00:00:00 | 00:00:00 | 00:00:00 | |
| POL1PZ | 2026-09-04 07:30:50 | 50.79594 | 17.64271 | 121° | 82km/h | 3548m | -1.3m/s | 1.3°C | 47.0% | 664.1hPa | 2.7V | 00:00:00 | 00:00:00 | 00:00:00 | |
| POL2MAQ | 2026-09-04 07:30:47 | 50.79625 | 17.64185 | 121° | 82km/h | 3552m | -1.3m/s | 1.2°C | 51.1% | 663.9hPa | 2.7V | 00:00:00 | 00:00:00 | 00:00:00 | |
| SQ6EMJ | 2026-09-04 07:30:41 | 50.79695 | 17.63986 | 120° | 80km/h | 3560m | -1.3m/s | 1.0°C | 65.6% | 663.0hPa | 2.7V | 00:00:00 | 00:00:00 | 00:00:00 | |
| SP6BVK | 2026-09-04 07:30:37 | 50.79725 | 17.63903 | 120° | 82km/h | 3564m | -1.5m/s | 0.9°C | 85.8% | 662.8hPa | 2.7V | 00:00:00 | 00:00:00 | 00:00:00 | |
| SQ6EMJ | 2026-09-04 07:30:33 | 50.79765 | 17.63785 | 120° | 86km/h | 3570m | -1.5m/s | 0.9°C | 88.8% | 662.2hPa | 2.7V | 00:00:00 | 00:00:00 | 00:00:00 | |
| POL1PZ | 2026-09-04 07:30:29 | 50.79805 | 17.63661 | 117° | 88km/h | 3577m | -1.7m/s | 0.8°C | 85.3% | 661.8hPa | 2.7V | 00:00:00 | 00:00:00 | 00:00:00 | |
| SQ6EMJ | 2026-09-04 07:30:26 | 50.79835 | 17.63567 | 118° | 89km/h | 3582m | -1.6m/s | 0.7°C | 83.6% | 661.4hPa | 2.7V | 00:00:00 | 00:00:00 | 00:00:00 | |
| SQ6EMJ | 2026-09-04 07:30:20 | 50.79898 | 17.63374 | 119° | 91km/h | 3593m | -1.7m/s | 0.5°C | 90.0% | 660.6hPa | 2.7V | 00:00:00 | 00:00:00 | 00:00:00 | |
| SQ6EMJ | 2026-09-04 07:30:16 | 50.79954 | 17.63211 | 119° | 91km/h | 3602m | -1.9m/s | 0.5°C | 94.1% | 659.9hPa | 2.7V | 00:00:00 | 00:00:00 | 00:00:00 | |
| POL1PZ | 2026-09-04 07:30:09 | 50.80019 | 17.63019 | 118° | 89km/h | 3612m | -1.2m/s | 0.4°C | 94.8% | 659.3hPa | 2.7V | 00:00:00 | 00:00:00 | 00:00:00 | |
| POL2MAQ | 2026-09-04 07:30:05 | 50.80060 | 17.62893 | 118° | 89km/h | 3616m | -0.9m/s | 0.4°C | 95.2% | 658.7hPa | 2.7V | 00:00:00 | 00:00:00 | 00:00:00 | |
| SQ6EMJ | 2026-09-04 07:30:00 | 50.80113 | 17.62732 | 119° | 91km/h | 3621m | -1.0m/s | 0.3°C | 95.6% | 658.3hPa | 2.7V | 00:00:00 | 00:00:00 | 00:00:00 | |
| SP6BVK | 2026-09-04 07:29:56 | 50.80156 | 17.62603 | 119° | 91km/h | 3625m | -1.3m/s | 0.3°C | 95.8% | 657.7hPa | 2.7V | 00:00:00 | 00:00:00 | 00:00:00 | |
| POL1PZ | 2026-09-04 07:29:48 | 50.80241 | 17.62347 | 118° | 89km/h | 3634m | -1.1m/s | 0.2°C | 96.7% | 656.9hPa | 2.7V | 00:00:00 | 00:00:00 | 00:00:00 | |
| POL2MAQ | 2026-09-04 07:29:45 | 50.80273 | 17.62251 | 119° | 91km/h | 3638m | -1.1m/s | 0.1°C | 96.8% | 656.7hPa | 2.7V | 00:00:00 | 00:00:00 | 00:00:00 | |
| SP6BVK | 2026-09-04 07:29:35 | 50.80389 | 17.61927 | 122° | 95km/h | 3653m | -1.7m/s | -0.0°C | 97.9% | 655.5hPa | 2.7V | 00:00:00 | 00:00:00 | 00:00:00 | |
| POL1PZ | 2026-09-04 07:29:27 | 50.80486 | 17.61668 | 120° | 95km/h | 3664m | -1.4m/s | -0.1°C | 98.4% | 654.6hPa | 2.7V | 00:00:00 | 00:00:00 | 00:00:00 | |
| SQ6EMJ | 2026-09-04 07:29:24 | 50.80530 | 17.61537 | 118° | 91km/h | 3669m | -1.4m/s | -0.2°C | 98.6% | 654.3hPa | 2.7V | 00:00:00 | 00:00:00 | 00:00:00 | |
| SQ6EMJ | 2026-09-04 07:29:18 | 50.80593 | 17.61342 | 118° | 89km/h | 3676m | -1.4m/s | -0.2°C | 98.7% | 653.5hPa | 2.7V | 00:00:00 | 00:00:00 | 00:00:00 | |
| SP6BVK | 2026-09-04 07:29:15 | 50.80614 | 17.61279 | 118° | 91km/h | 3679m | -1.8m/s | -0.3°C | 98.5% | 653.4hPa | 2.7V | 00:00:00 | 00:00:00 | 00:00:00 | |
| SQ6EMJ | 2026-09-04 07:29:12 | 50.80657 | 17.61149 | 119° | 91km/h | 3685m | -1.7m/s | -0.3°C | 98.6% | 652.8hPa | 2.7V | 00:00:00 | 00:00:00 | 00:00:00 | |
| POL1PZ | 2026-09-04 07:29:07 | 50.80700 | 17.61018 | 119° | 91km/h | 3691m | -1.9m/s | -0.3°C | 99.8% | 652.4hPa | 2.7V | 00:00:00 | 00:00:00 | 00:00:00 | |
| SQ6EMJ | 2026-09-04 07:29:06 | 50.80710 | 17.60986 | 118° | 93km/h | 3693m | -1.9m/s | -0.4°C | 99.1% | 652.3hPa | 2.7V | 00:00:00 | 00:00:00 | 00:00:00 | |
| POL2MAQ | 2026-09-04 07:29:03 | 50.80742 | 17.60887 | 118° | 93km/h | 3698m | -1.9m/s | -0.4°C | 99.1% | 651.9hPa | 2.7V | 00:00:00 | 00:00:00 | 00:00:00 | |
| SQ6EMJ | 2026-09-04 07:29:00 | 50.80774 | 17.60787 | 118° | 93km/h | 3704m | -1.5m/s | -0.4°C | 0% | 651.5hPa | 2.7V | 00:00:00 | 00:00:00 | 00:00:00 | |
| POL1PZ | 2026-09-04 07:28:47 | 50.80921 | 17.60356 | 121° | 93km/h | 3726m | -2.0m/s | -0.5°C | 0% | 649.6hPa | 2.7V | 00:00:00 | 00:00:00 | 00:00:00 | |
| POL2MAQ | 2026-09-04 07:28:43 | 50.80968 | 17.60224 | 121° | 95km/h | 3733m | -1.8m/s | -0.6°C | 100.0% | 649.0hPa | 2.7V | 00:00:00 | 00:00:00 | 00:00:00 | |
| SQ6EMJ | 2026-09-04 07:28:37 | 50.81038 | 17.60024 | 120° | 95km/h | 3744m | -1.8m/s | -0.6°C | 0% | 648.2hPa | 2.7V | 00:00:00 | 00:00:00 | 00:00:00 | |
| SP6BVK | 2026-09-04 07:28:33 | 50.81086 | 17.59891 | 120° | 95km/h | 3751m | -1.7m/s | -0.6°C | 0% | 647.6hPa | 2.7V | 00:00:00 | 00:00:00 | 00:00:00 | |
| SQ6EMJ | 2026-09-04 07:28:31 | 50.81110 | 17.59825 | 121° | 95km/h | 3754m | -1.5m/s | -0.6°C | 0% | 647.3hPa | 2.7V | 00:00:00 | 00:00:00 | 00:00:00 | |
| POL1PZ | 2026-09-04 07:28:26 | 50.81169 | 17.59659 | 120° | 95km/h | 3762m | -1.6m/s | -0.7°C | 0% | 646.7hPa | 2.7V | 00:00:00 | 00:00:00 | 00:00:00 | |
| SQ6EMJ | 2026-09-04 07:28:25 | 50.81182 | 17.59626 | 121° | 95km/h | 3763m | -1.4m/s | -0.8°C | 0% | 646.6hPa | 2.7V | 00:00:00 | 00:00:00 | 00:00:00 | |
| POL2MAQ | 2026-09-04 07:28:22 | 50.81218 | 17.59528 | 121° | 95km/h | 3768m | -1.8m/s | -0.9°C | 0% | 646.2hPa | 2.7V | 00:00:00 | 00:00:00 | 00:00:00 | |
| SQ6EMJ | 2026-09-04 07:28:20 | 50.81242 | 17.59463 | 122° | 95km/h | 3771m | -1.4m/s | -0.8°C | 0% | 645.8hPa | 2.7V | 00:00:00 | 00:00:00 | 00:00:00 | |
| SQ6EMJ | 2026-09-04 07:28:14 | 50.81317 | 17.59270 | 123° | 93km/h | 3780m | -1.6m/s | -0.9°C | 0% | 645.2hPa | 2.7V | 00:00:00 | 00:00:00 | 00:00:00 | |
| SP6BVK | 2026-09-04 07:28:13 | 50.81329 | 17.59238 | 123° | 93km/h | 3781m | -1.5m/s | -0.9°C | 0% | 645.1hPa | 2.7V | 00:00:00 | 00:00:00 | 00:00:00 | |
| SQ6EMJ | 2026-09-04 07:28:08 | 50.81390 | 17.59084 | 123° | 89km/h | 3789m | -1.6m/s | -0.9°C | 0% | 644.4hPa | 2.7V | 00:00:00 | 00:00:00 | 00:00:00 | |
| POL1PZ | 2026-09-04 07:28:06 | 50.81414 | 17.59024 | 123° | 89km/h | 3792m | -1.3m/s | -0.9°C | 0% | 644.3hPa | 2.7V | 00:00:00 | 00:00:00 | 00:00:00 | |
| SQ6EMJ | 2026-09-04 07:28:03 | 50.81462 | 17.58903 | 123° | 89km/h | 3796m | -1.5m/s | -1.0°C | 0% | 643.8hPa | 2.7V | 00:00:00 | 00:00:00 | 00:00:00 | |
| POL2MAQ | 2026-09-04 07:28:01 | 50.81474 | 17.58873 | 123° | 89km/h | 3798m | -1.5m/s | -1.0°C | 98.9% | 643.7hPa | 2.7V | 00:00:00 | 00:00:00 | 00:00:00 | |
| SQ6EMJ | 2026-09-04 07:27:57 | 50.81522 | 17.58752 | 123° | 89km/h | 3804m | -1.6m/s | -1.0°C | 97.6% | 643.2hPa | 2.7V | 00:00:00 | 00:00:00 | 00:00:00 | |
| SP6BVK | 2026-09-04 07:27:53 | 50.81569 | 17.58632 | 123° | 88km/h | 3810m | -1.5m/s | -1.0°C | 97.0% | 642.7hPa | 2.7V | 00:00:00 | 00:00:00 | 00:00:00 | |
| SQ6EMJ | 2026-09-04 07:27:52 | 50.81593 | 17.58573 | 122° | 86km/h | 3812m | -1.6m/s | -1.1°C | 97.0% | 642.5hPa | 2.7V | 00:00:00 | 00:00:00 | 00:00:00 | |
| POL1PZ | 2026-09-04 07:27:46 | 50.81650 | 17.58425 | 122° | 86km/h | 3820m | -1.1m/s | -1.0°C | 95.9% | 642.0hPa | 2.7V | 00:00:00 | 00:00:00 | 00:00:00 | |
| SQ6EMJ | 2026-09-04 07:27:45 | 50.81661 | 17.58395 | 122° | 88km/h | 3821m | -1.3m/s | -1.0°C | 96.3% | 641.8hPa | 2.7V | 00:00:00 | 00:00:00 | 00:00:00 | |
| POL2MAQ | 2026-09-04 07:27:41 | 50.81705 | 17.58276 | 121° | 86km/h | 3826m | -1.5m/s | -1.1°C | 96.0% | 641.5hPa | 2.7V | 00:00:00 | 00:00:00 | 00:00:00 | |
| SQ6EMJ | 2026-09-04 07:27:39 | 50.81726 | 17.58216 | 120° | 86km/h | 3829m | -1.5m/s | -1.1°C | 96.1% | 641.2hPa | 2.7V | 00:00:00 | 00:00:00 | 00:00:00 | |
| SQ6EMJ | 2026-09-04 07:27:33 | 50.81789 | 17.58036 | 120° | 86km/h | 3837m | -1.3m/s | -1.1°C | 96.7% | 640.5hPa | 2.7V | 00:00:00 | 00:00:00 | 00:00:00 | |
| SP6BVK | 2026-09-04 07:27:32 | 50.81800 | 17.58005 | 120° | 86km/h | 3838m | -1.4m/s | -1.1°C | 95.6% | 640.5hPa | 2.7V | 00:00:00 | 00:00:00 | 00:00:00 | |
| SQ6EMJ | 2026-09-04 07:27:28 | 50.81852 | 17.57853 | 119° | 88km/h | 3844m | -1.2m/s | -1.1°C | 82.7% | 640.0hPa | 2.7V | 00:00:00 | 00:00:00 | 00:00:00 | |
| POL1PZ | 2026-09-04 07:27:25 | 50.81873 | 17.57791 | 118° | 88km/h | 3847m | -1.4m/s | -1.1°C | 83.4% | 639.8hPa | 2.7V | 00:00:00 | 00:00:00 | 00:00:00 | |
| SQ6EMJ | 2026-09-04 07:27:22 | 50.81913 | 17.57665 | 118° | 89km/h | 3852m | -1.2m/s | -1.1°C | 84.7% | 639.4hPa | 2.7V | 00:00:00 | 00:00:00 | 00:00:00 | |
| POL2MAQ | 2026-09-04 07:27:20 | 50.81923 | 17.57633 | 117° | 89km/h | 3854m | -1.5m/s | -1.2°C | 85.5% | 639.2hPa | 2.7V | 00:00:00 | 00:00:00 | 00:00:00 | |
| SQ6EMJ | 2026-09-04 07:27:17 | 50.81963 | 17.57504 | 117° | 89km/h | 3859m | -1.4m/s | -1.2°C | 86.2% | 638.8hPa | 2.7V | 00:00:00 | 00:00:00 | 00:00:00 | |
| SP6BVK | 2026-09-04 07:27:12 | 50.82003 | 17.57374 | 117° | 91km/h | 3865m | -1.3m/s | -1.3°C | 86.3% | 638.5hPa | 2.7V | 00:00:00 | 00:00:00 | 00:00:00 | |
| SQ6EMJ | 2026-09-04 07:27:11 | 50.82023 | 17.57308 | 117° | 91km/h | 3867m | -1.4m/s | -1.3°C | 86.3% | 638.3hPa | 2.7V | 00:00:00 | 00:00:00 | 00:00:00 | |
| POL1PZ | 2026-09-04 07:27:05 | 50.82073 | 17.57144 | 117° | 91km/h | 3875m | -1.4m/s | -1.3°C | 86.7% | 637.7hPa | 2.7V | 00:00:00 | 00:00:00 | 00:00:00 | |
| POL2MAQ | 2026-09-04 07:26:59 | 50.82136 | 17.56943 | 118° | 95km/h | 3883m | -1.4m/s | -1.4°C | 87.8% | 637.1hPa | 2.7V | 00:00:00 | 00:00:00 | 00:00:00 | |
| SQ6EMJ | 2026-09-04 07:26:53 | 50.82200 | 17.56740 | 118° | 95km/h | 3891m | -1.4m/s | -1.4°C | 85.6% | 636.4hPa | 2.7V | 00:00:00 | 00:00:00 | 00:00:00 | |
| SP6BVK | 2026-09-04 07:26:51 | 50.82223 | 17.56672 | 119° | 95km/h | 3894m | -1.3m/s | -1.4°C | 84.3% | 636.1hPa | 2.7V | 00:00:00 | 00:00:00 | 00:00:00 | |
| SQ6EMJ | 2026-09-04 07:26:48 | 50.82257 | 17.56572 | 120° | 95km/h | 3898m | -1.3m/s | -1.4°C | 84.7% | 636.0hPa | 2.7V | 00:00:00 | 00:00:00 | 00:00:00 | |
| POL1PZ | 2026-09-04 07:26:44 | 50.82303 | 17.56438 | 120° | 95km/h | 3903m | -1.3m/s | -1.4°C | 85.4% | 635.5hPa | 2.7V | 00:00:00 | 00:00:00 | 00:00:00 | |
| SQ6EMJ | 2026-09-04 07:26:43 | 50.82315 | 17.56405 | 120° | 95km/h | 3904m | -1.3m/s | -1.4°C | 85.3% | 635.4hPa | 2.7V | 00:00:00 | 00:00:00 | 00:00:00 | |
| POL2MAQ | 2026-09-04 07:26:39 | 50.82363 | 17.56272 | 121° | 95km/h | 3910m | -1.3m/s | -1.5°C | 82.2% | 634.9hPa | 2.7V | 00:00:00 | 00:00:00 | 00:00:00 | |
| SQ6EMJ | 2026-09-04 07:26:38 | 50.82375 | 17.56239 | 120° | 95km/h | 3911m | -1.3m/s | -1.4°C | 80.8% | 634.9hPa | 2.7V | 00:00:00 | 00:00:00 | 00:00:00 | |
| OE3JTB-15 | 2026-09-04 07:26:35 | 50.82422 | 17.56107 | 120° | 91km/h | 3917m | -1.2m/s | -1.4°C | 80.2% | 634.5hPa | 2.7V | 00:00:00 | 00:00:00 | 00:00:00 | |
| SQ6EMJ | 2026-09-04 07:26:33 | 50.82446 | 17.56042 | 121° | 95km/h | 3919m | -1.3m/s | -1.5°C | 78.8% | 634.3hPa | 2.7V | 00:00:00 | 00:00:00 | 00:00:00 | |
| SP6BVK | 2026-09-04 07:26:31 | 50.82458 | 17.56010 | 121° | 93km/h | 3921m | -1.3m/s | -1.4°C | 77.1% | 634.0hPa | 2.7V | 00:00:00 | 00:00:00 | 00:00:00 | |
| SQ6EMJ | 2026-09-04 07:26:27 | 50.82518 | 17.55850 | 121° | 91km/h | 3927m | -1.3m/s | -1.4°C | 73.1% | 633.7hPa | 2.7V | 00:00:00 | 00:00:00 | 00:00:00 | |
| POL1PZ | 2026-09-04 07:26:24 | 50.82541 | 17.55786 | 121° | 91km/h | 3930m | -1.2m/s | -1.4°C | 71.4% | 633.5hPa | 2.7V | 00:00:00 | 00:00:00 | 00:00:00 | |
| SQ6EMJ | 2026-09-04 07:26:21 | 50.82576 | 17.55692 | 121° | 91km/h | 3934m | -1.3m/s | -1.5°C | 69.5% | 633.2hPa | 2.7V | 00:00:00 | 00:00:00 | 00:00:00 | |
| POL2MAQ | 2026-09-04 07:26:18 | 50.82610 | 17.55597 | 121° | 91km/h | 3938m | -1.4m/s | -1.4°C | 74.0% | 632.8hPa | 2.7V | 00:00:00 | 00:00:00 | 00:00:00 | |
| SQ6EMJ | 2026-09-04 07:26:16 | 50.82644 | 17.55503 | 120° | 89km/h | 3942m | -1.2m/s | -1.5°C | 80.0% | 632.5hPa | 2.7V | 00:00:00 | 00:00:00 | 00:00:00 | |
| SP6BVK | 2026-09-04 07:26:11 | 50.82688 | 17.55378 | 120° | 89km/h | 3947m | -1.3m/s | -1.4°C | 77.9% | 632.2hPa | 2.7V | 00:00:00 | 00:00:00 | 00:00:00 | |
| SQ6EMJ | 2026-09-04 07:26:10 | 50.82698 | 17.55347 | 119° | 89km/h | 3948m | -1.2m/s | -1.4°C | 76.8% | 631.9hPa | 2.7V | 00:00:00 | 00:00:00 | 00:00:00 | |
| OE3JTB-15 | 2026-09-04 07:26:06 | 50.82751 | 17.55189 | 117° | 91km/h | 3955m | -1.1m/s | -1.3°C | 73.8% | 631.6hPa | 2.7V | 00:00:00 | 03:16:13 | 00:00:00 | |
| SQ6EMJ | 2026-09-04 07:26:05 | 50.82761 | 17.55157 | 117° | 89km/h | 3956m | -1.2m/s | -1.4°C | 72.9% | 631.5hPa | 2.7V | 00:00:00 | 00:00:00 | 00:00:00 | |
| POL1PZ | 2026-09-04 07:26:03 | 50.82771 | 17.55125 | 117° | 89km/h | 3957m | -1.3m/s | -1.4°C | 73.0% | 631.3hPa | 2.7V | 00:00:00 | 00:00:00 | 00:00:00 | |
| SQ6EMJ | 2026-09-04 07:25:59 | 50.82810 | 17.54995 | 117° | 91km/h | 3962m | -1.1m/s | -1.4°C | 72.9% | 630.8hPa | 2.7V | 00:00:00 | 00:00:00 | 00:00:00 | |
| POL2MAQ | 2026-09-04 07:25:57 | 50.82830 | 17.54929 | 116° | 91km/h | 3964m | -1.3m/s | -1.5°C | 74.9% | 630.8hPa | 2.7V | 00:00:00 | 00:00:00 | 00:00:00 | |
| SQ6EMJ | 2026-09-04 07:25:55 | 50.82859 | 17.54830 | 116° | 91km/h | 3968m | -1.2m/s | -1.5°C | 76.0% | 630.4hPa | 2.7V | 00:00:00 | 00:00:00 | 00:00:00 | |
| SP6BVK | 2026-09-04 07:25:50 | 50.82898 | 17.54697 | 116° | 91km/h | 3973m | -1.1m/s | -1.5°C | 75.9% | 630.0hPa | 2.7V | 00:00:00 | 00:00:00 | 00:00:00 | |
| SQ6EMJ | 2026-09-04 07:25:49 | 50.82907 | 17.54664 | 116° | 91km/h | 3974m | -1.4m/s | -1.5°C | 75.9% | 630.0hPa | 2.7V | 00:00:00 | 00:00:00 | 00:00:00 | |
| SQ6EMJ | 2026-09-04 07:25:44 | 50.82966 | 17.54462 | 115° | 93km/h | 3982m | -1.4m/s | -1.6°C | 76.2% | 629.4hPa | 2.7V | 00:00:00 | 00:00:00 | 00:00:00 | |
| POL1PZ | 2026-09-04 07:25:42 | 50.82975 | 17.54428 | 115° | 93km/h | 3983m | -1.2m/s | -1.6°C | 76.5% | 629.2hPa | 2.7V | 00:00:00 | 00:00:00 | 00:00:00 | |
| SQ6EMJ | 2026-09-04 07:25:39 | 50.83014 | 17.54290 | 115° | 93km/h | 3989m | -1.4m/s | -1.6°C | 77.0% | 628.8hPa | 2.7V | 00:00:00 | 00:00:00 | 00:00:00 | |
| POL2MAQ | 2026-09-04 07:25:37 | 50.83024 | 17.54256 | 115° | 95km/h | 3990m | -1.5m/s | -1.6°C | 76.6% | 628.7hPa | 2.7V | 00:00:00 | 00:00:00 | 00:00:00 | |
| SQ6EMJ | 2026-09-04 07:25:32 | 50.83074 | 17.54082 | 115° | 97km/h | 3997m | -1.4m/s | -1.7°C | 78.3% | 628.1hPa | 2.7V | 00:00:00 | 00:00:00 | 00:00:00 | |
| SP6BVK | 2026-09-04 07:25:30 | 50.83095 | 17.54011 | 116° | 97km/h | 4000m | -1.5m/s | -1.7°C | 79.0% | 628.0hPa | 2.7V | 00:00:00 | 00:00:00 | 00:00:00 | |
| SQ6EMJ | 2026-09-04 07:25:28 | 50.83126 | 17.53905 | 117° | 99km/h | 4004m | -1.3m/s | -1.7°C | 80.2% | 627.6hPa | 2.7V | 00:00:00 | 00:00:00 | 00:00:00 | |
| POL1PZ | 2026-09-04 07:25:21 | 50.83193 | 17.53692 | 118° | 99km/h | 4012m | -1.3m/s | -1.8°C | 85.9% | 627.0hPa | 2.7V | 00:00:00 | 00:00:00 | 00:00:00 | |
| POL2MAQ | 2026-09-04 07:25:17 | 50.83238 | 17.53550 | 118° | 100km/h | 4017m | -1.4m/s | -1.9°C | 87.5% | 626.6hPa | 2.7V | 00:00:00 | 00:00:00 | 00:00:00 | |
| SQ6EMJ | 2026-09-04 07:25:16 | 50.83250 | 17.53514 | 118° | 100km/h | 4018m | -1.3m/s | -1.9°C | 87.6% | 626.5hPa | 2.7V | 00:00:00 | 00:00:00 | 00:00:00 | |
| SQ6EMJ | 2026-09-04 07:25:11 | 50.83307 | 17.53336 | 118° | 99km/h | 4025m | -1.3m/s | -2.0°C | 89.2% | 626.0hPa | 2.7V | 00:00:00 | 00:00:00 | 00:00:00 | |
| SP6BVK | 2026-09-04 07:25:10 | 50.83319 | 17.53301 | 119° | 99km/h | 4027m | -1.4m/s | -2.0°C | 89.8% | 626.0hPa | 2.7V | 00:00:00 | 00:00:00 | 00:00:00 | |
| OE3JTB-15 | 2026-09-04 07:25:08 | 50.83354 | 17.53195 | 118° | 99km/h | 4031m | -1.3m/s | -2.0°C | 93.3% | 625.5hPa | 2.7V | 00:00:00 | 00:00:00 | 00:00:00 | |
| SQ6EMJ | 2026-09-04 07:25:05 | 50.83377 | 17.53125 | 119° | 100km/h | 4033m | -1.0m/s | -2.0°C | 91.6% | 625.3hPa | 2.7V | 00:00:00 | 00:00:00 | 00:00:00 | |
| SQ6EMJ | 2026-09-04 07:25:01 | 50.83438 | 17.52947 | 120° | 100km/h | 4040m | -1.6m/s | -2.1°C | 92.1% | 624.8hPa | 2.7V | 00:00:00 | 00:00:00 | 00:00:00 | |
| POL2MAQ | 2026-09-04 07:24:56 | 50.83487 | 17.52808 | 120° | 100km/h | 4045m | -1.3m/s | -2.1°C | 91.4% | 624.3hPa | 2.7V | 00:00:00 | 00:00:00 | 00:00:00 | |
| SQ6EMJ | 2026-09-04 07:24:55 | 50.83499 | 17.52773 | 120° | 100km/h | 4047m | -1.5m/s | -2.1°C | 91.6% | 624.2hPa | 2.7V | 00:00:00 | 00:00:00 | 00:00:00 | |
| SQ6EMJ | 2026-09-04 07:24:50 | 50.83575 | 17.52569 | 122° | 99km/h | 4055m | -1.4m/s | -2.2°C | 91.6% | 623.5hPa | 2.7V | 00:00:00 | 00:00:00 | 00:00:00 | |
| SP6BVK | 2026-09-04 07:24:49 | 50.83575 | 17.52569 | 122° | 99km/h | 4055m | -1.4m/s | -2.2°C | 91.6% | 623.5hPa | 2.7V | 00:00:00 | 00:00:00 | 00:00:00 | |
| SQ6EMJ | 2026-09-04 07:24:44 | 50.83638 | 17.52399 | 122° | 99km/h | 4063m | -1.6m/s | -2.2°C | 91.7% | 623.0hPa | 2.7V | 00:00:00 | 00:00:00 | 00:00:00 | |
| POL1PZ | 2026-09-04 07:24:40 | 50.83690 | 17.52265 | 122° | 97km/h | 4069m | -1.5m/s | -2.3°C | 91.3% | 622.5hPa | 2.7V | 00:00:00 | 00:00:00 | 00:00:00 | |
| OE3JTB-15 | 2026-09-04 07:24:39 | 50.83716 | 17.52198 | 123° | 102km/h | 4072m | -1.5m/s | -2.3°C | 93.6% | 622.4hPa | 2.7V | 00:00:00 | 03:14:46 | 00:00:00 | |
| SQ6EMJ | 2026-09-04 07:24:38 | 50.83716 | 17.52197 | 123° | 99km/h | 4072m | -1.6m/s | -2.3°C | 91.3% | 622.4hPa | 2.7V | 00:00:00 | 00:00:00 | 00:00:00 | |
| POL2MAQ | 2026-09-04 07:24:35 | 50.83755 | 17.52097 | 123° | 97km/h | 4077m | -1.5m/s | -2.3°C | 90.9% | 622.0hPa | 2.7V | 00:00:00 | 00:00:00 | 00:00:00 | |
| SQ6EMJ | 2026-09-04 07:24:33 | 50.83793 | 17.51997 | 123° | 99km/h | 4081m | -1.3m/s | -2.4°C | 91.1% | 621.6hPa | 2.7V | 00:00:00 | 00:00:00 | 00:00:00 | |
| SP6BVK | 2026-09-04 07:24:28 | 50.83845 | 17.51866 | 123° | 97km/h | 4086m | -1.5m/s | -2.4°C | 89.7% | 621.2hPa | 2.7V | 00:00:00 | 00:00:00 | 00:00:00 | |
| SQ6EMJ | 2026-09-04 07:24:27 | 50.83871 | 17.51800 | 123° | 97km/h | 4090m | -1.5m/s | -2.4°C | 88.0% | 620.9hPa | 2.7V | 00:00:00 | 00:00:00 | 00:00:00 | |
| SQ6EMJ | 2026-09-04 07:24:21 | 50.83935 | 17.51634 | 122° | 97km/h | 4097m | -1.4m/s | -2.4°C | 87.6% | 620.5hPa | 2.7V | 00:00:00 | 00:00:00 | 00:00:00 | |
| POL1PZ | 2026-09-04 07:24:19 | 50.83961 | 17.51568 | 123° | 97km/h | 4100m | -1.3m/s | -2.5°C | 87.6% | 620.0hPa | 2.7V | 00:00:00 | 00:00:00 | 00:00:00 | |
| SQ6EMJ | 2026-09-04 07:24:16 | 50.84012 | 17.51438 | 122° | 95km/h | 4106m | -1.4m/s | -2.5°C | 84.9% | 619.8hPa | 2.7V | 00:00:00 | 00:00:00 | 00:00:00 | |
| POL2MAQ | 2026-09-04 07:24:15 | 50.84012 | 17.51438 | 122° | 95km/h | 4106m | -1.4m/s | -2.5°C | 84.9% | 619.8hPa | 2.7V | 00:00:00 | 00:00:00 | 00:00:00 | |
| SQ6EMJ | 2026-09-04 07:24:10 | 50.84074 | 17.51277 | 122° | 93km/h | 4113m | -1.3m/s | -2.5°C | 82.4% | 619.3hPa | 2.7V | 00:00:00 | 00:00:00 | 00:00:00 | |
| SP6BVK | 2026-09-04 07:24:08 | 50.84098 | 17.51213 | 122° | 93km/h | 4115m | -1.2m/s | -2.5°C | 83.9% | 619.0hPa | 2.7V | 00:00:00 | 00:00:00 | 00:00:00 | |
| SQ6EMJ | 2026-09-04 07:24:04 | 50.84146 | 17.51086 | 122° | 93km/h | 4121m | -1.2m/s | -2.5°C | 81.5% | 618.6hPa | 2.7V | 00:00:00 | 00:00:00 | 00:00:00 | |
| SQ6EMJ | 2026-09-04 07:23:59 | 50.84218 | 17.50896 | 122° | 93km/h | 4128m | -1.2m/s | -2.6°C | 77.2% | 617.9hPa | 2.7V | 00:00:00 | 00:00:00 | 00:00:00 | |
| POL1PZ | 2026-09-04 07:23:58 | 50.84218 | 17.50896 | 122° | 93km/h | 4128m | -1.2m/s | -2.6°C | 77.2% | 617.9hPa | 2.7V | 00:00:00 | 00:00:00 | 00:00:00 | |
| POL2MAQ | 2026-09-04 07:23:54 | 50.84266 | 17.50769 | 121° | 91km/h | 4134m | -1.4m/s | -2.6°C | 77.4% | 617.4hPa | 2.7V | 00:00:00 | 00:00:00 | 00:00:00 | |
| SQ6EMJ | 2026-09-04 07:23:53 | 50.84288 | 17.50706 | 121° | 91km/h | 4136m | -1.4m/s | -2.6°C | 77.3% | 617.3hPa | 2.7V | 00:00:00 | 00:00:00 | 00:00:00 | |
| SP6BVK | 2026-09-04 07:23:47 | 50.84345 | 17.50546 | 119° | 91km/h | 4144m | -1.3m/s | -2.7°C | 77.6% | 616.7hPa | 2.7V | 00:00:00 | 00:00:00 | 00:00:00 | |
| SQ6EMJ | 2026-09-04 07:23:46 | 50.84356 | 17.50514 | 120° | 91km/h | 4145m | -1.5m/s | -2.7°C | 77.7% | 616.5hPa | 2.7V | 00:00:00 | 00:00:00 | 00:00:00 | |
| SQ6EMJ | 2026-09-04 07:23:40 | 50.84420 | 17.50319 | 118° | 93km/h | 4154m | -1.2m/s | -2.8°C | 78.2% | 615.9hPa | 2.7V | 00:00:00 | 00:00:00 | 00:00:00 | |
| POL1PZ | 2026-09-04 07:23:38 | 50.84442 | 17.50253 | 118° | 93km/h | 4156m | -1.4m/s | -2.8°C | 78.2% | 615.6hPa | 2.7V | 00:00:00 | 00:00:00 | 00:00:00 | |
| SQ6EMJ | 2026-09-04 07:23:35 | 50.84473 | 17.50153 | 118° | 93km/h | 4160m | -1.2m/s | -2.9°C | 78.7% | 615.4hPa | 2.7V | 00:00:00 | 00:00:00 | 00:00:00 | |
| POL2MAQ | 2026-09-04 07:23:33 | 50.84494 | 17.50086 | 117° | 93km/h | 4163m | -1.4m/s | -2.9°C | 78.7% | 615.0hPa | 2.7V | 00:00:00 | 00:00:00 | 00:00:00 | |
| SQ6EMJ | 2026-09-04 07:23:30 | 50.84536 | 17.49952 | 117° | 93km/h | 4168m | -1.5m/s | -3.0°C | 79.3% | 614.6hPa | 2.7V | 00:00:00 | 00:00:00 | 00:00:00 | |
| SP6BVK | 2026-09-04 07:23:27 | 50.84568 | 17.49850 | 117° | 95km/h | 4172m | -1.4m/s | -3.0°C | 79.5% | 614.4hPa | 2.7V | 00:00:00 | 00:00:00 | 00:00:00 | |
| SQ6EMJ | 2026-09-04 07:23:24 | 50.84589 | 17.49782 | 117° | 97km/h | 4175m | -1.4m/s | -3.0°C | 79.8% | 614.2hPa | 2.7V | 00:00:00 | 00:00:00 | 00:00:00 | |
| SQ6EMJ | 2026-09-04 07:23:19 | 50.84653 | 17.49572 | 117° | 99km/h | 4184m | -1.4m/s | -3.1°C | 80.1% | 613.5hPa | 2.7V | 00:00:00 | 00:00:00 | 00:00:00 | |
| POL1PZ | 2026-09-04 07:23:18 | 50.84653 | 17.49572 | 117° | 99km/h | 4184m | -1.4m/s | -3.1°C | 80.1% | 613.5hPa | 2.7V | 00:00:00 | 00:00:00 | 00:00:00 | |
| SQ6EMJ | 2026-09-04 07:23:13 | 50.84716 | 17.49360 | 116° | 97km/h | 4193m | -1.3m/s | -3.1°C | 80.4% | 612.8hPa | 2.7V | 00:00:00 | 00:00:00 | 00:00:00 | |
| POL2MAQ | 2026-09-04 07:23:12 | 50.84716 | 17.49360 | 116° | 97km/h | 4193m | -1.3m/s | -3.1°C | 80.4% | 612.8hPa | 2.7V | 00:00:00 | 00:00:00 | 00:00:00 | |
| SQ6EMJ | 2026-09-04 07:23:06 | 50.84779 | 17.49147 | 116° | 100km/h | 4201m | -1.2m/s | -3.1°C | 80.9% | 612.2hPa | 2.7V | 00:00:00 | 00:00:00 | 00:00:00 | |
| SP6BVK | 2026-09-04 07:23:05 | 50.84790 | 17.49111 | 116° | 99km/h | 4202m | -1.3m/s | -3.1°C | 81.0% | 612.0hPa | 2.7V | 00:00:00 | 00:00:00 | 00:00:00 | |
| SQ6EMJ | 2026-09-04 07:23:00 | 50.84844 | 17.48931 | 116° | 100km/h | 4209m | -1.7m/s | -3.2°C | 81.2% | 611.5hPa | 2.7V | 00:00:00 | 00:00:00 | 00:00:00 | |
| POL1PZ | 2026-09-04 07:22:57 | 50.84878 | 17.48823 | 117° | 100km/h | 4213m | -1.4m/s | -3.2°C | 81.3% | 611.2hPa | 2.7V | 00:00:00 | 00:00:00 | 00:00:00 | |
| SQ6EMJ | 2026-09-04 07:22:54 | 50.84911 | 17.48713 | 117° | 102km/h | 4218m | -1.5m/s | -3.3°C | 81.5% | 610.8hPa | 2.7V | 00:00:00 | 00:00:00 | 00:00:00 | |
| POL2MAQ | 2026-09-04 07:22:52 | 50.84934 | 17.48640 | 117° | 102km/h | 4221m | -1.6m/s | -3.3°C | 81.7% | 610.7hPa | 2.7V | 00:00:00 | 00:00:00 | 00:00:00 | |
| SQ6EMJ | 2026-09-04 07:22:48 | 50.84981 | 17.48493 | 117° | 102km/h | 4226m | -1.1m/s | -3.4°C | 81.9% | 610.2hPa | 2.7V | 00:00:00 | 00:00:00 | 00:00:00 | |
| SP6BVK | 2026-09-04 07:22:45 | 50.85016 | 17.48383 | 119° | 104km/h | 4230m | -1.6m/s | -3.4°C | 81.9% | 609.9hPa | 2.7V | 00:00:00 | 00:00:00 | 00:00:00 | |
| SQ6EMJ | 2026-09-04 07:22:42 | 50.85052 | 17.48272 | 119° | 104km/h | 4234m | -1.4m/s | -3.4°C | 81.9% | 609.6hPa | 2.7V | 00:00:00 | 00:00:00 | 00:00:00 | |
| OE3JTB-15 | 2026-09-04 07:22:40 | 50.85088 | 17.48162 | 118° | 100km/h | 4239m | -1.5m/s | -3.4°C | 84.0% | 609.2hPa | 2.7V | 00:00:00 | 00:00:00 | 00:00:00 | |
| SQ6EMJ | 2026-09-04 07:22:38 | 50.85113 | 17.48089 | 119° | 102km/h | 4242m | -1.1m/s | -3.5°C | 82.0% | 609.0hPa | 2.7V | 00:00:00 | 00:00:00 | 00:00:00 | |
| POL1PZ | 2026-09-04 07:22:36 | 50.85125 | 17.48052 | 119° | 104km/h | 4243m | -1.1m/s | -3.5°C | 82.0% | 609.0hPa | 2.7V | 00:00:00 | 00:00:00 | 00:00:00 | |
| POL2MAQ | 2026-09-04 07:22:31 | 50.85188 | 17.47871 | 120° | 104km/h | 4250m | -1.5m/s | -3.6°C | 83.2% | 608.3hPa | 2.7V | 00:00:00 | 00:00:00 | 00:00:00 | |
| SQ6EMJ | 2026-09-04 07:22:30 | 50.85214 | 17.47799 | 120° | 102km/h | 4253m | -1.4m/s | -3.6°C | 83.4% | 608.0hPa | 2.7V | 00:00:00 | 00:00:00 | 00:00:00 | |
| SQ6EMJ | 2026-09-04 07:22:24 | 50.85289 | 17.47581 | 120° | 102km/h | 4262m | -1.4m/s | -3.7°C | 83.3% | 607.4hPa | 2.7V | 00:00:00 | 00:00:00 | 00:00:00 | |
| SQ6EMJ | 2026-09-04 07:22:19 | 50.85353 | 17.47403 | 121° | 102km/h | 4269m | -1.4m/s | -3.7°C | 82.5% | 606.9hPa | 2.7V | 00:00:00 | 00:00:00 | 00:00:00 | |
| POL1PZ | 2026-09-04 07:22:15 | 50.85392 | 17.47299 | 122° | 100km/h | 4274m | -1.6m/s | -3.7°C | 82.4% | 606.5hPa | 2.7V | 00:00:00 | 00:00:00 | 00:00:00 | |
| SQ6EMJ | 2026-09-04 07:22:13 | 50.85431 | 17.47194 | 121° | 100km/h | 4278m | -1.4m/s | -3.7°C | 80.0% | 606.2hPa | 2.7V | 00:00:00 | 00:00:00 | 00:00:00 | |
| POL2MAQ | 2026-09-04 07:22:10 | 50.85456 | 17.47124 | 121° | 100km/h | 4281m | -1.5m/s | -3.7°C | 81.1% | 606.1hPa | 2.7V | 00:00:00 | 00:00:00 | 00:00:00 | |
| SQ6EMJ | 2026-09-04 07:22:07 | 50.85494 | 17.47021 | 121° | 99km/h | 4285m | -1.2m/s | -3.7°C | 78.4% | 605.7hPa | 2.7V | 00:00:00 | 00:00:00 | 00:00:00 | |
| SP6BVK | 2026-09-04 07:22:04 | 50.85531 | 17.46919 | 121° | 97km/h | 4289m | -1.7m/s | -3.7°C | 78.8% | 605.4hPa | 2.7V | 00:00:00 | 00:00:00 | 00:00:00 | |
| SQ6EMJ | 2026-09-04 07:22:02 | 50.85568 | 17.46819 | 121° | 97km/h | 4294m | -1.6m/s | -3.8°C | 78.7% | 605.1hPa | 2.7V | 00:00:00 | 00:00:00 | 00:00:00 | |
| SQ6EMJ | 2026-09-04 07:21:56 | 50.85629 | 17.46651 | 120° | 97km/h | 4301m | -1.0m/s | -3.8°C | 78.5% | 604.5hPa | 2.7V | 00:00:00 | 00:00:00 | 00:00:00 | |
| POL1PZ | 2026-09-04 07:21:54 | 50.85653 | 17.46584 | 121° | 95km/h | 4304m | -1.4m/s | -3.8°C | 77.3% | 604.3hPa | 2.7V | 00:00:00 | 00:00:00 | 00:00:00 | |
| POL2MAQ | 2026-09-04 07:21:50 | 50.85701 | 17.46450 | 121° | 95km/h | 4309m | -1.5m/s | -3.8°C | 76.7% | 603.9hPa | 2.7V | 00:00:00 | 00:00:00 | 00:00:00 | |
| SQ6EMJ | 2026-09-04 07:21:46 | 50.85748 | 17.46318 | 122° | 95km/h | 4315m | -1.5m/s | -3.9°C | 77.0% | 603.4hPa | 2.7V | 00:00:00 | 00:00:00 | 00:00:00 | |
| SP6BVK | 2026-09-04 07:21:43 | 50.85784 | 17.46219 | 120° | 93km/h | 4319m | -1.2m/s | -3.9°C | 76.9% | 603.1hPa | 2.7V | 00:00:00 | 00:00:00 | 00:00:00 | |
| SQ6EMJ | 2026-09-04 07:21:40 | 50.85819 | 17.46123 | 122° | 93km/h | 4324m | -1.4m/s | -4.0°C | 76.6% | 602.8hPa | 2.7V | 00:00:00 | 00:00:00 | 00:00:00 | |
| SQ6EMJ | 2026-09-04 07:21:34 | 50.85900 | 17.45897 | 120° | 93km/h | 4332m | -1.3m/s | -4.0°C | 77.1% | 602.1hPa | 2.7V | 00:00:00 | 00:00:00 | 00:00:00 | |
| POL1PZ | 2026-09-04 07:21:33 | 50.85900 | 17.45897 | 120° | 93km/h | 4332m | -1.3m/s | -4.0°C | 77.1% | 602.1hPa | 2.7V | 00:00:00 | 00:00:00 | 00:00:00 | |
| POL2MAQ | 2026-09-04 07:21:29 | 50.85946 | 17.45768 | 119° | 91km/h | 4338m | -1.3m/s | -4.1°C | 77.0% | 601.7hPa | 2.7V | 00:00:00 | 00:00:00 | 00:00:00 | |
| SQ6EMJ | 2026-09-04 07:21:28 | 50.85957 | 17.45736 | 121° | 91km/h | 4339m | -1.4m/s | -4.1°C | 77.0% | 601.6hPa | 2.7V | 00:00:00 | 00:00:00 | 00:00:00 | |
| SQ6EMJ | 2026-09-04 07:21:23 | 50.86025 | 17.45543 | 119° | 91km/h | 4347m | -1.3m/s | -4.1°C | 76.1% | 601.0hPa | 2.7V | 00:00:00 | 00:00:00 | 00:00:00 | |
| SQ6EMJ | 2026-09-04 07:21:18 | 50.86080 | 17.45380 | 119° | 93km/h | 4353m | -1.2m/s | -4.1°C | 76.0% | 600.5hPa | 2.7V | 00:00:00 | 00:00:00 | 00:00:00 | |
| SQ6EMJ | 2026-09-04 07:21:12 | 50.86145 | 17.45177 | 117° | 95km/h | 4360m | -1.2m/s | -4.2°C | 75.2% | 600.0hPa | 2.7V | 00:00:00 | 00:00:00 | 00:00:00 | |
| POL2MAQ | 2026-09-04 07:21:08 | 50.86176 | 17.45073 | 117° | 97km/h | 4364m | -1.2m/s | -4.1°C | 74.8% | 599.5hPa | 2.7V | 00:00:00 | 00:00:00 | 00:00:00 | |
| SQ6EMJ | 2026-09-04 07:21:05 | 50.86209 | 17.44968 | 117° | 97km/h | 4367m | -1.4m/s | -4.1°C | 74.4% | 599.4hPa | 2.7V | 00:00:00 | 00:00:00 | 00:00:00 | |
| SP6BVK | 2026-09-04 07:21:02 | 50.86242 | 17.44861 | 118° | 100km/h | 4372m | -1.3m/s | -4.1°C | 73.5% | 599.1hPa | 2.7V | 00:00:00 | 00:00:00 | 00:00:00 | |
| SQ6EMJ | 2026-09-04 07:21:00 | 50.86265 | 17.44790 | 118° | 100km/h | 4374m | -1.4m/s | -4.1°C | 73.5% | 598.9hPa | 2.7V | 00:00:00 | 00:00:00 | 00:00:00 | |
| SQ6EMJ | 2026-09-04 07:20:55 | 50.86323 | 17.44610 | 118° | 102km/h | 4381m | -1.3m/s | -4.2°C | 72.7% | 598.3hPa | 2.7V | 00:00:00 | 00:00:00 | 00:00:00 | |
| POL1PZ | 2026-09-04 07:20:52 | 50.86359 | 17.44502 | 119° | 102km/h | 4385m | -1.2m/s | -4.2°C | 72.4% | 598.1hPa | 2.7V | 00:00:00 | 00:00:00 | 00:00:00 | |
| SQ6EMJ | 2026-09-04 07:20:49 | 50.86395 | 17.44394 | 118° | 100km/h | 4388m | -1.4m/s | -4.2°C | 72.0% | 597.7hPa | 2.7V | 00:00:00 | 00:00:00 | 00:00:00 | |
| POL2MAQ | 2026-09-04 07:20:47 | 50.86419 | 17.44321 | 118° | 102km/h | 4391m | -1.3m/s | -4.2°C | 71.7% | 597.7hPa | 2.7V | 00:00:00 | 00:00:00 | 00:00:00 | |
| SQ6EMJ | 2026-09-04 07:20:45 | 50.86454 | 17.44213 | 118° | 100km/h | 4395m | -1.3m/s | -4.2°C | 71.8% | 597.3hPa | 2.7V | 00:00:00 | 00:00:00 | 00:00:00 | |
| SQ6EMJ | 2026-09-04 07:20:38 | 50.86527 | 17.43995 | 119° | 102km/h | 4403m | -1.4m/s | -4.3°C | 72.0% | 596.6hPa | 2.7V | 00:00:00 | 00:00:00 | 00:00:00 | |
| SQ6EMJ | 2026-09-04 07:20:33 | 50.86601 | 17.43777 | 120° | 104km/h | 4411m | -1.4m/s | -4.4°C | 72.5% | 596.1hPa | 2.7V | 00:00:00 | 00:00:00 | 00:00:00 | |
| POL1PZ | 2026-09-04 07:20:31 | 50.86613 | 17.43741 | 120° | 104km/h | 4413m | -1.4m/s | -4.4°C | 72.1% | 596.1hPa | 2.7V | 00:00:00 | 00:00:00 | 00:00:00 | |
| SQ6EMJ | 2026-09-04 07:20:26 | 50.86679 | 17.43564 | 122° | 100km/h | 4419m | -1.3m/s | -4.4°C | 71.9% | 595.4hPa | 2.7V | 00:00:00 | 00:00:00 | 00:00:00 | |
| OE3JTB-15 | 2026-09-04 07:20:24 | 50.86716 | 17.43463 | 120° | 95km/h | 4423m | -1.1m/s | -4.4°C | 74.3% | 595.1hPa | 2.7V | 00:00:00 | 00:00:00 | 00:00:00 | |
| SP6BVK | 2026-09-04 07:20:20 | 50.86751 | 17.43364 | 119° | 93km/h | 4427m | -1.3m/s | -4.5°C | 72.4% | 595.0hPa | 2.7V | 00:00:00 | 00:00:00 | 00:00:00 | |
| SQ6EMJ | 2026-09-04 07:20:16 | 50.86806 | 17.43198 | 117° | 93km/h | 4433m | -1.3m/s | -4.4°C | 72.6% | 594.4hPa | 2.7V | 00:00:00 | 00:00:00 | 00:00:00 | |
| POL1PZ | 2026-09-04 07:20:11 | 50.86847 | 17.43062 | 116° | 95km/h | 4439m | -1.4m/s | -4.4°C | 72.8% | 594.0hPa | 2.7V | 00:00:00 | 00:00:00 | 00:00:00 | |
| SQ6EMJ | 2026-09-04 07:20:09 | 50.86868 | 17.42993 | 116° | 95km/h | 4442m | -1.3m/s | -4.4°C | 72.8% | 593.8hPa | 2.7V | 00:00:00 | 00:00:00 | 00:00:00 | |
| POL2MAQ | 2026-09-04 07:20:06 | 50.86898 | 17.42891 | 116° | 95km/h | 4446m | -1.4m/s | -4.5°C | 73.2% | 593.5hPa | 2.7V | 00:00:00 | 00:00:00 | 00:00:00 | |
| SQ6EMJ | 2026-09-04 07:20:05 | 50.86918 | 17.42822 | 116° | 95km/h | 4449m | -1.4m/s | -4.5°C | 73.3% | 593.3hPa | 2.7V | 00:00:00 | 00:00:00 | 00:00:00 | |
| SP6BVK | 2026-09-04 07:20:00 | 50.86958 | 17.42684 | 115° | 95km/h | 4454m | -1.4m/s | -4.4°C | 72.8% | 592.9hPa | 2.7V | 00:00:00 | 00:00:00 | 00:00:00 | |
| SQ6EMJ | 2026-09-04 07:19:59 | 50.86968 | 17.42649 | 115° | 95km/h | 4456m | -1.3m/s | -4.4°C | 72.7% | 592.8hPa | 2.7V | 00:00:00 | 00:00:00 | 00:00:00 | |
| OE3JTB-15 | 2026-09-04 07:19:54 | 50.87027 | 17.42435 | 114° | 97km/h | 4464m | -1.4m/s | -4.3°C | 74.2% | 592.0hPa | 2.7V | 00:00:00 | 00:00:00 | 00:00:00 | |
| SQ6EMJ | 2026-09-04 07:19:53 | 50.87027 | 17.42435 | 114° | 100km/h | 4464m | -1.5m/s | -4.3°C | 72.2% | 592.1hPa | 2.7V | 00:00:00 | 00:00:00 | 00:00:00 | |
| POL1PZ | 2026-09-04 07:19:50 | 50.87057 | 17.42324 | 114° | 100km/h | 4469m | -1.5m/s | -4.3°C | 72.2% | 591.7hPa | 2.7V | 00:00:00 | 00:00:00 | 00:00:00 | |
| SQ6EMJ | 2026-09-04 07:19:48 | 50.87088 | 17.42212 | 115° | 102km/h | 4473m | -1.4m/s | -4.3°C | 71.7% | 591.4hPa | 2.7V | 00:00:00 | 00:00:00 | 00:00:00 | |
| POL2MAQ | 2026-09-04 07:19:45 | 50.87110 | 17.42136 | 116° | 104km/h | 4476m | -1.4m/s | -4.3°C | 70.5% | 591.2hPa | 2.7V | 00:00:00 | 00:00:00 | 00:00:00 | |
| SQ6EMJ | 2026-09-04 07:19:42 | 50.87156 | 17.41986 | 118° | 104km/h | 4482m | -1.5m/s | -4.5°C | 71.4% | 590.8hPa | 2.7V | 00:00:00 | 00:00:00 | 00:00:00 | |
| SP6BVK | 2026-09-04 07:19:40 | 50.87168 | 17.41949 | 119° | 104km/h | 4484m | -1.5m/s | -4.5°C | 71.4% | 590.7hPa | 2.7V | 00:00:00 | 00:00:00 | 00:00:00 | |
| SQ6EMJ | 2026-09-04 07:19:36 | 50.87229 | 17.41769 | 120° | 100km/h | 4491m | -1.4m/s | -4.5°C | 70.9% | 590.1hPa | 2.7V | 00:00:00 | 00:00:00 | 00:00:00 | |
| POL1PZ | 2026-09-04 07:19:30 | 50.87289 | 17.41597 | 119° | 97km/h | 4498m | -1.3m/s | -4.7°C | 70.5% | 589.5hPa | 2.7V | 00:00:00 | 00:00:00 | 00:00:00 | |
| SQ6EMJ | 2026-09-04 07:19:26 | 50.87346 | 17.41427 | 118° | 95km/h | 4505m | -1.5m/s | -4.7°C | 70.5% | 589.1hPa | 2.7V | 00:00:00 | 00:00:00 | 00:00:00 | |
| POL2MAQ | 2026-09-04 07:19:25 | 50.87346 | 17.41427 | 118° | 95km/h | 4505m | -1.5m/s | -4.7°C | 70.5% | 589.1hPa | 2.7V | 00:00:00 | 00:00:00 | 00:00:00 | |
| SQ6EMJ | 2026-09-04 07:19:20 | 50.87411 | 17.41224 | 118° | 95km/h | 4514m | -1.6m/s | -4.7°C | 70.5% | 588.4hPa | 2.7V | 00:00:00 | 00:00:00 | 00:00:00 | |
| SP6BVK | 2026-09-04 07:19:19 | 50.87411 | 17.41224 | 118° | 95km/h | 4514m | -1.6m/s | -4.7°C | 70.5% | 588.4hPa | 2.7V | 00:00:00 | 00:00:00 | 00:00:00 | |
| SQ6EMJ | 2026-09-04 07:19:14 | 50.87477 | 17.41022 | 117° | 93km/h | 4523m | -1.5m/s | -4.8°C | 70.8% | 587.7hPa | 2.7V | 00:00:00 | 00:00:00 | 00:00:00 | |
| POL1PZ | 2026-09-04 07:19:10 | 50.87507 | 17.40920 | 116° | 93km/h | 4528m | -1.6m/s | -4.8°C | 71.0% | 587.3hPa | 2.7V | 00:00:00 | 00:00:00 | 00:00:00 | |
| SQ6EMJ | 2026-09-04 07:19:08 | 50.87526 | 17.40852 | 115° | 93km/h | 4531m | -1.5m/s | -4.8°C | 70.9% | 587.2hPa | 2.7V | 00:00:00 | 00:00:00 | 00:00:00 | |
| OE3JTB-15 | 2026-09-04 07:19:06 | 50.87555 | 17.40748 | 113° | 102km/h | 4536m | -1.6m/s | -4.8°C | 73.1% | 586.7hPa | 2.7V | 00:00:00 | 03:09:13 | 00:00:00 | |
| POL2MAQ | 2026-09-04 07:19:05 | 50.87555 | 17.40748 | 114° | 95km/h | 4536m | -1.7m/s | -4.9°C | 71.0% | 586.8hPa | 2.7V | 00:00:00 | 00:00:00 | 00:00:00 | |
| SQ6EMJ | 2026-09-04 07:19:02 | 50.87582 | 17.40642 | 113° | 97km/h | 4541m | -1.6m/s | -4.9°C | 70.7% | 586.4hPa | 2.7V | 00:00:00 | 00:00:00 | 00:00:00 | |
| SP6BVK | 2026-09-04 07:18:59 | 50.87610 | 17.40534 | 113° | 97km/h | 4545m | -1.5m/s | -4.9°C | 69.8% | 586.0hPa | 2.7V | 00:00:00 | 00:00:00 | 00:00:00 | |
| SQ6EMJ | 2026-09-04 07:18:57 | 50.87629 | 17.40461 | 113° | 99km/h | 4548m | -1.6m/s | -4.9°C | 70.0% | 585.8hPa | 2.7V | 00:00:00 | 00:00:00 | 00:00:00 | |
| SQ6EMJ | 2026-09-04 07:18:53 | 50.87677 | 17.40276 | 114° | 102km/h | 4556m | -1.7m/s | -5.0°C | 70.1% | 585.2hPa | 2.7V | 00:00:00 | 00:00:00 | 00:00:00 | |
| POL1PZ | 2026-09-04 07:18:50 | 50.87697 | 17.40201 | 115° | 102km/h | 4559m | -1.5m/s | -5.0°C | 70.2% | 584.9hPa | 2.7V | 00:00:00 | 00:00:00 | 00:00:00 | |
| SQ6EMJ | 2026-09-04 07:18:46 | 50.87740 | 17.40050 | 115° | 104km/h | 4566m | -1.5m/s | -5.0°C | 68.6% | 584.5hPa | 2.7V | 00:00:00 | 00:00:00 | 00:00:00 | |
| POL2MAQ | 2026-09-04 07:18:44 | 50.87761 | 17.39975 | 115° | 104km/h | 4569m | -1.6m/s | -5.0°C | 68.4% | 584.3hPa | 2.7V | 00:00:00 | 00:00:00 | 00:00:00 | |
| SQ6EMJ | 2026-09-04 07:18:40 | 50.87806 | 17.39824 | 117° | 104km/h | 4575m | -1.5m/s | -5.1°C | 67.9% | 583.8hPa | 2.7V | 00:00:00 | 00:00:00 | 00:00:00 | |
| SP6BVK | 2026-09-04 07:18:38 | 50.87829 | 17.39750 | 118° | 104km/h | 4578m | -1.7m/s | -5.1°C | 66.8% | 583.5hPa | 2.7V | 00:00:00 | 00:00:00 | 00:00:00 | |
| OE3JTB-15 | 2026-09-04 07:18:36 | 50.87864 | 17.39639 | 118° | 100km/h | 4583m | -1.7m/s | -5.0°C | 68.4% | 583.1hPa | 2.7V | 00:00:00 | 00:00:00 | 08:30:00 | |
| SQ6EMJ | 2026-09-04 07:18:34 | 50.87877 | 17.39603 | 119° | 102km/h | 4585m | -1.7m/s | -5.1°C | 66.8% | 583.1hPa | 2.7V | 00:00:00 | 00:00:00 | 00:00:00 | |
| POL1PZ | 2026-09-04 07:18:30 | 50.87926 | 17.39460 | 120° | 102km/h | 4592m | -1.7m/s | -5.2°C | 67.0% | 582.5hPa | 2.7V | 00:00:00 | 00:00:00 | 00:00:00 | |
| SQ6EMJ | 2026-09-04 07:18:29 | 50.87938 | 17.39424 | 120° | 100km/h | 4593m | -1.7m/s | -5.2°C | 67.0% | 582.4hPa | 2.7V | 00:00:00 | 00:00:00 | 00:00:00 | |
| SQ6EMJ | 2026-09-04 07:18:25 | 50.88000 | 17.39250 | 121° | 99km/h | 4602m | -1.8m/s | -5.3°C | 68.1% | 581.9hPa | 2.7V | 00:00:00 | 00:00:00 | 00:00:00 | |
| POL2MAQ | 2026-09-04 07:18:24 | 50.88000 | 17.39250 | 121° | 99km/h | 4602m | -1.8m/s | -5.3°C | 68.1% | 581.9hPa | 2.7V | 00:00:00 | 00:00:00 | 00:00:00 | |
| SQ6EMJ | 2026-09-04 07:18:18 | 50.88073 | 17.39047 | 121° | 95km/h | 4612m | -1.8m/s | -5.5°C | 68.8% | 581.1hPa | 2.7V | 00:00:00 | 00:00:00 | 00:00:00 | |
| SP6BVK | 2026-09-04 07:18:17 | 50.88084 | 17.39014 | 121° | 95km/h | 4613m | -1.6m/s | -5.5°C | 68.9% | 580.9hPa | 2.7V | 00:00:00 | 00:00:00 | 00:00:00 | |
| SQ6EMJ | 2026-09-04 07:18:13 | 50.88142 | 17.38852 | 120° | 91km/h | 4621m | -1.6m/s | -5.7°C | 69.9% | 580.3hPa | 2.7V | 00:00:00 | 00:00:00 | 00:00:00 | |
| POL1PZ | 2026-09-04 07:18:09 | 50.88174 | 17.38757 | 119° | 89km/h | 4626m | -1.9m/s | -5.7°C | 70.4% | 580.0hPa | 2.7V | 00:00:00 | 00:00:00 | 00:00:00 | |
| OE3JTB-15 | 2026-09-04 07:18:06 | 50.88217 | 17.38630 | 118° | 88km/h | 4633m | -1.8m/s | -5.6°C | 73.5% | 579.4hPa | 2.7V | 00:00:00 | 00:00:00 | 00:00:00 | |
| POL2MAQ | 2026-09-04 07:18:03 | 50.88238 | 17.38566 | 118° | 89km/h | 4637m | -1.8m/s | -5.7°C | 71.2% | 579.2hPa | 2.7V | 00:00:00 | 00:00:00 | 00:00:00 | |
| SQ6EMJ | 2026-09-04 07:18:01 | 50.88269 | 17.38470 | 118° | 89km/h | 4642m | -1.7m/s | -5.7°C | 72.4% | 578.7hPa | 2.7V | 00:00:00 | 00:00:00 | 00:00:00 | |
| SP6BVK | 2026-09-04 07:17:57 | 50.88299 | 17.38375 | 118° | 89km/h | 4648m | -1.8m/s | -5.6°C | 74.4% | 578.4hPa | 2.7V | 00:00:00 | 00:00:00 | 00:00:00 | |
| SQ6EMJ | 2026-09-04 07:17:55 | 50.88330 | 17.38280 | 118° | 88km/h | 4652m | -1.7m/s | -5.6°C | 74.8% | 578.1hPa | 2.7V | 00:00:00 | 00:00:00 | 00:00:00 | |
| POL1PZ | 2026-09-04 07:17:48 | 50.88393 | 17.38092 | 119° | 88km/h | 4663m | -1.8m/s | -5.7°C | 75.5% | 577.3hPa | 2.7V | 00:00:00 | 00:00:00 | 00:00:00 | |
| SQ6EMJ | 2026-09-04 07:17:43 | 50.88447 | 17.37938 | 120° | 88km/h | 4672m | -1.9m/s | -5.7°C | 75.8% | 576.6hPa | 2.7V | 00:00:00 | 00:00:00 | 00:00:00 | |
| POL2MAQ | 2026-09-04 07:17:42 | 50.88457 | 17.37908 | 120° | 88km/h | 4673m | -1.9m/s | -5.7°C | 76.4% | 576.4hPa | 2.7V | 00:00:00 | 00:00:00 | 00:00:00 | |
| SQ6EMJ | 2026-09-04 07:17:38 | 50.88510 | 17.37757 | 120° | 86km/h | 4683m | -1.8m/s | -5.8°C | 77.1% | 575.8hPa | 2.7V | 00:00:00 | 00:00:00 | 00:00:00 | |
| OE3JTB-15 | 2026-09-04 07:17:36 | 50.88531 | 17.37697 | 119° | 84km/h | 4686m | -1.7m/s | -5.8°C | 79.5% | 575.5hPa | 2.7V | 00:00:00 | 03:07:43 | 00:00:00 | |
| SQ6EMJ | 2026-09-04 07:17:31 | 50.88573 | 17.37577 | 120° | 86km/h | 4693m | -1.8m/s | -5.9°C | 77.7% | 575.0hPa | 2.7V | 00:00:00 | 00:00:00 | 00:00:00 | |
| POL1PZ | 2026-09-04 07:17:28 | 50.88604 | 17.37488 | 120° | 86km/h | 4699m | -1.8m/s | -5.9°C | 77.9% | 574.6hPa | 2.7V | 00:00:00 | 00:00:00 | 00:00:00 | |
| SQ6EMJ | 2026-09-04 07:17:26 | 50.88635 | 17.37399 | 119° | 86km/h | 4705m | -2.0m/s | -6.0°C | 77.9% | 574.2hPa | 2.7V | 00:00:00 | 00:00:00 | 00:00:00 | |
| POL2MAQ | 2026-09-04 07:17:21 | 50.88675 | 17.37278 | 118° | 86km/h | 4712m | -1.7m/s | -6.0°C | 78.0% | 573.6hPa | 2.7V | 00:00:00 | 00:00:00 | 00:00:00 | |
| SP3WXH-11 | 2026-09-04 07:17:20 | 50.88695 | 17.37217 | 116° | 84km/h | 4715m | -1.9m/s | -5.9°C | 78.4% | 573.4hPa | 2.7V | 00:00:00 | 00:00:00 | 00:00:00 | |
| SQ6EMJ | 2026-09-04 07:17:19 | 50.88695 | 17.37217 | 117° | 86km/h | 4715m | -1.9m/s | -5.9°C | 78.4% | 573.4hPa | 2.7V | 00:00:00 | 00:00:00 | 00:00:00 | |
| SP6BVK | 2026-09-04 07:17:15 | 50.88733 | 17.37095 | 117° | 84km/h | 4723m | -1.9m/s | -6.0°C | 78.8% | 572.8hPa | 2.7V | 00:00:00 | 00:00:00 | 00:00:00 | |
| SQ6EMJ | 2026-09-04 07:17:13 | 50.88752 | 17.37034 | 117° | 84km/h | 4726m | -1.8m/s | -6.0°C | 79.5% | 572.6hPa | 2.7V | 00:00:00 | 00:00:00 | 00:00:00 | |
| POL1PZ | 2026-09-04 07:17:07 | 50.88808 | 17.36856 | 118° | 82km/h | 4737m | -1.8m/s | -6.1°C | 79.7% | 571.8hPa | 2.7V | 00:00:00 | 00:00:00 | 00:00:00 | |
| SQ6EMJ | 2026-09-04 07:17:02 | 50.88856 | 17.36714 | 120° | 80km/h | 4746m | -1.9m/s | -6.2°C | 80.8% | 571.2hPa | 2.7V | 00:00:00 | 00:00:00 | 00:00:00 | |
| POL2MAQ | 2026-09-04 07:17:01 | 50.88866 | 17.36686 | 120° | 80km/h | 4748m | -1.8m/s | -6.2°C | 80.9% | 571.1hPa | 2.7V | 00:00:00 | 00:00:00 | 00:00:00 | |
| SP3WXH-11 | 2026-09-04 07:16:49 | 50.88993 | 17.36327 | 120° | 77km/h | 4772m | -1.7m/s | -6.4°C | 81.8% | 569.3hPa | 2.7V | 00:00:00 | 00:00:00 | 00:00:00 | |
| SQ6EMJ | 2026-09-04 07:16:46 | 50.89022 | 17.36247 | 122° | 77km/h | 4778m | -1.9m/s | -6.4°C | 82.1% | 568.8hPa | 2.7V | 00:00:00 | 00:00:00 | 00:00:00 | |
| SQ6EMJ | 2026-09-04 07:16:41 | 50.89072 | 17.36115 | 122° | 77km/h | 4787m | -1.9m/s | -6.5°C | 83.5% | 568.1hPa | 2.7V | 00:00:00 | 00:00:00 | 00:00:00 | |
| SP6BVK | 2026-09-04 07:16:35 | 50.89120 | 17.35985 | 121° | 75km/h | 4796m | -1.8m/s | -6.5°C | 84.2% | 567.5hPa | 2.7V | 00:00:00 | 00:00:00 | 00:00:00 | |
| SQ6EMJ | 2026-09-04 07:16:34 | 50.89129 | 17.35959 | 121° | 75km/h | 4798m | -1.9m/s | -6.5°C | 84.8% | 567.4hPa | 2.7V | 00:00:00 | 00:00:00 | 00:00:00 | |
| SQ6EMJ | 2026-09-04 07:16:29 | 50.89175 | 17.35831 | 120° | 73km/h | 4807m | -1.9m/s | -6.5°C | 87.0% | 566.6hPa | 2.7V | 00:00:00 | 00:00:00 | 00:00:00 | |
| SQ6EMJ | 2026-09-04 07:16:23 | 50.89229 | 17.35679 | 120° | 71km/h | 4818m | -1.6m/s | -6.5°C | 88.8% | 565.9hPa | 2.7V | 00:00:00 | 00:00:00 | 00:00:00 | |
| SQ6EMJ | 2026-09-04 07:16:18 | 50.89282 | 17.35531 | 121° | 71km/h | 4829m | -1.8m/s | -6.6°C | 89.8% | 565.1hPa | 2.7V | 00:00:00 | 00:00:00 | 00:00:00 | |
| SP6BVK | 2026-09-04 07:16:14 | 50.89309 | 17.35457 | 121° | 71km/h | 4834m | -1.7m/s | -6.6°C | 90.3% | 564.8hPa | 2.7V | 00:00:00 | 00:00:00 | 00:00:00 | |
| SQ6EMJ | 2026-09-04 07:16:11 | 50.89336 | 17.35384 | 121° | 71km/h | 4839m | -1.7m/s | -6.6°C | 90.4% | 564.4hPa | 2.7V | 00:00:00 | 00:00:00 | 00:00:00 | |
| SQ6EMJ | 2026-09-04 07:16:06 | 50.89380 | 17.35263 | 121° | 69km/h | 4847m | -1.6m/s | -6.6°C | 91.2% | 563.8hPa | 2.7V | 00:00:00 | 00:00:00 | 00:00:00 | |
| POL1PZ | 2026-09-04 07:16:05 | 50.89389 | 17.35238 | 121° | 69km/h | 4849m | -1.6m/s | -6.5°C | 91.1% | 563.7hPa | 2.7V | 00:00:00 | 00:00:00 | 00:00:00 | |
| SQ6EMJ | 2026-09-04 07:16:01 | 50.89432 | 17.35118 | 120° | 69km/h | 4856m | -1.7m/s | -6.3°C | 91.1% | 563.1hPa | 2.7V | 00:00:00 | 00:00:00 | 00:00:00 | |
| POL2MAQ | 2026-09-04 07:15:59 | 50.89441 | 17.35094 | 120° | 69km/h | 4858m | -1.6m/s | -6.4°C | 91.7% | 563.0hPa | 2.7V | 00:00:00 | 00:00:00 | 00:00:00 | |
| SQ6EMJ | 2026-09-04 07:15:54 | 50.89483 | 17.34972 | 119° | 71km/h | 4866m | -1.6m/s | -6.3°C | 91.3% | 562.6hPa | 2.7V | 00:00:00 | 00:00:00 | 00:00:00 | |
| SP6BVK | 2026-09-04 07:15:53 | 50.89492 | 17.34947 | 119° | 71km/h | 4867m | -1.5m/s | -6.3°C | 90.7% | 562.4hPa | 2.7V | 00:00:00 | 00:00:00 | 00:00:00 | |
| SQ6EMJ | 2026-09-04 07:15:49 | 50.89533 | 17.34820 | 118° | 71km/h | 4875m | -1.4m/s | -6.3°C | 91.2% | 561.8hPa | 2.7V | 00:00:00 | 00:00:00 | 00:00:00 | |
| POL1PZ | 2026-09-04 07:15:44 | 50.89565 | 17.34717 | 117° | 71km/h | 4880m | -1.6m/s | -6.2°C | 91.0% | 561.4hPa | 2.7V | 00:00:00 | 00:00:00 | 00:00:00 | |
| SQ6EMJ | 2026-09-04 07:15:42 | 50.89581 | 17.34665 | 117° | 71km/h | 4884m | -1.6m/s | -6.3°C | 91.0% | 561.2hPa | 2.7V | 00:00:00 | 00:00:00 | 00:00:00 | |
| POL2MAQ | 2026-09-04 07:15:38 | 50.89613 | 17.34562 | 117° | 73km/h | 4890m | -1.8m/s | -6.3°C | 91.0% | 560.8hPa | 2.7V | 00:00:00 | 00:00:00 | 00:00:00 | |
| SQ6EMJ | 2026-09-04 07:15:37 | 50.89621 | 17.34536 | 117° | 73km/h | 4892m | -1.7m/s | -6.4°C | 91.4% | 560.6hPa | 2.7V | 00:00:00 | 00:00:00 | 00:00:00 | |
| SP6BVK | 2026-09-04 07:15:32 | 50.89661 | 17.34402 | 116° | 75km/h | 4901m | -1.7m/s | -6.3°C | 90.9% | 560.0hPa | 2.7V | 00:00:00 | 00:00:00 | 00:00:00 | |
| SQ6EMJ | 2026-09-04 07:15:31 | 50.89669 | 17.34375 | 116° | 75km/h | 4902m | -1.8m/s | -6.3°C | 91.4% | 559.9hPa | 2.7V | 00:00:00 | 00:00:00 | 00:00:00 | |
| SQ6EMJ | 2026-09-04 07:15:26 | 50.89710 | 17.34237 | 117° | 77km/h | 4910m | -1.6m/s | -6.3°C | 91.5% | 559.4hPa | 2.7V | 00:00:00 | 00:00:00 | 00:00:00 | |
| POL1PZ | 2026-09-04 07:15:24 | 50.89727 | 17.34181 | 117° | 77km/h | 4914m | -1.6m/s | -6.3°C | 91.6% | 559.1hPa | 2.7V | 00:00:00 | 00:00:00 | 00:00:00 | |
| SQ6EMJ | 2026-09-04 07:15:20 | 50.89762 | 17.34069 | 118° | 78km/h | 4921m | -1.8m/s | -6.5°C | 92.2% | 558.6hPa | 2.7V | 00:00:00 | 00:00:00 | 00:00:00 | |
| POL2MAQ | 2026-09-04 07:15:18 | 50.89781 | 17.34014 | 119° | 78km/h | 4924m | -1.6m/s | -6.4°C | 91.8% | 558.4hPa | 2.7V | 00:00:00 | 00:00:00 | 00:00:00 | |
| SQ6EMJ | 2026-09-04 07:15:15 | 50.89820 | 17.33903 | 122° | 78km/h | 4930m | -1.6m/s | -6.5°C | 91.9% | 557.9hPa | 2.7V | 00:00:00 | 00:00:00 | 00:00:00 | |
| SP6BVK | 2026-09-04 07:15:12 | 50.89841 | 17.33849 | 123° | 78km/h | 4934m | -1.6m/s | -6.5°C | 92.6% | 557.6hPa | 2.7V | 00:00:00 | 00:00:00 | 00:00:00 | |
| SQ6EMJ | 2026-09-04 07:15:08 | 50.89882 | 17.33747 | 124° | 73km/h | 4940m | -1.5m/s | -6.7°C | 93.6% | 557.2hPa | 2.7V | 00:00:00 | 00:00:00 | 00:00:00 | |
| POL1PZ | 2026-09-04 07:15:04 | 50.89923 | 17.33651 | 125° | 71km/h | 4946m | -1.5m/s | -6.7°C | 93.6% | 556.9hPa | 2.7V | 00:00:00 | 00:00:00 | 00:00:00 | |
| POL2MAQ | 2026-09-04 07:14:58 | 50.89979 | 17.33511 | 120° | 68km/h | 4956m | -1.7m/s | -6.8°C | 92.9% | 556.0hPa | 2.7V | 00:00:00 | 00:00:00 | 00:00:00 | |
| SQ6EMJ | 2026-09-04 07:14:57 | 50.89995 | 17.33463 | 118° | 68km/h | 4960m | -2.0m/s | -6.8°C | 92.4% | 555.7hPa | 2.7V | 00:00:00 | 00:00:00 | 00:00:00 | |
| SQ6EMJ | 2026-09-04 07:14:51 | 50.90038 | 17.33313 | 115° | 69km/h | 4969m | -1.6m/s | -6.9°C | 93.4% | 555.1hPa | 2.7V | 00:00:00 | 00:00:00 | 00:00:00 | |
| SQ6EMJ | 2026-09-04 07:14:44 | 50.90080 | 17.33162 | 115° | 68km/h | 4978m | -1.3m/s | -7.1°C | 94.5% | 554.6hPa | 2.7V | 00:00:00 | 00:00:00 | 00:00:00 | |
| POL1PZ | 2026-09-04 07:14:43 | 50.90087 | 17.33138 | 115° | 68km/h | 4979m | -1.5m/s | -7.1°C | 95.0% | 554.5hPa | 2.7V | 00:00:00 | 00:00:00 | 00:00:00 | |
| POL2MAQ | 2026-09-04 07:14:38 | 50.90123 | 17.33013 | 115° | 69km/h | 4987m | -1.6m/s | -7.1°C | 94.5% | 554.0hPa | 2.7V | 00:00:00 | 00:00:00 | 00:00:00 | |
| SQ6EMJ | 2026-09-04 07:14:33 | 50.90158 | 17.32888 | 116° | 68km/h | 4994m | -1.7m/s | -7.1°C | 92.3% | 553.2hPa | 2.7V | 00:00:00 | 00:00:00 | 00:00:00 | |
| SP6BVK | 2026-09-04 07:14:31 | 50.90173 | 17.32838 | 116° | 68km/h | 4998m | -1.8m/s | -7.1°C | 92.1% | 553.1hPa | 2.7V | 00:00:00 | 00:00:00 | 00:00:00 | |
| SP3BTT-10 | 2026-09-04 07:14:27 | 50.90209 | 17.32714 | 114° | 73km/h | 5007m | -1.7m/s | -7.0°C | 94.2% | 552.4hPa | 2.7V | 00:00:00 | 00:00:00 | 00:00:00 | |
| POL1PZ | 2026-09-04 07:14:22 | 50.90236 | 17.32610 | 113° | 73km/h | 5014m | -1.7m/s | -7.0°C | 91.0% | 552.0hPa | 2.7V | 00:00:00 | 00:00:00 | 00:00:00 | |
| SQ6EMJ | 2026-09-04 07:14:21 | 50.90243 | 17.32582 | 113° | 73km/h | 5015m | -1.6m/s | -7.0°C | 91.1% | 551.8hPa | 2.7V | 00:00:00 | 00:00:00 | 00:00:00 | |
| POL2MAQ | 2026-09-04 07:14:17 | 50.90273 | 17.32472 | 114° | 75km/h | 5022m | -1.7m/s | -7.0°C | 91.2% | 551.4hPa | 2.7V | 00:00:00 | 00:00:00 | 00:00:00 | |
| SQ6EMJ | 2026-09-04 07:14:16 | 50.90280 | 17.32445 | 114° | 75km/h | 5023m | -1.7m/s | -7.1°C | 91.3% | 551.3hPa | 2.7V | 00:00:00 | 00:00:00 | 00:00:00 | |
| SQ6EMJ | 2026-09-04 07:14:11 | 50.90319 | 17.32305 | 115° | 77km/h | 5032m | -1.7m/s | -7.1°C | 91.8% | 550.7hPa | 2.7V | 00:00:00 | 00:00:00 | 00:00:00 | |
| SP6BVK | 2026-09-04 07:14:10 | 50.90327 | 17.32277 | 116° | 77km/h | 5034m | -1.6m/s | -7.1°C | 91.8% | 550.6hPa | 2.7V | 00:00:00 | 00:00:00 | 00:00:00 | |
| SQ6EMJ | 2026-09-04 07:14:05 | 50.90369 | 17.32137 | 117° | 78km/h | 5042m | -1.6m/s | -7.2°C | 91.7% | 549.8hPa | 2.7V | 00:00:00 | 00:00:00 | 00:00:00 | |
| POL1PZ | 2026-09-04 07:14:02 | 50.90396 | 17.32053 | 119° | 78km/h | 5047m | -1.8m/s | -7.2°C | 92.7% | 549.5hPa | 2.7V | 00:00:00 | 00:00:00 | 00:00:00 | |
| SQ6EMJ | 2026-09-04 07:14:00 | 50.90414 | 17.31999 | 120° | 77km/h | 5050m | -1.6m/s | -7.3°C | 93.0% | 549.3hPa | 2.7V | 00:00:00 | 00:00:00 | 00:00:00 | |
| POL2MAQ | 2026-09-04 07:13:57 | 50.90442 | 17.31919 | 121° | 75km/h | 5055m | -1.7m/s | -7.3°C | 93.3% | 549.0hPa | 2.7V | 00:00:00 | 00:00:00 | 00:00:00 | |
| SQ6EMJ | 2026-09-04 07:13:54 | 50.90471 | 17.31841 | 121° | 75km/h | 5060m | -1.8m/s | -7.3°C | 92.8% | 548.7hPa | 2.7V | 00:00:00 | 00:00:00 | 00:00:00 | |
| SP6BVK | 2026-09-04 07:13:50 | 50.90509 | 17.31739 | 121° | 75km/h | 5067m | -1.7m/s | -7.4°C | 93.2% | 548.2hPa | 2.7V | 00:00:00 | 00:00:00 | 00:00:00 | |
| SQ6EMJ | 2026-09-04 07:13:49 | 50.90528 | 17.31688 | 122° | 73km/h | 5070m | -1.6m/s | -7.3°C | 92.7% | 548.0hPa | 2.7V | 00:00:00 | 00:00:00 | 00:00:00 | |
| SQ6EMJ | 2026-09-04 07:13:43 | 50.90575 | 17.31561 | 122° | 73km/h | 5078m | -1.6m/s | -7.5°C | 94.1% | 547.5hPa | 2.7V | 00:00:00 | 00:00:00 | 00:00:00 | |
| POL1PZ | 2026-09-04 07:13:41 | 50.90594 | 17.31511 | 122° | 71km/h | 5081m | -1.7m/s | -7.6°C | 94.5% | 547.2hPa | 2.7V | 00:00:00 | 00:00:00 | 00:00:00 | |
| SP3BTT-10 | 2026-09-04 07:13:39 | 50.90621 | 17.31438 | 121° | 68km/h | 5086m | -1.8m/s | -7.6°C | 97.9% | 546.8hPa | 2.7V | 00:00:00 | 00:00:00 | 00:00:00 | |
| SQ6EMJ | 2026-09-04 07:13:38 | 50.90621 | 17.31438 | 122° | 71km/h | 5086m | -1.8m/s | -7.7°C | 95.0% | 546.9hPa | 2.7V | 00:00:00 | 00:00:00 | 00:00:00 | |
| POL2MAQ | 2026-09-04 07:13:37 | 50.90639 | 17.31389 | 121° | 69km/h | 5090m | -1.3m/s | -7.6°C | 94.3% | 546.6hPa | 2.7V | 00:00:00 | 00:00:00 | 00:00:00 | |
| SQ6EMJ | 2026-09-04 07:13:32 | 50.90675 | 17.31293 | 121° | 69km/h | 5096m | -1.7m/s | -7.7°C | 95.2% | 546.2hPa | 2.7V | 00:00:00 | 00:00:00 | 00:00:00 | |
| SP6BVK | 2026-09-04 07:13:30 | 50.90693 | 17.31245 | 122° | 69km/h | 5099m | -1.7m/s | -7.7°C | 94.5% | 546.0hPa | 2.7V | 00:00:00 | 00:00:00 | 00:00:00 | |
| SQ6EMJ | 2026-09-04 07:13:27 | 50.90720 | 17.31173 | 122° | 69km/h | 5104m | -1.7m/s | -7.7°C | 93.7% | 545.6hPa | 2.7V | 00:00:00 | 00:00:00 | 00:00:00 | |
| SQ6EMJ | 2026-09-04 07:13:22 | 50.90773 | 17.31029 | 120° | 68km/h | 5114m | -1.6m/s | -7.9°C | 95.2% | 545.0hPa | 2.7V | 00:00:00 | 00:00:00 | 00:00:00 | |
| POL1PZ | 2026-09-04 07:13:20 | 50.90782 | 17.31005 | 120° | 68km/h | 5115m | -1.6m/s | -7.9°C | 95.5% | 544.9hPa | 2.7V | 00:00:00 | 00:00:00 | 00:00:00 | |
| POL2MAQ | 2026-09-04 07:13:15 | 50.90820 | 17.30886 | 116° | 66km/h | 5122m | -1.5m/s | -7.9°C | 94.7% | 544.3hPa | 2.7V | 00:00:00 | 00:00:00 | 00:00:00 | |
| SP3WXH-11 | 2026-09-04 07:13:12 | 50.90848 | 17.30789 | 113° | 66km/h | 5129m | -1.7m/s | -7.7°C | 92.0% | 543.8hPa | 2.7V | 00:00:00 | 00:00:00 | 00:00:00 | |
| SQ6EMJ | 2026-09-04 07:13:10 | 50.90855 | 17.30764 | 114° | 68km/h | 5130m | -1.6m/s | -7.8°C | 91.5% | 543.7hPa | 2.7V | 00:00:00 | 00:00:00 | 00:00:00 | |
| SP3BTT-10 | 2026-09-04 07:13:09 | 50.90868 | 17.30713 | 113° | 69km/h | 5133m | -1.5m/s | -7.7°C | 93.7% | 543.4hPa | 2.7V | 00:00:00 | 00:00:00 | 00:00:00 | |
| SQ6EMJ | 2026-09-04 07:13:04 | 50.90896 | 17.30607 | 114° | 73km/h | 5139m | -1.5m/s | -7.6°C | 89.5% | 543.1hPa | 2.7V | 00:00:00 | 00:00:00 | 00:00:00 | |
| SQ6EMJ | 2026-09-04 07:12:59 | 50.90938 | 17.30441 | 113° | 77km/h | 5148m | -1.5m/s | -7.8°C | 90.9% | 542.4hPa | 2.7V | 00:00:00 | 00:00:00 | 00:00:00 | |
| POL2MAQ | 2026-09-04 07:12:55 | 50.90961 | 17.30355 | 114° | 78km/h | 5153m | -1.5m/s | -7.8°C | 90.8% | 542.2hPa | 2.7V | 00:00:00 | 00:00:00 | 00:00:00 | |
| SQ6EMJ | 2026-09-04 07:12:53 | 50.90986 | 17.30270 | 116° | 78km/h | 5157m | -1.5m/s | -7.9°C | 92.4% | 541.9hPa | 2.7V | 00:00:00 | 00:00:00 | 00:00:00 | |
| SP6BVK | 2026-09-04 07:12:48 | 50.91021 | 17.30157 | 118° | 78km/h | 5163m | -1.4m/s | -7.8°C | 91.1% | 541.5hPa | 2.7V | 00:00:00 | 00:00:00 | 00:00:00 | |
| SQ6EMJ | 2026-09-04 07:12:47 | 50.91040 | 17.30101 | 119° | 78km/h | 5166m | -1.6m/s | -7.9°C | 91.2% | 541.3hPa | 2.7V | 00:00:00 | 00:00:00 | 00:00:00 | |
| SQ6EMJ | 2026-09-04 07:12:42 | 50.91086 | 17.29964 | 120° | 77km/h | 5173m | -1.6m/s | -8.0°C | 91.8% | 540.7hPa | 2.7V | 00:00:00 | 00:00:00 | 00:00:00 | |
| SP3WXH-11 | 2026-09-04 07:12:41 | 50.91096 | 17.29937 | 119° | 75km/h | 5175m | -1.6m/s | -8.0°C | 91.9% | 540.6hPa | 2.7V | 00:00:00 | 00:00:00 | 00:00:00 | |
| POL1PZ | 2026-09-04 07:12:39 | 50.91106 | 17.29910 | 121° | 75km/h | 5176m | -1.5m/s | -8.1°C | 92.2% | 540.5hPa | 2.7V | 00:00:00 | 00:00:00 | 00:00:00 | |
| SQ6EMJ | 2026-09-04 07:12:36 | 50.91134 | 17.29833 | 120° | 73km/h | 5181m | -1.4m/s | -8.0°C | 92.3% | 540.3hPa | 2.7V | 00:00:00 | 00:00:00 | 00:00:00 | |
| POL2MAQ | 2026-09-04 07:12:34 | 50.91151 | 17.29783 | 120° | 71km/h | 5184m | -1.3m/s | -8.1°C | 92.8% | 540.0hPa | 2.7V | 00:00:00 | 00:00:00 | 00:00:00 | |
| SQ6EMJ | 2026-09-04 07:12:31 | 50.91184 | 17.29684 | 119° | 69km/h | 5190m | -1.5m/s | -8.0°C | 90.2% | 539.6hPa | 2.7V | 00:00:00 | 00:00:00 | 00:00:00 | |
| SP6BVK | 2026-09-04 07:12:28 | 50.91201 | 17.29635 | 118° | 69km/h | 5193m | -1.4m/s | -7.8°C | 87.1% | 539.4hPa | 2.7V | 00:00:00 | 00:00:00 | 00:00:00 | |
| SP3BTT-10 | 2026-09-04 07:12:26 | 50.91225 | 17.29561 | 117° | 73km/h | 5197m | -1.4m/s | -7.7°C | 88.5% | 539.1hPa | 2.7V | 00:00:00 | 00:00:00 | 08:30:00 | |
| SQ6EMJ | 2026-09-04 07:12:25 | 50.91232 | 17.29537 | 118° | 69km/h | 5198m | -1.4m/s | -7.6°C | 84.8% | 539.0hPa | 2.7V | 00:00:00 | 00:00:00 | 00:00:00 | |
| SQ6EMJ | 2026-09-04 07:12:19 | 50.91278 | 17.29390 | 117° | 68km/h | 5207m | -1.4m/s | -7.5°C | 84.1% | 538.4hPa | 2.7V | 00:00:00 | 00:00:00 | 00:00:00 | |
| POL2MAQ | 2026-09-04 07:12:15 | 50.91308 | 17.29292 | 116° | 68km/h | 5213m | -1.4m/s | -7.5°C | 83.9% | 538.0hPa | 2.7V | 00:00:00 | 00:00:00 | 00:00:00 | |
| SQ6EMJ | 2026-09-04 07:12:12 | 50.91322 | 17.29243 | 115° | 68km/h | 5216m | -1.4m/s | -7.5°C | 83.8% | 537.8hPa | 2.7V | 00:00:00 | 00:00:00 | 00:00:00 | |
| SP3WXH-11 | 2026-09-04 07:12:10 | 50.91343 | 17.29167 | 112° | 68km/h | 5220m | -1.4m/s | -7.4°C | 83.4% | 537.5hPa | 2.7V | 00:00:00 | 00:00:00 | 00:00:00 | |
| SP6BVK | 2026-09-04 07:12:07 | 50.91356 | 17.29115 | 113° | 71km/h | 5222m | -1.4m/s | -7.5°C | 83.6% | 537.4hPa | 2.7V | 00:00:00 | 00:00:00 | 00:00:00 | |
| SQ6EMJ | 2026-09-04 07:12:01 | 50.91398 | 17.28952 | 113° | 75km/h | 5231m | -1.4m/s | -7.6°C | 84.1% | 536.8hPa | 2.7V | 00:00:00 | 00:00:00 | 00:00:00 | |
| POL1PZ | 2026-09-04 07:11:58 | 50.91420 | 17.28868 | 113° | 77km/h | 5235m | -1.3m/s | -7.6°C | 83.8% | 536.5hPa | 2.7V | 00:00:00 | 00:00:00 | 00:00:00 | |
| SQ6EMJ | 2026-09-04 07:11:57 | 50.91434 | 17.28811 | 113° | 77km/h | 5238m | -1.5m/s | -7.6°C | 83.9% | 536.3hPa | 2.7V | 00:00:00 | 00:00:00 | 00:00:00 | |
| SP3BTT-10 | 2026-09-04 07:11:56 | 50.91442 | 17.28783 | 113° | 71km/h | 5240m | -1.4m/s | -7.6°C | 86.6% | 536.1hPa | 2.7V | 00:00:00 | 00:00:00 | 00:00:00 | |
| POL2MAQ | 2026-09-04 07:11:53 | 50.91457 | 17.28725 | 114° | 78km/h | 5243m | -1.5m/s | -7.6°C | 83.7% | 536.1hPa | 2.7V | 00:00:00 | 00:00:00 | 00:00:00 | |
| SQ6EMJ | 2026-09-04 07:11:51 | 50.91480 | 17.28639 | 115° | 78km/h | 5247m | -1.5m/s | -7.7°C | 84.5% | 535.6hPa | 2.7V | 00:00:00 | 00:00:00 | 00:00:00 | |
| SP6BVK | 2026-09-04 07:11:47 | 50.91506 | 17.28553 | 118° | 78km/h | 5252m | -1.3m/s | -7.6°C | 84.1% | 535.4hPa | 2.7V | 00:00:00 | 00:00:00 | 00:00:00 | |
| SQ6EMJ | 2026-09-04 07:11:46 | 50.91525 | 17.28498 | 119° | 78km/h | 5254m | -1.4m/s | -7.7°C | 84.2% | 535.2hPa | 2.7V | 00:00:00 | 00:00:00 | 00:00:00 | |
| SP3WXH-11 | 2026-09-04 07:11:39 | 50.91590 | 17.28314 | 119° | 73km/h | 5265m | -1.4m/s | -7.8°C | 84.8% | 534.5hPa | 2.7V | 00:00:00 | 00:00:00 | 00:00:00 | |
| SQ6EMJ | 2026-09-04 07:11:35 | 50.91624 | 17.28213 | 119° | 71km/h | 5270m | -1.4m/s | -8.0°C | 85.1% | 534.2hPa | 2.7V | 00:00:00 | 00:00:00 | 00:00:00 | |
| POL2MAQ | 2026-09-04 07:11:32 | 50.91641 | 17.28163 | 118° | 69km/h | 5273m | -1.4m/s | -8.1°C | 85.2% | 533.9hPa | 2.7V | 00:00:00 | 00:00:00 | 00:00:00 | |
| SQ6EMJ | 2026-09-04 07:11:29 | 50.91672 | 17.28064 | 116° | 69km/h | 5279m | -1.4m/s | -8.1°C | 85.2% | 533.5hPa | 2.7V | 00:00:00 | 00:00:00 | 00:00:00 | |
| SP6BVK | 2026-09-04 07:11:27 | 50.91679 | 17.28039 | 116° | 69km/h | 5280m | -1.3m/s | -8.1°C | 85.1% | 533.4hPa | 2.7V | 00:00:00 | 00:00:00 | 00:00:00 | |
| SP3BTT-10 | 2026-09-04 07:11:24 | 50.91708 | 17.27938 | 113° | 80km/h | 5285m | -1.4m/s | -7.9°C | 86.5% | 533.0hPa | 2.7V | 00:00:00 | 00:00:00 | 00:00:00 | |
| SQ6EMJ | 2026-09-04 07:11:22 | 50.91714 | 17.27911 | 113° | 71km/h | 5286m | -1.5m/s | -7.9°C | 83.5% | 533.0hPa | 2.7V | 00:00:00 | 00:00:00 | 00:00:00 | |
| SQ6EMJ | 2026-09-04 07:11:18 | 50.91747 | 17.27777 | 112° | 73km/h | 5293m | -1.3m/s | -7.8°C | 83.0% | 532.5hPa | 2.7V | 00:00:00 | 00:00:00 | 00:00:00 | |
| POL1PZ | 2026-09-04 07:11:17 | 50.91747 | 17.27777 | 112° | 73km/h | 5293m | -1.3m/s | -7.8°C | 83.0% | 532.5hPa | 2.7V | 00:00:00 | 00:00:00 | 00:00:00 | |
| SQ6EMJ | 2026-09-04 07:11:12 | 50.91786 | 17.27609 | 111° | 75km/h | 5302m | -1.4m/s | -7.9°C | 83.5% | 531.9hPa | 2.7V | 00:00:00 | 00:00:00 | 00:00:00 | |
| POL2MAQ | 2026-09-04 07:11:11 | 50.91786 | 17.27609 | 111° | 75km/h | 5302m | -1.4m/s | -7.9°C | 83.5% | 531.9hPa | 2.7V | 00:00:00 | 00:00:00 | 00:00:00 | |
| SP3WXH-11 | 2026-09-04 07:11:08 | 50.91812 | 17.27495 | 109° | 75km/h | 5307m | -1.4m/s | -8.0°C | 83.7% | 531.5hPa | 2.7V | 00:00:00 | 00:00:00 | 00:00:00 | |
| SP6BVK | 2026-09-04 07:11:06 | 50.91818 | 17.27467 | 110° | 77km/h | 5309m | -1.4m/s | -7.9°C | 83.5% | 531.5hPa | 2.7V | 00:00:00 | 00:00:00 | 00:00:00 | |
| SQ6EMJ | 2026-09-04 07:11:02 | 50.91850 | 17.27320 | 110° | 78km/h | 5317m | -1.6m/s | -8.0°C | 83.8% | 530.9hPa | 2.7V | 00:00:00 | 00:00:00 | 00:00:00 | |
| SQ6EMJ | 2026-09-04 07:10:56 | 50.91890 | 17.27138 | 110° | 82km/h | 5325m | -1.5m/s | -8.0°C | 83.5% | 530.4hPa | 2.7V | 00:00:00 | 00:00:00 | 00:00:00 | |
| POL2MAQ | 2026-09-04 07:10:51 | 50.91918 | 17.27015 | 111° | 82km/h | 5332m | -1.5m/s | -8.0°C | 83.2% | 529.8hPa | 2.7V | 00:00:00 | 00:00:00 | 00:00:00 | |
| SQ6EMJ | 2026-09-04 07:10:50 | 50.91925 | 17.26984 | 111° | 82km/h | 5333m | -1.5m/s | -8.0°C | 82.8% | 529.7hPa | 2.7V | 00:00:00 | 00:00:00 | 00:00:00 | |
| SP6BVK | 2026-09-04 07:10:46 | 50.91954 | 17.26859 | 111° | 84km/h | 5339m | -1.5m/s | -8.0°C | 82.8% | 529.4hPa | 2.7V | 00:00:00 | 00:00:00 | 00:00:00 | |
| SQ6EMJ | 2026-09-04 07:10:45 | 50.91962 | 17.26827 | 111° | 84km/h | 5341m | -1.5m/s | -8.0°C | 82.8% | 529.3hPa | 2.7V | 00:00:00 | 00:00:00 | 00:00:00 | |
| SQ6EMJ | 2026-09-04 07:10:40 | 50.92007 | 17.26637 | 112° | 86km/h | 5350m | -1.6m/s | -8.1°C | 82.1% | 528.7hPa | 2.7V | 00:00:00 | 00:00:00 | 00:00:00 | |
| SP3WXH-11 | 2026-09-04 07:10:37 | 50.92031 | 17.26541 | 112° | 86km/h | 5354m | -1.6m/s | -8.1°C | 82.0% | 528.3hPa | 2.7V | 00:00:00 | 00:00:00 | 00:00:00 | |
| POL1PZ | 2026-09-04 07:10:36 | 50.92031 | 17.26542 | 113° | 86km/h | 5354m | -1.6m/s | -8.1°C | 82.1% | 528.3hPa | 2.7V | 00:00:00 | 00:00:00 | 00:00:00 | |
| SQ6EMJ | 2026-09-04 07:10:33 | 50.92056 | 17.26446 | 115° | 86km/h | 5359m | -1.8m/s | -8.1°C | 81.5% | 528.0hPa | 2.7V | 00:00:00 | 00:00:00 | 00:00:00 | |
| POL2MAQ | 2026-09-04 07:10:31 | 50.92083 | 17.26352 | 116° | 86km/h | 5364m | -1.6m/s | -8.1°C | 80.9% | 527.8hPa | 2.7V | 00:00:00 | 00:00:00 | 00:00:00 | |
| SQ6EMJ | 2026-09-04 07:10:27 | 50.92111 | 17.26258 | 117° | 84km/h | 5368m | -1.5m/s | -8.1°C | 80.6% | 527.4hPa | 2.7V | 00:00:00 | 00:00:00 | 00:00:00 | |
| OE3JTB-15 | 2026-09-04 07:10:26 | 50.92129 | 17.26198 | 117° | 82km/h | 5371m | -1.6m/s | -8.1°C | 82.9% | 527.1hPa | 2.7V | 00:00:00 | 00:00:00 | 00:00:00 | |
| SP6BVK | 2026-09-04 07:10:25 | 50.92130 | 17.26198 | 117° | 84km/h | 5371m | -1.6m/s | -8.1°C | 80.3% | 527.2hPa | 2.7V | 00:00:00 | 00:00:00 | 00:00:00 | |
| SQ6EMJ | 2026-09-04 07:10:22 | 50.92167 | 17.26081 | 118° | 80km/h | 5377m | -1.5m/s | -8.0°C | 80.4% | 526.7hPa | 2.7V | 00:00:00 | 00:00:00 | 00:00:00 | |
| SQ6EMJ | 2026-09-04 07:10:17 | 50.92209 | 17.25941 | 115° | 77km/h | 5385m | -1.4m/s | -8.4°C | 83.0% | 526.2hPa | 2.7V | 00:00:00 | 00:00:00 | 00:00:00 | |
| POL1PZ | 2026-09-04 07:10:15 | 50.92217 | 17.25913 | 114° | 77km/h | 5386m | -1.5m/s | -8.3°C | 83.1% | 526.2hPa | 2.7V | 00:00:00 | 00:00:00 | 00:00:00 | |
| SQ6EMJ | 2026-09-04 07:10:10 | 50.92253 | 17.25770 | 111° | 78km/h | 5394m | -1.4m/s | -8.4°C | 83.8% | 525.6hPa | 2.7V | 00:00:00 | 00:00:00 | 00:00:00 | |
| POL2MAQ | 2026-09-04 07:10:09 | 50.92260 | 17.25740 | 111° | 80km/h | 5396m | -1.5m/s | -8.3°C | 83.5% | 525.5hPa | 2.7V | 00:00:00 | 00:00:00 | 00:00:00 | |
| SQ6EMJ | 2026-09-04 07:09:58 | 50.92340 | 17.25398 | 113° | 86km/h | 5412m | -1.5m/s | -8.2°C | 82.3% | 524.4hPa | 2.7V | 00:00:00 | 00:00:00 | 00:00:00 | |
| POL1PZ | 2026-09-04 07:09:55 | 50.92364 | 17.25301 | 114° | 88km/h | 5417m | -1.6m/s | -8.2°C | 82.8% | 524.1hPa | 2.7V | 00:00:00 | 00:00:00 | 00:00:00 | |
| SP3BTT-10 | 2026-09-04 07:09:54 | 50.92382 | 17.25236 | 114° | 88km/h | 5420m | -1.5m/s | -8.3°C | 86.0% | 523.8hPa | 2.7V | 00:00:00 | 00:00:00 | 00:00:00 | |
| SQ6EMJ | 2026-09-04 07:09:53 | 50.92382 | 17.25236 | 114° | 88km/h | 5420m | -1.5m/s | -8.3°C | 83.3% | 523.9hPa | 2.7V | 00:00:00 | 00:00:00 | 00:00:00 | |
| SQ6EMJ | 2026-09-04 07:09:48 | 50.92437 | 17.25043 | 117° | 88km/h | 5430m | -1.6m/s | -8.4°C | 83.6% | 523.2hPa | 2.7V | 00:00:00 | 00:00:00 | 00:00:00 | |
| SP6BVK | 2026-09-04 07:09:44 | 50.92466 | 17.24948 | 118° | 88km/h | 5435m | -1.7m/s | -8.5°C | 83.7% | 522.8hPa | 2.7V | 00:00:00 | 00:00:00 | 00:00:00 | |
| SQ6EMJ | 2026-09-04 07:09:42 | 50.92487 | 17.24885 | 118° | 88km/h | 5438m | -1.7m/s | -8.5°C | 84.0% | 522.6hPa | 2.7V | 00:00:00 | 00:00:00 | 00:00:00 | |
| SQ6EMJ | 2026-09-04 07:09:37 | 50.92539 | 17.24728 | 119° | 88km/h | 5447m | -1.7m/s | -8.6°C | 84.1% | 522.1hPa | 2.7V | 00:00:00 | 00:00:00 | 00:00:00 | |
| POL1PZ | 2026-09-04 07:09:35 | 50.92560 | 17.24666 | 120° | 88km/h | 5450m | -1.7m/s | -8.6°C | 84.5% | 521.8hPa | 2.7V | 00:00:00 | 00:00:00 | 00:00:00 | |
| SQ6EMJ | 2026-09-04 07:09:31 | 50.92604 | 17.24544 | 121° | 88km/h | 5457m | -1.6m/s | -8.7°C | 84.9% | 521.3hPa | 2.7V | 00:00:00 | 00:00:00 | 00:00:00 | |
| POL2MAQ | 2026-09-04 07:09:27 | 50.92647 | 17.24424 | 121° | 86km/h | 5464m | -1.8m/s | -8.7°C | 85.2% | 520.9hPa | 2.7V | 00:00:00 | 00:00:00 | 00:00:00 | |
| SQ6EMJ | 2026-09-04 07:09:26 | 50.92658 | 17.24394 | 121° | 86km/h | 5465m | -1.7m/s | -8.7°C | 85.3% | 520.8hPa | 2.7V | 00:00:00 | 00:00:00 | 00:00:00 | |
| SP3BTT-10 | 2026-09-04 07:09:24 | 50.92691 | 17.24304 | 120° | 88km/h | 5471m | -1.6m/s | -8.7°C | 88.2% | 520.4hPa | 2.7V | 00:00:00 | 00:00:00 | 00:00:00 | |
| SP6BVK | 2026-09-04 07:09:23 | 50.92691 | 17.24303 | 121° | 88km/h | 5471m | -1.6m/s | -8.8°C | 85.4% | 520.4hPa | 2.7V | 00:00:00 | 00:00:00 | 00:00:00 | |
| SQ6EMJ | 2026-09-04 07:09:20 | 50.92725 | 17.24210 | 120° | 89km/h | 5475m | -1.7m/s | -8.8°C | 85.5% | 520.2hPa | 2.7V | 00:00:00 | 00:00:00 | 00:00:00 | |
| SQ6EMJ | 2026-09-04 07:09:15 | 50.92779 | 17.24051 | 119° | 91km/h | 5484m | -1.7m/s | -8.9°C | 85.8% | 519.6hPa | 2.7V | 00:00:00 | 00:00:00 | 00:00:00 | |
| POL1PZ | 2026-09-04 07:09:14 | 50.92790 | 17.24018 | 119° | 91km/h | 5486m | -1.7m/s | -8.9°C | 85.8% | 519.5hPa | 2.7V | 00:00:00 | 00:00:00 | 00:00:00 | |
| SQ6EMJ | 2026-09-04 07:09:09 | 50.92846 | 17.23859 | 121° | 91km/h | 5494m | -1.6m/s | -9.0°C | 85.5% | 518.9hPa | 2.7V | 00:00:00 | 00:00:00 | 00:00:00 | |
| POL2MAQ | 2026-09-04 07:09:06 | 50.92880 | 17.23764 | 121° | 91km/h | 5499m | -1.5m/s | -9.0°C | 85.0% | 518.5hPa | 2.7V | 00:00:00 | 00:00:00 | 00:00:00 | |
| SQ6EMJ | 2026-09-04 07:09:04 | 50.92914 | 17.23669 | 120° | 91km/h | 5504m | -1.7m/s | -9.0°C | 84.7% | 518.3hPa | 2.7V | 00:00:00 | 00:00:00 | 00:00:00 | |
| SP6BVK | 2026-09-04 07:09:02 | 50.92926 | 17.23636 | 120° | 93km/h | 5506m | -1.9m/s | -9.0°C | 84.8% | 518.1hPa | 2.7V | 00:00:00 | 00:00:00 | 00:00:00 | |
| SQ6EMJ | 2026-09-04 07:08:58 | 50.92970 | 17.23506 | 119° | 93km/h | 5514m | -1.8m/s | -9.1°C | 84.3% | 517.5hPa | 2.7V | 00:00:00 | 00:00:00 | 00:00:00 | |
| SQ6EMJ | 2026-09-04 07:08:54 | 50.93025 | 17.23341 | 119° | 93km/h | 5523m | -1.8m/s | -9.2°C | 84.7% | 516.9hPa | 2.7V | 00:00:00 | 00:00:00 | 00:00:00 | |
| SQ6EMJ | 2026-09-04 07:08:47 | 50.93094 | 17.23143 | 120° | 95km/h | 5534m | -1.8m/s | -9.1°C | 83.6% | 516.3hPa | 2.7V | 00:00:00 | 00:00:00 | 00:00:00 | |
| POL2MAQ | 2026-09-04 07:08:45 | 50.93117 | 17.23077 | 120° | 95km/h | 5537m | -1.8m/s | -9.1°C | 83.4% | 516.0hPa | 2.7V | 00:00:00 | 00:00:00 | 00:00:00 | |
| SP6BVK | 2026-09-04 07:08:42 | 50.93153 | 17.22980 | 121° | 93km/h | 5543m | -1.9m/s | -9.2°C | 84.2% | 515.7hPa | 2.7V | 00:00:00 | 00:00:00 | 00:00:00 | |
| SQ6EMJ | 2026-09-04 07:08:41 | 50.93164 | 17.22947 | 121° | 93km/h | 5545m | -1.7m/s | -9.2°C | 83.9% | 515.6hPa | 2.7V | 00:00:00 | 00:00:00 | 00:00:00 | |
| SQ6EMJ | 2026-09-04 07:08:35 | 50.93236 | 17.22758 | 122° | 91km/h | 5556m | -1.8m/s | -9.3°C | 84.2% | 514.8hPa | 2.7V | 00:00:00 | 00:00:00 | 00:00:00 | |
| SP3WXH-11 | 2026-09-04 07:08:33 | 50.93283 | 17.22636 | 121° | 86km/h | 5562m | -1.7m/s | -9.3°C | 84.5% | 514.3hPa | 2.7V | 00:00:00 | 00:00:00 | 00:00:00 | |
| SQ6EMJ | 2026-09-04 07:08:30 | 50.93294 | 17.22606 | 122° | 86km/h | 5564m | -1.7m/s | -9.4°C | 84.6% | 514.2hPa | 2.7V | 00:00:00 | 00:00:00 | 00:00:00 | |
| POL2MAQ | 2026-09-04 07:08:24 | 50.93360 | 17.22430 | 121° | 84km/h | 5575m | -1.8m/s | -9.5°C | 85.5% | 513.6hPa | 2.7V | 00:00:00 | 00:00:00 | 00:00:00 | |
| SP3BTT-10 | 2026-09-04 07:08:23 | 50.93382 | 17.22372 | 121° | 89km/h | 5578m | -1.8m/s | -9.5°C | 88.6% | 513.3hPa | 2.7V | 00:00:00 | 00:00:00 | 00:00:00 | |
| SP6BVK | 2026-09-04 07:08:21 | 50.93392 | 17.22342 | 120° | 84km/h | 5580m | -1.9m/s | -9.6°C | 85.9% | 513.2hPa | 2.7V | 00:00:00 | 00:00:00 | 00:00:00 | |
| SQ6EMJ | 2026-09-04 07:08:19 | 50.93412 | 17.22284 | 119° | 84km/h | 5584m | -1.9m/s | -9.6°C | 86.1% | 512.9hPa | 2.7V | 00:00:00 | 00:00:00 | 00:00:00 | |
| SQ6EMJ | 2026-09-04 07:08:14 | 50.93471 | 17.22108 | 118° | 82km/h | 5595m | -2.0m/s | -9.7°C | 86.2% | 512.2hPa | 2.7V | 00:00:00 | 00:00:00 | 00:00:00 | |
| POL1PZ | 2026-09-04 07:08:13 | 50.93471 | 17.22108 | 118° | 82km/h | 5595m | -2.0m/s | -9.7°C | 86.2% | 512.2hPa | 2.7V | 00:00:00 | 00:00:00 | 00:00:00 | |
| OE3JTB-15 | 2026-09-04 07:08:12 | 50.93490 | 17.22048 | 117° | 89km/h | 5599m | -1.9m/s | -9.7°C | 89.4% | 511.9hPa | 2.7V | 00:00:00 | 00:00:00 | 00:00:00 | |
| SQ6EMJ | 2026-09-04 07:08:08 | 50.93517 | 17.21958 | 117° | 84km/h | 5605m | -1.9m/s | -9.7°C | 86.2% | 511.6hPa | 2.7V | 00:00:00 | 00:00:00 | 00:00:00 | |
| SQ6EMJ | 2026-09-04 07:08:04 | 50.93563 | 17.21804 | 116° | 86km/h | 5614m | -1.9m/s | -9.7°C | 85.7% | 511.0hPa | 2.7V | 00:00:00 | 00:00:00 | 00:00:00 | |
| POL2MAQ | 2026-09-04 07:08:03 | 50.93563 | 17.21804 | 116° | 86km/h | 5614m | -1.9m/s | -9.7°C | 85.7% | 511.0hPa | 2.7V | 00:00:00 | 00:00:00 | 00:00:00 | |
| SP6BVK | 2026-09-04 07:08:01 | 50.93582 | 17.21741 | 116° | 88km/h | 5618m | -1.9m/s | -9.7°C | 85.7% | 510.6hPa | 2.7V | 00:00:00 | 00:00:00 | 00:00:00 | |
| SQ6EMJ | 2026-09-04 07:07:57 | 50.93619 | 17.21612 | 116° | 89km/h | 5625m | -2.0m/s | -9.8°C | 85.9% | 510.1hPa | 2.7V | 00:00:00 | 00:00:00 | 00:00:00 | |
| SQ6EMJ | 2026-09-04 07:07:53 | 50.93667 | 17.21449 | 116° | 91km/h | 5635m | -1.8m/s | -9.8°C | 86.2% | 509.5hPa | 2.7V | 00:00:00 | 00:00:00 | 00:00:00 | |
| SQ6EMJ | 2026-09-04 07:07:46 | 50.93727 | 17.21249 | 117° | 93km/h | 5647m | -2.0m/s | -9.8°C | 86.3% | 508.8hPa | 2.7V | 00:00:00 | 00:00:00 | 00:00:00 | |
| OE3JTB-15 | 2026-09-04 07:07:43 | 50.93770 | 17.21114 | 117° | 91km/h | 5655m | -1.9m/s | -9.8°C | 90.0% | 508.2hPa | 2.7V | 00:00:00 | 02:57:50 | 00:00:00 | |
| POL2MAQ | 2026-09-04 07:07:42 | 50.93770 | 17.21114 | 118° | 95km/h | 5655m | -1.9m/s | -9.8°C | 87.0% | 508.2hPa | 2.7V | 00:00:00 | 00:00:00 | 00:00:00 | |
| SP6BVK | 2026-09-04 07:07:41 | 50.93780 | 17.21081 | 118° | 95km/h | 5657m | -2.0m/s | -9.9°C | 87.2% | 508.1hPa | 2.7V | 00:00:00 | 00:00:00 | 00:00:00 | |
| SP3BTT-10 | 2026-09-04 07:07:40 | 50.93803 | 17.21014 | 118° | 89km/h | 5661m | -1.9m/s | -9.8°C | 90.0% | 507.8hPa | 2.7V | 00:00:00 | 00:00:00 | 00:00:00 | |
| SQ6EMJ | 2026-09-04 07:07:35 | 50.93848 | 17.20880 | 120° | 95km/h | 5669m | -1.9m/s | -9.9°C | 87.8% | 507.4hPa | 2.7V | 00:00:00 | 00:00:00 | 00:00:00 | |
| POL1PZ | 2026-09-04 07:07:33 | 50.93871 | 17.20814 | 120° | 95km/h | 5673m | -2.0m/s | -10.0°C | 87.7% | 507.1hPa | 2.7V | 00:00:00 | 00:00:00 | 00:00:00 | |
| SP3WXH-11 | 2026-09-04 07:07:31 | 50.93918 | 17.20683 | 119° | 93km/h | 5681m | -1.9m/s | -10.0°C | 87.5% | 506.5hPa | 2.7V | 00:00:00 | 00:00:00 | 00:00:00 | |
| SQ6EMJ | 2026-09-04 07:07:29 | 50.93918 | 17.20683 | 121° | 93km/h | 5681m | -1.9m/s | -10.0°C | 87.6% | 506.5hPa | 2.7V | 00:00:00 | 00:00:00 | 00:00:00 | |
| SQ6EMJ | 2026-09-04 07:07:24 | 50.93990 | 17.20492 | 122° | 91km/h | 5692m | -2.0m/s | -10.1°C | 88.0% | 505.8hPa | 2.7V | 00:00:00 | 00:00:00 | 00:00:00 | |
| SP6BVK | 2026-09-04 07:07:21 | 50.94013 | 17.20430 | 122° | 89km/h | 5696m | -1.9m/s | -10.2°C | 88.2% | 505.5hPa | 2.7V | 00:00:00 | 00:00:00 | 00:00:00 | |
| SQ6EMJ | 2026-09-04 07:07:17 | 50.94060 | 17.20309 | 122° | 89km/h | 5704m | -1.9m/s | -10.2°C | 88.3% | 505.0hPa | 2.7V | 00:00:00 | 00:00:00 | 00:00:00 | |
| POL1PZ | 2026-09-04 07:07:12 | 50.94117 | 17.20158 | 122° | 86km/h | 5713m | -2.0m/s | -10.3°C | 88.9% | 504.3hPa | 2.7V | 00:00:00 | 00:00:00 | 00:00:00 | |
| SQ6EMJ | 2026-09-04 07:07:11 | 50.94128 | 17.20128 | 121° | 86km/h | 5716m | -2.0m/s | -10.3°C | 89.0% | 504.2hPa | 2.7V | 00:00:00 | 00:00:00 | 00:00:00 | |
| SP3BTT-10 | 2026-09-04 07:07:10 | 50.94150 | 17.20069 | 121° | 88km/h | 5720m | -2.1m/s | -10.3°C | 92.1% | 504.0hPa | 2.7V | 00:00:00 | 00:00:00 | 00:00:00 | |
| SQ6EMJ | 2026-09-04 07:07:07 | 50.94182 | 17.19980 | 120° | 84km/h | 5726m | -2.0m/s | -10.4°C | 89.5% | 503.6hPa | 2.7V | 00:00:00 | 00:00:00 | 00:00:00 | |
| SP3WXH-11 | 2026-09-04 07:07:00 | 50.94261 | 17.19740 | 115° | 84km/h | 5742m | -2.0m/s | -10.5°C | 89.7% | 502.5hPa | 2.7V | 00:00:00 | 00:00:00 | 00:00:00 | |
| SQ6EMJ | 2026-09-04 07:06:55 | 50.94297 | 17.19615 | 116° | 88km/h | 5750m | -2.2m/s | -10.5°C | 89.8% | 502.0hPa | 2.7V | 00:00:00 | 00:00:00 | 00:00:00 | |
| POL1PZ | 2026-09-04 07:06:52 | 50.94316 | 17.19551 | 115° | 88km/h | 5754m | -1.9m/s | -10.6°C | 90.1% | 501.7hPa | 2.7V | 00:00:00 | 00:00:00 | 00:00:00 | |
| SQ6EMJ | 2026-09-04 07:06:49 | 50.94353 | 17.19421 | 115° | 91km/h | 5762m | -1.9m/s | -10.6°C | 90.5% | 501.2hPa | 2.7V | 00:00:00 | 00:00:00 | 00:00:00 | |
| OE3JTB-15 | 2026-09-04 07:06:45 | 50.94390 | 17.19287 | 115° | 93km/h | 5770m | -2.0m/s | -10.6°C | 94.1% | 500.7hPa | 2.7V | 00:00:00 | 00:00:00 | 00:00:00 | |
| SQ6EMJ | 2026-09-04 07:06:44 | 50.94400 | 17.19253 | 115° | 91km/h | 5772m | -1.9m/s | -10.7°C | 90.9% | 500.5hPa | 2.7V | 00:00:00 | 00:00:00 | 00:00:00 | |
| SP3BTT-10 | 2026-09-04 07:06:40 | 50.94439 | 17.19118 | 115° | 91km/h | 5780m | -1.8m/s | -10.7°C | 94.3% | 500.0hPa | 2.7V | 00:00:00 | 00:00:00 | 08:30:00 | |
| POL2MAQ | 2026-09-04 07:06:39 | 50.94439 | 17.19118 | 116° | 93km/h | 5780m | -1.9m/s | -10.7°C | 91.1% | 500.0hPa | 2.7V | 00:00:00 | 00:00:00 | 00:00:00 | |
| SQ6EMJ | 2026-09-04 07:06:37 | 50.94460 | 17.19049 | 117° | 95km/h | 5784m | -1.9m/s | -10.7°C | 91.2% | 499.8hPa | 2.7V | 00:00:00 | 00:00:00 | 00:00:00 | |
| POL1PZ | 2026-09-04 07:06:32 | 50.94513 | 17.18878 | 118° | 97km/h | 5793m | -2.0m/s | -10.8°C | 91.6% | 499.2hPa | 2.7V | 00:00:00 | 00:00:00 | 00:00:00 | |
| SQ6EMJ | 2026-09-04 07:06:31 | 50.94524 | 17.18843 | 118° | 97km/h | 5795m | -1.9m/s | -10.8°C | 91.7% | 499.0hPa | 2.7V | 00:00:00 | 00:00:00 | 00:00:00 | |
| SP3WXH-11 | 2026-09-04 07:06:29 | 50.94570 | 17.18706 | 118° | 97km/h | 5802m | -1.8m/s | -10.8°C | 91.9% | 498.6hPa | 2.7V | 00:00:00 | 00:00:00 | 00:00:00 | |
| SQ6EMJ | 2026-09-04 07:06:26 | 50.94582 | 17.18673 | 120° | 97km/h | 5804m | -1.9m/s | -10.9°C | 92.3% | 498.4hPa | 2.7V | 00:00:00 | 00:00:00 | 00:00:00 | |
| SQ6EMJ | 2026-09-04 07:06:21 | 50.94655 | 17.18472 | 122° | 95km/h | 5815m | -1.9m/s | -10.9°C | 92.4% | 497.7hPa | 2.7V | 00:00:00 | 00:00:00 | 00:00:00 | |
| SP6BVK | 2026-09-04 07:06:20 | 50.94655 | 17.18472 | 122° | 95km/h | 5815m | -1.9m/s | -10.9°C | 92.4% | 497.7hPa | 2.7V | 00:00:00 | 00:00:00 | 00:00:00 | |
| POL2MAQ | 2026-09-04 07:06:19 | 50.94680 | 17.18406 | 122° | 95km/h | 5819m | -1.7m/s | -10.9°C | 92.6% | 497.4hPa | 2.7V | 00:00:00 | 00:00:00 | 00:00:00 | |
| SQ6EMJ | 2026-09-04 07:06:14 | 50.94730 | 17.18278 | 123° | 93km/h | 5826m | -1.9m/s | -10.9°C | 92.5% | 497.0hPa | 2.7V | 00:00:00 | 00:00:00 | 00:00:00 | |
| POL1PZ | 2026-09-04 07:06:11 | 50.94768 | 17.18184 | 124° | 91km/h | 5831m | -1.8m/s | -10.9°C | 92.4% | 496.7hPa | 2.7V | 00:00:00 | 00:00:00 | 00:00:00 | |
| SQ6EMJ | 2026-09-04 07:06:08 | 50.94806 | 17.18092 | 124° | 91km/h | 5837m | -1.8m/s | -10.9°C | 92.4% | 496.4hPa | 2.7V | 00:00:00 | 00:00:00 | 00:00:00 | |
| SQ6EMJ | 2026-09-04 07:06:04 | 50.94868 | 17.17941 | 124° | 89km/h | 5845m | -1.8m/s | -11.0°C | 91.6% | 495.7hPa | 2.7V | 00:00:00 | 00:00:00 | 00:00:00 | |
| SP3WXH-11 | 2026-09-04 07:05:58 | 50.94951 | 17.17734 | 122° | 86km/h | 5858m | -1.8m/s | -11.0°C | 90.9% | 494.9hPa | 2.7V | 00:00:00 | 00:00:00 | 00:00:00 | |
| POL2MAQ | 2026-09-04 07:05:57 | 50.94939 | 17.17764 | 123° | 86km/h | 5856m | -1.8m/s | -11.0°C | 90.9% | 495.1hPa | 2.7V | 00:00:00 | 00:00:00 | 00:00:00 | |
| SP3BTT-10 | 2026-09-04 07:05:56 | 50.94962 | 17.17705 | 122° | 91km/h | 5860m | -1.6m/s | -10.9°C | 94.0% | 494.7hPa | 2.7V | 00:00:00 | 00:00:00 | 00:00:00 | |
| SQ6EMJ | 2026-09-04 07:05:53 | 50.94996 | 17.17617 | 121° | 86km/h | 5865m | -1.7m/s | -11.0°C | 90.8% | 494.5hPa | 2.7V | 00:00:00 | 00:00:00 | 00:00:00 | |
| SQ6EMJ | 2026-09-04 07:05:41 | 50.95119 | 17.17249 | 118° | 89km/h | 5884m | -1.5m/s | -11.2°C | 91.4% | 493.2hPa | 2.7V | 00:00:00 | 00:00:00 | 00:00:00 | |
| SP6BVK | 2026-09-04 07:05:39 | 50.95129 | 17.17217 | 118° | 89km/h | 5886m | -1.5m/s | -11.2°C | 91.2% | 493.2hPa | 2.7V | 00:00:00 | 00:00:00 | 00:00:00 | |
| POL2MAQ | 2026-09-04 07:05:37 | 50.95149 | 17.17152 | 118° | 91km/h | 5889m | -1.4m/s | -11.2°C | 90.9% | 493.0hPa | 2.7V | 00:00:00 | 00:00:00 | 00:00:00 | |
| SQ6EMJ | 2026-09-04 07:05:35 | 50.95181 | 17.17053 | 118° | 93km/h | 5894m | -1.5m/s | -11.2°C | 90.7% | 492.7hPa | 2.7V | 00:00:00 | 00:00:00 | 00:00:00 | |
| POL1PZ | 2026-09-04 07:05:30 | 50.95226 | 17.16920 | 120° | 95km/h | 5899m | -1.4m/s | -11.2°C | 91.0% | 492.3hPa | 2.7V | 00:00:00 | 00:00:00 | 00:00:00 | |
| SQ6EMJ | 2026-09-04 07:05:28 | 50.95249 | 17.16854 | 120° | 95km/h | 5902m | -1.4m/s | -11.2°C | 90.7% | 492.1hPa | 2.7V | 00:00:00 | 00:00:00 | 00:00:00 | |
| SP3WXH-11 | 2026-09-04 07:05:27 | 50.95284 | 17.16754 | 118° | 95km/h | 5906m | -1.5m/s | -11.2°C | 90.6% | 491.8hPa | 2.7V | 00:00:00 | 00:00:00 | 00:00:00 | |
| SQ6EMJ | 2026-09-04 07:05:22 | 50.95319 | 17.16654 | 120° | 95km/h | 5911m | -1.5m/s | -11.3°C | 90.9% | 491.6hPa | 2.7V | 00:00:00 | 00:00:00 | 00:00:00 | |
| SP6BVK | 2026-09-04 07:05:19 | 50.95354 | 17.16554 | 120° | 97km/h | 5915m | -1.4m/s | -11.3°C | 91.0% | 491.3hPa | 2.7V | 00:00:00 | 00:00:00 | 00:00:00 | |
| POL2MAQ | 2026-09-04 07:05:17 | 50.95378 | 17.16487 | 121° | 97km/h | 5918m | -1.5m/s | -11.3°C | 91.1% | 491.1hPa | 2.7V | 00:00:00 | 00:00:00 | 00:00:00 | |
| SQ6EMJ | 2026-09-04 07:05:12 | 50.95453 | 17.16290 | 123° | 95km/h | 5927m | -1.4m/s | -11.3°C | 91.5% | 490.6hPa | 2.7V | 00:00:00 | 00:00:00 | 00:00:00 | |
| POL1PZ | 2026-09-04 07:05:09 | 50.95480 | 17.16225 | 123° | 95km/h | 5930m | -1.5m/s | -11.4°C | 91.7% | 490.3hPa | 2.7V | 00:00:00 | 00:00:00 | 00:00:00 | |
| SQ6EMJ | 2026-09-04 07:05:07 | 50.95518 | 17.16128 | 124° | 95km/h | 5934m | -1.7m/s | -11.4°C | 91.6% | 490.1hPa | 2.7V | 00:00:00 | 00:00:00 | 00:00:00 | |
| SP3WXH-11 | 2026-09-04 07:04:56 | 50.95681 | 17.15755 | 125° | 93km/h | 5954m | -1.7m/s | -11.5°C | 91.1% | 488.7hPa | 2.7V | 00:00:00 | 00:00:00 | 00:00:00 | |
| EDDB2-12 | 2026-09-04 07:04:50 | 50.95762 | 17.15569 | 124° | 95km/h | 5963m | -1.5m/s | -11.6°C | 91.4% | 488.2hPa | 2.7V | 00:00:00 | 00:00:00 | 00:00:00 | |
| SONDE2-11 | 2026-09-04 07:04:45 | 50.95817 | 17.15443 | 124° | 95km/h | 5970m | -1.7m/s | -11.6°C | 91.8% | 487.7hPa | 2.7V | 00:00:00 | 00:00:00 | 00:00:00 | |
| OE3JTB-15 | 2026-09-04 07:04:44 | 50.95831 | 17.15411 | 125° | 95km/h | 5972m | -2.0m/s | -11.6°C | 95.2% | 487.6hPa | 2.7V | 00:00:00 | 02:54:51 | 00:00:00 | |
| SQ6EMJ | 2026-09-04 07:04:39 | 50.95899 | 17.15250 | 125° | 97km/h | 5981m | -2.2m/s | -11.6°C | 91.8% | 487.1hPa | 2.7V | 00:00:00 | 00:00:00 | 00:00:00 | |
| SP6BVK | 2026-09-04 07:04:38 | 50.95899 | 17.15250 | 125° | 97km/h | 5981m | -2.2m/s | -11.6°C | 91.8% | 487.1hPa | 2.7V | 00:00:00 | 00:00:00 | 00:00:00 | |
| POL2MAQ | 2026-09-04 07:04:35 | 50.95940 | 17.15155 | 126° | 95km/h | 5988m | -2.4m/s | -11.7°C | 91.6% | 486.7hPa | 2.7V | 00:00:00 | 00:00:00 | 00:00:00 | |
| SQ6EMJ | 2026-09-04 07:04:32 | 50.95981 | 17.15062 | 126° | 93km/h | 5995m | -2.2m/s | -11.7°C | 91.8% | 486.2hPa | 2.7V | 00:00:00 | 00:00:00 | 00:00:00 | |
| POL1PZ | 2026-09-04 07:04:29 | 50.96021 | 17.14971 | 127° | 93km/h | 6002m | -2.0m/s | -11.8°C | 92.1% | 485.8hPa | 2.7V | 00:00:00 | 00:00:00 | 00:00:00 | |
| SQ6EMJ | 2026-09-04 07:04:27 | 50.96049 | 17.14911 | 127° | 93km/h | 6005m | -1.6m/s | -11.8°C | 92.3% | 485.5hPa | 2.7V | 00:00:00 | 00:00:00 | 00:00:00 | |
| SP3WXH-11 | 2026-09-04 07:04:24 | 50.96104 | 17.14790 | 125° | 93km/h | 6012m | -1.6m/s | -11.8°C | 92.3% | 485.1hPa | 2.7V | 00:00:00 | 00:00:00 | 00:00:00 | |
| SQ6EMJ | 2026-09-04 07:04:22 | 50.96132 | 17.14729 | 127° | 93km/h | 6015m | -1.6m/s | -11.8°C | 92.3% | 484.9hPa | 2.7V | 00:00:00 | 00:00:00 | 00:00:00 | |
| SQ6EMJ | 2026-09-04 07:04:17 | 50.96202 | 17.14577 | 127° | 95km/h | 6023m | -1.7m/s | -11.8°C | 92.5% | 484.5hPa | 2.7V | 00:00:00 | 00:00:00 | 00:00:00 | |
| OE3JTB-15 | 2026-09-04 07:04:15 | 50.96231 | 17.14515 | 127° | 93km/h | 6026m | -1.6m/s | -11.8°C | 96.0% | 484.2hPa | 2.7V | 00:00:00 | 00:00:00 | 08:30:00 | |
| SONDE2-11 | 2026-09-04 07:04:14 | 50.96246 | 17.14484 | 126° | 97km/h | 6027m | -1.7m/s | -11.8°C | 92.6% | 484.1hPa | 2.7V | 00:00:00 | 00:00:00 | 00:00:00 | |
| SQ6EMJ | 2026-09-04 07:04:12 | 50.96275 | 17.14421 | 127° | 97km/h | 6031m | -1.3m/s | -11.8°C | 92.8% | 484.0hPa | 2.7V | 00:00:00 | 00:00:00 | 00:00:00 | |
| SP3BTT-10 | 2026-09-04 07:04:08 | 50.96332 | 17.14295 | 126° | 89km/h | 6037m | -1.4m/s | -11.8°C | 96.6% | 483.5hPa | 2.7V | 00:00:00 | 00:00:00 | 00:00:00 | |
| SQ6EMJ | 2026-09-04 07:04:06 | 50.96346 | 17.14264 | 127° | 95km/h | 6038m | -1.6m/s | -11.9°C | 93.6% | 483.5hPa | 2.6V | 00:00:00 | 00:00:00 | 00:00:00 | |
| EDDB2-12 | 2026-09-04 07:03:48 | 50.96600 | 17.13692 | 123° | 86km/h | 6074m | -1.9m/s | -12.3°C | 94.5% | 481.2hPa | 2.6V | 00:00:00 | 00:00:00 | 00:00:00 | |
| POL1PZ | 2026-09-04 07:03:47 | 50.96600 | 17.13692 | 124° | 88km/h | 6075m | -1.9m/s | -12.3°C | 94.5% | 481.2hPa | 2.6V | 00:00:00 | 00:00:00 | 00:00:00 | |
| OE3JTB-15 | 2026-09-04 07:03:46 | 50.96624 | 17.13633 | 123° | 99km/h | 6078m | -1.4m/s | -12.3°C | 98.9% | 480.9hPa | 2.6V | 00:00:00 | 00:00:00 | 00:00:00 | |
| SONDE2-11 | 2026-09-04 07:03:43 | 50.96660 | 17.13544 | 122° | 86km/h | 6082m | -1.5m/s | -12.4°C | 94.8% | 480.6hPa | 2.6V | 00:00:00 | 00:00:00 | 00:00:00 | |
| SP3BTT-10 | 2026-09-04 07:03:38 | 50.96719 | 17.13395 | 122° | 95km/h | 6090m | -1.4m/s | -12.5°C | 98.9% | 480.1hPa | 2.6V | 00:00:00 | 00:00:00 | 00:00:00 | |
| SQ6EMJ | 2026-09-04 07:03:37 | 50.96719 | 17.13395 | 122° | 88km/h | 6090m | -1.5m/s | -12.6°C | 95.3% | 480.1hPa | 2.6V | 00:00:00 | 00:00:00 | 00:00:00 | |
| SP6BVK | 2026-09-04 07:03:35 | 50.96742 | 17.13335 | 122° | 88km/h | 6093m | -1.5m/s | -12.6°C | 95.0% | 480.0hPa | 2.6V | 00:00:00 | 00:00:00 | 00:00:00 | |
| POL2MAQ | 2026-09-04 07:03:34 | 50.96753 | 17.13305 | 122° | 88km/h | 6094m | -1.7m/s | -12.6°C | 95.4% | 479.9hPa | 2.6V | 00:00:00 | 00:00:00 | 00:00:00 | |
| SQ6EMJ | 2026-09-04 07:03:31 | 50.96788 | 17.13214 | 121° | 89km/h | 6099m | -1.5m/s | -12.5°C | 94.9% | 479.6hPa | 2.6V | 00:00:00 | 00:00:00 | 00:00:00 | |
| SQ6EMJ | 2026-09-04 07:03:26 | 50.96845 | 17.13056 | 120° | 93km/h | 6108m | -2.0m/s | -12.5°C | 95.2% | 479.1hPa | 2.6V | 00:00:00 | 00:00:00 | 00:00:00 | |
| SP3WXH-11 | 2026-09-04 07:03:22 | 50.96906 | 17.12890 | 121° | 97km/h | 6117m | -1.9m/s | -12.7°C | 95.8% | 478.5hPa | 2.6V | 00:00:00 | 00:00:00 | 00:00:00 | |
| SQ6EMJ | 2026-09-04 07:03:21 | 50.96906 | 17.12890 | 122° | 99km/h | 6117m | -1.9m/s | -12.7°C | 95.8% | 478.5hPa | 2.6V | 00:00:00 | 00:00:00 | 00:00:00 | |
| SQ6EMJ | 2026-09-04 07:03:17 | 50.96973 | 17.12721 | 124° | 100km/h | 6126m | -1.7m/s | -12.7°C | 95.9% | 477.9hPa | 2.6V | 00:00:00 | 00:00:00 | 00:00:00 | |
| POL2MAQ | 2026-09-04 07:03:13 | 50.97014 | 17.12621 | 124° | 100km/h | 6131m | -1.5m/s | -12.8°C | 94.8% | 477.6hPa | 2.6V | 00:00:00 | 00:00:00 | 00:00:00 | |
| SONDE2-11 | 2026-09-04 07:03:12 | 50.97055 | 17.12520 | 123° | 99km/h | 6136m | -1.5m/s | -12.8°C | 95.1% | 477.3hPa | 2.6V | 00:00:00 | 00:00:00 | 00:00:00 | |
| SQ6EMJ | 2026-09-04 07:03:10 | 50.97055 | 17.12519 | 124° | 100km/h | 6136m | -1.5m/s | -12.8°C | 95.1% | 477.3hPa | 2.6V | 00:00:00 | 00:00:00 | 00:00:00 | |
| SQ6EMJ | 2026-09-04 07:03:06 | 50.97127 | 17.12352 | 126° | 100km/h | 6144m | -1.6m/s | -13.0°C | 96.0% | 476.9hPa | 2.6V | 00:00:00 | 00:00:00 | 00:00:00 | |
| SP3WXH-11 | 2026-09-04 07:02:51 | 50.97351 | 17.11885 | 128° | 95km/h | 6166m | -1.5m/s | -12.7°C | 92.1% | 475.4hPa | 2.6V | 00:00:00 | 00:00:00 | 00:00:00 | |
| SQ6EMJ | 2026-09-04 07:02:47 | 50.97396 | 17.11796 | 130° | 95km/h | 6171m | -1.5m/s | -12.8°C | 92.8% | 475.1hPa | 2.6V | 00:00:00 | 00:00:00 | 00:00:00 | |
| POL1PZ | 2026-09-04 07:02:45 | 50.97426 | 17.11737 | 130° | 93km/h | 6174m | -1.7m/s | -12.8°C | 92.7% | 474.9hPa | 2.6V | 00:00:00 | 00:00:00 | 00:00:00 | |
| SQ6EMJ | 2026-09-04 07:02:41 | 50.97484 | 17.11623 | 129° | 89km/h | 6180m | -1.7m/s | -13.0°C | 93.7% | 474.5hPa | 2.6V | 00:00:00 | 00:00:00 | 00:00:00 | |
| SQ6EMJ | 2026-09-04 07:02:35 | 50.97566 | 17.11453 | 127° | 88km/h | 6190m | -1.5m/s | -13.0°C | 93.0% | 473.9hPa | 2.6V | 00:00:00 | 00:00:00 | 00:00:00 | |
| SP6BVK | 2026-09-04 07:02:33 | 50.97592 | 17.11395 | 127° | 88km/h | 6194m | -1.7m/s | -13.0°C | 93.6% | 473.7hPa | 2.6V | 00:00:00 | 00:00:00 | 00:00:00 | |
| POL2MAQ | 2026-09-04 07:02:31 | 50.97618 | 17.11338 | 126° | 89km/h | 6197m | -1.6m/s | -13.0°C | 92.9% | 473.6hPa | 2.6V | 00:00:00 | 00:00:00 | 00:00:00 | |
| SQ6EMJ | 2026-09-04 07:02:29 | 50.97644 | 17.11278 | 125° | 89km/h | 6200m | -1.6m/s | -13.0°C | 92.8% | 473.3hPa | 2.6V | 00:00:00 | 00:00:00 | 00:00:00 | |
| POL1PZ | 2026-09-04 07:02:25 | 50.97694 | 17.11156 | 124° | 93km/h | 6207m | -1.6m/s | -12.8°C | 90.4% | 472.9hPa | 2.6V | 00:00:00 | 00:00:00 | 00:00:00 | |
| SQ6EMJ | 2026-09-04 07:02:24 | 50.97707 | 17.11125 | 124° | 93km/h | 6208m | -1.7m/s | -12.8°C | 90.3% | 472.9hPa | 2.6V | 00:00:00 | 00:00:00 | 00:00:00 | |
| SP3WXH-11 | 2026-09-04 07:02:20 | 50.97774 | 17.10966 | 124° | 95km/h | 6216m | -1.6m/s | -12.8°C | 89.7% | 472.4hPa | 2.6V | 00:00:00 | 00:00:00 | 00:00:00 | |
| SQ6EMJ | 2026-09-04 07:02:19 | 50.97774 | 17.10966 | 125° | 97km/h | 6216m | -1.6m/s | -12.8°C | 89.8% | 472.4hPa | 2.6V | 00:00:00 | 00:00:00 | 00:00:00 | |
| SP6BVK | 2026-09-04 07:02:13 | 50.97860 | 17.10775 | 127° | 99km/h | 6226m | -1.6m/s | -12.8°C | 89.0% | 471.7hPa | 2.6V | 00:00:00 | 00:00:00 | 00:00:00 | |
| POL2MAQ | 2026-09-04 07:02:10 | 50.97904 | 17.10680 | 129° | 99km/h | 6231m | -1.6m/s | -12.8°C | 88.5% | 471.4hPa | 2.6V | 00:00:00 | 00:00:00 | 00:00:00 | |
| SQ6EMJ | 2026-09-04 07:02:09 | 50.97935 | 17.10618 | 129° | 97km/h | 6234m | -1.6m/s | -12.8°C | 88.5% | 471.3hPa | 2.6V | 00:00:00 | 00:00:00 | 00:00:00 | |
| POL1PZ | 2026-09-04 07:02:04 | 50.97997 | 17.10497 | 130° | 97km/h | 6241m | -1.7m/s | -12.8°C | 88.0% | 470.9hPa | 2.6V | 00:00:00 | 00:00:00 | 00:00:00 | |
| SP3WXH-11 | 2026-09-04 07:01:49 | 50.98244 | 17.10040 | 131° | 89km/h | 6266m | -1.7m/s | -12.8°C | 85.3% | 469.2hPa | 2.6V | 00:00:00 | 00:00:00 | 00:00:00 | |
| SQ6EMJ | 2026-09-04 07:01:46 | 50.98274 | 17.09986 | 132° | 89km/h | 6270m | -1.6m/s | -12.9°C | 84.8% | 469.1hPa | 2.6V | 00:00:00 | 00:00:00 | 00:00:00 | |
| EDDB2-12 | 2026-09-04 07:01:44 | 50.98360 | 17.09825 | 129° | 86km/h | 6279m | -1.6m/s | -13.0°C | 84.9% | 468.5hPa | 2.6V | 00:00:00 | 00:00:00 | 00:00:00 | |
| SQ6EMJ | 2026-09-04 07:01:41 | 50.98360 | 17.09825 | 130° | 86km/h | 6279m | -1.6m/s | -13.0°C | 84.9% | 468.5hPa | 2.6V | 00:00:00 | 00:00:00 | 00:00:00 | |
| SONDE2-11 | 2026-09-04 07:01:39 | 50.98400 | 17.09744 | 128° | 86km/h | 6284m | -1.6m/s | -13.0°C | 85.0% | 468.1hPa | 2.6V | 00:00:00 | 00:00:00 | 00:00:00 | |
| SQ6EMJ | 2026-09-04 07:01:35 | 50.98427 | 17.09690 | 128° | 86km/h | 6287m | -1.6m/s | -13.0°C | 85.1% | 467.9hPa | 2.6V | 00:00:00 | 00:00:00 | 00:00:00 | |
| SP6BVK | 2026-09-04 07:01:32 | 50.98466 | 17.09606 | 127° | 88km/h | 6292m | -1.7m/s | -13.1°C | 85.0% | 467.6hPa | 2.6V | 00:00:00 | 00:00:00 | 00:00:00 | |
| SQ6EMJ | 2026-09-04 07:01:30 | 50.98505 | 17.09519 | 126° | 89km/h | 6297m | -1.6m/s | -13.1°C | 84.1% | 467.3hPa | 2.6V | 00:00:00 | 00:00:00 | 00:00:00 | |
| POL2MAQ | 2026-09-04 07:01:29 | 50.98505 | 17.09519 | 126° | 89km/h | 6297m | -1.6m/s | -13.1°C | 84.1% | 467.3hPa | 2.6V | 00:00:00 | 00:00:00 | 00:00:00 | |
| SQ6EMJ | 2026-09-04 07:01:24 | 50.98585 | 17.09338 | 126° | 93km/h | 6306m | -1.5m/s | -13.1°C | 83.6% | 466.8hPa | 2.6V | 00:00:00 | 00:00:00 | 00:00:00 | |
| EDDB2-11 | 2026-09-04 07:01:23 | 50.98613 | 17.09276 | 125° | 93km/h | 6309m | -1.6m/s | -13.1°C | 83.2% | 466.5hPa | 2.6V | 00:00:00 | 00:00:00 | 00:00:00 | |
| SP3WXH-11 | 2026-09-04 07:01:18 | 50.98669 | 17.09152 | 125° | 95km/h | 6315m | -1.5m/s | -13.2°C | 83.5% | 466.2hPa | 2.6V | 00:00:00 | 00:00:00 | 00:00:00 | |
| EDDB2-12 | 2026-09-04 07:01:13 | 50.98741 | 17.08997 | 127° | 97km/h | 6324m | -1.7m/s | -13.1°C | 83.0% | 465.7hPa | 2.6V | 00:00:00 | 00:00:00 | 00:00:00 | |
| SP6BVK | 2026-09-04 07:01:11 | 50.98756 | 17.08966 | 128° | 97km/h | 6326m | -1.6m/s | -13.1°C | 82.9% | 465.6hPa | 2.6V | 00:00:00 | 00:00:00 | 00:00:00 | |
| POL2MAQ | 2026-09-04 07:01:08 | 50.98802 | 17.08875 | 130° | 97km/h | 6330m | -1.6m/s | -13.1°C | 82.9% | 465.3hPa | 2.6V | 00:00:00 | 00:00:00 | 00:00:00 | |
| SQ6EMJ | 2026-09-04 07:01:07 | 50.98817 | 17.08844 | 130° | 97km/h | 6332m | -1.7m/s | -13.1°C | 82.9% | 465.2hPa | 2.6V | 00:00:00 | 00:00:00 | 00:00:00 | |
| POL1PZ | 2026-09-04 07:01:03 | 50.98879 | 17.08725 | 131° | 97km/h | 6339m | -1.7m/s | -13.1°C | 82.9% | 464.8hPa | 2.6V | 00:00:00 | 00:00:00 | 00:00:00 | |
| EDDB2-11 | 2026-09-04 07:00:52 | 50.99086 | 17.08347 | 132° | 93km/h | 6360m | -1.7m/s | -13.3°C | 84.2% | 463.5hPa | 2.6V | 00:00:00 | 00:00:00 | 00:00:00 | |
| SP3WXH-11 | 2026-09-04 07:00:47 | 50.99150 | 17.08237 | 132° | 91km/h | 6367m | -1.7m/s | -13.4°C | 84.3% | 463.1hPa | 2.6V | 00:00:00 | 00:00:00 | 00:00:00 | |
| SQ6EMJ | 2026-09-04 07:00:45 | 50.99166 | 17.08210 | 134° | 91km/h | 6369m | -1.7m/s | -13.4°C | 84.2% | 463.0hPa | 2.6V | 00:00:00 | 00:00:00 | 00:00:00 | |
| EDDB2-12 | 2026-09-04 07:00:42 | 50.99243 | 17.08076 | 132° | 88km/h | 6377m | -1.6m/s | -13.5°C | 84.5% | 462.5hPa | 2.6V | 00:00:00 | 00:00:00 | 00:00:00 | |
| SQ6EMJ | 2026-09-04 07:00:40 | 50.99243 | 17.08076 | 133° | 89km/h | 6377m | -1.6m/s | -13.5°C | 84.5% | 462.5hPa | 2.6V | 00:00:00 | 00:00:00 | 00:00:00 | |
| SONDE2-11 | 2026-09-04 07:00:37 | 50.99317 | 17.07943 | 130° | 86km/h | 6385m | -1.7m/s | -13.6°C | 84.6% | 462.0hPa | 2.6V | 00:00:00 | 00:00:00 | 00:00:00 | |
| SQ6EMJ | 2026-09-04 07:00:34 | 50.99331 | 17.07917 | 131° | 88km/h | 6387m | -1.6m/s | -13.6°C | 84.4% | 461.9hPa | 2.6V | 00:00:00 | 00:00:00 | 00:00:00 | |
| SQ6EMJ | 2026-09-04 07:00:29 | 50.99414 | 17.07753 | 129° | 88km/h | 6397m | -1.6m/s | -13.6°C | 82.9% | 461.3hPa | 2.6V | 00:00:00 | 00:00:00 | 00:00:00 | |
| POL2MAQ | 2026-09-04 07:00:27 | 50.99428 | 17.07725 | 129° | 88km/h | 6398m | -1.7m/s | -13.6°C | 82.4% | 461.2hPa | 2.6V | 00:00:00 | 00:00:00 | 00:00:00 | |
| SQ6EMJ | 2026-09-04 07:00:24 | 50.99482 | 17.07614 | 128° | 88km/h | 6405m | -1.8m/s | -13.6°C | 81.4% | 460.7hPa | 2.6V | 00:00:00 | 00:00:00 | 00:00:00 | |
| POL1PZ | 2026-09-04 07:00:22 | 50.99495 | 17.07586 | 127° | 88km/h | 6407m | -1.7m/s | -13.6°C | 81.1% | 460.7hPa | 2.6V | 00:00:00 | 00:00:00 | 00:00:00 | |
| EDDB2-11 | 2026-09-04 07:00:21 | 50.99534 | 17.07500 | 125° | 88km/h | 6411m | -1.7m/s | -13.6°C | 81.3% | 460.3hPa | 2.6V | 00:00:00 | 00:00:00 | 00:00:00 | |
| SQ6EMJ | 2026-09-04 07:00:17 | 50.99574 | 17.07412 | 126° | 89km/h | 6417m | -1.7m/s | -13.6°C | 81.3% | 460.0hPa | 2.6V | 00:00:00 | 00:00:00 | 00:00:00 | |
| SP3WXH-11 | 2026-09-04 07:00:16 | 50.99587 | 17.07383 | 125° | 89km/h | 6418m | -1.8m/s | -13.6°C | 81.2% | 459.9hPa | 2.6V | 00:00:00 | 00:00:00 | 00:00:00 | |
| SQ6EMJ | 2026-09-04 07:00:10 | 50.99654 | 17.07231 | 126° | 93km/h | 6427m | -1.7m/s | -13.7°C | 81.6% | 459.4hPa | 2.6V | 00:00:00 | 00:00:00 | 00:00:00 | |
| SP6BVK | 2026-09-04 07:00:09 | 50.99668 | 17.07200 | 127° | 95km/h | 6429m | -1.7m/s | -13.7°C | 81.7% | 459.3hPa | 2.6V | 00:00:00 | 00:00:00 | 00:00:00 | |
| SONDE2-11 | 2026-09-04 07:00:06 | 50.99740 | 17.07044 | 127° | 97km/h | 6437m | -1.7m/s | -13.9°C | 82.5% | 458.8hPa | 2.6V | 00:00:00 | 00:00:00 | 00:00:00 | |
| POL1PZ | 2026-09-04 07:00:01 | 50.99785 | 17.06951 | 129° | 99km/h | 6442m | -1.8m/s | -13.9°C | 82.5% | 458.4hPa | 2.6V | 00:00:00 | 00:00:00 | 00:00:00 | |
| SQ6EMJ | 2026-09-04 06:59:55 | 50.99877 | 17.06765 | 130° | 99km/h | 6453m | -1.8m/s | -14.0°C | 82.6% | 457.9hPa | 2.6V | 00:00:00 | 00:00:00 | 00:00:00 | |
| SP3BTT-10 | 2026-09-04 06:59:52 | 50.99941 | 17.06643 | 131° | 97km/h | 6460m | -1.6m/s | -13.9°C | 85.2% | 457.4hPa | 2.6V | 00:00:00 | 00:00:00 | 00:00:00 | |
| SQ6EMJ | 2026-09-04 06:59:49 | 50.99973 | 17.06584 | 132° | 97km/h | 6463m | -1.7m/s | -14.0°C | 81.6% | 457.2hPa | 2.6V | 00:00:00 | 00:00:00 | 00:00:00 | |
| SP6BVK | 2026-09-04 06:59:48 | 50.99989 | 17.06555 | 132° | 97km/h | 6465m | -1.8m/s | -14.0°C | 81.7% | 457.1hPa | 2.6V | 00:00:00 | 00:00:00 | 00:00:00 | |
| POL2MAQ | 2026-09-04 06:59:47 | 51.00005 | 17.06526 | 132° | 95km/h | 6467m | -1.8m/s | -14.1°C | 81.7% | 457.0hPa | 2.6V | 00:00:00 | 00:00:00 | 00:00:00 | |
| SQ6EMJ | 2026-09-04 06:59:45 | 51.00052 | 17.06441 | 132° | 93km/h | 6472m | -1.8m/s | -14.3°C | 82.7% | 456.7hPa | 2.6V | 00:00:00 | 00:00:00 | 00:00:00 | |
| POL1PZ | 2026-09-04 06:59:41 | 51.00097 | 17.06359 | 132° | 89km/h | 6477m | -1.8m/s | -14.4°C | 83.1% | 456.4hPa | 2.6V | 00:00:00 | 00:00:00 | 00:00:00 | |
| EDDB2-12 | 2026-09-04 06:59:40 | 51.00141 | 17.06277 | 129° | 88km/h | 6482m | -1.9m/s | -14.4°C | 83.3% | 456.1hPa | 2.6V | 00:00:00 | 00:00:00 | 00:00:00 | |
| SONDE2-11 | 2026-09-04 06:59:35 | 51.00209 | 17.06139 | 127° | 88km/h | 6491m | -1.7m/s | -14.3°C | 83.3% | 455.5hPa | 2.6V | 00:00:00 | 00:00:00 | 00:00:00 | |
| SQ6EMJ | 2026-09-04 06:59:33 | 51.00209 | 17.06138 | 128° | 88km/h | 6491m | -1.7m/s | -14.3°C | 83.3% | 455.5hPa | 2.6V | 00:00:00 | 00:00:00 | 00:00:00 | |
| SQ6EMJ | 2026-09-04 06:59:28 | 51.00288 | 17.05966 | 126° | 89km/h | 6502m | -1.9m/s | -14.4°C | 82.7% | 454.9hPa | 2.6V | 00:00:00 | 00:00:00 | 00:00:00 | |
| POL2MAQ | 2026-09-04 06:59:26 | 51.00301 | 17.05936 | 126° | 89km/h | 6504m | -1.8m/s | -14.3°C | 82.6% | 454.8hPa | 2.6V | 00:00:00 | 00:00:00 | 00:00:00 | |
| SQ6EMJ | 2026-09-04 06:59:22 | 51.00365 | 17.05787 | 125° | 91km/h | 6513m | -1.9m/s | -14.4°C | 82.5% | 454.2hPa | 2.6V | 00:00:00 | 00:00:00 | 00:00:00 | |
| POL1PZ | 2026-09-04 06:59:21 | 51.00365 | 17.05787 | 125° | 91km/h | 6513m | -1.9m/s | -14.4°C | 82.5% | 454.2hPa | 2.6V | 00:00:00 | 00:00:00 | 00:00:00 | |
| SP3BTT-10 | 2026-09-04 06:59:17 | 51.00442 | 17.05601 | 123° | 99km/h | 6524m | -1.9m/s | -14.4°C | 84.8% | 453.5hPa | 2.6V | 00:00:00 | 00:00:00 | 08:30:00 | |
| SP3WXH-11 | 2026-09-04 06:59:14 | 51.00468 | 17.05537 | 122° | 95km/h | 6528m | -2.0m/s | -14.5°C | 81.6% | 453.3hPa | 2.6V | 00:00:00 | 00:00:00 | 00:00:00 | |
| SQ6EMJ | 2026-09-04 06:59:11 | 51.00508 | 17.05439 | 124° | 99km/h | 6534m | -1.8m/s | -14.5°C | 82.2% | 453.0hPa | 2.6V | 00:00:00 | 00:00:00 | 00:00:00 | |
| EDDB2-12 | 2026-09-04 06:59:09 | 51.00550 | 17.05340 | 124° | 99km/h | 6539m | -1.8m/s | -14.6°C | 82.4% | 452.6hPa | 2.6V | 00:00:00 | 00:00:00 | 00:00:00 | |
| SP6BVK | 2026-09-04 06:59:07 | 51.00550 | 17.05340 | 125° | 100km/h | 6539m | -1.8m/s | -14.6°C | 82.5% | 452.6hPa | 2.6V | 00:00:00 | 00:00:00 | 00:00:00 | |
| SQ6EMJ | 2026-09-04 06:59:06 | 51.00578 | 17.05274 | 126° | 100km/h | 6543m | -1.8m/s | -14.6°C | 82.3% | 452.4hPa | 2.6V | 00:00:00 | 00:00:00 | 00:00:00 | |
| POL2MAQ | 2026-09-04 06:59:05 | 51.00578 | 17.05274 | 126° | 100km/h | 6543m | -1.8m/s | -14.6°C | 82.3% | 452.4hPa | 2.6V | 00:00:00 | 00:00:00 | 00:00:00 | |
| SONDE2-11 | 2026-09-04 06:59:03 | 51.00622 | 17.05176 | 125° | 100km/h | 6548m | -1.8m/s | -14.7°C | 82.6% | 452.1hPa | 2.6V | 00:00:00 | 00:00:00 | 00:00:00 | |
| POL1PZ | 2026-09-04 06:59:01 | 51.00652 | 17.05110 | 127° | 100km/h | 6552m | -1.8m/s | -14.7°C | 82.6% | 451.9hPa | 2.6V | 00:00:00 | 00:00:00 | 00:00:00 | |
| SQ6EMJ | 2026-09-04 06:59:00 | 51.00667 | 17.05078 | 128° | 100km/h | 6554m | -1.9m/s | -14.6°C | 82.2% | 451.7hPa | 2.6V | 00:00:00 | 00:00:00 | 00:00:00 | |
| SQ6EMJ | 2026-09-04 06:58:54 | 51.00760 | 17.04887 | 130° | 100km/h | 6565m | -1.9m/s | -14.7°C | 82.5% | 451.1hPa | 2.6V | 00:00:00 | 00:00:00 | 00:00:00 | |
| SQ6EMJ | 2026-09-04 06:58:47 | 51.00854 | 17.04707 | 130° | 93km/h | 6576m | -1.9m/s | -15.0°C | 83.8% | 450.5hPa | 2.6V | 00:00:00 | 00:00:00 | 00:00:00 | |
| SP3BTT-10 | 2026-09-04 06:58:46 | 51.00883 | 17.04649 | 129° | 91km/h | 6580m | -1.7m/s | -15.0°C | 88.2% | 450.2hPa | 2.6V | 00:00:00 | 00:00:00 | 00:00:00 | |
| POL2MAQ | 2026-09-04 06:58:44 | 51.00897 | 17.04619 | 129° | 91km/h | 6582m | -1.8m/s | -15.1°C | 84.6% | 450.2hPa | 2.6V | 00:00:00 | 00:00:00 | 00:00:00 | |
| SP3WXH-11 | 2026-09-04 06:58:43 | 51.00925 | 17.04562 | 127° | 89km/h | 6585m | -1.9m/s | -15.1°C | 84.3% | 449.9hPa | 2.6V | 00:00:00 | 00:00:00 | 00:00:00 | |
| SQ6EMJ | 2026-09-04 06:58:42 | 51.00939 | 17.04533 | 128° | 89km/h | 6587m | -1.8m/s | -15.1°C | 84.0% | 449.8hPa | 2.6V | 00:00:00 | 00:00:00 | 00:00:00 | |
| POL1PZ | 2026-09-04 06:58:39 | 51.00966 | 17.04475 | 127° | 89km/h | 6591m | -1.9m/s | -15.1°C | 84.1% | 449.6hPa | 2.6V | 00:00:00 | 00:00:00 | 00:00:00 | |
| EDDB2-12 | 2026-09-04 06:58:38 | 51.01006 | 17.04387 | 124° | 89km/h | 6596m | -1.8m/s | -15.1°C | 83.2% | 449.2hPa | 2.6V | 00:00:00 | 00:00:00 | 00:00:00 | |
| SQ6EMJ | 2026-09-04 06:58:36 | 51.01019 | 17.04356 | 125° | 91km/h | 6598m | -1.8m/s | -15.0°C | 82.5% | 449.1hPa | 2.6V | 00:00:00 | 00:00:00 | 00:00:00 | |
| SONDE2-11 | 2026-09-04 06:58:32 | 51.01071 | 17.04232 | 123° | 93km/h | 6605m | -1.7m/s | -15.0°C | 82.4% | 448.7hPa | 2.6V | 00:00:00 | 00:00:00 | 00:00:00 | |
| SQ6EMJ | 2026-09-04 06:58:29 | 51.01097 | 17.04168 | 124° | 95km/h | 6609m | -1.8m/s | -15.0°C | 82.5% | 448.5hPa | 2.6V | 00:00:00 | 00:00:00 | 00:00:00 | |
| SP6BVK | 2026-09-04 06:58:26 | 51.01137 | 17.04070 | 124° | 97km/h | 6614m | -1.8m/s | -14.9°C | 82.3% | 448.2hPa | 2.6V | 00:00:00 | 00:00:00 | 00:00:00 | |
| SQ6EMJ | 2026-09-04 06:58:24 | 51.01177 | 17.03971 | 123° | 99km/h | 6620m | -1.8m/s | -15.0°C | 82.4% | 447.9hPa | 2.6V | 00:00:00 | 00:00:00 | 00:00:00 | |
| POL2MAQ | 2026-09-04 06:58:23 | 51.01177 | 17.03971 | 123° | 99km/h | 6620m | -1.8m/s | -15.0°C | 82.4% | 447.9hPa | 2.6V | 00:00:00 | 00:00:00 | 00:00:00 | |
| POL1PZ | 2026-09-04 06:58:18 | 51.01244 | 17.03803 | 124° | 100km/h | 6628m | -1.7m/s | -15.1°C | 83.3% | 447.3hPa | 2.6V | 00:00:00 | 00:00:00 | 00:00:00 | |
| EDDB2-11 | 2026-09-04 06:58:17 | 51.01286 | 17.03700 | 123° | 100km/h | 6634m | -1.9m/s | -15.1°C | 83.8% | 446.9hPa | 2.6V | 00:00:00 | 00:00:00 | 00:00:00 | |
| SP3BTT-10 | 2026-09-04 06:58:16 | 51.01286 | 17.03700 | 124° | 102km/h | 6634m | -1.8m/s | -15.1°C | 87.4% | 446.9hPa | 2.6V | 00:00:00 | 00:00:00 | 00:00:00 | |
| SQ6EMJ | 2026-09-04 06:58:13 | 51.01315 | 17.03632 | 125° | 102km/h | 6638m | -1.8m/s | -15.2°C | 84.2% | 446.8hPa | 2.6V | 00:00:00 | 00:00:00 | 00:00:00 | |
| SQ6EMJ | 2026-09-04 06:58:07 | 51.01416 | 17.03391 | 125° | 104km/h | 6650m | -1.9m/s | -15.3°C | 84.0% | 446.0hPa | 2.6V | 00:00:00 | 00:00:00 | 00:00:00 | |
| SP6BVK | 2026-09-04 06:58:06 | 51.01416 | 17.03391 | 125° | 104km/h | 6650m | -1.9m/s | -15.3°C | 84.0% | 446.0hPa | 2.6V | 00:00:00 | 00:00:00 | 00:00:00 | |
| KRY50SP-1 | 2026-09-04 06:58:04 | 51.01446 | 17.03322 | 125° | 104km/h | 6654m | -2.0m/s | -15.3°C | 83.7% | 445.8hPa | 2.6V | 00:00:00 | 00:00:00 | 00:00:00 | |
| SONDE2-11 | 2026-09-04 06:58:01 | 51.01506 | 17.03186 | 125° | 104km/h | 6661m | -1.9m/s | -15.3°C | 83.5% | 445.4hPa | 2.6V | 00:00:00 | 00:00:00 | 00:00:00 | |
| POL1PZ | 2026-09-04 06:57:58 | 51.01538 | 17.03118 | 128° | 104km/h | 6665m | -1.8m/s | -15.3°C | 82.9% | 445.1hPa | 2.6V | 00:00:00 | 00:00:00 | 00:00:00 | |
| SQ6EMJ | 2026-09-04 06:57:55 | 51.01585 | 17.03019 | 128° | 102km/h | 6671m | -1.8m/s | -15.4°C | 81.9% | 444.8hPa | 2.6V | 00:00:00 | 00:00:00 | 00:00:00 | |
| KRY50SP-1 | 2026-09-04 06:57:54 | 51.01601 | 17.02986 | 129° | 102km/h | 6672m | -1.8m/s | -15.5°C | 82.0% | 444.7hPa | 2.6V | 00:00:00 | 00:00:00 | 00:00:00 | |
| SQ6EMJ | 2026-09-04 06:57:49 | 51.01678 | 17.02829 | 129° | 97km/h | 6681m | -1.8m/s | -15.7°C | 83.3% | 444.2hPa | 2.6V | 00:00:00 | 00:00:00 | 00:00:00 | |
| KRY50SP-1 | 2026-09-04 06:57:48 | 51.01692 | 17.02799 | 129° | 97km/h | 6683m | -1.8m/s | -15.7°C | 83.5% | 444.1hPa | 2.6V | 00:00:00 | 00:00:00 | 00:00:00 | |
| SP3BTT-10 | 2026-09-04 06:57:46 | 51.01736 | 17.02707 | 127° | 100km/h | 6689m | -1.7m/s | -15.7°C | 87.4% | 443.7hPa | 2.6V | 00:00:00 | 00:00:00 | 00:00:00 | |
| SP6BVK | 2026-09-04 06:57:45 | 51.01736 | 17.02707 | 128° | 95km/h | 6689m | -1.7m/s | -15.8°C | 83.8% | 443.8hPa | 2.7V | 00:00:00 | 00:00:00 | 00:00:00 | |
| SQ6EMJ | 2026-09-04 06:57:44 | 51.01751 | 17.02677 | 128° | 95km/h | 6690m | -1.8m/s | -15.8°C | 83.8% | 443.7hPa | 2.7V | 00:00:00 | 00:00:00 | 00:00:00 | |
| POL2MAQ | 2026-09-04 06:57:43 | 51.01765 | 17.02647 | 127° | 95km/h | 6692m | -1.8m/s | -15.8°C | 83.4% | 443.5hPa | 2.7V | 00:00:00 | 00:00:00 | 00:00:00 | |
| SP3WXH-11 | 2026-09-04 06:57:41 | 51.01806 | 17.02554 | 124° | 93km/h | 6697m | -1.8m/s | -15.7°C | 83.0% | 443.3hPa | 2.7V | 00:00:00 | 00:00:00 | 00:00:00 | |
| SQ6EMJ | 2026-09-04 06:57:38 | 51.01833 | 17.02492 | 125° | 93km/h | 6701m | -1.8m/s | -15.7°C | 82.9% | 443.1hPa | 2.7V | 00:00:00 | 00:00:00 | 00:00:00 | |
| POL1PZ | 2026-09-04 06:57:37 | 51.01846 | 17.02461 | 125° | 93km/h | 6703m | -1.8m/s | -15.7°C | 82.8% | 443.0hPa | 2.7V | 00:00:00 | 00:00:00 | 00:00:00 | |
| EDDB2-12 | 2026-09-04 06:57:35 | 51.01886 | 17.02366 | 122° | 93km/h | 6708m | -1.7m/s | -15.6°C | 82.8% | 442.6hPa | 2.7V | 00:00:00 | 00:00:00 | 00:00:00 | |
| SQ6EMJ | 2026-09-04 06:57:33 | 51.01899 | 17.02334 | 124° | 95km/h | 6710m | -1.8m/s | -15.7°C | 82.7% | 442.5hPa | 2.7V | 00:00:00 | 00:00:00 | 00:00:00 | |
| KRY50SP-1 | 2026-09-04 06:57:31 | 51.01924 | 17.02270 | 123° | 95km/h | 6713m | -1.8m/s | -15.6°C | 82.3% | 442.4hPa | 2.7V | 00:00:00 | 00:00:00 | 00:00:00 | |
| SONDE2-11 | 2026-09-04 06:57:30 | 51.01950 | 17.02204 | 121° | 95km/h | 6716m | -1.6m/s | -15.7°C | 82.0% | 442.1hPa | 2.7V | 00:00:00 | 00:00:00 | 00:00:00 | |
| POL2MAQ | 2026-09-04 06:57:22 | 51.02038 | 17.01971 | 122° | 99km/h | 6728m | -1.5m/s | -15.7°C | 81.3% | 441.5hPa | 2.7V | 00:00:00 | 00:00:00 | 00:00:00 | |
| SQ6EMJ | 2026-09-04 06:57:21 | 51.02051 | 17.01937 | 121° | 99km/h | 6729m | -1.5m/s | -15.7°C | 81.3% | 441.4hPa | 2.7V | 00:00:00 | 00:00:00 | 00:00:00 | |
| SQ6EMJ | 2026-09-04 06:57:17 | 51.02114 | 17.01766 | 121° | 100km/h | 6737m | -1.5m/s | -15.7°C | 81.2% | 440.9hPa | 2.7V | 00:00:00 | 00:00:00 | 00:00:00 | |
| EDDB2-11 | 2026-09-04 06:57:14 | 51.02152 | 17.01661 | 120° | 100km/h | 6742m | -1.7m/s | -15.8°C | 81.8% | 440.7hPa | 2.7V | 00:00:00 | 00:00:00 | 00:00:00 | |
| SQ6EMJ | 2026-09-04 06:57:11 | 51.02192 | 17.01555 | 121° | 102km/h | 6746m | -1.4m/s | -15.8°C | 82.1% | 440.4hPa | 2.7V | 00:00:00 | 00:00:00 | 00:00:00 | |
| SP3WXH-11 | 2026-09-04 06:57:10 | 51.02205 | 17.01520 | 120° | 102km/h | 6747m | -1.4m/s | -15.8°C | 82.4% | 440.3hPa | 2.7V | 00:00:00 | 00:00:00 | 00:00:00 | |
| SQ6EMJ | 2026-09-04 06:57:06 | 51.02258 | 17.01378 | 122° | 104km/h | 6753m | -1.3m/s | -15.9°C | 82.9% | 439.9hPa | 2.7V | 00:00:00 | 00:00:00 | 00:00:00 | |
| SP6BVK | 2026-09-04 06:57:05 | 51.02258 | 17.01378 | 122° | 104km/h | 6753m | -1.3m/s | -15.9°C | 82.9% | 439.9hPa | 2.7V | 00:00:00 | 00:00:00 | 00:00:00 | |
| EDDB2-12 | 2026-09-04 06:57:04 | 51.02285 | 17.01307 | 121° | 102km/h | 6756m | -1.1m/s | -15.9°C | 83.0% | 439.9hPa | 2.7V | 00:00:00 | 00:00:00 | 00:00:00 | |
| POL2MAQ | 2026-09-04 06:57:02 | 51.02299 | 17.01271 | 123° | 104km/h | 6757m | -1.1m/s | -15.9°C | 82.8% | 439.8hPa | 2.7V | 00:00:00 | 00:00:00 | 00:00:00 | |
| SONDE2-11 | 2026-09-04 06:56:59 | 51.02355 | 17.01129 | 122° | 106km/h | 6761m | -1.2m/s | -16.0°C | 82.9% | 439.5hPa | 2.7V | 00:00:00 | 00:00:00 | 00:00:00 | |
| POL1PZ | 2026-09-04 06:56:56 | 51.02384 | 17.01056 | 124° | 108km/h | 6764m | -1.2m/s | -16.1°C | 82.8% | 439.4hPa | 2.7V | 00:00:00 | 00:00:00 | 00:00:00 | |
| SQ6EMJ | 2026-09-04 06:56:54 | 51.02414 | 17.00984 | 124° | 108km/h | 6766m | -1.2m/s | -16.1°C | 82.8% | 439.3hPa | 2.7V | 00:00:00 | 00:00:00 | 00:00:00 | |
| SP3BTT-10 | 2026-09-04 06:56:53 | 51.02444 | 17.00912 | 124° | 104km/h | 6769m | -1.1m/s | -16.0°C | 86.4% | 439.1hPa | 2.7V | 00:00:00 | 00:00:00 | 00:00:00 | |
| SQ6EMJ | 2026-09-04 06:56:49 | 51.02490 | 17.00806 | 127° | 106km/h | 6772m | -1.2m/s | -16.0°C | 82.7% | 438.8hPa | 2.7V | 00:00:00 | 00:00:00 | 00:00:00 | |
| SP6BVK | 2026-09-04 06:56:44 | 51.02567 | 17.00640 | 128° | 100km/h | 6778m | -1.0m/s | -16.1°C | 82.8% | 438.5hPa | 2.7V | 00:00:00 | 00:00:00 | 00:00:00 | |
| EDDB2-11 | 2026-09-04 06:56:43 | 51.02598 | 17.00576 | 127° | 99km/h | 6780m | -1.3m/s | -16.1°C | 82.6% | 438.4hPa | 2.7V | 00:00:00 | 00:00:00 | 00:00:00 | |
| POL2MAQ | 2026-09-04 06:56:42 | 51.02598 | 17.00576 | 128° | 99km/h | 6780m | -1.3m/s | -16.1°C | 82.6% | 438.4hPa | 2.7V | 00:00:00 | 00:00:00 | 00:00:00 | |
| SP3WXH-11 | 2026-09-04 06:56:39 | 51.02656 | 17.00451 | 125° | 95km/h | 6785m | -1.3m/s | -16.3°C | 83.6% | 438.2hPa | 2.7V | 00:00:00 | 00:00:00 | 00:00:00 | |
| SQ6EMJ | 2026-09-04 06:56:38 | 51.02656 | 17.00451 | 127° | 97km/h | 6785m | -1.3m/s | -16.3°C | 83.6% | 438.2hPa | 2.7V | 00:00:00 | 00:00:00 | 00:00:00 | |
| POL1PZ | 2026-09-04 06:56:36 | 51.02684 | 17.00387 | 125° | 95km/h | 6788m | -1.2m/s | -16.1°C | 82.9% | 437.9hPa | 2.7V | 00:00:00 | 00:00:00 | 00:00:00 | |
| EDDB2-12 | 2026-09-04 06:56:33 | 51.02737 | 17.00259 | 121° | 95km/h | 6792m | -0.9m/s | -16.1°C | 81.6% | 437.7hPa | 2.7V | 00:00:00 | 00:00:00 | 00:00:00 | |
| SQ6EMJ | 2026-09-04 06:56:32 | 51.02736 | 17.00258 | 123° | 95km/h | 6792m | -0.9m/s | -16.1°C | 81.6% | 437.7hPa | 2.7V | 00:00:00 | 00:00:00 | 00:00:00 | |
| SONDE2-11 | 2026-09-04 06:56:28 | 51.02799 | 17.00094 | 120° | 95km/h | 6796m | -0.9m/s | -16.2°C | 83.2% | 437.5hPa | 2.7V | 00:00:00 | 00:00:00 | 00:00:00 | |
| SQ6EMJ | 2026-09-04 06:56:27 | 51.02799 | 17.00094 | 121° | 97km/h | 6796m | -0.9m/s | -16.2°C | 83.2% | 437.5hPa | 2.7V | 00:00:00 | 00:00:00 | 00:00:00 | |
| SP6BVK | 2026-09-04 06:56:23 | 51.02848 | 16.99957 | 121° | 100km/h | 6799m | -0.6m/s | -16.1°C | 83.1% | 437.4hPa | 2.7V | 00:00:00 | 00:00:00 | 00:00:00 | |
| SQ6EMJ | 2026-09-04 06:56:22 | 51.02873 | 16.99886 | 120° | 102km/h | 6800m | -0.6m/s | -16.1°C | 81.6% | 437.3hPa | 2.7V | 00:00:00 | 00:00:00 | 00:00:00 | |
| POL2MAQ | 2026-09-04 06:56:21 | 51.02873 | 16.99886 | 120° | 102km/h | 6800m | -0.6m/s | -16.1°C | 81.6% | 437.3hPa | 2.7V | 00:00:00 | 00:00:00 | 00:00:00 | |
| SQ6EMJ | 2026-09-04 06:56:17 | 51.02937 | 16.99705 | 120° | 104km/h | 6803m | -0.9m/s | -15.9°C | 76.7% | 437.0hPa | 2.7V | 00:00:00 | 00:00:00 | 00:00:00 | |
| POL1PZ | 2026-09-04 06:56:15 | 51.02950 | 16.99669 | 121° | 104km/h | 6804m | -0.9m/s | -16.0°C | 76.8% | 437.0hPa | 2.7V | 00:00:00 | 00:00:00 | 00:00:00 | |
| OE3JTB-15 | 2026-09-04 06:56:12 | 51.03002 | 16.99525 | 120° | 106km/h | 6808m | -1.0m/s | -16.0°C | 80.8% | 436.7hPa | 2.7V | 00:00:00 | 02:46:19 | 00:00:00 | |
| SQ6EMJ | 2026-09-04 06:56:11 | 51.03002 | 16.99524 | 121° | 104km/h | 6808m | -1.1m/s | -16.0°C | 77.3% | 436.8hPa | 2.7V | 00:00:00 | 00:00:00 | 00:00:00 | |
| SP3WXH-11 | 2026-09-04 06:56:08 | 51.03054 | 16.99379 | 119° | 104km/h | 6813m | -1.1m/s | -16.3°C | 81.4% | 436.5hPa | 2.7V | 00:00:00 | 00:00:00 | 00:00:00 | |
| SP3BTT-10 | 2026-09-04 06:56:07 | 51.03067 | 16.99343 | 120° | 100km/h | 6814m | -0.9m/s | -16.2°C | 86.7% | 436.4hPa | 2.7V | 00:00:00 | 00:00:00 | 00:00:00 | |
| SQ6EMJ | 2026-09-04 06:56:06 | 51.03067 | 16.99343 | 121° | 104km/h | 6814m | -1.0m/s | -16.3°C | 83.0% | 436.5hPa | 2.7V | 00:00:00 | 00:00:00 | 00:00:00 | |
| SP6BVK | 2026-09-04 06:56:03 | 51.03107 | 16.99233 | 122° | 108km/h | 6817m | -0.8m/s | -16.4°C | 83.1% | 436.3hPa | 2.7V | 00:00:00 | 00:00:00 | 00:00:00 | |
| EDDB2-12 | 2026-09-04 06:56:02 | 51.03135 | 16.99159 | 121° | 106km/h | 6818m | -0.7m/s | -16.4°C | 83.5% | 436.2hPa | 2.7V | 00:00:00 | 00:00:00 | 00:00:00 | |
| SONDE2-11 | 2026-09-04 06:55:57 | 51.03208 | 16.98976 | 122° | 106km/h | 6823m | -1.0m/s | -16.4°C | 83.5% | 436.0hPa | 2.7V | 00:00:00 | 00:00:00 | 00:00:00 | |
| POL1PZ | 2026-09-04 06:55:55 | 51.03223 | 16.98940 | 124° | 108km/h | 6824m | -1.3m/s | -16.4°C | 83.5% | 435.9hPa | 2.7V | 00:00:00 | 00:00:00 | 00:00:00 | |
| SQ6EMJ | 2026-09-04 06:55:54 | 51.03238 | 16.98904 | 125° | 108km/h | 6825m | -1.3m/s | -16.4°C | 82.7% | 435.7hPa | 2.7V | 00:00:00 | 00:00:00 | 00:00:00 | |
| SQ6EMJ | 2026-09-04 06:55:49 | 51.03330 | 16.98691 | 126° | 106km/h | 6834m | -1.4m/s | -16.5°C | 82.9% | 435.3hPa | 2.7V | 00:00:00 | 00:00:00 | 00:00:00 | |
| OE3JTB-15 | 2026-09-04 06:55:43 | 51.03423 | 16.98490 | 127° | 100km/h | 6843m | -1.5m/s | -16.5°C | 86.3% | 434.8hPa | 2.7V | 00:00:00 | 00:00:00 | 00:00:00 | |
| SQ6EMJ | 2026-09-04 06:55:42 | 51.03423 | 16.98490 | 128° | 100km/h | 6843m | -1.6m/s | -16.5°C | 82.6% | 434.8hPa | 2.6V | 00:00:00 | 00:00:00 | 00:00:00 | |
| POL2MAQ | 2026-09-04 06:55:41 | 51.03438 | 16.98458 | 128° | 100km/h | 6844m | -1.4m/s | -16.6°C | 82.6% | 434.7hPa | 2.6V | 00:00:00 | 00:00:00 | 00:00:00 | |
| SQ6EMJ | 2026-09-04 06:55:37 | 51.03510 | 16.98298 | 125° | 97km/h | 6851m | -1.2m/s | -16.8°C | 83.6% | 434.4hPa | 2.6V | 00:00:00 | 00:00:00 | 00:00:00 | |
| POL1PZ | 2026-09-04 06:55:35 | 51.03523 | 16.98265 | 124° | 97km/h | 6852m | -1.5m/s | -16.8°C | 83.7% | 434.2hPa | 2.6V | 00:00:00 | 00:00:00 | 00:00:00 | |
| EDDB2-12 | 2026-09-04 06:55:31 | 51.03588 | 16.98101 | 121° | 97km/h | 6859m | -1.4m/s | -16.7°C | 81.1% | 433.8hPa | 2.6V | 00:00:00 | 00:00:00 | 00:00:00 | |
| SONDE2-11 | 2026-09-04 06:55:26 | 51.03651 | 16.97932 | 119° | 97km/h | 6867m | -1.5m/s | -16.8°C | 80.8% | 433.5hPa | 2.6V | 00:00:00 | 00:00:00 | 00:00:00 | |
| SQ6EMJ | 2026-09-04 06:55:25 | 51.03651 | 16.97932 | 121° | 99km/h | 6867m | -1.5m/s | -16.8°C | 80.8% | 433.5hPa | 2.6V | 00:00:00 | 00:00:00 | 00:00:00 | |
| SP6BVK | 2026-09-04 06:55:22 | 51.03688 | 16.97828 | 120° | 100km/h | 6871m | -1.4m/s | -16.7°C | 81.2% | 433.1hPa | 2.6V | 00:00:00 | 00:00:00 | 00:00:00 | |
| SP3BTT-10 | 2026-09-04 06:55:21 | 51.03713 | 16.97757 | 120° | 108km/h | 6874m | -1.6m/s | -16.7°C | 84.6% | 432.9hPa | 2.6V | 00:00:00 | 00:00:00 | 00:00:00 | |
| POL2MAQ | 2026-09-04 06:55:20 | 51.03713 | 16.97757 | 120° | 102km/h | 6874m | -1.6m/s | -16.7°C | 80.9% | 432.9hPa | 2.7V | 00:00:00 | 00:00:00 | 00:00:00 | |
| OE3JTB-15 | 2026-09-04 06:55:14 | 51.03804 | 16.97499 | 120° | 104km/h | 6887m | -1.6m/s | -16.7°C | 85.2% | 432.2hPa | 2.7V | 00:00:00 | 00:00:00 | 00:00:00 | |
| SQ6EMJ | 2026-09-04 06:55:13 | 51.03817 | 16.97462 | 120° | 108km/h | 6889m | -1.5m/s | -16.8°C | 81.2% | 432.2hPa | 2.7V | 00:00:00 | 00:00:00 | 00:00:00 | |
| EDDB2-11 | 2026-09-04 06:55:10 | 51.03857 | 16.97348 | 118° | 106km/h | 6894m | -1.7m/s | -16.8°C | 80.1% | 431.9hPa | 2.7V | 00:00:00 | 00:00:00 | 00:00:00 | |
| SP3WXH-11 | 2026-09-04 06:55:06 | 51.03909 | 16.97196 | 118° | 108km/h | 6901m | -1.8m/s | -16.9°C | 80.6% | 431.5hPa | 2.7V | 00:00:00 | 00:00:00 | 00:00:00 | |
| EDDB2-12 | 2026-09-04 06:55:00 | 51.03993 | 16.96967 | 122° | 111km/h | 6912m | -1.7m/s | -17.0°C | 81.1% | 430.8hPa | 2.7V | 00:00:00 | 00:00:00 | 00:00:00 | |
| SONDE2-11 | 2026-09-04 06:54:55 | 51.04071 | 16.96783 | 125° | 106km/h | 6920m | -1.4m/s | -17.1°C | 81.9% | 430.3hPa | 2.7V | 00:00:00 | 00:00:00 | 00:00:00 | |
| SQ6EMJ | 2026-09-04 06:54:54 | 51.04071 | 16.96783 | 126° | 106km/h | 6920m | -1.4m/s | -17.1°C | 81.9% | 430.3hPa | 2.7V | 00:00:00 | 00:00:00 | 00:00:00 | |
| POL1PZ | 2026-09-04 06:54:53 | 51.04087 | 16.96749 | 127° | 104km/h | 6921m | -1.3m/s | -17.2°C | 82.2% | 430.3hPa | 2.7V | 00:00:00 | 00:00:00 | 00:00:00 | |
| SP3BTT-10 | 2026-09-04 06:54:51 | 51.04130 | 16.96648 | 124° | 110km/h | 6926m | -1.5m/s | -17.3°C | 86.7% | 430.0hPa | 2.7V | 00:00:00 | 00:00:00 | 00:00:00 | |
| SQ6EMJ | 2026-09-04 06:54:48 | 51.04157 | 16.96580 | 122° | 99km/h | 6929m | -1.6m/s | -17.3°C | 82.7% | 429.8hPa | 2.7V | 00:00:00 | 00:00:00 | 00:00:00 | |
| SQ6EMJ | 2026-09-04 06:54:42 | 51.04231 | 16.96369 | 119° | 102km/h | 6939m | -1.8m/s | -17.3°C | 83.1% | 429.3hPa | 2.7V | 00:00:00 | 00:00:00 | 00:00:00 | |
| SP6BVK | 2026-09-04 06:54:40 | 51.04255 | 16.96296 | 118° | 102km/h | 6943m | -2.0m/s | -17.3°C | 83.4% | 429.0hPa | 2.7V | 00:00:00 | 00:00:00 | 00:00:00 | |
| EDDB2-11 | 2026-09-04 06:54:39 | 51.04279 | 16.96222 | 116° | 104km/h | 6947m | -2.1m/s | -17.4°C | 83.9% | 428.8hPa | 2.7V | 00:00:00 | 00:00:00 | 00:00:00 | |
| OE3JTB-15 | 2026-09-04 06:54:37 | 51.04303 | 16.96147 | 117° | 111km/h | 6951m | -1.9m/s | -17.4°C | 88.2% | 428.5hPa | 2.7V | 00:00:00 | 02:44:44 | 00:00:00 | |
| SQ6EMJ | 2026-09-04 06:54:36 | 51.04303 | 16.96147 | 118° | 106km/h | 6951m | -1.9m/s | -17.4°C | 84.3% | 428.5hPa | 2.7V | 00:00:00 | 00:00:00 | 00:00:00 | |
| SP3WXH-11 | 2026-09-04 06:54:35 | 51.04327 | 16.96070 | 117° | 108km/h | 6954m | -1.7m/s | -17.5°C | 84.3% | 428.3hPa | 2.7V | 00:00:00 | 00:00:00 | 00:00:00 | |
| POL1PZ | 2026-09-04 06:54:33 | 51.04340 | 16.96031 | 118° | 110km/h | 6956m | -1.5m/s | -17.5°C | 84.5% | 428.2hPa | 2.7V | 00:00:00 | 00:00:00 | 00:00:00 | |
| SQ6EMJ | 2026-09-04 06:54:30 | 51.04379 | 16.95914 | 120° | 110km/h | 6961m | -1.5m/s | -17.6°C | 84.7% | 428.0hPa | 2.7V | 00:00:00 | 00:00:00 | 00:00:00 | |
| EDDB2-12 | 2026-09-04 06:54:29 | 51.04407 | 16.95837 | 120° | 111km/h | 6964m | -1.8m/s | -17.6°C | 85.0% | 427.8hPa | 2.7V | 00:00:00 | 00:00:00 | 00:00:00 | |
| SONDE2-11 | 2026-09-04 06:54:24 | 51.04481 | 16.95644 | 122° | 111km/h | 6973m | -1.5m/s | -17.6°C | 85.3% | 427.3hPa | 2.7V | 00:00:00 | 00:00:00 | 00:00:00 | |
| SP3BTT-10 | 2026-09-04 06:54:21 | 51.04526 | 16.95529 | 122° | 113km/h | 6977m | -1.6m/s | -17.7°C | 89.4% | 427.0hPa | 2.7V | 00:00:00 | 00:00:00 | 00:00:00 | |
| SP6BVK | 2026-09-04 06:54:19 | 51.04541 | 16.95491 | 123° | 113km/h | 6979m | -1.6m/s | -17.7°C | 85.1% | 427.0hPa | 2.7V | 00:00:00 | 00:00:00 | 00:00:00 | |
| POL2MAQ | 2026-09-04 06:54:18 | 51.04556 | 16.95452 | 122° | 113km/h | 6981m | -1.5m/s | -17.7°C | 84.9% | 426.9hPa | 2.7V | 00:00:00 | 00:00:00 | 00:00:00 | |
| POL1PZ | 2026-09-04 06:54:13 | 51.04630 | 16.95259 | 123° | 113km/h | 6987m | -1.2m/s | -17.8°C | 86.9% | 426.5hPa | 2.7V | 00:00:00 | 00:00:00 | 00:00:00 | |
| SQ6EMJ | 2026-09-04 06:54:12 | 51.04645 | 16.95221 | 123° | 111km/h | 6988m | -1.2m/s | -17.9°C | 88.9% | 426.3hPa | 2.7V | 00:00:00 | 00:00:00 | 00:00:00 | |
| OE3JTB-15 | 2026-09-04 06:54:08 | 51.04722 | 16.95033 | 124° | 110km/h | 6995m | -1.0m/s | -17.8°C | 92.0% | 426.0hPa | 2.7V | 00:00:00 | 00:00:00 | 00:00:00 | |
| SQ6EMJ | 2026-09-04 06:54:07 | 51.04722 | 16.95033 | 124° | 111km/h | 6995m | -1.1m/s | -17.8°C | 87.9% | 426.1hPa | 2.7V | 00:00:00 | 00:00:00 | 00:00:00 | |
| SP3WXH-11 | 2026-09-04 06:54:04 | 51.04784 | 16.94887 | 124° | 108km/h | 6999m | -1.5m/s | -18.1°C | 90.4% | 425.8hPa | 2.7V | 00:00:00 | 00:00:00 | 00:00:00 | |
| EDDB2-12 | 2026-09-04 06:53:58 | 51.04875 | 16.94676 | 123° | 102km/h | 7008m | -1.5m/s | -18.2°C | 90.0% | 425.3hPa | 2.7V | 00:00:00 | 00:00:00 | 00:00:00 | |
| SONDE2-11 | 2026-09-04 06:53:53 | 51.04945 | 16.94503 | 120° | 100km/h | 7015m | -1.4m/s | -18.2°C | 89.8% | 424.9hPa | 2.7V | 00:00:00 | 00:00:00 | 00:00:00 | |
| POL1PZ | 2026-09-04 06:53:52 | 51.04945 | 16.94503 | 122° | 102km/h | 7016m | -1.4m/s | -18.2°C | 89.9% | 424.9hPa | 2.7V | 00:00:00 | 00:00:00 | 00:00:00 | |
| SQ6EMJ | 2026-09-04 06:53:50 | 51.04971 | 16.94432 | 121° | 102km/h | 7018m | -1.4m/s | -18.2°C | 89.6% | 424.7hPa | 2.7V | 00:00:00 | 00:00:00 | 00:00:00 | |
| SQ6EMJ | 2026-09-04 06:53:44 | 51.05047 | 16.94214 | 119° | 104km/h | 7027m | -1.5m/s | -18.1°C | 88.9% | 424.3hPa | 2.7V | 00:00:00 | 00:00:00 | 00:00:00 | |
| SQ6EMJ | 2026-09-04 06:53:39 | 51.05110 | 16.94026 | 119° | 106km/h | 7034m | -1.4m/s | -18.2°C | 88.2% | 423.8hPa | 2.7V | 00:00:00 | 00:00:00 | 00:00:00 | |
| EDDB2-11 | 2026-09-04 06:53:37 | 51.05187 | 16.93796 | 118° | 110km/h | 7042m | -1.4m/s | -18.3°C | 89.0% | 423.3hPa | 2.7V | 00:00:00 | 00:00:00 | 00:00:00 | |
| SP3WXH-11 | 2026-09-04 06:53:33 | 51.05200 | 16.93756 | 118° | 111km/h | 7044m | -1.5m/s | -18.3°C | 89.4% | 423.2hPa | 2.7V | 00:00:00 | 00:00:00 | 00:00:00 | |
| POL1PZ | 2026-09-04 06:53:31 | 51.05214 | 16.93717 | 119° | 111km/h | 7045m | -1.6m/s | -18.2°C | 84.9% | 423.1hPa | 2.7V | 00:00:00 | 00:00:00 | 00:00:00 | |
| SQ6EMJ | 2026-09-04 06:53:28 | 51.05254 | 16.93597 | 119° | 113km/h | 7050m | -1.6m/s | -18.2°C | 85.4% | 422.9hPa | 2.7V | 00:00:00 | 00:00:00 | 00:00:00 | |
| EDDB2-12 | 2026-09-04 06:53:27 | 51.05282 | 16.93516 | 118° | 113km/h | 7053m | -1.7m/s | -18.3°C | 85.5% | 422.8hPa | 2.7V | 00:00:00 | 00:00:00 | 00:00:00 | |
| SONDE2-11 | 2026-09-04 06:53:22 | 51.05354 | 16.93316 | 120° | 115km/h | 7061m | -1.6m/s | -18.4°C | 85.5% | 422.3hPa | 2.7V | 00:00:00 | 00:00:00 | 00:00:00 | |
| SP3BTT-10 | 2026-09-04 06:53:21 | 51.05369 | 16.93276 | 122° | 106km/h | 7063m | -1.5m/s | -18.3°C | 89.9% | 422.2hPa | 2.7V | 00:00:00 | 00:00:00 | 08:30:00 | |
| SP6BVK | 2026-09-04 06:53:18 | 51.05400 | 16.93199 | 123° | 113km/h | 7066m | -1.5m/s | -18.4°C | 85.5% | 422.0hPa | 2.6V | 00:00:00 | 00:00:00 | 00:00:00 | |
| POL2MAQ | 2026-09-04 06:53:16 | 51.05430 | 16.93123 | 124° | 111km/h | 7069m | -1.5m/s | -18.3°C | 85.4% | 421.8hPa | 2.6V | 00:00:00 | 00:00:00 | 00:00:00 | |
| SQ6EMJ | 2026-09-04 06:53:11 | 51.05521 | 16.92905 | 124° | 106km/h | 7077m | -1.5m/s | -18.6°C | 84.9% | 421.3hPa | 2.6V | 00:00:00 | 00:00:00 | 00:00:00 | |
| POL1PZ | 2026-09-04 06:53:10 | 51.05521 | 16.92905 | 124° | 106km/h | 7077m | -1.5m/s | -18.6°C | 84.9% | 421.3hPa | 2.6V | 00:00:00 | 00:00:00 | 00:00:00 | |
| SQ6EMJ | 2026-09-04 06:53:06 | 51.05592 | 16.92730 | 123° | 102km/h | 7085m | -1.4m/s | -18.7°C | 85.7% | 420.9hPa | 2.6V | 00:00:00 | 00:00:00 | 00:00:00 | |
| SP3WXH-11 | 2026-09-04 06:53:02 | 51.05644 | 16.92589 | 120° | 100km/h | 7090m | -1.4m/s | -18.7°C | 84.8% | 420.7hPa | 2.6V | 00:00:00 | 00:00:00 | 00:00:00 | |
| EDDB2-12 | 2026-09-04 06:52:56 | 51.05719 | 16.92373 | 117° | 102km/h | 7099m | -1.4m/s | -18.7°C | 84.2% | 420.2hPa | 2.6V | 00:00:00 | 00:00:00 | 00:00:00 | |
| SQ6EMJ | 2026-09-04 06:52:55 | 51.05732 | 16.92336 | 118° | 104km/h | 7100m | -1.4m/s | -18.7°C | 84.0% | 420.1hPa | 2.6V | 00:00:00 | 00:00:00 | 00:00:00 | |
| SP3BTT-10 | 2026-09-04 06:52:51 | 51.05780 | 16.92184 | 117° | 108km/h | 7106m | -1.4m/s | -18.6°C | 86.5% | 419.7hPa | 2.6V | 00:00:00 | 00:00:00 | 00:00:00 | |
| POL1PZ | 2026-09-04 06:52:50 | 51.05780 | 16.92184 | 118° | 108km/h | 7106m | -1.4m/s | -18.7°C | 82.4% | 419.8hPa | 2.6V | 00:00:00 | 00:00:00 | 00:00:00 | |
| SQ6EMJ | 2026-09-04 06:52:49 | 51.05805 | 16.92106 | 118° | 110km/h | 7109m | -1.4m/s | -18.7°C | 82.3% | 419.6hPa | 2.6V | 00:00:00 | 00:00:00 | 00:00:00 | |
| SQ6EMJ | 2026-09-04 06:52:37 | 51.05957 | 16.91669 | 122° | 113km/h | 7124m | -1.5m/s | -18.8°C | 83.1% | 418.8hPa | 2.6V | 00:00:00 | 00:00:00 | 00:00:00 | |
| EDDB2-11 | 2026-09-04 06:52:35 | 51.06002 | 16.91552 | 121° | 113km/h | 7128m | -1.5m/s | -18.8°C | 82.2% | 418.5hPa | 2.6V | 00:00:00 | 00:00:00 | 00:00:00 | |
| SP3WXH-11 | 2026-09-04 06:52:31 | 51.06078 | 16.91363 | 123° | 110km/h | 7135m | -1.4m/s | -18.8°C | 82.2% | 418.1hPa | 2.6V | 00:00:00 | 00:00:00 | 00:00:00 | |
| POL1PZ | 2026-09-04 06:52:29 | 51.06078 | 16.91363 | 124° | 110km/h | 7136m | -1.4m/s | -18.8°C | 82.2% | 418.1hPa | 2.6V | 00:00:00 | 00:00:00 | 00:00:00 | |
| KRY50SP-1 | 2026-09-04 06:52:27 | 51.06108 | 16.91290 | 124° | 108km/h | 7138m | -1.4m/s | -18.9°C | 81.9% | 418.0hPa | 2.6V | 00:00:00 | 00:00:00 | 00:00:00 | |
| SQ6EMJ | 2026-09-04 06:52:26 | 51.06123 | 16.91253 | 124° | 108km/h | 7140m | -1.4m/s | -18.9°C | 81.8% | 417.9hPa | 2.6V | 00:00:00 | 00:00:00 | 00:00:00 | |
| EDDB2-12 | 2026-09-04 06:52:25 | 51.06153 | 16.91182 | 123° | 104km/h | 7142m | -1.4m/s | -18.9°C | 81.6% | 417.7hPa | 2.6V | 00:00:00 | 00:00:00 | 00:00:00 | |
| OE3JTB-15 | 2026-09-04 06:52:21 | 51.06209 | 16.91041 | 122° | 108km/h | 7148m | -1.5m/s | -19.0°C | 87.0% | 417.3hPa | 2.6V | 00:00:00 | 00:00:00 | 00:00:00 | |
| SONDE2-11 | 2026-09-04 06:52:20 | 51.06223 | 16.91006 | 121° | 102km/h | 7150m | -1.5m/s | -19.1°C | 83.1% | 417.3hPa | 2.6V | 00:00:00 | 00:00:00 | 00:00:00 | |
| SP6BVK | 2026-09-04 06:52:17 | 51.06249 | 16.90935 | 121° | 102km/h | 7153m | -1.4m/s | -19.1°C | 83.4% | 417.1hPa | 2.6V | 00:00:00 | 00:00:00 | 00:00:00 | |
| KRY50SP-1 | 2026-09-04 06:52:16 | 51.06262 | 16.90900 | 121° | 102km/h | 7154m | -1.4m/s | -19.1°C | 83.1% | 417.0hPa | 2.6V | 00:00:00 | 00:00:00 | 00:00:00 | |
| POL2MAQ | 2026-09-04 06:52:15 | 51.06274 | 16.90864 | 120° | 102km/h | 7155m | -1.4m/s | -19.1°C | 83.4% | 417.0hPa | 2.6V | 00:00:00 | 00:00:00 | 00:00:00 | |
| KRY50SP-1 | 2026-09-04 06:52:10 | 51.06336 | 16.90683 | 119° | 104km/h | 7163m | -1.4m/s | -19.1°C | 83.1% | 416.5hPa | 2.6V | 00:00:00 | 00:00:00 | 00:00:00 | |
| POL1PZ | 2026-09-04 06:52:08 | 51.06360 | 16.90608 | 118° | 106km/h | 7166m | -1.5m/s | -19.1°C | 83.0% | 416.4hPa | 2.6V | 00:00:00 | 00:00:00 | 00:00:00 | |
| EDDB2-11 | 2026-09-04 06:52:04 | 51.06421 | 16.90416 | 116° | 108km/h | 7173m | -1.4m/s | -19.1°C | 82.5% | 415.9hPa | 2.6V | 00:00:00 | 00:00:00 | 00:00:00 | |
| SQ6EMJ | 2026-09-04 06:52:02 | 51.06433 | 16.90377 | 117° | 110km/h | 7175m | -1.5m/s | -19.1°C | 82.6% | 415.9hPa | 2.6V | 00:00:00 | 00:00:00 | 00:00:00 | |
| SP3WXH-11 | 2026-09-04 06:52:00 | 51.06484 | 16.90217 | 117° | 111km/h | 7180m | -1.5m/s | -19.2°C | 82.6% | 415.6hPa | 2.6V | 00:00:00 | 00:00:00 | 00:00:00 | |
| EDDB2-12 | 2026-09-04 06:51:54 | 51.06552 | 16.90015 | 119° | 113km/h | 7188m | -1.6m/s | -19.2°C | 82.1% | 415.2hPa | 2.6V | 00:00:00 | 00:00:00 | 00:00:00 | |
| SONDE2-11 | 2026-09-04 06:51:49 | 51.06625 | 16.89817 | 121° | 113km/h | 7196m | -1.6m/s | -19.3°C | 82.9% | 414.8hPa | 2.6V | 00:00:00 | 00:00:00 | 00:00:00 | |
| SQ6EMJ | 2026-09-04 06:51:47 | 51.06656 | 16.89740 | 123° | 113km/h | 7199m | -1.5m/s | -19.2°C | 82.7% | 414.6hPa | 2.6V | 00:00:00 | 00:00:00 | 00:00:00 | |
| KRY50SP-1 | 2026-09-04 06:51:46 | 51.06656 | 16.89740 | 123° | 113km/h | 7199m | -1.5m/s | -19.2°C | 82.7% | 414.6hPa | 2.6V | 00:00:00 | 00:00:00 | 00:00:00 | |
| SQ6EMJ | 2026-09-04 06:51:41 | 51.06747 | 16.89514 | 124° | 110km/h | 7208m | -1.4m/s | -19.4°C | 82.5% | 414.0hPa | 2.6V | 00:00:00 | 00:00:00 | 00:00:00 | |
| SQ6EMJ | 2026-09-04 06:51:36 | 51.06820 | 16.89334 | 124° | 104km/h | 7216m | -1.6m/s | -19.5°C | 83.3% | 413.5hPa | 2.6V | 00:00:00 | 00:00:00 | 00:00:00 | |
| KRY50SP-1 | 2026-09-04 06:51:35 | 51.06820 | 16.89334 | 124° | 104km/h | 7216m | -1.6m/s | -19.5°C | 83.3% | 413.5hPa | 2.6V | 00:00:00 | 00:00:00 | 00:00:00 | |
| POL2MAQ | 2026-09-04 06:51:34 | 51.06834 | 16.89299 | 123° | 104km/h | 7217m | -1.5m/s | -19.5°C | 83.3% | 413.6hPa | 2.6V | 00:00:00 | 00:00:00 | 00:00:00 | |
| EDDB2-11 | 2026-09-04 06:51:33 | 51.06862 | 16.89229 | 121° | 102km/h | 7220m | -1.5m/s | -19.5°C | 84.0% | 413.4hPa | 2.6V | 00:00:00 | 00:00:00 | 00:00:00 | |
| KRY50SP-1 | 2026-09-04 06:51:30 | 51.06889 | 16.89158 | 122° | 102km/h | 7223m | -1.6m/s | -19.6°C | 84.5% | 413.2hPa | 2.6V | 00:00:00 | 00:00:00 | 00:00:00 | |
| POL1PZ | 2026-09-04 06:51:26 | 51.06940 | 16.89017 | 120° | 102km/h | 7230m | -1.6m/s | -19.6°C | 85.1% | 412.9hPa | 2.6V | 00:00:00 | 00:00:00 | 00:00:00 | |
| KRY50SP-1 | 2026-09-04 06:51:24 | 51.06966 | 16.88946 | 120° | 102km/h | 7233m | -1.7m/s | -19.7°C | 85.5% | 412.7hPa | 2.6V | 00:00:00 | 00:00:00 | 00:00:00 | |
| OE3JTB-15 | 2026-09-04 06:51:23 | 51.06990 | 16.88874 | 118° | 108km/h | 7236m | -1.6m/s | -19.6°C | 89.6% | 412.4hPa | 2.6V | 00:00:00 | 00:00:00 | 08:30:00 | |
| SQ6EMJ | 2026-09-04 06:51:22 | 51.07002 | 16.88837 | 119° | 102km/h | 7238m | -1.5m/s | -19.6°C | 84.2% | 412.5hPa | 2.7V | 00:00:00 | 00:00:00 | 00:00:00 | |
| SP3BTT-10 | 2026-09-04 06:51:20 | 51.07025 | 16.88764 | 117° | 104km/h | 7241m | -1.6m/s | -19.5°C | 88.4% | 412.2hPa | 2.7V | 00:00:00 | 00:00:00 | 00:00:00 | |
| KRY50SP-1 | 2026-09-04 06:51:19 | 51.07025 | 16.88764 | 118° | 104km/h | 7241m | -1.6m/s | -19.6°C | 84.1% | 412.3hPa | 2.7V | 00:00:00 | 00:00:00 | 00:00:00 | |
| SONDE2-11 | 2026-09-04 06:51:18 | 51.07061 | 16.88650 | 116° | 106km/h | 7245m | -1.6m/s | -19.6°C | 83.3% | 411.9hPa | 2.7V | 00:00:00 | 00:00:00 | 00:00:00 | |
| SP6BVK | 2026-09-04 06:51:16 | 51.07061 | 16.88651 | 117° | 106km/h | 7246m | -1.6m/s | -19.6°C | 83.3% | 411.9hPa | 2.7V | 00:00:00 | 00:00:00 | 00:00:00 | |
| POL2MAQ | 2026-09-04 06:51:14 | 51.07097 | 16.88534 | 117° | 110km/h | 7250m | -1.6m/s | -19.6°C | 83.5% | 411.7hPa | 2.7V | 00:00:00 | 00:00:00 | 00:00:00 | |
| KRY50SP-1 | 2026-09-04 06:51:13 | 51.07097 | 16.88534 | 117° | 110km/h | 7250m | -1.6m/s | -19.6°C | 83.5% | 411.7hPa | 2.7V | 00:00:00 | 00:00:00 | 00:00:00 | |
| SQ6EMJ | 2026-09-04 06:51:11 | 51.07135 | 16.88414 | 118° | 111km/h | 7255m | -1.5m/s | -19.7°C | 83.6% | 411.5hPa | 2.7V | 00:00:00 | 00:00:00 | 00:00:00 | |
| KRY50SP-1 | 2026-09-04 06:51:08 | 51.07162 | 16.88334 | 119° | 113km/h | 7258m | -1.5m/s | -19.7°C | 84.1% | 411.3hPa | 2.7V | 00:00:00 | 00:00:00 | 00:00:00 | |
| SQ6EMJ | 2026-09-04 06:51:05 | 51.07218 | 16.88176 | 122° | 113km/h | 7264m | -1.6m/s | -19.8°C | 84.4% | 410.9hPa | 2.7V | 00:00:00 | 00:00:00 | 00:00:00 | |
| KRY50SP-1 | 2026-09-04 06:51:03 | 51.07247 | 16.88099 | 123° | 111km/h | 7267m | -1.5m/s | -19.9°C | 84.0% | 410.8hPa | 2.7V | 00:00:00 | 00:00:00 | 00:00:00 | |
| EDDB2-11 | 2026-09-04 06:51:02 | 51.07262 | 16.88062 | 122° | 110km/h | 7269m | -1.6m/s | -19.8°C | 84.0% | 410.7hPa | 2.7V | 00:00:00 | 00:00:00 | 00:00:00 | |
| SP3WXH-11 | 2026-09-04 06:50:58 | 51.07336 | 16.87880 | 122° | 104km/h | 7276m | -1.5m/s | -19.9°C | 83.5% | 410.3hPa | 2.7V | 00:00:00 | 00:00:00 | 00:00:00 | |
| EDDB2-12 | 2026-09-04 06:50:52 | 51.07406 | 16.87704 | 121° | 100km/h | 7284m | -1.6m/s | -20.0°C | 83.2% | 409.8hPa | 2.7V | 00:00:00 | 00:00:00 | 00:00:00 | |
| SONDE2-11 | 2026-09-04 06:50:47 | 51.07483 | 16.87495 | 118° | 99km/h | 7294m | -1.6m/s | -20.1°C | 83.7% | 409.2hPa | 2.7V | 00:00:00 | 00:00:00 | 00:00:00 | |
| KRY50SP-1 | 2026-09-04 06:50:46 | 51.07471 | 16.87531 | 120° | 100km/h | 7293m | -1.6m/s | -20.1°C | 83.0% | 409.4hPa | 2.7V | 00:00:00 | 00:00:00 | 00:00:00 | |
| POL1PZ | 2026-09-04 06:50:45 | 51.07483 | 16.87495 | 119° | 100km/h | 7294m | -1.6m/s | -20.1°C | 83.7% | 409.2hPa | 2.7V | 00:00:00 | 00:00:00 | 00:00:00 | |
| SQ6EMJ | 2026-09-04 06:50:41 | 51.07541 | 16.87315 | 117° | 102km/h | 7303m | -1.6m/s | -20.1°C | 84.3% | 408.8hPa | 2.7V | 00:00:00 | 00:00:00 | 00:00:00 | |
| KRY50SP-1 | 2026-09-04 06:50:39 | 51.07553 | 16.87279 | 117° | 102km/h | 7305m | -1.5m/s | -20.2°C | 84.6% | 408.7hPa | 2.7V | 00:00:00 | 00:00:00 | 00:00:00 | |
| SP3BTT-10 | 2026-09-04 06:50:35 | 51.07610 | 16.87089 | 116° | 108km/h | 7313m | -1.6m/s | -20.1°C | 88.3% | 408.2hPa | 2.7V | 00:00:00 | 00:00:00 | 00:00:00 | |
| KRY50SP-1 | 2026-09-04 06:50:33 | 51.07622 | 16.87050 | 117° | 108km/h | 7314m | -1.7m/s | -20.2°C | 83.8% | 408.2hPa | 2.7V | 00:00:00 | 00:00:00 | 00:00:00 | |
| POL2MAQ | 2026-09-04 06:50:32 | 51.07634 | 16.87011 | 117° | 110km/h | 7316m | -1.6m/s | -20.2°C | 83.6% | 408.1hPa | 2.7V | 00:00:00 | 00:00:00 | 00:00:00 | |
| EDDB2-11 | 2026-09-04 06:50:31 | 51.07658 | 16.86932 | 116° | 110km/h | 7319m | -1.5m/s | -20.2°C | 83.6% | 407.9hPa | 2.7V | 00:00:00 | 00:00:00 | 00:00:00 | |
| SQ6EMJ | 2026-09-04 06:50:29 | 51.07671 | 16.86892 | 118° | 111km/h | 7321m | -1.7m/s | -20.2°C | 83.5% | 407.8hPa | 2.7V | 00:00:00 | 00:00:00 | 00:00:00 | |
| KRY50SP-1 | 2026-09-04 06:50:26 | 51.07709 | 16.86773 | 118° | 111km/h | 7326m | -1.6m/s | -20.3°C | 84.5% | 407.5hPa | 2.7V | 00:00:00 | 00:00:00 | 00:00:00 | |
| OE3JTB-15 | 2026-09-04 06:50:25 | 51.07736 | 16.86693 | 119° | 108km/h | 7329m | -1.6m/s | -20.3°C | 90.0% | 407.4hPa | 2.7V | 00:00:00 | 02:40:32 | 00:00:00 | |
| POL1PZ | 2026-09-04 06:50:24 | 51.07735 | 16.86693 | 119° | 111km/h | 7329m | -1.6m/s | -20.3°C | 85.6% | 407.4hPa | 2.7V | 00:00:00 | 00:00:00 | 00:00:00 | |
| EDDB2-12 | 2026-09-04 06:50:21 | 51.07791 | 16.86535 | 119° | 111km/h | 7336m | -1.7m/s | -20.4°C | 83.6% | 407.0hPa | 2.7V | 00:00:00 | 00:00:00 | 00:00:00 | |
| SQ6EMJ | 2026-09-04 06:50:18 | 51.07819 | 16.86457 | 121° | 113km/h | 7339m | -1.6m/s | -20.3°C | 83.3% | 406.9hPa | 2.7V | 00:00:00 | 00:00:00 | 00:00:00 | |
| SONDE2-11 | 2026-09-04 06:50:16 | 51.07878 | 16.86303 | 121° | 110km/h | 7345m | -1.7m/s | -20.4°C | 84.8% | 406.5hPa | 2.7V | 00:00:00 | 00:00:00 | 00:00:00 | |
| SP6BVK | 2026-09-04 06:50:14 | 51.07878 | 16.86303 | 123° | 111km/h | 7345m | -1.7m/s | -20.4°C | 84.8% | 406.5hPa | 2.7V | 00:00:00 | 00:00:00 | 00:00:00 | |
| POL2MAQ | 2026-09-04 06:50:12 | 51.07907 | 16.86229 | 123° | 110km/h | 7349m | -1.6m/s | -20.4°C | 83.9% | 406.4hPa | 2.7V | 00:00:00 | 00:00:00 | 00:00:00 | |
| SQ6EMJ | 2026-09-04 06:50:09 | 51.07951 | 16.86119 | 123° | 106km/h | 7354m | -1.7m/s | -20.5°C | 83.6% | 406.0hPa | 2.7V | 00:00:00 | 00:00:00 | 00:00:00 | |
| SP3BTT-10 | 2026-09-04 06:50:05 | 51.08019 | 16.85942 | 122° | 110km/h | 7362m | -1.5m/s | -20.6°C | 89.5% | 405.6hPa | 2.7V | 00:00:00 | 00:00:00 | 00:00:00 | |
| SQ6EMJ | 2026-09-04 06:50:04 | 51.08019 | 16.85942 | 122° | 102km/h | 7362m | -1.6m/s | -20.6°C | 85.1% | 405.6hPa | 2.7V | 00:00:00 | 00:00:00 | 00:00:00 | |
| POL1PZ | 2026-09-04 06:50:03 | 51.08033 | 16.85908 | 122° | 102km/h | 7363m | -1.7m/s | -20.7°C | 85.0% | 405.5hPa | 2.7V | 00:00:00 | 00:00:00 | 00:00:00 | |
| EDDB2-11 | 2026-09-04 06:50:00 | 51.08084 | 16.85768 | 118° | 99km/h | 7370m | -1.5m/s | -20.7°C | 85.1% | 405.2hPa | 2.7V | 00:00:00 | 00:00:00 | 00:00:00 | |
| SP3WXH-11 | 2026-09-04 06:49:56 | 51.08143 | 16.85589 | 116° | 100km/h | 7378m | -1.6m/s | -20.7°C | 83.8% | 404.7hPa | 2.7V | 00:00:00 | 00:00:00 | 00:00:00 | |
| EDDB2-12 | 2026-09-04 06:49:50 | 51.08201 | 16.85400 | 115° | 106km/h | 7386m | -1.7m/s | -20.7°C | 83.3% | 404.2hPa | 2.7V | 00:00:00 | 00:00:00 | 00:00:00 | |
| KRY50SP-1 | 2026-09-04 06:49:48 | 51.08213 | 16.85361 | 117° | 108km/h | 7388m | -1.7m/s | -20.7°C | 83.1% | 404.1hPa | 2.7V | 00:00:00 | 00:00:00 | 00:00:00 | |
| SQ6EMJ | 2026-09-04 06:49:45 | 51.08249 | 16.85243 | 118° | 111km/h | 7393m | -1.6m/s | -20.8°C | 83.6% | 403.9hPa | 2.7V | 00:00:00 | 00:00:00 | 00:00:00 | |
| SONDE2-11 | 2026-09-04 06:49:44 | 51.08275 | 16.85163 | 117° | 111km/h | 7396m | -1.6m/s | -20.8°C | 84.2% | 403.7hPa | 2.7V | 00:00:00 | 00:00:00 | 00:00:00 | |
| POL1PZ | 2026-09-04 06:49:42 | 51.08288 | 16.85123 | 118° | 113km/h | 7398m | -1.7m/s | -20.9°C | 84.6% | 403.6hPa | 2.7V | 00:00:00 | 00:00:00 | 00:00:00 | |
| SQ6EMJ | 2026-09-04 06:49:39 | 51.08328 | 16.85002 | 119° | 113km/h | 7403m | -1.7m/s | -20.9°C | 84.4% | 403.3hPa | 2.7V | 00:00:00 | 00:00:00 | 00:00:00 | |
| KRY50SP-1 | 2026-09-04 06:49:36 | 51.08370 | 16.84882 | 120° | 115km/h | 7408m | -1.7m/s | -20.8°C | 83.2% | 403.0hPa | 2.7V | 00:00:00 | 00:00:00 | 00:00:00 | |
| SP3BTT-10 | 2026-09-04 06:49:35 | 51.08399 | 16.84802 | 121° | 102km/h | 7412m | -1.5m/s | -20.8°C | 87.6% | 402.8hPa | 2.7V | 00:00:00 | 00:00:00 | 00:00:00 | |
| SQ6EMJ | 2026-09-04 06:49:34 | 51.08399 | 16.84802 | 121° | 115km/h | 7412m | -1.6m/s | -20.9°C | 83.2% | 402.9hPa | 2.6V | 00:00:00 | 00:00:00 | 00:00:00 | |
| SP6BVK | 2026-09-04 06:49:33 | 51.08413 | 16.84763 | 121° | 113km/h | 7413m | -1.6m/s | -20.9°C | 83.8% | 402.7hPa | 2.6V | 00:00:00 | 00:00:00 | 00:00:00 | |
| KRY50SP-1 | 2026-09-04 06:49:31 | 51.08443 | 16.84684 | 122° | 113km/h | 7416m | -1.6m/s | -20.9°C | 83.3% | 402.6hPa | 2.6V | 00:00:00 | 00:00:00 | 00:00:00 | |
| POL2MAQ | 2026-09-04 06:49:30 | 51.08458 | 16.84646 | 122° | 111km/h | 7418m | -1.7m/s | -20.9°C | 82.6% | 402.5hPa | 2.6V | 00:00:00 | 00:00:00 | 00:00:00 | |
| EDDB2-11 | 2026-09-04 06:49:29 | 51.08487 | 16.84570 | 122° | 110km/h | 7421m | -1.6m/s | -20.9°C | 82.9% | 402.3hPa | 2.6V | 00:00:00 | 00:00:00 | 00:00:00 | |
| SP3WXH-11 | 2026-09-04 06:49:25 | 51.08546 | 16.84422 | 122° | 106km/h | 7427m | -1.6m/s | -21.0°C | 82.8% | 402.0hPa | 2.6V | 00:00:00 | 00:00:00 | 00:00:00 | |
| OE3JTB-15 | 2026-09-04 06:49:24 | 51.08561 | 16.84386 | 123° | 108km/h | 7429m | -1.6m/s | -20.9°C | 87.0% | 401.8hPa | 2.6V | 00:00:00 | 00:00:00 | 00:00:00 | |
| POL1PZ | 2026-09-04 06:49:21 | 51.08590 | 16.84315 | 124° | 104km/h | 7433m | -1.7m/s | -21.0°C | 82.9% | 401.7hPa | 2.6V | 00:00:00 | 00:00:00 | 00:00:00 | |
| KRY50SP-1 | 2026-09-04 06:49:20 | 51.08604 | 16.84280 | 124° | 104km/h | 7434m | -1.7m/s | -21.1°C | 83.3% | 401.6hPa | 2.6V | 00:00:00 | 00:00:00 | 00:00:00 | |
| EDDB2-12 | 2026-09-04 06:49:19 | 51.08631 | 16.84210 | 121° | 100km/h | 7438m | -1.7m/s | -21.1°C | 83.5% | 401.4hPa | 2.6V | 00:00:00 | 00:00:00 | 00:00:00 | |
| KRY50SP-1 | 2026-09-04 06:49:15 | 51.08670 | 16.84106 | 120° | 100km/h | 7443m | -1.8m/s | -21.2°C | 83.9% | 401.1hPa | 2.6V | 00:00:00 | 00:00:00 | 00:00:00 | |
| SONDE2-11 | 2026-09-04 06:49:14 | 51.08706 | 16.83999 | 116° | 100km/h | 7448m | -1.8m/s | -21.1°C | 83.2% | 400.9hPa | 2.6V | 00:00:00 | 00:00:00 | 00:00:00 | |
| SP6BVK | 2026-09-04 06:49:12 | 51.08706 | 16.83999 | 118° | 102km/h | 7448m | -1.8m/s | -21.1°C | 83.2% | 400.8hPa | 2.6V | 00:00:00 | 00:00:00 | 00:00:00 | |
| POL2MAQ | 2026-09-04 06:49:10 | 51.08729 | 16.83925 | 117° | 104km/h | 7452m | -1.8m/s | -21.1°C | 82.7% | 400.6hPa | 2.6V | 00:00:00 | 00:00:00 | 00:00:00 | |
| SQ6EMJ | 2026-09-04 06:49:09 | 51.08752 | 16.83849 | 117° | 106km/h | 7455m | -1.6m/s | -21.1°C | 82.0% | 400.4hPa | 2.6V | 00:00:00 | 00:00:00 | 00:00:00 | |
| KRY50SP-1 | 2026-09-04 06:49:05 | 51.08801 | 16.83691 | 118° | 111km/h | 7462m | -1.7m/s | -21.2°C | 82.8% | 400.1hPa | 2.6V | 00:00:00 | 00:00:00 | 00:00:00 | |
| SQ6EMJ | 2026-09-04 06:49:03 | 51.08827 | 16.83611 | 119° | 113km/h | 7465m | -1.7m/s | -21.3°C | 83.9% | 399.9hPa | 2.6V | 00:00:00 | 00:00:00 | 00:00:00 | |
| EDDB2-11 | 2026-09-04 06:48:58 | 51.08912 | 16.83377 | 121° | 108km/h | 7475m | -1.7m/s | -21.4°C | 84.3% | 399.4hPa | 2.6V | 00:00:00 | 00:00:00 | 00:00:00 | |
| SP3WXH-11 | 2026-09-04 06:48:54 | 51.08970 | 16.83232 | 122° | 104km/h | 7482m | -1.7m/s | -21.5°C | 83.7% | 399.1hPa | 2.6V | 00:00:00 | 00:00:00 | 00:00:00 | |
| EDDB2-12 | 2026-09-04 06:48:48 | 51.09052 | 16.83023 | 121° | 100km/h | 7492m | -1.7m/s | -21.5°C | 83.6% | 398.4hPa | 2.6V | 00:00:00 | 00:00:00 | 00:00:00 | |
| KRY50SP-1 | 2026-09-04 06:48:46 | 51.09052 | 16.83023 | 122° | 100km/h | 7492m | -1.7m/s | -21.5°C | 83.6% | 398.4hPa | 2.6V | 00:00:00 | 00:00:00 | 00:00:00 | |
| SQ6EMJ | 2026-09-04 06:48:45 | 51.09065 | 16.82988 | 122° | 100km/h | 7494m | -1.6m/s | -21.6°C | 83.9% | 398.4hPa | 2.6V | 00:00:00 | 00:00:00 | 00:00:00 | |
| SONDE2-11 | 2026-09-04 06:48:42 | 51.09117 | 16.82851 | 121° | 99km/h | 7501m | -1.7m/s | -21.5°C | 81.0% | 398.0hPa | 2.6V | 00:00:00 | 00:00:00 | 00:00:00 | |
| KRY50SP-1 | 2026-09-04 06:48:41 | 51.09118 | 16.82851 | 122° | 99km/h | 7501m | -1.7m/s | -21.5°C | 81.0% | 398.0hPa | 2.6V | 00:00:00 | 00:00:00 | 00:00:00 | |
| POL1PZ | 2026-09-04 06:48:40 | 51.09130 | 16.82817 | 122° | 99km/h | 7502m | -1.6m/s | -21.5°C | 80.8% | 397.9hPa | 2.6V | 00:00:00 | 00:00:00 | 00:00:00 | |
| SQ6EMJ | 2026-09-04 06:48:39 | 51.09143 | 16.82783 | 122° | 99km/h | 7504m | -1.6m/s | -21.5°C | 80.8% | 397.8hPa | 2.6V | 00:00:00 | 00:00:00 | 00:00:00 | |
| KRY50SP-1 | 2026-09-04 06:48:36 | 51.09181 | 16.82681 | 121° | 97km/h | 7509m | -1.8m/s | -21.6°C | 80.9% | 397.5hPa | 2.6V | 00:00:00 | 00:00:00 | 00:00:00 | |
| SP3BTT-10 | 2026-09-04 06:48:35 | 51.09205 | 16.82613 | 120° | 104km/h | 7512m | -1.7m/s | -21.6°C | 85.2% | 397.3hPa | 2.6V | 00:00:00 | 00:00:00 | 00:00:00 | |
| SQ6EMJ | 2026-09-04 06:48:34 | 51.09205 | 16.82613 | 120° | 97km/h | 7512m | -1.8m/s | -21.6°C | 80.9% | 397.3hPa | 2.6V | 00:00:00 | 00:00:00 | 00:00:00 | |
| SP6BVK | 2026-09-04 06:48:31 | 51.09240 | 16.82510 | 118° | 97km/h | 7518m | -1.6m/s | -21.6°C | 80.9% | 397.1hPa | 2.6V | 00:00:00 | 00:00:00 | 00:00:00 | |
| POL2MAQ | 2026-09-04 06:48:30 | 51.09251 | 16.82475 | 118° | 97km/h | 7520m | -1.7m/s | -21.6°C | 80.9% | 397.0hPa | 2.6V | 00:00:00 | 00:00:00 | 00:00:00 | |
| SQ6EMJ | 2026-09-04 06:48:29 | 51.09262 | 16.82440 | 117° | 99km/h | 7521m | -1.7m/s | -21.6°C | 80.4% | 396.9hPa | 2.6V | 00:00:00 | 00:00:00 | 00:00:00 | |
| EDDB2-11 | 2026-09-04 06:48:27 | 51.09305 | 16.82297 | 114° | 100km/h | 7528m | -1.8m/s | -21.5°C | 78.3% | 396.6hPa | 2.6V | 00:00:00 | 00:00:00 | 00:00:00 | |
| OE3JTB-15 | 2026-09-04 06:48:24 | 51.09326 | 16.82222 | 115° | 102km/h | 7532m | -1.7m/s | -21.5°C | 81.8% | 396.3hPa | 2.6V | 00:00:00 | 00:00:00 | 00:00:00 | |
| SP3WXH-11 | 2026-09-04 06:48:23 | 51.09348 | 16.82146 | 114° | 104km/h | 7535m | -1.6m/s | -21.5°C | 77.4% | 396.2hPa | 2.7V | 00:00:00 | 00:00:00 | 00:00:00 | |
| POL1PZ | 2026-09-04 06:48:20 | 51.09360 | 16.82107 | 116° | 106km/h | 7536m | -1.7m/s | -21.5°C | 77.6% | 396.0hPa | 2.7V | 00:00:00 | 00:00:00 | 00:00:00 | |
| SQ6EMJ | 2026-09-04 06:48:19 | 51.09383 | 16.82029 | 117° | 108km/h | 7540m | -1.7m/s | -21.6°C | 78.1% | 395.9hPa | 2.7V | 00:00:00 | 00:00:00 | 00:00:00 | |
| EDDB2-12 | 2026-09-04 06:48:17 | 51.09420 | 16.81913 | 117° | 108km/h | 7545m | -1.7m/s | -21.7°C | 79.1% | 395.6hPa | 2.7V | 00:00:00 | 00:00:00 | 00:00:00 | |
| KRY50SP-1 | 2026-09-04 06:48:14 | 51.09432 | 16.81874 | 119° | 110km/h | 7547m | -1.6m/s | -21.8°C | 79.3% | 395.5hPa | 2.7V | 00:00:00 | 00:00:00 | 00:00:00 | |
| SQ6EMJ | 2026-09-04 06:48:12 | 51.09459 | 16.81797 | 120° | 108km/h | 7550m | -1.7m/s | -21.8°C | 80.1% | 395.4hPa | 2.7V | 00:00:00 | 00:00:00 | 00:00:00 | |
| SONDE2-11 | 2026-09-04 06:48:11 | 51.09486 | 16.81722 | 120° | 106km/h | 7553m | -1.6m/s | -21.9°C | 80.1% | 395.1hPa | 2.7V | 00:00:00 | 00:00:00 | 00:00:00 | |
| SP6BVK | 2026-09-04 06:48:10 | 51.09486 | 16.81722 | 121° | 108km/h | 7553m | -1.6m/s | -21.9°C | 80.1% | 395.1hPa | 2.7V | 00:00:00 | 00:00:00 | 00:00:00 | |
| POL2MAQ | 2026-09-04 06:48:09 | 51.09500 | 16.81685 | 122° | 106km/h | 7555m | -1.7m/s | -21.8°C | 79.7% | 395.1hPa | 2.7V | 00:00:00 | 00:00:00 | 00:00:00 | |
| KRY50SP-1 | 2026-09-04 06:48:08 | 51.09514 | 16.81649 | 122° | 104km/h | 7557m | -1.7m/s | -21.8°C | 80.0% | 395.0hPa | 2.7V | 00:00:00 | 00:00:00 | 00:00:00 | |
| SQ6EMJ | 2026-09-04 06:48:07 | 51.09527 | 16.81613 | 123° | 104km/h | 7558m | -1.7m/s | -21.8°C | 79.9% | 394.9hPa | 2.7V | 00:00:00 | 00:00:00 | 00:00:00 | |
| SP3BTT-10 | 2026-09-04 06:48:05 | 51.09569 | 16.81509 | 123° | 106km/h | 7563m | -1.7m/s | -21.8°C | 84.5% | 394.5hPa | 2.7V | 00:00:00 | 00:00:00 | 00:00:00 | |
| KRY50SP-1 | 2026-09-04 06:48:02 | 51.09596 | 16.81441 | 123° | 99km/h | 7567m | -1.8m/s | -21.9°C | 80.0% | 394.4hPa | 2.7V | 00:00:00 | 00:00:00 | 00:00:00 | |
| EDDB2-11 | 2026-09-04 06:47:56 | 51.09694 | 16.81175 | 117° | 93km/h | 7581m | -1.7m/s | -22.1°C | 80.6% | 393.7hPa | 2.7V | 00:00:00 | 00:00:00 | 00:00:00 | |
| SP3WXH-11 | 2026-09-04 06:47:52 | 51.09738 | 16.81037 | 115° | 97km/h | 7588m | -1.7m/s | -22.1°C | 80.4% | 393.3hPa | 2.7V | 00:00:00 | 00:00:00 | 00:00:00 | |
| EDDB2-12 | 2026-09-04 06:47:46 | 51.09805 | 16.80815 | 116° | 106km/h | 7597m | -1.6m/s | -22.3°C | 81.0% | 392.8hPa | 2.7V | 00:00:00 | 00:00:00 | 00:00:00 | |
| KRY50SP-1 | 2026-09-04 06:47:45 | 51.09793 | 16.80853 | 117° | 106km/h | 7596m | -1.7m/s | -22.3°C | 80.8% | 392.9hPa | 2.7V | 00:00:00 | 00:00:00 | 00:00:00 | |
| SQ6EMJ | 2026-09-04 06:47:44 | 51.09818 | 16.80777 | 118° | 106km/h | 7599m | -1.7m/s | -22.3°C | 81.0% | 392.7hPa | 2.7V | 00:00:00 | 00:00:00 | 00:00:00 | |
| SONDE2-11 | 2026-09-04 06:47:40 | 51.09868 | 16.80623 | 118° | 108km/h | 7606m | -1.7m/s | -22.2°C | 80.9% | 392.4hPa | 2.7V | 00:00:00 | 00:00:00 | 00:00:00 | |
| KRY50SP-1 | 2026-09-04 06:47:39 | 51.09868 | 16.80623 | 120° | 110km/h | 7606m | -1.7m/s | -22.2°C | 81.0% | 392.4hPa | 2.7V | 00:00:00 | 00:00:00 | 00:00:00 | |
| POL1PZ | 2026-09-04 06:47:37 | 51.09895 | 16.80546 | 120° | 110km/h | 7609m | -1.7m/s | -22.3°C | 81.5% | 392.1hPa | 2.7V | 00:00:00 | 00:00:00 | 00:00:00 | |
| SP3BTT-10 | 2026-09-04 06:47:35 | 51.09936 | 16.80432 | 121° | 106km/h | 7615m | -1.6m/s | -22.2°C | 85.7% | 391.8hPa | 2.7V | 00:00:00 | 00:00:00 | 08:30:00 | |
| KRY50SP-1 | 2026-09-04 06:47:33 | 51.09951 | 16.80394 | 123° | 110km/h | 7616m | -1.8m/s | -22.2°C | 81.0% | 391.8hPa | 2.7V | 00:00:00 | 00:00:00 | 00:00:00 | |
| SP6BVK | 2026-09-04 06:47:29 | 51.10010 | 16.80249 | 125° | 106km/h | 7623m | -1.7m/s | -22.3°C | 80.8% | 391.5hPa | 2.7V | 00:00:00 | 00:00:00 | 00:00:00 | |
| POL2MAQ | 2026-09-04 06:47:28 | 51.10025 | 16.80214 | 125° | 104km/h | 7625m | -1.7m/s | -22.3°C | 80.8% | 391.3hPa | 2.7V | 00:00:00 | 00:00:00 | 00:00:00 | |
| KRY50SP-1 | 2026-09-04 06:47:27 | 51.10039 | 16.80179 | 125° | 102km/h | 7626m | -1.7m/s | -22.4°C | 80.7% | 391.2hPa | 2.7V | 00:00:00 | 00:00:00 | 00:00:00 | |
| OE3JTB-15 | 2026-09-04 06:47:26 | 51.10067 | 16.80113 | 124° | 104km/h | 7630m | -1.6m/s | -22.4°C | 84.9% | 391.0hPa | 2.7V | 00:00:00 | 02:37:33 | 00:00:00 | |
| KRY50SP-1 | 2026-09-04 06:47:22 | 51.10106 | 16.80015 | 121° | 95km/h | 7635m | -1.6m/s | -22.5°C | 80.8% | 390.8hPa | 2.7V | 00:00:00 | 00:00:00 | 00:00:00 | |
| SP3WXH-11 | 2026-09-04 06:47:21 | 51.10140 | 16.79914 | 116° | 97km/h | 7639m | -1.6m/s | -22.5°C | 79.6% | 390.5hPa | 2.7V | 00:00:00 | 00:00:00 | 00:00:00 | |
| EDDB2-12 | 2026-09-04 06:47:15 | 51.10212 | 16.79691 | 118° | 108km/h | 7650m | -1.8m/s | -22.5°C | 79.1% | 390.1hPa | 2.7V | 00:00:00 | 00:00:00 | 00:00:00 | |
| SQ6EMJ | 2026-09-04 06:47:12 | 51.10239 | 16.79615 | 121° | 110km/h | 7653m | -1.8m/s | -22.5°C | 79.5% | 389.9hPa | 2.7V | 00:00:00 | 00:00:00 | 00:00:00 | |
| KRY50SP-1 | 2026-09-04 06:47:10 | 51.10253 | 16.79577 | 122° | 110km/h | 7655m | -1.8m/s | -22.4°C | 79.4% | 389.8hPa | 2.7V | 00:00:00 | 00:00:00 | 00:00:00 | |
| SONDE2-11 | 2026-09-04 06:47:09 | 51.10282 | 16.79502 | 122° | 110km/h | 7658m | -1.8m/s | -22.5°C | 79.3% | 389.6hPa | 2.7V | 00:00:00 | 00:00:00 | 00:00:00 | |
| SP6BVK | 2026-09-04 06:47:08 | 51.10282 | 16.79502 | 123° | 110km/h | 7658m | -1.8m/s | -22.5°C | 79.3% | 389.6hPa | 2.7V | 00:00:00 | 00:00:00 | 00:00:00 | |
| POL2MAQ | 2026-09-04 06:47:07 | 51.10297 | 16.79465 | 124° | 110km/h | 7660m | -1.7m/s | -22.4°C | 78.7% | 389.4hPa | 2.7V | 00:00:00 | 00:00:00 | 00:00:00 | |
| SQ6EMJ | 2026-09-04 06:47:05 | 51.10327 | 16.79392 | 125° | 110km/h | 7663m | -1.7m/s | -22.5°C | 78.6% | 389.3hPa | 2.7V | 00:00:00 | 00:00:00 | 00:00:00 | |
| KRY50SP-1 | 2026-09-04 06:47:04 | 51.10342 | 16.79356 | 125° | 108km/h | 7665m | -1.7m/s | -22.5°C | 78.4% | 389.2hPa | 2.7V | 00:00:00 | 00:00:00 | 00:00:00 | |
| SP3WXH-11 | 2026-09-04 06:46:50 | 51.10556 | 16.78795 | 117° | 106km/h | 7692m | -1.7m/s | -22.7°C | 77.3% | 387.8hPa | 2.7V | 00:00:00 | 00:00:00 | 00:00:00 | |
| SP6BVK | 2026-09-04 06:46:47 | 51.10569 | 16.78757 | 119° | 110km/h | 7694m | -1.7m/s | -22.7°C | 77.3% | 387.7hPa | 2.7V | 00:00:00 | 00:00:00 | 00:00:00 | |
| POL2MAQ | 2026-09-04 06:46:46 | 51.10582 | 16.78718 | 120° | 110km/h | 7696m | -1.8m/s | -22.7°C | 77.2% | 387.6hPa | 2.7V | 00:00:00 | 00:00:00 | 00:00:00 | |
| EDDB2-12 | 2026-09-04 06:46:44 | 51.10638 | 16.78564 | 121° | 110km/h | 7702m | -1.7m/s | -22.7°C | 77.1% | 387.3hPa | 2.7V | 00:00:00 | 00:00:00 | 00:00:00 | |
| SQ6EMJ | 2026-09-04 06:46:42 | 51.10638 | 16.78564 | 123° | 111km/h | 7703m | -1.7m/s | -22.7°C | 77.2% | 387.3hPa | 2.7V | 00:00:00 | 00:00:00 | 00:00:00 | |
| KRY50SP-1 | 2026-09-04 06:46:40 | 51.10667 | 16.78489 | 124° | 110km/h | 7706m | -1.7m/s | -22.8°C | 77.5% | 387.0hPa | 2.7V | 00:00:00 | 00:00:00 | 00:00:00 | |
| SONDE2-11 | 2026-09-04 06:46:38 | 51.10713 | 16.78378 | 123° | 110km/h | 7711m | -1.6m/s | -22.8°C | 77.5% | 386.8hPa | 2.7V | 00:00:00 | 00:00:00 | 00:00:00 | |
| SQ6EMJ | 2026-09-04 06:46:37 | 51.10713 | 16.78378 | 124° | 110km/h | 7711m | -1.6m/s | -22.8°C | 77.5% | 386.8hPa | 2.7V | 00:00:00 | 00:00:00 | 00:00:00 | |
| SP3BTT-10 | 2026-09-04 06:46:35 | 51.10759 | 16.78268 | 125° | 111km/h | 7716m | -1.6m/s | -22.7°C | 81.5% | 386.4hPa | 2.7V | 00:00:00 | 00:00:00 | 00:00:00 | |
| POL1PZ | 2026-09-04 06:46:34 | 51.10759 | 16.78268 | 125° | 110km/h | 7716m | -1.7m/s | -22.8°C | 77.1% | 386.5hPa | 2.7V | 00:00:00 | 00:00:00 | 00:00:00 | |
| SQ6EMJ | 2026-09-04 06:46:31 | 51.10807 | 16.78160 | 127° | 110km/h | 7721m | -1.6m/s | -22.9°C | 77.2% | 386.3hPa | 2.7V | 00:00:00 | 00:00:00 | 00:00:00 | |
| KRY50SP-1 | 2026-09-04 06:46:30 | 51.10823 | 16.78124 | 127° | 108km/h | 7722m | -1.6m/s | -22.9°C | 77.6% | 386.2hPa | 2.7V | 00:00:00 | 00:00:00 | 00:00:00 | |
| OE3JTB-15 | 2026-09-04 06:46:28 | 51.10871 | 16.78022 | 127° | 108km/h | 7727m | -1.6m/s | -22.9°C | 81.9% | 385.9hPa | 2.7V | 00:00:00 | 00:00:00 | 00:00:00 | |
| SP6BVK | 2026-09-04 06:46:26 | 51.10887 | 16.77988 | 127° | 102km/h | 7729m | -1.7m/s | -23.0°C | 77.3% | 385.8hPa | 2.7V | 00:00:00 | 00:00:00 | 00:00:00 | |
| POL2MAQ | 2026-09-04 06:46:25 | 51.10902 | 16.77956 | 127° | 100km/h | 7730m | -1.7m/s | -23.0°C | 77.3% | 385.7hPa | 2.7V | 00:00:00 | 00:00:00 | 00:00:00 | |
| KRY50SP-1 | 2026-09-04 06:46:24 | 51.10917 | 16.77923 | 126° | 100km/h | 7732m | -1.5m/s | -23.0°C | 77.7% | 385.7hPa | 2.7V | 00:00:00 | 00:00:00 | 00:00:00 | |
| SQ6EMJ | 2026-09-04 06:46:22 | 51.10958 | 16.77822 | 123° | 100km/h | 7736m | -1.3m/s | -23.2°C | 79.7% | 385.5hPa | 2.7V | 00:00:00 | 00:00:00 | 00:00:00 | |
| KRY50SP-1 | 2026-09-04 06:46:18 | 51.10998 | 16.77715 | 121° | 104km/h | 7741m | -1.5m/s | -23.2°C | 78.6% | 385.2hPa | 2.7V | 00:00:00 | 00:00:00 | 00:00:00 | |
| SQ6EMJ | 2026-09-04 06:46:17 | 51.11025 | 16.77642 | 121° | 108km/h | 7744m | -1.7m/s | -23.2°C | 78.5% | 385.0hPa | 2.7V | 00:00:00 | 00:00:00 | 00:00:00 | |
| KRY50SP-1 | 2026-09-04 06:46:13 | 51.11067 | 16.77529 | 122° | 110km/h | 7749m | -1.5m/s | -23.2°C | 78.9% | 384.8hPa | 2.7V | 00:00:00 | 00:00:00 | 00:00:00 | |
| POL1PZ | 2026-09-04 06:46:12 | 51.11081 | 16.77491 | 122° | 110km/h | 7750m | -1.5m/s | -23.2°C | 78.9% | 384.7hPa | 2.7V | 00:00:00 | 00:00:00 | 00:00:00 | |
| SQ6EMJ | 2026-09-04 06:46:11 | 51.11096 | 16.77453 | 122° | 111km/h | 7752m | -1.7m/s | -23.2°C | 79.0% | 384.6hPa | 2.7V | 00:00:00 | 00:00:00 | 00:00:00 | |
| KRY50SP-1 | 2026-09-04 06:46:08 | 51.11139 | 16.77338 | 122° | 111km/h | 7757m | -1.8m/s | -23.2°C | 79.4% | 384.4hPa | 2.7V | 00:00:00 | 00:00:00 | 00:00:00 | |
| SONDE2-11 | 2026-09-04 06:46:07 | 51.11168 | 16.77261 | 120° | 111km/h | 7761m | -1.8m/s | -23.2°C | 79.4% | 384.1hPa | 2.7V | 00:00:00 | 00:00:00 | 00:00:00 | |
| SQ6EMJ | 2026-09-04 06:46:06 | 51.11182 | 16.77222 | 122° | 113km/h | 7763m | -1.8m/s | -23.3°C | 79.4% | 384.0hPa | 2.7V | 00:00:00 | 00:00:00 | 00:00:00 | |
| SP3BTT-10 | 2026-09-04 06:46:05 | 51.11197 | 16.77182 | 121° | 115km/h | 7764m | -1.7m/s | -23.2°C | 84.3% | 383.9hPa | 2.7V | 00:00:00 | 00:00:00 | 00:00:00 | |
| POL2MAQ | 2026-09-04 06:46:04 | 51.11197 | 16.77182 | 122° | 113km/h | 7764m | -1.7m/s | -23.3°C | 79.8% | 384.0hPa | 2.7V | 00:00:00 | 00:00:00 | 00:00:00 | |
| EDDB2-11 | 2026-09-04 06:45:51 | 51.11420 | 16.76673 | 124° | 100km/h | 7790m | -1.7m/s | -23.5°C | 79.8% | 382.6hPa | 2.7V | 00:00:00 | 00:00:00 | 00:00:00 | |
| SP3WXH-11 | 2026-09-04 06:45:47 | 51.11475 | 16.76535 | 120° | 104km/h | 7797m | -1.7m/s | -23.6°C | 78.8% | 382.3hPa | 2.7V | 00:00:00 | 00:00:00 | 00:00:00 | |
| KRY50SP-1 | 2026-09-04 06:45:46 | 51.11475 | 16.76535 | 122° | 104km/h | 7797m | -1.7m/s | -23.6°C | 78.8% | 382.3hPa | 2.7V | 00:00:00 | 00:00:00 | 00:00:00 | |
| SP6BVK | 2026-09-04 06:45:45 | 51.11489 | 16.76498 | 121° | 106km/h | 7799m | -1.7m/s | -23.6°C | 78.4% | 382.1hPa | 2.7V | 00:00:00 | 00:00:00 | 00:00:00 | |
| POL2MAQ | 2026-09-04 06:45:43 | 51.11516 | 16.76423 | 121° | 110km/h | 7802m | -1.7m/s | -23.6°C | 79.0% | 382.0hPa | 2.7V | 00:00:00 | 00:00:00 | 00:00:00 | |
| EDDB2-12 | 2026-09-04 06:45:42 | 51.11559 | 16.76307 | 120° | 111km/h | 7807m | -1.8m/s | -23.6°C | 79.0% | 381.7hPa | 2.7V | 00:00:00 | 00:00:00 | 00:00:00 | |
| KRY50SP-1 | 2026-09-04 06:45:40 | 51.11559 | 16.76307 | 122° | 113km/h | 7807m | -1.8m/s | -23.6°C | 79.0% | 381.7hPa | 2.7V | 00:00:00 | 00:00:00 | 00:00:00 | |
| SQ6EMJ | 2026-09-04 06:45:38 | 51.11603 | 16.76190 | 123° | 115km/h | 7813m | -1.7m/s | -23.6°C | 79.1% | 381.4hPa | 2.7V | 00:00:00 | 00:00:00 | 00:00:00 | |
| SONDE2-11 | 2026-09-04 06:45:36 | 51.11635 | 16.76112 | 122° | 115km/h | 7816m | -1.7m/s | -23.6°C | 79.2% | 381.3hPa | 2.7V | 00:00:00 | 00:00:00 | 00:00:00 | |
| SQ6EMJ | 2026-09-04 06:45:33 | 51.11683 | 16.75997 | 126° | 115km/h | 7821m | -1.7m/s | -23.6°C | 79.2% | 381.1hPa | 2.7V | 00:00:00 | 00:00:00 | 00:00:00 | |
| OE3JTB-15 | 2026-09-04 06:45:30 | 51.11734 | 16.75885 | 128° | 111km/h | 7826m | -1.6m/s | -23.7°C | 84.3% | 380.7hPa | 2.7V | 00:00:00 | 00:00:00 | 00:00:00 | |
| KRY50SP-1 | 2026-09-04 06:45:28 | 51.11752 | 16.75849 | 129° | 111km/h | 7828m | -1.7m/s | -23.7°C | 79.7% | 380.7hPa | 2.7V | 00:00:00 | 00:00:00 | 00:00:00 | |
| SQ6EMJ | 2026-09-04 06:45:27 | 51.11769 | 16.75814 | 129° | 110km/h | 7830m | -1.8m/s | -23.8°C | 79.6% | 380.6hPa | 2.7V | 00:00:00 | 00:00:00 | 00:00:00 | |
| KRY50SP-1 | 2026-09-04 06:45:24 | 51.11834 | 16.75678 | 126° | 102km/h | 7836m | -1.7m/s | -23.9°C | 81.0% | 380.2hPa | 2.7V | 00:00:00 | 00:00:00 | 00:00:00 | |
| POL2MAQ | 2026-09-04 06:45:23 | 51.11834 | 16.75678 | 126° | 102km/h | 7836m | -1.7m/s | -23.9°C | 81.0% | 380.2hPa | 2.7V | 00:00:00 | 00:00:00 | 00:00:00 | |
| SQ6EMJ | 2026-09-04 06:45:21 | 51.11862 | 16.75610 | 123° | 102km/h | 7840m | -1.7m/s | -24.0°C | 80.7% | 380.1hPa | 2.7V | 00:00:00 | 00:00:00 | 00:00:00 | |
| KRY50SP-1 | 2026-09-04 06:45:17 | 51.11917 | 16.75464 | 121° | 108km/h | 7847m | -1.7m/s | -23.9°C | 80.3% | 379.7hPa | 2.7V | 00:00:00 | 00:00:00 | 00:00:00 | |
| SQ6EMJ | 2026-09-04 06:45:16 | 51.11931 | 16.75426 | 121° | 110km/h | 7849m | -1.8m/s | -23.9°C | 79.9% | 379.6hPa | 2.7V | 00:00:00 | 00:00:00 | 00:00:00 | |
| KRY50SP-1 | 2026-09-04 06:45:12 | 51.11990 | 16.75270 | 123° | 115km/h | 7855m | -1.6m/s | -23.9°C | 80.8% | 379.2hPa | 2.7V | 00:00:00 | 00:00:00 | 00:00:00 | |
| SQ6EMJ | 2026-09-04 06:45:10 | 51.12022 | 16.75192 | 125° | 115km/h | 7859m | -1.8m/s | -24.0°C | 81.5% | 379.0hPa | 2.7V | 00:00:00 | 00:00:00 | 00:00:00 | |
| SP3BTT-10 | 2026-09-04 06:45:05 | 51.12125 | 16.74967 | 128° | 108km/h | 7869m | -1.8m/s | -24.1°C | 87.0% | 378.4hPa | 2.7V | 00:00:00 | 00:00:00 | 00:00:00 | |
| SP6BVK | 2026-09-04 06:45:03 | 51.12143 | 16.74930 | 129° | 115km/h | 7871m | -1.9m/s | -24.1°C | 82.4% | 378.4hPa | 2.6V | 00:00:00 | 00:00:00 | 00:00:00 | |
| POL2MAQ | 2026-09-04 06:45:02 | 51.12161 | 16.74895 | 130° | 113km/h | 7873m | -1.8m/s | -24.1°C | 82.6% | 378.3hPa | 2.6V | 00:00:00 | 00:00:00 | 00:00:00 | |
| EDDB2-11 | 2026-09-04 06:44:49 | 51.12380 | 16.74406 | 121° | 111km/h | 7898m | -1.9m/s | -24.4°C | 82.8% | 377.0hPa | 2.6V | 00:00:00 | 00:00:00 | 00:00:00 | |
| SP3WXH-11 | 2026-09-04 06:44:45 | 51.12443 | 16.74249 | 123° | 117km/h | 7905m | -1.9m/s | -24.4°C | 82.6% | 376.7hPa | 2.6V | 00:00:00 | 00:00:00 | 00:00:00 | |
| SP6BVK | 2026-09-04 06:44:43 | 51.12460 | 16.74210 | 126° | 119km/h | 7907m | -1.8m/s | -24.4°C | 82.4% | 376.5hPa | 2.6V | 00:00:00 | 00:00:00 | 00:00:00 | |
| SQ6EMJ | 2026-09-04 06:44:40 | 51.12530 | 16.74059 | 129° | 113km/h | 7915m | -1.8m/s | -24.4°C | 82.1% | 376.1hPa | 2.6V | 00:00:00 | 00:00:00 | 00:00:00 | |
| EDDB2-12 | 2026-09-04 06:44:39 | 51.12547 | 16.74023 | 128° | 110km/h | 7916m | -1.7m/s | -24.5°C | 82.5% | 376.0hPa | 2.6V | 00:00:00 | 00:00:00 | 00:00:00 | |
| KRY50SP-1 | 2026-09-04 06:44:37 | 51.12565 | 16.73989 | 129° | 110km/h | 7918m | -1.7m/s | -24.5°C | 82.8% | 375.9hPa | 2.6V | 00:00:00 | 00:00:00 | 00:00:00 | |
| SONDE2-11 | 2026-09-04 06:44:34 | 51.12630 | 16.73855 | 126° | 102km/h | 7925m | -1.8m/s | -24.6°C | 84.6% | 375.6hPa | 2.6V | 00:00:00 | 00:00:00 | 00:00:00 | |
| OE3JTB-15 | 2026-09-04 06:44:32 | 51.12660 | 16.73788 | 125° | 108km/h | 7929m | -1.7m/s | -24.6°C | 90.0% | 375.4hPa | 2.6V | 00:00:00 | 02:34:39 | 00:00:00 | |
| SQ6EMJ | 2026-09-04 06:44:29 | 51.12703 | 16.73684 | 123° | 104km/h | 7934m | -1.9m/s | -24.7°C | 84.9% | 375.1hPa | 2.6V | 00:00:00 | 00:00:00 | 00:00:00 | |
| KRY50SP-1 | 2026-09-04 06:44:27 | 51.12716 | 16.73649 | 123° | 104km/h | 7936m | -1.8m/s | -24.7°C | 84.8% | 375.1hPa | 2.6V | 00:00:00 | 00:00:00 | 00:00:00 | |
| POL1PZ | 2026-09-04 06:44:26 | 51.12730 | 16.73613 | 122° | 106km/h | 7938m | -1.9m/s | -24.6°C | 84.3% | 374.9hPa | 2.6V | 00:00:00 | 00:00:00 | 00:00:00 | |
| SQ6EMJ | 2026-09-04 06:44:23 | 51.12786 | 16.73464 | 122° | 111km/h | 7946m | -2.0m/s | -24.7°C | 84.2% | 374.6hPa | 2.6V | 00:00:00 | 00:00:00 | 00:00:00 | |
| POL2MAQ | 2026-09-04 06:44:21 | 51.12801 | 16.73425 | 122° | 113km/h | 7947m | -1.9m/s | -24.6°C | 83.5% | 374.4hPa | 2.6V | 00:00:00 | 00:00:00 | 00:00:00 | |
| EDDB2-11 | 2026-09-04 06:44:18 | 51.12864 | 16.73268 | 124° | 115km/h | 7955m | -1.8m/s | -24.7°C | 85.2% | 373.9hPa | 2.6V | 00:00:00 | 00:00:00 | 00:00:00 | |
| SQ6EMJ | 2026-09-04 06:44:17 | 51.12864 | 16.73268 | 125° | 117km/h | 7955m | -1.8m/s | -24.7°C | 85.2% | 373.9hPa | 2.6V | 00:00:00 | 00:00:00 | 00:00:00 | |
| KRY50SP-1 | 2026-09-04 06:44:16 | 51.12880 | 16.73230 | 126° | 117km/h | 7957m | -1.8m/s | -24.8°C | 85.7% | 374.0hPa | 2.6V | 00:00:00 | 00:00:00 | 00:00:00 | |
| SP3WXH-11 | 2026-09-04 06:44:14 | 51.12932 | 16.73120 | 127° | 110km/h | 7962m | -1.8m/s | -24.9°C | 83.7% | 373.7hPa | 2.6V | 00:00:00 | 00:00:00 | 00:00:00 | |
| KRY50SP-1 | 2026-09-04 06:44:11 | 51.12966 | 16.73051 | 129° | 108km/h | 7966m | -1.9m/s | -24.9°C | 82.6% | 373.5hPa | 2.6V | 00:00:00 | 00:00:00 | 00:00:00 | |
| EDDB2-12 | 2026-09-04 06:44:08 | 51.13030 | 16.72918 | 126° | 102km/h | 7973m | -1.9m/s | -24.9°C | 82.8% | 373.1hPa | 2.6V | 00:00:00 | 00:00:00 | 00:00:00 | |
| SQ6EMJ | 2026-09-04 06:44:07 | 51.13045 | 16.72885 | 126° | 102km/h | 7975m | -1.8m/s | -24.9°C | 82.6% | 373.0hPa | 2.6V | 00:00:00 | 00:00:00 | 00:00:00 | |
| SP3BTT-10 | 2026-09-04 06:44:05 | 51.13074 | 16.72817 | 124° | 110km/h | 7979m | -1.8m/s | -24.8°C | 87.1% | 372.8hPa | 2.6V | 00:00:00 | 00:00:00 | 00:00:00 | |
| POL1PZ | 2026-09-04 06:44:04 | 51.13074 | 16.72817 | 124° | 102km/h | 7979m | -1.8m/s | -24.9°C | 82.2% | 372.8hPa | 2.6V | 00:00:00 | 00:00:00 | 00:00:00 | |
| OE3JTB-15 | 2026-09-04 06:44:03 | 51.13102 | 16.72747 | 122° | 108km/h | 7983m | -1.8m/s | -24.8°C | 86.2% | 372.6hPa | 2.6V | 00:00:00 | 00:00:00 | 00:00:00 | |
| EDDB2-11 | 2026-09-04 06:43:47 | 51.13345 | 16.72143 | 127° | 110km/h | 8013m | -1.8m/s | -25.0°C | 79.9% | 371.1hPa | 2.7V | 00:00:00 | 00:00:00 | 00:00:00 | |
| POL1PZ | 2026-09-04 06:43:43 | 51.13395 | 16.72039 | 128° | 106km/h | 8018m | -1.8m/s | -25.2°C | 80.6% | 370.8hPa | 2.7V | 00:00:00 | 00:00:00 | 00:00:00 | |
| SQ6EMJ | 2026-09-04 06:43:42 | 51.13427 | 16.71971 | 127° | 104km/h | 8022m | -1.7m/s | -25.2°C | 80.9% | 370.6hPa | 2.7V | 00:00:00 | 00:00:00 | 00:00:00 | |
| POL2MAQ | 2026-09-04 06:43:40 | 51.13441 | 16.71937 | 126° | 102km/h | 8024m | -1.8m/s | -25.3°C | 81.1% | 370.5hPa | 2.7V | 00:00:00 | 00:00:00 | 00:00:00 | |
| KRY50SP-1 | 2026-09-04 06:43:37 | 51.13485 | 16.71834 | 124° | 102km/h | 8029m | -1.8m/s | -25.2°C | 80.9% | 370.3hPa | 2.7V | 00:00:00 | 00:00:00 | 00:00:00 | |
| SQ6EMJ | 2026-09-04 06:43:36 | 51.13499 | 16.71800 | 123° | 102km/h | 8031m | -1.8m/s | -25.3°C | 81.2% | 370.2hPa | 2.7V | 00:00:00 | 00:00:00 | 00:00:00 | |
| OE3JTB-15 | 2026-09-04 06:43:34 | 51.13540 | 16.71694 | 121° | 108km/h | 8036m | -1.8m/s | -25.1°C | 84.6% | 369.8hPa | 2.7V | 00:00:00 | 00:00:00 | 00:00:00 | |
| SONDE2-11 | 2026-09-04 06:43:32 | 51.13567 | 16.71621 | 119° | 104km/h | 8040m | -1.9m/s | -25.1°C | 78.4% | 369.7hPa | 2.7V | 00:00:00 | 00:00:00 | 00:00:00 | |
| SQ6EMJ | 2026-09-04 06:43:30 | 51.13580 | 16.71584 | 120° | 106km/h | 8042m | -1.9m/s | -25.1°C | 78.4% | 369.6hPa | 2.7V | 00:00:00 | 00:00:00 | 00:00:00 | |
| SQ6EMJ | 2026-09-04 06:43:26 | 51.13648 | 16.71390 | 122° | 115km/h | 8051m | -1.8m/s | -25.1°C | 76.9% | 369.1hPa | 2.7V | 00:00:00 | 00:00:00 | 00:00:00 | |
| POL1PZ | 2026-09-04 06:43:23 | 51.13679 | 16.71312 | 124° | 115km/h | 8055m | -2.0m/s | -25.2°C | 77.9% | 369.0hPa | 2.7V | 00:00:00 | 00:00:00 | 00:00:00 | |
| SP6BVK | 2026-09-04 06:43:21 | 51.13712 | 16.71235 | 127° | 115km/h | 8058m | -1.9m/s | -25.2°C | 77.3% | 368.8hPa | 2.7V | 00:00:00 | 00:00:00 | 00:00:00 | |
| SP3BTT-10 | 2026-09-04 06:43:20 | 51.13746 | 16.71162 | 128° | 106km/h | 8062m | -1.9m/s | -25.2°C | 81.2% | 368.5hPa | 2.7V | 00:00:00 | 00:00:00 | 00:00:00 | |
| POL2MAQ | 2026-09-04 06:43:19 | 51.13746 | 16.71162 | 128° | 111km/h | 8062m | -1.9m/s | -25.2°C | 76.5% | 368.6hPa | 2.7V | 00:00:00 | 00:00:00 | 00:00:00 | |
| SQ6EMJ | 2026-09-04 06:43:16 | 51.13812 | 16.71024 | 128° | 104km/h | 8070m | -2.0m/s | -25.4°C | 75.8% | 368.1hPa | 2.7V | 00:00:00 | 00:00:00 | 00:00:00 | |
| KRY50SP-1 | 2026-09-04 06:43:15 | 51.13812 | 16.71024 | 128° | 104km/h | 8070m | -2.0m/s | -25.4°C | 75.8% | 368.1hPa | 2.7V | 00:00:00 | 00:00:00 | 00:00:00 | |
| SP3WXH-11 | 2026-09-04 06:43:12 | 51.13872 | 16.70889 | 122° | 100km/h | 8078m | -1.9m/s | -25.3°C | 75.3% | 367.7hPa | 2.7V | 00:00:00 | 00:00:00 | 00:00:00 | |
| KRY50SP-1 | 2026-09-04 06:43:08 | 51.13912 | 16.70782 | 121° | 106km/h | 8084m | -2.0m/s | -25.3°C | 74.8% | 367.5hPa | 2.7V | 00:00:00 | 00:00:00 | 00:00:00 | |
| EDDB2-12 | 2026-09-04 06:43:06 | 51.13952 | 16.70668 | 119° | 110km/h | 8089m | -1.9m/s | -25.3°C | 73.9% | 367.2hPa | 2.7V | 00:00:00 | 00:00:00 | 00:00:00 | |
| OE3JTB-15 | 2026-09-04 06:43:05 | 51.13966 | 16.70629 | 120° | 108km/h | 8092m | -2.0m/s | -25.3°C | 78.3% | 367.0hPa | 2.7V | 00:00:00 | 02:33:12 | 00:00:00 | |
| POL1PZ | 2026-09-04 06:43:03 | 51.13980 | 16.70589 | 121° | 113km/h | 8093m | -1.8m/s | -25.3°C | 73.6% | 367.0hPa | 2.7V | 00:00:00 | 00:00:00 | 00:00:00 | |
| SONDE2-11 | 2026-09-04 06:43:01 | 51.14026 | 16.70470 | 122° | 115km/h | 8099m | -1.9m/s | -25.4°C | 73.6% | 366.7hPa | 2.7V | 00:00:00 | 00:00:00 | 00:00:00 | |
| EDDB2-11 | 2026-09-04 06:42:45 | 51.14277 | 16.69899 | 122° | 100km/h | 8130m | -2.0m/s | -25.6°C | 75.5% | 365.1hPa | 2.7V | 00:00:00 | 00:00:00 | 00:00:00 | |
| POL1PZ | 2026-09-04 06:42:42 | 51.14303 | 16.69830 | 122° | 102km/h | 8134m | -2.0m/s | -25.6°C | 75.1% | 364.9hPa | 2.7V | 00:00:00 | 00:00:00 | 00:00:00 | |
| SP3WXH-11 | 2026-09-04 06:42:41 | 51.14330 | 16.69759 | 119° | 104km/h | 8137m | -2.0m/s | -25.6°C | 74.4% | 364.7hPa | 2.7V | 00:00:00 | 00:00:00 | 00:00:00 | |
| KRY50SP-1 | 2026-09-04 06:42:40 | 51.14330 | 16.69759 | 121° | 104km/h | 8138m | -2.0m/s | -25.6°C | 74.4% | 364.7hPa | 2.7V | 00:00:00 | 00:00:00 | 00:00:00 | |
| POL2MAQ | 2026-09-04 06:42:38 | 51.14356 | 16.69685 | 120° | 108km/h | 8142m | -2.0m/s | -25.6°C | 74.3% | 364.6hPa | 2.7V | 00:00:00 | 00:00:00 | 00:00:00 | |
| OE3JTB-15 | 2026-09-04 06:42:36 | 51.14397 | 16.69569 | 120° | 110km/h | 8147m | -1.9m/s | -25.6°C | 80.5% | 364.2hPa | 2.7V | 00:00:00 | 00:00:00 | 08:30:00 | |
| SP3BTT-10 | 2026-09-04 06:42:35 | 51.14411 | 16.69529 | 121° | 111km/h | 8149m | -1.8m/s | -25.7°C | 81.1% | 364.2hPa | 2.6V | 00:00:00 | 00:00:00 | 00:00:00 | |
| SONDE2-11 | 2026-09-04 06:42:30 | 51.14507 | 16.69295 | 125° | 115km/h | 8160m | -2.0m/s | -25.7°C | 76.3% | 363.6hPa | 2.6V | 00:00:00 | 00:00:00 | 00:00:00 | |
| KRY50SP-1 | 2026-09-04 06:42:26 | 51.14541 | 16.69221 | 128° | 111km/h | 8164m | -1.9m/s | -25.8°C | 75.9% | 363.4hPa | 2.6V | 00:00:00 | 00:00:00 | 00:00:00 | |
| SQ6EMJ | 2026-09-04 06:42:25 | 51.14558 | 16.69185 | 128° | 110km/h | 8167m | -2.0m/s | -25.8°C | 76.4% | 363.3hPa | 2.6V | 00:00:00 | 00:00:00 | 00:00:00 | |
| POL1PZ | 2026-09-04 06:42:21 | 51.14620 | 16.69047 | 125° | 102km/h | 8174m | -1.9m/s | -26.0°C | 78.0% | 362.9hPa | 2.6V | 00:00:00 | 00:00:00 | 00:00:00 | |
| SP6BVK | 2026-09-04 06:42:19 | 51.14649 | 16.68979 | 123° | 102km/h | 8178m | -1.8m/s | -26.1°C | 78.2% | 362.7hPa | 2.6V | 00:00:00 | 00:00:00 | 00:00:00 | |
| POL2MAQ | 2026-09-04 06:42:18 | 51.14662 | 16.68944 | 123° | 102km/h | 8180m | -1.9m/s | -26.1°C | 77.9% | 362.7hPa | 2.6V | 00:00:00 | 00:00:00 | 00:00:00 | |
| KRY50SP-1 | 2026-09-04 06:42:16 | 51.14690 | 16.68872 | 122° | 106km/h | 8184m | -1.7m/s | -26.1°C | 77.2% | 362.4hPa | 2.6V | 00:00:00 | 00:00:00 | 00:00:00 | |
| EDDB2-11 | 2026-09-04 06:42:14 | 51.14731 | 16.68760 | 120° | 110km/h | 8189m | -1.9m/s | -26.1°C | 76.9% | 362.2hPa | 2.6V | 00:00:00 | 00:00:00 | 00:00:00 | |
| SP3WXH-11 | 2026-09-04 06:42:10 | 51.14788 | 16.68605 | 120° | 111km/h | 8196m | -1.9m/s | -26.1°C | 76.5% | 361.8hPa | 2.6V | 00:00:00 | 00:00:00 | 00:00:00 | |
| OE3JTB-15 | 2026-09-04 06:42:07 | 51.14832 | 16.68487 | 121° | 117km/h | 8202m | -1.8m/s | -26.1°C | 81.8% | 361.4hPa | 2.6V | 00:00:00 | 00:00:00 | 00:00:00 | |
| KRY50SP-1 | 2026-09-04 06:42:05 | 51.14861 | 16.68410 | 122° | 111km/h | 8206m | -2.0m/s | -26.2°C | 77.0% | 361.3hPa | 2.6V | 00:00:00 | 00:00:00 | 00:00:00 | |
| EDDB2-12 | 2026-09-04 06:42:04 | 51.14876 | 16.68371 | 120° | 111km/h | 8208m | -1.9m/s | -26.1°C | 76.5% | 361.2hPa | 2.6V | 00:00:00 | 00:00:00 | 00:00:00 | |
| SONDE2-11 | 2026-09-04 06:41:59 | 51.14964 | 16.68137 | 121° | 115km/h | 8219m | -1.9m/s | -26.2°C | 74.1% | 360.7hPa | 2.6V | 00:00:00 | 00:00:00 | 00:00:00 | |
| SP6BVK | 2026-09-04 06:41:58 | 51.14949 | 16.68176 | 122° | 115km/h | 8218m | -1.8m/s | -26.2°C | 74.9% | 360.8hPa | 2.6V | 00:00:00 | 00:00:00 | 00:00:00 | |
| POL2MAQ | 2026-09-04 06:41:57 | 51.14964 | 16.68137 | 123° | 115km/h | 8220m | -1.9m/s | -26.2°C | 74.1% | 360.7hPa | 2.6V | 00:00:00 | 00:00:00 | 00:00:00 | |
| KRY50SP-1 | 2026-09-04 06:41:53 | 51.15027 | 16.67978 | 124° | 117km/h | 8227m | -1.9m/s | -26.2°C | 74.6% | 360.3hPa | 2.6V | 00:00:00 | 00:00:00 | 00:00:00 | |
| KRY50SP-1 | 2026-09-04 06:41:47 | 51.15127 | 16.67741 | 126° | 119km/h | 8239m | -1.9m/s | -26.3°C | 74.4% | 359.7hPa | 2.6V | 00:00:00 | 00:00:00 | 00:00:00 | |
| EDDB2-11 | 2026-09-04 06:41:43 | 51.15215 | 16.67550 | 127° | 115km/h | 8248m | -2.0m/s | -26.3°C | 71.2% | 359.2hPa | 2.6V | 00:00:00 | 00:00:00 | 00:00:00 | |
| SQ6EMJ | 2026-09-04 06:41:42 | 51.15215 | 16.67550 | 128° | 115km/h | 8248m | -2.0m/s | -26.3°C | 71.2% | 359.2hPa | 2.6V | 00:00:00 | 00:00:00 | 00:00:00 | |
| KRY50SP-1 | 2026-09-04 06:41:41 | 51.15233 | 16.67514 | 129° | 113km/h | 8251m | -1.9m/s | -26.3°C | 70.7% | 359.1hPa | 2.6V | 00:00:00 | 00:00:00 | 00:00:00 | |
| POL1PZ | 2026-09-04 06:41:40 | 51.15250 | 16.67478 | 129° | 111km/h | 8252m | -1.9m/s | -26.3°C | 70.4% | 359.0hPa | 2.6V | 00:00:00 | 00:00:00 | 00:00:00 | |
| SP3WXH-11 | 2026-09-04 06:41:39 | 51.15285 | 16.67408 | 127° | 108km/h | 8256m | -2.0m/s | -26.4°C | 69.7% | 358.8hPa | 2.6V | 00:00:00 | 00:00:00 | 00:00:00 | |
| SP6BVK | 2026-09-04 06:41:38 | 51.15284 | 16.67408 | 129° | 108km/h | 8256m | -2.0m/s | -26.4°C | 69.7% | 358.8hPa | 2.6V | 00:00:00 | 00:00:00 | 00:00:00 | |
| SQ6EMJ | 2026-09-04 06:41:36 | 51.15333 | 16.67306 | 127° | 106km/h | 8262m | -1.9m/s | -26.4°C | 69.2% | 358.6hPa | 2.6V | 00:00:00 | 00:00:00 | 00:00:00 | |
| EDDB2-12 | 2026-09-04 06:41:33 | 51.15379 | 16.67202 | 123° | 104km/h | 8268m | -1.9m/s | -26.5°C | 69.0% | 358.2hPa | 2.6V | 00:00:00 | 00:00:00 | 00:00:00 | |
| SP3BTT-10 | 2026-09-04 06:41:32 | 51.15393 | 16.67166 | 123° | 119km/h | 8270m | -1.8m/s | -26.5°C | 72.5% | 358.1hPa | 2.6V | 00:00:00 | 00:00:00 | 00:00:00 | |
| KRY50SP-1 | 2026-09-04 06:41:30 | 51.15408 | 16.67129 | 123° | 110km/h | 8272m | -1.8m/s | -26.4°C | 66.9% | 358.0hPa | 2.6V | 00:00:00 | 00:00:00 | 00:00:00 | |
| SONDE2-11 | 2026-09-04 06:41:28 | 51.15469 | 16.66974 | 122° | 115km/h | 8280m | -2.0m/s | -26.5°C | 66.4% | 357.7hPa | 2.6V | 00:00:00 | 00:00:00 | 00:00:00 | |
| KRY50SP-1 | 2026-09-04 06:41:25 | 51.15484 | 16.66934 | 123° | 117km/h | 8281m | -2.0m/s | -26.4°C | 66.2% | 357.6hPa | 2.6V | 00:00:00 | 00:00:00 | 00:00:00 | |
| POL1PZ | 2026-09-04 06:41:20 | 51.15580 | 16.66695 | 124° | 119km/h | 8293m | -1.8m/s | -26.4°C | 66.0% | 357.0hPa | 2.6V | 00:00:00 | 00:00:00 | 00:00:00 | |
| SP6BVK | 2026-09-04 06:41:18 | 51.15597 | 16.66655 | 124° | 119km/h | 8295m | -1.7m/s | -26.4°C | 65.8% | 357.0hPa | 2.6V | 00:00:00 | 00:00:00 | 00:00:00 | |
| POL2MAQ | 2026-09-04 06:41:16 | 51.15630 | 16.66575 | 125° | 120km/h | 8298m | -1.8m/s | -26.5°C | 66.0% | 356.7hPa | 2.6V | 00:00:00 | 00:00:00 | 00:00:00 | |
| KRY50SP-1 | 2026-09-04 06:41:15 | 51.15647 | 16.66535 | 125° | 120km/h | 8300m | -1.9m/s | -26.5°C | 66.6% | 356.7hPa | 2.6V | 00:00:00 | 00:00:00 | 00:00:00 | |
| EDDB2-11 | 2026-09-04 06:41:12 | 51.15718 | 16.66374 | 125° | 122km/h | 8307m | -1.9m/s | -26.6°C | 66.8% | 356.3hPa | 2.6V | 00:00:00 | 00:00:00 | 00:00:00 | |
| OE3JTB-15 | 2026-09-04 06:41:11 | 51.15736 | 16.66333 | 126° | 117km/h | 8309m | -1.9m/s | -26.5°C | 71.6% | 356.1hPa | 2.6V | 00:00:00 | 02:31:18 | 00:00:00 | |
| KRY50SP-1 | 2026-09-04 06:41:09 | 51.15754 | 16.66293 | 128° | 122km/h | 8311m | -2.0m/s | -26.6°C | 67.2% | 356.1hPa | 2.6V | 00:00:00 | 00:00:00 | 00:00:00 | |
| SP3WXH-11 | 2026-09-04 06:41:08 | 51.15791 | 16.66215 | 127° | 120km/h | 8315m | -1.9m/s | -26.6°C | 67.5% | 355.8hPa | 2.6V | 00:00:00 | 00:00:00 | 00:00:00 | |
| SQ6EMJ | 2026-09-04 06:41:03 | 51.15866 | 16.66070 | 130° | 111km/h | 8323m | -2.0m/s | -26.8°C | 67.4% | 355.5hPa | 2.6V | 00:00:00 | 00:00:00 | 00:00:00 | |
| EDDB2-12 | 2026-09-04 06:41:02 | 51.15900 | 16.66000 | 127° | 108km/h | 8327m | -2.0m/s | -26.9°C | 67.9% | 355.3hPa | 2.6V | 00:00:00 | 00:00:00 | 00:00:00 | |
| SONDE2-11 | 2026-09-04 06:40:57 | 51.15994 | 16.65780 | 121° | 111km/h | 8338m | -1.9m/s | -26.9°C | 68.0% | 354.8hPa | 2.6V | 00:00:00 | 00:00:00 | 00:00:00 | |
| POL2MAQ | 2026-09-04 06:40:55 | 51.15994 | 16.65780 | 123° | 113km/h | 8338m | -1.9m/s | -26.9°C | 68.0% | 354.8hPa | 2.6V | 00:00:00 | 00:00:00 | 00:00:00 | |
| KRY50SP-1 | 2026-09-04 06:40:53 | 51.16024 | 16.65702 | 123° | 115km/h | 8342m | -2.1m/s | -26.9°C | 67.8% | 354.6hPa | 2.6V | 00:00:00 | 00:00:00 | 00:00:00 | |
| KRY50SP-1 | 2026-09-04 06:40:47 | 51.16119 | 16.65462 | 124° | 120km/h | 8354m | -1.7m/s | -27.0°C | 69.1% | 354.0hPa | 2.6V | 00:00:00 | 00:00:00 | 00:00:00 | |
| OE3JTB-15 | 2026-09-04 06:40:42 | 51.16223 | 16.65219 | 125° | 122km/h | 8365m | -2.0m/s | -27.1°C | 73.4% | 353.4hPa | 2.6V | 00:00:00 | 00:00:00 | 00:00:00 | |
| EDDB2-11 | 2026-09-04 06:40:41 | 51.16242 | 16.65178 | 125° | 122km/h | 8367m | -2.1m/s | -27.1°C | 68.3% | 353.3hPa | 2.6V | 00:00:00 | 00:00:00 | 00:00:00 | |
| POL1PZ | 2026-09-04 06:40:38 | 51.16277 | 16.65096 | 126° | 124km/h | 8371m | -2.0m/s | -27.1°C | 68.6% | 353.2hPa | 2.6V | 00:00:00 | 00:00:00 | 00:00:00 | |
| SP3WXH-11 | 2026-09-04 06:40:37 | 51.16313 | 16.65013 | 123° | 122km/h | 8375m | -1.8m/s | -27.2°C | 68.8% | 353.0hPa | 2.6V | 00:00:00 | 00:00:00 | 00:00:00 | |
| SP6BVK | 2026-09-04 06:40:36 | 51.16313 | 16.65014 | 125° | 124km/h | 8375m | -1.8m/s | -27.2°C | 68.8% | 353.0hPa | 2.6V | 00:00:00 | 00:00:00 | 00:00:00 | |
| POL2MAQ | 2026-09-04 06:40:34 | 51.16347 | 16.64930 | 124° | 122km/h | 8379m | -1.9m/s | -27.2°C | 69.0% | 352.8hPa | 2.6V | 00:00:00 | 00:00:00 | 00:00:00 | |
| KRY50SP-1 | 2026-09-04 06:40:33 | 51.16364 | 16.64889 | 124° | 122km/h | 8380m | -2.0m/s | -27.2°C | 68.8% | 352.7hPa | 2.6V | 00:00:00 | 00:00:00 | 00:00:00 | |
| EDDB2-12 | 2026-09-04 06:40:31 | 51.16413 | 16.64767 | 122° | 119km/h | 8386m | -1.9m/s | -27.3°C | 70.1% | 352.5hPa | 2.6V | 00:00:00 | 00:00:00 | 00:00:00 | |
| KRY50SP-1 | 2026-09-04 06:40:27 | 51.16463 | 16.64644 | 124° | 120km/h | 8392m | -2.0m/s | -27.4°C | 70.1% | 352.2hPa | 2.6V | 00:00:00 | 00:00:00 | 00:00:00 | |
| SONDE2-11 | 2026-09-04 06:40:26 | 51.16513 | 16.64521 | 123° | 122km/h | 8398m | -1.9m/s | -27.3°C | 69.2% | 351.9hPa | 2.6V | 00:00:00 | 00:00:00 | 00:00:00 | |
| SP3BTT-10 | 2026-09-04 06:40:20 | 51.16600 | 16.64313 | 125° | 119km/h | 8408m | -1.9m/s | -27.4°C | 75.1% | 351.3hPa | 2.6V | 00:00:00 | 00:00:00 | 08:30:00 | |
| POL1PZ | 2026-09-04 06:40:18 | 51.16618 | 16.64271 | 126° | 126km/h | 8409m | -1.9m/s | -27.4°C | 70.7% | 351.3hPa | 2.6V | 00:00:00 | 00:00:00 | 00:00:00 | |
| KRY50SP-1 | 2026-09-04 06:40:17 | 51.16636 | 16.64229 | 126° | 128km/h | 8412m | -2.0m/s | -27.4°C | 70.3% | 351.2hPa | 2.6V | 00:00:00 | 00:00:00 | 00:00:00 | |
| SP6BVK | 2026-09-04 06:40:16 | 51.16655 | 16.64187 | 127° | 128km/h | 8413m | -1.9m/s | -27.4°C | 70.2% | 351.1hPa | 2.6V | 00:00:00 | 00:00:00 | 00:00:00 | |
| OE3JTB-15 | 2026-09-04 06:40:13 | 51.16733 | 16.64024 | 129° | 120km/h | 8421m | -1.8m/s | -27.5°C | 75.3% | 350.6hPa | 2.6V | 00:00:00 | 00:00:00 | 00:00:00 | |
| EDDB2-11 | 2026-09-04 06:40:10 | 51.16792 | 16.63910 | 129° | 119km/h | 8427m | -1.9m/s | -27.6°C | 70.7% | 350.5hPa | 2.6V | 00:00:00 | 00:00:00 | 00:00:00 | |
| KRY50SP-1 | 2026-09-04 06:40:08 | 51.16810 | 16.63873 | 130° | 117km/h | 8429m | -1.9m/s | -27.6°C | 70.6% | 350.4hPa | 2.6V | 00:00:00 | 00:00:00 | 00:00:00 | |
| SP3WXH-11 | 2026-09-04 06:40:06 | 51.16864 | 16.63764 | 126° | 111km/h | 8434m | -1.9m/s | -27.7°C | 71.6% | 350.1hPa | 2.6V | 00:00:00 | 00:00:00 | 00:00:00 | |
| KRY50SP-1 | 2026-09-04 06:40:02 | 51.16913 | 16.63653 | 125° | 113km/h | 8440m | -1.9m/s | -27.8°C | 71.1% | 349.8hPa | 2.6V | 00:00:00 | 00:00:00 | 00:00:00 | |
| EDDB2-12 | 2026-09-04 06:40:00 | 51.16960 | 16.63537 | 121° | 115km/h | 8446m | -1.9m/s | -27.8°C | 70.7% | 349.6hPa | 2.6V | 00:00:00 | 00:00:00 | 00:00:00 | |
| SONDE2-11 | 2026-09-04 06:39:55 | 51.17060 | 16.63290 | 125° | 124km/h | 8457m | -1.9m/s | -27.9°C | 71.9% | 349.0hPa | 2.6V | 00:00:00 | 00:00:00 | 00:00:00 | |
| POL2MAQ | 2026-09-04 06:39:54 | 51.17060 | 16.63290 | 126° | 126km/h | 8457m | -1.9m/s | -27.9°C | 71.9% | 349.0hPa | 2.6V | 00:00:00 | 00:00:00 | 00:00:00 | |
| KRY50SP-1 | 2026-09-04 06:39:50 | 51.17117 | 16.63168 | 128° | 124km/h | 8463m | -1.9m/s | -27.9°C | 72.3% | 348.7hPa | 2.6V | 00:00:00 | 00:00:00 | 00:00:00 | |
| KRY50SP-1 | 2026-09-04 06:39:44 | 51.17233 | 16.62937 | 131° | 120km/h | 8474m | -1.9m/s | -27.9°C | 72.3% | 348.1hPa | 2.6V | 00:00:00 | 00:00:00 | 00:00:00 | |
| EDDB2-11 | 2026-09-04 06:39:39 | 51.17344 | 16.62721 | 128° | 110km/h | 8486m | -2.0m/s | -28.2°C | 73.5% | 347.6hPa | 2.6V | 00:00:00 | 00:00:00 | 00:00:00 | |
| POL1PZ | 2026-09-04 06:39:36 | 51.17378 | 16.62651 | 127° | 110km/h | 8490m | -2.0m/s | -28.2°C | 72.6% | 347.3hPa | 2.6V | 00:00:00 | 00:00:00 | 00:00:00 | |
| SP3WXH-11 | 2026-09-04 06:39:35 | 51.17410 | 16.62578 | 123° | 110km/h | 8494m | -2.0m/s | -28.2°C | 72.5% | 347.2hPa | 2.6V | 00:00:00 | 00:00:00 | 00:00:00 | |
| POL2MAQ | 2026-09-04 06:39:33 | 51.17425 | 16.62540 | 124° | 113km/h | 8496m | -1.8m/s | -28.1°C | 72.1% | 347.1hPa | 2.6V | 00:00:00 | 00:00:00 | 00:00:00 | |
| EDDB2-12 | 2026-09-04 06:39:29 | 51.17508 | 16.62340 | 124° | 122km/h | 8505m | -1.9m/s | -28.4°C | 75.0% | 346.6hPa | 2.6V | 00:00:00 | 00:00:00 | 00:00:00 | |
| KRY50SP-1 | 2026-09-04 06:39:27 | 51.17526 | 16.62299 | 126° | 124km/h | 8507m | -1.8m/s | -28.4°C | 75.3% | 346.6hPa | 2.6V | 00:00:00 | 00:00:00 | 00:00:00 | |
| SONDE2-11 | 2026-09-04 06:39:24 | 51.17619 | 16.62098 | 127° | 122km/h | 8516m | -1.8m/s | -28.5°C | 74.8% | 346.1hPa | 2.6V | 00:00:00 | 00:00:00 | 00:00:00 | |
| KRY50SP-1 | 2026-09-04 06:39:22 | 51.17619 | 16.62098 | 128° | 124km/h | 8517m | -1.8m/s | -28.5°C | 74.8% | 346.1hPa | 2.6V | 00:00:00 | 00:00:00 | 00:00:00 | |
| SP3BTT-10 | 2026-09-04 06:39:20 | 51.17676 | 16.61981 | 129° | 119km/h | 8522m | -1.7m/s | -28.4°C | 79.8% | 345.8hPa | 2.6V | 00:00:00 | 00:00:00 | 00:00:00 | |
| KRY50SP-1 | 2026-09-04 06:39:16 | 51.17733 | 16.61866 | 130° | 120km/h | 8527m | -1.7m/s | -28.4°C | 74.8% | 345.6hPa | 2.6V | 00:00:00 | 00:00:00 | 00:00:00 | |
| SP6BVK | 2026-09-04 06:39:15 | 51.17753 | 16.61828 | 130° | 120km/h | 8529m | -1.6m/s | -28.5°C | 74.6% | 345.5hPa | 2.6V | 00:00:00 | 00:00:00 | 00:00:00 | |
| POL2MAQ | 2026-09-04 06:39:12 | 51.17811 | 16.61714 | 130° | 122km/h | 8534m | -1.8m/s | -28.4°C | 74.8% | 345.3hPa | 2.6V | 00:00:00 | 00:00:00 | 00:00:00 | |
| KRY50SP-1 | 2026-09-04 06:39:10 | 51.17850 | 16.61638 | 131° | 120km/h | 8538m | -1.7m/s | -28.4°C | 74.1% | 345.1hPa | 2.6V | 00:00:00 | 00:00:00 | 00:00:00 | |
| EDDB2-11 | 2026-09-04 06:39:08 | 51.17909 | 16.61528 | 130° | 117km/h | 8543m | -1.7m/s | -28.4°C | 71.1% | 344.8hPa | 2.6V | 00:00:00 | 00:00:00 | 00:00:00 | |
| SP3WXH-11 | 2026-09-04 06:39:04 | 51.17985 | 16.61386 | 130° | 111km/h | 8550m | -1.8m/s | -28.5°C | 69.5% | 344.5hPa | 2.6V | 00:00:00 | 00:00:00 | 00:00:00 | |
| EDDB2-12 | 2026-09-04 06:38:58 | 51.18087 | 16.61175 | 124° | 110km/h | 8561m | -1.9m/s | -28.5°C | 67.3% | 344.0hPa | 2.6V | 00:00:00 | 00:00:00 | 00:00:00 | |
| POL1PZ | 2026-09-04 06:38:55 | 51.18119 | 16.61100 | 124° | 113km/h | 8565m | -1.8m/s | -28.5°C | 66.7% | 343.7hPa | 2.6V | 00:00:00 | 00:00:00 | 00:00:00 | |
| SP6BVK | 2026-09-04 06:38:54 | 51.18135 | 16.61062 | 124° | 115km/h | 8567m | -1.7m/s | -28.6°C | 66.9% | 343.6hPa | 2.6V | 00:00:00 | 00:00:00 | 00:00:00 | |
| SQ6EMJ | 2026-09-04 06:38:52 | 51.18184 | 16.60943 | 125° | 120km/h | 8572m | -1.8m/s | -28.7°C | 67.2% | 343.4hPa | 2.6V | 00:00:00 | 00:00:00 | 00:00:00 | |
| SQ6EMJ | 2026-09-04 06:38:46 | 51.18295 | 16.60703 | 128° | 124km/h | 8583m | -1.8m/s | -28.6°C | 67.3% | 342.9hPa | 2.6V | 00:00:00 | 00:00:00 | 00:00:00 | |
| OE3JTB-15 | 2026-09-04 06:38:45 | 51.18314 | 16.60664 | 128° | 119km/h | 8584m | -1.7m/s | -28.5°C | 72.1% | 342.7hPa | 2.6V | 00:00:00 | 02:28:52 | 00:00:00 | |
| KRY50SP-1 | 2026-09-04 06:38:41 | 51.18372 | 16.60546 | 130° | 124km/h | 8590m | -1.7m/s | -28.7°C | 67.8% | 342.6hPa | 2.6V | 00:00:00 | 00:00:00 | 00:00:00 | |
| SQ6EMJ | 2026-09-04 06:38:39 | 51.18412 | 16.60467 | 130° | 124km/h | 8594m | -1.9m/s | -28.7°C | 67.9% | 342.4hPa | 2.6V | 00:00:00 | 00:00:00 | 00:00:00 | |
| EDDB2-11 | 2026-09-04 06:38:37 | 51.18472 | 16.60352 | 130° | 122km/h | 8599m | -1.8m/s | -28.8°C | 68.3% | 342.1hPa | 2.6V | 00:00:00 | 00:00:00 | 00:00:00 | |
| KRY50SP-1 | 2026-09-04 06:38:36 | 51.18472 | 16.60352 | 131° | 124km/h | 8599m | -1.8m/s | -28.8°C | 68.3% | 342.1hPa | 2.6V | 00:00:00 | 00:00:00 | 00:00:00 | |
| POL1PZ | 2026-09-04 06:38:34 | 51.18513 | 16.60277 | 133° | 122km/h | 8603m | -1.9m/s | -28.8°C | 68.2% | 342.0hPa | 2.6V | 00:00:00 | 00:00:00 | 00:00:00 | |
| SP3WXH-11 | 2026-09-04 06:38:33 | 51.18553 | 16.60205 | 132° | 119km/h | 8606m | -1.9m/s | -28.9°C | 68.9% | 341.8hPa | 2.6V | 00:00:00 | 00:00:00 | 00:00:00 | |
| POL2MAQ | 2026-09-04 06:38:31 | 51.18573 | 16.60169 | 133° | 119km/h | 8608m | -1.8m/s | -28.9°C | 68.8% | 341.6hPa | 2.6V | 00:00:00 | 00:00:00 | 00:00:00 | |
| KRY50SP-1 | 2026-09-04 06:38:30 | 51.18593 | 16.60135 | 133° | 117km/h | 8610m | -1.9m/s | -28.9°C | 69.0% | 341.6hPa | 2.6V | 00:00:00 | 00:00:00 | 00:00:00 | |
| EDDB2-12 | 2026-09-04 06:38:27 | 51.18670 | 16.59998 | 130° | 110km/h | 8617m | -1.9m/s | -29.0°C | 69.1% | 341.2hPa | 2.6V | 00:00:00 | 00:00:00 | 00:00:00 | |
| KRY50SP-1 | 2026-09-04 06:38:25 | 51.18688 | 16.59964 | 131° | 110km/h | 8619m | -1.7m/s | -29.0°C | 69.0% | 341.1hPa | 2.6V | 00:00:00 | 00:00:00 | 00:00:00 | |
| SQ6EMJ | 2026-09-04 06:38:24 | 51.18705 | 16.59929 | 130° | 110km/h | 8621m | -1.8m/s | -29.0°C | 68.9% | 341.1hPa | 2.6V | 00:00:00 | 00:00:00 | 00:00:00 | |
| SP3BTT-10 | 2026-09-04 06:38:19 | 51.18807 | 16.59713 | 126° | 119km/h | 8632m | -1.6m/s | -29.0°C | 73.1% | 340.5hPa | 2.6V | 00:00:00 | 00:00:00 | 00:00:00 | |
| OE3JTB-15 | 2026-09-04 06:38:16 | 51.18860 | 16.59596 | 127° | 120km/h | 8637m | -1.7m/s | -29.0°C | 73.3% | 340.2hPa | 2.6V | 00:00:00 | 00:00:00 | 00:00:00 | |
| POL1PZ | 2026-09-04 06:38:14 | 51.18897 | 16.59516 | 128° | 124km/h | 8640m | -1.8m/s | -29.1°C | 68.9% | 340.1hPa | 2.6V | 00:00:00 | 00:00:00 | 00:00:00 | |
| SP6BVK | 2026-09-04 06:38:13 | 51.18897 | 16.59516 | 128° | 124km/h | 8640m | -1.8m/s | -29.1°C | 68.9% | 340.1hPa | 2.6V | 00:00:00 | 00:00:00 | 00:00:00 | |
| POL2MAQ | 2026-09-04 06:38:10 | 51.18956 | 16.59397 | 130° | 128km/h | 8646m | -1.8m/s | -29.1°C | 69.0% | 339.8hPa | 2.6V | 00:00:00 | 00:00:00 | 00:00:00 | |
| KRY50SP-1 | 2026-09-04 06:38:08 | 51.18998 | 16.59319 | 132° | 126km/h | 8649m | -1.9m/s | -29.2°C | 69.7% | 339.7hPa | 2.6V | 00:00:00 | 00:00:00 | 00:00:00 | |
| EDDB2-11 | 2026-09-04 06:38:06 | 51.19062 | 16.59207 | 133° | 122km/h | 8655m | -1.9m/s | -29.3°C | 69.9% | 339.4hPa | 2.6V | 00:00:00 | 00:00:00 | 00:00:00 | |
| SP3WXH-11 | 2026-09-04 06:38:02 | 51.19146 | 16.59070 | 133° | 113km/h | 8662m | -1.9m/s | -29.4°C | 69.6% | 339.1hPa | 2.6V | 00:00:00 | 00:00:00 | 00:00:00 | |
| EDDB2-12 | 2026-09-04 06:37:56 | 51.19255 | 16.58861 | 126° | 115km/h | 8673m | -1.9m/s | -29.5°C | 69.8% | 338.6hPa | 2.6V | 00:00:00 | 00:00:00 | 00:00:00 | |
| SONDE2-11 | 2026-09-04 06:37:50 | 51.19364 | 16.58630 | 128° | 122km/h | 8685m | -2.0m/s | -29.5°C | 68.1% | 338.0hPa | 2.6V | 00:00:00 | 00:00:00 | 00:00:00 | |
| POL2MAQ | 2026-09-04 06:37:49 | 51.19364 | 16.58630 | 129° | 124km/h | 8685m | -2.0m/s | -29.5°C | 68.1% | 338.0hPa | 2.6V | 00:00:00 | 00:00:00 | 00:00:00 | |
| OE3JTB-15 | 2026-09-04 06:37:47 | 51.19423 | 16.58513 | 130° | 122km/h | 8691m | -1.9m/s | -29.5°C | 72.6% | 337.7hPa | 2.6V | 00:00:00 | 00:00:00 | 00:00:00 | |
| KRY50SP-1 | 2026-09-04 06:37:45 | 51.19443 | 16.58474 | 131° | 124km/h | 8693m | -2.0m/s | -29.6°C | 67.8% | 337.6hPa | 2.6V | 00:00:00 | 00:00:00 | 00:00:00 | |
| SQ6EMJ | 2026-09-04 06:37:42 | 51.19505 | 16.58359 | 132° | 124km/h | 8699m | -1.9m/s | -29.6°C | 68.0% | 337.4hPa | 2.6V | 00:00:00 | 00:00:00 | 00:00:00 | |
| KRY50SP-1 | 2026-09-04 06:37:39 | 51.19567 | 16.58248 | 134° | 122km/h | 8704m | -2.0m/s | -29.7°C | 68.6% | 337.1hPa | 2.6V | 00:00:00 | 00:00:00 | 00:00:00 | |
| SQ6EMJ | 2026-09-04 06:37:36 | 51.19631 | 16.58141 | 135° | 120km/h | 8711m | -2.0m/s | -29.7°C | 67.9% | 336.7hPa | 2.6V | 00:00:00 | 00:00:00 | 00:00:00 | |
| EDDB2-11 | 2026-09-04 06:37:35 | 51.19673 | 16.58072 | 134° | 119km/h | 8715m | -2.0m/s | -29.8°C | 67.7% | 336.6hPa | 2.6V | 00:00:00 | 00:00:00 | 00:00:00 | |
| SP6BVK | 2026-09-04 06:37:33 | 51.19715 | 16.58004 | 136° | 117km/h | 8718m | -2.0m/s | -29.8°C | 68.1% | 336.4hPa | 2.6V | 00:00:00 | 00:00:00 | 00:00:00 | |
| POL1PZ | 2026-09-04 06:37:32 | 51.19715 | 16.58004 | 136° | 117km/h | 8718m | -2.0m/s | -29.8°C | 68.1% | 336.4hPa | 2.6V | 00:00:00 | 00:00:00 | 00:00:00 | |
| POL2MAQ | 2026-09-04 06:37:28 | 51.19794 | 16.57872 | 133° | 110km/h | 8726m | -1.9m/s | -29.9°C | 68.0% | 336.1hPa | 2.6V | 00:00:00 | 00:00:00 | 00:00:00 | |
| KRY50SP-1 | 2026-09-04 06:37:27 | 51.19812 | 16.57838 | 131° | 110km/h | 8728m | -2.0m/s | -29.9°C | 68.3% | 335.9hPa | 2.6V | 00:00:00 | 00:00:00 | 00:00:00 | |
| EDDB2-12 | 2026-09-04 06:37:25 | 51.19865 | 16.57734 | 126° | 111km/h | 8734m | -2.0m/s | -29.9°C | 66.6% | 335.7hPa | 2.6V | 00:00:00 | 00:00:00 | 00:00:00 | |
| KRY50SP-1 | 2026-09-04 06:37:21 | 51.19917 | 16.57621 | 127° | 119km/h | 8740m | -2.1m/s | -29.9°C | 65.5% | 335.5hPa | 2.6V | 00:00:00 | 00:00:00 | 00:00:00 | |
| SP3BTT-10 | 2026-09-04 06:37:19 | 51.19972 | 16.57502 | 128° | 122km/h | 8747m | -1.9m/s | -29.8°C | 68.7% | 335.1hPa | 2.6V | 00:00:00 | 00:00:00 | 00:00:00 | |
| OE3JTB-15 | 2026-09-04 06:37:18 | 51.19992 | 16.57462 | 129° | 117km/h | 8748m | -2.0m/s | -29.8°C | 68.8% | 335.0hPa | 2.6V | 00:00:00 | 02:27:25 | 00:00:00 | |
| KRY50SP-1 | 2026-09-04 06:37:16 | 51.20012 | 16.57423 | 131° | 126km/h | 8751m | -2.0m/s | -29.9°C | 63.6% | 334.9hPa | 2.6V | 00:00:00 | 00:00:00 | 00:00:00 | |
| SQ6EMJ | 2026-09-04 06:37:14 | 51.20053 | 16.57345 | 133° | 124km/h | 8754m | -2.0m/s | -30.1°C | 64.4% | 334.7hPa | 2.6V | 00:00:00 | 00:00:00 | 00:00:00 | |
| SP6BVK | 2026-09-04 06:37:13 | 51.20095 | 16.57272 | 134° | 120km/h | 8758m | -1.9m/s | -30.2°C | 64.4% | 334.6hPa | 2.6V | 00:00:00 | 00:00:00 | 00:00:00 | |
| POL1PZ | 2026-09-04 06:37:12 | 51.20095 | 16.57272 | 134° | 120km/h | 8758m | -1.9m/s | -30.2°C | 64.4% | 334.6hPa | 2.6V | 00:00:00 | 00:00:00 | 00:00:00 | |
| KRY50SP-1 | 2026-09-04 06:37:11 | 51.20116 | 16.57237 | 134° | 119km/h | 8760m | -1.9m/s | -30.3°C | 64.6% | 334.5hPa | 2.6V | 00:00:00 | 00:00:00 | 00:00:00 | |
| SQ6EMJ | 2026-09-04 06:37:08 | 51.20175 | 16.57133 | 133° | 115km/h | 8766m | -2.0m/s | -30.4°C | 64.9% | 334.2hPa | 2.6V | 00:00:00 | 00:00:00 | 00:00:00 | |
| POL2MAQ | 2026-09-04 06:37:07 | 51.20195 | 16.57099 | 133° | 115km/h | 8768m | -2.0m/s | -30.3°C | 64.9% | 334.1hPa | 2.6V | 00:00:00 | 00:00:00 | 00:00:00 | |
| KRY50SP-1 | 2026-09-04 06:37:05 | 51.20234 | 16.57031 | 133° | 113km/h | 8772m | -2.0m/s | -30.3°C | 65.0% | 333.9hPa | 2.6V | 00:00:00 | 00:00:00 | 00:00:00 | |
| EDDB2-11 | 2026-09-04 06:37:04 | 51.20289 | 16.56930 | 130° | 110km/h | 8778m | -2.0m/s | -30.3°C | 65.3% | 333.6hPa | 2.6V | 00:00:00 | 00:00:00 | 00:00:00 | |
| SQ6EMJ | 2026-09-04 06:37:03 | 51.20290 | 16.56930 | 132° | 111km/h | 8778m | -2.0m/s | -30.3°C | 65.3% | 333.7hPa | 2.6V | 00:00:00 | 00:00:00 | 00:00:00 | |
| SP3WXH-11 | 2026-09-04 06:37:00 | 51.20343 | 16.56827 | 128° | 110km/h | 8783m | -2.0m/s | -30.2°C | 63.8% | 333.4hPa | 2.6V | 00:00:00 | 00:00:00 | 00:00:00 | |
| EDDB2-12 | 2026-09-04 06:36:54 | 51.20446 | 16.56605 | 125° | 119km/h | 8795m | -2.0m/s | -30.2°C | 61.4% | 332.8hPa | 2.6V | 00:00:00 | 00:00:00 | 00:00:00 | |
| POL1PZ | 2026-09-04 06:36:52 | 51.20482 | 16.56527 | 128° | 122km/h | 8799m | -1.9m/s | -30.3°C | 61.0% | 332.6hPa | 2.6V | 00:00:00 | 00:00:00 | 00:00:00 | |
| SP6BVK | 2026-09-04 06:36:51 | 51.20482 | 16.56527 | 128° | 122km/h | 8799m | -1.9m/s | -30.3°C | 61.0% | 332.6hPa | 2.6V | 00:00:00 | 00:00:00 | 00:00:00 | |
| KRY50SP-1 | 2026-09-04 06:36:49 | 51.20519 | 16.56447 | 129° | 124km/h | 8803m | -1.9m/s | -30.3°C | 60.2% | 332.4hPa | 2.6V | 00:00:00 | 00:00:00 | 00:00:00 | |
| OE3JTB-15 | 2026-09-04 06:36:48 | 51.20559 | 16.56368 | 130° | 124km/h | 8807m | -1.9m/s | -30.3°C | 64.5% | 332.2hPa | 2.6V | 00:00:00 | 00:00:00 | 08:30:00 | |
| POL2MAQ | 2026-09-04 06:36:47 | 51.20559 | 16.56368 | 130° | 126km/h | 8807m | -1.9m/s | -30.3°C | 59.9% | 332.3hPa | 2.5V | 00:00:00 | 00:00:00 | 00:00:00 | |
| KRY50SP-1 | 2026-09-04 06:36:43 | 51.20641 | 16.56215 | 133° | 122km/h | 8815m | -2.0m/s | -30.4°C | 60.3% | 331.9hPa | 2.5V | 00:00:00 | 00:00:00 | 00:00:00 | |
| KRY50SP-1 | 2026-09-04 06:36:38 | 51.20762 | 16.56005 | 133° | 113km/h | 8826m | -1.9m/s | -30.6°C | 62.3% | 331.4hPa | 2.5V | 00:00:00 | 00:00:00 | 00:00:00 | |
| EDDB2-11 | 2026-09-04 06:36:33 | 51.20854 | 16.55837 | 129° | 108km/h | 8836m | -1.9m/s | -30.6°C | 61.9% | 330.9hPa | 2.5V | 00:00:00 | 00:00:00 | 00:00:00 | |
| KRY50SP-1 | 2026-09-04 06:36:31 | 51.20872 | 16.55803 | 130° | 110km/h | 8838m | -2.0m/s | -30.6°C | 62.0% | 330.8hPa | 2.5V | 00:00:00 | 00:00:00 | 00:00:00 | |
| POL1PZ | 2026-09-04 06:36:30 | 51.20889 | 16.55769 | 129° | 110km/h | 8840m | -2.0m/s | -30.6°C | 61.5% | 330.7hPa | 2.5V | 00:00:00 | 00:00:00 | 00:00:00 | |
| SP3WXH-11 | 2026-09-04 06:36:29 | 51.20923 | 16.55698 | 126° | 111km/h | 8843m | -2.0m/s | -30.6°C | 61.2% | 330.6hPa | 2.5V | 00:00:00 | 00:00:00 | 00:00:00 | |
| POL2MAQ | 2026-09-04 06:36:26 | 51.20957 | 16.55624 | 127° | 115km/h | 8848m | -2.0m/s | -30.6°C | 60.9% | 330.3hPa | 2.5V | 00:00:00 | 00:00:00 | 00:00:00 | |
| KRY50SP-1 | 2026-09-04 06:36:25 | 51.20974 | 16.55586 | 126° | 117km/h | 8850m | -1.9m/s | -30.6°C | 61.0% | 330.2hPa | 2.5V | 00:00:00 | 00:00:00 | 00:00:00 | |
| EDDB2-12 | 2026-09-04 06:36:23 | 51.21027 | 16.55468 | 126° | 122km/h | 8855m | -2.0m/s | -30.7°C | 59.7% | 330.0hPa | 2.5V | 00:00:00 | 00:00:00 | 00:00:00 | |
| KRY50SP-1 | 2026-09-04 06:36:20 | 51.21066 | 16.55388 | 129° | 126km/h | 8859m | -2.0m/s | -30.7°C | 59.1% | 329.8hPa | 2.5V | 00:00:00 | 00:00:00 | 00:00:00 | |
| SP3BTT-10 | 2026-09-04 06:36:18 | 51.21126 | 16.55271 | 132° | 120km/h | 8865m | -1.9m/s | -30.6°C | 62.7% | 329.5hPa | 2.5V | 00:00:00 | 00:00:00 | 00:00:00 | |
| SONDE2-11 | 2026-09-04 06:36:17 | 51.21147 | 16.55234 | 131° | 122km/h | 8867m | -2.0m/s | -30.7°C | 57.9% | 329.4hPa | 2.5V | 00:00:00 | 00:00:00 | 00:00:00 | |
| KRY50SP-1 | 2026-09-04 06:36:14 | 51.21189 | 16.55161 | 134° | 119km/h | 8871m | -2.0m/s | -30.8°C | 57.9% | 329.3hPa | 2.5V | 00:00:00 | 00:00:00 | 00:00:00 | |
| POL1PZ | 2026-09-04 06:36:10 | 51.21267 | 16.55025 | 133° | 111km/h | 8879m | -2.0m/s | -31.0°C | 58.5% | 328.9hPa | 2.5V | 00:00:00 | 00:00:00 | 00:00:00 | |
| SP6BVK | 2026-09-04 06:36:09 | 51.21286 | 16.54991 | 132° | 110km/h | 8881m | -1.9m/s | -31.0°C | 58.6% | 328.8hPa | 2.5V | 00:00:00 | 00:00:00 | 00:00:00 | |
| KRY50SP-1 | 2026-09-04 06:36:08 | 51.21304 | 16.54958 | 131° | 110km/h | 8883m | -2.0m/s | -31.0°C | 58.5% | 328.7hPa | 2.5V | 00:00:00 | 00:00:00 | 00:00:00 | |
| EDDB2-11 | 2026-09-04 06:36:02 | 51.21440 | 16.54672 | 124° | 115km/h | 8899m | -2.1m/s | -31.0°C | 55.5% | 327.9hPa | 2.5V | 00:00:00 | 00:00:00 | 00:00:00 | |
| SP3WXH-11 | 2026-09-04 06:35:58 | 51.21492 | 16.54555 | 126° | 120km/h | 8906m | -1.9m/s | -31.0°C | 56.1% | 327.7hPa | 2.5V | 00:00:00 | 00:00:00 | 00:00:00 | |
| EDDB2-12 | 2026-09-04 06:35:52 | 51.21630 | 16.54290 | 132° | 117km/h | 8919m | -1.9m/s | -31.4°C | 57.0% | 327.1hPa | 2.5V | 00:00:00 | 00:00:00 | 00:00:00 | |
| SONDE2-11 | 2026-09-04 06:35:46 | 51.21728 | 16.54118 | 132° | 111km/h | 8929m | -2.0m/s | -31.4°C | 57.2% | 326.6hPa | 2.5V | 00:00:00 | 00:00:00 | 00:00:00 | |
| SQ6EMJ | 2026-09-04 06:35:44 | 51.21767 | 16.54051 | 134° | 111km/h | 8933m | -2.1m/s | -31.4°C | 57.5% | 326.4hPa | 2.5V | 00:00:00 | 00:00:00 | 00:00:00 | |
| KRY50SP-1 | 2026-09-04 06:35:40 | 51.21823 | 16.53953 | 133° | 108km/h | 8939m | -2.1m/s | -31.5°C | 57.4% | 326.1hPa | 2.5V | 00:00:00 | 00:00:00 | 00:00:00 | |
| KRY50SP-1 | 2026-09-04 06:35:34 | 51.21926 | 16.53751 | 127° | 111km/h | 8952m | -2.0m/s | -31.5°C | 54.9% | 325.5hPa | 2.5V | 00:00:00 | 00:00:00 | 00:00:00 | |
| EDDB2-11 | 2026-09-04 06:35:31 | 51.22011 | 16.53560 | 126° | 120km/h | 8962m | -1.9m/s | -31.6°C | 56.2% | 325.1hPa | 2.5V | 00:00:00 | 00:00:00 | 00:00:00 | |
| POL1PZ | 2026-09-04 06:35:29 | 51.22011 | 16.53560 | 128° | 120km/h | 8962m | -1.9m/s | -31.6°C | 56.2% | 325.1hPa | 2.5V | 00:00:00 | 00:00:00 | 00:00:00 | |
| SP3WXH-11 | 2026-09-04 06:35:27 | 51.22068 | 16.53444 | 129° | 122km/h | 8968m | -2.0m/s | -31.7°C | 56.7% | 324.8hPa | 2.5V | 00:00:00 | 00:00:00 | 00:00:00 | |
| OE3JTB-15 | 2026-09-04 06:35:25 | 51.22108 | 16.53369 | 132° | 119km/h | 8971m | -1.9m/s | -31.7°C | 61.4% | 324.6hPa | 2.5V | 00:00:00 | 02:25:32 | 00:00:00 | |
| KRY50SP-1 | 2026-09-04 06:35:24 | 51.22108 | 16.53369 | 132° | 122km/h | 8971m | -2.0m/s | -31.7°C | 56.7% | 324.6hPa | 2.5V | 00:00:00 | 00:00:00 | 00:00:00 | |
| POL2MAQ | 2026-09-04 06:35:23 | 51.22129 | 16.53333 | 133° | 120km/h | 8973m | -2.0m/s | -31.7°C | 56.4% | 324.5hPa | 2.5V | 00:00:00 | 00:00:00 | 00:00:00 | |
| EDDB2-12 | 2026-09-04 06:35:21 | 51.22210 | 16.53193 | 133° | 115km/h | 8982m | -2.0m/s | -31.8°C | 56.2% | 324.1hPa | 2.5V | 00:00:00 | 00:00:00 | 00:00:00 | |
| SP3BTT-10 | 2026-09-04 06:35:18 | 51.22249 | 16.53127 | 133° | 120km/h | 8986m | -2.0m/s | -31.9°C | 61.7% | 323.9hPa | 2.5V | 00:00:00 | 00:00:00 | 00:00:00 | |
| SQ6EMJ | 2026-09-04 06:35:17 | 51.22249 | 16.53127 | 134° | 111km/h | 8986m | -2.0m/s | -31.9°C | 57.0% | 323.9hPa | 2.5V | 00:00:00 | 00:00:00 | 00:00:00 | |
| SONDE2-11 | 2026-09-04 06:35:15 | 51.22304 | 16.53027 | 129° | 108km/h | 8992m | -2.0m/s | -32.0°C | 57.0% | 323.7hPa | 2.5V | 00:00:00 | 00:00:00 | 00:00:00 | |
| KRY50SP-1 | 2026-09-04 06:35:13 | 51.22322 | 16.52993 | 129° | 110km/h | 8994m | -2.0m/s | -32.0°C | 56.8% | 323.6hPa | 2.5V | 00:00:00 | 00:00:00 | 00:00:00 | |
| SQ6EMJ | 2026-09-04 06:35:12 | 51.22339 | 16.52958 | 129° | 110km/h | 8996m | -2.0m/s | -32.0°C | 56.3% | 323.5hPa | 2.5V | 00:00:00 | 00:00:00 | 00:00:00 | |
| POL1PZ | 2026-09-04 06:35:08 | 51.22407 | 16.52814 | 128° | 113km/h | 9004m | -2.0m/s | -32.1°C | 56.4% | 323.1hPa | 2.5V | 00:00:00 | 00:00:00 | 00:00:00 | |
| SQ6EMJ | 2026-09-04 06:35:07 | 51.22441 | 16.52740 | 127° | 115km/h | 9008m | -2.0m/s | -32.1°C | 56.6% | 323.0hPa | 2.5V | 00:00:00 | 00:00:00 | 00:00:00 | |
| POL2MAQ | 2026-09-04 06:35:02 | 51.22510 | 16.52592 | 127° | 115km/h | 9016m | -2.1m/s | -32.2°C | 56.6% | 322.6hPa | 2.5V | 00:00:00 | 00:00:00 | 00:00:00 | |
| EDDB2-11 | 2026-09-04 06:35:00 | 51.22579 | 16.52441 | 125° | 115km/h | 9024m | -2.1m/s | -32.2°C | 57.1% | 322.2hPa | 2.5V | 00:00:00 | 00:00:00 | 00:00:00 | |
| SP3WXH-11 | 2026-09-04 06:34:56 | 51.22630 | 16.52326 | 125° | 117km/h | 9030m | -2.1m/s | -32.2°C | 56.9% | 322.0hPa | 2.5V | 00:00:00 | 00:00:00 | 00:00:00 | |
| EDDB2-12 | 2026-09-04 06:34:50 | 51.22758 | 16.52048 | 128° | 124km/h | 9045m | -2.2m/s | -32.4°C | 57.7% | 321.3hPa | 2.5V | 00:00:00 | 00:00:00 | 00:00:00 | |
| POL1PZ | 2026-09-04 06:34:48 | 51.22758 | 16.52048 | 130° | 126km/h | 9045m | -2.2m/s | -32.4°C | 57.7% | 321.3hPa | 2.5V | 00:00:00 | 00:00:00 | 00:00:00 | |
| SP6BVK | 2026-09-04 06:34:46 | 51.22799 | 16.51971 | 132° | 124km/h | 9049m | -2.1m/s | -32.4°C | 57.3% | 321.1hPa | 2.5V | 00:00:00 | 00:00:00 | 00:00:00 | |
| SONDE2-11 | 2026-09-04 06:34:44 | 51.22861 | 16.51860 | 133° | 120km/h | 9055m | -2.1m/s | -32.4°C | 56.6% | 320.8hPa | 2.5V | 00:00:00 | 00:00:00 | 00:00:00 | |
| POL2MAQ | 2026-09-04 06:34:42 | 51.22882 | 16.51825 | 134° | 119km/h | 9057m | -1.9m/s | -32.5°C | 56.4% | 320.7hPa | 2.5V | 00:00:00 | 00:00:00 | 00:00:00 | |
| SQ6EMJ | 2026-09-04 06:34:41 | 51.22902 | 16.51791 | 134° | 117km/h | 9059m | -2.0m/s | -32.5°C | 56.7% | 320.6hPa | 2.5V | 00:00:00 | 00:00:00 | 00:00:00 | |
| KRY50SP-1 | 2026-09-04 06:34:38 | 51.22960 | 16.51689 | 132° | 113km/h | 9065m | -2.1m/s | -32.8°C | 58.4% | 320.3hPa | 2.5V | 00:00:00 | 00:00:00 | 00:00:00 | |
| SQ6EMJ | 2026-09-04 06:34:36 | 51.22997 | 16.51619 | 130° | 113km/h | 9069m | -2.0m/s | -32.8°C | 58.3% | 320.1hPa | 2.5V | 00:00:00 | 00:00:00 | 00:00:00 | |
| KRY50SP-1 | 2026-09-04 06:34:33 | 51.23049 | 16.51509 | 127° | 115km/h | 9075m | -2.1m/s | -32.7°C | 58.1% | 319.9hPa | 2.5V | 00:00:00 | 00:00:00 | 00:00:00 | |
| SQ6EMJ | 2026-09-04 06:34:30 | 51.23101 | 16.51395 | 126° | 117km/h | 9082m | -2.0m/s | -32.7°C | 58.3% | 319.6hPa | 2.5V | 00:00:00 | 00:00:00 | 00:00:00 | |
| POL1PZ | 2026-09-04 06:34:28 | 51.23135 | 16.51317 | 126° | 119km/h | 9086m | -2.1m/s | -32.8°C | 58.1% | 319.4hPa | 2.5V | 00:00:00 | 00:00:00 | 00:00:00 | |
| KRY50SP-1 | 2026-09-04 06:34:27 | 51.23153 | 16.51278 | 126° | 120km/h | 9088m | -2.1m/s | -32.8°C | 58.4% | 319.3hPa | 2.5V | 00:00:00 | 00:00:00 | 00:00:00 | |
| SP3WXH-11 | 2026-09-04 06:34:25 | 51.23207 | 16.51157 | 125° | 122km/h | 9094m | -2.1m/s | -32.8°C | 58.4% | 319.0hPa | 2.5V | 00:00:00 | 00:00:00 | 00:00:00 | |
| KRY50SP-1 | 2026-09-04 06:34:22 | 51.23264 | 16.51035 | 129° | 128km/h | 9100m | -2.0m/s | -32.8°C | 59.1% | 318.7hPa | 2.5V | 00:00:00 | 00:00:00 | 00:00:00 | |
| POL2MAQ | 2026-09-04 06:34:21 | 51.23264 | 16.51035 | 129° | 128km/h | 9100m | -2.0m/s | -32.8°C | 59.1% | 318.7hPa | 2.5V | 00:00:00 | 00:00:00 | 00:00:00 | |
| EDDB2-12 | 2026-09-04 06:34:19 | 51.23345 | 16.50876 | 130° | 126km/h | 9108m | -2.0m/s | -32.8°C | 58.6% | 318.3hPa | 2.5V | 00:00:00 | 00:00:00 | 00:00:00 | |
| SP3BTT-10 | 2026-09-04 06:34:18 | 51.23345 | 16.50876 | 131° | 117km/h | 9108m | -1.9m/s | -32.8°C | 63.6% | 318.3hPa | 2.5V | 00:00:00 | 00:00:00 | 00:00:00 | |
| KRY50SP-1 | 2026-09-04 06:34:15 | 51.23386 | 16.50801 | 133° | 122km/h | 9112m | -2.0m/s | -32.9°C | 59.1% | 318.2hPa | 2.6V | 00:00:00 | 00:00:00 | 00:00:00 | |
| SONDE2-11 | 2026-09-04 06:34:13 | 51.23447 | 16.50692 | 131° | 117km/h | 9118m | -2.0m/s | -33.1°C | 60.4% | 317.9hPa | 2.6V | 00:00:00 | 00:00:00 | 00:00:00 | |
| KRY50SP-1 | 2026-09-04 06:34:10 | 51.23486 | 16.50622 | 132° | 115km/h | 9122m | -2.0m/s | -33.2°C | 61.0% | 317.7hPa | 2.6V | 00:00:00 | 00:00:00 | 00:00:00 | |
| POL1PZ | 2026-09-04 06:34:08 | 51.23524 | 16.50553 | 131° | 113km/h | 9127m | -2.1m/s | -33.3°C | 61.1% | 317.5hPa | 2.6V | 00:00:00 | 00:00:00 | 00:00:00 | |
| SP6BVK | 2026-09-04 06:34:06 | 51.23560 | 16.50482 | 130° | 113km/h | 9131m | -2.0m/s | -33.2°C | 60.3% | 317.4hPa | 2.6V | 00:00:00 | 00:00:00 | 00:00:00 | |
| KRY50SP-1 | 2026-09-04 06:34:05 | 51.23578 | 16.50447 | 129° | 113km/h | 9133m | -1.9m/s | -33.2°C | 60.1% | 317.3hPa | 2.6V | 00:00:00 | 00:00:00 | 00:00:00 | |
| SQ6EMJ | 2026-09-04 06:34:04 | 51.23612 | 16.50375 | 128° | 113km/h | 9137m | -2.1m/s | -33.2°C | 59.4% | 317.1hPa | 2.6V | 00:00:00 | 00:00:00 | 00:00:00 | |
| EDDB2-11 | 2026-09-04 06:33:58 | 51.23731 | 16.50105 | 124° | 122km/h | 9152m | -2.2m/s | -33.3°C | 57.9% | 316.4hPa | 2.6V | 00:00:00 | 00:00:00 | 00:00:00 | |
| SP3WXH-11 | 2026-09-04 06:33:54 | 51.23785 | 16.49981 | 125° | 126km/h | 9158m | -2.2m/s | -33.3°C | 57.9% | 316.1hPa | 2.6V | 00:00:00 | 00:00:00 | 00:00:00 | |
| EDDB2-12 | 2026-09-04 06:33:48 | 51.23927 | 16.49702 | 131° | 122km/h | 9173m | -2.2m/s | -33.5°C | 59.0% | 315.4hPa | 2.6V | 00:00:00 | 00:00:00 | 00:00:00 | |
| POL1PZ | 2026-09-04 06:33:47 | 51.23906 | 16.49739 | 132° | 126km/h | 9171m | -2.1m/s | -33.4°C | 58.3% | 315.5hPa | 2.6V | 00:00:00 | 00:00:00 | 00:00:00 | |
| SP6BVK | 2026-09-04 06:33:45 | 51.23947 | 16.49665 | 133° | 120km/h | 9175m | -2.1m/s | -33.6°C | 59.7% | 315.4hPa | 2.6V | 00:00:00 | 00:00:00 | 00:00:00 | |
| KRY50SP-1 | 2026-09-04 06:33:43 | 51.23987 | 16.49593 | 132° | 117km/h | 9179m | -2.0m/s | -33.7°C | 60.7% | 315.2hPa | 2.6V | 00:00:00 | 00:00:00 | 00:00:00 | |
| SONDE2-11 | 2026-09-04 06:33:42 | 51.24025 | 16.49522 | 129° | 113km/h | 9183m | -2.1m/s | -33.8°C | 61.3% | 314.9hPa | 2.6V | 00:00:00 | 00:00:00 | 00:00:00 | |
| POL2MAQ | 2026-09-04 06:33:40 | 51.24042 | 16.49486 | 129° | 113km/h | 9185m | -2.2m/s | -33.8°C | 61.0% | 314.9hPa | 2.6V | 00:00:00 | 00:00:00 | 00:00:00 | |
| SQ6EMJ | 2026-09-04 06:33:39 | 51.24077 | 16.49414 | 128° | 113km/h | 9190m | -2.1m/s | -33.8°C | 61.5% | 314.6hPa | 2.6V | 00:00:00 | 00:00:00 | 00:00:00 | |
| KRY50SP-1 | 2026-09-04 06:33:38 | 51.24077 | 16.49414 | 128° | 113km/h | 9190m | -2.1m/s | -33.8°C | 61.5% | 314.6hPa | 2.6V | 00:00:00 | 00:00:00 | 00:00:00 | |
| SP3BTT-10 | 2026-09-04 06:33:33 | 51.24177 | 16.49185 | 124° | 126km/h | 9203m | -2.2m/s | -33.6°C | 64.1% | 314.0hPa | 2.6V | 00:00:00 | 00:00:00 | 00:00:00 | |
| OE3JTB-15 | 2026-09-04 06:33:32 | 51.24194 | 16.49145 | 124° | 120km/h | 9205m | -2.2m/s | -33.6°C | 64.1% | 313.9hPa | 2.6V | 00:00:00 | 02:23:39 | 00:00:00 | |
| POL1PZ | 2026-09-04 06:33:28 | 51.24266 | 16.48980 | 128° | 128km/h | 9213m | -2.2m/s | -33.8°C | 60.6% | 313.6hPa | 2.6V | 00:00:00 | 00:00:00 | 00:00:00 | |
| EDDB2-11 | 2026-09-04 06:33:27 | 51.24306 | 16.48898 | 128° | 128km/h | 9217m | -2.1m/s | -33.9°C | 61.2% | 313.4hPa | 2.6V | 00:00:00 | 00:00:00 | 00:00:00 | |
| SP6BVK | 2026-09-04 06:33:24 | 51.24325 | 16.48857 | 130° | 128km/h | 9219m | -2.0m/s | -33.9°C | 61.2% | 313.4hPa | 2.6V | 00:00:00 | 00:00:00 | 00:00:00 | |
| SQ6EMJ | 2026-09-04 06:33:23 | 51.24366 | 16.48778 | 131° | 126km/h | 9224m | -2.1m/s | -33.9°C | 61.5% | 313.2hPa | 2.6V | 00:00:00 | 00:00:00 | 00:00:00 | |
| KRY50SP-1 | 2026-09-04 06:33:22 | 51.24366 | 16.48778 | 131° | 126km/h | 9224m | -2.1m/s | -33.9°C | 61.5% | 313.2hPa | 2.6V | 00:00:00 | 00:00:00 | 00:00:00 | |
| POL2MAQ | 2026-09-04 06:33:20 | 51.24428 | 16.48664 | 132° | 122km/h | 9230m | -2.2m/s | -34.0°C | 62.0% | 312.9hPa | 2.6V | 00:00:00 | 00:00:00 | 00:00:00 | |
| SQ6EMJ | 2026-09-04 06:33:17 | 51.24488 | 16.48554 | 132° | 117km/h | 9236m | -1.9m/s | -34.1°C | 62.7% | 312.6hPa | 2.6V | 00:00:00 | 00:00:00 | 00:00:00 | |
| KRY50SP-1 | 2026-09-04 06:33:12 | 51.24563 | 16.48411 | 130° | 113km/h | 9245m | -2.1m/s | -34.2°C | 63.8% | 312.3hPa | 2.6V | 00:00:00 | 00:00:00 | 00:00:00 | |
| SONDE2-11 | 2026-09-04 06:33:11 | 51.24598 | 16.48339 | 127° | 113km/h | 9249m | -2.2m/s | -34.2°C | 63.8% | 312.0hPa | 2.6V | 00:00:00 | 00:00:00 | 00:00:00 | |
| POL1PZ | 2026-09-04 06:33:07 | 51.24649 | 16.48228 | 126° | 115km/h | 9256m | -2.2m/s | -34.2°C | 62.2% | 311.7hPa | 2.6V | 00:00:00 | 00:00:00 | 00:00:00 | |
| KRY50SP-1 | 2026-09-04 06:33:06 | 51.24666 | 16.48190 | 126° | 117km/h | 9258m | -2.1m/s | -34.2°C | 62.5% | 311.7hPa | 2.6V | 00:00:00 | 00:00:00 | 00:00:00 | |
| SP6BVK | 2026-09-04 06:33:04 | 51.24700 | 16.48111 | 125° | 120km/h | 9262m | -2.3m/s | -34.3°C | 62.6% | 311.5hPa | 2.6V | 00:00:00 | 00:00:00 | 00:00:00 | |
| OE3JTB-15 | 2026-09-04 06:33:03 | 51.24734 | 16.48030 | 125° | 122km/h | 9267m | -2.2m/s | -34.3°C | 68.5% | 311.2hPa | 2.6V | 00:00:00 | 00:00:00 | 00:00:00 | |
| EDDB2-11 | 2026-09-04 06:32:56 | 51.24886 | 16.47700 | 128° | 126km/h | 9283m | -2.2m/s | -34.5°C | 66.3% | 310.5hPa | 2.6V | 00:00:00 | 00:00:00 | 00:00:00 | |
| SP3WXH-11 | 2026-09-04 06:32:52 | 51.24947 | 16.47581 | 130° | 124km/h | 9289m | -2.0m/s | -34.5°C | 66.3% | 310.2hPa | 2.6V | 00:00:00 | 00:00:00 | 00:00:00 | |
| EDDB2-12 | 2026-09-04 06:32:46 | 51.25088 | 16.47326 | 130° | 115km/h | 9305m | -2.2m/s | -34.8°C | 65.9% | 309.6hPa | 2.6V | 00:00:00 | 00:00:00 | 00:00:00 | |
| SP6BVK | 2026-09-04 06:32:43 | 51.25107 | 16.47290 | 131° | 113km/h | 9307m | -2.1m/s | -34.7°C | 65.8% | 309.4hPa | 2.6V | 00:00:00 | 00:00:00 | 00:00:00 | |
| SONDE2-11 | 2026-09-04 06:32:40 | 51.25177 | 16.47143 | 125° | 117km/h | 9315m | -2.1m/s | -34.8°C | 65.9% | 309.1hPa | 2.6V | 00:00:00 | 00:00:00 | 00:00:00 | |
| POL2MAQ | 2026-09-04 06:32:38 | 51.25194 | 16.47104 | 126° | 119km/h | 9317m | -2.1m/s | -34.8°C | 65.6% | 309.0hPa | 2.6V | 00:00:00 | 00:00:00 | 00:00:00 | |
| KRY50SP-1 | 2026-09-04 06:32:37 | 51.25211 | 16.47065 | 125° | 120km/h | 9320m | -2.1m/s | -34.8°C | 65.6% | 308.9hPa | 2.6V | 00:00:00 | 00:00:00 | 00:00:00 | |
| OE3JTB-15 | 2026-09-04 06:32:34 | 51.25280 | 16.46901 | 125° | 122km/h | 9328m | -2.1m/s | -34.7°C | 71.9% | 308.4hPa | 2.6V | 00:00:00 | 00:00:00 | 00:00:00 | |
| KRY50SP-1 | 2026-09-04 06:32:32 | 51.25299 | 16.46859 | 126° | 128km/h | 9330m | -2.3m/s | -34.8°C | 67.0% | 308.4hPa | 2.6V | 00:00:00 | 00:00:00 | 00:00:00 | |
| SQ6EMJ | 2026-09-04 06:32:28 | 51.25397 | 16.46653 | 131° | 128km/h | 9341m | -2.1m/s | -34.9°C | 67.8% | 308.0hPa | 2.6V | 00:00:00 | 00:00:00 | 00:00:00 | |
| KRY50SP-1 | 2026-09-04 06:32:26 | 51.25418 | 16.46613 | 132° | 126km/h | 9343m | -2.0m/s | -35.0°C | 68.0% | 307.8hPa | 2.6V | 00:00:00 | 00:00:00 | 00:00:00 | |
| EDDB2-11 | 2026-09-04 06:32:25 | 51.25481 | 16.46501 | 132° | 120km/h | 9349m | -2.2m/s | -35.1°C | 68.0% | 307.6hPa | 2.6V | 00:00:00 | 00:00:00 | 00:00:00 | |
| SP6BVK | 2026-09-04 06:32:22 | 51.25501 | 16.46465 | 133° | 119km/h | 9352m | -2.2m/s | -35.2°C | 68.2% | 307.4hPa | 2.6V | 00:00:00 | 00:00:00 | 00:00:00 | |
| SP3WXH-11 | 2026-09-04 06:32:21 | 51.25561 | 16.46361 | 130° | 113km/h | 9358m | -2.2m/s | -35.2°C | 68.8% | 307.2hPa | 2.6V | 00:00:00 | 00:00:00 | 00:00:00 | |
| POL2MAQ | 2026-09-04 06:32:18 | 51.25597 | 16.46290 | 129° | 113km/h | 9363m | -2.2m/s | -35.2°C | 68.7% | 307.0hPa | 2.6V | 00:00:00 | 00:00:00 | 00:00:00 | |
| KRY50SP-1 | 2026-09-04 06:32:16 | 51.25614 | 16.46254 | 128° | 113km/h | 9365m | -2.1m/s | -35.2°C | 68.0% | 306.9hPa | 2.6V | 00:00:00 | 00:00:00 | 00:00:00 | |
| EDDB2-12 | 2026-09-04 06:32:15 | 51.25665 | 16.46140 | 124° | 119km/h | 9371m | -2.1m/s | -35.3°C | 68.0% | 306.6hPa | 2.6V | 00:00:00 | 00:00:00 | 00:00:00 | |
| KRY50SP-1 | 2026-09-04 06:32:11 | 51.25700 | 16.46060 | 125° | 122km/h | 9375m | -2.2m/s | -35.3°C | 68.3% | 306.4hPa | 2.6V | 00:00:00 | 00:00:00 | 00:00:00 | |
| SONDE2-11 | 2026-09-04 06:32:09 | 51.25754 | 16.45936 | 125° | 126km/h | 9382m | -2.2m/s | -35.4°C | 69.1% | 306.2hPa | 2.6V | 00:00:00 | 00:00:00 | 00:00:00 | |
| KRY50SP-1 | 2026-09-04 06:32:06 | 51.25812 | 16.45812 | 129° | 128km/h | 9388m | -2.1m/s | -35.5°C | 69.9% | 305.9hPa | 2.6V | 00:00:00 | 00:00:00 | 00:00:00 | |
| OE3JTB-15 | 2026-09-04 06:32:05 | 51.25832 | 16.45772 | 129° | 120km/h | 9390m | -2.1m/s | -35.4°C | 75.7% | 305.7hPa | 2.6V | 00:00:00 | 02:22:12 | 00:00:00 | |
| POL1PZ | 2026-09-04 06:32:04 | 51.25832 | 16.45772 | 130° | 128km/h | 9390m | -2.2m/s | -35.5°C | 0% | 0hPa | 2.6V | 00:00:00 | 00:00:00 | 00:00:00 | |
| SP3BTT-10 | 2026-09-04 06:32:03 | 51.25873 | 16.45693 | 131° | 122km/h | 9395m | -2.1m/s | -35.5°C | 76.0% | 305.5hPa | 2.6V | 00:00:00 | 00:00:00 | 08:30:00 | |
| SP6BVK | 2026-09-04 06:32:02 | 51.25873 | 16.45693 | 131° | 126km/h | 9395m | -2.1m/s | -35.5°C | 70.0% | 305.6hPa | 2.5V | 00:00:00 | 00:00:00 | 00:00:00 | |
| EDDB2-11 | 2026-09-04 06:31:53 | 51.26074 | 16.45323 | 130° | 117km/h | 9416m | -2.2m/s | -35.9°C | 71.8% | 304.6hPa | 2.5V | 00:00:00 | 00:00:00 | 00:00:00 | |
| SP3WXH-11 | 2026-09-04 06:31:50 | 51.26149 | 16.45182 | 129° | 113km/h | 9424m | -2.1m/s | -35.9°C | 70.6% | 304.3hPa | 2.5V | 00:00:00 | 00:00:00 | 00:00:00 | |
| SQ6EMJ | 2026-09-04 06:31:49 | 51.26131 | 16.45217 | 131° | 113km/h | 9422m | -2.1m/s | -35.9°C | 70.9% | 304.4hPa | 2.5V | 00:00:00 | 00:00:00 | 00:00:00 | |
| KRY50SP-1 | 2026-09-04 06:31:48 | 51.26149 | 16.45181 | 131° | 113km/h | 9424m | -2.1m/s | -35.9°C | 70.6% | 304.3hPa | 2.5V | 00:00:00 | 00:00:00 | 00:00:00 | |
| SQ6EMJ | 2026-09-04 06:31:44 | 51.26237 | 16.45001 | 127° | 115km/h | 9435m | -2.0m/s | -35.9°C | 66.8% | 303.8hPa | 2.5V | 00:00:00 | 00:00:00 | 00:00:00 | |
| KRY50SP-1 | 2026-09-04 06:31:43 | 51.26237 | 16.45001 | 127° | 115km/h | 9435m | -2.0m/s | -35.9°C | 66.8% | 303.8hPa | 2.5V | 00:00:00 | 00:00:00 | 00:00:00 | |
| SP6BVK | 2026-09-04 06:31:41 | 51.26272 | 16.44924 | 126° | 120km/h | 9439m | -2.2m/s | -35.9°C | 66.8% | 303.6hPa | 2.5V | 00:00:00 | 00:00:00 | 00:00:00 | |
| KRY50SP-1 | 2026-09-04 06:31:37 | 51.26344 | 16.44763 | 127° | 124km/h | 9448m | -2.2m/s | -36.1°C | 67.6% | 303.2hPa | 2.5V | 00:00:00 | 00:00:00 | 00:00:00 | |
| OE3JTB-15 | 2026-09-04 06:31:36 | 51.26381 | 16.44682 | 127° | 124km/h | 9452m | -2.2m/s | -36.1°C | 73.9% | 303.0hPa | 2.5V | 00:00:00 | 00:00:00 | 08:30:00 | |
| SQ6EMJ | 2026-09-04 06:31:32 | 51.26457 | 16.44517 | 127° | 128km/h | 9461m | -2.3m/s | -36.1°C | 67.8% | 302.6hPa | 2.6V | 00:00:00 | 00:00:00 | 00:00:00 | |
| SQ6EMJ | 2026-09-04 06:31:26 | 51.26555 | 16.44309 | 129° | 130km/h | 9472m | -2.2m/s | -36.2°C | 68.2% | 302.2hPa | 2.6V | 00:00:00 | 00:00:00 | 00:00:00 | |
| POL1PZ | 2026-09-04 06:31:24 | 51.26597 | 16.44228 | 131° | 130km/h | 9477m | -2.1m/s | 0°C | 0% | 0hPa | 2.6V | 00:00:00 | 00:00:00 | 00:00:00 | |
| SQ6EMJ | 2026-09-04 06:31:22 | 51.26660 | 16.44111 | 133° | 126km/h | 9483m | -2.2m/s | -36.3°C | 67.5% | 301.6hPa | 2.6V | 00:00:00 | 00:00:00 | 00:00:00 | |
| SP6BVK | 2026-09-04 06:31:20 | 51.26682 | 16.44074 | 133° | 124km/h | 9486m | -2.3m/s | -36.3°C | 67.4% | 301.6hPa | 2.6V | 00:00:00 | 00:00:00 | 00:00:00 | |
| SP3WXH-11 | 2026-09-04 06:31:19 | 51.26743 | 16.43966 | 132° | 117km/h | 9492m | -2.1m/s | -36.4°C | 67.2% | 301.3hPa | 2.6V | 00:00:00 | 00:00:00 | 00:00:00 | |
| POL2MAQ | 2026-09-04 06:31:16 | 51.26762 | 16.43931 | 132° | 115km/h | 9495m | -2.3m/s | -36.5°C | 67.6% | 301.2hPa | 2.6V | 00:00:00 | 00:00:00 | 00:00:00 | |
| SQ6EMJ | 2026-09-04 06:31:15 | 51.26781 | 16.43896 | 132° | 115km/h | 9497m | -2.3m/s | -36.5°C | 67.6% | 301.1hPa | 2.6V | 00:00:00 | 00:00:00 | 00:00:00 | |
| KRY50SP-1 | 2026-09-04 06:31:14 | 51.26800 | 16.43861 | 131° | 113km/h | 9499m | -2.3m/s | -36.5°C | 67.6% | 301.0hPa | 2.6V | 00:00:00 | 00:00:00 | 00:00:00 | |
| EDDB2-12 | 2026-09-04 06:31:12 | 51.26853 | 16.43752 | 125° | 115km/h | 9505m | -2.3m/s | -36.5°C | 66.2% | 300.7hPa | 2.6V | 00:00:00 | 00:00:00 | 00:00:00 | |
| SQ6EMJ | 2026-09-04 06:31:10 | 51.26887 | 16.43674 | 126° | 119km/h | 9510m | -2.1m/s | -36.5°C | 65.9% | 300.4hPa | 2.6V | 00:00:00 | 00:00:00 | 00:00:00 | |
| KRY50SP-1 | 2026-09-04 06:31:09 | 51.26887 | 16.43674 | 126° | 119km/h | 9510m | -2.1m/s | -36.5°C | 65.9% | 300.4hPa | 2.6V | 00:00:00 | 00:00:00 | 00:00:00 | |
| SONDE2-11 | 2026-09-04 06:31:07 | 51.26958 | 16.43510 | 125° | 128km/h | 9519m | -2.2m/s | -36.6°C | 67.6% | 300.1hPa | 2.6V | 00:00:00 | 00:00:00 | 00:00:00 | |
| SQ6EMJ | 2026-09-04 06:31:04 | 51.26997 | 16.43426 | 128° | 131km/h | 9523m | -2.2m/s | -36.6°C | 68.1% | 299.9hPa | 2.6V | 00:00:00 | 00:00:00 | 00:00:00 | |
| SP3BTT-10 | 2026-09-04 06:31:03 | 51.27017 | 16.43384 | 129° | 131km/h | 9526m | -2.2m/s | -36.6°C | 74.3% | 299.8hPa | 2.6V | 00:00:00 | 00:00:00 | 00:00:00 | |
| EDDB2-11 | 2026-09-04 06:30:51 | 51.27268 | 16.42926 | 130° | 115km/h | 9552m | -2.2m/s | -37.0°C | 69.0% | 298.7hPa | 2.6V | 00:00:00 | 00:00:00 | 00:00:00 | |
| SP3WXH-11 | 2026-09-04 06:30:48 | 51.27341 | 16.42780 | 126° | 115km/h | 9562m | -2.3m/s | -37.1°C | 67.8% | 298.3hPa | 2.6V | 00:00:00 | 00:00:00 | 00:00:00 | |
| SQ6EMJ | 2026-09-04 06:30:47 | 51.27341 | 16.42780 | 128° | 117km/h | 9562m | -2.3m/s | -37.1°C | 67.8% | 298.3hPa | 2.6V | 00:00:00 | 00:00:00 | 00:00:00 | |
| KRY50SP-1 | 2026-09-04 06:30:46 | 51.27341 | 16.42780 | 128° | 117km/h | 9562m | -2.3m/s | -37.1°C | 67.8% | 298.3hPa | 2.6V | 00:00:00 | 00:00:00 | 00:00:00 | |
| DL2RXE-15 | 2026-09-04 06:30:41 | 51.27430 | 16.42582 | 127° | 124km/h | 9573m | -2.3m/s | -37.1°C | 67.7% | 297.8hPa | 2.6V | 00:00:00 | 00:00:00 | 00:00:00 | |
| KRY50SP-1 | 2026-09-04 06:30:40 | 51.27448 | 16.42541 | 127° | 126km/h | 9576m | -2.3m/s | -37.2°C | 68.4% | 297.7hPa | 2.6V | 00:00:00 | 00:00:00 | 00:00:00 | |
| SP6BVK | 2026-09-04 06:30:39 | 51.27467 | 16.42499 | 127° | 128km/h | 9578m | -2.3m/s | -37.2°C | 68.4% | 297.6hPa | 2.6V | 00:00:00 | 00:00:00 | 00:00:00 | |
| OE3JTB-15 | 2026-09-04 06:30:38 | 51.27506 | 16.42416 | 127° | 130km/h | 9582m | -2.1m/s | -37.2°C | 75.1% | 297.3hPa | 2.6V | 00:00:00 | 02:20:45 | 00:00:00 | |
| SONDE2-11 | 2026-09-04 06:30:36 | 51.27566 | 16.42291 | 127° | 130km/h | 9589m | -2.3m/s | -37.4°C | 67.9% | 297.1hPa | 2.6V | 00:00:00 | 00:00:00 | 00:00:00 | |
| POL2MAQ | 2026-09-04 06:30:34 | 51.27566 | 16.42291 | 129° | 130km/h | 9589m | -2.3m/s | -37.4°C | 68.0% | 297.1hPa | 2.6V | 00:00:00 | 00:00:00 | 00:00:00 | |
| KRY50SP-1 | 2026-09-04 06:30:29 | 51.27668 | 16.42085 | 129° | 131km/h | 9600m | -2.2m/s | -37.5°C | 69.0% | 296.6hPa | 2.6V | 00:00:00 | 00:00:00 | 00:00:00 | |
| DB0DAN | 2026-09-04 06:30:25 | 51.27771 | 16.41877 | 128° | 126km/h | 9612m | -2.2m/s | -37.5°C | 69% | 296.11hPa | 2.6V | 00:00:00 | 00:00:00 | 00:00:00 | |
| SQ6EMJ | 2026-09-04 06:30:23 | 51.27792 | 16.41835 | 130° | 133km/h | 9614m | -2.3m/s | -37.6°C | 69.2% | 296.0hPa | 2.6V | 00:00:00 | 00:00:00 | 00:00:00 | |
| DL2RXE-15 | 2026-09-04 06:30:21 | 51.27834 | 16.41752 | 131° | 133km/h | 9618m | -2.4m/s | -37.6°C | 68.8% | 295.8hPa | 2.6V | 00:00:00 | 00:00:00 | 00:00:00 | |
| EDDB2-11 | 2026-09-04 06:30:20 | 51.27878 | 16.41671 | 130° | 131km/h | 9623m | -2.3m/s | -37.6°C | 67.9% | 295.6hPa | 2.6V | 00:00:00 | 00:00:00 | 00:00:00 | |
| SP6BVK | 2026-09-04 06:30:19 | 51.27878 | 16.41671 | 132° | 133km/h | 9623m | -2.3m/s | -37.6°C | 67.9% | 295.6hPa | 2.6V | 00:00:00 | 00:00:00 | 00:00:00 | |
| SP3BTT-10 | 2026-09-04 06:30:18 | 51.27921 | 16.41590 | 132° | 137km/h | 9628m | -2.3m/s | -37.6°C | 72.6% | 295.3hPa | 2.6V | 00:00:00 | 00:00:00 | 00:00:00 | |
| SP3WXH-11 | 2026-09-04 06:30:17 | 51.27966 | 16.41511 | 131° | 130km/h | 9632m | -2.3m/s | -37.6°C | 65.6% | 295.1hPa | 2.6V | 00:00:00 | 00:00:00 | 00:00:00 | |
| SQ6EMJ | 2026-09-04 06:30:14 | 51.27987 | 16.41473 | 133° | 128km/h | 9634m | -2.3m/s | -37.6°C | 65.1% | 295.1hPa | 2.6V | 00:00:00 | 00:00:00 | 00:00:00 | |
| POL2MAQ | 2026-09-04 06:30:13 | 51.28009 | 16.41434 | 133° | 128km/h | 9637m | -2.3m/s | -37.7°C | 65.3% | 295.0hPa | 2.6V | 00:00:00 | 00:00:00 | 00:00:00 | |
| DB0DAN | 2026-09-04 06:30:10 | 51.28093 | 16.41285 | 132° | 117km/h | 9645m | -2.1m/s | -37.9°C | 64.3% | 294.64hPa | 2.6V | 00:00:00 | 00:00:00 | 00:00:00 | |
| SQ6EMJ | 2026-09-04 06:30:10 | 51.28093 | 16.41284 | 133° | 122km/h | 9645m | -2.1m/s | -37.9°C | 64.3% | 294.6hPa | 2.6V | 00:00:00 | 00:00:00 | 00:00:00 | |
| OE3JTB-15 | 2026-09-04 06:30:09 | 51.28114 | 16.41248 | 133° | 131km/h | 9648m | -2.1m/s | -37.8°C | 70.0% | 294.5hPa | 2.6V | 00:00:00 | 00:00:00 | 00:00:00 | |
| KRY50SP-1 | 2026-09-04 06:30:07 | 51.28135 | 16.41211 | 133° | 122km/h | 9650m | -2.2m/s | -37.9°C | 63.7% | 294.5hPa | 2.5V | 00:00:00 | 00:00:00 | 00:00:00 | |
| SONDE2-11 | 2026-09-04 06:30:05 | 51.28220 | 16.41065 | 133° | 124km/h | 9658m | -1.9m/s | -37.9°C | 62.4% | 294.1hPa | 2.5V | 00:00:00 | 00:00:00 | 00:00:00 | |
| SQ6EMJ | 2026-09-04 06:30:03 | 51.28241 | 16.41028 | 134° | 126km/h | 9660m | -2.0m/s | -37.9°C | 62.2% | 294.0hPa | 2.5V | 00:00:00 | 00:00:00 | 00:00:00 | |
| KRY50SP-1 | 2026-09-04 06:30:01 | 51.28263 | 16.40991 | 134° | 128km/h | 9662m | -2.3m/s | -37.9°C | 61.9% | 293.9hPa | 2.5V | 00:00:00 | 00:00:00 | 00:00:00 | |
| SP6BVK | 2026-09-04 06:29:58 | 51.28330 | 16.40877 | 134° | 131km/h | 9669m | -2.3m/s | -38.0°C | 61.7% | 293.6hPa | 2.5V | 00:00:00 | 00:00:00 | 00:00:00 | |
| DB0DAN | 2026-09-04 06:29:55 | 51.28421 | 16.40718 | 132° | 128km/h | 9678m | -2.4m/s | -38.1°C | 60.8% | 293.22hPa | 2.5V | 00:00:00 | 00:00:00 | 00:00:00 | |
| EDDB2-11 | 2026-09-04 06:29:49 | 51.28555 | 16.40467 | 129° | 135km/h | 9692m | -2.2m/s | -38.2°C | 58.4% | 292.6hPa | 2.5V | 00:00:00 | 00:00:00 | 00:00:00 | |
| SP3WXH-11 | 2026-09-04 06:29:46 | 51.28641 | 16.40296 | 128° | 133km/h | 9701m | -2.3m/s | -38.2°C | 57.7% | 292.3hPa | 2.5V | 00:00:00 | 00:00:00 | 00:00:00 | |
| DB0DAN | 2026-09-04 06:29:40 | 51.28744 | 16.40083 | 127° | 126km/h | 9712m | -2.4m/s | -38.4°C | 58.2% | 291.74hPa | 2.5V | 00:00:00 | 00:00:00 | 00:00:00 | |
| OE3JTB-15 | 2026-09-04 06:29:40 | 51.28744 | 16.40083 | 128° | 135km/h | 9713m | -2.4m/s | -38.4°C | 64.1% | 291.7hPa | 2.5V | 00:00:00 | 00:00:00 | 00:00:00 | |
| EDDB2-12 | 2026-09-04 06:29:39 | 51.28764 | 16.40040 | 127° | 131km/h | 9715m | -2.3m/s | -38.4°C | 57.2% | 291.7hPa | 2.5V | 00:00:00 | 00:00:00 | 00:00:00 | |
| SQ6EMJ | 2026-09-04 06:29:37 | 51.28805 | 16.39955 | 128° | 133km/h | 9719m | -2.3m/s | -38.4°C | 55.9% | 291.5hPa | 2.5V | 00:00:00 | 00:00:00 | 00:00:00 | |
| KRY50SP-1 | 2026-09-04 06:29:35 | 51.28826 | 16.39912 | 129° | 135km/h | 9722m | -2.4m/s | -38.5°C | 56.1% | 291.4hPa | 2.5V | 00:00:00 | 00:00:00 | 00:00:00 | |
| SONDE2-11 | 2026-09-04 06:29:34 | 51.28890 | 16.39784 | 128° | 135km/h | 9729m | -2.3m/s | -38.4°C | 54.7% | 291.1hPa | 2.5V | 00:00:00 | 00:00:00 | 00:00:00 | |
| SQ6EMJ | 2026-09-04 06:29:31 | 51.28933 | 16.39698 | 130° | 137km/h | 9733m | -2.3m/s | -38.5°C | 54.3% | 290.9hPa | 2.5V | 00:00:00 | 00:00:00 | 00:00:00 | |
| KRY50SP-1 | 2026-09-04 06:29:29 | 51.28955 | 16.39655 | 130° | 137km/h | 9736m | -2.3m/s | -38.5°C | 54.2% | 290.7hPa | 2.5V | 00:00:00 | 00:00:00 | 00:00:00 | |
| DB0DAN | 2026-09-04 06:29:25 | 51.29067 | 16.39440 | 130° | 133km/h | 9747m | -2.3m/s | -38.5°C | 53.9% | 290.31hPa | 2.5V | 00:00:00 | 00:00:00 | 00:00:00 | |
| KRY50SP-1 | 2026-09-04 06:29:24 | 51.29066 | 16.39440 | 131° | 141km/h | 9747m | -2.3m/s | -38.5°C | 53.9% | 290.3hPa | 2.6V | 00:00:00 | 00:00:00 | 00:00:00 | |
| SQ6EMJ | 2026-09-04 06:29:20 | 51.29160 | 16.39270 | 133° | 139km/h | 9756m | -2.3m/s | -38.6°C | 54.3% | 289.9hPa | 2.6V | 00:00:00 | 00:00:00 | 00:00:00 | |
| SP3BTT-10 | 2026-09-04 06:29:18 | 51.29230 | 16.39148 | 133° | 130km/h | 9763m | -2.2m/s | -38.7°C | 60.9% | 289.6hPa | 2.6V | 00:00:00 | 00:00:00 | 00:00:00 | |
| SP6BVK | 2026-09-04 06:29:16 | 51.29253 | 16.39108 | 134° | 133km/h | 9765m | -2.3m/s | -38.9°C | 54.9% | 289.5hPa | 2.5V | 00:00:00 | 00:00:00 | 00:00:00 | |
| SP3WXH-11 | 2026-09-04 06:29:15 | 51.29320 | 16.38992 | 131° | 128km/h | 9772m | -2.2m/s | -39.1°C | 54.3% | 289.2hPa | 2.5V | 00:00:00 | 00:00:00 | 00:00:00 | |
| KRY50SP-1 | 2026-09-04 06:29:13 | 51.29320 | 16.38992 | 133° | 128km/h | 9772m | -2.2m/s | -39.1°C | 54.4% | 289.2hPa | 2.5V | 00:00:00 | 00:00:00 | 00:00:00 | |
| OE3JTB-15 | 2026-09-04 06:29:11 | 51.29383 | 16.38876 | 131° | 137km/h | 9779m | -2.3m/s | -39.1°C | 58.9% | 288.9hPa | 2.5V | 00:00:00 | 02:19:18 | 00:00:00 | |
| SQ6EMJ | 2026-09-04 06:29:10 | 51.29404 | 16.38837 | 131° | 126km/h | 9781m | -2.3m/s | -39.1°C | 52.6% | 288.9hPa | 2.5V | 00:00:00 | 00:00:00 | 00:00:00 | |
| EDDB2-12 | 2026-09-04 06:29:08 | 51.29444 | 16.38758 | 128° | 126km/h | 9786m | -2.3m/s | -39.1°C | 52.6% | 288.7hPa | 2.5V | 00:00:00 | 00:00:00 | 00:00:00 | |
| SQ6EMJ | 2026-09-04 06:29:04 | 51.29524 | 16.38591 | 128° | 133km/h | 9794m | -2.1m/s | -38.9°C | 52.2% | 288.3hPa | 2.5V | 00:00:00 | 00:00:00 | 00:00:00 | |
| KRY50SP-1 | 2026-09-04 06:29:02 | 51.29544 | 16.38548 | 128° | 135km/h | 9797m | -2.1m/s | -38.9°C | 52.1% | 288.2hPa | 2.5V | 00:00:00 | 00:00:00 | 00:00:00 | |
| SQ6EMJ | 2026-09-04 06:28:59 | 51.29627 | 16.38371 | 128° | 139km/h | 9805m | -2.1m/s | -39.0°C | 52.2% | 287.9hPa | 2.5V | 00:00:00 | 00:00:00 | 00:00:00 | |
| SP6BVK | 2026-09-04 06:28:56 | 51.29670 | 16.38281 | 128° | 141km/h | 9809m | -2.2m/s | -39.1°C | 52.4% | 287.7hPa | 2.5V | 00:00:00 | 00:00:00 | 00:00:00 | |
| DL2RXE-15 | 2026-09-04 06:28:55 | 51.29692 | 16.38235 | 128° | 142km/h | 9811m | -2.2m/s | -39.1°C | 52.6% | 287.5hPa | 2.5V | 00:00:00 | 00:00:00 | 00:00:00 | |
| SQ6EMJ | 2026-09-04 06:28:52 | 51.29758 | 16.38099 | 129° | 144km/h | 9818m | -2.2m/s | -39.2°C | 52.4% | 287.3hPa | 2.5V | 00:00:00 | 00:00:00 | 00:00:00 | |
| KRY50SP-1 | 2026-09-04 06:28:51 | 51.29780 | 16.38053 | 130° | 144km/h | 9820m | -2.3m/s | -39.2°C | 52.6% | 287.2hPa | 2.5V | 00:00:00 | 00:00:00 | 00:00:00 | |
| POL2MAQ | 2026-09-04 06:28:49 | 51.29827 | 16.37964 | 132° | 144km/h | 9825m | -2.2m/s | -39.1°C | 51.8% | 287.0hPa | 2.5V | 00:00:00 | 00:00:00 | 00:00:00 | |
| SQ6EMJ | 2026-09-04 06:28:47 | 51.29898 | 16.37836 | 133° | 141km/h | 9831m | -2.0m/s | -39.2°C | 51.2% | 286.8hPa | 2.5V | 00:00:00 | 00:00:00 | 00:00:00 | |
| KRY50SP-1 | 2026-09-04 06:28:45 | 51.29922 | 16.37794 | 134° | 139km/h | 9833m | -2.1m/s | -39.3°C | 51.5% | 286.7hPa | 2.5V | 00:00:00 | 00:00:00 | 00:00:00 | |
| SP3WXH-11 | 2026-09-04 06:28:44 | 51.29992 | 16.37673 | 132° | 131km/h | 9840m | -2.0m/s | -39.5°C | 52.6% | 286.4hPa | 2.5V | 00:00:00 | 00:00:00 | 00:00:00 | |
| SQ6EMJ | 2026-09-04 06:28:42 | 51.30014 | 16.37634 | 133° | 131km/h | 9842m | -2.0m/s | -39.5°C | 53.1% | 286.3hPa | 2.5V | 00:00:00 | 00:00:00 | 00:00:00 | |
| KRY50SP-1 | 2026-09-04 06:28:40 | 51.30036 | 16.37594 | 132° | 130km/h | 9844m | -2.1m/s | -39.5°C | 52.7% | 286.3hPa | 2.5V | 00:00:00 | 00:00:00 | 00:00:00 | |
| EDDB2-12 | 2026-09-04 06:28:37 | 51.30121 | 16.37435 | 129° | 128km/h | 9852m | -2.2m/s | -39.4°C | 50.3% | 285.9hPa | 2.5V | 00:00:00 | 00:00:00 | 00:00:00 | |
| SQ6EMJ | 2026-09-04 06:28:36 | 51.30141 | 16.37395 | 129° | 128km/h | 9854m | -2.1m/s | -39.3°C | 49.2% | 285.9hPa | 2.5V | 00:00:00 | 00:00:00 | 00:00:00 | |
| SP6BVK | 2026-09-04 06:28:35 | 51.30141 | 16.37395 | 129° | 128km/h | 9854m | -2.1m/s | -39.3°C | 49.2% | 285.9hPa | 2.5V | 00:00:00 | 00:00:00 | 00:00:00 | |
| SP3BTT-10 | 2026-09-04 06:28:33 | 51.30200 | 16.37271 | 127° | 131km/h | 9861m | -2.1m/s | -39.3°C | 53.5% | 285.5hPa | 2.5V | 00:00:00 | 00:00:00 | 00:00:00 | |
| SONDE2-11 | 2026-09-04 06:28:31 | 51.30240 | 16.37185 | 125° | 131km/h | 9865m | -2.1m/s | -39.4°C | 48.3% | 285.3hPa | 2.5V | 00:00:00 | 00:00:00 | 00:00:00 | |
| KRY50SP-1 | 2026-09-04 06:28:30 | 51.30240 | 16.37185 | 127° | 133km/h | 9865m | -2.1m/s | -39.4°C | 48.3% | 285.3hPa | 2.5V | 00:00:00 | 00:00:00 | 00:00:00 | |
| POL2MAQ | 2026-09-04 06:28:29 | 51.30260 | 16.37141 | 127° | 135km/h | 9867m | -2.2m/s | -39.4°C | 47.9% | 285.3hPa | 2.5V | 00:00:00 | 00:00:00 | 00:00:00 | |
| DL2RXE-15 | 2026-09-04 06:28:26 | 51.30342 | 16.36960 | 128° | 142km/h | 9875m | -2.1m/s | -39.5°C | 49.7% | 284.9hPa | 2.5V | 00:00:00 | 00:00:00 | 00:00:00 | |
| KRY50SP-1 | 2026-09-04 06:28:24 | 51.30364 | 16.36914 | 128° | 142km/h | 9877m | -1.9m/s | -39.5°C | 49.9% | 284.8hPa | 2.5V | 00:00:00 | 00:00:00 | 00:00:00 | |
| SQ6EMJ | 2026-09-04 06:28:23 | 51.30386 | 16.36868 | 129° | 144km/h | 9879m | -2.1m/s | -39.6°C | 50.9% | 284.8hPa | 2.5V | 00:00:00 | 00:00:00 | 00:00:00 | |
| KRY50SP-1 | 2026-09-04 06:28:18 | 51.30503 | 16.36645 | 133° | 142km/h | 9890m | -2.1m/s | -39.6°C | 50.9% | 284.3hPa | 2.5V | 00:00:00 | 00:00:00 | 00:00:00 | |
| EDDB2-11 | 2026-09-04 06:28:16 | 51.30576 | 16.36520 | 132° | 137km/h | 9896m | -2.1m/s | -39.7°C | 51.1% | 284.1hPa | 2.5V | 00:00:00 | 00:00:00 | 00:00:00 | |
| SP6BVK | 2026-09-04 06:28:14 | 51.30599 | 16.36479 | 134° | 137km/h | 9898m | -2.1m/s | -39.7°C | 51.8% | 284.0hPa | 2.5V | 00:00:00 | 00:00:00 | 00:00:00 | |
| OE3JTB-15 | 2026-09-04 06:28:13 | 51.30646 | 16.36399 | 133° | 139km/h | 9903m | -2.1m/s | -39.8°C | 58.0% | 283.7hPa | 2.5V | 00:00:00 | 00:00:00 | 00:00:00 | |
| KRY50SP-1 | 2026-09-04 06:28:12 | 51.30646 | 16.36399 | 134° | 133km/h | 9903m | -2.2m/s | -39.8°C | 52.3% | 283.7hPa | 2.5V | 00:00:00 | 00:00:00 | 00:00:00 | |
| POL2MAQ | 2026-09-04 06:28:08 | 51.30734 | 16.36241 | 132° | 130km/h | 9911m | -2.1m/s | -39.8°C | 51.8% | 283.4hPa | 2.5V | 00:00:00 | 00:00:00 | 00:00:00 | |
| KRY50SP-1 | 2026-09-04 06:28:07 | 51.30755 | 16.36201 | 131° | 128km/h | 9913m | -2.1m/s | -39.9°C | 51.8% | 283.4hPa | 2.5V | 00:00:00 | 00:00:00 | 00:00:00 | |
| EDDB2-12 | 2026-09-04 06:28:06 | 51.30796 | 16.36121 | 128° | 128km/h | 9917m | -2.2m/s | -40.0°C | 50.8% | 283.2hPa | 2.5V | 00:00:00 | 00:00:00 | 00:00:00 | |
| DL2RXE-15 | 2026-09-04 06:28:05 | 51.30796 | 16.36121 | 130° | 130km/h | 9918m | -2.2m/s | -40.0°C | 50.8% | 283.2hPa | 2.5V | 00:00:00 | 00:00:00 | 00:00:00 | |
| SP3BTT-10 | 2026-09-04 06:28:03 | 51.30856 | 16.35996 | 127° | 133km/h | 9924m | -2.0m/s | -40.0°C | 55.2% | 282.8hPa | 2.5V | 00:00:00 | 00:00:00 | 00:00:00 | |
| SONDE2-11 | 2026-09-04 06:28:00 | 51.30918 | 16.35864 | 126° | 137km/h | 9930m | -2.2m/s | -40.0°C | 48.5% | 282.6hPa | 2.5V | 00:00:00 | 00:00:00 | 00:00:00 | |
| EDDB2-11 | 2026-09-04 06:27:45 | 51.31261 | 16.35190 | 132° | 139km/h | 9962m | -2.1m/s | -40.2°C | 48.2% | 281.4hPa | 2.5V | 00:00:00 | 00:00:00 | 00:00:00 | |
| OE3JTB-15 | 2026-09-04 06:27:44 | 51.31285 | 16.35149 | 133° | 139km/h | 9964m | -2.1m/s | -40.2°C | 54.1% | 281.2hPa | 2.5V | 00:00:00 | 02:17:51 | 00:00:00 | |
| SP3WXH-11 | 2026-09-04 06:27:42 | 51.31354 | 16.35029 | 131° | 131km/h | 9970m | -2.0m/s | -40.4°C | 49.7% | 281.0hPa | 2.5V | 00:00:00 | 00:00:00 | 00:00:00 | |
| KRY50SP-1 | 2026-09-04 06:27:38 | 51.31398 | 16.34949 | 131° | 131km/h | 9975m | -2.1m/s | -40.6°C | 50.1% | 280.8hPa | 2.5V | 00:00:00 | 00:00:00 | 00:00:00 | |
| EDDB2-12 | 2026-09-04 06:27:35 | 51.31481 | 16.34785 | 127° | 130km/h | 9983m | -2.0m/s | -40.4°C | 47.8% | 280.5hPa | 2.5V | 00:00:00 | 00:00:00 | 00:00:00 | |
| SP3BTT-10 | 2026-09-04 06:27:33 | 51.31521 | 16.34699 | 127° | 141km/h | 9987m | -2.1m/s | -40.3°C | 53.0% | 280.2hPa | 2.5V | 00:00:00 | 00:00:00 | 00:00:00 | |
| SP6BVK | 2026-09-04 06:27:32 | 51.31521 | 16.34699 | 127° | 133km/h | 9987m | -2.2m/s | -40.4°C | 47.5% | 280.3hPa | 2.5V | 00:00:00 | 00:00:00 | 00:00:00 | |
| SONDE2-11 | 2026-09-04 06:27:29 | 51.31602 | 16.34520 | 125° | 141km/h | 9995m | -2.2m/s | -40.4°C | 47.5% | 279.9hPa | 2.5V | 00:00:00 | 00:00:00 | 00:00:00 | |
| 13BRC | 2026-09-04 06:27:27 | 51.31623 | 16.34473 | 127° | 142km/h | 9998m | -2.2m/s | -40.5°C | 48.0% | 279.9hPa | 2.5V | 00:00:00 | 00:00:00 | 00:00:00 | |
| POL2MAQ | 2026-09-04 06:27:26 | 51.31644 | 16.34426 | 127° | 144km/h | 10000m | -2.2m/s | -40.5°C | 48.5% | 279.7hPa | 2.5V | 00:00:00 | 00:00:00 | 00:00:00 | |
| KRY50SP-1 | 2026-09-04 06:27:22 | 51.31735 | 16.34237 | 130° | 150km/h | 10008m | -2.1m/s | -40.5°C | 49.0% | 279.4hPa | 2.5V | 00:00:00 | 00:00:00 | 00:00:00 | |
| KRY50SP-1 | 2026-09-04 06:27:16 | 51.31882 | 16.33975 | 134° | 139km/h | 10021m | -2.1m/s | -40.7°C | 48.4% | 278.9hPa | 2.5V | 00:00:00 | 00:00:00 | 00:00:00 | |
| OE3JTB-15 | 2026-09-04 06:27:15 | 51.31929 | 16.33895 | 133° | 141km/h | 10025m | -2.0m/s | -40.7°C | 54.1% | 278.6hPa | 2.5V | 00:00:00 | 00:00:00 | 08:30:00 | |
| EDDB2-11 | 2026-09-04 06:27:14 | 51.31952 | 16.33855 | 131° | 131km/h | 10027m | -2.1m/s | -40.8°C | 48.9% | 278.6hPa | 2.6V | 00:00:00 | 00:00:00 | 00:00:00 | |
| SP6BVK | 2026-09-04 06:27:12 | 51.31973 | 16.33815 | 132° | 131km/h | 10030m | -2.1m/s | -40.8°C | 48.9% | 278.5hPa | 2.6V | 00:00:00 | 00:00:00 | 00:00:00 | |
| DL2RXE-15 | 2026-09-04 06:27:10 | 51.32016 | 16.33734 | 130° | 131km/h | 10034m | -2.1m/s | -40.8°C | 48.0% | 278.3hPa | 2.6V | 00:00:00 | 00:00:00 | 00:00:00 | |
| POL2MAQ | 2026-09-04 06:27:06 | 51.32097 | 16.33561 | 127° | 139km/h | 10042m | -2.1m/s | -40.8°C | 47.6% | 278.1hPa | 2.6V | 00:00:00 | 00:00:00 | 00:00:00 | |
| EDDB2-12 | 2026-09-04 06:27:04 | 51.32160 | 16.33422 | 126° | 144km/h | 10048m | -2.2m/s | -40.9°C | 48.1% | 277.8hPa | 2.6V | 00:00:00 | 00:00:00 | 00:00:00 | |
| KRY50SP-1 | 2026-09-04 06:26:58 | 51.32276 | 16.33184 | 131° | 151km/h | 10059m | -2.2m/s | -41.0°C | 49.2% | 277.4hPa | 2.6V | 00:00:00 | 00:00:00 | 00:00:00 | |
| KRY50SP-1 | 2026-09-04 06:26:53 | 51.32401 | 16.32959 | 134° | 144km/h | 10070m | -2.2m/s | -41.1°C | 48.3% | 276.9hPa | 2.6V | 00:00:00 | 00:00:00 | 00:00:00 | |
| SP6BVK | 2026-09-04 06:26:51 | 51.32450 | 16.32875 | 133° | 139km/h | 10074m | -2.1m/s | -41.2°C | 49.0% | 276.8hPa | 2.6V | 00:00:00 | 00:00:00 | 00:00:00 | |
| DL2RXE-15 | 2026-09-04 06:26:49 | 51.32496 | 16.32792 | 131° | 135km/h | 10078m | -2.2m/s | -41.5°C | 49.7% | 276.6hPa | 2.6V | 00:00:00 | 00:00:00 | 00:00:00 | |
| SP3BTT-10 | 2026-09-04 06:26:48 | 51.32540 | 16.32708 | 129° | 139km/h | 10082m | -2.1m/s | -41.5°C | 54.9% | 276.4hPa | 2.6V | 00:00:00 | 00:00:00 | 00:00:00 | |
| OE3JTB-15 | 2026-09-04 06:26:46 | 51.32582 | 16.32622 | 128° | 144km/h | 10087m | -2.1m/s | -41.4°C | 53.9% | 276.1hPa | 2.6V | 00:00:00 | 00:00:00 | 00:00:00 | |
| POL2MAQ | 2026-09-04 06:26:45 | 51.32582 | 16.32622 | 129° | 135km/h | 10087m | -2.2m/s | -41.4°C | 48.2% | 276.2hPa | 2.6V | 00:00:00 | 00:00:00 | 00:00:00 | |
| KRY50SP-1 | 2026-09-04 06:26:43 | 51.32644 | 16.32491 | 127° | 137km/h | 10093m | -2.3m/s | -41.3°C | 47.9% | 275.9hPa | 2.6V | 00:00:00 | 00:00:00 | 00:00:00 | |
| SP3WXH-11 | 2026-09-04 06:26:39 | 51.32729 | 16.32307 | 126° | 144km/h | 10102m | -2.2m/s | -41.3°C | 49.0% | 275.6hPa | 2.6V | 00:00:00 | 00:00:00 | 00:00:00 | |
| KRY50SP-1 | 2026-09-04 06:26:36 | 51.32773 | 16.32211 | 128° | 150km/h | 10107m | -2.2m/s | -41.4°C | 50.2% | 275.4hPa | 2.6V | 00:00:00 | 00:00:00 | 00:00:00 | |
| EDDB2-12 | 2026-09-04 06:26:33 | 51.32867 | 16.32020 | 129° | 151km/h | 10115m | -2.3m/s | -41.5°C | 51.6% | 275.1hPa | 2.6V | 00:00:00 | 00:00:00 | 00:00:00 | |
| KRY50SP-1 | 2026-09-04 06:26:31 | 51.32891 | 16.31973 | 131° | 151km/h | 10118m | -2.3m/s | -41.4°C | 51.0% | 275.0hPa | 2.6V | 00:00:00 | 00:00:00 | 00:00:00 | |
| SP6BVK | 2026-09-04 06:26:30 | 51.32917 | 16.31927 | 132° | 151km/h | 10120m | -2.2m/s | -41.5°C | 51.1% | 274.9hPa | 2.6V | 00:00:00 | 00:00:00 | 00:00:00 | |
| DB0DAN | 2026-09-04 06:26:25 | 51.33069 | 16.31664 | 134° | 135km/h | 10134m | -2.3m/s | -41.7°C | 51.4% | 274.29hPa | 2.6V | 00:00:00 | 00:00:00 | 00:00:00 | |
| 13BRC | 2026-09-04 06:26:24 | 51.33069 | 16.31664 | 135° | 142km/h | 10134m | -2.3m/s | -41.7°C | 51.4% | 274.3hPa | 2.5V | 00:00:00 | 00:00:00 | 00:00:00 | |
| KRY50SP-1 | 2026-09-04 06:26:19 | 51.33184 | 16.31456 | 130° | 137km/h | 10145m | -2.1m/s | -42.0°C | 53.4% | 273.8hPa | 2.5V | 00:00:00 | 00:00:00 | 00:00:00 | |
| SP3BTT-10 | 2026-09-04 06:26:18 | 51.33227 | 16.31369 | 128° | 148km/h | 10150m | -2.2m/s | -42.0°C | 59.7% | 273.6hPa | 2.5V | 00:00:00 | 00:00:00 | 00:00:00 | |
| SQ6EMJ | 2026-09-04 06:26:17 | 51.33249 | 16.31324 | 128° | 141km/h | 10152m | -2.2m/s | -42.0°C | 53.1% | 273.6hPa | 2.5V | 00:00:00 | 00:00:00 | 00:00:00 | |
| KRY50SP-1 | 2026-09-04 06:26:13 | 51.33315 | 16.31186 | 128° | 144km/h | 10158m | -2.2m/s | -42.1°C | 53.2% | 273.3hPa | 2.5V | 00:00:00 | 00:00:00 | 00:00:00 | |
| DB0DAN | 2026-09-04 06:26:10 | 51.33406 | 16.30998 | 129° | 142km/h | 10167m | -2.2m/s | -42.1°C | 51.6% | 272.96hPa | 2.5V | 00:00:00 | 00:00:00 | 00:00:00 | |
| SP3WXH-11 | 2026-09-04 06:26:08 | 51.33455 | 16.30904 | 129° | 150km/h | 10171m | -2.2m/s | -42.0°C | 49.8% | 272.8hPa | 2.6V | 00:00:00 | 00:00:00 | 00:00:00 | |
| KRY50SP-1 | 2026-09-04 06:26:07 | 51.33455 | 16.30904 | 130° | 151km/h | 10171m | -2.2m/s | -42.0°C | 49.8% | 272.8hPa | 2.6V | 00:00:00 | 00:00:00 | 00:00:00 | |
| SQ6EMJ | 2026-09-04 06:26:05 | 51.33504 | 16.30810 | 131° | 151km/h | 10176m | -2.1m/s | -41.9°C | 48.6% | 272.6hPa | 2.6V | 00:00:00 | 00:00:00 | 00:00:00 | |
| POL2MAQ | 2026-09-04 06:26:04 | 51.33529 | 16.30763 | 132° | 151km/h | 10178m | -2.2m/s | -41.9°C | 48.2% | 272.5hPa | 2.6V | 00:00:00 | 00:00:00 | 00:00:00 | |
| 13BRC | 2026-09-04 06:26:03 | 51.33554 | 16.30717 | 132° | 151km/h | 10180m | -2.2m/s | -42.0°C | 48.9% | 272.5hPa | 2.6V | 00:00:00 | 00:00:00 | 00:00:00 | |
| EDDB2-12 | 2026-09-04 06:26:02 | 51.33605 | 16.30626 | 131° | 148km/h | 10184m | -2.2m/s | -42.0°C | 49.2% | 272.2hPa | 2.6V | 00:00:00 | 00:00:00 | 00:00:00 | |
| SONDE2-11 | 2026-09-04 06:25:56 | 51.33754 | 16.30367 | 133° | 142km/h | 10197m | -2.1m/s | -42.2°C | 47.0% | 271.7hPa | 2.6V | 00:00:00 | 00:00:00 | 00:00:00 | |
| DB0DAN | 2026-09-04 06:25:55 | 51.33779 | 16.30325 | 133° | 137km/h | 10199m | -2.3m/s | -42.2°C | 46.2% | 271.67hPa | 2.6V | 00:00:00 | 00:00:00 | 00:00:00 | |
| KRY50SP-1 | 2026-09-04 06:25:51 | 51.33879 | 16.30155 | 134° | 146km/h | 10208m | -2.2m/s | -42.2°C | 42.9% | 271.3hPa | 2.6V | 00:00:00 | 00:00:00 | 00:00:00 | |
| SP6BVK | 2026-09-04 06:25:49 | 51.33904 | 16.30112 | 134° | 146km/h | 10210m | -2.2m/s | -42.3°C | 42.5% | 271.2hPa | 2.6V | 00:00:00 | 00:00:00 | 00:00:00 | |
| OE3JTB-15 | 2026-09-04 06:25:48 | 51.33955 | 16.30025 | 133° | 150km/h | 10215m | -2.0m/s | -42.2°C | 48.5% | 271.0hPa | 2.6V | 00:00:00 | 00:00:00 | 00:00:00 | |
| KRY50SP-1 | 2026-09-04 06:25:45 | 51.34006 | 16.29937 | 133° | 150km/h | 10219m | -2.2m/s | -42.3°C | 43.9% | 270.8hPa | 2.5V | 00:00:00 | 00:00:00 | 00:00:00 | |
| POL2MAQ | 2026-09-04 06:25:43 | 51.34057 | 16.29847 | 133° | 150km/h | 10223m | -2.2m/s | -42.3°C | 44.7% | 270.7hPa | 2.5V | 00:00:00 | 00:00:00 | 00:00:00 | |
| 13BRC | 2026-09-04 06:25:42 | 51.34082 | 16.29802 | 133° | 150km/h | 10225m | -2.1m/s | -42.3°C | 44.9% | 270.6hPa | 2.5V | 00:00:00 | 00:00:00 | 00:00:00 | |
| DB0DAN | 2026-09-04 06:25:40 | 51.34158 | 16.29668 | 132° | 142km/h | 10231m | -2.2m/s | -42.3°C | 44.9% | 270.33hPa | 2.5V | 00:00:00 | 00:00:00 | 00:00:00 | |
| SP3WXH-11 | 2026-09-04 06:25:37 | 51.34236 | 16.29533 | 132° | 151km/h | 10238m | -2.2m/s | -42.4°C | 44.6% | 270.1hPa | 2.5V | 00:00:00 | 00:00:00 | 00:00:00 | |
| KRY50SP-1 | 2026-09-04 06:25:34 | 51.34287 | 16.29441 | 133° | 153km/h | 10242m | -2.1m/s | -42.4°C | 44.6% | 269.9hPa | 2.5V | 00:00:00 | 00:00:00 | 00:00:00 | |
| SP3BTT-10 | 2026-09-04 06:25:33 | 51.34339 | 16.29347 | 131° | 148km/h | 10246m | -2.2m/s | -42.4°C | 50.6% | 269.7hPa | 2.5V | 00:00:00 | 00:00:00 | 08:30:00 | |
| EDDB2-12 | 2026-09-04 06:25:31 | 51.34389 | 16.29253 | 129° | 151km/h | 10251m | -2.2m/s | -42.5°C | 46.0% | 269.6hPa | 2.5V | 00:00:00 | 00:00:00 | 00:00:00 | |
| SP6BVK | 2026-09-04 06:25:28 | 51.34438 | 16.29158 | 130° | 151km/h | 10255m | -2.1m/s | -42.7°C | 47.1% | 269.4hPa | 2.5V | 00:00:00 | 00:00:00 | 00:00:00 | |
| DB0DAN | 2026-09-04 06:25:25 | 51.34532 | 16.28971 | 129° | 141km/h | 10263m | -2m/s | -42.8°C | 48.9% | 269.11hPa | 2.5V | 00:00:00 | 00:00:00 | 00:00:00 | |
| SONDE2-11 | 2026-09-04 06:25:25 | 51.34532 | 16.28971 | 128° | 146km/h | 10263m | -2.0m/s | -42.8°C | 48.9% | 269.1hPa | 2.5V | 00:00:00 | 00:00:00 | 00:00:00 | |
| POL2MAQ | 2026-09-04 06:25:23 | 51.34555 | 16.28925 | 129° | 146km/h | 10265m | -2.0m/s | -42.7°C | 48.7% | 269.0hPa | 2.5V | 00:00:00 | 00:00:00 | 00:00:00 | |
| 13BRC | 2026-09-04 06:25:21 | 51.34601 | 16.28832 | 129° | 146km/h | 10269m | -2.1m/s | -42.6°C | 48.7% | 268.8hPa | 2.5V | 00:00:00 | 00:00:00 | 00:00:00 | |
| OE3JTB-15 | 2026-09-04 06:25:19 | 51.34667 | 16.28692 | 128° | 146km/h | 10276m | -2.2m/s | -42.6°C | 54.1% | 268.6hPa | 2.5V | 00:00:00 | 00:00:00 | 00:00:00 | |
| KRY50SP-1 | 2026-09-04 06:25:17 | 51.34689 | 16.28645 | 128° | 142km/h | 10278m | -2.2m/s | -42.6°C | 48.0% | 268.5hPa | 2.5V | 00:00:00 | 00:00:00 | 00:00:00 | |
| DB0DAN | 2026-09-04 06:25:10 | 51.34869 | 16.28302 | 133° | 133km/h | 10295m | -2.2m/s | -42.9°C | 48.4% | 267.83hPa | 2.5V | 00:00:00 | 00:00:00 | 00:00:00 | |
| EDDB2-11 | 2026-09-04 06:25:10 | 51.34869 | 16.28302 | 133° | 141km/h | 10295m | -2.2m/s | -42.9°C | 48.4% | 267.8hPa | 2.5V | 00:00:00 | 00:00:00 | 00:00:00 | |
| SP6BVK | 2026-09-04 06:25:07 | 51.34919 | 16.28219 | 135° | 146km/h | 10299m | -2.0m/s | -43.0°C | 47.7% | 267.7hPa | 2.5V | 00:00:00 | 00:00:00 | 00:00:00 | |
| SP3WXH-11 | 2026-09-04 06:25:06 | 51.34971 | 16.28133 | 133° | 150km/h | 10303m | -2.1m/s | -43.0°C | 46.8% | 267.4hPa | 2.5V | 00:00:00 | 00:00:00 | 00:00:00 | |
| KRY50SP-1 | 2026-09-04 06:25:05 | 51.34971 | 16.28133 | 135° | 150km/h | 10303m | -2.1m/s | -43.0°C | 46.8% | 267.5hPa | 2.5V | 00:00:00 | 00:00:00 | 00:00:00 | |
| SP3BTT-10 | 2026-09-04 06:25:03 | 51.35049 | 16.27997 | 133° | 150km/h | 10309m | -2.1m/s | -42.8°C | 51.5% | 267.2hPa | 2.5V | 00:00:00 | 00:00:00 | 00:00:00 | |
| POL2MAQ | 2026-09-04 06:25:02 | 51.35049 | 16.27997 | 133° | 155km/h | 10309m | -2.2m/s | -42.9°C | 45.7% | 267.3hPa | 2.5V | 00:00:00 | 00:00:00 | 00:00:00 | |
| EDDB2-12 | 2026-09-04 06:25:00 | 51.35127 | 16.27856 | 129° | 155km/h | 10315m | -2.1m/s | -43.0°C | 45.4% | 267.0hPa | 2.5V | 00:00:00 | 00:00:00 | 00:00:00 | |
| SONDE2-11 | 2026-09-04 06:24:54 | 51.35269 | 16.27567 | 127° | 144km/h | 10328m | -2.0m/s | -43.0°C | 44.5% | 266.5hPa | 2.5V | 00:00:00 | 00:00:00 | 00:00:00 | |
| OE3JTB-15 | 2026-09-04 06:24:50 | 51.35357 | 16.27386 | 130° | 148km/h | 10336m | -2.1m/s | -43.2°C | 51.6% | 266.1hPa | 2.5V | 00:00:00 | 02:14:57 | 00:00:00 | |
| SP6BVK | 2026-09-04 06:24:46 | 51.35426 | 16.27258 | 133° | 141km/h | 10342m | -1.9m/s | -43.3°C | 46.9% | 265.9hPa | 2.5V | 00:00:00 | 00:00:00 | 00:00:00 | |
| KRY50SP-1 | 2026-09-04 06:24:44 | 51.35474 | 16.27174 | 134° | 142km/h | 10346m | -2.0m/s | -43.3°C | 46.9% | 265.8hPa | 2.5V | 00:00:00 | 00:00:00 | 00:00:00 | |
| AM1SDL-15 | 2026-09-04 06:24:42 | 51.35549 | 16.27047 | 134° | 151km/h | 10352m | -2.0m/s | 0°C | 0% | 0hPa | 2.5V | 00:00:00 | 02:14:49 | 00:00:00 | |
| POL2MAQ | 2026-09-04 06:24:41 | 51.35549 | 16.27047 | 135° | 146km/h | 10352m | -2.0m/s | -43.3°C | 45.8% | 265.6hPa | 2.5V | 00:00:00 | 00:00:00 | 00:00:00 | |
| EDDB2-11 | 2026-09-04 06:24:39 | 51.35627 | 16.26917 | 133° | 150km/h | 10358m | -2.1m/s | -43.3°C | 45.3% | 265.3hPa | 2.5V | 00:00:00 | 00:00:00 | 00:00:00 | |
| 13BRC | 2026-09-04 06:24:36 | 51.35680 | 16.26827 | 134° | 153km/h | 10362m | -2.1m/s | -43.3°C | 45.3% | 265.1hPa | 2.5V | 00:00:00 | 00:00:00 | 00:00:00 | |
| SP3WXH-11 | 2026-09-04 06:24:35 | 51.35732 | 16.26735 | 131° | 153km/h | 10366m | -1.9m/s | -43.4°C | 46.2% | 265.0hPa | 2.5V | 00:00:00 | 00:00:00 | 00:00:00 | |
| KRY50SP-1 | 2026-09-04 06:24:33 | 51.35758 | 16.26688 | 132° | 153km/h | 10368m | -2.0m/s | -43.4°C | 46.7% | 264.9hPa | 2.5V | 00:00:00 | 00:00:00 | 00:00:00 | |
| KRY50SP-1 | 2026-09-04 06:24:29 | 51.35881 | 16.26450 | 130° | 153km/h | 10378m | -2.0m/s | -43.4°C | 48.5% | 264.5hPa | 2.5V | 00:00:00 | 00:00:00 | 00:00:00 | |
| SP6BVK | 2026-09-04 06:24:26 | 51.35929 | 16.26353 | 129° | 151km/h | 10382m | -2.0m/s | -43.4°C | 48.9% | 264.4hPa | 2.5V | 00:00:00 | 00:00:00 | 00:00:00 | |
| SONDE2-11 | 2026-09-04 06:24:23 | 51.36021 | 16.26159 | 126° | 146km/h | 10389m | -2.1m/s | -43.4°C | 48.7% | 264.0hPa | 2.5V | 00:00:00 | 00:00:00 | 00:00:00 | |
| KRY50SP-1 | 2026-09-04 06:24:22 | 51.36021 | 16.26159 | 128° | 148km/h | 10390m | -2.1m/s | -43.4°C | 48.7% | 264.0hPa | 2.5V | 00:00:00 | 00:00:00 | 00:00:00 | |
| OE3JTB-15 | 2026-09-04 06:24:21 | 51.36065 | 16.26065 | 127° | 146km/h | 10394m | -2.0m/s | -43.4°C | 55.0% | 263.8hPa | 2.5V | 00:00:00 | 00:00:00 | 00:00:00 | |
| KRY50SP-1 | 2026-09-04 06:24:18 | 51.36130 | 16.25930 | 130° | 139km/h | 10400m | -2.0m/s | -43.7°C | 49.1% | 263.6hPa | 2.6V | 00:00:00 | 00:00:00 | 00:00:00 | |
| 13BRC | 2026-09-04 06:24:16 | 51.36153 | 16.25887 | 132° | 139km/h | 10402m | -2.0m/s | -43.8°C | 49.6% | 263.5hPa | 2.6V | 00:00:00 | 00:00:00 | 00:00:00 | |
| KRY50SP-1 | 2026-09-04 06:24:11 | 51.36274 | 16.25677 | 135° | 146km/h | 10412m | -1.9m/s | -43.8°C | 48.6% | 263.1hPa | 2.6V | 00:00:00 | 00:00:00 | 00:00:00 | |
| EDDB2-11 | 2026-09-04 06:24:08 | 51.36378 | 16.25499 | 131° | 153km/h | 10420m | -2.0m/s | -43.8°C | 49.2% | 262.9hPa | 2.6V | 00:00:00 | 00:00:00 | 00:00:00 | |
| SP6BVK | 2026-09-04 06:24:06 | 51.36404 | 16.25452 | 132° | 155km/h | 10422m | -2.0m/s | -43.9°C | 49.8% | 262.8hPa | 2.6V | 00:00:00 | 00:00:00 | 00:00:00 | |
| SP3WXH-11 | 2026-09-04 06:24:04 | 51.36481 | 16.25307 | 128° | 155km/h | 10427m | -1.9m/s | -43.9°C | 51.2% | 262.5hPa | 2.6V | 00:00:00 | 00:00:00 | 00:00:00 | |
| EDDB2-12 | 2026-09-04 06:23:58 | 51.36620 | 16.25014 | 126° | 144km/h | 10439m | -2.0m/s | -44.0°C | 51.2% | 262.0hPa | 2.6V | 00:00:00 | 00:00:00 | 00:00:00 | |
| KRY50SP-1 | 2026-09-04 06:23:56 | 51.36641 | 16.24967 | 127° | 144km/h | 10441m | -2.0m/s | -44.0°C | 50.8% | 262.0hPa | 2.6V | 00:00:00 | 00:00:00 | 00:00:00 | |
| 13BRC | 2026-09-04 06:23:55 | 51.36663 | 16.24921 | 128° | 142km/h | 10443m | -2.1m/s | -44.0°C | 50.5% | 261.9hPa | 2.6V | 00:00:00 | 00:00:00 | 00:00:00 | |
| OE3JTB-15 | 2026-09-04 06:23:52 | 51.36749 | 16.24744 | 130° | 148km/h | 10451m | -1.9m/s | -44.0°C | 56.8% | 261.6hPa | 2.6V | 00:00:00 | 00:00:00 | 00:00:00 | |
| KRY50SP-1 | 2026-09-04 06:23:50 | 51.36772 | 16.24701 | 132° | 139km/h | 10453m | -1.9m/s | -44.2°C | 51.2% | 261.5hPa | 2.6V | 00:00:00 | 00:00:00 | 00:00:00 | |
| SQ6EMJ | 2026-09-04 06:23:49 | 51.36795 | 16.24659 | 133° | 141km/h | 10455m | -2.0m/s | -44.3°C | 51.3% | 261.5hPa | 2.6V | 00:00:00 | 00:00:00 | 00:00:00 | |
| SP3BTT-10 | 2026-09-04 06:23:48 | 51.36843 | 16.24574 | 133° | 142km/h | 10458m | -1.9m/s | -44.4°C | 57.7% | 261.2hPa | 2.6V | 00:00:00 | 00:00:00 | 00:00:00 | |
| SP6BVK | 2026-09-04 06:23:45 | 51.36893 | 16.24487 | 133° | 148km/h | 10462m | -1.8m/s | -44.4°C | 51.3% | 261.1hPa | 2.5V | 00:00:00 | 00:00:00 | 00:00:00 | |
| SQ6EMJ | 2026-09-04 06:23:43 | 51.36944 | 16.24397 | 133° | 151km/h | 10466m | -1.9m/s | -44.4°C | 51.6% | 261.0hPa | 2.5V | 00:00:00 | 00:00:00 | 00:00:00 | |
| KRY50SP-1 | 2026-09-04 06:23:39 | 51.37045 | 16.24208 | 131° | 155km/h | 10473m | -2.0m/s | -44.3°C | 52.1% | 260.7hPa | 2.5V | 00:00:00 | 00:00:00 | 00:00:00 | |
| EDDB2-11 | 2026-09-04 06:23:37 | 51.37119 | 16.24061 | 127° | 155km/h | 10479m | -1.9m/s | -44.3°C | 52.8% | 260.5hPa | 2.5V | 00:00:00 | 00:00:00 | 00:00:00 | |
| 13BRC | 2026-09-04 06:23:35 | 51.37143 | 16.24011 | 128° | 155km/h | 10481m | -2.1m/s | -44.4°C | 52.9% | 260.4hPa | 2.5V | 00:00:00 | 00:00:00 | 00:00:00 | |
| KRY50SP-1 | 2026-09-04 06:23:34 | 51.37166 | 16.23962 | 128° | 153km/h | 10483m | -2.1m/s | -44.3°C | 52.8% | 260.3hPa | 2.5V | 00:00:00 | 00:00:00 | 00:00:00 | |
| SP3WXH-11 | 2026-09-04 06:23:33 | 51.37212 | 16.23863 | 126° | 148km/h | 10487m | -2.1m/s | -44.3°C | 52.7% | 260.1hPa | 2.5V | 00:00:00 | 00:00:00 | 00:00:00 | |
| KRY50SP-1 | 2026-09-04 06:23:29 | 51.37278 | 16.23721 | 128° | 142km/h | 10493m | -1.9m/s | -44.5°C | 52.8% | 259.9hPa | 2.5V | 00:00:00 | 00:00:00 | 00:00:00 | |
| EDDB2-12 | 2026-09-04 06:23:27 | 51.37344 | 16.23587 | 128° | 137km/h | 10499m | -1.9m/s | -44.5°C | 52.2% | 259.7hPa | 2.5V | 00:00:00 | 00:00:00 | 00:00:00 | |
| SP6BVK | 2026-09-04 06:23:25 | 51.37366 | 16.23544 | 130° | 139km/h | 10501m | -1.9m/s | -44.6°C | 52.7% | 259.6hPa | 2.5V | 00:00:00 | 00:00:00 | 00:00:00 | |
| KRY50SP-1 | 2026-09-04 06:23:24 | 51.37388 | 16.23501 | 131° | 137km/h | 10503m | -2.0m/s | -44.6°C | 52.8% | 259.5hPa | 2.5V | 00:00:00 | 00:00:00 | 00:00:00 | |
| SQ6EMJ | 2026-09-04 06:23:23 | 51.37433 | 16.23416 | 132° | 139km/h | 10507m | -2.1m/s | -44.7°C | 53.7% | 259.4hPa | 2.5V | 00:00:00 | 00:00:00 | 00:00:00 | |
| SONDE2-11 | 2026-09-04 06:23:21 | 51.37480 | 16.23331 | 131° | 142km/h | 10511m | -2.0m/s | -44.8°C | 54.0% | 259.2hPa | 2.5V | 00:00:00 | 00:00:00 | 00:00:00 | |
| DL2RXE-15 | 2026-09-04 06:23:19 | 51.37504 | 16.23288 | 133° | 144km/h | 10513m | -2.0m/s | -44.8°C | 54.3% | 259.2hPa | 2.5V | 00:00:00 | 00:00:00 | 00:00:00 | |
| SP3BTT-10 | 2026-09-04 06:23:18 | 51.37554 | 16.23199 | 132° | 142km/h | 10517m | -1.8m/s | -44.9°C | 61.4% | 258.9hPa | 2.5V | 00:00:00 | 00:00:00 | 00:00:00 | |
| 13BRC | 2026-09-04 06:23:15 | 51.37604 | 16.23109 | 133° | 150km/h | 10521m | -1.8m/s | -44.9°C | 53.9% | 258.9hPa | 2.5V | 00:00:00 | 00:00:00 | 00:00:00 | |
| KRY50SP-1 | 2026-09-04 06:23:13 | 51.37654 | 16.23018 | 133° | 150km/h | 10525m | -2.0m/s | -44.9°C | 53.9% | 258.7hPa | 2.5V | 00:00:00 | 00:00:00 | 00:00:00 | |
| KRY50SP-1 | 2026-09-04 06:23:08 | 51.37781 | 16.22793 | 133° | 148km/h | 10535m | -2.1m/s | -45.1°C | 54.7% | 258.3hPa | 2.5V | 00:00:00 | 00:00:00 | 00:00:00 | |
| EDDB2-11 | 2026-09-04 06:23:06 | 51.37856 | 16.22660 | 132° | 146km/h | 10541m | -2.1m/s | -45.1°C | 55.2% | 258.1hPa | 2.5V | 00:00:00 | 00:00:00 | 00:00:00 | |
| SP6BVK | 2026-09-04 06:23:04 | 51.37881 | 16.22616 | 133° | 146km/h | 10543m | -2.1m/s | -45.2°C | 55.5% | 258.0hPa | 2.5V | 00:00:00 | 00:00:00 | 00:00:00 | |
| KRY50SP-1 | 2026-09-04 06:23:03 | 51.37906 | 16.22572 | 133° | 146km/h | 10545m | -2.1m/s | -45.3°C | 56.0% | 257.9hPa | 2.5V | 00:00:00 | 00:00:00 | 00:00:00 | |
| SP3WXH-11 | 2026-09-04 06:23:02 | 51.37956 | 16.22484 | 132° | 146km/h | 10549m | -2.0m/s | -45.3°C | 56.4% | 257.8hPa | 2.5V | 00:00:00 | 00:00:00 | 00:00:00 | |
| EDDB2-12 | 2026-09-04 06:22:56 | 51.38104 | 16.22227 | 132° | 141km/h | 10562m | -2.1m/s | -45.3°C | 56.5% | 257.3hPa | 2.5V | 00:00:00 | 00:00:00 | 00:00:00 | |
| SONDE2-11 | 2026-09-04 06:22:50 | 51.38262 | 16.21930 | 127° | 139km/h | 10577m | -2.1m/s | -45.3°C | 53.5% | 256.7hPa | 2.5V | 00:00:00 | 00:00:00 | 00:00:00 | |
| SP3BTT-10 | 2026-09-04 06:22:48 | 51.38283 | 16.21885 | 127° | 142km/h | 10579m | -2.2m/s | -45.2°C | 60.7% | 256.6hPa | 2.5V | 00:00:00 | 00:00:00 | 00:00:00 | |
| KRY50SP-1 | 2026-09-04 06:22:46 | 51.38304 | 16.21838 | 127° | 144km/h | 10581m | -2.1m/s | -45.3°C | 53.8% | 256.5hPa | 2.5V | 00:00:00 | 00:00:00 | 00:00:00 | |
| SP6BVK | 2026-09-04 06:22:43 | 51.38370 | 16.21694 | 127° | 151km/h | 10588m | -2.2m/s | -45.4°C | 55.9% | 256.3hPa | 2.5V | 00:00:00 | 00:00:00 | 00:00:00 | |
| KRY50SP-1 | 2026-09-04 06:22:41 | 51.38416 | 16.21595 | 129° | 153km/h | 10592m | -2.1m/s | -45.4°C | 56.7% | 256.2hPa | 2.5V | 00:00:00 | 00:00:00 | 00:00:00 | |
| KRY50SP-1 | 2026-09-04 06:22:37 | 51.38541 | 16.21358 | 133° | 150km/h | 10602m | -2.0m/s | -45.6°C | 57.6% | 255.8hPa | 2.5V | 00:00:00 | 00:00:00 | 00:00:00 | |
| POL2MAQ | 2026-09-04 06:22:36 | 51.38541 | 16.21358 | 133° | 150km/h | 10602m | -2.0m/s | -45.6°C | 57.6% | 255.8hPa | 2.5V | 00:00:00 | 00:00:00 | 00:00:00 | |
| EDDB2-11 | 2026-09-04 06:22:35 | 51.38592 | 16.21269 | 132° | 146km/h | 10606m | -2.1m/s | -45.7°C | 57.3% | 255.6hPa | 2.5V | 00:00:00 | 00:00:00 | 00:00:00 | |
| SP3WXH-11 | 2026-09-04 06:22:31 | 51.38690 | 16.21099 | 132° | 139km/h | 10615m | -2.1m/s | -45.7°C | 57.6% | 255.2hPa | 2.5V | 00:00:00 | 00:00:00 | 00:00:00 | |
| DL2RXE-15 | 2026-09-04 06:22:30 | 51.38690 | 16.21099 | 134° | 141km/h | 10615m | -2.1m/s | -45.7°C | 57.6% | 255.2hPa | 2.5V | 00:00:00 | 00:00:00 | 00:00:00 | |
| OE3JTB-15 | 2026-09-04 06:22:25 | 51.38828 | 16.20845 | 129° | 146km/h | 10627m | -2.0m/s | -45.8°C | 65.6% | 254.7hPa | 2.5V | 00:00:00 | 00:00:00 | 00:00:00 | |
| SP6BVK | 2026-09-04 06:22:23 | 51.38849 | 16.20800 | 129° | 141km/h | 10629m | -2.1m/s | -45.8°C | 57.6% | 254.7hPa | 2.5V | 00:00:00 | 00:00:00 | 00:00:00 | |
| KRY50SP-1 | 2026-09-04 06:22:20 | 51.38915 | 16.20664 | 128° | 142km/h | 10635m | -2.2m/s | -45.8°C | 56.7% | 254.4hPa | 2.5V | 00:00:00 | 00:00:00 | 00:00:00 | |
| SONDE2-11 | 2026-09-04 06:22:19 | 51.38958 | 16.20571 | 126° | 144km/h | 10639m | -2.1m/s | -45.8°C | 56.4% | 254.3hPa | 2.5V | 00:00:00 | 00:00:00 | 00:00:00 | |
| SP3BTT-10 | 2026-09-04 06:22:18 | 51.38980 | 16.20523 | 127° | 141km/h | 10642m | -2.0m/s | -45.8°C | 64.2% | 254.1hPa | 2.5V | 00:00:00 | 00:00:00 | 00:00:00 | |
| POL2MAQ | 2026-09-04 06:22:16 | 51.39003 | 16.20475 | 128° | 148km/h | 10644m | -2.1m/s | -45.9°C | 56.9% | 254.1hPa | 2.5V | 00:00:00 | 00:00:00 | 00:00:00 | |
| KRY50SP-1 | 2026-09-04 06:22:15 | 51.39025 | 16.20427 | 128° | 150km/h | 10646m | -2.1m/s | -45.9°C | 57.5% | 254.0hPa | 2.5V | 00:00:00 | 00:00:00 | 00:00:00 | |
| 13BRC | 2026-09-04 06:22:10 | 51.39143 | 16.20186 | 130° | 153km/h | 10656m | -2.1m/s | -46.1°C | 60.7% | 253.7hPa | 2.5V | 00:00:00 | 00:00:00 | 00:00:00 | |
| KRY50SP-1 | 2026-09-04 06:22:09 | 51.39168 | 16.20138 | 131° | 153km/h | 10658m | -2.0m/s | -46.1°C | 61.0% | 253.6hPa | 2.5V | 00:00:00 | 00:00:00 | 00:00:00 | |
| EDDB2-11 | 2026-09-04 06:22:04 | 51.39319 | 16.19864 | 132° | 146km/h | 10670m | -2.2m/s | -46.4°C | 61.8% | 253.1hPa | 2.5V | 00:00:00 | 00:00:00 | 00:00:00 | |
| SP6BVK | 2026-09-04 06:22:02 | 51.39344 | 16.19820 | 133° | 148km/h | 10673m | -2.1m/s | -46.4°C | 62.1% | 253.0hPa | 2.5V | 00:00:00 | 00:00:00 | 00:00:00 | |
| SP3WXH-11 | 2026-09-04 06:22:00 | 51.39419 | 16.19690 | 132° | 142km/h | 10679m | -2.1m/s | -46.4°C | 61.3% | 252.8hPa | 2.5V | 00:00:00 | 00:00:00 | 00:00:00 | |
| SONDE2-11 | 2026-09-04 06:21:48 | 51.39718 | 16.19135 | 127° | 142km/h | 10706m | -2.0m/s | -46.8°C | 66.0% | 251.7hPa | 2.5V | 00:00:00 | 00:00:00 | 00:00:00 | |
| KRY50SP-1 | 2026-09-04 06:21:47 | 51.39696 | 16.19180 | 129° | 142km/h | 10704m | -2.0m/s | -46.7°C | 65.3% | 251.9hPa | 2.5V | 00:00:00 | 00:00:00 | 00:00:00 | |
| DL2RXE-15 | 2026-09-04 06:21:43 | 51.39783 | 16.18996 | 128° | 142km/h | 10712m | -1.9m/s | -46.7°C | 66.2% | 251.5hPa | 2.5V | 00:00:00 | 00:00:00 | 00:00:00 | |
| SP6BVK | 2026-09-04 06:21:42 | 51.39804 | 16.18950 | 127° | 142km/h | 10714m | -2.1m/s | -46.7°C | 65.9% | 251.5hPa | 2.5V | 00:00:00 | 00:00:00 | 00:00:00 | |
| KRY50SP-1 | 2026-09-04 06:21:36 | 51.39931 | 16.18685 | 131° | 135km/h | 10727m | -2.4m/s | -46.8°C | 65.3% | 250.9hPa | 2.5V | 00:00:00 | 00:00:00 | 00:00:00 | |
| POL2MAQ | 2026-09-04 06:21:34 | 51.39975 | 16.18602 | 133° | 137km/h | 10732m | -2.3m/s | -46.9°C | 64.3% | 250.8hPa | 2.5V | 00:00:00 | 00:00:00 | 00:00:00 | |
| EDDB2-11 | 2026-09-04 06:21:33 | 51.40023 | 16.18520 | 133° | 141km/h | 10736m | -1.9m/s | -46.9°C | 62.0% | 250.6hPa | 2.5V | 00:00:00 | 00:00:00 | 00:00:00 | |
| SP3BTT-10 | 2026-09-04 06:21:32 | 51.40048 | 16.18478 | 134° | 148km/h | 10738m | -2.0m/s | -46.8°C | 68.7% | 250.5hPa | 2.5V | 00:00:00 | 00:00:00 | 00:00:00 | |
| KRY50SP-1 | 2026-09-04 06:21:31 | 51.40048 | 16.18478 | 135° | 144km/h | 10738m | -2.1m/s | -46.8°C | 61.0% | 250.6hPa | 2.5V | 00:00:00 | 00:00:00 | 00:00:00 | |
| SP3WXH-11 | 2026-09-04 06:21:29 | 51.40125 | 16.18349 | 133° | 150km/h | 10744m | -2.2m/s | -46.8°C | 60.5% | 250.3hPa | 2.5V | 00:00:00 | 00:00:00 | 00:00:00 | |
| OE3JTB-15 | 2026-09-04 06:21:27 | 51.40177 | 16.18258 | 132° | 151km/h | 10749m | -2.2m/s | -46.8°C | 70.1% | 250.1hPa | 2.5V | 00:00:00 | 00:00:00 | 00:00:00 | |
| KRY50SP-1 | 2026-09-04 06:21:25 | 51.40202 | 16.18211 | 132° | 153km/h | 10751m | -2.1m/s | -46.9°C | 63.1% | 250.1hPa | 2.5V | 00:00:00 | 00:00:00 | 00:00:00 | |
| EDDB2-12 | 2026-09-04 06:21:23 | 51.40298 | 16.18022 | 127° | 146km/h | 10759m | -2.0m/s | -47.2°C | 65.2% | 249.7hPa | 2.5V | 00:00:00 | 00:00:00 | 00:00:00 | |
| SP6BVK | 2026-09-04 06:21:21 | 51.40298 | 16.18022 | 129° | 148km/h | 10759m | -2.0m/s | -47.2°C | 65.2% | 249.7hPa | 2.5V | 00:00:00 | 00:00:00 | 00:00:00 | |
| KRY50SP-1 | 2026-09-04 06:21:20 | 51.40320 | 16.17975 | 129° | 146km/h | 10761m | -2.1m/s | -47.3°C | 64.8% | 249.7hPa | 2.5V | 00:00:00 | 00:00:00 | 00:00:00 | |
| SONDE2-11 | 2026-09-04 06:21:17 | 51.40431 | 16.17744 | 127° | 142km/h | 10771m | -2.1m/s | -47.4°C | 62.5% | 249.3hPa | 2.5V | 00:00:00 | 00:00:00 | 00:00:00 | |
| KRY50SP-1 | 2026-09-04 06:21:14 | 51.40454 | 16.17698 | 129° | 144km/h | 10773m | -2.1m/s | -47.4°C | 62.2% | 249.2hPa | 2.5V | 00:00:00 | 00:00:00 | 00:00:00 | |
| DL2RXE-15 | 2026-09-04 06:21:13 | 51.40476 | 16.17652 | 129° | 144km/h | 10776m | -2.1m/s | -47.4°C | 62.0% | 249.2hPa | 2.5V | 00:00:00 | 00:00:00 | 00:00:00 | |
| KRY50SP-1 | 2026-09-04 06:21:09 | 51.40565 | 16.17467 | 128° | 146km/h | 10784m | -2.1m/s | -47.3°C | 62.9% | 248.8hPa | 2.5V | 00:00:00 | 00:00:00 | 00:00:00 | |
| 13BRC | 2026-09-04 06:21:08 | 51.40588 | 16.17420 | 128° | 146km/h | 10786m | -2.1m/s | -47.3°C | 63.0% | 248.7hPa | 2.5V | 00:00:00 | 00:00:00 | 00:00:00 | |
| KRY50SP-1 | 2026-09-04 06:21:04 | 51.40700 | 16.17181 | 128° | 151km/h | 10797m | -2.2m/s | -47.3°C | 60.9% | 248.3hPa | 2.5V | 00:00:00 | 00:00:00 | 00:00:00 | |
| EDDB2-11 | 2026-09-04 06:21:02 | 51.40772 | 16.17034 | 128° | 155km/h | 10803m | -2.2m/s | -47.4°C | 60.6% | 248.1hPa | 2.5V | 00:00:00 | 00:00:00 | 00:00:00 | |
| SP3WXH-11 | 2026-09-04 06:20:58 | 51.40848 | 16.16889 | 131° | 155km/h | 10810m | -2.2m/s | -47.4°C | 59.9% | 247.8hPa | 2.5V | 00:00:00 | 00:00:00 | 00:00:00 | |
| EDDB2-12 | 2026-09-04 06:20:52 | 51.41027 | 16.16578 | 132° | 141km/h | 10825m | -2.1m/s | -47.9°C | 61.5% | 247.2hPa | 2.5V | 00:00:00 | 00:00:00 | 00:00:00 | |
| SONDE2-11 | 2026-09-04 06:20:46 | 51.41166 | 16.16319 | 129° | 141km/h | 10838m | -2.1m/s | -48.0°C | 61.7% | 246.8hPa | 2.5V | 00:00:00 | 00:00:00 | 00:00:00 | |
| KRY50SP-1 | 2026-09-04 06:20:42 | 51.41212 | 16.16229 | 130° | 144km/h | 10842m | -2.1m/s | -47.9°C | 60.8% | 246.6hPa | 2.5V | 00:00:00 | 00:00:00 | 00:00:00 | |
| SP6BVK | 2026-09-04 06:20:40 | 51.41257 | 16.16138 | 129° | 144km/h | 10846m | -2.2m/s | -47.9°C | 60.8% | 246.5hPa | 2.5V | 00:00:00 | 00:00:00 | 00:00:00 | |
| KRY50SP-1 | 2026-09-04 06:20:37 | 51.41325 | 16.16000 | 128° | 144km/h | 10853m | -2.2m/s | -47.8°C | 59.6% | 246.2hPa | 2.5V | 00:00:00 | 00:00:00 | 00:00:00 | |
| SP3BTT-10 | 2026-09-04 06:20:32 | 51.41459 | 16.15713 | 128° | 157km/h | 10866m | -2.1m/s | -47.9°C | 69.1% | 245.7hPa | 2.5V | 00:00:00 | 00:00:00 | 08:30:00 | |
| EDDB2-11 | 2026-09-04 06:20:31 | 51.41507 | 16.15616 | 128° | 153km/h | 10869m | -2.1m/s | -48.0°C | 62.4% | 245.6hPa | 2.5V | 00:00:00 | 00:00:00 | 00:00:00 | |
| DL2RXE-15 | 2026-09-04 06:20:28 | 51.41532 | 16.15568 | 131° | 155km/h | 10872m | -2.1m/s | -48.0°C | 63.2% | 245.5hPa | 2.5V | 00:00:00 | 00:00:00 | 00:00:00 | |
| SP3WXH-11 | 2026-09-04 06:20:27 | 51.41582 | 16.15472 | 130° | 153km/h | 10876m | -2.0m/s | -48.1°C | 63.5% | 245.4hPa | 2.5V | 00:00:00 | 00:00:00 | 00:00:00 | |
| KRY50SP-1 | 2026-09-04 06:20:26 | 51.41582 | 16.15472 | 132° | 155km/h | 10876m | -2.0m/s | -48.1°C | 63.5% | 245.4hPa | 2.5V | 00:00:00 | 00:00:00 | 00:00:00 | |
| SQ6EMJ | 2026-09-04 06:20:23 | 51.41660 | 16.15332 | 133° | 153km/h | 10882m | -2.2m/s | -48.2°C | 63.1% | 245.1hPa | 2.5V | 00:00:00 | 00:00:00 | 00:00:00 | |
| KRY50SP-1 | 2026-09-04 06:20:20 | 51.41736 | 16.15195 | 133° | 151km/h | 10889m | -2.1m/s | -48.3°C | 63.2% | 244.9hPa | 2.5V | 00:00:00 | 00:00:00 | 00:00:00 | |
| SP6BVK | 2026-09-04 06:20:19 | 51.41762 | 16.15149 | 133° | 151km/h | 10891m | -2.0m/s | -48.3°C | 63.2% | 244.8hPa | 2.5V | 00:00:00 | 00:00:00 | 00:00:00 | |
| POL1PZ | 2026-09-04 06:20:16 | 51.41840 | 16.15012 | 133° | 153km/h | 10897m | -2.1m/s | 0°C | 0% | 0hPa | 2.5V | 00:00:00 | 00:00:00 | 00:00:00 | |
| KRY50SP-1 | 2026-09-04 06:20:15 | 51.41892 | 16.14920 | 133° | 153km/h | 10901m | -2.1m/s | -48.3°C | 60.7% | 244.4hPa | 2.5V | 00:00:00 | 00:00:00 | 00:00:00 | |
| POL2MAQ | 2026-09-04 06:20:12 | 51.41945 | 16.14828 | 134° | 153km/h | 10905m | -2.1m/s | -48.3°C | 60.0% | 244.3hPa | 2.5V | 00:00:00 | 00:00:00 | 00:00:00 | |
| SQ6EMJ | 2026-09-04 06:20:09 | 51.42051 | 16.14642 | 133° | 157km/h | 10914m | -2.2m/s | -48.2°C | 59.0% | 243.9hPa | 2.5V | 00:00:00 | 00:00:00 | 00:00:00 | |
| DL2RXE-15 | 2026-09-04 06:20:08 | 51.42051 | 16.14642 | 133° | 157km/h | 10914m | -2.2m/s | -48.2°C | 59.0% | 243.9hPa | 2.5V | 00:00:00 | 00:00:00 | 00:00:00 | |
| 13BRC | 2026-09-04 06:20:06 | 51.42104 | 16.14546 | 132° | 159km/h | 10919m | -2.1m/s | -48.3°C | 58.3% | 243.8hPa | 2.5V | 00:00:00 | 00:00:00 | 00:00:00 | |
| OE3JTB-15 | 2026-09-04 06:20:05 | 51.42156 | 16.14448 | 130° | 150km/h | 10923m | -2.1m/s | -48.3°C | 67.2% | 243.5hPa | 2.5V | 00:00:00 | 02:10:12 | 00:00:00 | |
| KRY50SP-1 | 2026-09-04 06:20:03 | 51.42182 | 16.14398 | 130° | 159km/h | 10925m | -2.3m/s | -48.4°C | 59.0% | 243.5hPa | 2.5V | 00:00:00 | 00:00:00 | 00:00:00 | |
| EDDB2-11 | 2026-09-04 06:20:00 | 51.42299 | 16.14151 | 126° | 146km/h | 10936m | -2.2m/s | -48.4°C | 57.9% | 243.1hPa | 2.5V | 00:00:00 | 00:00:00 | 00:00:00 | |
| SP3WXH-11 | 2026-09-04 06:19:56 | 51.42366 | 16.14013 | 128° | 141km/h | 10942m | -2.1m/s | -48.5°C | 57.2% | 242.9hPa | 2.5V | 00:00:00 | 00:00:00 | 00:00:00 | |
| EDDB2-12 | 2026-09-04 06:19:50 | 51.42531 | 16.13711 | 133° | 146km/h | 10957m | -2.1m/s | -48.8°C | 57.0% | 242.3hPa | 2.5V | 00:00:00 | 00:00:00 | 00:00:00 | |
| POL1PZ | 2026-09-04 06:19:48 | 51.42531 | 16.13710 | 134° | 146km/h | 10958m | -2.1m/s | 0°C | 0% | 0hPa | 2.5V | 00:00:00 | 00:00:00 | 00:00:00 | |
| KRY50SP-1 | 2026-09-04 06:19:46 | 51.42583 | 16.13623 | 134° | 151km/h | 10962m | -2.1m/s | -48.9°C | 56.7% | 242.1hPa | 2.5V | 00:00:00 | 00:00:00 | 00:00:00 | |
| SONDE2-11 | 2026-09-04 06:19:44 | 51.42687 | 16.13437 | 131° | 155km/h | 10970m | -2.2m/s | -48.8°C | 57.2% | 241.8hPa | 2.5V | 00:00:00 | 00:00:00 | 00:00:00 | |
| KRY50SP-1 | 2026-09-04 06:19:41 | 51.42714 | 16.13389 | 132° | 157km/h | 10972m | -2.2m/s | -48.8°C | 57.8% | 241.7hPa | 2.5V | 00:00:00 | 00:00:00 | 00:00:00 | |
| DL2RXE-15 | 2026-09-04 06:19:39 | 51.42766 | 16.13292 | 131° | 159km/h | 10977m | -2.3m/s | -48.7°C | 57.7% | 241.6hPa | 2.5V | 00:00:00 | 00:00:00 | 00:00:00 | |
| SP6BVK | 2026-09-04 06:19:38 | 51.42792 | 16.13243 | 131° | 159km/h | 10979m | -2.3m/s | -48.8°C | 58.2% | 241.5hPa | 2.5V | 00:00:00 | 00:00:00 | 00:00:00 | |
| OE3JTB-15 | 2026-09-04 06:19:36 | 51.42866 | 16.13094 | 128° | 144km/h | 10986m | -2.2m/s | -48.8°C | 66.5% | 241.2hPa | 2.5V | 00:00:00 | 00:00:00 | 00:00:00 | |
| KRY50SP-1 | 2026-09-04 06:19:35 | 51.42867 | 16.13094 | 129° | 155km/h | 10986m | -2.3m/s | -48.8°C | 58.4% | 241.3hPa | 2.5V | 00:00:00 | 00:00:00 | 00:00:00 | |
| SP3BTT-10 | 2026-09-04 06:19:32 | 51.42959 | 16.12899 | 128° | 142km/h | 10995m | -2.3m/s | -48.8°C | 65.4% | 240.9hPa | 2.5V | 00:00:00 | 00:00:00 | 00:00:00 | |
| KRY50SP-1 | 2026-09-04 06:19:30 | 51.42982 | 16.12853 | 129° | 146km/h | 10997m | -2.3m/s | -48.9°C | 57.5% | 240.8hPa | 2.5V | 00:00:00 | 00:00:00 | 00:00:00 | |
| EDDB2-11 | 2026-09-04 06:19:29 | 51.43049 | 16.12715 | 128° | 142km/h | 11004m | -2.1m/s | -49.0°C | 57.0% | 240.6hPa | 2.5V | 00:00:00 | 00:00:00 | 00:00:00 | |
| 13BRC | 2026-09-04 06:19:26 | 51.43072 | 16.12669 | 130° | 142km/h | 11006m | -2.3m/s | -49.1°C | 57.3% | 240.5hPa | 2.5V | 00:00:00 | 00:00:00 | 00:00:00 | |
| SP3WXH-11 | 2026-09-04 06:19:25 | 51.43117 | 16.12579 | 129° | 142km/h | 11011m | -2.3m/s | -49.1°C | 57.1% | 240.3hPa | 2.5V | 00:00:00 | 00:00:00 | 00:00:00 | |
| KRY50SP-1 | 2026-09-04 06:19:24 | 51.43117 | 16.12579 | 130° | 142km/h | 11011m | -2.3m/s | -49.1°C | 57.2% | 240.3hPa | 2.5V | 00:00:00 | 00:00:00 | 00:00:00 | |
| KRY50SP-1 | 2026-09-04 06:19:19 | 51.43231 | 16.12356 | 130° | 142km/h | 11022m | -2.2m/s | -49.3°C | 57.2% | 239.9hPa | 2.5V | 00:00:00 | 00:00:00 | 00:00:00 | |
| DL2RXE-15 | 2026-09-04 06:19:18 | 51.43254 | 16.12311 | 130° | 142km/h | 11024m | -2.4m/s | -49.3°C | 56.6% | 239.8hPa | 2.5V | 00:00:00 | 00:00:00 | 00:00:00 | |
| SP6BVK | 2026-09-04 06:19:17 | 51.43277 | 16.12267 | 130° | 142km/h | 11026m | -2.3m/s | -49.4°C | 57.1% | 239.8hPa | 2.5V | 00:00:00 | 00:00:00 | 00:00:00 | |
| SONDE2-11 | 2026-09-04 06:19:13 | 51.43415 | 16.11998 | 129° | 142km/h | 11040m | -2.3m/s | -49.6°C | 57.7% | 239.3hPa | 2.5V | 00:00:00 | 00:00:00 | 00:00:00 | |
| POL2MAQ | 2026-09-04 06:19:11 | 51.43415 | 16.11998 | 131° | 142km/h | 11040m | -2.3m/s | -49.6°C | 57.7% | 239.3hPa | 2.5V | 00:00:00 | 00:00:00 | 00:00:00 | |
| OE3JTB-15 | 2026-09-04 06:19:07 | 51.43528 | 16.11775 | 129° | 148km/h | 11052m | -2.3m/s | -49.3°C | 61.7% | 238.8hPa | 2.5V | 00:00:00 | 00:00:00 | 00:00:00 | |
| 13BRC | 2026-09-04 06:19:06 | 51.43528 | 16.11775 | 129° | 142km/h | 11052m | -2.3m/s | -49.4°C | 53.8% | 238.8hPa | 2.5V | 00:00:00 | 00:00:00 | 00:00:00 | |
| EDDB2-11 | 2026-09-04 06:18:58 | 51.43747 | 16.11299 | 126° | 155km/h | 11076m | -2.4m/s | -49.5°C | 53.7% | 238.0hPa | 2.5V | 00:00:00 | 00:00:00 | 00:00:00 | |
| SP3WXH-11 | 2026-09-04 06:18:54 | 51.43820 | 16.11148 | 129° | 159km/h | 11083m | -2.4m/s | -49.6°C | 55.4% | 237.7hPa | 2.5V | 00:00:00 | 00:00:00 | 00:00:00 | |
| EDDB2-12 | 2026-09-04 06:18:48 | 51.44000 | 16.10824 | 132° | 144km/h | 11099m | -2.4m/s | -50.0°C | 58.4% | 237.2hPa | 2.5V | 00:00:00 | 00:00:00 | 00:00:00 | |
| DL2RXE-15 | 2026-09-04 06:18:47 | 51.43975 | 16.10867 | 134° | 148km/h | 11097m | -2.3m/s | -49.9°C | 57.4% | 237.2hPa | 2.5V | 00:00:00 | 00:00:00 | 00:00:00 | |
| 13BRC | 2026-09-04 06:18:46 | 51.44001 | 16.10823 | 133° | 146km/h | 11100m | -2.4m/s | -50.0°C | 58.4% | 237.1hPa | 2.5V | 00:00:00 | 00:00:00 | 00:00:00 | |
| KRY50SP-1 | 2026-09-04 06:18:44 | 51.44049 | 16.10737 | 132° | 141km/h | 11104m | -2.4m/s | -49.9°C | 58.3% | 236.9hPa | 2.5V | 00:00:00 | 00:00:00 | 00:00:00 | |
| SONDE2-11 | 2026-09-04 06:18:42 | 51.44138 | 16.10561 | 127° | 141km/h | 11114m | -2.5m/s | -49.9°C | 56.5% | 236.5hPa | 2.5V | 00:00:00 | 00:00:00 | 00:00:00 | |
| KRY50SP-1 | 2026-09-04 06:18:39 | 51.44160 | 16.10515 | 128° | 142km/h | 11117m | -2.5m/s | -49.9°C | 57.1% | 236.5hPa | 2.5V | 00:00:00 | 00:00:00 | 00:00:00 | |
| OE3JTB-15 | 2026-09-04 06:18:38 | 51.44203 | 16.10421 | 126° | 150km/h | 11122m | -2.3m/s | -49.9°C | 66.5% | 236.2hPa | 2.5V | 00:00:00 | 02:08:45 | 00:00:00 | |
| KRY50SP-1 | 2026-09-04 06:18:34 | 51.44269 | 16.10273 | 127° | 151km/h | 11129m | -2.4m/s | -50.0°C | 58.2% | 236.0hPa | 2.5V | 00:00:00 | 00:00:00 | 00:00:00 | |
| SP6BVK | 2026-09-04 06:18:33 | 51.44292 | 16.10223 | 127° | 153km/h | 11131m | -2.4m/s | -50.1°C | 58.8% | 236.0hPa | 2.5V | 00:00:00 | 00:00:00 | 00:00:00 | |
| KRY50SP-1 | 2026-09-04 06:18:28 | 51.44410 | 16.09969 | 129° | 159km/h | 11143m | -2.4m/s | -50.1°C | 58.1% | 235.5hPa | 2.5V | 00:00:00 | 00:00:00 | 00:00:00 | |
| DB0DAN | 2026-09-04 06:18:25 | 51.44511 | 16.09770 | 131° | 148km/h | 11153m | -2.5m/s | -50.3°C | 57.1% | 235.15hPa | 2.5V | 00:00:00 | 00:00:00 | 00:00:00 | |
| 13BRC | 2026-09-04 06:18:24 | 51.44511 | 16.09770 | 132° | 155km/h | 11153m | -2.5m/s | -50.3°C | 57.1% | 235.2hPa | 2.5V | 00:00:00 | 00:00:00 | 00:00:00 | |
| SP3WXH-11 | 2026-09-04 06:18:23 | 51.44562 | 16.09677 | 131° | 151km/h | 11157m | -2.5m/s | -50.4°C | 56.9% | 235.0hPa | 2.5V | 00:00:00 | 00:00:00 | 00:00:00 | |
| KRY50SP-1 | 2026-09-04 06:18:18 | 51.44662 | 16.09498 | 133° | 144km/h | 11167m | -2.4m/s | -50.5°C | 57.0% | 234.6hPa | 2.5V | 00:00:00 | 00:00:00 | 00:00:00 | |
| EDDB2-12 | 2026-09-04 06:18:16 | 51.44733 | 16.09368 | 130° | 141km/h | 11175m | -2.5m/s | -50.6°C | 57.4% | 234.4hPa | 2.5V | 00:00:00 | 00:00:00 | 00:00:00 | |
| KRY50SP-1 | 2026-09-04 06:18:13 | 51.44778 | 16.09279 | 129° | 141km/h | 11180m | -2.6m/s | -50.8°C | 56.9% | 234.2hPa | 2.5V | 00:00:00 | 00:00:00 | 00:00:00 | |
| SP6BVK | 2026-09-04 06:18:12 | 51.44800 | 16.09234 | 129° | 142km/h | 11183m | -2.4m/s | -50.8°C | 56.6% | 234.1hPa | 2.5V | 00:00:00 | 00:00:00 | 00:00:00 | |
| DB0DAN | 2026-09-04 06:18:10 | 51.44866 | 16.09092 | 126° | 142km/h | 11190m | -2.5m/s | -50.8°C | 55.8% | 233.82hPa | 2.5V | 00:00:00 | 00:00:00 | 00:00:00 | |
| OE3JTB-15 | 2026-09-04 06:18:09 | 51.44888 | 16.09043 | 126° | 151km/h | 11192m | -2.4m/s | -50.7°C | 64.5% | 233.7hPa | 2.6V | 00:00:00 | 00:00:00 | 08:30:00 | |
| KRY50SP-1 | 2026-09-04 06:18:08 | 51.44888 | 16.09043 | 127° | 150km/h | 11192m | -2.5m/s | -50.8°C | 56.1% | 233.8hPa | 2.5V | 00:00:00 | 00:00:00 | 00:00:00 | |
| KRY50SP-1 | 2026-09-04 06:18:03 | 51.45002 | 16.08793 | 128° | 155km/h | 11205m | -2.5m/s | -51.0°C | 56.3% | 233.3hPa | 2.5V | 00:00:00 | 00:00:00 | 00:00:00 | |
| EDDB2-11 | 2026-09-04 06:17:56 | 51.45224 | 16.08348 | 130° | 153km/h | 11227m | -2.5m/s | -51.2°C | 55.5% | 232.5hPa | 2.5V | 00:00:00 | 00:00:00 | 00:00:00 | |
| DB0DAN | 2026-09-04 06:17:55 | 51.45224 | 16.08348 | 130° | 148km/h | 11227m | -2.5m/s | -51.2°C | 55.5% | 232.46hPa | 2.5V | 00:00:00 | 00:00:00 | 00:00:00 | |
| SP3WXH-11 | 2026-09-04 06:17:52 | 51.45300 | 16.08206 | 130° | 151km/h | 11235m | -2.5m/s | -51.3°C | 54.8% | 232.2hPa | 2.5V | 00:00:00 | 00:00:00 | 00:00:00 | |
| EDDB2-12 | 2026-09-04 06:17:45 | 51.45477 | 16.07887 | 132° | 146km/h | 11252m | -2.5m/s | -51.2°C | 54.5% | 231.6hPa | 2.5V | 00:00:00 | 00:00:00 | 00:00:00 | |
| 13BRC | 2026-09-04 06:17:42 | 51.45527 | 16.07799 | 133° | 144km/h | 11258m | -2.6m/s | -51.3°C | 55.5% | 231.4hPa | 2.5V | 00:00:00 | 00:00:00 | 00:00:00 | |
| OE3JTB-15 | 2026-09-04 06:17:40 | 51.45597 | 16.07669 | 131° | 151km/h | 11266m | -2.6m/s | -51.3°C | 64.9% | 231.1hPa | 2.5V | 00:00:00 | 00:00:00 | 00:00:00 | |
| SONDE2-11 | 2026-09-04 06:17:39 | 51.45620 | 16.07624 | 129° | 141km/h | 11268m | -2.6m/s | -51.4°C | 56.2% | 231.0hPa | 2.5V | 00:00:00 | 00:00:00 | 00:00:00 | |
| KRY50SP-1 | 2026-09-04 06:17:34 | 51.45709 | 16.07441 | 128° | 146km/h | 11278m | -2.5m/s | -51.6°C | 54.4% | 230.7hPa | 2.5V | 00:00:00 | 00:00:00 | 00:00:00 | |
| DB0NH | 2026-09-04 06:17:31 | 51.45797 | 16.07249 | 126° | 153km/h | 11288m | -2.5m/s | -51.5°C | 62.3% | 230.3hPa | 2.5V | 00:00:00 | 02:07:38 | 00:00:00 | |
| KRY50SP-1 | 2026-09-04 06:17:29 | 51.45819 | 16.07200 | 127° | 150km/h | 11291m | -2.5m/s | -51.6°C | 54.2% | 230.2hPa | 2.5V | 00:00:00 | 00:00:00 | 00:00:00 | |
| EDDB2-11 | 2026-09-04 06:17:25 | 51.45957 | 16.06900 | 127° | 155km/h | 11306m | -2.5m/s | -51.7°C | 56.0% | 229.7hPa | 2.5V | 00:00:00 | 00:00:00 | 00:00:00 | |
| KRY50SP-1 | 2026-09-04 06:17:23 | 51.45957 | 16.06900 | 128° | 155km/h | 11306m | -2.5m/s | -51.7°C | 56.0% | 229.7hPa | 2.5V | 00:00:00 | 00:00:00 | 00:00:00 | |
| SP3WXH-11 | 2026-09-04 06:17:21 | 51.46030 | 16.06750 | 128° | 155km/h | 11314m | -2.5m/s | -51.8°C | 55.9% | 229.4hPa | 2.5V | 00:00:00 | 00:00:00 | 00:00:00 | |
| SP3BTT-10 | 2026-09-04 06:17:18 | 51.46105 | 16.06604 | 131° | 157km/h | 11321m | -2.4m/s | -51.8°C | 63.5% | 229.1hPa | 2.5V | 00:00:00 | 00:00:00 | 00:00:00 | |
| EDDB2-12 | 2026-09-04 06:17:14 | 51.46206 | 16.06416 | 131° | 153km/h | 11331m | -2.6m/s | -51.9°C | 54.4% | 228.8hPa | 2.5V | 00:00:00 | 00:00:00 | 00:00:00 | |
| KRY50SP-1 | 2026-09-04 06:17:12 | 51.46232 | 16.06369 | 132° | 153km/h | 11334m | -2.5m/s | -52.0°C | 55.0% | 228.7hPa | 2.5V | 00:00:00 | 00:00:00 | 00:00:00 | |
| OE3JTB-15 | 2026-09-04 06:17:11 | 51.46283 | 16.06276 | 132° | 153km/h | 11339m | -2.5m/s | -51.9°C | 64.3% | 228.5hPa | 2.5V | 00:00:00 | 02:07:18 | 00:00:00 | |
| SP6BVK | 2026-09-04 06:17:10 | 51.46283 | 16.06276 | 132° | 151km/h | 11339m | -2.5m/s | -52.0°C | 55.6% | 228.5hPa | 2.5V | 00:00:00 | 00:00:00 | 00:00:00 | |
| POL2MAQ | 2026-09-04 06:17:09 | 51.46308 | 16.06230 | 133° | 151km/h | 11341m | -2.6m/s | -52.0°C | 55.9% | 228.5hPa | 2.5V | 00:00:00 | 00:00:00 | 00:00:00 | |
| SONDE2-11 | 2026-09-04 06:17:08 | 51.46359 | 16.06139 | 131° | 148km/h | 11346m | -2.6m/s | -52.2°C | 56.3% | 228.3hPa | 2.5V | 00:00:00 | 00:00:00 | 00:00:00 | |
| KRY50SP-1 | 2026-09-04 06:17:06 | 51.46384 | 16.06094 | 133° | 150km/h | 11349m | -2.5m/s | -52.1°C | 55.8% | 228.1hPa | 2.5V | 00:00:00 | 00:00:00 | 00:00:00 | |
| EDDB2-11 | 2026-09-04 06:16:54 | 51.46745 | 16.05442 | 129° | 157km/h | 11385m | -2.5m/s | -52.3°C | 54.2% | 226.9hPa | 2.5V | 00:00:00 | 00:00:00 | 00:00:00 | |
| SP3WXH-11 | 2026-09-04 06:16:50 | 51.46819 | 16.05294 | 127° | 153km/h | 11393m | -2.5m/s | -52.7°C | 54.7% | 226.6hPa | 2.5V | 00:00:00 | 00:00:00 | 00:00:00 | |
| KRY50SP-1 | 2026-09-04 06:16:49 | 51.46819 | 16.05294 | 129° | 155km/h | 11393m | -2.5m/s | -52.7°C | 54.7% | 226.6hPa | 2.5V | 00:00:00 | 00:00:00 | 00:00:00 | |
| POL2MAQ | 2026-09-04 06:16:48 | 51.46842 | 16.05244 | 128° | 153km/h | 11395m | -2.5m/s | -52.7°C | 53.8% | 226.6hPa | 2.5V | 00:00:00 | 00:00:00 | 00:00:00 | |
| KRY50SP-1 | 2026-09-04 06:16:45 | 51.46936 | 16.05047 | 128° | 153km/h | 11406m | -2.7m/s | -52.8°C | 53.0% | 226.2hPa | 2.5V | 00:00:00 | 00:00:00 | 00:00:00 | |
| EDDB2-12 | 2026-09-04 06:16:43 | 51.46984 | 16.04948 | 127° | 153km/h | 11411m | -2.7m/s | -52.7°C | 52.9% | 226.0hPa | 2.5V | 00:00:00 | 00:00:00 | 00:00:00 | |
| OE3JTB-15 | 2026-09-04 06:16:42 | 51.47008 | 16.04898 | 129° | 153km/h | 11414m | -2.6m/s | -52.7°C | 61.5% | 225.8hPa | 2.5V | 00:00:00 | 00:00:00 | 00:00:00 | |
| 13BRC | 2026-09-04 06:16:39 | 51.47057 | 16.04799 | 130° | 157km/h | 11419m | -2.5m/s | -52.8°C | 53.6% | 225.7hPa | 2.6V | 00:00:00 | 00:00:00 | 00:00:00 | |
| KRY50SP-1 | 2026-09-04 06:16:38 | 51.47082 | 16.04749 | 130° | 157km/h | 11422m | -2.7m/s | -52.8°C | 53.7% | 225.6hPa | 2.6V | 00:00:00 | 00:00:00 | 00:00:00 | |
| SONDE2-11 | 2026-09-04 06:16:37 | 51.47133 | 16.04649 | 129° | 157km/h | 11427m | -2.6m/s | -52.8°C | 54.5% | 225.4hPa | 2.6V | 00:00:00 | 00:00:00 | 00:00:00 | |
| KRY50SP-1 | 2026-09-04 06:16:33 | 51.47210 | 16.04502 | 132° | 159km/h | 11435m | -2.7m/s | -52.8°C | 55.3% | 225.1hPa | 2.6V | 00:00:00 | 00:00:00 | 00:00:00 | |
| SP3BTT-10 | 2026-09-04 06:16:32 | 51.47263 | 16.04404 | 132° | 159km/h | 11440m | -2.6m/s | -52.7°C | 63.5% | 224.9hPa | 2.6V | 00:00:00 | 00:00:00 | 00:00:00 | |
| DB0NH | 2026-09-04 06:16:31 | 51.47290 | 16.04356 | 132° | 153km/h | 11442m | -2.6m/s | -52.7°C | 62.6% | 224.8hPa | 2.6V | 00:00:00 | 02:06:38 | 00:00:00 | |
| SP6BVK | 2026-09-04 06:16:30 | 51.47290 | 16.04356 | 133° | 159km/h | 11442m | -2.6m/s | -52.8°C | 53.8% | 224.9hPa | 2.6V | 00:00:00 | 00:00:00 | 00:00:00 | |
| POL2MAQ | 2026-09-04 06:16:27 | 51.47371 | 16.04214 | 134° | 157km/h | 11451m | -2.6m/s | -52.9°C | 53.6% | 224.6hPa | 2.6V | 00:00:00 | 00:00:00 | 00:00:00 | |
| DB0DAN | 2026-09-04 06:16:25 | 51.47452 | 16.04079 | 134° | 144km/h | 11459m | -2.6m/s | -53°C | 53.1% | 224.33hPa | 2.6V | 00:00:00 | 00:00:00 | 00:00:00 | |
| KRY50SP-1 | 2026-09-04 06:16:22 | 51.47503 | 16.03992 | 134° | 146km/h | 11464m | -2.6m/s | -53.0°C | 53.1% | 224.1hPa | 2.5V | 00:00:00 | 00:00:00 | 00:00:00 | |
| SP3WXH-11 | 2026-09-04 06:16:19 | 51.47599 | 16.03819 | 129° | 141km/h | 11474m | -2.6m/s | -53.1°C | 51.7% | 223.8hPa | 2.5V | 00:00:00 | 00:00:00 | 00:00:00 | |
| 13BRC | 2026-09-04 06:16:18 | 51.47599 | 16.03819 | 130° | 142km/h | 11475m | -2.6m/s | -53.1°C | 51.7% | 223.8hPa | 2.5V | 00:00:00 | 00:00:00 | 00:00:00 | |
| KRY50SP-1 | 2026-09-04 06:16:17 | 51.47621 | 16.03774 | 129° | 142km/h | 11477m | -2.6m/s | -53.1°C | 51.0% | 223.7hPa | 2.5V | 00:00:00 | 00:00:00 | 00:00:00 | |
| OE3JTB-15 | 2026-09-04 06:16:13 | 51.47734 | 16.03537 | 128° | 151km/h | 11490m | -2.4m/s | -53.2°C | 62.2% | 223.1hPa | 2.5V | 00:00:00 | 00:00:00 | 00:00:00 | |
| DB0DAN | 2026-09-04 06:16:10 | 51.47807 | 16.03387 | 129° | 151km/h | 11497m | -2.7m/s | -53.4°C | 55.7% | 222.98hPa | 2.5V | 00:00:00 | 00:00:00 | 00:00:00 | |
| SP6BVK | 2026-09-04 06:16:08 | 51.47832 | 16.03337 | 130° | 159km/h | 11500m | -2.5m/s | -53.4°C | 55.7% | 222.9hPa | 2.5V | 00:00:00 | 00:00:00 | 00:00:00 | |
| POL2MAQ | 2026-09-04 06:16:07 | 51.47858 | 16.03287 | 131° | 159km/h | 11503m | -2.5m/s | -53.4°C | 55.4% | 222.8hPa | 2.5V | 00:00:00 | 00:00:00 | 00:00:00 | |
| SONDE2-11 | 2026-09-04 06:16:06 | 51.47911 | 16.03189 | 131° | 159km/h | 11508m | -2.6m/s | -53.4°C | 54.6% | 222.6hPa | 2.5V | 00:00:00 | 00:00:00 | 00:00:00 | |
| KRY50SP-1 | 2026-09-04 06:16:05 | 51.47911 | 16.03189 | 132° | 159km/h | 11508m | -2.6m/s | -53.4°C | 54.6% | 222.6hPa | 2.5V | 00:00:00 | 00:00:00 | 00:00:00 | |
| SP3BTT-10 | 2026-09-04 06:16:02 | 51.48018 | 16.03000 | 134° | 157km/h | 11518m | -2.5m/s | -53.4°C | 61.9% | 222.2hPa | 2.5V | 00:00:00 | 00:00:00 | 00:00:00 | |
| KRY50SP-1 | 2026-09-04 06:15:59 | 51.48072 | 16.02910 | 135° | 151km/h | 11523m | -2.5m/s | -53.5°C | 52.8% | 222.1hPa | 2.5V | 00:00:00 | 00:00:00 | 00:00:00 | |
| 13BRC | 2026-09-04 06:15:58 | 51.48098 | 16.02866 | 135° | 150km/h | 11526m | -2.6m/s | -53.5°C | 52.8% | 222.0hPa | 2.5V | 00:00:00 | 00:00:00 | 00:00:00 | |
| DB0DAN | 2026-09-04 06:15:55 | 51.48199 | 16.02693 | 132° | 137km/h | 11536m | -2.6m/s | -53.7°C | 53.3% | 221.61hPa | 2.5V | 00:00:00 | 00:00:00 | 00:00:00 | |
| EDDB2-11 | 2026-09-04 06:15:51 | 51.48293 | 16.02516 | 129° | 144km/h | 11546m | -2.6m/s | -53.8°C | 51.8% | 221.2hPa | 2.6V | 00:00:00 | 00:00:00 | 00:00:00 | |
| SP3WXH-11 | 2026-09-04 06:15:48 | 51.48361 | 16.02376 | 127° | 148km/h | 11554m | -2.6m/s | -53.9°C | 51.9% | 221.0hPa | 2.6V | 00:00:00 | 00:00:00 | 00:00:00 | |
| POL2MAQ | 2026-09-04 06:15:47 | 51.48362 | 16.02377 | 129° | 148km/h | 11555m | -2.6m/s | -53.9°C | 52.0% | 221.0hPa | 2.6V | 00:00:00 | 00:00:00 | 00:00:00 | |
| OE3JTB-15 | 2026-09-04 06:15:44 | 51.48455 | 16.02180 | 128° | 150km/h | 11565m | -2.7m/s | -53.9°C | 61.7% | 220.6hPa | 2.6V | 00:00:00 | 02:05:51 | 00:00:00 | |
| KRY50SP-1 | 2026-09-04 06:15:43 | 51.48455 | 16.02180 | 129° | 157km/h | 11565m | -2.8m/s | -54.0°C | 52.7% | 220.7hPa | 2.6V | 00:00:00 | 00:00:00 | 00:00:00 | |
| DB0DAN | 2026-09-04 06:15:40 | 51.48555 | 16.01979 | 130° | 153km/h | 11575m | -2.7m/s | -53.9°C | 53.2% | 220.26hPa | 2.6V | 00:00:00 | 00:00:00 | 00:00:00 | |
| KRY50SP-1 | 2026-09-04 06:15:38 | 51.48582 | 16.01929 | 132° | 161km/h | 11578m | -2.5m/s | -54.0°C | 53.1% | 220.2hPa | 2.6V | 00:00:00 | 00:00:00 | 00:00:00 | |
| 13BRC | 2026-09-04 06:15:37 | 51.48608 | 16.01880 | 133° | 159km/h | 11580m | -2.6m/s | -54.0°C | 53.4% | 220.1hPa | 2.6V | 00:00:00 | 00:00:00 | 00:00:00 | |
| SONDE2-11 | 2026-09-04 06:15:35 | 51.48688 | 16.01739 | 133° | 153km/h | 11588m | -2.6m/s | -54.2°C | 53.5% | 219.8hPa | 2.6V | 00:00:00 | 00:00:00 | 00:00:00 | |
| KRY50SP-1 | 2026-09-04 06:15:33 | 51.48715 | 16.01694 | 134° | 151km/h | 11591m | -2.7m/s | -54.2°C | 53.5% | 219.7hPa | 2.6V | 00:00:00 | 00:00:00 | 00:00:00 | |
| DB0NH | 2026-09-04 06:15:31 | 51.48793 | 16.01562 | 134° | 150km/h | 11599m | -2.6m/s | -54.3°C | 64.7% | 219.4hPa | 2.6V | 00:00:00 | 02:05:38 | 00:00:00 | |
| SP6BVK | 2026-09-04 06:15:29 | 51.48843 | 16.01475 | 134° | 146km/h | 11604m | -2.5m/s | -54.4°C | 55.5% | 219.3hPa | 2.6V | 00:00:00 | 00:00:00 | 00:00:00 | |
| POL2MAQ | 2026-09-04 06:15:27 | 51.48868 | 16.01431 | 133° | 144km/h | 11606m | -2.6m/s | -54.5°C | 55.2% | 219.2hPa | 2.6V | 00:00:00 | 00:00:00 | 00:00:00 | |
| DB0DAN | 2026-09-04 06:15:25 | 51.48940 | 16.01301 | 131° | 135km/h | 11614m | -2.6m/s | -54.5°C | 53.2% | 218.95hPa | 2.6V | 00:00:00 | 00:00:00 | 00:00:00 | |
| KRY50SP-1 | 2026-09-04 06:15:22 | 51.48987 | 16.01212 | 131° | 142km/h | 11619m | -2.6m/s | -54.5°C | 51.5% | 218.7hPa | 2.6V | 00:00:00 | 00:00:00 | 00:00:00 | |
| EDDB2-11 | 2026-09-04 06:15:20 | 51.49055 | 16.01077 | 128° | 142km/h | 11627m | -2.8m/s | -54.4°C | 48.4% | 218.5hPa | 2.6V | 00:00:00 | 00:00:00 | 00:00:00 | |
| SP3WXH-11 | 2026-09-04 06:15:17 | 51.49122 | 16.00936 | 127° | 148km/h | 11635m | -2.6m/s | -54.4°C | 47.4% | 218.2hPa | 2.6V | 00:00:00 | 00:00:00 | 00:00:00 | |
| KRY50SP-1 | 2026-09-04 06:15:16 | 51.49122 | 16.00936 | 128° | 148km/h | 11635m | -2.6m/s | -54.4°C | 47.4% | 218.2hPa | 2.6V | 00:00:00 | 00:00:00 | 00:00:00 | |
| OE3JTB-15 | 2026-09-04 06:15:15 | 51.49168 | 16.00840 | 128° | 155km/h | 11641m | -2.7m/s | -54.5°C | 56.8% | 218.0hPa | 2.6V | 00:00:00 | 00:00:00 | 00:00:00 | |
| KRY50SP-1 | 2026-09-04 06:15:11 | 51.49238 | 16.00692 | 129° | 155km/h | 11649m | -2.6m/s | -54.6°C | 48.2% | 217.7hPa | 2.5V | 00:00:00 | 00:00:00 | 00:00:00 | |
| EDDB2-12 | 2026-09-04 06:15:10 | 51.49288 | 16.00592 | 128° | 157km/h | 11653m | -2.6m/s | -54.6°C | 48.1% | 217.6hPa | 2.5V | 00:00:00 | 00:00:00 | 00:00:00 | |
| SP6BVK | 2026-09-04 06:15:08 | 51.49312 | 16.00541 | 130° | 159km/h | 11656m | -2.7m/s | -54.7°C | 48.4% | 217.5hPa | 2.5V | 00:00:00 | 00:00:00 | 00:00:00 | |
| POL2MAQ | 2026-09-04 06:15:06 | 51.49363 | 16.00442 | 130° | 159km/h | 11661m | -2.4m/s | -54.7°C | 47.8% | 217.3hPa | 2.5V | 00:00:00 | 00:00:00 | 00:00:00 | |
| KRY50SP-1 | 2026-09-04 06:15:05 | 51.49388 | 16.00392 | 131° | 159km/h | 11664m | -2.6m/s | -54.7°C | 48.1% | 217.2hPa | 2.5V | 00:00:00 | 00:00:00 | 00:00:00 | |
| SONDE2-11 | 2026-09-04 06:15:04 | 51.49441 | 16.00293 | 130° | 159km/h | 11669m | -2.6m/s | -54.7°C | 48.2% | 217.1hPa | 2.5V | 00:00:00 | 00:00:00 | 00:00:00 | |
| EDDB2-11 | 2026-09-04 06:14:50 | 51.49840 | 15.99589 | 132° | 157km/h | 11708m | -2.5m/s | -55.1°C | 45.5% | 215.8hPa | 2.5V | 00:00:00 | 00:00:00 | 00:00:00 | |
| SP3WXH-11 | 2026-09-04 06:14:46 | 51.49922 | 15.99446 | 131° | 159km/h | 11715m | -2.5m/s | -55.1°C | 45.4% | 215.5hPa | 2.5V | 00:00:00 | 00:00:00 | 00:00:00 | |
| POL2MAQ | 2026-09-04 06:14:45 | 51.49922 | 15.99446 | 133° | 161km/h | 11716m | -2.5m/s | -55.1°C | 45.5% | 215.5hPa | 2.5V | 00:00:00 | 00:00:00 | 00:00:00 | |
| KRY50SP-1 | 2026-09-04 06:14:43 | 51.49975 | 15.99349 | 132° | 161km/h | 11721m | -2.5m/s | -55.1°C | 45.7% | 215.3hPa | 2.5V | 00:00:00 | 00:00:00 | 00:00:00 | |
| DB0DAN | 2026-09-04 06:14:40 | 51.50078 | 15.99151 | 129° | 151km/h | 11731m | -2.6m/s | -55.4°C | 46.4% | 214.99hPa | 2.5V | 00:00:00 | 00:00:00 | 00:00:00 | |
| EDDB2-12 | 2026-09-04 06:14:39 | 51.50104 | 15.99100 | 128° | 159km/h | 11733m | -2.6m/s | -55.3°C | 46.2% | 215.0hPa | 2.6V | 00:00:00 | 00:00:00 | 00:00:00 | |
| 13BRC | 2026-09-04 06:14:37 | 51.50129 | 15.99049 | 130° | 161km/h | 11736m | -2.5m/s | -55.4°C | 46.4% | 214.8hPa | 2.6V | 00:00:00 | 00:00:00 | 00:00:00 | |
| SONDE2-11 | 2026-09-04 06:14:33 | 51.50257 | 15.98795 | 130° | 161km/h | 11749m | -2.5m/s | -55.3°C | 46.5% | 214.4hPa | 2.6V | 00:00:00 | 00:00:00 | 00:00:00 | |
| KRY50SP-1 | 2026-09-04 06:14:32 | 51.50257 | 15.98795 | 131° | 162km/h | 11749m | -2.5m/s | -55.3°C | 46.5% | 214.4hPa | 2.6V | 00:00:00 | 00:00:00 | 00:00:00 | |
| DB0NH | 2026-09-04 06:14:31 | 51.50311 | 15.98695 | 132° | 153km/h | 11754m | -2.5m/s | -55.2°C | 53.5% | 214.2hPa | 2.6V | 00:00:00 | 02:04:38 | 08:30:00 | |
| DL2RXE-15 | 2026-09-04 06:14:28 | 51.50366 | 15.98598 | 134° | 161km/h | 11759m | -2.5m/s | -55.3°C | 43.2% | 214.1hPa | 2.5V | 00:00:00 | 00:00:00 | 00:00:00 | |
| DB0DAN | 2026-09-04 06:14:25 | 51.50478 | 15.98411 | 135° | 151km/h | 11769m | -2.5m/s | -55.5°C | 40.9% | 213.71hPa | 2.5V | 00:00:00 | 00:00:00 | 00:00:00 | |
| POL2MAQ | 2026-09-04 06:14:24 | 51.50478 | 15.98411 | 136° | 159km/h | 11769m | -2.5m/s | -55.5°C | 40.9% | 213.7hPa | 2.5V | 00:00:00 | 00:00:00 | 00:00:00 | |
| KRY50SP-1 | 2026-09-04 06:14:20 | 51.50588 | 15.98230 | 134° | 153km/h | 11779m | -2.4m/s | -55.7°C | 39.7% | 213.3hPa | 2.5V | 00:00:00 | 00:00:00 | 00:00:00 | |
| EDDB2-11 | 2026-09-04 06:14:18 | 51.50664 | 15.98092 | 130° | 150km/h | 11786m | -2.4m/s | -55.7°C | 37.2% | 213.1hPa | 2.5V | 00:00:00 | 00:00:00 | 00:00:00 | |
| SP3BTT-10 | 2026-09-04 06:14:16 | 51.50712 | 15.97999 | 130° | 153km/h | 11791m | -2.3m/s | -55.4°C | 44.5% | 212.9hPa | 2.5V | 00:00:00 | 00:00:00 | 00:00:00 | |
| SP3WXH-11 | 2026-09-04 06:14:15 | 51.50736 | 15.97952 | 129° | 148km/h | 11793m | -2.5m/s | -55.5°C | 36.4% | 212.8hPa | 2.5V | 00:00:00 | 00:00:00 | 00:00:00 | |
| KRY50SP-1 | 2026-09-04 06:14:14 | 51.50736 | 15.97952 | 130° | 148km/h | 11793m | -2.5m/s | -55.5°C | 36.4% | 212.8hPa | 2.5V | 00:00:00 | 00:00:00 | 00:00:00 | |
| DB0DAN | 2026-09-04 06:14:10 | 51.50857 | 15.97725 | 132° | 139km/h | 11806m | -2.4m/s | -55.5°C | 36.6% | 212.46hPa | 2.5V | 00:00:00 | 00:00:00 | 00:00:00 | |
| KRY50SP-1 | 2026-09-04 06:14:09 | 51.50857 | 15.97725 | 133° | 146km/h | 11806m | -2.4m/s | -55.5°C | 36.6% | 212.5hPa | 2.5V | 00:00:00 | 00:00:00 | 00:00:00 | |
| SP6BVK | 2026-09-04 06:14:06 | 51.50933 | 15.97594 | 135° | 150km/h | 11813m | -2.5m/s | -55.6°C | 35.8% | 212.2hPa | 2.5V | 00:00:00 | 00:00:00 | 00:00:00 | |
| POL2MAQ | 2026-09-04 06:14:03 | 51.51015 | 15.97460 | 135° | 157km/h | 11821m | -2.5m/s | -55.7°C | 34.9% | 212.0hPa | 2.5V | 00:00:00 | 00:00:00 | 00:00:00 | |
| SONDE2-11 | 2026-09-04 06:14:02 | 51.51070 | 15.97367 | 133° | 161km/h | 11826m | -2.4m/s | -55.7°C | 35.3% | 211.8hPa | 2.5V | 00:00:00 | 00:00:00 | 00:00:00 | |
| DB0NH | 2026-09-04 06:14:01 | 51.51099 | 15.97319 | 133° | 159km/h | 11828m | -2.4m/s | -55.6°C | 43.7% | 211.7hPa | 2.5V | 00:00:00 | 02:04:08 | 00:00:00 | |
| KRY50SP-1 | 2026-09-04 06:13:58 | 51.51154 | 15.97221 | 132° | 164km/h | 11833m | -2.4m/s | -55.7°C | 37.0% | 211.5hPa | 2.5V | 00:00:00 | 00:00:00 | 00:00:00 | |
| DB0DAN | 2026-09-04 06:13:55 | 51.51261 | 15.97018 | 129° | 153km/h | 11843m | -2.4m/s | -55.9°C | 39% | 211.28hPa | 2.5V | 00:00:00 | 00:00:00 | 00:00:00 | |
| SONCRA | 2026-09-04 06:13:53 | 51.51311 | 15.96916 | 128° | 159km/h | 11848m | -2.4m/s | -55.7°C | -1.0% | 211.1hPa | 2.5V | 00:00:00 | 00:00:00 | 00:00:00 | |
| EDDB2-11 | 2026-09-04 06:13:47 | 51.51453 | 15.96617 | 126° | 150km/h | 11862m | -2.5m/s | -55.8°C | 36.1% | 210.6hPa | 2.5V | 00:00:00 | 00:00:00 | 00:00:00 | |
| SP6BVK | 2026-09-04 06:13:46 | 51.51453 | 15.96617 | 128° | 150km/h | 11863m | -2.5m/s | -55.8°C | 36.2% | 210.6hPa | 2.5V | 00:00:00 | 00:00:00 | 00:00:00 | |
| SP3WXH-11 | 2026-09-04 06:13:44 | 51.51523 | 15.96475 | 129° | 146km/h | 11870m | -2.4m/s | -56.0°C | 37.2% | 210.3hPa | 2.5V | 00:00:00 | 00:00:00 | 00:00:00 | |
| POL2MAQ | 2026-09-04 06:13:43 | 51.51523 | 15.96475 | 130° | 146km/h | 11870m | -2.4m/s | -56.0°C | 37.2% | 210.4hPa | 2.5V | 00:00:00 | 00:00:00 | 00:00:00 | |
| KRY50SP-1 | 2026-09-04 06:13:40 | 51.51596 | 15.96340 | 133° | 150km/h | 11877m | -2.4m/s | -56.3°C | 38.6% | 210.1hPa | 2.5V | 00:00:00 | 00:00:00 | 00:00:00 | |
| EDDB2-12 | 2026-09-04 06:13:37 | 51.51702 | 15.96159 | 133° | 155km/h | 11887m | -2.4m/s | -56.2°C | 37.1% | 209.8hPa | 2.5V | 00:00:00 | 00:00:00 | 00:00:00 | |
| 13BRC | 2026-09-04 06:13:35 | 51.51729 | 15.96113 | 134° | 159km/h | 11889m | -2.4m/s | -56.2°C | 37.5% | 209.7hPa | 2.5V | 00:00:00 | 00:00:00 | 00:00:00 | |
| KRY50SP-1 | 2026-09-04 06:13:34 | 51.51757 | 15.96066 | 134° | 161km/h | 11891m | -2.4m/s | -56.2°C | 37.4% | 209.6hPa | 2.5V | 00:00:00 | 00:00:00 | 00:00:00 | |
| SP3BTT-10 | 2026-09-04 06:13:32 | 51.51840 | 15.95920 | 133° | 164km/h | 11899m | -2.4m/s | -56.1°C | 45.7% | 209.3hPa | 2.5V | 00:00:00 | 00:00:00 | 00:00:00 | |
| SONDE2-11 | 2026-09-04 06:13:31 | 51.51868 | 15.95870 | 131° | 164km/h | 11901m | -2.4m/s | -56.2°C | 38.2% | 209.3hPa | 2.5V | 00:00:00 | 00:00:00 | 00:00:00 | |
| KRY50SP-1 | 2026-09-04 06:13:28 | 51.51923 | 15.95768 | 131° | 166km/h | 11906m | -2.5m/s | -56.3°C | 39.1% | 209.1hPa | 2.5V | 00:00:00 | 00:00:00 | 00:00:00 | |
| SP6BVK | 2026-09-04 06:13:25 | 51.52001 | 15.95611 | 128° | 164km/h | 11914m | -2.4m/s | -56.3°C | 39.6% | 208.9hPa | 2.5V | 00:00:00 | 00:00:00 | 00:00:00 | |
| SONCRA | 2026-09-04 06:13:22 | 51.52097 | 15.95404 | 126° | 153km/h | 11923m | -2.4m/s | -56.3°C | -1.0% | -1.0hPa | 2.5V | 00:00:00 | 00:00:00 | 00:00:00 | |
| OE3JTB-15 | 2026-09-04 06:13:18 | 51.52188 | 15.95211 | 130° | 159km/h | 11934m | -2.3m/s | -56.4°C | 46.1% | 208.2hPa | 2.5V | 00:00:00 | 02:03:25 | 00:00:00 | |
| EDDB2-11 | 2026-09-04 06:13:16 | 51.52236 | 15.95120 | 131° | 146km/h | 11938m | -2.5m/s | -56.6°C | 38.8% | 208.1hPa | 2.5V | 00:00:00 | 00:00:00 | 00:00:00 | |
| 13BRC | 2026-09-04 06:13:14 | 51.52261 | 15.95075 | 133° | 148km/h | 11941m | -2.5m/s | -56.7°C | 39.3% | 208.0hPa | 2.5V | 00:00:00 | 00:00:00 | 00:00:00 | |
| SP3WXH-11 | 2026-09-04 06:13:13 | 51.52339 | 15.94941 | 133° | 155km/h | 11948m | -2.4m/s | -56.8°C | 38.7% | 207.8hPa | 2.5V | 00:00:00 | 00:00:00 | 00:00:00 | |
| KRY50SP-1 | 2026-09-04 06:13:11 | 51.52340 | 15.94941 | 134° | 155km/h | 11948m | -2.4m/s | -56.8°C | 38.8% | 207.8hPa | 2.5V | 00:00:00 | 00:00:00 | 00:00:00 | |
| DAC517 | 2026-09-04 06:13:10 | 51.52450 | 15.94750 | 133° | 166km/h | 11958m | -2.5m/s | -56.7°C | 39.4% | 207.4hPa | 2.5V | 00:00:00 | 00:00:00 | 00:00:00 | |
| EDDB2-12 | 2026-09-04 06:13:06 | 51.52506 | 15.94648 | 130° | 168km/h | 11963m | -2.6m/s | -56.8°C | 40.0% | 207.3hPa | 2.5V | 00:00:00 | 00:00:00 | 00:00:00 | |
| KRY50SP-1 | 2026-09-04 06:13:05 | 51.52506 | 15.94648 | 131° | 168km/h | 11963m | -2.6m/s | -56.8°C | 40.0% | 207.3hPa | 2.5V | 00:00:00 | 00:00:00 | 00:00:00 | |
| SP6BVK | 2026-09-04 06:13:04 | 51.52533 | 15.94595 | 130° | 168km/h | 11966m | -2.5m/s | -56.9°C | 40.4% | 207.2hPa | 2.5V | 00:00:00 | 00:00:00 | 00:00:00 | |
| SONDE2-11 | 2026-09-04 06:13:00 | 51.52659 | 15.94331 | 125° | 157km/h | 11978m | -2.5m/s | -56.9°C | 41.0% | 206.8hPa | 2.5V | 00:00:00 | 00:00:00 | 00:00:00 | |
| KRY50SP-1 | 2026-09-04 06:12:59 | 51.52658 | 15.94331 | 127° | 159km/h | 11978m | -2.5m/s | -56.9°C | 41.0% | 206.8hPa | 2.5V | 00:00:00 | 00:00:00 | 00:00:00 | |
| SQ6EMJ | 2026-09-04 06:12:58 | 51.52682 | 15.94279 | 127° | 155km/h | 11980m | -2.5m/s | -56.9°C | 41.2% | 206.7hPa | 2.5V | 00:00:00 | 00:00:00 | 00:00:00 | |
| DB0DAN | 2026-09-04 06:12:55 | 51.52774 | 15.94083 | 128° | 142km/h | 11990m | -2.4m/s | -57.1°C | 43.5% | 206.39hPa | 2.5V | 00:00:00 | 00:00:00 | 00:00:00 | |
| EDDB2-11 | 2026-09-04 06:12:45 | 51.53033 | 15.93618 | 132° | 162km/h | 12015m | -2.5m/s | -57.2°C | 42.8% | 205.6hPa | 2.6V | 00:00:00 | 00:00:00 | 00:00:00 | |
| DB0NH | 2026-09-04 06:12:44 | 51.53061 | 15.93569 | 133° | 161km/h | 12017m | -2.5m/s | -57.2°C | 52.2% | 205.4hPa | 2.6V | 00:00:00 | 02:02:51 | 00:00:00 | |
| SP6BVK | 2026-09-04 06:12:43 | 51.53060 | 15.93569 | 133° | 164km/h | 12017m | -2.5m/s | -57.3°C | 43.2% | 205.4hPa | 2.6V | 00:00:00 | 00:00:00 | 00:00:00 | |
| SQ6EMJ | 2026-09-04 06:12:42 | 51.53089 | 15.93518 | 132° | 166km/h | 12020m | -2.6m/s | -57.2°C | 43.3% | 205.4hPa | 2.6V | 00:00:00 | 00:00:00 | 00:00:00 | |
| DB0DAN | 2026-09-04 06:12:40 | 51.53171 | 15.93362 | 129° | 161km/h | 12027m | -2.5m/s | -57.3°C | 44.4% | 205.16hPa | 2.6V | 00:00:00 | 00:00:00 | 00:00:00 | |
| SQ6EMJ | 2026-09-04 06:12:36 | 51.53249 | 15.93201 | 128° | 166km/h | 12035m | -2.5m/s | -57.3°C | 45.8% | 204.9hPa | 2.6V | 00:00:00 | 00:00:00 | 00:00:00 | |
| EDDB2-12 | 2026-09-04 06:12:35 | 51.53298 | 15.93095 | 126° | 159km/h | 12040m | -2.4m/s | -57.4°C | 45.9% | 204.8hPa | 2.6V | 00:00:00 | 00:00:00 | 00:00:00 | |
| 13BRC | 2026-09-04 06:12:32 | 51.53345 | 15.92992 | 128° | 155km/h | 12044m | -2.4m/s | -57.6°C | 46.2% | 204.6hPa | 2.6V | 00:00:00 | 00:00:00 | 00:00:00 | |
| SP3BTT-10 | 2026-09-04 06:12:31 | 51.53392 | 15.92894 | 128° | 155km/h | 12049m | -2.3m/s | -57.6°C | 56.1% | 204.4hPa | 2.6V | 00:00:00 | 00:00:00 | 00:00:00 | |
| SONDE2-11 | 2026-09-04 06:12:29 | 51.53440 | 15.92798 | 129° | 150km/h | 12054m | -2.5m/s | -57.6°C | 46.7% | 204.3hPa | 2.5V | 00:00:00 | 00:00:00 | 00:00:00 | |
| DB0DAN | 2026-09-04 06:12:25 | 51.53538 | 15.92614 | 132° | 142km/h | 12064m | -2.5m/s | -57.7°C | 46.6% | 203.95hPa | 2.5V | 00:00:00 | 00:00:00 | 00:00:00 | |
| SP6BVK | 2026-09-04 06:12:22 | 51.53590 | 15.92523 | 134° | 155km/h | 12069m | -2.5m/s | -57.8°C | 45.5% | 203.8hPa | 2.5V | 00:00:00 | 00:00:00 | 00:00:00 | |
| SQ6EMJ | 2026-09-04 06:12:21 | 51.53644 | 15.92430 | 134° | 161km/h | 12075m | -2.4m/s | -57.8°C | 44.4% | 203.7hPa | 2.5V | 00:00:00 | 00:00:00 | 00:00:00 | |
| SONCRA | 2026-09-04 06:12:20 | 51.53672 | 15.92382 | 133° | 162km/h | 12077m | -2.4m/s | 0°C | -1.0% | -1.0hPa | 2.5V | 00:00:00 | 00:00:00 | 00:00:00 | |
| KRY50SP-1 | 2026-09-04 06:12:19 | 51.53672 | 15.92382 | 134° | 162km/h | 12077m | -2.4m/s | -57.7°C | 44.0% | 203.5hPa | 2.5V | 00:00:00 | 00:00:00 | 00:00:00 | |
| SQ6EMJ | 2026-09-04 06:12:15 | 51.53813 | 15.92129 | 131° | 170km/h | 12090m | -2.6m/s | -57.8°C | 46.4% | 203.1hPa | 2.5V | 00:00:00 | 00:00:00 | 00:00:00 | |
| DB0NH | 2026-09-04 06:12:14 | 51.53841 | 15.92076 | 130° | 161km/h | 12092m | -2.6m/s | -57.7°C | 56.3% | 203.0hPa | 2.5V | 00:00:00 | 02:02:21 | 00:00:00 | |
| OE3JTB-15 | 2026-09-04 06:12:13 | 51.53868 | 15.92023 | 129° | 170km/h | 12095m | -2.5m/s | -57.8°C | 57.4% | 202.9hPa | 2.5V | 00:00:00 | 00:00:00 | 00:00:00 | |
| DB0DAN | 2026-09-04 06:12:10 | 51.53946 | 15.91864 | 127° | 155km/h | 12102m | -2.6m/s | -58°C | 48.9% | 202.73hPa | 2.5V | 00:00:00 | 00:00:00 | 00:00:00 | |
| KRY50SP-1 | 2026-09-04 06:12:08 | 51.53995 | 15.91759 | 128° | 161km/h | 12108m | -2.6m/s | -58.1°C | 48.5% | 202.6hPa | 2.5V | 00:00:00 | 00:00:00 | 00:00:00 | |
| SQ6EMJ | 2026-09-04 06:12:07 | 51.54019 | 15.91708 | 128° | 159km/h | 12110m | -2.5m/s | -58.2°C | 49.1% | 202.5hPa | 2.5V | 00:00:00 | 00:00:00 | 00:00:00 | |
| EDDB2-12 | 2026-09-04 06:12:04 | 51.54091 | 15.91558 | 128° | 153km/h | 12118m | -2.5m/s | -58.2°C | 49.4% | 202.2hPa | 2.5V | 00:00:00 | 00:00:00 | 00:00:00 | |
| KRY50SP-1 | 2026-09-04 06:12:02 | 51.54115 | 15.91509 | 130° | 151km/h | 12121m | -2.5m/s | -58.2°C | 49.7% | 202.2hPa | 2.5V | 00:00:00 | 00:00:00 | 00:00:00 | |
| SP3BTT-10 | 2026-09-04 06:12:01 | 51.54164 | 15.91414 | 130° | 157km/h | 12126m | -2.6m/s | -58.1°C | 60.7% | 202.0hPa | 2.5V | 00:00:00 | 00:00:00 | 00:00:00 | |
| POL2MAQ | 2026-09-04 06:12:00 | 51.54164 | 15.91414 | 131° | 151km/h | 12126m | -2.6m/s | -58.2°C | 50.6% | 202.0hPa | 2.5V | 00:00:00 | 00:00:00 | 00:00:00 | |
| KRY50SP-1 | 2026-09-04 06:11:58 | 51.54239 | 15.91274 | 133° | 153km/h | 12133m | -2.6m/s | -58.3°C | 52.1% | 201.7hPa | 2.5V | 00:00:00 | 00:00:00 | 00:00:00 | |
| DB0DAN | 2026-09-04 06:11:55 | 51.54318 | 15.91135 | 133° | 150km/h | 12141m | -2.6m/s | -58.4°C | 50.5% | 201.48hPa | 2.5V | 00:00:00 | 00:00:00 | 00:00:00 | |
| KRY50SP-1 | 2026-09-04 06:11:51 | 51.54401 | 15.90992 | 134° | 162km/h | 12149m | -2.4m/s | -58.4°C | 49.2% | 201.2hPa | 2.5V | 00:00:00 | 00:00:00 | 00:00:00 | |
| 13BRC | 2026-09-04 06:11:50 | 51.54428 | 15.90944 | 134° | 162km/h | 12152m | -2.7m/s | -58.4°C | 48.9% | 201.1hPa | 2.5V | 00:00:00 | 00:00:00 | 00:00:00 | |
| KRY50SP-1 | 2026-09-04 06:11:45 | 51.54572 | 15.90695 | 133° | 172km/h | 12165m | -2.6m/s | -58.4°C | 48.7% | 200.7hPa | 2.5V | 00:00:00 | 00:00:00 | 00:00:00 | |
| DB0NH | 2026-09-04 06:11:44 | 51.54630 | 15.90590 | 131° | 162km/h | 12171m | -2.6m/s | -58.5°C | 59.3% | 200.5hPa | 2.5V | 00:00:00 | 02:01:51 | 00:00:00 | |
| EDDB2-11 | 2026-09-04 06:11:43 | 51.54658 | 15.90537 | 129° | 172km/h | 12173m | -2.7m/s | -58.6°C | 49.3% | 200.5hPa | 2.5V | 00:00:00 | 00:00:00 | 00:00:00 | |
| SP6BVK | 2026-09-04 06:11:41 | 51.54685 | 15.90483 | 130° | 172km/h | 12176m | -2.7m/s | -58.6°C | 49.5% | 200.4hPa | 2.5V | 00:00:00 | 00:00:00 | 00:00:00 | |
| POL2MAQ | 2026-09-04 06:11:40 | 51.54712 | 15.90429 | 129° | 170km/h | 12179m | -2.9m/s | -58.6°C | 49.3% | 200.3hPa | 2.5V | 00:00:00 | 00:00:00 | 00:00:00 | |
| KRY50SP-1 | 2026-09-04 06:11:39 | 51.54737 | 15.90375 | 128° | 166km/h | 12182m | -2.7m/s | -58.6°C | 49.3% | 200.2hPa | 2.5V | 00:00:00 | 00:00:00 | 00:00:00 | |
| EDDB2-12 | 2026-09-04 06:11:33 | 51.54908 | 15.90023 | 129° | 150km/h | 12200m | -2.7m/s | -58.8°C | 50.5% | 199.6hPa | 2.5V | 00:00:00 | 00:00:00 | 00:00:00 | |
| SP3BTT-10 | 2026-09-04 06:11:31 | 51.54958 | 15.89930 | 132° | 155km/h | 12206m | -2.7m/s | -58.8°C | 61.7% | 199.4hPa | 2.5V | 00:00:00 | 00:00:00 | 00:00:00 | |
| 13BRC | 2026-09-04 06:11:30 | 51.54958 | 15.89929 | 133° | 151km/h | 12206m | -2.7m/s | -58.9°C | 51.3% | 199.4hPa | 2.5V | 00:00:00 | 00:00:00 | 00:00:00 | |
| SONDE2-11 | 2026-09-04 06:11:27 | 51.55094 | 15.89699 | 134° | 161km/h | 12219m | -2.8m/s | -59.0°C | 48.7% | 199.0hPa | 2.5V | 00:00:00 | 00:00:00 | 00:00:00 | |
| KRY50SP-1 | 2026-09-04 06:11:22 | 51.55181 | 15.89553 | 134° | 170km/h | 12228m | -2.7m/s | -59.0°C | 48.4% | 198.7hPa | 2.5V | 00:00:00 | 00:00:00 | 00:00:00 | |
| SP6BVK | 2026-09-04 06:11:21 | 51.55210 | 15.89502 | 133° | 170km/h | 12230m | -2.7m/s | -59.0°C | 48.8% | 198.7hPa | 2.5V | 00:00:00 | 00:00:00 | 00:00:00 | |
| POL2MAQ | 2026-09-04 06:11:20 | 51.55239 | 15.89451 | 133° | 172km/h | 12233m | -2.8m/s | -59.0°C | 49.0% | 198.6hPa | 2.5V | 00:00:00 | 00:00:00 | 00:00:00 | |
| KRY50SP-1 | 2026-09-04 06:11:17 | 51.55324 | 15.89292 | 131° | 172km/h | 12241m | -2.7m/s | -59.1°C | 50.7% | 198.3hPa | 2.5V | 00:00:00 | 00:00:00 | 00:00:00 | |
| DB0NH | 2026-09-04 06:11:14 | 51.55429 | 15.89078 | 128° | 162km/h | 12252m | -2.6m/s | -59.1°C | 61.2% | 197.9hPa | 2.5V | 00:00:00 | 02:01:21 | 00:00:00 | |
| EDDB2-11 | 2026-09-04 06:11:12 | 51.55479 | 15.88974 | 127° | 159km/h | 12257m | -2.6m/s | -59.2°C | 50.4% | 197.8hPa | 2.5V | 00:00:00 | 00:00:00 | 00:00:00 | |
| KRY50SP-1 | 2026-09-04 06:11:11 | 51.55479 | 15.88974 | 129° | 161km/h | 12257m | -2.6m/s | -59.2°C | 50.4% | 197.8hPa | 2.5V | 00:00:00 | 00:00:00 | 00:00:00 | |
| SP3WXH-11 | 2026-09-04 06:11:09 | 51.55578 | 15.88775 | 129° | 153km/h | 12268m | -2.5m/s | -59.7°C | 53.8% | 197.4hPa | 2.5V | 00:00:00 | 00:00:00 | 00:00:00 | |
| KRY50SP-1 | 2026-09-04 06:11:06 | 51.55603 | 15.88727 | 131° | 155km/h | 12270m | -2.6m/s | -59.8°C | 54.4% | 197.4hPa | 2.5V | 00:00:00 | 00:00:00 | 00:00:00 | |
| EDDB2-12 | 2026-09-04 06:11:02 | 51.55733 | 15.88490 | 132° | 157km/h | 12283m | -2.6m/s | -59.7°C | 53.2% | 196.9hPa | 2.5V | 00:00:00 | 00:00:00 | 00:00:00 | |
| SONDE2-11 | 2026-09-04 06:10:56 | 51.55930 | 15.88161 | 133° | 166km/h | 12303m | -2.7m/s | -59.7°C | 51.7% | 196.4hPa | 2.5V | 00:00:00 | 00:00:00 | 00:00:00 | |
| KRY50SP-1 | 2026-09-04 06:10:55 | 51.55901 | 15.88209 | 135° | 164km/h | 12300m | -2.8m/s | -59.7°C | 51.5% | 196.4hPa | 2.5V | 00:00:00 | 00:00:00 | 00:00:00 | |
| KRY50SP-1 | 2026-09-04 06:10:49 | 51.56074 | 15.87902 | 131° | 173km/h | 12316m | -2.7m/s | -59.8°C | 52.8% | 195.9hPa | 2.5V | 00:00:00 | 00:00:00 | 00:00:00 | |
| 13BRC | 2026-09-04 06:10:48 | 51.56101 | 15.87848 | 130° | 173km/h | 12319m | -2.7m/s | -59.9°C | 52.6% | 195.9hPa | 2.5V | 00:00:00 | 00:00:00 | 00:00:00 | |
| DB0NH | 2026-09-04 06:10:44 | 51.56233 | 15.87577 | 127° | 164km/h | 12333m | -2.7m/s | -59.8°C | 61.2% | 195.4hPa | 2.5V | 00:00:00 | 02:00:51 | 00:00:00 | |
| EDDB2-11 | 2026-09-04 06:10:41 | 51.56306 | 15.87421 | 127° | 155km/h | 12340m | -2.8m/s | -60.0°C | 49.4% | 195.1hPa | 2.5V | 00:00:00 | 00:00:00 | 00:00:00 | |
| POL2MAQ | 2026-09-04 06:10:39 | 51.56330 | 15.87371 | 130° | 155km/h | 12343m | -2.8m/s | -60.1°C | 49.4% | 195.1hPa | 2.5V | 00:00:00 | 00:00:00 | 00:00:00 | |
| SP3WXH-11 | 2026-09-04 06:10:38 | 51.56405 | 15.87228 | 131° | 153km/h | 12351m | -2.6m/s | -60.2°C | 51.4% | 194.8hPa | 2.5V | 00:00:00 | 00:00:00 | 00:00:00 | |
| KRY50SP-1 | 2026-09-04 06:10:33 | 51.56483 | 15.87088 | 134° | 157km/h | 12360m | -2.7m/s | -60.5°C | 51.3% | 194.6hPa | 2.5V | 00:00:00 | 00:00:00 | 00:00:00 | |
| SP3BTT-10 | 2026-09-04 06:10:31 | 51.56566 | 15.86945 | 134° | 162km/h | 12368m | -2.6m/s | -60.6°C | 61.0% | 194.3hPa | 2.5V | 00:00:00 | 00:00:00 | 00:00:00 | |
| KRY50SP-1 | 2026-09-04 06:10:28 | 51.56623 | 15.86847 | 134° | 166km/h | 12373m | -2.6m/s | -60.5°C | 49.4% | 194.2hPa | 2.6V | 00:00:00 | 00:00:00 | 00:00:00 | |
| 13BRC | 2026-09-04 06:10:27 | 51.56651 | 15.86798 | 133° | 168km/h | 12376m | -2.7m/s | -60.5°C | 49.8% | 194.1hPa | 2.6V | 00:00:00 | 00:00:00 | 00:00:00 | |
| DB0DAN | 2026-09-04 06:10:25 | 51.56738 | 15.86645 | 132° | 162km/h | 12384m | -2.7m/s | -60.4°C | 50% | 193.78hPa | 2.6V | 00:00:00 | 00:00:00 | 00:00:00 | |
| SONDE2-11 | 2026-09-04 06:10:25 | 51.56766 | 15.86593 | 131° | 172km/h | 12387m | -2.8m/s | -60.4°C | 51.0% | 193.7hPa | 2.6V | 00:00:00 | 00:00:00 | 00:00:00 | |
| KRY50SP-1 | 2026-09-04 06:10:23 | 51.56767 | 15.86592 | 132° | 172km/h | 12387m | -2.8m/s | -60.4°C | 51.0% | 193.7hPa | 2.6V | 00:00:00 | 00:00:00 | 00:00:00 | |
| SP6BVK | 2026-09-04 06:10:20 | 51.56851 | 15.86433 | 131° | 172km/h | 12395m | -2.8m/s | -60.5°C | 52.3% | 193.5hPa | 2.6V | 00:00:00 | 00:00:00 | 00:00:00 | |
| POL2MAQ | 2026-09-04 06:10:19 | 51.56906 | 15.86325 | 129° | 170km/h | 12400m | -2.6m/s | -60.5°C | 52.3% | 193.3hPa | 2.6V | 00:00:00 | 00:00:00 | 00:00:00 | |
| KRY50SP-1 | 2026-09-04 06:10:17 | 51.56932 | 15.86271 | 129° | 170km/h | 12403m | -2.7m/s | -60.5°C | 52.6% | 193.2hPa | 2.6V | 00:00:00 | 00:00:00 | 00:00:00 | |
| DB0NH | 2026-09-04 06:10:14 | 51.57032 | 15.86055 | 127° | 162km/h | 12414m | -2.7m/s | -60.5°C | 62.1% | 192.8hPa | 2.6V | 00:00:00 | 02:00:21 | 00:00:00 | |
| KRY50SP-1 | 2026-09-04 06:10:11 | 51.57081 | 15.85951 | 128° | 157km/h | 12419m | -2.7m/s | -60.6°C | 51.4% | 192.7hPa | 2.6V | 00:00:00 | 00:00:00 | 00:00:00 | |
| EDDB2-11 | 2026-09-04 06:10:10 | 51.57129 | 15.85851 | 128° | 153km/h | 12425m | -2.7m/s | -60.7°C | 51.9% | 192.5hPa | 2.6V | 00:00:00 | 00:00:00 | 00:00:00 | |
| 13BRC | 2026-09-04 06:10:08 | 51.57178 | 15.85754 | 131° | 153km/h | 12430m | -2.7m/s | -60.8°C | 52.7% | 192.4hPa | 2.6V | 00:00:00 | 00:00:00 | 00:00:00 | |
| KRY50SP-1 | 2026-09-04 06:10:07 | 51.57203 | 15.85707 | 132° | 153km/h | 12433m | -2.7m/s | -60.9°C | 53.5% | 192.3hPa | 2.6V | 00:00:00 | 00:00:00 | 00:00:00 | |
| EDDB2-12 | 2026-09-04 06:10:00 | 51.57395 | 15.85373 | 132° | 166km/h | 12451m | -2.6m/s | -60.9°C | 51.4% | 191.7hPa | 2.6V | 00:00:00 | 00:00:00 | 00:00:00 | |
| SONDE2-11 | 2026-09-04 06:09:54 | 51.57595 | 15.85007 | 128° | 173km/h | 12470m | -2.7m/s | -61.1°C | 53.8% | 191.1hPa | 2.6V | 00:00:00 | 00:00:00 | 00:00:00 | |
| KRY50SP-1 | 2026-09-04 06:09:50 | 51.57649 | 15.84896 | 129° | 173km/h | 12475m | -2.7m/s | -61.2°C | 54.1% | 190.9hPa | 2.6V | 00:00:00 | 00:00:00 | 00:00:00 | |
| 13BRC | 2026-09-04 06:09:46 | 51.57751 | 15.84673 | 127° | 166km/h | 12486m | -2.7m/s | -61.2°C | 53.3% | 190.6hPa | 2.6V | 00:00:00 | 00:00:00 | 00:00:00 | |
| KRY50SP-1 | 2026-09-04 06:09:45 | 51.57799 | 15.84566 | 127° | 159km/h | 12491m | -2.6m/s | -61.2°C | 52.5% | 190.5hPa | 2.6V | 00:00:00 | 00:00:00 | 00:00:00 | |
| KRY50SP-1 | 2026-09-04 06:09:40 | 51.57919 | 15.84317 | 131° | 153km/h | 12505m | -2.6m/s | -61.5°C | 55.2% | 190.1hPa | 2.6V | 00:00:00 | 00:00:00 | 00:00:00 | |
| EDDB2-11 | 2026-09-04 06:09:39 | 51.57944 | 15.84270 | 130° | 153km/h | 12507m | -2.6m/s | -61.7°C | 56.0% | 190.0hPa | 2.6V | 00:00:00 | 00:00:00 | 00:00:00 | |
| POL2MAQ | 2026-09-04 06:09:36 | 51.57997 | 15.84174 | 133° | 159km/h | 12513m | -2.5m/s | -61.9°C | 55.6% | 189.9hPa | 2.6V | 00:00:00 | 00:00:00 | 00:00:00 | |
| POL1PZ | 2026-09-04 06:09:35 | 51.58024 | 15.84126 | 133° | 161km/h | 12515m | -2.6m/s | 0°C | 0% | 0hPa | 2.6V | 00:00:00 | 00:00:00 | 00:00:00 | |
| KRY50SP-1 | 2026-09-04 06:09:34 | 51.58051 | 15.84077 | 133° | 164km/h | 12518m | -2.5m/s | -61.9°C | 54.4% | 189.7hPa | 2.6V | 00:00:00 | 00:00:00 | 00:00:00 | |
| SP3BTT-10 | 2026-09-04 06:09:31 | 51.58163 | 15.83874 | 131° | 170km/h | 12528m | -2.6m/s | -61.8°C | 66.9% | 189.3hPa | 2.6V | 00:00:00 | 00:00:00 | 00:00:00 | |
| EDDB2-12 | 2026-09-04 06:09:29 | 51.58219 | 15.83769 | 130° | 170km/h | 12533m | -2.6m/s | -61.9°C | 55.9% | 189.2hPa | 2.6V | 00:00:00 | 00:00:00 | 00:00:00 | |
| 13BRC | 2026-09-04 06:09:25 | 51.58302 | 15.83606 | 130° | 173km/h | 12541m | -2.7m/s | -61.8°C | 57.3% | 189.0hPa | 2.6V | 00:00:00 | 00:00:00 | 00:00:00 | |
| KRY50SP-1 | 2026-09-04 06:09:24 | 51.58330 | 15.83551 | 129° | 173km/h | 12544m | -2.5m/s | -61.9°C | 58.0% | 188.9hPa | 2.6V | 00:00:00 | 00:00:00 | 00:00:00 | |
| SONDE2-11 | 2026-09-04 06:09:23 | 51.58409 | 15.83384 | 126° | 170km/h | 12551m | -2.7m/s | -61.8°C | 59.5% | 188.7hPa | 2.6V | 00:00:00 | 00:00:00 | 00:00:00 | |
| SP6BVK | 2026-09-04 06:09:19 | 51.58459 | 15.83273 | 127° | 166km/h | 12557m | -2.5m/s | -61.8°C | 59.0% | 188.5hPa | 2.6V | 00:00:00 | 00:00:00 | 00:00:00 | |
| KRY50SP-1 | 2026-09-04 06:09:18 | 51.58484 | 15.83219 | 127° | 164km/h | 12559m | -2.5m/s | -61.8°C | 58.5% | 188.4hPa | 2.6V | 00:00:00 | 00:00:00 | 00:00:00 | |
| DAC517 | 2026-09-04 06:09:15 | 51.58554 | 15.83061 | 127° | 155km/h | 12567m | -2.6m/s | -61.8°C | 56.9% | 188.2hPa | 2.6V | 00:00:00 | 00:00:00 | 00:00:00 | |
| KRY50SP-1 | 2026-09-04 06:09:13 | 51.58600 | 15.82960 | 128° | 153km/h | 12572m | -2.7m/s | -61.9°C | 56.9% | 188.0hPa | 2.6V | 00:00:00 | 00:00:00 | 00:00:00 | |
| EDDB2-11 | 2026-09-04 06:09:08 | 51.58748 | 15.82673 | 132° | 157km/h | 12588m | -2.6m/s | -62.1°C | 57.4% | 187.5hPa | 2.6V | 00:00:00 | 00:00:00 | 00:00:00 | |
| SP3WXH-11 | 2026-09-04 06:09:05 | 51.58860 | 15.82475 | 131° | 170km/h | 12598m | -2.6m/s | -62.2°C | 58.7% | 187.2hPa | 2.6V | 00:00:00 | 00:00:00 | 00:00:00 | |
| DB0NH | 2026-09-04 06:09:04 | 51.58860 | 15.82475 | 132° | 162km/h | 12598m | -2.5m/s | -62.1°C | 71.0% | 187.2hPa | 2.6V | 00:00:00 | 01:59:11 | 00:00:00 | |
| KRY50SP-1 | 2026-09-04 06:09:03 | 51.58860 | 15.82475 | 132° | 170km/h | 12598m | -2.6m/s | -62.2°C | 58.7% | 187.2hPa | 2.6V | 00:00:00 | 00:00:00 | 00:00:00 | |
| EDDB2-12 | 2026-09-04 06:08:58 | 51.59022 | 15.82150 | 126° | 168km/h | 12613m | -2.5m/s | -62.3°C | 63.0% | 186.8hPa | 2.6V | 00:00:00 | 00:00:00 | 00:00:00 | |
| SONDE2-11 | 2026-09-04 06:08:52 | 51.59190 | 15.81774 | 125° | 157km/h | 12631m | -2.6m/s | -62.5°C | 62.3% | 186.2hPa | 2.6V | 00:00:00 | 00:00:00 | 00:00:00 | |
| KRY50SP-1 | 2026-09-04 06:08:51 | 51.59166 | 15.81826 | 127° | 159km/h | 12628m | -2.6m/s | -62.4°C | 62.2% | 186.3hPa | 2.6V | 00:00:00 | 00:00:00 | 00:00:00 | |
| KRY50SP-1 | 2026-09-04 06:08:45 | 51.59307 | 15.81524 | 130° | 153km/h | 12643m | -2.7m/s | -62.7°C | 64.5% | 185.9hPa | 2.6V | 00:00:00 | 00:00:00 | 00:00:00 | |
| 13BRC | 2026-09-04 06:08:44 | 51.59332 | 15.81476 | 130° | 153km/h | 12646m | -2.5m/s | -62.6°C | 64.3% | 185.8hPa | 2.6V | 00:00:00 | 00:00:00 | 00:00:00 | |
| DAC517 | 2026-09-04 06:08:42 | 51.59382 | 15.81381 | 132° | 155km/h | 12651m | -2.6m/s | -62.8°C | 64.2% | 185.6hPa | 2.6V | 00:00:00 | 00:00:00 | 00:00:00 | |
| NBG1-10 | 2026-09-04 06:08:40 | 51.59462 | 15.81237 | 133° | 137km/h | 12659m | -2.4m/s | -62.7°C | 73.6% | 185.3hPa | 2.6V | 00:00:00 | 01:58:47 | 00:00:00 | |
| SQ6EMJ | 2026-09-04 06:08:39 | 51.59490 | 15.81188 | 133° | 164km/h | 12661m | -2.5m/s | -62.8°C | 61.3% | 185.3hPa | 2.6V | 00:00:00 | 00:00:00 | 00:00:00 | |
| SP6BVK | 2026-09-04 06:08:38 | 51.59490 | 15.81188 | 133° | 164km/h | 12661m | -2.5m/s | -62.8°C | 61.3% | 185.3hPa | 2.6V | 00:00:00 | 00:00:00 | 00:00:00 | |
| EDDB2-11 | 2026-09-04 06:08:37 | 51.59547 | 15.81087 | 131° | 168km/h | 12666m | -2.6m/s | -62.7°C | 61.3% | 185.1hPa | 2.6V | 00:00:00 | 00:00:00 | 00:00:00 | |
| DB0NH | 2026-09-04 06:08:34 | 51.59631 | 15.80928 | 130° | 162km/h | 12674m | -2.4m/s | -62.8°C | 76.7% | 184.8hPa | 2.6V | 00:00:00 | 01:58:41 | 08:30:00 | |
| POL2MAQ | 2026-09-04 06:08:33 | 51.59631 | 15.80928 | 130° | 173km/h | 12674m | -2.5m/s | -62.8°C | 63.6% | 184.9hPa | 2.6V | 00:00:00 | 00:00:00 | 00:00:00 | |
| SP3BTT-10 | 2026-09-04 06:08:31 | 51.59712 | 15.80762 | 127° | 166km/h | 12681m | -2.5m/s | -62.9°C | 78.6% | 184.6hPa | 2.6V | 00:00:00 | 00:00:00 | 00:00:00 | |
| KRY50SP-1 | 2026-09-04 06:08:29 | 51.59738 | 15.80706 | 127° | 172km/h | 12684m | -2.5m/s | -63.0°C | 65.4% | 184.6hPa | 2.6V | 00:00:00 | 00:00:00 | 00:00:00 | |
| EDDB2-12 | 2026-09-04 06:08:27 | 51.59812 | 15.80539 | 125° | 166km/h | 12691m | -2.6m/s | -62.9°C | 63.9% | 184.4hPa | 2.6V | 00:00:00 | 00:00:00 | 00:00:00 | |
| SQ6EMJ | 2026-09-04 06:08:24 | 51.59860 | 15.80430 | 127° | 161km/h | 12696m | -2.5m/s | -63.1°C | 63.3% | 184.2hPa | 2.6V | 00:00:00 | 00:00:00 | 00:00:00 | |
| 13BRC | 2026-09-04 06:08:23 | 51.59884 | 15.80378 | 127° | 159km/h | 12699m | -2.5m/s | -63.3°C | 63.9% | 184.2hPa | 2.6V | 00:00:00 | 00:00:00 | 00:00:00 | |
| SONDE2-11 | 2026-09-04 06:08:21 | 51.59981 | 15.80176 | 129° | 155km/h | 12708m | -2.4m/s | -63.5°C | 67.5% | 183.9hPa | 2.6V | 00:00:00 | 00:00:00 | 00:00:00 | |
| SQ6EMJ | 2026-09-04 06:08:20 | 51.59982 | 15.80175 | 130° | 157km/h | 12708m | -2.4m/s | -63.5°C | 67.6% | 183.9hPa | 2.6V | 00:00:00 | 00:00:00 | 00:00:00 | |
| KRY50SP-1 | 2026-09-04 06:08:18 | 51.60032 | 15.80077 | 131° | 157km/h | 12713m | -2.4m/s | -63.5°C | 68.5% | 183.7hPa | 2.6V | 00:00:00 | 00:00:00 | 00:00:00 | |
| SP6BVK | 2026-09-04 06:08:17 | 51.60032 | 15.80077 | 131° | 157km/h | 12713m | -2.4m/s | -63.5°C | 68.5% | 183.7hPa | 2.6V | 00:00:00 | 00:00:00 | 00:00:00 | |
| POL2MAQ | 2026-09-04 06:08:13 | 51.60136 | 15.79880 | 132° | 161km/h | 12723m | -2.3m/s | -63.6°C | 67.9% | 183.4hPa | 2.6V | 00:00:00 | 00:00:00 | 00:00:00 | |
| KRY50SP-1 | 2026-09-04 06:08:12 | 51.60162 | 15.79831 | 132° | 161km/h | 12725m | -2.3m/s | -63.6°C | 67.8% | 183.3hPa | 2.6V | 00:00:00 | 00:00:00 | 00:00:00 | |
| EDDB2-11 | 2026-09-04 06:08:06 | 51.60352 | 15.79481 | 131° | 162km/h | 12742m | -2.4m/s | -63.3°C | 66.8% | 182.8hPa | 2.6V | 00:00:00 | 00:00:00 | 00:00:00 | |
| DB0NH | 2026-09-04 06:08:04 | 51.60407 | 15.79382 | 132° | 170km/h | 12747m | -2.4m/s | -63.3°C | 79.5% | 182.6hPa | 2.6V | 00:00:00 | 01:58:11 | 00:00:00 | |
| 13BRC | 2026-09-04 06:08:02 | 51.60435 | 15.79332 | 133° | 164km/h | 12749m | -2.4m/s | -63.3°C | 64.7% | 182.7hPa | 2.6V | 00:00:00 | 00:00:00 | 00:00:00 | |
| EDDB2-12 | 2026-09-04 06:07:56 | 51.60663 | 15.78918 | 130° | 173km/h | 12768m | -2.4m/s | -63.3°C | 61.6% | 182.1hPa | 2.6V | 00:00:00 | 00:00:00 | 00:00:00 | |
| SONDE2-11 | 2026-09-04 06:07:49 | 51.60829 | 15.78587 | 127° | 173km/h | 12783m | -2.3m/s | -63.7°C | 69.2% | 181.6hPa | 2.6V | 00:00:00 | 00:00:00 | 00:00:00 | |
| KRY50SP-1 | 2026-09-04 06:07:45 | 51.60908 | 15.78420 | 128° | 172km/h | 12790m | -2.5m/s | -64.1°C | 70.5% | 181.4hPa | 2.6V | 00:00:00 | 00:00:00 | 00:00:00 | |
| 13BRC | 2026-09-04 06:07:41 | 51.61012 | 15.78201 | 128° | 168km/h | 12800m | -2.5m/s | -64.1°C | 65.9% | 181.1hPa | 2.6V | 00:00:00 | 00:00:00 | 00:00:00 | |
| KRY50SP-1 | 2026-09-04 06:07:39 | 51.61063 | 15.78093 | 128° | 168km/h | 12805m | -2.6m/s | -64.1°C | 64.6% | 181.0hPa | 2.6V | 00:00:00 | 00:00:00 | 00:00:00 | |
| SP6BVK | 2026-09-04 06:07:36 | 51.61140 | 15.77930 | 128° | 168km/h | 12813m | -2.5m/s | -64.0°C | 63.5% | 180.7hPa | 2.6V | 00:00:00 | 00:00:00 | 00:00:00 | |
| EDDB2-11 | 2026-09-04 06:07:35 | 51.61190 | 15.77820 | 126° | 168km/h | 12817m | -2.5m/s | -63.8°C | 61.7% | 180.6hPa | 2.6V | 00:00:00 | 00:00:00 | 00:00:00 | |
| DB0NH | 2026-09-04 06:07:34 | 51.61215 | 15.77764 | 127° | 166km/h | 12820m | -2.4m/s | -63.8°C | 75.8% | 180.4hPa | 2.6V | 00:00:00 | 01:57:41 | 00:00:00 | |
| POL2MAQ | 2026-09-04 06:07:33 | 51.61215 | 15.77764 | 127° | 170km/h | 12820m | -2.5m/s | -63.9°C | 62.5% | 180.5hPa | 2.6V | 00:00:00 | 00:00:00 | 00:00:00 | |
| SP3BTT-10 | 2026-09-04 06:07:31 | 51.61292 | 15.77597 | 128° | 172km/h | 12828m | -2.6m/s | -63.9°C | 76.8% | 180.2hPa | 2.6V | 00:00:00 | 00:00:00 | 00:00:00 | |
| OE3OSB-13 | 2026-09-04 06:07:29 | 51.61430 | 15.77321 | 130° | 175km/h | 12840m | -2.5m/s | -64.1°C | 65.1% | 179.9hPa | 2.6V | 00:00:00 | 00:00:00 | 00:00:00 | |
| EDDB2-12 | 2026-09-04 06:07:25 | 51.61488 | 15.77213 | 131° | 173km/h | 12844m | -2.6m/s | -64.1°C | 64.1% | 179.8hPa | 2.6V | 00:00:00 | 00:00:00 | 00:00:00 | |
| AM1SDL-15 | 2026-09-04 06:07:23 | 51.61517 | 15.77160 | 132° | 166km/h | 12847m | -2.5m/s | 0°C | 0% | 0hPa | 2.6V | 00:00:00 | 01:57:30 | 00:00:00 | |
| 13BRC | 2026-09-04 06:07:20 | 51.61576 | 15.77056 | 134° | 172km/h | 12852m | -2.5m/s | -64.2°C | 64.4% | 179.5hPa | 2.6V | 00:00:00 | 00:00:00 | 00:00:00 | |
| SONDE2-11 | 2026-09-04 06:07:19 | 51.61662 | 15.76906 | 133° | 164km/h | 12859m | -2.6m/s | -64.4°C | 63.2% | 179.2hPa | 2.6V | 00:00:00 | 00:00:00 | 00:00:00 | |
| KRY50SP-1 | 2026-09-04 06:07:17 | 51.61662 | 15.76906 | 134° | 164km/h | 12859m | -2.6m/s | -64.4°C | 63.2% | 179.3hPa | 2.6V | 00:00:00 | 00:00:00 | 00:00:00 | |
| SP6BVK | 2026-09-04 06:07:16 | 51.61690 | 15.76857 | 134° | 162km/h | 12862m | -2.6m/s | -64.5°C | 63.1% | 179.2hPa | 2.6V | 00:00:00 | 00:00:00 | 00:00:00 | |
| POL2MAQ | 2026-09-04 06:07:12 | 51.61797 | 15.76666 | 131° | 155km/h | 12872m | -2.6m/s | -64.7°C | 61.2% | 178.9hPa | 2.6V | 00:00:00 | 00:00:00 | 00:00:00 | |
| AM1SDL-15 | 2026-09-04 06:07:11 | 51.61847 | 15.76569 | 129° | 161km/h | 12877m | -2.3m/s | 0°C | 0% | 0hPa | 2.6V | 00:00:00 | 01:57:18 | 00:00:00 | |
| SONCRA | 2026-09-04 06:07:10 | 51.61894 | 15.76470 | 126° | 153km/h | 12881m | -2.7m/s | -64.6°C | 60.2% | 178.6hPa | 2.6V | 00:00:00 | 00:00:00 | 00:00:00 | |
| KRY50SP-1 | 2026-09-04 06:07:06 | 51.61942 | 15.76367 | 127° | 159km/h | 12887m | -2.7m/s | -64.7°C | 61.6% | 178.4hPa | 2.6V | 00:00:00 | 00:00:00 | 00:00:00 | |
| DB0NH | 2026-09-04 06:07:04 | 51.62015 | 15.76207 | 128° | 170km/h | 12894m | -2.5m/s | -64.6°C | 76.8% | 178.1hPa | 2.6V | 00:00:00 | 01:57:11 | 00:00:00 | |
| SP3WXH-11 | 2026-09-04 06:07:01 | 51.62122 | 15.75992 | 129° | 170km/h | 12904m | -2.6m/s | -64.8°C | 62.6% | 177.9hPa | 2.6V | 00:00:00 | 00:00:00 | 00:00:00 | |
| OE3OSB-13 | 2026-09-04 06:06:58 | 51.62178 | 15.75885 | 130° | 172km/h | 12909m | -2.4m/s | -64.8°C | 62.1% | 177.8hPa | 2.6V | 00:00:00 | 00:00:00 | 00:00:00 | |
| EDDB2-12 | 2026-09-04 06:06:54 | 51.62321 | 15.75622 | 132° | 172km/h | 12922m | -3.0m/s | -64.9°C | 63.0% | 177.4hPa | 2.6V | 00:00:00 | 00:00:00 | 00:00:00 | |
| POL2MAQ | 2026-09-04 06:06:51 | 51.62350 | 15.75570 | 133° | 172km/h | 12924m | -2.6m/s | -64.9°C | 63.1% | 177.3hPa | 2.6V | 00:00:00 | 00:00:00 | 00:00:00 | |
| KRY50SP-1 | 2026-09-04 06:06:50 | 51.62379 | 15.75519 | 133° | 170km/h | 12927m | -2.4m/s | -64.9°C | 63.2% | 177.2hPa | 2.6V | 00:00:00 | 00:00:00 | 00:00:00 | |
| AM1SDL-15 | 2026-09-04 06:06:47 | 51.62495 | 15.75315 | 133° | 170km/h | 12937m | -2.9m/s | 0°C | 0% | 0hPa | 2.6V | 00:00:00 | 01:56:54 | 00:00:00 | |
| KRY50SP-1 | 2026-09-04 06:06:44 | 51.62552 | 15.75215 | 133° | 168km/h | 12943m | -2.8m/s | -65.1°C | 63.2% | 176.8hPa | 2.6V | 00:00:00 | 00:00:00 | 00:00:00 | |
| DB0DAN | 2026-09-04 06:06:40 | 51.62696 | 15.74960 | 132° | 162km/h | 12955m | -2.5m/s | -65.1°C | 61.6% | 176.46hPa | 2.6V | 00:00:00 | 00:00:00 | 00:00:00 | |
| 13BRC | 2026-09-04 06:06:39 | 51.62696 | 15.74960 | 133° | 170km/h | 12956m | -2.5m/s | -65.1°C | 61.6% | 176.5hPa | 2.6V | 00:00:00 | 00:00:00 | 00:00:00 | |
| SP6BVK | 2026-09-04 06:06:35 | 51.62813 | 15.74754 | 134° | 170km/h | 12966m | -2.6m/s | -65.1°C | 60.8% | 176.2hPa | 2.6V | 00:00:00 | 00:00:00 | 00:00:00 | |
| DB0NH | 2026-09-04 06:06:34 | 51.62872 | 15.74653 | 133° | 151km/h | 12970m | -2.5m/s | -65.1°C | 74.2% | 176.0hPa | 2.6V | 00:00:00 | 01:56:41 | 00:00:00 | |
| EDDB2-11 | 2026-09-04 06:06:33 | 51.62901 | 15.74603 | 133° | 170km/h | 12973m | -2.6m/s | -65.1°C | 60.1% | 176.0hPa | 2.6V | 00:00:00 | 00:00:00 | 00:00:00 | |
| SP3BTT-10 | 2026-09-04 06:06:31 | 51.62960 | 15.74503 | 135° | 162km/h | 12978m | -2.5m/s | -65.1°C | 73.7% | 175.7hPa | 2.6V | 00:00:00 | 00:00:00 | 00:00:00 | |
| SP3WXH-11 | 2026-09-04 06:06:29 | 51.63019 | 15.74404 | 133° | 168km/h | 12983m | -2.4m/s | -65.1°C | 60.4% | 175.6hPa | 2.6V | 00:00:00 | 00:00:00 | 00:00:00 | |
| KRY50SP-1 | 2026-09-04 06:06:28 | 51.63019 | 15.74404 | 135° | 170km/h | 12983m | -2.4m/s | -65.1°C | 60.4% | 175.6hPa | 2.6V | 00:00:00 | 00:00:00 | 00:00:00 | |
| OE3OSB-13 | 2026-09-04 06:06:27 | 51.63079 | 15.74305 | 134° | 168km/h | 12988m | -2.5m/s | -65.1°C | 61.1% | 175.5hPa | 2.6V | 00:00:00 | 00:00:00 | 00:00:00 | |
| OE3JTB-15 | 2026-09-04 06:06:23 | 51.63201 | 15.74110 | 135° | 166km/h | 12998m | -2.9m/s | -65.2°C | 75.8% | 175.1hPa | 2.6V | 00:00:00 | 01:56:30 | 00:00:00 | |
| KRY50SP-1 | 2026-09-04 06:06:22 | 51.63201 | 15.74110 | 136° | 172km/h | 12998m | -3.0m/s | -65.2°C | 61.6% | 175.2hPa | 2.6V | 00:00:00 | 00:00:00 | 00:00:00 | |
| 13BRC | 2026-09-04 06:06:18 | 51.63325 | 15.73910 | 136° | 175km/h | 13009m | -2.5m/s | -65.3°C | 61.7% | 174.9hPa | 2.6V | 00:00:00 | 00:00:00 | 00:00:00 | |
| SONDE2-11 | 2026-09-04 06:06:16 | 51.63418 | 15.73761 | 134° | 172km/h | 13017m | -2.9m/s | -65.3°C | 61.8% | 174.7hPa | 2.6V | 00:00:00 | 00:00:00 | 00:00:00 | |
| DAC517 | 2026-09-04 06:06:15 | 51.63418 | 15.73761 | 136° | 172km/h | 13017m | -2.9m/s | -65.3°C | 61.9% | 174.6hPa | 2.6V | 00:00:00 | 00:00:00 | 00:00:00 | |
| DB0DAN | 2026-09-04 06:06:10 | 51.63604 | 15.73474 | 137° | 157km/h | 13034m | -2.6m/s | -65.2°C | 62.8% | 174.21hPa | 2.6V | 00:00:00 | 00:00:00 | 00:00:00 | |
| SONCRA | 2026-09-04 06:06:08 | 51.63694 | 15.73340 | 135° | 157km/h | 13041m | -2.5m/s | -65.2°C | 63.7% | 174.0hPa | 2.6V | 00:00:00 | 00:00:00 | 00:00:00 | |
| KRY50SP-1 | 2026-09-04 06:06:06 | 51.63693 | 15.73340 | 137° | 159km/h | 13041m | -2.5m/s | -65.2°C | 63.8% | 174.0hPa | 2.6V | 00:00:00 | 00:00:00 | 00:00:00 | |
| EDDB2-11 | 2026-09-04 06:06:02 | 51.63832 | 15.73116 | 132° | 153km/h | 13054m | -2.4m/s | -65.1°C | 61.8% | 173.6hPa | 2.6V | 00:00:00 | 00:00:00 | 00:00:00 | |
| SP3WXH-11 | 2026-09-04 06:05:58 | 51.63935 | 15.72924 | 129° | 159km/h | 13065m | -2.6m/s | -64.9°C | 60.9% | 173.3hPa | 2.6V | 00:00:00 | 00:00:00 | 00:00:00 | |
| OE3OSB-13 | 2026-09-04 06:05:56 | 51.64101 | 15.72614 | 132° | 172km/h | 13079m | -2.7m/s | -64.8°C | 63.5% | 172.9hPa | 2.6V | 00:00:00 | 00:00:00 | 00:00:00 | |
| EDDB2-12 | 2026-09-04 06:05:52 | 51.64132 | 15.72563 | 133° | 172km/h | 13082m | -2.6m/s | -64.8°C | 64.2% | 172.8hPa | 2.6V | 00:00:00 | 00:00:00 | 00:00:00 | |
| SONDE2-11 | 2026-09-04 06:05:45 | 51.64315 | 15.72278 | 137° | 162km/h | 13097m | -2.8m/s | -64.8°C | 63.1% | 172.4hPa | 2.6V | 00:00:00 | 00:00:00 | 00:00:00 | |
| KRY50SP-1 | 2026-09-04 06:05:44 | 51.64315 | 15.72277 | 139° | 164km/h | 13097m | -2.8m/s | -64.8°C | 63.2% | 172.4hPa | 2.6V | 00:00:00 | 00:00:00 | 00:00:00 | |
| AM1SDL-15 | 2026-09-04 06:05:40 | 51.64460 | 15.72061 | 136° | 161km/h | 13110m | -2.6m/s | 0°C | 0% | 0hPa | 2.6V | 00:00:00 | 01:55:47 | 00:00:00 | |
| KRY50SP-1 | 2026-09-04 06:05:38 | 51.64487 | 15.72018 | 136° | 151km/h | 13112m | -2.9m/s | -64.9°C | 60.7% | 171.9hPa | 2.6V | 00:00:00 | 00:00:00 | 00:00:00 | |
| 13BRC | 2026-09-04 06:05:36 | 51.64540 | 15.71930 | 134° | 148km/h | 13118m | -2.7m/s | -64.9°C | 60.2% | 171.8hPa | 2.6V | 00:00:00 | 00:00:00 | 00:00:00 | |
| SP6BVK | 2026-09-04 06:05:34 | 51.64591 | 15.71840 | 132° | 151km/h | 13123m | -2.5m/s | -65.0°C | 60.6% | 171.7hPa | 2.6V | 00:00:00 | 00:00:00 | 00:00:00 | |
| KRY50SP-1 | 2026-09-04 06:05:33 | 51.64616 | 15.71793 | 131° | 153km/h | 13126m | -2.6m/s | -65.0°C | 61.1% | 171.5hPa | 2.6V | 00:00:00 | 00:00:00 | 00:00:00 | |
| SP3BTT-10 | 2026-09-04 06:05:31 | 51.64692 | 15.71646 | 130° | 150km/h | 13134m | -2.7m/s | -65.0°C | 76.2% | 171.3hPa | 2.6V | 00:00:00 | 00:00:00 | 00:00:00 | |
| POL2MAQ | 2026-09-04 06:05:30 | 51.64692 | 15.71646 | 131° | 161km/h | 13134m | -2.7m/s | -65.0°C | 62.2% | 171.4hPa | 2.6V | 00:00:00 | 00:00:00 | 00:00:00 | |
| KRY50SP-1 | 2026-09-04 06:05:27 | 51.64773 | 15.71494 | 133° | 166km/h | 13141m | -2.5m/s | -65.1°C | 62.6% | 171.1hPa | 2.6V | 00:00:00 | 00:00:00 | 00:00:00 | |
| AM1SDL-15 | 2026-09-04 06:05:26 | 51.64830 | 15.71393 | 134° | 161km/h | 13146m | -2.4m/s | 0°C | 0% | 0hPa | 2.6V | 00:00:00 | 01:55:33 | 00:00:00 | |
| OE3JTB-15 | 2026-09-04 06:05:25 | 51.64859 | 15.71343 | 134° | 151km/h | 13149m | -2.9m/s | -65.1°C | 76.8% | 170.8hPa | 2.6V | 00:00:00 | 00:00:00 | 00:00:00 | |
| KRY50SP-1 | 2026-09-04 06:05:21 | 51.64948 | 15.71198 | 136° | 166km/h | 13157m | -2.8m/s | -65.2°C | 62.7% | 170.7hPa | 2.6V | 00:00:00 | 00:00:00 | 00:00:00 | |
| EDDB2-12 | 2026-09-04 06:05:20 | 51.65008 | 15.71104 | 136° | 162km/h | 13162m | -2.6m/s | -65.3°C | 62.8% | 170.5hPa | 2.6V | 00:00:00 | 00:00:00 | 00:00:00 | |
| 13BRC | 2026-09-04 06:05:16 | 51.65096 | 15.70971 | 137° | 155km/h | 13169m | -2.4m/s | -65.3°C | 62.8% | 170.3hPa | 2.6V | 00:00:00 | 00:00:00 | 00:00:00 | |
| KRY50SP-1 | 2026-09-04 06:05:15 | 51.65124 | 15.70927 | 138° | 153km/h | 13171m | -2.5m/s | -65.4°C | 62.6% | 170.3hPa | 2.6V | 00:00:00 | 00:00:00 | 00:00:00 | |
| SONDE2-11 | 2026-09-04 06:05:14 | 51.65180 | 15.70840 | 135° | 153km/h | 13176m | -2.8m/s | -65.4°C | 62.5% | 170.1hPa | 2.6V | 00:00:00 | 00:00:00 | 00:00:00 | |
| AM1SDL-15 | 2026-09-04 06:05:12 | 51.65234 | 15.70753 | 135° | 148km/h | 13181m | -2.7m/s | 0°C | 0% | 0hPa | 2.6V | 00:00:00 | 01:55:19 | 00:00:00 | |
| KRY50SP-1 | 2026-09-04 06:05:09 | 51.65285 | 15.70666 | 134° | 146km/h | 13186m | -2.7m/s | -65.5°C | 63.5% | 169.8hPa | 2.6V | 00:00:00 | 00:00:00 | 00:00:00 | |
| DAC517 | 2026-09-04 06:05:08 | 51.65311 | 15.70622 | 134° | 148km/h | 13189m | -2.7m/s | -65.6°C | 63.7% | 169.8hPa | 2.6V | 00:00:00 | 00:00:00 | 00:00:00 | |
| SONCRA | 2026-09-04 06:05:05 | 51.65413 | 15.70452 | 132° | 142km/h | 13199m | -2.6m/s | -65.7°C | 64.8% | 169.5hPa | 2.6V | 00:00:00 | 00:00:00 | 00:00:00 | |
| KRY50SP-1 | 2026-09-04 06:05:04 | 51.65413 | 15.70451 | 134° | 142km/h | 13199m | -2.6m/s | -65.7°C | 64.8% | 169.5hPa | 2.6V | 00:00:00 | 00:00:00 | 00:00:00 | |
| EDDB2-11 | 2026-09-04 06:05:00 | 51.65534 | 15.70236 | 131° | 144km/h | 13213m | -3.0m/s | -65.7°C | 62.6% | 169.1hPa | 2.6V | 00:00:00 | 00:00:00 | 00:00:00 | |
| SP3WXH-11 | 2026-09-04 06:04:56 | 51.65628 | 15.70060 | 130° | 139km/h | 13225m | -2.8m/s | -65.8°C | 60.2% | 168.8hPa | 2.6V | 00:00:00 | 00:00:00 | 00:00:00 | |
| OE3OSB-13 | 2026-09-04 06:04:54 | 51.65724 | 15.69890 | 133° | 139km/h | 13236m | -2.5m/s | -65.9°C | 61.8% | 168.5hPa | 2.6V | 00:00:00 | 00:00:00 | 00:00:00 | |
| EDDB2-12 | 2026-09-04 06:04:49 | 51.65802 | 15.69765 | 136° | 144km/h | 13244m | -2.5m/s | -65.9°C | 62.9% | 168.3hPa | 2.6V | 00:00:00 | 00:00:00 | 00:00:00 | |
| DB0NH | 2026-09-04 06:04:48 | 51.65829 | 15.69723 | 136° | 141km/h | 13247m | -2.4m/s | -65.8°C | 77.8% | 168.2hPa | 2.6V | 00:00:00 | 01:54:55 | 00:00:00 | |
| DAC517 | 2026-09-04 06:04:47 | 51.65829 | 15.69723 | 136° | 150km/h | 13247m | -2.4m/s | -65.9°C | 63.2% | 168.2hPa | 2.6V | 00:00:00 | 00:00:00 | 00:00:00 | |
| KRY50SP-1 | 2026-09-04 06:04:46 | 51.65855 | 15.69682 | 138° | 146km/h | 13249m | -2.5m/s | -65.9°C | 63.6% | 168.1hPa | 2.6V | 00:00:00 | 00:00:00 | 00:00:00 | |
| SONDE2-11 | 2026-09-04 06:04:43 | 51.65962 | 15.69517 | 136° | 142km/h | 13258m | -2.6m/s | -65.9°C | 64.6% | 167.9hPa | 2.6V | 00:00:00 | 00:00:00 | 00:00:00 | |
| KRY50SP-1 | 2026-09-04 06:04:41 | 51.65988 | 15.69477 | 137° | 141km/h | 13261m | -2.9m/s | -65.9°C | 64.1% | 167.8hPa | 2.6V | 00:00:00 | 00:00:00 | 00:00:00 | |
| KRY50SP-1 | 2026-09-04 06:04:35 | 51.66135 | 15.69242 | 135° | 135km/h | 13277m | -2.9m/s | -65.9°C | 60.2% | 167.3hPa | 2.6V | 00:00:00 | 00:00:00 | 00:00:00 | |
| SONCRA | 2026-09-04 06:04:34 | 51.66180 | 15.69164 | 131° | 130km/h | 13283m | -2.9m/s | -65.9°C | 58.4% | 167.2hPa | 2.6V | 00:00:00 | 00:00:00 | 00:00:00 | |
| SP3BTT-10 | 2026-09-04 06:04:31 | 51.66245 | 15.69042 | 129° | 133km/h | 13291m | -2.7m/s | -65.9°C | 69.8% | 166.9hPa | 2.6V | 00:00:00 | 00:00:00 | 00:00:00 | |
| EDDB2-11 | 2026-09-04 06:04:29 | 51.66287 | 15.68956 | 128° | 135km/h | 13297m | -2.6m/s | -65.9°C | 55.7% | 166.8hPa | 2.6V | 00:00:00 | 00:00:00 | 00:00:00 | |
| POL2MAQ | 2026-09-04 06:04:28 | 51.66287 | 15.68956 | 129° | 137km/h | 13297m | -2.6m/s | -65.9°C | 55.8% | 166.8hPa | 2.6V | 00:00:00 | 00:00:00 | 00:00:00 | |
| OE3JTB-15 | 2026-09-04 06:04:27 | 51.66330 | 15.68868 | 129° | 130km/h | 13302m | -2.6m/s | -65.9°C | 69.6% | 166.6hPa | 2.6V | 00:00:00 | 00:00:00 | 00:00:00 | |
| SP3WXH-11 | 2026-09-04 06:04:25 | 51.66375 | 15.68777 | 129° | 142km/h | 13307m | -2.6m/s | -66.0°C | 56.5% | 166.5hPa | 2.5V | 00:00:00 | 00:00:00 | 00:00:00 | |
| KRY50SP-1 | 2026-09-04 06:04:24 | 51.66375 | 15.68777 | 130° | 144km/h | 13308m | -2.6m/s | -66.0°C | 56.5% | 166.5hPa | 2.5V | 00:00:00 | 00:00:00 | 00:00:00 | |
| OE3OSB-13 | 2026-09-04 06:04:23 | 51.66446 | 15.68644 | 131° | 142km/h | 13315m | -2.2m/s | -66.0°C | 56.3% | 166.3hPa | 2.5V | 00:00:00 | 00:00:00 | 00:00:00 | |
| KRY50SP-1 | 2026-09-04 06:04:19 | 51.66494 | 15.68557 | 133° | 142km/h | 13320m | -2.3m/s | -66.1°C | 56.2% | 166.2hPa | 2.5V | 00:00:00 | 00:00:00 | 00:00:00 | |
| EDDB2-12 | 2026-09-04 06:04:18 | 51.66544 | 15.68471 | 133° | 146km/h | 13325m | -2.8m/s | -66.0°C | 55.4% | 166.0hPa | 2.5V | 00:00:00 | 00:00:00 | 00:00:00 | |
| 13BRC | 2026-09-04 06:04:15 | 51.66595 | 15.68385 | 135° | 148km/h | 13330m | -2.5m/s | -66.0°C | 54.0% | 165.9hPa | 2.5V | 00:00:00 | 00:00:00 | 00:00:00 | |
| SP6BVK | 2026-09-04 06:04:14 | 51.66621 | 15.68342 | 135° | 146km/h | 13333m | -2.5m/s | -66.0°C | 53.6% | 165.8hPa | 2.5V | 00:00:00 | 00:00:00 | 00:00:00 | |
| KRY50SP-1 | 2026-09-04 06:04:13 | 51.66646 | 15.68300 | 134° | 148km/h | 13335m | -2.5m/s | -66.1°C | 53.2% | 165.8hPa | 2.5V | 00:00:00 | 00:00:00 | 00:00:00 | |
| SONDE2-11 | 2026-09-04 06:04:12 | 51.66698 | 15.68212 | 132° | 150km/h | 13340m | -2.8m/s | -66.1°C | 52.2% | 165.6hPa | 2.5V | 00:00:00 | 00:00:00 | 00:00:00 | |
| S3001 | 2026-09-04 06:04:10 | 51.66774 | 15.68076 | 130° | 146km/h | 13348m | -2.5m/s | -66.1°C | 50.5% | 165.4hPa | 2.5V | 00:00:00 | 00:00:00 | 00:00:00 | |
| POL2MAQ | 2026-09-04 06:04:08 | 51.66773 | 15.68076 | 131° | 148km/h | 13348m | -2.5m/s | -66.1°C | 50.5% | 165.4hPa | 2.5V | 00:00:00 | 00:00:00 | 00:00:00 | |
| DAC517 | 2026-09-04 06:04:04 | 51.66867 | 15.67893 | 129° | 144km/h | 13359m | -2.6m/s | -65.9°C | 47.5% | 165.1hPa | 2.5V | 00:00:00 | 00:00:00 | 00:00:00 | |
| SONCRA | 2026-09-04 06:04:03 | 51.66913 | 15.67802 | 128° | 144km/h | 13364m | -3.1m/s | -65.9°C | 46.0% | 165.0hPa | 2.5V | 00:00:00 | 00:00:00 | 00:00:00 | |
| KRY50SP-1 | 2026-09-04 06:04:02 | 51.66913 | 15.67802 | 130° | 146km/h | 13364m | -3.1m/s | -65.9°C | 46.1% | 165.0hPa | 2.5V | 00:00:00 | 00:00:00 | 00:00:00 | |
| EDDB2-11 | 2026-09-04 06:03:58 | 51.67054 | 15.67525 | 129° | 151km/h | 13380m | -2.9m/s | -65.7°C | 40.8% | 164.5hPa | 2.5V | 00:00:00 | 00:00:00 | 00:00:00 | |
| SP3WXH-11 | 2026-09-04 06:03:54 | 51.67129 | 15.67383 | 131° | 151km/h | 13389m | -2.9m/s | -65.7°C | 38.8% | 164.3hPa | 2.5V | 00:00:00 | 00:00:00 | 00:00:00 | |
| OE3OSB-13 | 2026-09-04 06:03:52 | 51.67232 | 15.67202 | 134° | 148km/h | 13399m | -2.5m/s | -65.6°C | 36.3% | 164.0hPa | 2.5V | 00:00:00 | 00:00:00 | 00:00:00 | |
| EDDB2-12 | 2026-09-04 06:03:47 | 51.67312 | 15.67079 | 137° | 144km/h | 13404m | -2.9m/s | -65.5°C | 34.7% | 163.8hPa | 2.5V | 00:00:00 | 00:00:00 | 00:00:00 | |
| KRY50SP-1 | 2026-09-04 06:03:46 | 51.67312 | 15.67079 | 138° | 146km/h | 13404m | -2.9m/s | -65.5°C | 34.8% | 163.8hPa | 2.5V | 00:00:00 | 00:00:00 | 00:00:00 | |
| DAC517 | 2026-09-04 06:03:44 | 51.67390 | 15.66960 | 137° | 135km/h | 13412m | -2.7m/s | -65.5°C | 33.0% | 163.6hPa | 2.5V | 00:00:00 | 00:00:00 | 00:00:00 | |
| DB0DAN | 2026-09-04 06:03:40 | 51.67490 | 15.66812 | 138° | 128km/h | 13422m | -3m/s | -65.4°C | 30.2% | 163.28hPa | 2.5V | 00:00:00 | 00:00:00 | 00:00:00 | |
| KRY50SP-1 | 2026-09-04 06:03:36 | 51.67565 | 15.66703 | 139° | 133km/h | 13431m | -3.1m/s | -65.2°C | 28.2% | 163.1hPa | 2.6V | 00:00:00 | 00:00:00 | 00:00:00 | |
| 13BRC | 2026-09-04 06:03:34 | 51.67641 | 15.66597 | 141° | 131km/h | 13440m | -3.1m/s | -65.1°C | 26.8% | 162.8hPa | 2.6V | 00:00:00 | 00:00:00 | 00:00:00 | |
| SP6BVK | 2026-09-04 06:03:33 | 51.67641 | 15.66597 | 141° | 131km/h | 13440m | -3.1m/s | -65.1°C | 26.8% | 162.8hPa | 2.6V | 00:00:00 | 00:00:00 | 00:00:00 | |
| SONCRA | 2026-09-04 06:03:32 | 51.67692 | 15.66528 | 140° | 131km/h | 13444m | -3.6m/s | -65.1°C | 25.5% | 162.7hPa | 2.6V | 00:00:00 | 00:00:00 | 00:00:00 | |
| SP3BTT-10 | 2026-09-04 06:03:30 | 51.67742 | 15.66460 | 140° | 110km/h | 13451m | -3.1m/s | -65.1°C | 33.6% | 162.5hPa | 2.6V | 00:00:00 | 00:00:00 | 00:00:00 | |
| POL2MAQ | 2026-09-04 06:03:27 | 51.67789 | 15.66391 | 139° | 126km/h | 13456m | -2.9m/s | -65.1°C | 22.6% | 162.4hPa | 2.6V | 00:00:00 | 00:00:00 | 00:00:00 | |
| DB0DAN | 2026-09-04 06:03:25 | 51.67858 | 15.66288 | 136° | 117km/h | 13464m | -3m/s | -64.9°C | 20.2% | 162.16hPa | 2.6V | 00:00:00 | 00:00:00 | 00:00:00 | |
| SP3WXH-11 | 2026-09-04 06:03:23 | 51.67903 | 15.66219 | 136° | 120km/h | 13469m | -3.1m/s | -64.1°C | 17.7% | 162.1hPa | 2.6V | 00:00:00 | 00:00:00 | 00:00:00 | |
| DAC517 | 2026-09-04 06:03:22 | 51.67903 | 15.66219 | 138° | 120km/h | 13470m | -3.1m/s | -64.1°C | 17.7% | 162.1hPa | 2.6V | 00:00:00 | 00:00:00 | 00:00:00 | |
| KRY50SP-1 | 2026-09-04 06:03:20 | 51.67949 | 15.66151 | 139° | 122km/h | 13476m | -3.6m/s | -63.3°C | 15.4% | 161.9hPa | 2.6V | 00:00:00 | 00:00:00 | 00:00:00 | |
| DB0NH | 2026-09-04 06:03:18 | 51.68017 | 15.66054 | 140° | 111km/h | 13485m | -3.1m/s | -62.9°C | 21.2% | 161.6hPa | 2.6V | 00:00:00 | 01:53:25 | 00:00:00 | |
| EDDB2-12 | 2026-09-04 06:03:16 | 51.68064 | 15.65991 | 140° | 117km/h | 13491m | -3.1m/s | -62.8°C | 13.7% | 161.5hPa | 2.6V | 00:00:00 | 00:00:00 | 00:00:00 | |
| KRY50SP-1 | 2026-09-04 06:03:14 | 51.68087 | 15.65960 | 141° | 122km/h | 13493m | -2.8m/s | -62.6°C | 13.1% | 161.4hPa | 2.6V | 00:00:00 | 00:00:00 | 00:00:00 | |
| SP6BVK | 2026-09-04 06:03:12 | 51.68133 | 15.65898 | 140° | 120km/h | 13499m | -2.9m/s | -62.5°C | 12.5% | 161.3hPa | 2.6V | 00:00:00 | 00:00:00 | 00:00:00 | |
| DB0DAN | 2026-09-04 06:03:10 | 51.68198 | 15.65803 | 135° | 108km/h | 13506m | -2.6m/s | -62.1°C | 11.5% | 161.12hPa | 2.6V | 00:00:00 | 00:00:00 | 00:00:00 | |
| SONDE2-11 | 2026-09-04 06:03:10 | 51.68198 | 15.65803 | 135° | 113km/h | 13506m | -2.6m/s | -62.1°C | 11.5% | 161.1hPa | 2.6V | 00:00:00 | 00:00:00 | 00:00:00 | |
| KRY50SP-1 | 2026-09-04 06:03:08 | 51.68219 | 15.65770 | 136° | 117km/h | 13509m | -2.8m/s | -62.0°C | 11.2% | 161.0hPa | 2.6V | 00:00:00 | 00:00:00 | 00:00:00 | |
| POL2MAQ | 2026-09-04 06:03:07 | 51.68239 | 15.65737 | 134° | 113km/h | 13512m | -2.5m/s | -62.0°C | 11.1% | 161.0hPa | 2.6V | 00:00:00 | 00:00:00 | 00:00:00 | |
| NBG1-10 | 2026-09-04 06:03:06 | 51.68279 | 15.65670 | 133° | 93km/h | 13517m | -2.8m/s | -61.9°C | 16.8% | 160.8hPa | 2.6V | 00:00:00 | 01:53:13 | 00:00:00 | |
| OE3JTB-15 | 2026-09-04 06:03:05 | 51.68299 | 15.65637 | 135° | 106km/h | 13520m | -2.9m/s | -61.8°C | 16.6% | 160.7hPa | 2.6V | 00:00:00 | 00:00:00 | 00:00:00 | |
| KRY50SP-1 | 2026-09-04 06:03:03 | 51.68318 | 15.65604 | 134° | 111km/h | 13523m | -2.4m/s | -61.8°C | 10.7% | 160.8hPa | 2.6V | 00:00:00 | 00:00:00 | 00:00:00 | |
| SONCRA | 2026-09-04 06:03:01 | 51.68377 | 15.65508 | 136° | 108km/h | 13530m | -2.6m/s | -61.7°C | 10.4% | 160.6hPa | 2.6V | 00:00:00 | 00:00:00 | 00:00:00 | |
| EDDB2-11 | 2026-09-04 06:02:56 | 51.68497 | 15.65323 | 134° | 108km/h | 13546m | -2.8m/s | -61.4°C | 9.5% | 160.2hPa | 2.6V | 00:00:00 | 00:00:00 | 00:00:00 | |
| DB0DAN | 2026-09-04 06:02:55 | 51.68497 | 15.65323 | 134° | 104km/h | 13546m | -2.8m/s | -61.4°C | 9.5% | 160.22hPa | 2.6V | 00:00:00 | 00:00:00 | 00:00:00 | |
| SP3WXH-11 | 2026-09-04 06:02:52 | 51.68554 | 15.65229 | 135° | 104km/h | 13554m | -2.7m/s | -61.4°C | 9.3% | 160.0hPa | 2.6V | 00:00:00 | 00:00:00 | 00:00:00 | |
| OE3OSB-13 | 2026-09-04 06:02:50 | 51.68609 | 15.65139 | 133° | 100km/h | 13563m | -2.7m/s | -61.3°C | 9.0% | 159.8hPa | 2.6V | 00:00:00 | 00:00:00 | 00:00:00 | |
| DB0NH | 2026-09-04 06:02:48 | 51.68627 | 15.65109 | 136° | 99km/h | 13566m | -3.1m/s | -61.2°C | 14.3% | 159.6hPa | 2.6V | 00:00:00 | 01:52:55 | 08:30:00 | |
| POL2MAQ | 2026-09-04 06:02:47 | 51.68645 | 15.65080 | 135° | 100km/h | 13569m | -3.0m/s | -61.4°C | 9.1% | 159.7hPa | 2.6V | 00:00:00 | 00:00:00 | 00:00:00 | |
| SP3BTT-10 | 2026-09-04 06:02:45 | 51.68681 | 15.65021 | 134° | 100km/h | 13575m | -2.7m/s | -61.3°C | 14.4% | 159.4hPa | 2.6V | 00:00:00 | 00:00:00 | 00:00:00 | |
| DB0DAN | 2026-09-04 06:02:40 | 51.68767 | 15.64871 | 132° | 95km/h | 13589m | -3.2m/s | -61.4°C | 8.7% | 159.12hPa | 2.6V | 00:00:00 | 00:00:00 | 00:00:00 | |
| SONDE2-11 | 2026-09-04 06:02:39 | 51.68784 | 15.64840 | 130° | 102km/h | 13592m | -3.0m/s | -61.2°C | 8.6% | 159.0hPa | 2.7V | 00:00:00 | 00:00:00 | 00:00:00 | |
| KRY50SP-1 | 2026-09-04 06:02:36 | 51.68817 | 15.64775 | 128° | 100km/h | 13599m | -2.9m/s | -61.3°C | 8.4% | 158.9hPa | 2.7V | 00:00:00 | 00:00:00 | 00:00:00 | |
| 13BRC | 2026-09-04 06:02:31 | 51.68892 | 15.64611 | 126° | 97km/h | 13614m | -3.2m/s | -61.1°C | 7.4% | 158.6hPa | 2.7V | 00:00:00 | 00:00:00 | 00:00:00 | |
| SONCRA | 2026-09-04 06:02:30 | 51.68920 | 15.64548 | 126° | 91km/h | 13620m | -3.1m/s | -61.1°C | 7.2% | 158.3hPa | 2.7V | 00:00:00 | 00:00:00 | 00:00:00 | |
| DB0DAN | 2026-09-04 06:02:25 | 51.68994 | 15.64407 | 134° | 88km/h | 13635m | -2.5m/s | -61.1°C | 7.3% | 157.98hPa | 2.7V | 00:00:00 | 00:00:00 | 00:00:00 | |
| EDDB2-11 | 2026-09-04 06:02:25 | 51.69011 | 15.64380 | 134° | 95km/h | 13637m | -2.4m/s | -61.0°C | 7.4% | 158.0hPa | 2.6V | 00:00:00 | 00:00:00 | 00:00:00 | |
| SP3WXH-11 | 2026-09-04 06:02:21 | 51.69063 | 15.64293 | 133° | 102km/h | 13645m | -2.8m/s | -60.9°C | 7.3% | 157.8hPa | 2.6V | 00:00:00 | 00:00:00 | 00:00:00 | |
| KRY50SP-1 | 2026-09-04 06:02:20 | 51.69063 | 15.64293 | 135° | 102km/h | 13645m | -2.8m/s | -60.9°C | 7.4% | 157.8hPa | 2.6V | 00:00:00 | 00:00:00 | 00:00:00 | |
| OE3OSB-13 | 2026-09-04 06:02:19 | 51.69117 | 15.64199 | 131° | 106km/h | 13653m | -2.5m/s | -60.7°C | 7.1% | 157.6hPa | 2.6V | 00:00:00 | 00:00:00 | 00:00:00 | |
| DB0NH | 2026-09-04 06:02:18 | 51.69117 | 15.64199 | 132° | 97km/h | 13654m | -2.5m/s | -60.6°C | 12.0% | 157.5hPa | 2.6V | 00:00:00 | 01:52:25 | 00:00:00 | |
| EDDB2-12 | 2026-09-04 06:02:14 | 51.69186 | 15.64065 | 127° | 106km/h | 13664m | -2.9m/s | -60.5°C | 6.9% | 157.3hPa | 2.6V | 00:00:00 | 00:00:00 | 00:00:00 | |
| DAC517 | 2026-09-04 06:02:10 | 51.69249 | 15.63926 | 126° | 106km/h | 13676m | -2.8m/s | -60.4°C | 6.8% | 157.0hPa | 2.6V | 00:00:00 | 00:00:00 | 00:00:00 | |
| DB0DAN | 2026-09-04 06:02:10 | 51.69249 | 15.63926 | 125° | 100km/h | 13676m | -2.8m/s | -60.4°C | 6.8% | 157.03hPa | 2.7V | 00:00:00 | 00:00:00 | 00:00:00 | |
| SONDE2-11 | 2026-09-04 06:02:08 | 51.69278 | 15.63856 | 123° | 104km/h | 13681m | -2.7m/s | -60.4°C | 6.7% | 156.8hPa | 2.6V | 00:00:00 | 00:00:00 | 00:00:00 | |
| POL2MAQ | 2026-09-04 06:02:05 | 51.69306 | 15.63785 | 123° | 102km/h | 13687m | -2.8m/s | -60.4°C | 6.6% | 156.7hPa | 2.6V | 00:00:00 | 00:00:00 | 00:00:00 | |
| KRY50SP-1 | 2026-09-04 06:02:03 | 51.69333 | 15.63714 | 122° | 100km/h | 13693m | -2.8m/s | -60.4°C | 6.6% | 156.6hPa | 2.6V | 00:00:00 | 00:00:00 | 00:00:00 | |
| SONCRA | 2026-09-04 06:01:59 | 51.69392 | 15.63545 | 118° | 89km/h | 13707m | -2.6m/s | -60.4°C | 6.1% | 156.3hPa | 2.6V | 00:00:00 | 00:00:00 | 00:00:00 | |
| KRY50SP-1 | 2026-09-04 06:01:57 | 51.69403 | 15.63512 | 120° | 89km/h | 13710m | -2.9m/s | -60.5°C | 6.1% | 156.2hPa | 2.6V | 00:00:00 | 00:00:00 | 00:00:00 | |
| DB0DAN | 2026-09-04 06:01:55 | 51.69437 | 15.63421 | 122° | 80km/h | 13719m | -2.7m/s | -60.5°C | 6% | 155.97hPa | 2.6V | 00:00:00 | 00:00:00 | 00:00:00 | |
| EDDB2-11 | 2026-09-04 06:01:54 | 51.69461 | 15.63363 | 124° | 86km/h | 13725m | -2.7m/s | -60.5°C | 6.0% | 155.8hPa | 2.6V | 00:00:00 | 00:00:00 | 00:00:00 | |
| SP3WXH-11 | 2026-09-04 06:01:50 | 51.69500 | 15.63275 | 126° | 89km/h | 13733m | -2.4m/s | -60.6°C | 6.2% | 155.6hPa | 2.6V | 00:00:00 | 00:00:00 | 00:00:00 | |
| OE3OSB-13 | 2026-09-04 06:01:48 | 51.69542 | 15.63184 | 127° | 93km/h | 13741m | -2.7m/s | -60.6°C | 6.3% | 155.4hPa | 2.6V | 00:00:00 | 00:00:00 | 00:00:00 | |
| KRY50SP-1 | 2026-09-04 06:01:47 | 51.69527 | 15.63215 | 128° | 93km/h | 13739m | -2.7m/s | -60.6°C | 6.3% | 155.5hPa | 2.6V | 00:00:00 | 00:00:00 | 00:00:00 | |
| POL2MAQ | 2026-09-04 06:01:45 | 51.69557 | 15.63154 | 129° | 95km/h | 13744m | -2.7m/s | -60.7°C | 6.4% | 155.3hPa | 2.6V | 00:00:00 | 00:00:00 | 00:00:00 | |
| EDDB2-12 | 2026-09-04 06:01:43 | 51.69602 | 15.63059 | 128° | 100km/h | 13751m | -2.6m/s | -60.7°C | 6.4% | 155.2hPa | 2.6V | 00:00:00 | 00:00:00 | 00:00:00 | |
| DAC517 | 2026-09-04 06:01:42 | 51.69603 | 15.63059 | 129° | 100km/h | 13751m | -2.6m/s | -60.7°C | 6.4% | 155.2hPa | 2.6V | 00:00:00 | 00:00:00 | 00:00:00 | |
| DB0DAN | 2026-09-04 06:01:40 | 51.69649 | 15.62958 | 127° | 100km/h | 13760m | -2.8m/s | -60.7°C | 6.3% | 154.92hPa | 2.6V | 00:00:00 | 00:00:00 | 00:00:00 | |
| SONDE2-11 | 2026-09-04 06:01:37 | 51.69696 | 15.62852 | 123° | 108km/h | 13768m | -2.9m/s | -60.7°C | 6.0% | 154.7hPa | 2.6V | 00:00:00 | 00:00:00 | 00:00:00 | |
| SP3BTT-10 | 2026-09-04 06:01:30 | 51.69792 | 15.62582 | 116° | 106km/h | 13791m | -2.6m/s | -60.5°C | 10.3% | 154.1hPa | 2.6V | 00:00:00 | 00:00:00 | 00:00:00 | |
| SP6BVK | 2026-09-04 06:01:29 | 51.69792 | 15.62582 | 117° | 104km/h | 13791m | -2.7m/s | -60.5°C | 5.8% | 154.2hPa | 2.6V | 00:00:00 | 00:00:00 | 00:00:00 | |
| SONCRA | 2026-09-04 06:01:28 | 51.69815 | 15.62506 | 114° | 102km/h | 13796m | -2.7m/s | -60.5°C | 5.8% | 154.0hPa | 2.6V | 00:00:00 | 00:00:00 | 00:00:00 | |
| KRY50SP-1 | 2026-09-04 06:01:26 | 51.69825 | 15.62469 | 116° | 99km/h | 13799m | -2.7m/s | -60.5°C | 5.9% | 153.9hPa | 2.6V | 00:00:00 | 00:00:00 | 00:00:00 | |
| DL2RXE-15 | 2026-09-04 06:01:24 | 51.69847 | 15.62397 | 117° | 97km/h | 13805m | -2.7m/s | -60.5°C | 6.0% | 153.8hPa | 2.6V | 00:00:00 | 00:00:00 | 00:00:00 | |
| EDDB2-11 | 2026-09-04 06:01:23 | 51.69881 | 15.62293 | 116° | 93km/h | 13813m | -2.6m/s | -60.4°C | 5.8% | 153.6hPa | 2.6V | 00:00:00 | 00:00:00 | 00:00:00 | |
| KRY50SP-1 | 2026-09-04 06:01:20 | 51.69891 | 15.62259 | 118° | 93km/h | 13816m | -2.5m/s | -60.3°C | 5.7% | 153.6hPa | 2.6V | 00:00:00 | 00:00:00 | 00:00:00 | |
| SP3WXH-11 | 2026-09-04 06:01:19 | 51.69912 | 15.62191 | 116° | 91km/h | 13821m | -3.1m/s | -60.3°C | 5.6% | 153.4hPa | 2.6V | 00:00:00 | 00:00:00 | 00:00:00 | |
| DB0NH | 2026-09-04 06:01:18 | 51.69923 | 15.62158 | 117° | 99km/h | 13825m | -2.7m/s | -60.2°C | 9.9% | 153.3hPa | 2.6V | 00:00:00 | 01:51:25 | 00:00:00 | |
| OE3OSB-13 | 2026-09-04 06:01:17 | 51.69942 | 15.62092 | 112° | 91km/h | 13830m | -2.8m/s | -60.2°C | 5.5% | 153.2hPa | 2.6V | 00:00:00 | 00:00:00 | 00:00:00 | |
| KRY50SP-1 | 2026-09-04 06:01:14 | 51.69951 | 15.62057 | 115° | 93km/h | 13833m | -3.1m/s | -60.2°C | 5.5% | 153.1hPa | 2.6V | 00:00:00 | 00:00:00 | 00:00:00 | |
| DB0DAN | 2026-09-04 06:01:10 | 51.69998 | 15.61876 | 114° | 99km/h | 13848m | -2.9m/s | -60.1°C | 5.6% | 152.76hPa | 2.6V | 00:00:00 | 00:00:00 | 00:00:00 | |
| AA1-15 | 2026-09-04 06:00:59 | 51.70116 | 15.61433 | 109° | 102km/h | 13879m | -2.6m/s | -59.9°C | 6.7% | 152hPa | 2.6V | 18:12:15 | 01:51:06 | 00:00:00 | |
| EDDB2-11 | 2026-09-04 06:00:52 | 51.70182 | 15.61148 | 116° | 89km/h | 13902m | -2.6m/s | -59.9°C | 5.2% | 151.5hPa | 2.6V | 00:00:00 | 00:00:00 | 00:00:00 | |
| SP3WXH-11 | 2026-09-04 06:00:48 | 51.70217 | 15.61050 | 121° | 95km/h | 13910m | -2.7m/s | -59.8°C | 5.1% | 151.3hPa | 2.6V | 00:00:00 | 00:00:00 | 00:00:00 | |
| OE3OSB-13 | 2026-09-04 06:00:45 | 51.70258 | 15.60947 | 122° | 100km/h | 13919m | -2.9m/s | -59.7°C | 5.0% | 151.0hPa | 2.6V | 00:00:00 | 00:00:00 | 00:00:00 | |
| POL2MAQ | 2026-09-04 06:00:43 | 51.70271 | 15.60912 | 122° | 102km/h | 13922m | -2.6m/s | -59.7°C | 5.0% | 151.0hPa | 2.6V | 00:00:00 | 00:00:00 | 00:00:00 | |
| EDDB2-12 | 2026-09-04 06:00:41 | 51.70311 | 15.60798 | 118° | 110km/h | 13930m | -2.3m/s | -59.7°C | 5.0% | 150.8hPa | 2.6V | 00:00:00 | 00:00:00 | 00:00:00 | |
| KRY50SP-1 | 2026-09-04 06:00:40 | 51.70311 | 15.60798 | 119° | 110km/h | 13930m | -2.3m/s | -59.7°C | 5.0% | 150.8hPa | 2.6V | 00:00:00 | 00:00:00 | 00:00:00 | |
| DL2RXE-15 | 2026-09-04 06:00:38 | 51.70336 | 15.60718 | 116° | 113km/h | 13935m | -2.2m/s | -59.7°C | 5.0% | 150.7hPa | 2.6V | 00:00:00 | 00:00:00 | 00:00:00 | |
| SONDE2-11 | 2026-09-04 06:00:35 | 51.70397 | 15.60509 | 115° | 117km/h | 13948m | -2.8m/s | -59.8°C | 4.8% | 150.3hPa | 2.6V | 00:00:00 | 00:00:00 | 00:00:00 | |
| KRY50SP-1 | 2026-09-04 06:00:30 | 51.70448 | 15.60339 | 117° | 119km/h | 13959m | -2.9m/s | -59.7°C | 4.7% | 150.1hPa | 2.6V | 00:00:00 | 00:00:00 | 00:00:00 | |
| 13BRC | 2026-09-04 06:00:29 | 51.70448 | 15.60339 | 117° | 119km/h | 13959m | -2.9m/s | -59.7°C | 4.7% | 150.1hPa | 2.6V | 00:00:00 | 00:00:00 | 00:00:00 | |
| SP6BVK | 2026-09-04 06:00:27 | 51.70474 | 15.60254 | 118° | 113km/h | 13965m | -2.7m/s | -59.7°C | 4.7% | 149.9hPa | 2.6V | 00:00:00 | 00:00:00 | 00:00:00 | |
| SONCRA | 2026-09-04 06:00:26 | 51.70502 | 15.60172 | 118° | 113km/h | 13971m | -2.6m/s | 0°C | -1.0% | 149.8hPa | 2.6V | 00:00:00 | 00:00:00 | 00:00:00 | |
| POL2MAQ | 2026-09-04 06:00:23 | 51.70530 | 15.60093 | 123° | 111km/h | 13976m | -2.7m/s | -59.7°C | 4.7% | 149.7hPa | 2.6V | 00:00:00 | 00:00:00 | 00:00:00 | |
| EDDB2-11 | 2026-09-04 06:00:21 | 51.70588 | 15.59939 | 122° | 110km/h | 13987m | -2.6m/s | -59.8°C | 4.6% | 149.4hPa | 2.6V | 00:00:00 | 00:00:00 | 00:00:00 | |
| DB0NH | 2026-09-04 06:00:18 | 51.70618 | 15.59862 | 123° | 113km/h | 13992m | -2.9m/s | -59.8°C | 8.7% | 149.2hPa | 2.6V | 00:00:00 | 01:50:25 | 00:00:00 | |
| SP3WXH-11 | 2026-09-04 06:00:17 | 51.70634 | 15.59822 | 122° | 115km/h | 13995m | -3.0m/s | -59.8°C | 4.5% | 149.2hPa | 2.6V | 00:00:00 | 00:00:00 | 00:00:00 | |
| OE3OSB-13 | 2026-09-04 06:00:14 | 51.70682 | 15.59702 | 123° | 119km/h | 14004m | -3.1m/s | -59.7°C | 4.5% | 149.0hPa | 2.6V | 00:00:00 | 00:00:00 | 00:00:00 | |
| KRY50SP-1 | 2026-09-04 06:00:11 | 51.70714 | 15.59622 | 124° | 117km/h | 14011m | -2.7m/s | -59.7°C | 4.5% | 148.8hPa | 2.6V | 00:00:00 | 00:00:00 | 00:00:00 | |
| EDDB2-12 | 2026-09-04 06:00:10 | 51.70745 | 15.59545 | 123° | 108km/h | 14016m | -2.1m/s | -59.6°C | 4.5% | 148.7hPa | 2.6V | 00:00:00 | 00:00:00 | 00:00:00 | |
| 13BRC | 2026-09-04 06:00:08 | 51.70760 | 15.59509 | 125° | 104km/h | 14018m | -2.4m/s | -59.6°C | 4.4% | 148.7hPa | 2.6V | 00:00:00 | 00:00:00 | 00:00:00 | |
| SP6BVK | 2026-09-04 06:00:06 | 51.70790 | 15.59441 | 128° | 104km/h | 14023m | -2.9m/s | -59.6°C | 4.3% | 148.6hPa | 2.6V | 00:00:00 | 00:00:00 | 00:00:00 | |
| SONDE2-11 | 2026-09-04 06:00:04 | 51.70855 | 15.59305 | 127° | 106km/h | 14036m | -3.1m/s | -59.6°C | 4.0% | 148.2hPa | 2.6V | 00:00:00 | 00:00:00 | 00:00:00 | |
| KRY50SP-1 | 2026-09-04 06:00:01 | 51.70872 | 15.59271 | 131° | 110km/h | 14039m | -2.9m/s | -59.6°C | 3.9% | 148.1hPa | 2.6V | 00:00:00 | 00:00:00 | 00:00:00 | |
| DB0DAN | 2026-09-04 05:59:55 | 51.70991 | 15.58997 | 120° | 113km/h | 14058m | -2.5m/s | -59.5°C | 4% | 147.66hPa | 2.6V | 00:00:00 | 00:00:00 | 00:00:00 | |
| SONCRA | 2026-09-04 05:59:55 | 51.70991 | 15.58997 | 119° | 117km/h | 14058m | -2.5m/s | 0°C | -1.0% | 147.7hPa | 2.7V | 00:00:00 | 00:00:00 | 00:00:00 | |
| EDDB2-11 | 2026-09-04 05:59:49 | 51.71075 | 15.58760 | 118° | 102km/h | 14075m | -2.7m/s | -59.4°C | 3.9% | 147.3hPa | 2.7V | 00:00:00 | 00:00:00 | 00:00:00 | |
| SP3WXH-11 | 2026-09-04 05:59:46 | 51.71114 | 15.58655 | 122° | 97km/h | 14083m | -2.6m/s | -59.3°C | 3.8% | 147.1hPa | 2.7V | 00:00:00 | 00:00:00 | 00:00:00 | |
| SP3BTT-10 | 2026-09-04 05:59:45 | 51.71128 | 15.58622 | 125° | 100km/h | 14086m | -2.7m/s | -59.1°C | 7.7% | 146.9hPa | 2.7V | 00:00:00 | 00:00:00 | 00:00:00 | |
| KRY50SP-1 | 2026-09-04 05:59:44 | 51.71128 | 15.58622 | 126° | 97km/h | 14086m | -2.7m/s | -59.2°C | 3.7% | 147.0hPa | 2.6V | 00:00:00 | 00:00:00 | 00:00:00 | |
| DB0DAN | 2026-09-04 05:59:40 | 51.71200 | 15.58466 | 130° | 91km/h | 14101m | -3.1m/s | -59°C | 3.4% | 146.62hPa | 2.6V | 00:00:00 | 00:00:00 | 00:00:00 | |
| EDDB2-12 | 2026-09-04 05:59:39 | 51.71216 | 15.58437 | 131° | 93km/h | 14104m | -2.8m/s | -59.1°C | 3.4% | 146.6hPa | 2.7V | 00:00:00 | 00:00:00 | 00:00:00 | |
| SONDE2-11 | 2026-09-04 05:59:33 | 51.71334 | 15.58214 | 126° | 111km/h | 14126m | -2.7m/s | -59.0°C | 3.5% | 146.1hPa | 2.7V | 00:00:00 | 00:00:00 | 00:00:00 | |
| DL2RXE-15 | 2026-09-04 05:59:28 | 51.71382 | 15.58101 | 124° | 115km/h | 14134m | -2.8m/s | -58.9°C | 3.5% | 145.9hPa | 2.7V | 00:00:00 | 00:00:00 | 00:00:00 | |
| 13BRC | 2026-09-04 05:59:27 | 51.71398 | 15.58062 | 124° | 113km/h | 14137m | -2.9m/s | -58.8°C | 3.4% | 145.8hPa | 2.7V | 00:00:00 | 00:00:00 | 00:00:00 | |
| DB0DAN | 2026-09-04 05:59:25 | 51.71443 | 15.57946 | 120° | 104km/h | 14145m | -2.8m/s | -58.8°C | 3.4% | 145.62hPa | 2.7V | 00:00:00 | 00:00:00 | 00:00:00 | |
| SONCRA | 2026-09-04 05:59:24 | 51.71471 | 15.57870 | 119° | 108km/h | 14152m | -2.9m/s | 0°C | -1.0% | -1.0hPa | 2.6V | 00:00:00 | 00:00:00 | 00:00:00 | |
| KRY50SP-1 | 2026-09-04 05:59:22 | 51.71471 | 15.57870 | 120° | 108km/h | 14152m | -2.9m/s | -58.8°C | 3.4% | 145.5hPa | 2.6V | 00:00:00 | 00:00:00 | 00:00:00 | |
| POL2MAQ | 2026-09-04 05:59:21 | 51.71485 | 15.57832 | 119° | 106km/h | 14155m | -2.8m/s | -58.7°C | 3.4% | 145.4hPa | 2.6V | 00:00:00 | 00:00:00 | 00:00:00 | |
| OE3JTB-15 | 2026-09-04 05:59:20 | 51.71509 | 15.57758 | 117° | 100km/h | 14162m | -2.7m/s | -58.6°C | 7.0% | 145.2hPa | 2.6V | 00:00:00 | 01:49:27 | 00:00:00 | |
| KRY50SP-1 | 2026-09-04 05:59:17 | 51.71542 | 15.57654 | 118° | 91km/h | 14171m | -3.2m/s | -58.7°C | 3.2% | 145.0hPa | 2.6V | 00:00:00 | 00:00:00 | 00:00:00 | |
| SP3WXH-11 | 2026-09-04 05:59:15 | 51.71563 | 15.57590 | 118° | 86km/h | 14177m | -3.2m/s | -58.7°C | 3.2% | 144.9hPa | 2.6V | 00:00:00 | 00:00:00 | 00:00:00 | |
| DB0DAN | 2026-09-04 05:59:10 | 51.71625 | 15.57447 | 129° | 86km/h | 14193m | -3m/s | -58.6°C | 3.2% | 144.56hPa | 2.6V | 00:00:00 | 00:00:00 | 00:00:00 | |
| EDDB2-12 | 2026-09-04 05:59:08 | 51.71656 | 15.57386 | 128° | 99km/h | 14199m | -2.8m/s | -58.5°C | 3.2% | 144.4hPa | 2.6V | 00:00:00 | 00:00:00 | 00:00:00 | |
| 13BRC | 2026-09-04 05:59:06 | 51.71672 | 15.57354 | 131° | 102km/h | 14202m | -3.1m/s | -58.5°C | 3.2% | 144.3hPa | 2.6V | 00:00:00 | 00:00:00 | 00:00:00 | |
| KRY50SP-1 | 2026-09-04 05:59:05 | 51.71689 | 15.57321 | 130° | 108km/h | 14205m | -2.9m/s | -58.5°C | 3.1% | 144.3hPa | 2.6V | 00:00:00 | 00:00:00 | 00:00:00 | |
| SP6BVK | 2026-09-04 05:59:03 | 51.71723 | 15.57250 | 129° | 110km/h | 14211m | -3.1m/s | -58.4°C | 3.1% | 144.1hPa | 2.6V | 00:00:00 | 00:00:00 | 00:00:00 | |
| SONDE2-11 | 2026-09-04 05:59:02 | 51.71774 | 15.57139 | 123° | 115km/h | 14221m | -2.9m/s | -58.3°C | 3.1% | 143.9hPa | 2.6V | 00:00:00 | 00:00:00 | 00:00:00 | |
| POL2MAQ | 2026-09-04 05:59:01 | 51.71758 | 15.57178 | 127° | 115km/h | 14218m | -3.2m/s | -58.3°C | 3.1% | 144.0hPa | 2.6V | 00:00:00 | 00:00:00 | 00:00:00 | |
| DL2RXE-15 | 2026-09-04 05:58:59 | 51.71790 | 15.57100 | 123° | 113km/h | 14224m | -3.1m/s | -58.3°C | 3.1% | 143.8hPa | 2.6V | 00:00:00 | 00:00:00 | 00:00:00 | |
| DB0DAN | 2026-09-04 05:58:55 | 51.71858 | 15.56909 | 117° | 97km/h | 14240m | -2.9m/s | -58.3°C | 3.2% | 143.46hPa | 2.6V | 00:00:00 | 00:00:00 | 00:00:00 | |
| SONCRA | 2026-09-04 05:58:53 | 51.71891 | 15.56804 | 118° | 93km/h | 14249m | -3.2m/s | 0°C | -1.0% | -1.0hPa | 2.7V | 00:00:00 | 00:00:00 | 00:00:00 | |
| EDDB2-11 | 2026-09-04 05:58:47 | 51.71945 | 15.56647 | 123° | 84km/h | 14266m | -2.9m/s | -58.2°C | 3.1% | 142.9hPa | 2.7V | 00:00:00 | 00:00:00 | 00:00:00 | |
| DAC517 | 2026-09-04 05:58:46 | 51.71957 | 15.56618 | 127° | 84km/h | 14270m | -2.3m/s | -58.1°C | 3.1% | 142.8hPa | 2.7V | 00:00:00 | 00:00:00 | 00:00:00 | |
| SP3BTT-10 | 2026-09-04 05:58:45 | 51.71970 | 15.56591 | 128° | 91km/h | 14272m | -2.7m/s | -58.0°C | 6.6% | 142.7hPa | 2.7V | 00:00:00 | 00:00:00 | 00:00:00 | |
| SP3WXH-11 | 2026-09-04 05:58:44 | 51.71983 | 15.56565 | 128° | 86km/h | 14275m | -3.1m/s | -58.0°C | 3.1% | 142.7hPa | 2.7V | 00:00:00 | 00:00:00 | 00:00:00 | |
| SP6BVK | 2026-09-04 05:58:43 | 51.71982 | 15.56564 | 129° | 86km/h | 14275m | -3.1m/s | -58.0°C | 3.1% | 142.7hPa | 2.7V | 00:00:00 | 00:00:00 | 00:00:00 | |
| DB0DAN | 2026-09-04 05:58:40 | 51.72045 | 15.56453 | 135° | 93km/h | 14287m | -3.2m/s | -58°C | 3% | 142.41hPa | 2.7V | 00:00:00 | 00:00:00 | 00:00:00 | |
| BIOWL1-15 | 2026-09-04 05:58:33 | 51.72193 | 15.56137 | 119° | 111km/h | 14313m | -3.3m/s | -57.8°C | 3.2% | 141.8hPa | 2.6V | 18:12:15 | 01:48:38 | 00:00:00 | |
| BIOWL1-15 | 2026-09-04 05:58:21 | 51.72321 | 15.55818 | 132° | 89km/h | 14343m | -3.2m/s | -57.8°C | 3.1% | 141.1hPa | 2.7V | 18:12:15 | 01:48:28 | 00:00:00 | |
| BIOWL1-15 | 2026-09-04 05:58:10 | 51.72503 | 15.55477 | 125° | 108km/h | 14376m | -2.8m/s | -57.8°C | 3.1% | 140.3hPa | 2.6V | 18:12:15 | 01:48:17 | 00:00:00 | |
| BIOWL1-15 | 2026-09-04 05:58:03 | 51.72673 | 15.55026 | 122° | 86km/h | 14415m | -3m/s | -57.7°C | 0% | 139.5hPa | 2.6V | 18:12:15 | 01:48:04 | 00:00:00 | |
| BIOWL1-15 | 2026-09-04 05:57:49 | 51.72766 | 15.54803 | 126° | 82km/h | 14438m | -3.3m/s | 0°C | 0% | 138.9hPa | 2.6V | 18:12:15 | 01:47:56 | 00:00:00 | |
| EDDB2-11 | 2026-09-04 05:57:45 | 51.72817 | 15.54696 | 128° | 80km/h | 14450m | -3.2m/s | -57.9°C | 2.8% | 138.6hPa | 2.7V | 00:00:00 | 00:00:00 | 00:00:00 | |
| BIOWL1-15 | 2026-09-04 05:57:39 | 51.72893 | 15.54546 | 128° | 75km/h | 14468m | -2.9m/s | 0°C | 0% | 0hPa | 2.7V | 18:12:15 | 01:47:46 | 00:00:00 | |
| BIOWL1-15 | 2026-09-04 05:57:28 | 51.73016 | 15.54215 | 122° | 89km/h | 14503m | -3.1m/s | 0°C | 0% | 0hPa | 2.6V | 18:12:15 | 01:47:34 | 00:00:00 | |
| AA1-15 | 2026-09-04 05:57:21 | 51.73091 | 15.54032 | 124° | 91km/h | 14520m | -3.2m/s | -57.7°C | 2.2% | 137.1hPa | 2.6V | 18:12:15 | 01:47:28 | 00:00:00 | |
| BIOWL1-15 | 2026-09-04 05:57:17 | 51.73139 | 15.53908 | 121° | 89km/h | 14531m | -2.9m/s | 0°C | 0% | 0hPa | 2.7V | 18:12:15 | 01:47:24 | 00:00:00 | |
| DB0NH | 2026-09-04 05:57:17 | 51.73139 | 15.53908 | 122° | 93km/h | 14531m | -2.8m/s | -57.7°C | 5.8% | 136.7hPa | 2.7V | 00:00:00 | 01:47:24 | 00:00:00 | |
| SP3BTT-10 | 2026-09-04 05:57:15 | 51.73162 | 15.53845 | 120° | 95km/h | 14537m | -3.0m/s | -57.7°C | 5.8% | 136.6hPa | 2.7V | 00:00:00 | 00:00:00 | 00:00:00 | |
| EDDB2-11 | 2026-09-04 05:57:14 | 51.73173 | 15.53814 | 120° | 88km/h | 14540m | -3.4m/s | -57.8°C | 2.3% | 136.5hPa | 2.7V | 00:00:00 | 00:00:00 | 00:00:00 | |
| KRY50SP-1 | 2026-09-04 05:57:12 | 51.73184 | 15.53782 | 120° | 89km/h | 14543m | -3.0m/s | -57.8°C | 2.4% | 136.5hPa | 2.7V | 00:00:00 | 00:00:00 | 00:00:00 | |
| DB0DAN | 2026-09-04 05:57:10 | 51.73218 | 15.53686 | 120° | 86km/h | 14551m | -3.3m/s | -57.8°C | 2.3% | 136.29hPa | 2.7V | 00:00:00 | 00:00:00 | 00:00:00 | |
| AA1-15 | 2026-09-04 05:56:59 | 51.73356 | 15.53334 | 124° | 95km/h | 14586m | -3m/s | -57.7°C | 1.9% | 135.6hPa | 2.6V | 18:12:15 | 01:47:06 | 00:00:00 | |
| AA1-15 | 2026-09-04 05:56:49 | 51.73508 | 15.53017 | 130° | 102km/h | 14617m | -3.4m/s | -57.3°C | 1.7% | 134.8hPa | 2.7V | 18:12:15 | 01:46:56 | 00:00:00 | |
| DB0NH | 2026-09-04 05:56:47 | 51.73540 | 15.52954 | 131° | 91km/h | 14624m | -3.3m/s | -57.3°C | 5.3% | 134.7hPa | 2.6V | 00:00:00 | 01:46:54 | 00:00:00 | |
| KRY50SP-1 | 2026-09-04 05:56:46 | 51.73540 | 15.52954 | 131° | 100km/h | 14624m | -3.3m/s | -57.4°C | 2.1% | 134.7hPa | 2.6V | 00:00:00 | 00:00:00 | 00:00:00 | |
| SP3BTT-10 | 2026-09-04 05:56:45 | 51.73574 | 15.52893 | 131° | 84km/h | 14631m | -3.2m/s | -57.3°C | 5.3% | 134.6hPa | 2.6V | 00:00:00 | 00:00:00 | 00:00:00 | |
| EDDB2-11 | 2026-09-04 05:56:43 | 51.73607 | 15.52835 | 134° | 93km/h | 14637m | -3.2m/s | -57.4°C | 2.2% | 134.5hPa | 2.6V | 00:00:00 | 00:00:00 | 00:00:00 | |
| 13BRC | 2026-09-04 05:56:42 | 51.73607 | 15.52835 | 135° | 95km/h | 14637m | -3.2m/s | -57.4°C | 2.2% | 134.5hPa | 2.6V | 00:00:00 | 00:00:00 | 00:00:00 | |
| DB0DAN | 2026-09-04 05:56:40 | 51.73655 | 15.52756 | 136° | 82km/h | 14646m | -3.4m/s | -57.4°C | 2.2% | 134.3hPa | 2.6V | 00:00:00 | 00:00:00 | 00:00:00 | |
| AA1-15 | 2026-09-04 05:56:38 | 51.73686 | 15.52707 | 133° | 82km/h | 14651m | -2.7m/s | -57.3°C | 1.9% | 134.2hPa | 2.6V | 18:12:15 | 01:46:45 | 00:00:00 | |
| AA1-15 | 2026-09-04 05:56:27 | 51.73806 | 15.52407 | 118° | 95km/h | 14686m | -3.2m/s | -57°C | 1.6% | 133.4hPa | 2.6V | 18:12:15 | 01:46:34 | 00:00:00 | |
| AA1-15 | 2026-09-04 05:56:17 | 51.73947 | 15.52098 | 131° | 86km/h | 14715m | -3.2m/s | -57.1°C | 1.8% | 132.8hPa | 2.6V | 18:12:15 | 01:46:24 | 00:00:00 | |
| AA1-15 | 2026-09-04 05:56:05 | 51.74082 | 15.51798 | 114° | 78km/h | 14755m | -3.5m/s | -57.4°C | 1.8% | 131.9hPa | 2.7V | 18:12:15 | 01:46:12 | 00:00:00 | |
| AA1-15 | 2026-09-04 05:55:54 | 51.74224 | 15.51451 | 135° | 93km/h | 14792m | -3.4m/s | -57.2°C | 1.8% | 131.2hPa | 2.6V | 18:12:15 | 01:46:01 | 00:00:00 | |
| S3001 | 2026-09-04 05:55:53 | 51.74305 | 15.51335 | 136° | 75km/h | 14810m | -3.5m/s | -57.2°C | 2.1% | 130.9hPa | 2.6V | 00:00:00 | 00:00:00 | 00:00:00 | |
| KRY50SP-1 | 2026-09-04 05:55:49 | 51.74305 | 15.51335 | 138° | 75km/h | 14810m | -3.5m/s | -57.2°C | 2.1% | 130.9hPa | 2.6V | 00:00:00 | 00:00:00 | 00:00:00 | |
| DL2RXE-15 | 2026-09-04 05:55:48 | 51.74305 | 15.51335 | 138° | 75km/h | 14810m | -3.5m/s | -57.2°C | 2.1% | 130.9hPa | 2.6V | 00:00:00 | 00:00:00 | 00:00:00 | |
| DM0DOS-11 | 2026-09-04 05:55:44 | 51.74387 | 15.51146 | 115° | 78km/h | 14836m | -3.5m/s | -57.2°C | 5.3% | 130.3hPa | 2.6V | 08:30:00 | 01:45:48 | 00:00:00 | |
| AA1-15 | 2026-09-04 05:55:44 | 51.74361 | 15.51226 | 120° | 69km/h | 14826m | -3.4m/s | -57.2°C | 1.7% | 130.5hPa | 2.7V | 18:12:15 | 01:45:51 | 00:00:00 | |
| AA1-15 | 2026-09-04 05:55:33 | 51.74482 | 15.50902 | 131° | 86km/h | 14862m | -3.1m/s | -57.2°C | 1.8% | 129.8hPa | 2.6V | 18:12:15 | 01:45:40 | 00:00:00 | |
| DM0DOS-11 | 2026-09-04 05:55:32 | 51.74511 | 15.50852 | 132° | 82km/h | 14868m | -3.4m/s | -57.1°C | 5.6% | 129.7hPa | 2.7V | 08:30:00 | 01:45:38 | 00:00:00 | |
| EDDB2-12 | 2026-09-04 05:55:31 | 51.74524 | 15.50828 | 134° | 78km/h | 14871m | -3.3m/s | -57.0°C | 2.2% | 129.6hPa | 2.7V | 00:00:00 | 00:00:00 | 00:00:00 | |
| DAC517 | 2026-09-04 05:55:28 | 51.74538 | 15.50806 | 135° | 73km/h | 14875m | -3.5m/s | -56.9°C | 2.2% | 129.5hPa | 2.7V | 00:00:00 | 00:00:00 | 00:00:00 | |
| OE3JTB-15 | 2026-09-04 05:55:27 | 51.74562 | 15.50764 | 132° | 75km/h | 14881m | -3.5m/s | -56.7°C | 5.5% | 129.3hPa | 2.7V | 00:00:00 | 00:00:00 | 00:00:00 | |
| DM0DOS-11 | 2026-09-04 05:55:26 | 51.74619 | 15.50640 | 117° | 66km/h | 14901m | -3.4m/s | -56.8°C | 5.2% | 129hPa | 2.7V | 08:30:00 | 01:45:28 | 00:00:00 | |
| AA1-15 | 2026-09-04 05:55:22 | 51.74611 | 15.50662 | 122° | 62km/h | 14897m | -3.8m/s | -56.7°C | 1.7% | 129.1hPa | 2.7V | 18:12:15 | 01:45:29 | 00:00:00 | |
| AA1-15 | 2026-09-04 05:55:12 | 51.74690 | 15.50378 | 119° | 91km/h | 14931m | -3.1m/s | -56.7°C | 1.7% | 128.4hPa | 2.6V | 18:12:15 | 01:45:19 | 00:00:00 | |
| DM0DOS-11 | 2026-09-04 05:55:08 | 51.74738 | 15.50258 | 126° | 82km/h | 14944m | -3.4m/s | -56.6°C | 5.3% | 128.2hPa | 2.7V | 08:30:00 | 01:45:15 | 00:00:00 | |
| SP3WXH-11 | 2026-09-04 05:55:07 | 51.74751 | 15.50232 | 127° | 77km/h | 14947m | -3.2m/s | -56.6°C | 2.1% | 128.1hPa | 2.6V | 00:00:00 | 00:00:00 | 00:00:00 | |
| SQ6EMJ | 2026-09-04 05:55:06 | 51.74751 | 15.50232 | 128° | 78km/h | 14947m | -3.2m/s | -56.6°C | 2.1% | 128.1hPa | 2.6V | 00:00:00 | 00:00:00 | 00:00:00 | |
| KRY50SP-1 | 2026-09-04 05:55:04 | 51.74784 | 15.50164 | 130° | 64km/h | 14957m | -3.4m/s | -56.7°C | 2.1% | 127.9hPa | 2.6V | 00:00:00 | 00:00:00 | 00:00:00 | |
| DM0DOS-11 | 2026-09-04 05:55:02 | 51.74832 | 15.50041 | 112° | 58km/h | 14977m | -3.9m/s | -56.8°C | 5.2% | 127.5hPa | 2.6V | 08:30:00 | 01:45:05 | 00:00:00 | |
| AA1-15 | 2026-09-04 05:54:58 | 51.74832 | 15.50041 | 113° | 58km/h | 14977m | -3.9m/s | -56.8°C | 1.7% | 127.5hPa | 2.6V | 18:12:15 | 01:45:05 | 00:00:00 | |
| BIOWL1-15 | 2026-09-04 05:54:48 | 51.74910 | 15.49722 | 120° | 82km/h | 15012m | -3m/s | -56.9°C | 1.7% | 126.8hPa | 2.7V | 18:12:15 | 01:44:54 | 00:00:00 | |
| AA1-15 | 2026-09-04 05:54:48 | 51.74900 | 15.49751 | 118° | 84km/h | 15010m | -2.8m/s | -56.8°C | 1.8% | 126.8hPa | 2.7V | 18:12:15 | 01:44:55 | 00:00:00 | |
| BIOWL1-15 | 2026-09-04 05:54:38 | 51.75027 | 15.49373 | 109° | 66km/h | 15055m | -3.3m/s | -57.1°C | 1.7% | 125.9hPa | 2.6V | 18:12:15 | 01:44:40 | 00:00:00 | |
| DM0DOS-11 | 2026-09-04 05:54:38 | 51.74994 | 15.49493 | 117° | 68km/h | 15041m | -3.1m/s | -57.1°C | 5.3% | 126.2hPa | 2.6V | 08:30:00 | 01:44:45 | 00:00:00 | |
| SP3WXH-11 | 2026-09-04 05:54:36 | 51.75008 | 15.49445 | 114° | 62km/h | 15046m | -3.2m/s | -57.1°C | 2.0% | 126.1hPa | 2.7V | 00:00:00 | 00:00:00 | 00:00:00 | |
| KRY50SP-1 | 2026-09-04 05:54:35 | 51.75008 | 15.49445 | 116° | 64km/h | 15046m | -3.2m/s | -57.1°C | 2.0% | 126.1hPa | 2.7V | 00:00:00 | 00:00:00 | 00:00:00 | |
| DM0DOS-11 | 2026-09-04 05:54:33 | 51.75055 | 15.49239 | 106° | 73km/h | 15070m | -3.5m/s | -57.1°C | 5.4% | 125.5hPa | 2.7V | 08:30:00 | 01:44:35 | 00:00:00 | |
| AA1-15 | 2026-09-04 05:54:32 | 51.75033 | 15.49347 | 111° | 68km/h | 15059m | -3.3m/s | -57.1°C | 1.7% | 125.8hPa | 2.6V | 18:12:15 | 01:44:39 | 00:00:00 | |
| BIOWL1-15 | 2026-09-04 05:54:27 | 51.75070 | 15.49149 | 104° | 80km/h | 15080m | -3.6m/s | -57.1°C | 1.7% | 125.4hPa | 2.6V | 18:12:15 | 01:44:32 | 00:00:00 | |
| AA1-15 | 2026-09-04 05:54:18 | 51.75109 | 15.48907 | 110° | 97km/h | 15105m | -3.7m/s | -57.2°C | 1.5% | 125hPa | 2.7V | 18:12:15 | 01:44:25 | 00:00:00 | |
| BIOWL1-15 | 2026-09-04 05:54:15 | 51.75183 | 15.48675 | 123° | 82km/h | 15127m | -3.1m/s | -57.1°C | 1.5% | 124.4hPa | 2.6V | 18:12:15 | 01:44:18 | 00:00:00 | |
| DB0NH | 2026-09-04 05:54:15 | 51.75138 | 15.48800 | 117° | 71km/h | 15116m | -3.5m/s | -57.1°C | 5.1% | 124.7hPa | 2.7V | 00:00:00 | 01:44:22 | 00:00:00 | |
| SONCRA | 2026-09-04 05:54:13 | 51.75160 | 15.48734 | 121° | 88km/h | 15122m | -2.9m/s | -57.1°C | 1.9% | 124.6hPa | 2.7V | 00:00:00 | 00:00:00 | 00:00:00 | |
| DM0DOS-11 | 2026-09-04 05:54:12 | 51.75214 | 15.48593 | 118° | 73km/h | 15137m | -3.1m/s | -57.1°C | 5.3% | 124.3hPa | 2.7V | 08:30:00 | 01:44:15 | 00:00:00 | |
| DB0DAN | 2026-09-04 05:54:10 | 51.75194 | 15.48646 | 123° | 77km/h | 15131m | -3.2m/s | -57.1°C | 2% | 124.4hPa | 2.6V | 00:00:00 | 00:00:00 | 00:00:00 | |
| BIOWL1-15 | 2026-09-04 05:54:05 | 51.75256 | 15.48425 | 107° | 77km/h | 15155m | -3.1m/s | -57°C | 1.5% | 123.9hPa | 2.7V | 18:12:15 | 01:44:09 | 00:00:00 | |
| AA1-15 | 2026-09-04 05:54:03 | 51.75250 | 15.48455 | 108° | 75km/h | 15152m | -3.4m/s | -57.1°C | 1.5% | 124hPa | 2.7V | 18:12:15 | 01:44:10 | 00:00:00 | |
| DF8AY | 2026-09-04 05:54:01 | 51.75261 | 15.48394 | 106° | 78km/h | 15157m | -3.2m/s | -57°C | 1.5% | 123.9hPa | 2.6V | 18:12:15 | 01:44:08 | 00:00:00 | |
| DM0DOS-11 | 2026-09-04 05:54:00 | 51.75281 | 15.48297 | 109° | 88km/h | 15167m | -3.5m/s | -57°C | 5.2% | 123.7hPa | 2.6V | 08:30:00 | 01:44:05 | 00:00:00 | |
| EDDB2-12 | 2026-09-04 05:53:58 | 51.75289 | 15.48264 | 110° | 86km/h | 15171m | -3.1m/s | -57.0°C | 1.9% | 123.6hPa | 2.7V | 00:00:00 | 00:00:00 | 00:00:00 | |
| SQ6EMJ | 2026-09-04 05:53:57 | 51.75281 | 15.48297 | 111° | 88km/h | 15167m | -3.5m/s | -57.0°C | 1.9% | 123.7hPa | 2.7V | 00:00:00 | 00:00:00 | 00:00:00 | |
| DB0DAN | 2026-09-04 05:53:55 | 51.75306 | 15.48197 | 115° | 86km/h | 15178m | -3.1m/s | -57°C | 1.9% | 123.5hPa | 2.7V | 00:00:00 | 00:00:00 | 00:00:00 | |
| BIOWL1-15 | 2026-09-04 05:53:54 | 51.75358 | 15.48028 | 119° | 99km/h | 15194m | -3.3m/s | -56.7°C | 1.4% | 123.2hPa | 2.7V | 18:12:15 | 01:43:57 | 00:00:00 | |
| DM0DOS-11 | 2026-09-04 05:53:53 | 51.75383 | 15.47958 | 121° | 97km/h | 15200m | -3.5m/s | -56.7°C | 5.1% | 123hPa | 2.6V | 08:30:00 | 01:43:55 | 00:00:00 | |
| SONDE2-11 | 2026-09-04 05:53:51 | 51.75346 | 15.48063 | 118° | 95km/h | 15191m | -3.3m/s | -56.8°C | 1.9% | 123.3hPa | 2.6V | 00:00:00 | 00:00:00 | 00:00:00 | |
| S3001 | 2026-09-04 05:53:49 | 51.75370 | 15.47993 | 118° | 97km/h | 15197m | -3.5m/s | -56.7°C | 1.9% | 123.1hPa | 2.6V | 00:00:00 | 00:00:00 | 00:00:00 | |
| BIOWL9-15 | 2026-09-04 05:53:48 | 51.75383 | 15.47958 | 121° | 97km/h | 15200m | -3.5m/s | -56.7°C | 1.9% | 123.0hPa | 2.6V | 00:00:00 | 00:00:00 | 00:00:00 | |
| KRY50SP-1 | 2026-09-04 05:53:44 | 51.75423 | 15.47860 | 128° | 93km/h | 15211m | -3.5m/s | -56.8°C | 1.9% | 122.8hPa | 2.6V | 00:00:00 | 00:00:00 | 00:00:00 | |
| DM0DOS-11 | 2026-09-04 05:53:43 | 51.75517 | 15.47679 | 129° | 71km/h | 15235m | -3.4m/s | -56.9°C | 5.1% | 122.4hPa | 2.6V | 08:30:00 | 01:43:45 | 00:00:00 | |
| BIOWL1-15 | 2026-09-04 05:53:43 | 51.75505 | 15.47703 | 130° | 75km/h | 15232m | -3.6m/s | -56.9°C | 1.3% | 122.4hPa | 2.6V | 18:12:15 | 01:43:46 | 00:00:00 | |
| SQ6EMJ | 2026-09-04 05:53:42 | 51.75451 | 15.47801 | 131° | 86km/h | 15218m | -3.3m/s | -56.8°C | 1.8% | 122.8hPa | 2.6V | 00:00:00 | 00:00:00 | 00:00:00 | |
| DB0DAN | 2026-09-04 05:53:40 | 51.75492 | 15.47726 | 133° | 75km/h | 15228m | -3.9m/s | -56.9°C | 1.8% | 122.52hPa | 2.6V | 00:00:00 | 00:00:00 | 00:00:00 | |
| 13BRC | 2026-09-04 05:53:38 | 51.75505 | 15.47703 | 131° | 75km/h | 15232m | -3.6m/s | -56.9°C | 1.8% | 122.4hPa | 2.6V | 00:00:00 | 00:00:00 | 00:00:00 | |
| EDDB2-11 | 2026-09-04 05:53:37 | 51.75528 | 15.47657 | 126° | 68km/h | 15238m | -3.6m/s | -56.9°C | 1.8% | 122.3hPa | 2.6V | 00:00:00 | 00:00:00 | 00:00:00 | |
| SP6BVK | 2026-09-04 05:53:35 | 51.75538 | 15.47634 | 126° | 69km/h | 15242m | -3.4m/s | -56.9°C | 1.9% | 122.3hPa | 2.6V | 00:00:00 | 00:00:00 | 00:00:00 | |
| NBG1-10 | 2026-09-04 05:53:34 | 51.75557 | 15.47585 | 119° | 69km/h | 15249m | -3.2m/s | -56.8°C | 5.3% | 122.1hPa | 2.6V | 00:00:00 | 01:43:41 | 00:00:00 | |
| SQ6EMJ | 2026-09-04 05:53:33 | 51.75557 | 15.47585 | 120° | 69km/h | 15249m | -3.2m/s | -56.8°C | 1.9% | 122.1hPa | 2.6V | 00:00:00 | 00:00:00 | 00:00:00 | |
| DM0DOS-11 | 2026-09-04 05:53:32 | 51.75603 | 15.47411 | 110° | 77km/h | 15267m | -3.2m/s | -56.7°C | 5% | 121.8hPa | 2.6V | 08:30:00 | 01:43:35 | 00:00:00 | |
| BIOWL1-15 | 2026-09-04 05:53:30 | 51.75589 | 15.47471 | 112° | 78km/h | 15261m | -3m/s | -56.7°C | 1.4% | 121.9hPa | 2.7V | 18:12:15 | 01:43:37 | 00:00:00 | |
| SP3BTT-10 | 2026-09-04 05:53:30 | 51.75589 | 15.47471 | 113° | 66km/h | 15261m | -3.0m/s | -56.7°C | 5.1% | 121.9hPa | 2.7V | 00:00:00 | 00:00:00 | 00:00:00 | |
| KRY50SP-1 | 2026-09-04 05:53:27 | 51.75603 | 15.47411 | 112° | 77km/h | 15267m | -3.2m/s | -56.7°C | 1.8% | 121.8hPa | 2.7V | 00:00:00 | 00:00:00 | 00:00:00 | |
| DB0DAN | 2026-09-04 05:53:25 | 51.75624 | 15.47325 | 113° | 68km/h | 15278m | -3.2m/s | -56.6°C | 1.7% | 121.58hPa | 2.7V | 00:00:00 | 00:00:00 | 00:00:00 | |
| KRY50SP-1 | 2026-09-04 05:53:22 | 51.75638 | 15.47274 | 117° | 66km/h | 15285m | -2.8m/s | -56.4°C | 1.7% | 121.5hPa | 2.7V | 00:00:00 | 00:00:00 | 00:00:00 | |
| DM0DOS-11 | 2026-09-04 05:53:20 | 51.75683 | 15.47153 | 124° | 69km/h | 15297m | -3.1m/s | -56.1°C | 4.9% | 121.2hPa | 2.7V | 08:30:00 | 01:43:25 | 00:00:00 | |
| DF8AY | 2026-09-04 05:53:20 | 51.75664 | 15.47201 | 121° | 69km/h | 15292m | -3.2m/s | -56.2°C | 1.2% | 121.3hPa | 2.6V | 18:12:15 | 01:43:27 | 00:00:00 | |
| BIOWL1-15 | 2026-09-04 05:53:19 | 51.75683 | 15.47153 | 125° | 69km/h | 15297m | -3.1m/s | -56.1°C | 1.3% | 121.2hPa | 2.7V | 18:12:15 | 01:43:25 | 00:00:00 | |
| SQ6EMJ | 2026-09-04 05:53:18 | 51.75683 | 15.47153 | 126° | 69km/h | 15298m | -3.1m/s | -56.1°C | 1.8% | 121.2hPa | 2.6V | 00:00:00 | 00:00:00 | 00:00:00 | |
| BIOWL9-15 | 2026-09-04 05:53:17 | 51.75693 | 15.47129 | 123° | 71km/h | 15300m | -3.4m/s | -56.1°C | 1.8% | 121.2hPa | 2.6V | 00:00:00 | 00:00:00 | 00:00:00 | |
| KRY50SP-1 | 2026-09-04 05:53:16 | 51.75693 | 15.47129 | 124° | 73km/h | 15301m | -3.4m/s | -56.1°C | 1.8% | 121.1hPa | 2.6V | 00:00:00 | 00:00:00 | 00:00:00 | |
| DAC517 | 2026-09-04 05:53:14 | 51.75714 | 15.47082 | 127° | 71km/h | 15307m | -3.4m/s | -56.0°C | 1.8% | 121.0hPa | 2.6V | 00:00:00 | 00:00:00 | 00:00:00 | |
| DB0DAN | 2026-09-04 05:53:10 | 51.75759 | 15.46970 | 122° | 58km/h | 15323m | -3.2m/s | -56.1°C | 1.7% | 120.67hPa | 2.6V | 00:00:00 | 00:00:00 | 00:00:00 | |
| DF8AY | 2026-09-04 05:53:09 | 51.75767 | 15.46948 | 118° | 58km/h | 15325m | -3.3m/s | -56.2°C | 1.1% | 120.6hPa | 2.6V | 18:12:15 | 01:43:16 | 00:00:00 | |
| BIOWL1-15 | 2026-09-04 05:53:07 | 51.75792 | 15.46864 | 112° | 58km/h | 15338m | -4.1m/s | -56.1°C | 1.2% | 120.3hPa | 2.7V | 18:12:15 | 01:43:12 | 00:00:00 | |
| BIOWL1-15 | 2026-09-04 05:52:57 | 51.75842 | 15.46645 | 114° | 86km/h | 15364m | -3.4m/s | -56.1°C | 1.2% | 119.9hPa | 2.6V | 18:12:15 | 01:43:04 | 00:00:00 | |
| BIOWL1-15 | 2026-09-04 05:52:47 | 51.75950 | 15.46350 | 127° | 69km/h | 15398m | -3.2m/s | 0°C | 0% | 119.2hPa | 2.7V | 18:12:15 | 01:42:54 | 00:00:00 | |
| DF8AY | 2026-09-04 05:52:46 | 51.75961 | 15.46328 | 125° | 69km/h | 15402m | -3.1m/s | -55.6°C | 1.1% | 119.2hPa | 2.6V | 18:12:15 | 01:42:53 | 00:00:00 | |
| BIOWL1-15 | 2026-09-04 05:52:36 | 51.76041 | 15.46107 | 112° | 62km/h | 15434m | -3.4m/s | 0°C | 0% | 118.6hPa | 2.7V | 18:12:15 | 01:42:43 | 00:00:00 | |
| DF8AY | 2026-09-04 05:52:35 | 51.76047 | 15.46083 | 112° | 66km/h | 15437m | -3.2m/s | -55.6°C | 1.1% | 118.5hPa | 2.7V | 18:12:15 | 01:42:42 | 00:00:00 | |
| BIOWL1-15 | 2026-09-04 05:52:27 | 51.76109 | 15.45851 | 116° | 57km/h | 15468m | -3m/s | 0°C | 0% | 0hPa | 2.6V | 18:12:15 | 01:42:32 | 00:00:00 | |
| DF8AY | 2026-09-04 05:52:24 | 51.76116 | 15.45831 | 118° | 57km/h | 15471m | -3m/s | -55.2°C | 1% | 117.9hPa | 2.7V | 18:12:15 | 01:42:31 | 00:00:00 | |
| DF8AY | 2026-09-04 05:52:13 | 51.76220 | 15.45605 | 129° | 73km/h | 15509m | -3.4m/s | -55.4°C | 1.1% | 117.2hPa | 2.7V | 18:12:15 | 01:42:20 | 00:00:00 | |
| DF8AY | 2026-09-04 05:52:03 | 51.76308 | 15.45330 | 108° | 68km/h | 15543m | -3m/s | -55.6°C | 1.1% | 116.6hPa | 2.6V | 18:12:15 | 01:42:10 | 00:00:00 | |
| DF8AY | 2026-09-04 05:51:53 | 51.76362 | 15.45114 | 123° | 55km/h | 15575m | -3.4m/s | -55.6°C | 1% | 116hPa | 2.7V | 18:12:15 | 01:42:00 | 00:00:00 | |
| SONDE2-11 | 2026-09-04 05:51:47 | 51.76416 | 15.44985 | 119° | 71km/h | 15596m | -3.5m/s | -55.5°C | 1.7% | 115.6hPa | 2.6V | 00:00:00 | 00:00:00 | 00:00:00 | |
| SP3BTT-10 | 2026-09-04 05:51:45 | 51.76434 | 15.44932 | 116° | 69km/h | 15604m | -3.4m/s | -55.4°C | 4.8% | 115.5hPa | 2.6V | 00:00:00 | 00:00:00 | 00:00:00 | |
| KRY50SP-1 | 2026-09-04 05:51:44 | 51.76434 | 15.44932 | 117° | 75km/h | 15604m | -3.5m/s | -55.5°C | 1.7% | 115.5hPa | 2.7V | 00:00:00 | 00:00:00 | 00:00:00 | |
| DM0DOS-11 | 2026-09-04 05:51:43 | 51.76458 | 15.44845 | 112° | 80km/h | 15614m | -3.5m/s | -55.4°C | 4.7% | 115.3hPa | 2.7V | 08:30:00 | 01:41:49 | 00:00:00 | |
| DF8AY | 2026-09-04 05:51:42 | 51.76458 | 15.44845 | 113° | 80km/h | 15614m | -3.6m/s | -55.4°C | 1.1% | 115.3hPa | 2.7V | 18:12:15 | 01:41:49 | 00:00:00 | |
| DL2RXE-15 | 2026-09-04 05:51:40 | 51.76465 | 15.44815 | 111° | 78km/h | 15618m | -3.2m/s | -55.4°C | 1.6% | 115.2hPa | 2.6V | 00:00:00 | 00:00:00 | 00:00:00 | |
| DB0NH | 2026-09-04 05:51:39 | 51.76477 | 15.44754 | 106° | 68km/h | 15624m | -3.4m/s | -55.3°C | 4.6% | 115.1hPa | 2.6V | 00:00:00 | 01:41:46 | 00:00:00 | |
| SONCRA | 2026-09-04 05:51:38 | 51.76483 | 15.44723 | 103° | 77km/h | 15628m | -3.5m/s | -55.4°C | 1.6% | 115.1hPa | 2.6V | 00:00:00 | 00:00:00 | 00:00:00 | |
| 13BRC | 2026-09-04 05:51:34 | 51.76494 | 15.44634 | 101° | 71km/h | 15639m | -3.9m/s | -55.4°C | 1.6% | 114.9hPa | 2.6V | 00:00:00 | 00:00:00 | 00:00:00 | |
| DM0DOS-11 | 2026-09-04 05:51:33 | 51.76502 | 15.44555 | 100° | 62km/h | 15649m | -3.5m/s | -55.4°C | 4.6% | 114.7hPa | 2.6V | 08:30:00 | 01:41:39 | 00:00:00 | |
| DF8AY | 2026-09-04 05:51:32 | 51.76502 | 15.44555 | 100° | 62km/h | 15649m | -3.5m/s | -55.4°C | 1.1% | 114.7hPa | 2.6V | 18:12:15 | 01:41:39 | 00:00:00 | |
| SP3WXH-11 | 2026-09-04 05:51:30 | 51.76513 | 15.44484 | 106° | 57km/h | 15660m | -3.6m/s | -55.4°C | 1.6% | 114.5hPa | 2.6V | 00:00:00 | 00:00:00 | 00:00:00 | |
| KRY50SP-1 | 2026-09-04 05:51:28 | 51.76513 | 15.44484 | 108° | 58km/h | 15660m | -3.6m/s | -55.4°C | 1.6% | 114.5hPa | 2.6V | 00:00:00 | 00:00:00 | 00:00:00 | |
| POL2MAQ | 2026-09-04 05:51:27 | 51.76517 | 15.44462 | 109° | 58km/h | 15664m | -3.3m/s | -55.5°C | 1.6% | 114.4hPa | 2.6V | 00:00:00 | 00:00:00 | 00:00:00 | |
| OE3OSB-13 | 2026-09-04 05:51:26 | 51.76527 | 15.44417 | 110° | 58km/h | 15670m | -3.3m/s | -55.5°C | 1.6% | 114.4hPa | 2.6V | 00:00:00 | 00:00:00 | 00:00:00 | |
| SQ6EMJ | 2026-09-04 05:51:25 | 51.76533 | 15.44394 | 113° | 60km/h | 15673m | -3.5m/s | -55.5°C | 1.7% | 114.3hPa | 2.6V | 00:00:00 | 00:00:00 | 00:00:00 | |
| DM0DOS-11 | 2026-09-04 05:51:23 | 51.76551 | 15.44324 | 113° | 64km/h | 15683m | -3.3m/s | -55.6°C | 4.8% | 114.1hPa | 2.6V | 08:30:00 | 01:41:29 | 00:00:00 | |
| DF8AY | 2026-09-04 05:51:21 | 51.76557 | 15.44300 | 114° | 64km/h | 15687m | -3.3m/s | -55.6°C | 1.3% | 114hPa | 2.6V | 18:12:15 | 01:41:28 | 00:00:00 | |
| KRY50SP-1 | 2026-09-04 05:51:18 | 51.76578 | 15.44227 | 116° | 68km/h | 15697m | -3.3m/s | -55.6°C | 1.7% | 113.9hPa | 2.7V | 00:00:00 | 00:00:00 | 00:00:00 | |
| SONDE2-11 | 2026-09-04 05:51:16 | 51.76592 | 15.44177 | 116° | 68km/h | 15704m | -3.5m/s | -55.5°C | 1.7% | 113.7hPa | 2.7V | 00:00:00 | 00:00:00 | 00:00:00 | |
| SP3BTT-10 | 2026-09-04 05:51:15 | 51.76600 | 15.44151 | 117° | 69km/h | 15707m | -3.3m/s | -55.4°C | 4.8% | 113.6hPa | 2.7V | 00:00:00 | 00:00:00 | 00:00:00 | |
| DM0DOS-11 | 2026-09-04 05:51:13 | 51.76625 | 15.44073 | 117° | 75km/h | 15718m | -3.6m/s | -55.1°C | 4.7% | 113.5hPa | 2.7V | 08:30:00 | 01:41:19 | 00:00:00 | |
| DF8AY | 2026-09-04 05:51:11 | 51.76634 | 15.44046 | 118° | 77km/h | 15721m | -3.4m/s | -55°C | 1.2% | 113.4hPa | 2.7V | 18:12:15 | 01:41:18 | 00:00:00 | |
| DB0DAN | 2026-09-04 05:51:10 | 51.76643 | 15.44018 | 117° | 73km/h | 15725m | -3.5m/s | -55°C | 1.6% | 113.35hPa | 2.7V | 00:00:00 | 00:00:00 | 00:00:00 | |
| DB0NH | 2026-09-04 05:51:09 | 51.76652 | 15.43990 | 118° | 77km/h | 15728m | -3.3m/s | -55.0°C | 4.6% | 113.3hPa | 2.6V | 00:00:00 | 01:41:16 | 00:00:00 | |
| SQ6EMJ | 2026-09-04 05:51:08 | 51.76653 | 15.43990 | 118° | 78km/h | 15728m | -3.3m/s | -55.1°C | 1.6% | 113.3hPa | 2.6V | 00:00:00 | 00:00:00 | 00:00:00 | |
| KRY50SP-1 | 2026-09-04 05:51:07 | 51.76670 | 15.43933 | 118° | 80km/h | 15735m | -3.5m/s | -55.1°C | 1.6% | 113.2hPa | 2.6V | 00:00:00 | 00:00:00 | 00:00:00 | |
| POL2MAQ | 2026-09-04 05:51:06 | 51.76670 | 15.43933 | 118° | 80km/h | 15735m | -3.5m/s | -55.1°C | 1.6% | 113.2hPa | 2.6V | 00:00:00 | 00:00:00 | 00:00:00 | |
| DM0DOS-11 | 2026-09-04 05:51:04 | 51.76716 | 15.43790 | 117° | 77km/h | 15752m | -3.4m/s | -55°C | 4.7% | 112.9hPa | 2.6V | 08:30:00 | 01:41:09 | 00:00:00 | |
| DF8AY | 2026-09-04 05:51:00 | 51.76734 | 15.43736 | 119° | 73km/h | 15759m | -3.4m/s | -55.1°C | 1.1% | 112.8hPa | 2.7V | 18:12:15 | 01:41:07 | 00:00:00 | |
| SP3WXH-11 | 2026-09-04 05:50:59 | 51.76753 | 15.43685 | 121° | 71km/h | 15766m | -3.3m/s | -55.1°C | 1.6% | 112.6hPa | 2.6V | 00:00:00 | 00:00:00 | 00:00:00 | |
| DB0DAN | 2026-09-04 05:50:55 | 51.76783 | 15.43612 | 126° | 69km/h | 15777m | -3.6m/s | -55.2°C | 1.5% | 112.42hPa | 2.6V | 00:00:00 | 00:00:00 | 00:00:00 | |
| DM0DOS-11 | 2026-09-04 05:50:53 | 51.76817 | 15.43537 | 125° | 77km/h | 15788m | -3.6m/s | -55.1°C | 4.4% | 112.2hPa | 2.7V | 08:30:00 | 01:40:59 | 00:00:00 | |
| DF8AY | 2026-09-04 05:50:49 | 51.76882 | 15.43346 | 113° | 77km/h | 15812m | -3.3m/s | -55.3°C | 1.1% | 111.9hPa | 2.6V | 18:12:15 | 01:40:52 | 00:00:00 | |
| SONDE2-11 | 2026-09-04 05:50:45 | 51.76882 | 15.43346 | 112° | 75km/h | 15812m | -3.3m/s | -55.3°C | 1.6% | 111.9hPa | 2.7V | 00:00:00 | 00:00:00 | 00:00:00 | |
| KRY50SP-1 | 2026-09-04 05:50:44 | 51.76882 | 15.43346 | 114° | 77km/h | 15812m | -3.3m/s | -55.3°C | 1.6% | 111.9hPa | 2.7V | 00:00:00 | 00:00:00 | 00:00:00 | |
| DM0DOS-11 | 2026-09-04 05:50:43 | 51.76903 | 15.43260 | 110° | 75km/h | 15822m | -3.5m/s | -55.1°C | 4.7% | 111.7hPa | 2.7V | 08:30:00 | 01:40:49 | 00:00:00 | |
| DB0DAN | 2026-09-04 05:50:40 | 51.76916 | 15.43203 | 111° | 71km/h | 15829m | -3.4m/s | -55°C | 1.6% | 111.51hPa | 2.6V | 00:00:00 | 00:00:00 | 00:00:00 | |
| AA1-15 | 2026-09-04 05:50:39 | 51.76923 | 15.43175 | 111° | 73km/h | 15832m | -3.6m/s | -55°C | 1% | 111.5hPa | 2.6V | 18:12:15 | 01:40:46 | 00:00:00 | |
| DB0NH | 2026-09-04 05:50:39 | 51.76923 | 15.43175 | 111° | 75km/h | 15832m | -3.5m/s | -54.9°C | 4.6% | 111.4hPa | 2.6V | 00:00:00 | 01:40:46 | 00:00:00 | |
| KRY50SP-1 | 2026-09-04 05:50:38 | 51.76923 | 15.43175 | 112° | 73km/h | 15832m | -3.6m/s | -55.0°C | 1.6% | 111.5hPa | 2.6V | 00:00:00 | 00:00:00 | 00:00:00 | |
| SONCRA | 2026-09-04 05:50:36 | 51.76942 | 15.43094 | 111° | 68km/h | 15842m | -3.4m/s | -55.0°C | 1.6% | 111.3hPa | 2.6V | 00:00:00 | 00:00:00 | 00:00:00 | |
| DM0DOS-11 | 2026-09-04 05:50:35 | 51.76967 | 15.42993 | 110° | 66km/h | 15856m | -3.5m/s | -54.7°C | 4.6% | 111hPa | 2.6V | 08:30:00 | 01:40:39 | 00:00:00 | |
| DF8AY | 2026-09-04 05:50:29 | 51.76984 | 15.42916 | 109° | 68km/h | 15867m | -3.6m/s | -54.3°C | 0.9% | 110.9hPa | 2.7V | 18:12:15 | 01:40:36 | 00:00:00 | |
| DAC517 | 2026-09-04 05:50:28 | 51.76984 | 15.42916 | 110° | 68km/h | 15867m | -3.6m/s | -54.3°C | 1.5% | 110.9hPa | 2.6V | 00:00:00 | 00:00:00 | 00:00:00 | |
| SQ6EMJ | 2026-09-04 05:50:27 | 51.76990 | 15.42890 | 109° | 68km/h | 15871m | -3.5m/s | -54.2°C | 1.5% | 110.8hPa | 2.6V | 00:00:00 | 00:00:00 | 00:00:00 | |
| KRY50SP-1 | 2026-09-04 05:50:26 | 51.76995 | 15.42864 | 109° | 69km/h | 15874m | -3.5m/s | -54.2°C | 1.5% | 110.8hPa | 2.6V | 00:00:00 | 00:00:00 | 00:00:00 | |
| DL2RXE-15 | 2026-09-04 05:50:25 | 51.77001 | 15.42837 | 109° | 69km/h | 15878m | -3.6m/s | -54.2°C | 1.5% | 110.7hPa | 2.6V | 00:00:00 | 00:00:00 | 00:00:00 | |
| POL2MAQ | 2026-09-04 05:50:24 | 51.77006 | 15.42810 | 110° | 71km/h | 15881m | -3.6m/s | -54.2°C | 1.5% | 110.6hPa | 2.6V | 00:00:00 | 00:00:00 | 00:00:00 | |
| DM0DOS-11 | 2026-09-04 05:50:23 | 51.77026 | 15.42727 | 111° | 75km/h | 15891m | -3.5m/s | -54.3°C | 4.6% | 110.4hPa | 2.6V | 08:30:00 | 01:40:29 | 00:00:00 | |
| AA1-15 | 2026-09-04 05:50:22 | 51.77026 | 15.42727 | 112° | 75km/h | 15891m | -3.5m/s | -54.3°C | 1.1% | 110.5hPa | 2.6V | 18:12:15 | 01:40:29 | 00:00:00 | |
| DF8AY | 2026-09-04 05:50:18 | 51.77058 | 15.42609 | 115° | 82km/h | 15906m | -3.5m/s | -54.2°C | 1% | 110.2hPa | 2.7V | 18:12:15 | 01:40:25 | 00:00:00 | |
| SQ6EMJ | 2026-09-04 05:50:16 | 51.77066 | 15.42578 | 116° | 84km/h | 15909m | -3.5m/s | -54.1°C | 1.6% | 110.1hPa | 2.6V | 00:00:00 | 00:00:00 | 00:00:00 | |
| OE3JTB-15 | 2026-09-04 05:50:15 | 51.77085 | 15.42516 | 118° | 69km/h | 15916m | -3.4m/s | -54.1°C | 4.5% | 109.9hPa | 2.6V | 00:00:00 | 00:00:00 | 08:30:00 | |
| KRY50SP-1 | 2026-09-04 05:50:14 | 51.77085 | 15.42515 | 118° | 86km/h | 15916m | -3.5m/s | -54.2°C | 1.6% | 110.0hPa | 2.7V | 00:00:00 | 00:00:00 | 00:00:00 | |
| DM0DOS-11 | 2026-09-04 05:50:13 | 51.77117 | 15.42424 | 121° | 86km/h | 15927m | -3.6m/s | -54.1°C | 4.4% | 109.8hPa | 2.7V | 08:30:00 | 01:40:19 | 00:00:00 | |
| AA1-15 | 2026-09-04 05:50:12 | 51.77117 | 15.42424 | 122° | 86km/h | 15927m | -3.6m/s | -54.1°C | 1% | 109.8hPa | 2.7V | 18:12:15 | 01:40:19 | 00:00:00 | |
| DF8AY | 2026-09-04 05:50:08 | 51.77220 | 15.42198 | 130° | 68km/h | 15959m | -3.6m/s | -54.3°C | 1% | 109.3hPa | 2.6V | 18:12:15 | 01:40:10 | 00:00:00 | |
| SQ6EMJ | 2026-09-04 05:50:07 | 51.77175 | 15.42288 | 129° | 75km/h | 15945m | -3.4m/s | -54.3°C | 1.5% | 109.6hPa | 2.6V | 00:00:00 | 00:00:00 | 00:00:00 | |
| SONCRA | 2026-09-04 05:50:05 | 51.77198 | 15.42241 | 128° | 71km/h | 15951m | -3.5m/s | -54.4°C | 1.6% | 109.4hPa | 2.6V | 00:00:00 | 00:00:00 | 00:00:00 | |
| DM0DOS-11 | 2026-09-04 05:50:04 | 51.77231 | 15.42177 | 130° | 66km/h | 15962m | -3.6m/s | -54.4°C | 4.5% | 109.2hPa | 2.6V | 08:30:00 | 01:40:09 | 00:00:00 | |
| DF8AY | 2026-09-04 05:49:56 | 51.77288 | 15.42062 | 124° | 57km/h | 15985m | -3.7m/s | -54.4°C | 1.2% | 108.8hPa | 2.6V | 18:12:15 | 01:40:03 | 00:00:00 | |
| DF8AY | 2026-09-04 05:49:46 | 51.77349 | 15.41823 | 109° | 75km/h | 16022m | -4m/s | -54°C | 0.9% | 108.2hPa | 2.6V | 18:12:15 | 01:39:53 | 00:00:00 | |
| AA1-15 | 2026-09-04 05:49:45 | 51.77355 | 15.41794 | 109° | 77km/h | 16026m | -3.7m/s | -53.8°C | 0.8% | 108.1hPa | 2.6V | 18:12:15 | 01:39:52 | 00:00:00 | |
| DF8AY | 2026-09-04 05:49:35 | 51.77437 | 15.41496 | 119° | 78km/h | 16063m | -3.6m/s | -54°C | 1% | 107.5hPa | 2.7V | 18:12:15 | 01:39:42 | 00:00:00 | |
| AA1-15 | 2026-09-04 05:49:34 | 51.77447 | 15.41468 | 120° | 78km/h | 16066m | -3.7m/s | -53.9°C | 1% | 107.5hPa | 2.6V | 18:12:15 | 01:39:41 | 00:00:00 | |
| DO3MHA-11 | 2026-09-04 05:49:34 | 51.77447 | 15.41468 | 120° | 80km/h | 16067m | -3.7m/s | -53.9°C | 4.6% | 107.4hPa | 2.7V | 00:00:00 | 01:39:41 | 00:00:00 | |
| DL2RXE-15 | 2026-09-04 05:49:32 | 51.77456 | 15.41440 | 121° | 78km/h | 16070m | -3.7m/s | -54.0°C | 1.6% | 107.4hPa | 2.7V | 00:00:00 | 00:00:00 | 00:00:00 | |
| 13BRC | 2026-09-04 05:49:31 | 51.77467 | 15.41412 | 122° | 80km/h | 16074m | -3.7m/s | -53.9°C | 1.5% | 107.4hPa | 2.7V | 00:00:00 | 00:00:00 | 00:00:00 | |
| SQ6EMJ | 2026-09-04 05:49:29 | 51.77499 | 15.41328 | 124° | 82km/h | 16085m | -3.6m/s | -53.9°C | 1.5% | 107.2hPa | 2.7V | 00:00:00 | 00:00:00 | 00:00:00 | |
| KRY50SP-1 | 2026-09-04 05:49:28 | 51.77499 | 15.41328 | 124° | 82km/h | 16085m | -3.6m/s | -53.9°C | 1.5% | 107.2hPa | 2.7V | 00:00:00 | 00:00:00 | 00:00:00 | |
| SP6BVK | 2026-09-04 05:49:27 | 51.77510 | 15.41300 | 124° | 82km/h | 16089m | -3.7m/s | -53.8°C | 1.5% | 107.1hPa | 2.7V | 00:00:00 | 00:00:00 | 00:00:00 | |
| DB0DAN | 2026-09-04 05:49:25 | 51.77546 | 15.41218 | 128° | 78km/h | 16100m | -3.9m/s | -53.9°C | 1.5% | 106.89hPa | 2.7V | 00:00:00 | 00:00:00 | 00:00:00 | |
| DF8AY | 2026-09-04 05:49:24 | 51.77559 | 15.41193 | 129° | 80km/h | 16103m | -3.7m/s | -54°C | 0.9% | 106.8hPa | 2.7V | 18:12:15 | 01:39:31 | 00:00:00 | |
| DO3MHA-11 | 2026-09-04 05:49:24 | 51.77558 | 15.41192 | 130° | 71km/h | 16103m | -3.7m/s | -53.9°C | 4.3% | 106.8hPa | 2.7V | 00:00:00 | 01:39:31 | 00:00:00 | |
| DM0DOS-11 | 2026-09-04 05:49:23 | 51.77625 | 15.41078 | 135° | 71km/h | 16123m | -3.9m/s | -54.2°C | 4.4% | 106.5hPa | 2.7V | 08:30:00 | 01:39:26 | 00:00:00 | |
| AA1-15 | 2026-09-04 05:49:23 | 51.77572 | 15.41168 | 131° | 80km/h | 16107m | -3.8m/s | -54°C | 0.9% | 106.8hPa | 2.6V | 18:12:15 | 01:39:30 | 00:00:00 | |
| DF8AY | 2026-09-04 05:49:14 | 51.77681 | 15.40980 | 127° | 62km/h | 16142m | -3.4m/s | -53.8°C | 1% | 106.2hPa | 2.6V | 18:12:15 | 01:39:21 | 00:00:00 | |
| AA1-15 | 2026-09-04 05:49:08 | 51.77730 | 15.40853 | 121° | 60km/h | 16164m | -3.8m/s | -53.7°C | 1% | 105.9hPa | 2.6V | 18:12:15 | 01:39:15 | 00:00:00 | |
| SP6BVK | 2026-09-04 05:49:07 | 51.77737 | 15.40831 | 123° | 60km/h | 16168m | -3.7m/s | -53.5°C | 1.5% | 105.8hPa | 2.6V | 00:00:00 | 00:00:00 | 00:00:00 | |
| KRY50SP-1 | 2026-09-04 05:49:06 | 51.77737 | 15.40831 | 123° | 60km/h | 16168m | -3.7m/s | -53.5°C | 1.5% | 105.8hPa | 2.6V | 00:00:00 | 00:00:00 | 00:00:00 | |
| DO3MHA-11 | 2026-09-04 05:49:04 | 51.77762 | 15.40771 | 126° | 57km/h | 16179m | -3.6m/s | -53.1°C | 4.3% | 105.6hPa | 2.6V | 00:00:00 | 01:39:11 | 00:00:00 | |
| DM0DOS-11 | 2026-09-04 05:49:03 | 51.77807 | 15.40677 | 130° | 58km/h | 16197m | -3.7m/s | -53°C | 4.3% | 105.3hPa | 2.6V | 08:30:00 | 01:39:06 | 00:00:00 | |
| DF8AY | 2026-09-04 05:49:03 | 51.77771 | 15.40752 | 126° | 58km/h | 16182m | -3.7m/s | -53.2°C | 0.9% | 105.5hPa | 2.6V | 18:12:15 | 01:39:10 | 00:00:00 | |
| AA1-15 | 2026-09-04 05:48:54 | 51.77854 | 15.40592 | 132° | 53km/h | 16215m | -3.7m/s | -52.8°C | 0.8% | 105hPa | 2.7V | 18:12:15 | 01:39:01 | 00:00:00 | |
| DO3MHA-11 | 2026-09-04 05:48:54 | 51.77854 | 15.40592 | 132° | 53km/h | 16215m | -3.7m/s | -52.8°C | 4.2% | 104.9hPa | 2.7V | 00:00:00 | 01:39:01 | 00:00:00 | |
| DM0DOS-11 | 2026-09-04 05:48:53 | 51.77892 | 15.40508 | 118° | 51km/h | 16234m | -3.8m/s | -53°C | 4.1% | 104.7hPa | 2.7V | 08:30:00 | 01:38:56 | 00:00:00 | |
| DF8AY | 2026-09-04 05:48:52 | 51.77871 | 15.40559 | 128° | 51km/h | 16223m | -3.8m/s | -53°C | 0.9% | 104.9hPa | 2.6V | 18:12:15 | 01:38:59 | 00:00:00 | |
| OE3OSB-13 | 2026-09-04 05:48:51 | 51.77886 | 15.40526 | 121° | 49km/h | 16231m | -3.9m/s | -53.0°C | 1.4% | 104.7hPa | 2.6V | 00:00:00 | 00:00:00 | 00:00:00 | |
| EDDB2-12 | 2026-09-04 05:48:47 | 51.77904 | 15.40469 | 114° | 53km/h | 16242m | -3.7m/s | -53.0°C | 1.4% | 104.6hPa | 2.6V | 00:00:00 | 00:00:00 | 00:00:00 | |
| SP6BVK | 2026-09-04 05:48:45 | 51.77909 | 15.40448 | 114° | 57km/h | 16246m | -3.9m/s | -53.0°C | 1.4% | 104.5hPa | 2.6V | 00:00:00 | 00:00:00 | 00:00:00 | |
| DM0DOS-11 | 2026-09-04 05:48:44 | 51.77956 | 15.40273 | 116° | 77km/h | 16271m | -3.7m/s | -52.7°C | 4.1% | 104.1hPa | 2.6V | 08:30:00 | 01:38:46 | 00:00:00 | |
| AA1-15 | 2026-09-04 05:48:41 | 51.77940 | 15.40328 | 114° | 71km/h | 16264m | -3.7m/s | -52.6°C | 0.8% | 104.2hPa | 2.6V | 18:12:15 | 01:38:48 | 00:00:00 | |
| SQ6EMJ | 2026-09-04 05:48:40 | 51.77940 | 15.40327 | 115° | 71km/h | 16264m | -3.7m/s | -52.6°C | 1.4% | 104.2hPa | 2.6V | 00:00:00 | 00:00:00 | 00:00:00 | |
| DB0NH | 2026-09-04 05:48:39 | 51.77956 | 15.40273 | 117° | 71km/h | 16272m | -3.7m/s | -52.7°C | 4.1% | 104.0hPa | 2.6V | 00:00:00 | 01:38:46 | 00:00:00 | |
| KRY50SP-1 | 2026-09-04 05:48:37 | 51.77966 | 15.40246 | 120° | 78km/h | 16275m | -3.7m/s | -52.6°C | 1.4% | 104.0hPa | 2.6V | 00:00:00 | 00:00:00 | 00:00:00 | |
| SQ6EMJ | 2026-09-04 05:48:35 | 51.77997 | 15.40165 | 127° | 78km/h | 16287m | -3.6m/s | -52.3°C | 1.3% | 103.8hPa | 2.6V | 00:00:00 | 00:00:00 | 00:00:00 | |
| DM0DOS-11 | 2026-09-04 05:48:34 | 51.78071 | 15.40032 | 135° | 64km/h | 16308m | -3.7m/s | -52.4°C | 4.1% | 103.5hPa | 2.6V | 08:30:00 | 01:38:36 | 00:00:00 | |
| DF8AY | 2026-09-04 05:48:31 | 51.78047 | 15.40071 | 134° | 71km/h | 16301m | -3.7m/s | -52.4°C | 0.7% | 103.6hPa | 2.7V | 18:12:15 | 01:38:38 | 00:00:00 | |
| AA1-15 | 2026-09-04 05:48:30 | 51.78059 | 15.40051 | 135° | 68km/h | 16305m | -3.8m/s | -52.4°C | 0.7% | 103.5hPa | 2.6V | 18:12:15 | 01:38:37 | 00:00:00 | |
| SQ6EMJ | 2026-09-04 05:48:30 | 51.78059 | 15.40051 | 136° | 68km/h | 16305m | -3.8m/s | -52.4°C | 1.4% | 103.5hPa | 2.7V | 00:00:00 | 00:00:00 | 00:00:00 | |
| EDDB2-11 | 2026-09-04 05:48:27 | 51.78102 | 15.39979 | 130° | 57km/h | 16320m | -3.8m/s | -52.9°C | 1.4% | 103.3hPa | 2.7V | 00:00:00 | 00:00:00 | 00:00:00 | |
| SP6BVK | 2026-09-04 05:48:25 | 51.78102 | 15.39979 | 131° | 57km/h | 16320m | -3.8m/s | -52.9°C | 1.4% | 103.3hPa | 2.7V | 00:00:00 | 00:00:00 | 00:00:00 | |
| DM0DOS-11 | 2026-09-04 05:48:24 | 51.78156 | 15.39839 | 118° | 60km/h | 16345m | -3.6m/s | -53°C | 4.1% | 102.9hPa | 2.7V | 08:30:00 | 01:38:26 | 00:00:00 | |
| DF8AY | 2026-09-04 05:48:20 | 51.78149 | 15.39861 | 118° | 58km/h | 16341m | -3.5m/s | -53°C | 0.7% | 103hPa | 2.7V | 18:12:15 | 01:38:27 | 00:00:00 | |
| AA1-15 | 2026-09-04 05:48:19 | 51.78156 | 15.39839 | 119° | 60km/h | 16345m | -3.6m/s | -53°C | 0.7% | 102.9hPa | 2.7V | 18:12:15 | 01:38:26 | 00:00:00 | |
| SQ6EMJ | 2026-09-04 05:48:18 | 51.78156 | 15.39839 | 120° | 60km/h | 16345m | -3.6m/s | -53.0°C | 1.4% | 102.9hPa | 2.6V | 00:00:00 | 00:00:00 | 00:00:00 | |
| EDDB2-12 | 2026-09-04 05:48:16 | 51.78178 | 15.39776 | 119° | 57km/h | 16356m | -3.6m/s | -53.1°C | 1.4% | 102.7hPa | 2.6V | 00:00:00 | 00:00:00 | 00:00:00 | |
| KRY50SP-1 | 2026-09-04 05:48:15 | 51.78177 | 15.39776 | 120° | 58km/h | 16356m | -3.6m/s | -53.1°C | 1.4% | 102.7hPa | 2.6V | 00:00:00 | 00:00:00 | 00:00:00 | |
| DM0DOS-11 | 2026-09-04 05:48:14 | 51.78228 | 15.39641 | 126° | 53km/h | 16381m | -3.6m/s | -52.5°C | 4.1% | 102.3hPa | 2.6V | 08:30:00 | 01:38:16 | 00:00:00 | |
| DF8AY | 2026-09-04 05:48:09 | 51.78228 | 15.39641 | 127° | 53km/h | 16381m | -3.7m/s | -52.5°C | 0.8% | 102.3hPa | 2.6V | 18:12:15 | 01:38:16 | 00:00:00 | |
| AA1-15 | 2026-09-04 05:48:05 | 51.78264 | 15.39575 | 135° | 57km/h | 16395m | -3.6m/s | -52.4°C | 0.8% | 102hPa | 2.6V | 18:12:15 | 01:38:12 | 00:00:00 | |
| DF8AY | 2026-09-04 05:47:59 | 51.78328 | 15.39472 | 136° | 62km/h | 16417m | -3.5m/s | -52.3°C | 0.9% | 101.8hPa | 2.6V | 18:12:15 | 01:38:06 | 00:00:00 | |
| AA1-15 | 2026-09-04 05:47:54 | 51.78392 | 15.39373 | 136° | 53km/h | 16438m | -3.7m/s | -52.3°C | 0.8% | 101.4hPa | 2.6V | 18:12:15 | 01:38:00 | 00:00:00 | |
| DF8AY | 2026-09-04 05:47:54 | 51.78432 | 15.39302 | 125° | 44km/h | 16457m | -3.8m/s | -52.2°C | 0.6% | 101.1hPa | 2.7V | 18:12:15 | 01:37:55 | 00:00:00 | |
| SP3WXH-11 | 2026-09-04 05:47:52 | 51.78401 | 15.39359 | 135° | 49km/h | 16442m | -3.6m/s | -52.3°C | 1.4% | 101.3hPa | 2.6V | 00:00:00 | 00:00:00 | 00:00:00 | |
| EDDB2-12 | 2026-09-04 05:47:45 | 51.78447 | 15.39255 | 113° | 44km/h | 16468m | -3.8m/s | -52.1°C | 1.3% | 100.9hPa | 2.6V | 00:00:00 | 00:00:00 | 00:00:00 | |
| AA1-15 | 2026-09-04 05:47:42 | 51.78461 | 15.39199 | 110° | 53km/h | 16479m | -3.9m/s | -52°C | 0.7% | 100.8hPa | 2.6V | 18:12:15 | 01:37:49 | 00:00:00 | |
| DB0DAN | 2026-09-04 05:47:40 | 51.78471 | 15.39156 | 114° | 57km/h | 16486m | -3.5m/s | -52°C | 1.3% | 100.66hPa | 2.6V | 00:00:00 | 00:00:00 | 00:00:00 | |
| DF8AY | 2026-09-04 05:47:37 | 51.78493 | 15.39091 | 123° | 64km/h | 16496m | -3.4m/s | -52.2°C | 0.8% | 100.5hPa | 2.7V | 18:12:15 | 01:37:44 | 00:00:00 | |
| AA1-15 | 2026-09-04 05:47:32 | 51.78544 | 15.38991 | 135° | 64km/h | 16514m | -3.5m/s | -51.7°C | 0.7% | 100.3hPa | 2.7V | 18:12:15 | 01:37:39 | 00:00:00 | |
| DF8AY | 2026-09-04 05:47:27 | 51.78601 | 15.38915 | 146° | 51km/h | 16532m | -3.6m/s | -51.8°C | 0.6% | 99.9hPa | 2.7V | 18:12:15 | 01:37:34 | 00:00:00 | |
| AA1-15 | 2026-09-04 05:47:22 | 51.78642 | 15.38870 | 135° | 29km/h | 16550m | -3.7m/s | -52°C | 0.7% | 99.7hPa | 2.6V | 18:12:15 | 01:37:29 | 00:00:00 | |
| SQ6EMJ | 2026-09-04 05:47:22 | 51.78642 | 15.38870 | 136° | 29km/h | 16550m | -3.7m/s | -52.0°C | 1.3% | 99.7hPa | 2.6V | 00:00:00 | 00:00:00 | 00:00:00 | |
| SP3WXH-11 | 2026-09-04 05:47:21 | 51.78646 | 15.38861 | 126° | 27km/h | 16554m | -3.7m/s | -52.0°C | 1.3% | 99.6hPa | 2.6V | 00:00:00 | 00:00:00 | 00:00:00 | |
| POL2MAQ | 2026-09-04 05:47:19 | 51.78654 | 15.38839 | 115° | 35km/h | 16561m | -3.9m/s | -51.9°C | 1.3% | 99.5hPa | 2.6V | 00:00:00 | 00:00:00 | 00:00:00 | |
| DM0DOS-11 | 2026-09-04 05:47:17 | 51.78698 | 15.38708 | 127° | 64km/h | 16585m | -3.5m/s | -51.9°C | 4% | 99.1hPa | 2.6V | 08:30:00 | 01:37:19 | 00:00:00 | |
| DF8AY | 2026-09-04 05:47:16 | 51.78666 | 15.38790 | 115° | 51km/h | 16572m | -3.3m/s | -52.1°C | 0.8% | 99.3hPa | 2.6V | 18:12:15 | 01:37:23 | 00:00:00 | |
| AA1-15 | 2026-09-04 05:47:11 | 51.78708 | 15.38688 | 131° | 64km/h | 16589m | -3.6m/s | -51.8°C | 0.8% | 99.1hPa | 2.6V | 18:12:15 | 01:37:18 | 00:00:00 | |
| DB0DAN | 2026-09-04 05:47:10 | 51.78719 | 15.38669 | 134° | 62km/h | 16592m | -3.7m/s | -51.9°C | 1.4% | 99.07hPa | 2.7V | 00:00:00 | 00:00:00 | 00:00:00 | |
| DF8AY | 2026-09-04 05:47:06 | 51.78766 | 15.38607 | 146° | 53km/h | 16607m | -3.5m/s | -51.9°C | 0.7% | 98.8hPa | 2.6V | 18:12:15 | 01:37:13 | 00:00:00 | |
| SQ6EMJ | 2026-09-04 05:47:06 | 51.78766 | 15.38607 | 147° | 53km/h | 16607m | -3.5m/s | -51.9°C | 1.3% | 98.8hPa | 2.7V | 00:00:00 | 00:00:00 | 00:00:00 | |
| BIOWL9-15 | 2026-09-04 05:47:05 | 51.78786 | 15.38586 | 145° | 42km/h | 16614m | -3.4m/s | -52.1°C | 1.4% | 98.8hPa | 2.7V | 00:00:00 | 00:00:00 | 00:00:00 | |
| DO3MHA-11 | 2026-09-04 05:47:04 | 51.78786 | 15.38586 | 146° | 42km/h | 16614m | -3.3m/s | -52.1°C | 4.2% | 98.7hPa | 2.7V | 00:00:00 | 01:37:11 | 00:00:00 | |
| DM0DOS-11 | 2026-09-04 05:47:02 | 51.78808 | 15.38557 | 132° | 33km/h | 16624m | -3.5m/s | -51.9°C | 4% | 98.5hPa | 2.7V | 08:30:00 | 01:37:08 | 00:00:00 | |
| AA1-15 | 2026-09-04 05:47:00 | 51.78814 | 15.38546 | 127° | 35km/h | 16627m | -3.8m/s | -51.7°C | 0.8% | 98.5hPa | 2.6V | 18:12:15 | 01:37:07 | 00:00:00 | |
| DF8AY | 2026-09-04 05:46:55 | 51.78835 | 15.38474 | 112° | 47km/h | 16645m | -3.5m/s | -51.6°C | 0.8% | 98.2hPa | 2.6V | 18:12:15 | 01:37:02 | 00:00:00 | |
| DB0DAN | 2026-09-04 05:46:55 | 51.78835 | 15.38474 | 112° | 46km/h | 16645m | -3.5m/s | -51.6°C | 1.4% | 98.2hPa | 2.6V | 00:00:00 | 00:00:00 | 00:00:00 | |
| EDDB2-11 | 2026-09-04 05:46:54 | 51.78845 | 15.38436 | 114° | 53km/h | 16652m | -3.6m/s | -51.7°C | 1.3% | 98.1hPa | 2.7V | 00:00:00 | 00:00:00 | 00:00:00 | |
| DM0DOS-11 | 2026-09-04 05:46:52 | 51.78859 | 15.38394 | 119° | 60km/h | 16659m | -3.2m/s | -51.7°C | 4% | 98hPa | 2.7V | 08:30:00 | 01:36:58 | 00:00:00 | |
| AA1-15 | 2026-09-04 05:46:50 | 51.78866 | 15.38373 | 122° | 64km/h | 16662m | -3.4m/s | -51.7°C | 0.8% | 98hPa | 2.7V | 18:12:15 | 01:36:57 | 00:00:00 | |
| DF8AY | 2026-09-04 05:46:45 | 51.78920 | 15.38268 | 137° | 68km/h | 16680m | -3.6m/s | -51.7°C | 0.7% | 97.7hPa | 2.7V | 18:12:15 | 01:36:52 | 00:00:00 | |
| DB0NH | 2026-09-04 05:46:45 | 51.78920 | 15.38268 | 138° | 57km/h | 16680m | -3.5m/s | -51.7°C | 3.9% | 97.6hPa | 2.7V | 00:00:00 | 01:36:52 | 00:00:00 | |
| SP6BVK | 2026-09-04 05:46:43 | 51.78932 | 15.38251 | 141° | 64km/h | 16684m | -3.4m/s | -51.8°C | 1.3% | 97.6hPa | 2.7V | 00:00:00 | 00:00:00 | 00:00:00 | |
| DM0DOS-11 | 2026-09-04 05:46:42 | 51.78968 | 15.38209 | 146° | 53km/h | 16693m | -3.3m/s | -51.9°C | 3.9% | 97.5hPa | 2.7V | 08:30:00 | 01:36:48 | 00:00:00 | |
| AA1-15 | 2026-09-04 05:46:40 | 51.78979 | 15.38197 | 147° | 49km/h | 16697m | -3.3m/s | -51.9°C | 0.7% | 97.5hPa | 2.7V | 18:12:15 | 01:36:47 | 00:00:00 | |
| SQ6EMJ | 2026-09-04 05:46:38 | 51.78989 | 15.38187 | 147° | 44km/h | 16700m | -3.4m/s | -51.9°C | 1.3% | 97.4hPa | 2.6V | 00:00:00 | 00:00:00 | 00:00:00 | |
| SONDE2-11 | 2026-09-04 05:46:37 | 51.79013 | 15.38156 | 135° | 38km/h | 16710m | -3.4m/s | -52.1°C | 1.3% | 97.2hPa | 2.6V | 00:00:00 | 00:00:00 | 00:00:00 | |
| DM0DOS-11 | 2026-09-04 05:46:36 | 51.79044 | 15.38084 | 120° | 51km/h | 16726m | -3.4m/s | -52.4°C | 4% | 97hPa | 2.6V | 08:30:00 | 01:36:38 | 00:00:00 | |
| DF8AY | 2026-09-04 05:46:35 | 51.79020 | 15.38145 | 131° | 40km/h | 16713m | -3.2m/s | -52.2°C | 0.7% | 97.2hPa | 2.6V | 18:12:15 | 01:36:42 | 00:00:00 | |
| AA1-15 | 2026-09-04 05:46:29 | 51.79058 | 15.38047 | 121° | 57km/h | 16733m | -3.3m/s | -52.4°C | 0.8% | 96.9hPa | 2.6V | 18:12:15 | 01:36:36 | 00:00:00 | |
| DF8AY | 2026-09-04 05:46:24 | 51.79101 | 15.37944 | 128° | 66km/h | 16749m | -3.2m/s | -52°C | 1% | 96.7hPa | 2.6V | 18:12:15 | 01:36:31 | 00:00:00 | |
| EDDB2-11 | 2026-09-04 05:46:23 | 51.79123 | 15.37902 | 132° | 68km/h | 16756m | -3.1m/s | -51.8°C | 1.5% | 96.5hPa | 2.6V | 00:00:00 | 00:00:00 | 00:00:00 | |
| DM0DOS-11 | 2026-09-04 05:46:20 | 51.79214 | 15.37782 | 147° | 60km/h | 16778m | -3.1m/s | -52°C | 3.9% | 96.2hPa | 2.6V | 08:30:00 | 01:36:22 | 00:00:00 | |
| DF8AY | 2026-09-04 05:46:13 | 51.79239 | 15.37758 | 151° | 55km/h | 16784m | -3m/s | -52°C | 0.7% | 96.2hPa | 2.6V | 18:12:15 | 01:36:20 | 00:00:00 | |
| DF8AY | 2026-09-04 05:46:03 | 51.79337 | 15.37646 | 133° | 47km/h | 16814m | -3.1m/s | -52.7°C | 1% | 95.7hPa | 2.7V | 18:12:15 | 01:36:10 | 00:00:00 | |
| AA1-15 | 2026-09-04 05:46:01 | 51.79352 | 15.37618 | 131° | 46km/h | 16820m | -3.2m/s | -52.4°C | 1% | 95.6hPa | 2.6V | 18:12:15 | 01:36:08 | 00:00:00 | |
| SQ6EMJ | 2026-09-04 05:45:58 | 51.79367 | 15.37591 | 131° | 42km/h | 16827m | -3.1m/s | -52.2°C | 1.5% | 95.5hPa | 2.6V | 00:00:00 | 00:00:00 | 00:00:00 | |
| DM0DOS-11 | 2026-09-04 05:45:57 | 51.79386 | 15.37557 | 134° | 37km/h | 16836m | -3.3m/s | -52.4°C | 4.2% | 95.3hPa | 2.6V | 08:30:00 | 01:36:03 | 00:00:00 | |
| DF8AY | 2026-09-04 05:45:54 | 51.79407 | 15.37528 | 144° | 37km/h | 16847m | -3.6m/s | -52.4°C | 1% | 95.2hPa | 2.7V | 18:12:15 | 01:36:00 | 00:00:00 | |
| EDDB2-11 | 2026-09-04 05:45:51 | 51.79423 | 15.37511 | 149° | 38km/h | 16853m | -3.1m/s | -52.3°C | 1.5% | 95.1hPa | 2.6V | 00:00:00 | 00:00:00 | 00:00:00 | |
| SP3WXH-11 | 2026-09-04 05:45:48 | 51.79451 | 15.37487 | 153° | 44km/h | 16862m | -2.6m/s | -52.4°C | 1.5% | 95.0hPa | 2.6V | 00:00:00 | 00:00:00 | 00:00:00 | |
| DM0DOS-11 | 2026-09-04 05:45:47 | 51.79472 | 15.37471 | 155° | 44km/h | 16868m | -3.3m/s | -52.5°C | 4.3% | 94.9hPa | 2.6V | 08:30:00 | 01:35:53 | 00:00:00 | |
| AA1-15 | 2026-09-04 05:45:47 | 51.79461 | 15.37479 | 155° | 46km/h | 16865m | -3m/s | -52.4°C | 1.1% | 95hPa | 2.7V | 18:12:15 | 01:35:54 | 00:00:00 | |
| DF8AY | 2026-09-04 05:45:42 | 51.79512 | 15.37445 | 159° | 40km/h | 16882m | -3.6m/s | -52.3°C | 1% | 94.7hPa | 2.7V | 18:12:15 | 01:35:49 | 00:00:00 | |
| SQ6EMJ | 2026-09-04 05:45:42 | 51.79512 | 15.37445 | 160° | 40km/h | 16882m | -3.6m/s | -52.3°C | 1.5% | 94.7hPa | 2.7V | 00:00:00 | 00:00:00 | 00:00:00 | |
| EDDB2-12 | 2026-09-04 05:45:41 | 51.79521 | 15.37439 | 157° | 37km/h | 16885m | -3.3m/s | -52.2°C | 1.5% | 94.6hPa | 2.7V | 00:00:00 | 00:00:00 | 00:00:00 | |
| DM0DOS-11 | 2026-09-04 05:45:40 | 51.79562 | 15.37399 | 135° | 31km/h | 16905m | -3.2m/s | -52.3°C | 4% | 94.3hPa | 2.7V | 08:30:00 | 01:35:42 | 00:00:00 | |
| AA1-15 | 2026-09-04 05:45:36 | 51.79557 | 15.37407 | 141° | 29km/h | 16902m | -3.3m/s | -52.3°C | 0.9% | 94.4hPa | 2.7V | 18:12:15 | 01:35:43 | 00:00:00 | |
| DF8AY | 2026-09-04 05:45:33 | 51.79579 | 15.37369 | 128° | 35km/h | 16915m | -3.5m/s | -52.4°C | 0.8% | 94.2hPa | 2.6V | 18:12:15 | 01:35:39 | 00:00:00 | |
| S3001 | 2026-09-04 05:45:33 | 51.79579 | 15.37369 | 127° | 35km/h | 16915m | -3.5m/s | -52.4°C | 1.4% | 94.2hPa | 2.7V | 00:00:00 | 00:00:00 | 00:00:00 | |
| BIOWL9-15 | 2026-09-04 05:45:31 | 51.79584 | 15.37357 | 125° | 35km/h | 16919m | -3.6m/s | -52.5°C | 1.4% | 94.2hPa | 2.7V | 00:00:00 | 00:00:00 | 00:00:00 | |
| SQ6EMJ | 2026-09-04 05:45:30 | 51.79589 | 15.37345 | 126° | 37km/h | 16922m | -3.4m/s | -52.4°C | 1.4% | 94.1hPa | 2.7V | 00:00:00 | 00:00:00 | 00:00:00 | |
| DM0DOS-11 | 2026-09-04 05:45:27 | 51.79617 | 15.37280 | 122° | 40km/h | 16939m | -3.6m/s | -52.6°C | 4.2% | 93.8hPa | 2.7V | 08:30:00 | 01:35:32 | 00:00:00 | |
| AA1-15 | 2026-09-04 05:45:25 | 51.79617 | 15.37280 | 123° | 40km/h | 16939m | -3.6m/s | -52.6°C | 1% | 93.9hPa | 2.7V | 18:12:15 | 01:35:32 | 00:00:00 | |
| DF8AY | 2026-09-04 05:45:21 | 51.79638 | 15.37226 | 121° | 38km/h | 16953m | -3.4m/s | -52.7°C | 1.1% | 93.7hPa | 2.6V | 18:12:15 | 01:35:28 | 00:00:00 | |
| AA1-15 | 2026-09-04 05:45:15 | 51.79664 | 15.37152 | 118° | 29km/h | 16975m | -3.3m/s | -52.7°C | 1.1% | 93.3hPa | 2.6V | 18:12:15 | 01:35:22 | 00:00:00 | |
| DF8AY | 2026-09-04 05:45:12 | 51.79678 | 15.37113 | 123° | 26km/h | 16989m | -3.4m/s | -52.8°C | 1% | 93.1hPa | 2.6V | 18:12:15 | 01:35:18 | 00:00:00 | |
| AA1-15 | 2026-09-04 05:45:05 | 51.79702 | 15.37068 | 138° | 24km/h | 17010m | -3.5m/s | -53°C | 1% | 92.9hPa | 2.7V | 18:12:15 | 01:35:12 | 00:00:00 | |
| DF8AY | 2026-09-04 05:45:00 | 51.79722 | 15.37037 | 133° | 22km/h | 17027m | -3.7m/s | -53.1°C | 1.2% | 92.6hPa | 2.7V | 18:12:15 | 01:35:07 | 00:00:00 | |
| SP6BVK | 2026-09-04 05:44:59 | 51.79722 | 15.37037 | 134° | 22km/h | 17028m | -3.7m/s | -53.1°C | 1.6% | 92.6hPa | 2.7V | 00:00:00 | 00:00:00 | 00:00:00 | |
| DM0DOS-11 | 2026-09-04 05:44:57 | 51.79737 | 15.37003 | 115° | 20km/h | 17046m | -3.9m/s | -53.1°C | 4.3% | 92.3hPa | 2.7V | 08:30:00 | 01:35:02 | 00:00:00 | |
| AA1-15 | 2026-09-04 05:44:54 | 51.79739 | 15.36995 | 113° | 22km/h | 17050m | -3.7m/s | -53.1°C | 1.1% | 92.3hPa | 2.7V | 18:12:15 | 01:35:01 | 00:00:00 | |
| DF8AY | 2026-09-04 05:44:50 | 51.79745 | 15.36959 | 103° | 26km/h | 17065m | -3.8m/s | -53.2°C | 1.1% | 92hPa | 2.7V | 18:12:15 | 01:34:57 | 00:00:00 | |
| SQ6EMJ | 2026-09-04 05:44:50 | 51.79745 | 15.36959 | 103° | 26km/h | 17065m | -3.8m/s | -53.2°C | 1.5% | 92.0hPa | 2.7V | 00:00:00 | 00:00:00 | 00:00:00 | |
| KRY50SP-1 | 2026-09-04 05:44:49 | 51.79747 | 15.36948 | 104° | 27km/h | 17068m | -3.7m/s | -53.2°C | 1.5% | 92.0hPa | 2.7V | 00:00:00 | 00:00:00 | 00:00:00 | |
| DM0DOS-11 | 2026-09-04 05:44:47 | 51.79756 | 15.36885 | 104° | 24km/h | 17091m | -3.7m/s | -53.4°C | 4.5% | 91.7hPa | 2.7V | 08:30:00 | 01:34:50 | 00:00:00 | |
| SP3WXH-11 | 2026-09-04 05:44:46 | 51.79751 | 15.36916 | 102° | 26km/h | 17080m | -3.7m/s | -53.4°C | 1.5% | 91.8hPa | 2.7V | 00:00:00 | 00:00:00 | 00:00:00 | |
| AA1-15 | 2026-09-04 05:44:44 | 51.79754 | 15.36895 | 104° | 26km/h | 17087m | -3.8m/s | -53.4°C | 1.1% | 91.7hPa | 2.7V | 18:12:15 | 01:34:51 | 00:00:00 | |
| DF8AY | 2026-09-04 05:44:39 | 51.79760 | 15.36848 | 93° | 22km/h | 17106m | -4m/s | -53.5°C | 1% | 91.4hPa | 2.6V | 18:12:15 | 01:34:46 | 00:00:00 | |
| AA1-15 | 2026-09-04 05:44:30 | 51.79751 | 15.36733 | 91° | 44km/h | 17141m | -4m/s | -53.4°C | 1% | 91hPa | 2.6V | 18:12:15 | 01:34:37 | 00:00:00 | |
| DF8AY | 2026-09-04 05:44:30 | 51.79751 | 15.36716 | 96° | 44km/h | 17145m | -3.9m/s | -53.3°C | 0.9% | 90.9hPa | 2.6V | 18:12:15 | 01:34:36 | 00:00:00 | |
| AA1-15 | 2026-09-04 05:44:20 | 51.79783 | 15.36588 | 120° | 27km/h | 17179m | -3.8m/s | -53.5°C | 1% | 90.4hPa | 2.7V | 18:12:15 | 01:34:27 | 00:00:00 | |
| DF8AY | 2026-09-04 05:44:18 | 51.79789 | 15.36569 | 116° | 24km/h | 17187m | -3.8m/s | -53.4°C | 1.1% | 90.3hPa | 2.6V | 18:12:15 | 01:34:25 | 00:00:00 | |
| DF8AY | 2026-09-04 05:44:13 | 51.79783 | 15.36481 | 61° | 31km/h | 17226m | -4m/s | -53°C | 1.2% | 89.8hPa | 2.6V | 18:12:15 | 01:34:15 | 00:00:00 | |
| AA1-15 | 2026-09-04 05:44:09 | 51.79786 | 15.36492 | 62° | 27km/h | 17222m | -4m/s | -53°C | 1.1% | 89.8hPa | 2.7V | 18:12:15 | 01:34:16 | 00:00:00 | |
| AA1-15 | 2026-09-04 05:43:58 | 51.79760 | 15.36312 | 98° | 49km/h | 17265m | -4m/s | -52.9°C | 1.1% | 89.2hPa | 2.7V | 18:12:15 | 01:34:05 | 00:00:00 | |
| DF8AY | 2026-09-04 05:43:48 | 51.79781 | 15.36177 | 90° | 20km/h | 17304m | -3.8m/s | -53.3°C | 1.2% | 88.7hPa | 2.6V | 18:12:15 | 01:33:55 | 00:00:00 | |
| AA1-15 | 2026-09-04 05:43:47 | 51.79781 | 15.36169 | 82° | 20km/h | 17308m | -4m/s | -53.4°C | 1.1% | 88.6hPa | 2.7V | 18:12:15 | 01:33:54 | 00:00:00 | |
| DO3MHA-11 | 2026-09-04 05:43:46 | 51.79780 | 15.36161 | 76° | 35km/h | 17312m | -3.9m/s | -53.3°C | 4.4% | 88.6hPa | 2.6V | 00:00:00 | 01:33:53 | 00:00:00 | |
| SP3WXH-11 | 2026-09-04 05:43:44 | 51.79776 | 15.36144 | 67° | 26km/h | 17320m | -4.0m/s | -53.6°C | 1.5% | 88.5hPa | 2.6V | 00:00:00 | 00:00:00 | 00:00:00 | |
| DM0DOS-11 | 2026-09-04 05:43:41 | 51.79760 | 15.36079 | 71° | 40km/h | 17339m | -3.7m/s | -53.7°C | 4.4% | 88.2hPa | 2.6V | 08:30:00 | 01:33:46 | 00:00:00 | |
| DB0DAN | 2026-09-04 05:43:40 | 51.79764 | 15.36095 | 70° | 37km/h | 17335m | -3.9m/s | -53.8°C | 1.5% | 88.28hPa | 2.7V | 00:00:00 | 00:00:00 | 00:00:00 | |
| DF8AY | 2026-09-04 05:43:38 | 51.79757 | 15.36063 | 73° | 44km/h | 17343m | -3.7m/s | -53.6°C | 1.1% | 88.2hPa | 2.6V | 18:12:15 | 01:33:45 | 00:00:00 | |
| EDDB2-12 | 2026-09-04 05:43:37 | 51.79754 | 15.36046 | 75° | 46km/h | 17346m | -4.0m/s | -53.7°C | 1.6% | 88.1hPa | 2.7V | 00:00:00 | 00:00:00 | 00:00:00 | |
| KRY50SP-1 | 2026-09-04 05:43:36 | 51.79754 | 15.36046 | 77° | 46km/h | 17346m | -4.0m/s | -53.7°C | 1.6% | 88.1hPa | 2.7V | 00:00:00 | 00:00:00 | 00:00:00 | |
| DO3MHA-11 | 2026-09-04 05:43:35 | 51.79749 | 15.36008 | 81° | 49km/h | 17354m | -3.8m/s | -53.6°C | 4.5% | 87.9hPa | 2.7V | 00:00:00 | 01:33:42 | 00:00:00 | |
| DM0DOS-11 | 2026-09-04 05:43:34 | 51.79752 | 15.35885 | 105° | 49km/h | 17377m | -3.8m/s | -53.9°C | 4.4% | 87.7hPa | 2.7V | 08:30:00 | 01:33:36 | 00:00:00 | |
| DF8AY | 2026-09-04 05:43:28 | 51.79756 | 15.35866 | 111° | 47km/h | 17381m | -4m/s | -54°C | 1.1% | 87.6hPa | 2.6V | 18:12:15 | 01:33:35 | 00:00:00 | |
| DF8AY | 2026-09-04 05:43:18 | 51.79794 | 15.35737 | 86° | 29km/h | 17424m | -3.8m/s | -54.7°C | 0.9% | 87hPa | 2.7V | 18:12:15 | 01:33:24 | 00:00:00 | |
| EDDB2-11 | 2026-09-04 05:43:16 | 51.79794 | 15.35725 | 83° | 31km/h | 17428m | -3.8m/s | -54.7°C | 1.4% | 87.0hPa | 2.6V | 00:00:00 | 00:00:00 | 00:00:00 | |
| DO3MHA-11 | 2026-09-04 05:43:15 | 51.79792 | 15.35711 | 83° | 40km/h | 17432m | -3.6m/s | -54.7°C | 4.4% | 86.9hPa | 2.6V | 00:00:00 | 01:33:22 | 00:00:00 | |
| DM0DOS-11 | 2026-09-04 05:43:14 | 51.79790 | 15.35614 | 93° | 42km/h | 17454m | -3.9m/s | -54.7°C | 4.6% | 86.6hPa | 2.6V | 08:30:00 | 01:33:16 | 00:00:00 | |
| SP3WXH-11 | 2026-09-04 05:43:13 | 51.79791 | 15.35682 | 85° | 38km/h | 17439m | -4.0m/s | -54.7°C | 1.5% | 86.8hPa | 2.6V | 00:00:00 | 00:00:00 | 00:00:00 | |
| DB0DAN | 2026-09-04 05:43:10 | 51.79789 | 15.35631 | 91° | 40km/h | 17451m | -3.8m/s | -54.7°C | 1.5% | 86.66hPa | 2.6V | 00:00:00 | 00:00:00 | 00:00:00 | |
| DF8AY | 2026-09-04 05:43:07 | 51.79792 | 15.35580 | 98° | 44km/h | 17462m | -3.8m/s | -54.8°C | 1.2% | 86.5hPa | 2.7V | 18:12:15 | 01:33:14 | 00:00:00 | |
| EDDB2-12 | 2026-09-04 05:43:06 | 51.79794 | 15.35562 | 99° | 42km/h | 17466m | -4.0m/s | -54.8°C | 1.6% | 86.5hPa | 2.7V | 00:00:00 | 00:00:00 | 00:00:00 | |
| DO3MHA-11 | 2026-09-04 05:43:05 | 51.79795 | 15.35545 | 101° | 49km/h | 17470m | -3.9m/s | -54.8°C | 4.7% | 86.4hPa | 2.7V | 00:00:00 | 01:33:12 | 08:30:00 | |
| KRY50SP-1 | 2026-09-04 05:43:02 | 51.79800 | 15.35509 | 105° | 46km/h | 17478m | -4.0m/s | -54.8°C | 1.6% | 86.3hPa | 2.7V | 00:00:00 | 00:00:00 | 00:00:00 | |
| SONDE2-11 | 2026-09-04 05:42:59 | 51.79815 | 15.35433 | 109° | 49km/h | 17494m | -3.8m/s | -54.4°C | 1.7% | 86.1hPa | 2.7V | 00:00:00 | 00:00:00 | 00:00:00 | |
| DAC517 | 2026-09-04 05:42:58 | 51.79815 | 15.35433 | 111° | 51km/h | 17494m | -3.8m/s | -54.4°C | 1.7% | 86.1hPa | 2.7V | 00:00:00 | 00:00:00 | 00:00:00 | |
| DM0DOS-11 | 2026-09-04 05:42:57 | 51.79830 | 15.35375 | 115° | 51km/h | 17505m | -4m/s | -54.3°C | 4.6% | 85.9hPa | 2.7V | 08:30:00 | 01:33:03 | 00:00:00 | |
| DF8AY | 2026-09-04 05:42:56 | 51.79830 | 15.35375 | 115° | 53km/h | 17506m | -4m/s | -54.3°C | 1.3% | 85.9hPa | 2.7V | 18:12:15 | 01:33:03 | 00:00:00 | |
| DF8AY | 2026-09-04 05:42:46 | 51.79892 | 15.35227 | 127° | 33km/h | 17543m | -3.9m/s | -55.2°C | 1.4% | 85.5hPa | 2.6V | 18:12:15 | 01:32:53 | 00:00:00 | |
| DO3MHA-11 | 2026-09-04 05:42:45 | 51.79897 | 15.35216 | 127° | 29km/h | 17547m | -3.7m/s | -55.2°C | 5.0% | 85.3hPa | 2.7V | 00:00:00 | 01:32:52 | 00:00:00 | |
| SP3WXH-11 | 2026-09-04 05:42:42 | 51.79909 | 15.35186 | 115° | 26km/h | 17558m | -3.8m/s | -54.8°C | 1.7% | 85.2hPa | 2.7V | 00:00:00 | 00:00:00 | 00:00:00 | |
| KRY50SP-1 | 2026-09-04 05:42:40 | 51.79911 | 15.35176 | 113° | 26km/h | 17562m | -3.8m/s | -54.8°C | 1.7% | 85.2hPa | 2.7V | 00:00:00 | 00:00:00 | 00:00:00 | |
| 13BRC | 2026-09-04 05:42:39 | 51.79913 | 15.35166 | 107° | 26km/h | 17566m | -3.8m/s | -54.6°C | 1.7% | 85.1hPa | 2.7V | 00:00:00 | 00:00:00 | 00:00:00 | |
| OE3OSB-13 | 2026-09-04 05:42:38 | 51.79917 | 15.35133 | 93° | 29km/h | 17578m | -3.9m/s | -54.7°C | 1.7% | 85.0hPa | 2.7V | 00:00:00 | 00:00:00 | 00:00:00 | |
| DM0DOS-11 | 2026-09-04 05:42:37 | 51.79919 | 15.35054 | 94° | 46km/h | 17596m | -3.7m/s | -54.6°C | 4.8% | 84.7hPa | 2.7V | 08:30:00 | 01:32:39 | 00:00:00 | |
| DF8AY | 2026-09-04 05:42:36 | 51.79917 | 15.35119 | 93° | 35km/h | 17581m | -3.6m/s | -54.6°C | 1.4% | 85hPa | 2.7V | 18:12:15 | 01:32:43 | 00:00:00 | |
| AA1-15 | 2026-09-04 05:42:27 | 51.79931 | 15.34955 | 109° | 55km/h | 17615m | -3.9m/s | -54.8°C | 1.6% | 84.5hPa | 2.7V | 18:12:15 | 01:32:34 | 00:00:00 | |
| DF8AY | 2026-09-04 05:42:25 | 51.79942 | 15.34913 | 115° | 57km/h | 17623m | -3.8m/s | -54.7°C | 1.6% | 84.4hPa | 2.7V | 18:12:15 | 01:32:32 | 00:00:00 | |
| DL1XH-west | 2026-09-04 05:42:21 | 51.79973 | 15.34831 | 127° | 60km/h | 17639m | -3.9m/s | -55°C | 1.5% | 84.2hPa | 2.7V | 18:12:15 | 01:32:28 | 00:00:00 | |
| SONCRA | 2026-09-04 05:42:19 | 51.79992 | 15.34795 | 131° | 55km/h | 17647m | -3.9m/s | -55.0°C | 1.8% | 84.1hPa | 2.6V | 00:00:00 | 00:00:00 | 00:00:00 | |
| 13BRC | 2026-09-04 05:42:18 | 51.79992 | 15.34795 | 132° | 55km/h | 17647m | -3.9m/s | -55.0°C | 1.8% | 84.1hPa | 2.6V | 00:00:00 | 00:00:00 | 00:00:00 | |
| KRY50SP-1 | 2026-09-04 05:42:17 | 51.80001 | 15.34778 | 134° | 53km/h | 17650m | -3.8m/s | -55.0°C | 1.7% | 84.0hPa | 2.6V | 00:00:00 | 00:00:00 | 00:00:00 | |
| DL1XH1-15 | 2026-09-04 05:42:16 | 51.80051 | 15.34692 | 134° | 37km/h | 17675m | -3.7m/s | -55°C | 5.2% | 83.7hPa | 2.6V | 08:30:00 | 01:32:18 | 00:00:00 | |
| DM0DOS-11 | 2026-09-04 05:42:16 | 51.80057 | 15.34682 | 136° | 37km/h | 17678m | -3.7m/s | -55.1°C | 5.1% | 83.6hPa | 2.7V | 08:30:00 | 01:32:17 | 00:00:00 | |
| AA1-15 | 2026-09-04 05:42:16 | 51.80025 | 15.34737 | 133° | 42km/h | 17661m | -3.6m/s | -55°C | 1.6% | 83.8hPa | 2.7V | 18:12:15 | 01:32:22 | 00:00:00 | |
| DL1XH-west | 2026-09-04 05:42:11 | 51.80051 | 15.34692 | 135° | 37km/h | 17675m | -3.7m/s | -55°C | 1.8% | 83.7hPa | 2.6V | 18:12:15 | 01:32:18 | 00:00:00 | |
| OE3OSB-13 | 2026-09-04 05:42:07 | 51.80087 | 15.34639 | 139° | 42km/h | 17693m | -3.7m/s | -54.8°C | 1.9% | 83.5hPa | 2.6V | 00:00:00 | 00:00:00 | 00:00:00 | |
| DL1XH1-15 | 2026-09-04 05:42:06 | 51.80131 | 15.34580 | 141° | 47km/h | 17711m | -3.7m/s | -54.6°C | 4.8% | 83.2hPa | 2.6V | 08:30:00 | 01:32:08 | 00:00:00 | |
| AA1-15 | 2026-09-04 05:42:05 | 51.80095 | 15.34628 | 140° | 44km/h | 17697m | -3.6m/s | -54.9°C | 1.6% | 83.4hPa | 2.7V | 18:12:15 | 01:32:12 | 00:00:00 | |
| DF8AY | 2026-09-04 05:42:04 | 51.80104 | 15.34616 | 140° | 46km/h | 17700m | -3.7m/s | -54.8°C | 1.6% | 83.3hPa | 2.7V | 18:12:15 | 01:32:11 | 00:00:00 | |
| DL1XH-west | 2026-09-04 05:42:00 | 51.80140 | 15.34569 | 143° | 47km/h | 17715m | -3.8m/s | -54.5°C | 1.4% | 83.1hPa | 2.6V | 18:12:15 | 01:32:07 | 00:00:00 | |
| SONDE2-11 | 2026-09-04 05:41:57 | 51.80169 | 15.34537 | 149° | 44km/h | 17726m | -3.7m/s | -54.4°C | 1.6% | 83.0hPa | 2.6V | 00:00:00 | 00:00:00 | 00:00:00 | |
| DL1XH1-15 | 2026-09-04 05:41:56 | 51.80223 | 15.34495 | 153° | 31km/h | 17750m | -4.1m/s | -54.4°C | 0% | 82.7hPa | 2.6V | 08:30:00 | 01:31:58 | 00:00:00 | |
| AA1-15 | 2026-09-04 05:41:54 | 51.80198 | 15.34513 | 155° | 40km/h | 17738m | -3.9m/s | -54.5°C | 1.2% | 82.9hPa | 2.7V | 18:12:15 | 01:32:01 | 00:00:00 | |
| DF8AY | 2026-09-04 05:41:53 | 51.80207 | 15.34507 | 157° | 37km/h | 17742m | -4m/s | -54.5°C | 1.2% | 82.8hPa | 2.7V | 18:12:15 | 01:32:00 | 00:00:00 | |
| DL1XH-west | 2026-09-04 05:41:50 | 51.80230 | 15.34489 | 148° | 29km/h | 17754m | -3.8m/s | -54.3°C | 1.3% | 82.7hPa | 2.6V | 18:12:15 | 01:31:57 | 00:00:00 | |
| SONCRA | 2026-09-04 05:41:48 | 51.80241 | 15.34474 | 136° | 27km/h | 17762m | -3.7m/s | -54.2°C | 1.5% | 82.6hPa | 2.7V | 00:00:00 | 00:00:00 | 00:00:00 | |
| DL1XH1-15 | 2026-09-04 05:41:46 | 51.80277 | 15.34394 | 122° | 38km/h | 17788m | -3.7m/s | -54.6°C | 0% | 82.2hPa | 2.7V | 08:30:00 | 01:31:48 | 00:00:00 | |
| AA1-15 | 2026-09-04 05:41:44 | 51.80262 | 15.34433 | 125° | 37km/h | 17776m | -3.8m/s | -54.7°C | 1.1% | 82.3hPa | 2.6V | 18:12:15 | 01:31:51 | 00:00:00 | |
| DF8AY | 2026-09-04 05:41:43 | 51.80267 | 15.34420 | 124° | 37km/h | 17780m | -3.8m/s | -54.7°C | 1.2% | 82.3hPa | 2.6V | 18:12:15 | 01:31:50 | 00:00:00 | |
| DL1XH-west | 2026-09-04 05:41:39 | 51.80288 | 15.34368 | 123° | 38km/h | 17795m | -3.9m/s | -54.6°C | 1.4% | 82.2hPa | 2.6V | 18:12:15 | 01:31:46 | 00:00:00 | |
| KRY50SP-1 | 2026-09-04 05:41:38 | 51.80288 | 15.34368 | 123° | 38km/h | 17795m | -3.9m/s | -54.6°C | 1.7% | 82.2hPa | 2.6V | 00:00:00 | 00:00:00 | 00:00:00 | |
| DL1XH1-15 | 2026-09-04 05:41:36 | 51.80321 | 15.34293 | 135° | 18km/h | 17825m | -3.8m/s | -54.3°C | 0% | 0hPa | 2.6V | 08:30:00 | 01:31:38 | 00:00:00 | |
| AA1-15 | 2026-09-04 05:41:33 | 51.80314 | 15.34305 | 128° | 24km/h | 17817m | -3.9m/s | -54.1°C | 1.3% | 81.8hPa | 2.6V | 18:12:15 | 01:31:40 | 00:00:00 | |
| BIOWL1-15 | 2026-09-04 05:41:33 | 51.80321 | 15.34293 | 135° | 18km/h | 17825m | -3.8m/s | 0°C | 0% | 0hPa | 2.6V | 18:12:15 | 01:31:38 | 00:00:00 | |
| DL1XH-west | 2026-09-04 05:41:29 | 51.80328 | 15.34284 | 148° | 16km/h | 17833m | -4.1m/s | -54.2°C | 1.3% | 81.6hPa | 2.7V | 18:12:15 | 01:31:36 | 00:00:00 | |
| POL2MAQ | 2026-09-04 05:41:28 | 51.80327 | 15.34284 | 149° | 16km/h | 17833m | -4.1m/s | -54.2°C | 1.6% | 81.6hPa | 2.6V | 00:00:00 | 00:00:00 | 00:00:00 | |
| DAC517 | 2026-09-04 05:41:27 | 51.80331 | 15.34280 | 155° | 18km/h | 17838m | -4.2m/s | -54.2°C | 1.6% | 81.6hPa | 2.6V | 00:00:00 | 00:00:00 | 00:00:00 | |
| DL1XH1-15 | 2026-09-04 05:41:26 | 51.80384 | 15.34248 | 159° | 42km/h | 17864m | -3.8m/s | -54.4°C | 0% | 0hPa | 2.6V | 08:30:00 | 01:31:28 | 00:00:00 | |
| DM0DOS-11 | 2026-09-04 05:41:25 | 51.80394 | 15.34242 | 158° | 44km/h | 17868m | -3.7m/s | -54.5°C | 4.5% | 81.2hPa | 2.6V | 08:30:00 | 01:31:27 | 00:00:00 | |
| AA1-15 | 2026-09-04 05:41:22 | 51.80374 | 15.34254 | 159° | 40km/h | 17860m | -3.6m/s | -54.5°C | 1.1% | 81.3hPa | 2.6V | 18:12:15 | 01:31:29 | 00:00:00 | |
| DL1XH-west | 2026-09-04 05:41:19 | 51.80404 | 15.34235 | 158° | 44km/h | 17872m | -3.9m/s | -54.4°C | 1.1% | 81.2hPa | 2.7V | 18:12:15 | 01:31:26 | 00:00:00 | |
| DL1XH1-15 | 2026-09-04 05:41:16 | 51.80468 | 15.34177 | 138° | 29km/h | 17903m | -3.4m/s | -54.8°C | 0% | 0hPa | 2.6V | 08:30:00 | 01:31:18 | 00:00:00 | |
| DM0DOS-11 | 2026-09-04 05:41:14 | 51.80480 | 15.34161 | 136° | 27km/h | 17919m | -2.1m/s | -55°C | 4.7% | 80.6hPa | 2.6V | 08:30:00 | 01:31:16 | 00:00:00 | |
| DF8AY | 2026-09-04 05:41:12 | 51.80462 | 15.34185 | 139° | 29km/h | 17898m | -2.9m/s | -54.9°C | 1.1% | 80.8hPa | 2.7V | 18:12:15 | 01:31:19 | 00:00:00 | |
| AA1-15 | 2026-09-04 05:41:11 | 51.80468 | 15.34177 | 139° | 29km/h | 17903m | -3.4m/s | -54.8°C | 1% | 80.8hPa | 2.6V | 18:12:15 | 01:31:18 | 00:00:00 | |
| DB0DAN | 2026-09-04 05:41:10 | 51.80474 | 15.34169 | 141° | 29km/h | 17911m | -11.7m/s | -54.9°C | 1.5% | 80.76hPa | 2.6V | 00:00:00 | 00:00:00 | 00:00:00 | |
| DL1XH-west | 2026-09-04 05:41:09 | 51.80480 | 15.34161 | 137° | 27km/h | 17919m | -2.1m/s | -55°C | 1.2% | 80.6hPa | 2.6V | 18:12:15 | 01:31:16 | 00:00:00 | |
| POL2MAQ | 2026-09-04 05:41:08 | 51.80480 | 15.34161 | 138° | 27km/h | 17919m | -2.1m/s | -55.0°C | 1.5% | 80.6hPa | 2.7V | 00:00:00 | 00:00:00 | 00:00:00 | |
| OE3JTB-15 | 2026-09-04 05:41:07 | 51.80489 | 15.34147 | 141° | 38km/h | 17909m | 6.5m/s | -54.9°C | 4.7% | 80.6hPa | 2.7V | 00:00:00 | 00:00:00 | 00:00:00 | |
| DL1XH1-15 | 2026-09-04 05:41:06 | 51.80521 | 15.34101 | 140° | 31km/h | 17877m | 4.1m/s | -54.8°C | 0% | 0hPa | 2.7V | 08:30:00 | 01:31:08 | 00:00:00 | |
| DF8AY | 2026-09-04 05:41:01 | 51.80520 | 15.34101 | 141° | 31km/h | 17877m | 4.1m/s | -54.8°C | 1.1% | 81.1hPa | 2.7V | 18:12:15 | 01:31:08 | 00:00:00 | |
| DM0DOS-11 | 2026-09-04 05:41:00 | 51.80539 | 15.34077 | 147° | 33km/h | 17860m | 6.7m/s | -54.8°C | 4.5% | 81.3hPa | 2.6V | 08:30:00 | 01:31:05 | 00:00:00 | |
| AA1-15 | 2026-09-04 05:41:00 | 51.80526 | 15.34093 | 141° | 31km/h | 17871m | 5.9m/s | -54.8°C | 1.1% | 81.1hPa | 2.6V | 18:12:15 | 01:31:07 | 00:00:00 | |
| DL1XH-west | 2026-09-04 05:40:58 | 51.80539 | 15.34077 | 147° | 33km/h | 17860m | 6.7m/s | -54.8°C | 1.1% | 81.3hPa | 2.6V | 18:12:15 | 01:31:05 | 00:00:00 | |
| DB0DAN | 2026-09-04 05:40:55 | 51.80562 | 15.34057 | 151° | 33km/h | 17843m | 4.4m/s | -54.8°C | 1.5% | 81.51hPa | 2.7V | 00:00:00 | 00:00:00 | 00:00:00 | |
| SONDE2-11 | 2026-09-04 05:40:55 | 51.80562 | 15.34057 | 151° | 33km/h | 17843m | 4.4m/s | -54.8°C | 1.5% | 81.5hPa | 2.6V | 00:00:00 | 00:00:00 | 00:00:00 | |
| DO3MHA-11 | 2026-09-04 05:40:54 | 51.80569 | 15.34050 | 151° | 35km/h | 17838m | 6.5m/s | -54.7°C | 4.5% | 81.5hPa | 2.6V | 00:00:00 | 01:31:01 | 00:00:00 | |
| DM0DOS-11 | 2026-09-04 05:40:53 | 51.80609 | 15.33993 | 134° | 37km/h | 17806m | 4.3m/s | -54.8°C | 4.7% | 82hPa | 2.6V | 08:30:00 | 01:30:55 | 00:00:00 | |
| DF8AY | 2026-09-04 05:40:51 | 51.80590 | 15.34024 | 135° | 33km/h | 17821m | 4.9m/s | -54.7°C | 1.1% | 81.8hPa | 2.6V | 18:12:15 | 01:30:58 | 00:00:00 | |
| AA1-15 | 2026-09-04 05:40:50 | 51.80596 | 15.34014 | 133° | 35km/h | 17816m | 5.4m/s | -54.7°C | 1.2% | 81.8hPa | 2.7V | 18:12:15 | 01:30:57 | 00:00:00 | |
| DL1XH-west | 2026-09-04 05:40:47 | 51.80615 | 15.33983 | 136° | 35km/h | 17800m | 6.6m/s | 0°C | 0% | 82hPa | 2.6V | 18:12:15 | 01:30:54 | 00:00:00 | |
| BIOWL1-15 | 2026-09-04 05:40:46 | 51.80636 | 15.33956 | 146° | 38km/h | 17784m | 5.5m/s | 0°C | 0% | 0hPa | 2.6V | 18:12:15 | 01:30:51 | 00:00:00 | |
| DO3MHA-11 | 2026-09-04 05:40:44 | 51.80636 | 15.33956 | 147° | 40km/h | 17784m | 5.5m/s | -54.6°C | 4.6% | 82.2hPa | 2.6V | 00:00:00 | 01:30:51 | 00:00:00 | |
| DM0DOS-11 | 2026-09-04 05:40:42 | 51.80695 | 15.33889 | 143° | 40km/h | 17749m | 5.4m/s | -54.9°C | 4.5% | 82.7hPa | 2.6V | 08:30:00 | 01:30:44 | 00:00:00 | |
| DF8AY | 2026-09-04 05:40:40 | 51.80669 | 15.33919 | 144° | 42km/h | 17764m | 5.8m/s | -54.8°C | 1.1% | 82.5hPa | 2.7V | 18:12:15 | 01:30:47 | 00:00:00 | |
| AA1-15 | 2026-09-04 05:40:39 | 51.80677 | 15.33909 | 145° | 44km/h | 17759m | 3.8m/s | -54.9°C | 1.1% | 82.6hPa | 2.7V | 18:12:15 | 01:30:46 | 00:00:00 | |
| DL1XH-west | 2026-09-04 05:40:36 | 51.80702 | 15.33879 | 142° | 40km/h | 17744m | 5m/s | 0°C | 0% | 0hPa | 2.6V | 18:12:15 | 01:30:43 | 00:00:00 | |
| DO3MHA-11 | 2026-09-04 05:40:34 | 51.80718 | 15.33858 | 137° | 44km/h | 17734m | 4.1m/s | -54.8°C | 4.5% | 82.8hPa | 2.7V | 00:00:00 | 01:30:41 | 00:00:00 | |
| SP6BVK | 2026-09-04 05:40:32 | 51.80725 | 15.33847 | 135° | 38km/h | 17729m | 6.3m/s | -54.8°C | 1.5% | 83.0hPa | 2.7V | 00:00:00 | 00:00:00 | 00:00:00 | |
| EDDB2-12 | 2026-09-04 05:40:31 | 51.80744 | 15.33810 | 128° | 42km/h | 17712m | 4.2m/s | -55.0°C | 1.6% | 83.2hPa | 2.7V | 00:00:00 | 00:00:00 | 00:00:00 | |
| DM0DOS-11 | 2026-09-04 05:40:30 | 51.80764 | 15.33766 | 124° | 47km/h | 17697m | 6.2m/s | -55.5°C | 5% | 83.4hPa | 2.7V | 08:30:00 | 01:30:34 | 00:00:00 | |
| DF8AY | 2026-09-04 05:40:29 | 51.80751 | 15.33796 | 126° | 42km/h | 17707m | 6.1m/s | -55.1°C | 1.3% | 83.2hPa | 2.6V | 18:12:15 | 01:30:36 | 00:00:00 | |
| AA1-15 | 2026-09-04 05:40:28 | 51.80757 | 15.33782 | 124° | 44km/h | 17702m | 4m/s | -55.4°C | 1.4% | 83.3hPa | 2.7V | 18:12:15 | 01:30:35 | 00:00:00 | |
| DL1XH-west | 2026-09-04 05:40:26 | 51.80771 | 15.33750 | 126° | 49km/h | 17692m | 4.8m/s | 0°C | 0% | 0hPa | 2.6V | 18:12:15 | 01:30:33 | 00:00:00 | |
| DO3MHA-11 | 2026-09-04 05:40:24 | 51.80785 | 15.33717 | 128° | 49km/h | 17681m | 4.9m/s | -55.5°C | 4.9% | 83.6hPa | 2.7V | 00:00:00 | 01:30:31 | 00:00:00 | |
| DM0DOS-11 | 2026-09-04 05:40:22 | 51.80841 | 15.33607 | 125° | 47km/h | 17645m | 3.4m/s | -55.6°C | 5.1% | 84.1hPa | 2.7V | 08:30:00 | 01:30:24 | 00:00:00 | |
| DF8AY | 2026-09-04 05:40:18 | 51.80834 | 15.33622 | 128° | 49km/h | 17649m | 6m/s | -55.7°C | 1.5% | 84hPa | 2.6V | 18:12:15 | 01:30:25 | 00:00:00 | |
| DL1XH-west | 2026-09-04 05:40:16 | 51.80848 | 15.33591 | 124° | 46km/h | 17640m | 6.2m/s | 0°C | 0% | 0hPa | 2.7V | 18:12:15 | 01:30:23 | 00:00:00 | |
| AA1-15 | 2026-09-04 05:40:08 | 51.80887 | 15.33465 | 114° | 42km/h | 17599m | 5.8m/s | -55.3°C | 1.5% | 84.7hPa | 2.6V | 18:12:15 | 01:30:15 | 00:00:00 | |
| DM0DOS-11 | 2026-09-04 05:40:07 | 51.80891 | 15.33449 | 115° | 42km/h | 17594m | 4.5m/s | -55.2°C | 5% | 84.7hPa | 2.6V | 08:30:00 | 01:30:14 | 00:00:00 | |
| SP3WXH-11 | 2026-09-04 05:40:07 | 51.80891 | 15.33449 | 115° | 40km/h | 17594m | 4.5m/s | -55.3°C | 1.8% | 84.7hPa | 2.6V | 00:00:00 | 00:00:00 | 00:00:00 | |
| KRY50SP-1 | 2026-09-04 05:40:06 | 51.80896 | 15.33434 | 116° | 38km/h | 17589m | 6.1m/s | -55.2°C | 1.8% | 84.8hPa | 2.6V | 00:00:00 | 00:00:00 | 00:00:00 | |
| POL2MAQ | 2026-09-04 05:40:05 | 51.80896 | 15.33434 | 116° | 38km/h | 17589m | 6.1m/s | -55.2°C | 1.8% | 84.8hPa | 2.6V | 00:00:00 | 00:00:00 | 00:00:00 | |
| DL1XH-west | 2026-09-04 05:40:05 | 51.80900 | 15.33420 | 113° | 37km/h | 17583m | 4.4m/s | 0°C | 0% | 0hPa | 2.7V | 18:12:15 | 01:30:12 | 00:00:00 | |
| DO3MHA-11 | 2026-09-04 05:40:04 | 51.80903 | 15.33406 | 113° | 38km/h | 17579m | 5.5m/s | -55.1°C | 5.0% | 84.9hPa | 2.6V | 00:00:00 | 01:30:11 | 08:30:00 | |
| EDDB2-12 | 2026-09-04 05:40:00 | 51.80919 | 15.33332 | 104° | 37km/h | 17553m | 5.2m/s | -54.9°C | 1.7% | 85.3hPa | 2.7V | 00:00:00 | 00:00:00 | 00:00:00 | |
| DM0DOS-11 | 2026-09-04 05:39:57 | 51.80931 | 15.33273 | 108° | 38km/h | 17533m | 4.9m/s | -54.9°C | 4.8% | 85.6hPa | 2.7V | 08:30:00 | 01:30:02 | 00:00:00 | |
| AA1-15 | 2026-09-04 05:39:57 | 51.80925 | 15.33302 | 109° | 40km/h | 17543m | 4.4m/s | -54.9°C | 1.4% | 85.4hPa | 2.6V | 18:12:15 | 01:30:04 | 00:00:00 | |
| SONDE2-11 | 2026-09-04 05:39:53 | 51.80937 | 15.33242 | 107° | 38km/h | 17522m | 4.1m/s | -55.0°C | 1.7% | 85.7hPa | 2.7V | 00:00:00 | 00:00:00 | 00:00:00 | |
| S3001 | 2026-09-04 05:39:51 | 51.80943 | 15.33212 | 105° | 37km/h | 17511m | 5.3m/s | -54.9°C | 1.8% | 85.8hPa | 2.7V | 00:00:00 | 00:00:00 | 00:00:00 | |
| 3Z3Z-3 | 2026-09-04 05:39:49 | 51.80945 | 15.33197 | 107° | 38km/h | 17507m | 4.7m/s | 0°C | 0% | 0hPa | 2.7V | 00:00:00 | 00:00:00 | 00:00:00 | |
| KRY50SP-1 | 2026-09-04 05:39:48 | 51.80948 | 15.33182 | 110° | 40km/h | 17502m | 5.1m/s | -54.9°C | 1.8% | 86.0hPa | 2.7V | 00:00:00 | 00:00:00 | 00:00:00 | |
| DM0DOS-11 | 2026-09-04 05:39:47 | 51.80973 | 15.33099 | 121° | 37km/h | 17470m | 4.8m/s | -54.8°C | 4.9% | 86.4hPa | 2.7V | 08:30:00 | 01:29:50 | 00:00:00 | |
| DF8AY | 2026-09-04 05:39:47 | 51.80955 | 15.33153 | 112° | 38km/h | 17491m | 6.5m/s | -54.8°C | 1.5% | 86.1hPa | 2.6V | 18:12:15 | 01:29:54 | 00:00:00 | |
| AA1-15 | 2026-09-04 05:39:46 | 51.80959 | 15.33139 | 116° | 37km/h | 17486m | 4.6m/s | -54.9°C | 1.5% | 86.2hPa | 2.6V | 18:12:15 | 01:29:53 | 00:00:00 | |
| SQ6EMJ | 2026-09-04 05:39:45 | 51.80963 | 15.33126 | 120° | 37km/h | 17481m | 6.2m/s | -54.8°C | 1.7% | 86.3hPa | 2.6V | 00:00:00 | 00:00:00 | 00:00:00 | |
| DO3MHA-11 | 2026-09-04 05:39:44 | 51.80968 | 15.33112 | 120° | 35km/h | 17475m | 5.0m/s | -54.8°C | 4.9% | 86.3hPa | 2.6V | 00:00:00 | 01:29:51 | 00:00:00 | |
| KRY50SP-1 | 2026-09-04 05:39:43 | 51.80968 | 15.33112 | 121° | 38km/h | 17475m | 5.1m/s | -54.8°C | 1.7% | 86.3hPa | 2.6V | 00:00:00 | 00:00:00 | 00:00:00 | |
| DB0NH | 2026-09-04 05:39:40 | 51.80986 | 15.33060 | 115° | 35km/h | 17454m | 4.7m/s | -54.7°C | 5.0% | 86.6hPa | 2.6V | 00:00:00 | 01:29:47 | 00:00:00 | |
| EDDB2-11 | 2026-09-04 05:39:39 | 51.80989 | 15.33047 | 112° | 33km/h | 17449m | 4.5m/s | -54.6°C | 1.7% | 86.7hPa | 2.7V | 00:00:00 | 00:00:00 | 00:00:00 | |
| DM0DOS-11 | 2026-09-04 05:39:37 | 51.81003 | 15.32969 | 104° | 35km/h | 17417m | 4.2m/s | -54.5°C | 4.9% | 87.1hPa | 2.7V | 08:30:00 | 01:29:40 | 00:00:00 | |
| AA1-15 | 2026-09-04 05:39:36 | 51.80997 | 15.33010 | 106° | 33km/h | 17433m | 6m/s | -54.5°C | 1.5% | 86.9hPa | 2.6V | 18:12:15 | 01:29:43 | 00:00:00 | |
| DO3MHA-11 | 2026-09-04 05:39:34 | 51.81001 | 15.32983 | 103° | 37km/h | 17422m | 6.4m/s | -54.5°C | 4.9% | 86.9hPa | 2.6V | 00:00:00 | 01:29:41 | 00:00:00 | |
| 13BRC | 2026-09-04 05:39:33 | 51.81001 | 15.32983 | 104° | 33km/h | 17422m | 6.5m/s | -54.5°C | 1.7% | 87.0hPa | 2.6V | 00:00:00 | 00:00:00 | 00:00:00 | |
| KRY50SP-1 | 2026-09-04 05:39:32 | 51.81005 | 15.32956 | 107° | 37km/h | 17412m | 6.6m/s | -54.5°C | 1.7% | 87.2hPa | 2.6V | 00:00:00 | 00:00:00 | 00:00:00 | |
| SP6BVK | 2026-09-04 05:39:31 | 51.81005 | 15.32956 | 107° | 37km/h | 17412m | 6.6m/s | -54.5°C | 1.7% | 87.2hPa | 2.6V | 00:00:00 | 00:00:00 | 00:00:00 | |
| EDDB2-12 | 2026-09-04 05:39:28 | 51.81015 | 15.32898 | 103° | 37km/h | 17390m | 5.6m/s | -54.5°C | 1.8% | 87.5hPa | 2.6V | 00:00:00 | 00:00:00 | 00:00:00 | |
| DM0DOS-11 | 2026-09-04 05:39:27 | 51.81023 | 15.32826 | 94° | 37km/h | 17363m | 5.7m/s | -54.3°C | 4.9% | 87.8hPa | 2.6V | 08:30:00 | 01:29:30 | 00:00:00 | |
| AA1-15 | 2026-09-04 05:39:25 | 51.81020 | 15.32855 | 99° | 35km/h | 17374m | 4.9m/s | -54.3°C | 1.5% | 87.7hPa | 2.6V | 18:12:15 | 01:29:32 | 00:00:00 | |
| DL1XH-west | 2026-09-04 05:39:19 | 51.81024 | 15.32769 | 90° | 35km/h | 17342m | 5.7m/s | 0°C | 0% | 0hPa | 2.7V | 18:12:15 | 01:29:26 | 00:00:00 | |
| DM0DOS-11 | 2026-09-04 05:39:17 | 51.81022 | 15.32687 | 89° | 33km/h | 17312m | 4.2m/s | -54°C | 4.8% | 88.5hPa | 2.6V | 08:30:00 | 01:29:20 | 00:00:00 | |
| AA1-15 | 2026-09-04 05:39:14 | 51.81022 | 15.32700 | 89° | 35km/h | 17317m | 5m/s | -54°C | 1.5% | 88.5hPa | 2.7V | 18:12:15 | 01:29:21 | 00:00:00 | |
| DO3MHA-11 | 2026-09-04 05:39:13 | 51.81022 | 15.32686 | 90° | 33km/h | 17312m | 4.1m/s | -53.9°C | 4.8% | 88.5hPa | 2.7V | 00:00:00 | 01:29:20 | 00:00:00 | |
| SQ6EMJ | 2026-09-04 05:39:11 | 51.81021 | 15.32660 | 89° | 33km/h | 17302m | 4.3m/s | -54.0°C | 1.7% | 88.7hPa | 2.7V | 00:00:00 | 00:00:00 | 00:00:00 | |
| SP3BTT-10 | 2026-09-04 05:39:10 | 51.81021 | 15.32646 | 91° | 29km/h | 17296m | 6.1m/s | -53.9°C | 4.8% | 88.7hPa | 2.7V | 00:00:00 | 00:00:00 | 00:00:00 | |
| EDDB2-11 | 2026-09-04 05:39:08 | 51.81022 | 15.32618 | 91° | 33km/h | 17286m | 5.2m/s | -54.0°C | 1.8% | 88.9hPa | 2.7V | 00:00:00 | 00:00:00 | 00:00:00 | |
| DM0DOS-11 | 2026-09-04 05:39:07 | 51.81022 | 15.32552 | 85° | 31km/h | 17260m | 5.9m/s | -53.9°C | 4.9% | 89.3hPa | 2.7V | 08:30:00 | 01:29:10 | 00:00:00 | |
| DF8AY | 2026-09-04 05:39:04 | 51.81023 | 15.32565 | 89° | 31km/h | 17265m | 4.1m/s | -53.9°C | 1.7% | 89.2hPa | 2.7V | 18:12:15 | 01:29:11 | 00:00:00 | |
| AA1-15 | 2026-09-04 05:39:03 | 51.81022 | 15.32552 | 85° | 31km/h | 17260m | 5.9m/s | -53.9°C | 1.7% | 89.3hPa | 2.7V | 18:12:15 | 01:29:10 | 00:00:00 | |
| DO3MHA-11 | 2026-09-04 05:39:03 | 51.81022 | 15.32552 | 86° | 31km/h | 17260m | 5.9m/s | -53.8°C | 4.9% | 89.2hPa | 2.7V | 00:00:00 | 01:29:10 | 00:00:00 | |
| KRY50SP-1 | 2026-09-04 05:39:02 | 51.81022 | 15.32552 | 86° | 31km/h | 17260m | 5.9m/s | -53.9°C | 1.8% | 89.3hPa | 2.6V | 00:00:00 | 00:00:00 | 00:00:00 | |
| OE3OSB-13 | 2026-09-04 05:39:01 | 51.81020 | 15.32514 | 84° | 31km/h | 17246m | 4.0m/s | -53.8°C | 1.9% | 89.5hPa | 2.6V | 00:00:00 | 00:00:00 | 00:00:00 | |
| EDDB2-12 | 2026-09-04 05:38:58 | 51.81017 | 15.32475 | 86° | 33km/h | 17230m | 7.0m/s | -53.8°C | 2.0% | 89.7hPa | 2.6V | 00:00:00 | 00:00:00 | 00:00:00 | |
| DM0DOS-11 | 2026-09-04 05:38:58 | 51.81016 | 15.32423 | 91° | 29km/h | 17208m | 5.6m/s | -53.6°C | 4.9% | 90hPa | 2.7V | 08:30:00 | 01:29:00 | 00:00:00 | |
| DB0DAN | 2026-09-04 05:38:55 | 51.81017 | 15.32448 | 87° | 31km/h | 17219m | 6.6m/s | -53.7°C | 2% | 89.84hPa | 2.6V | 00:00:00 | 00:00:00 | 00:00:00 | |
| DF8AY | 2026-09-04 05:38:53 | 51.81016 | 15.32423 | 91° | 29km/h | 17208m | 5.6m/s | -53.6°C | 1.9% | 90hPa | 2.7V | 18:12:15 | 01:29:00 | 00:00:00 | |
| AA1-15 | 2026-09-04 05:38:52 | 51.81016 | 15.32410 | 95° | 31km/h | 17203m | 5m/s | -53.6°C | 1.9% | 90.1hPa | 2.7V | 18:12:15 | 01:28:59 | 00:00:00 | |
| SONDE2-11 | 2026-09-04 05:38:51 | 51.81017 | 15.32398 | 93° | 27km/h | 17197m | 5.9m/s | -53.7°C | 1.9% | 90.2hPa | 2.6V | 00:00:00 | 00:00:00 | 00:00:00 | |
| S3001 | 2026-09-04 05:38:49 | 51.81018 | 15.32375 | 94° | 27km/h | 17186m | 5.6m/s | -53.9°C | 1.9% | 90.3hPa | 2.6V | 00:00:00 | 00:00:00 | 00:00:00 | |
| BIOWL9-15 | 2026-09-04 05:38:48 | 51.81020 | 15.32351 | 95° | 29km/h | 17176m | 6.1m/s | -54.0°C | 1.9% | 90.4hPa | 2.6V | 00:00:00 | 00:00:00 | 00:00:00 | |
| DM0DOS-11 | 2026-09-04 05:38:46 | 51.81024 | 15.32289 | 103° | 31km/h | 17151m | 6.1m/s | -54.3°C | 4.9% | 90.8hPa | 2.6V | 08:30:00 | 01:28:49 | 00:00:00 | |
| DF8AY | 2026-09-04 05:38:43 | 51.81022 | 15.32302 | 101° | 33km/h | 17156m | 3.9m/s | -54.2°C | 1.6% | 90.7hPa | 2.6V | 18:12:15 | 01:28:50 | 00:00:00 | |
| SQ6EMJ | 2026-09-04 05:38:42 | 51.81022 | 15.32302 | 102° | 33km/h | 17156m | 3.9m/s | -54.2°C | 1.8% | 90.7hPa | 2.7V | 00:00:00 | 00:00:00 | 00:00:00 | |
| DB0DAN | 2026-09-04 05:38:40 | 51.81028 | 15.32265 | 107° | 29km/h | 17140m | 6.6m/s | -54.4°C | 1.9% | 90.95hPa | 2.7V | 00:00:00 | 00:00:00 | 00:00:00 | |
| BIOWL1-15 | 2026-09-04 05:38:40 | 51.81028 | 15.32265 | 107° | 31km/h | 17140m | 6.6m/s | -54.4°C | 1.7% | 91hPa | 2.7V | 18:12:15 | 01:28:47 | 00:00:00 | |
| 3Z3Z-3 | 2026-09-04 05:38:37 | 51.81037 | 15.32232 | 117° | 26km/h | 17124m | 5.9m/s | 0°C | 0% | 0hPa | 2.6V | 00:00:00 | 00:00:00 | 00:00:00 | |
| DM0DOS-11 | 2026-09-04 05:38:36 | 51.81052 | 15.32183 | 116° | 24km/h | 17098m | 4.1m/s | -54.2°C | 5.1% | 91.5hPa | 2.6V | 08:30:00 | 01:28:39 | 00:00:00 | |
| DF8AY | 2026-09-04 05:38:32 | 51.81052 | 15.32183 | 117° | 26km/h | 17098m | 4.1m/s | -54.2°C | 1.9% | 91.5hPa | 2.6V | 18:12:15 | 01:28:39 | 00:00:00 | |
| SQ6EMJ | 2026-09-04 05:38:30 | 51.81055 | 15.32173 | 120° | 26km/h | 17093m | 6.4m/s | -54.2°C | 1.9% | 91.6hPa | 2.6V | 00:00:00 | 00:00:00 | 00:00:00 | |
| SP6BVK | 2026-09-04 05:38:29 | 51.81058 | 15.32164 | 124° | 27km/h | 17088m | 4.7m/s | -54.1°C | 2.0% | 91.7hPa | 2.6V | 00:00:00 | 00:00:00 | 00:00:00 | |
| BIOWL1-15 | 2026-09-04 05:38:29 | 51.81062 | 15.32155 | 126° | 27km/h | 17083m | 3.7m/s | -54.1°C | 1.7% | 91.8hPa | 2.7V | 18:12:15 | 01:28:36 | 00:00:00 | |
| KRY50SP-1 | 2026-09-04 05:38:28 | 51.81062 | 15.32155 | 127° | 27km/h | 17083m | 3.7m/s | -54.1°C | 1.9% | 91.8hPa | 2.6V | 00:00:00 | 00:00:00 | 00:00:00 | |
| DM0DOS-11 | 2026-09-04 05:38:26 | 51.81092 | 15.32091 | 122° | 29km/h | 17046m | 7.2m/s | -54°C | 4.9% | 92.3hPa | 2.6V | 08:30:00 | 01:28:29 | 00:00:00 | |
| DF8AY | 2026-09-04 05:38:22 | 51.81092 | 15.32091 | 123° | 29km/h | 17046m | 7.2m/s | -54°C | 1.6% | 92.3hPa | 2.6V | 18:12:15 | 01:28:29 | 00:00:00 | |
| BIOWL1-15 | 2026-09-04 05:38:18 | 51.81109 | 15.32051 | 130° | 29km/h | 17025m | 4.5m/s | -53.8°C | 1.6% | 92.6hPa | 2.7V | 18:12:15 | 01:28:25 | 00:00:00 | |
| DF8AY | 2026-09-04 05:38:11 | 51.81150 | 15.31991 | 138° | 31km/h | 16987m | 6.1m/s | -53.6°C | 1.7% | 93.1hPa | 2.6V | 18:12:15 | 01:28:18 | 00:00:00 | |
| BIOWL1-15 | 2026-09-04 05:38:07 | 51.81215 | 15.31879 | 140° | 37km/h | 16926m | 5.9m/s | -53.1°C | 1.6% | 94hPa | 2.7V | 18:12:15 | 01:28:07 | 00:00:00 | |
| DF8AY | 2026-09-04 05:38:01 | 51.81209 | 15.31889 | 137° | 35km/h | 16933m | 5.8m/s | -53.1°C | 1.6% | 93.9hPa | 2.7V | 18:12:15 | 01:28:08 | 00:00:00 | |
| BIOWL1-15 | 2026-09-04 05:37:58 | 51.81247 | 15.31845 | 147° | 37km/h | 16906m | 4.5m/s | -52.9°C | 1.5% | 94.3hPa | 2.6V | 18:12:15 | 01:28:03 | 00:00:00 | |
| DF8AY | 2026-09-04 05:37:50 | 51.81291 | 15.31783 | 133° | 42km/h | 16871m | 4.3m/s | -52.7°C | 1.6% | 94.9hPa | 2.7V | 18:12:15 | 01:27:57 | 00:00:00 | |
| SONDE2-11 | 2026-09-04 05:37:49 | 51.81306 | 15.31759 | 139° | 40km/h | 16860m | 5.9m/s | -52.7°C | 1.8% | 95.0hPa | 2.7V | 00:00:00 | 00:00:00 | 00:00:00 | |
| S3001 | 2026-09-04 05:37:47 | 51.81314 | 15.31748 | 138° | 38km/h | 16855m | 4.8m/s | -52.7°C | 1.8% | 95.1hPa | 2.7V | 00:00:00 | 00:00:00 | 00:00:00 | |
| BIOWL9-15 | 2026-09-04 05:37:46 | 51.81328 | 15.31727 | 136° | 38km/h | 16844m | 4.6m/s | -52.6°C | 1.8% | 95.2hPa | 2.7V | 00:00:00 | 00:00:00 | 00:00:00 | |
| BIOWL1-15 | 2026-09-04 05:37:45 | 51.81335 | 15.31716 | 140° | 38km/h | 16838m | 6.9m/s | -52.5°C | 1.5% | 95.3hPa | 2.7V | 18:12:15 | 01:27:51 | 00:00:00 | |
| DM0DOS-11 | 2026-09-04 05:37:43 | 51.81369 | 15.31674 | 146° | 46km/h | 16816m | 7m/s | -52.7°C | 4.6% | 95.7hPa | 2.6V | 08:30:00 | 01:27:47 | 00:00:00 | |
| DF8AY | 2026-09-04 05:37:40 | 51.81369 | 15.31675 | 146° | 46km/h | 16816m | 7m/s | -52.7°C | 1.6% | 95.7hPa | 2.6V | 18:12:15 | 01:27:47 | 00:00:00 | |
| BIOWL1-15 | 2026-09-04 05:37:35 | 51.81418 | 15.31626 | 147° | 47km/h | 16787m | 5.9m/s | -52.6°C | 2% | 96.1hPa | 2.6V | 18:12:15 | 01:27:42 | 00:00:00 | |
| DM0DOS-11 | 2026-09-04 05:37:33 | 51.81464 | 15.31556 | 132° | 55km/h | 16758m | 5m/s | -52.5°C | 4.9% | 96.5hPa | 2.7V | 08:30:00 | 01:27:37 | 00:00:00 | |
| DF8AY | 2026-09-04 05:37:29 | 51.81474 | 15.31539 | 133° | 55km/h | 16752m | 5.8m/s | -52.5°C | 2% | 96.6hPa | 2.6V | 18:12:15 | 01:27:36 | 00:00:00 | |
| BIOWL1-15 | 2026-09-04 05:37:28 | 51.81535 | 15.31454 | 140° | 51km/h | 16721m | 4.9m/s | -52.3°C | 1.7% | 97hPa | 2.6V | 18:12:15 | 01:27:30 | 00:00:00 | |
| OE3OSB-13 | 2026-09-04 05:37:27 | 51.81493 | 15.31509 | 137° | 53km/h | 16741m | 5.5m/s | -52.4°C | 1.9% | 96.8hPa | 2.6V | 00:00:00 | 00:00:00 | 00:00:00 | |
| KRY50SP-1 | 2026-09-04 05:37:26 | 51.81493 | 15.31508 | 139° | 53km/h | 16741m | 5.5m/s | -52.4°C | 1.9% | 96.7hPa | 2.6V | 00:00:00 | 00:00:00 | 00:00:00 | |
| DAC517 | 2026-09-04 05:37:25 | 51.81504 | 15.31494 | 141° | 55km/h | 16736m | 5.6m/s | -52.4°C | 1.9% | 96.8hPa | 2.6V | 00:00:00 | 00:00:00 | 00:00:00 | |
| EDDB2-12 | 2026-09-04 05:37:24 | 51.81525 | 15.31467 | 141° | 51km/h | 16726m | 5.7m/s | -52.4°C | 1.9% | 97.0hPa | 2.6V | 00:00:00 | 00:00:00 | 00:00:00 | |
| DM0DOS-11 | 2026-09-04 05:37:23 | 51.81580 | 15.31376 | 126° | 53km/h | 16695m | 4.9m/s | -52.2°C | 4.5% | 97.4hPa | 2.6V | 08:30:00 | 01:27:25 | 00:00:00 | |
| DF8AY | 2026-09-04 05:37:18 | 51.81580 | 15.31376 | 127° | 53km/h | 16695m | 4.9m/s | -52.3°C | 1.5% | 97.4hPa | 2.6V | 18:12:15 | 01:27:25 | 00:00:00 | |
| BIOWL1-15 | 2026-09-04 05:37:13 | 51.81620 | 15.31294 | 132° | 49km/h | 16667m | 5.4m/s | -52.3°C | 1.5% | 0hPa | 2.6V | 18:12:15 | 01:27:20 | 00:00:00 | |
| DB0DAN | 2026-09-04 05:37:10 | 51.81646 | 15.31252 | 135° | 44km/h | 16652m | 4.5m/s | -52.2°C | 1.8% | 98.11hPa | 2.7V | 00:00:00 | 00:00:00 | 00:00:00 | |
| 13BRC | 2026-09-04 05:37:09 | 51.81645 | 15.31252 | 136° | 46km/h | 16652m | 4.5m/s | -52.2°C | 1.8% | 98.1hPa | 2.6V | 00:00:00 | 00:00:00 | 00:00:00 | |
| DM0DOS-11 | 2026-09-04 05:37:07 | 51.81678 | 15.31194 | 126° | 49km/h | 16630m | 5.2m/s | -52.4°C | 4.7% | 98.4hPa | 2.6V | 08:30:00 | 01:27:13 | 00:00:00 | |
| DF8AY | 2026-09-04 05:37:07 | 51.81671 | 15.31209 | 131° | 49km/h | 16636m | 5.7m/s | -52.4°C | 1.7% | 98.4hPa | 2.6V | 18:12:15 | 01:27:14 | 00:00:00 | |
| SQ6EMJ | 2026-09-04 05:37:06 | 51.81678 | 15.31194 | 127° | 49km/h | 16630m | 5.2m/s | -52.4°C | 1.8% | 98.4hPa | 2.7V | 00:00:00 | 00:00:00 | 00:00:00 | |
| KRY50SP-1 | 2026-09-04 05:37:05 | 51.81678 | 15.31194 | 127° | 49km/h | 16630m | 5.2m/s | -52.4°C | 1.8% | 98.4hPa | 2.7V | 00:00:00 | 00:00:00 | 00:00:00 | |
| DB0NH | 2026-09-04 05:37:04 | 51.81692 | 15.31159 | 121° | 49km/h | 16620m | 5.3m/s | -52.3°C | 4.7% | 98.6hPa | 2.7V | 00:00:00 | 01:27:11 | 00:00:00 | |
| DAC517 | 2026-09-04 05:37:02 | 51.81699 | 15.31140 | 120° | 53km/h | 16615m | 4.9m/s | -52.4°C | 1.9% | 98.7hPa | 2.7V | 00:00:00 | 00:00:00 | 00:00:00 | |
| DM0DOS-11 | 2026-09-04 05:37:01 | 51.81745 | 15.31029 | 133° | 42km/h | 16577m | 4.9m/s | -52.6°C | 4.9% | 99.3hPa | 2.7V | 08:30:00 | 01:27:03 | 00:00:00 | |
| AA1-15 | 2026-09-04 05:37:00 | 51.81718 | 15.31087 | 123° | 49km/h | 16598m | 5.2m/s | -52.6°C | 1.9% | 98.9hPa | 2.6V | 18:12:15 | 01:27:07 | 00:00:00 | |
| DF8AY | 2026-09-04 05:36:57 | 51.81738 | 15.31042 | 130° | 42km/h | 16583m | 5.8m/s | -52.6°C | 1.8% | 99.2hPa | 2.7V | 18:12:15 | 01:27:04 | 00:00:00 | |
| OE3OSB-13 | 2026-09-04 05:36:56 | 51.81745 | 15.31029 | 133° | 42km/h | 16578m | 4.9m/s | -52.6°C | 2.0% | 99.3hPa | 2.6V | 00:00:00 | 00:00:00 | 00:00:00 | |
| DB0DAN | 2026-09-04 05:36:55 | 51.81752 | 15.31018 | 137° | 38km/h | 16572m | 6.6m/s | -52.5°C | 2% | 99.32hPa | 2.6V | 00:00:00 | 00:00:00 | 00:00:00 | |
| EDDB2-12 | 2026-09-04 05:36:54 | 51.81768 | 15.30994 | 135° | 42km/h | 16562m | 5.2m/s | -52.4°C | 2.1% | 99.5hPa | 2.6V | 00:00:00 | 00:00:00 | 00:00:00 | |
| 13BRC | 2026-09-04 05:36:49 | 51.81791 | 15.30950 | 125° | 49km/h | 16547m | 6.0m/s | -52.4°C | 2.1% | 99.7hPa | 2.6V | 00:00:00 | 00:00:00 | 00:00:00 | |
| 3Z3Z-3 | 2026-09-04 05:36:48 | 51.81798 | 15.30933 | 123° | 49km/h | 16541m | 4.9m/s | 0°C | 0% | 0hPa | 2.6V | 00:00:00 | 00:00:00 | 00:00:00 | |
| DM0DOS-11 | 2026-09-04 05:36:47 | 51.81833 | 15.30847 | 124° | 49km/h | 16513m | 5.7m/s | -52.3°C | 5% | 100.2hPa | 2.6V | 08:30:00 | 01:26:51 | 00:00:00 | |
| DF8AY | 2026-09-04 05:36:47 | 51.81812 | 15.30898 | 124° | 51km/h | 16529m | 3.7m/s | -52.4°C | 2% | 100hPa | 2.6V | 18:12:15 | 01:26:54 | 00:00:00 | |
| SONDE2-11 | 2026-09-04 05:36:47 | 51.81819 | 15.30881 | 123° | 49km/h | 16524m | 7.0m/s | -52.4°C | 2.1% | 100.0hPa | 2.7V | 00:00:00 | 00:00:00 | 00:00:00 | |
| SP6BVK | 2026-09-04 05:36:45 | 51.81819 | 15.30880 | 125° | 51km/h | 16524m | 7.0m/s | -52.4°C | 2.1% | 100.0hPa | 2.7V | 00:00:00 | 00:00:00 | 00:00:00 | |
| KRY50SP-1 | 2026-09-04 05:36:44 | 51.81826 | 15.30863 | 124° | 49km/h | 16518m | 4.9m/s | -52.3°C | 2.1% | 100.2hPa | 2.7V | 00:00:00 | 00:00:00 | 00:00:00 | |
| DB0DAN | 2026-09-04 05:36:40 | 51.81863 | 15.30779 | 124° | 47km/h | 16491m | 3.8m/s | -52.1°C | 2.2% | 100.57hPa | 2.7V | 00:00:00 | 00:00:00 | 00:00:00 | |
| DM0DOS-11 | 2026-09-04 05:36:39 | 51.81903 | 15.30670 | 120° | 55km/h | 16460m | 6m/s | -52.1°C | 5% | 101.1hPa | 2.7V | 08:30:00 | 01:26:41 | 00:00:00 | |
| DF8AY | 2026-09-04 05:36:38 | 51.81884 | 15.30727 | 121° | 53km/h | 16475m | 5.4m/s | -52°C | 2.4% | 100.8hPa | 2.6V | 18:12:15 | 01:26:44 | 00:00:00 | |
| DAC517 | 2026-09-04 05:36:37 | 51.81877 | 15.30745 | 124° | 53km/h | 16480m | 4.3m/s | -52.0°C | 2.2% | 100.7hPa | 2.7V | 00:00:00 | 00:00:00 | 00:00:00 | |
| DB0NH | 2026-09-04 05:36:34 | 51.81903 | 15.30670 | 121° | 62km/h | 16460m | 5.9m/s | -52.1°C | 5.0% | 101.0hPa | 2.7V | 00:00:00 | 01:26:41 | 00:00:00 | |
| EDDB2-11 | 2026-09-04 05:36:33 | 51.81911 | 15.30651 | 122° | 55km/h | 16455m | 4.5m/s | -52.4°C | 2.2% | 101.1hPa | 2.7V | 00:00:00 | 00:00:00 | 00:00:00 | |
| KRY50SP-1 | 2026-09-04 05:36:32 | 51.81911 | 15.30651 | 124° | 57km/h | 16455m | 4.5m/s | -52.4°C | 2.2% | 101.1hPa | 2.7V | 00:00:00 | 00:00:00 | 00:00:00 | |
| SQ6EMJ | 2026-09-04 05:36:31 | 51.81925 | 15.30613 | 124° | 55km/h | 16444m | 4.3m/s | -52.6°C | 2.3% | 101.3hPa | 2.7V | 00:00:00 | 00:00:00 | 00:00:00 | |
| SP3WXH-11 | 2026-09-04 05:36:30 | 51.81933 | 15.30594 | 123° | 55km/h | 16438m | 7.4m/s | -52.5°C | 2.2% | 101.4hPa | 2.7V | 00:00:00 | 00:00:00 | 00:00:00 | |
| 13BRC | 2026-09-04 05:36:28 | 51.81941 | 15.30575 | 124° | 57km/h | 16432m | 5.4m/s | -52.5°C | 2.2% | 101.5hPa | 2.7V | 00:00:00 | 00:00:00 | 00:00:00 | |
| DM0DOS-11 | 2026-09-04 05:36:27 | 51.81978 | 15.30476 | 120° | 57km/h | 16404m | 7.1m/s | -52.6°C | 5% | 101.9hPa | 2.7V | 08:30:00 | 01:26:31 | 00:00:00 | |
| DF8AY | 2026-09-04 05:36:26 | 51.81963 | 15.30516 | 121° | 57km/h | 16416m | 6.4m/s | -52.5°C | 2.1% | 101.8hPa | 2.6V | 18:12:15 | 01:26:33 | 00:00:00 | |
| DB0DAN | 2026-09-04 05:36:25 | 51.81970 | 15.30496 | 120° | 55km/h | 16410m | 5.1m/s | -52.5°C | 2.1% | 101.84hPa | 2.6V | 00:00:00 | 00:00:00 | 00:00:00 | |
| EDDB2-12 | 2026-09-04 05:36:23 | 51.81993 | 15.30436 | 122° | 58km/h | 16391m | 7.3m/s | -52.7°C | 2.1% | 102.1hPa | 2.6V | 00:00:00 | 00:00:00 | 00:00:00 | |
| KRY50SP-1 | 2026-09-04 05:36:21 | 51.81993 | 15.30436 | 123° | 60km/h | 16392m | 7.3m/s | -52.7°C | 2.1% | 102.1hPa | 2.6V | 00:00:00 | 00:00:00 | 00:00:00 | |
| 3Z3Z-3 | 2026-09-04 05:36:20 | 51.82001 | 15.30415 | 124° | 60km/h | 16386m | 3.1m/s | 0°C | 0% | 0hPa | 2.6V | 00:00:00 | 00:00:00 | 00:00:00 | |
| DM0DOS-11 | 2026-09-04 05:36:19 | 51.82064 | 15.30266 | 121° | 68km/h | 16349m | 6.7m/s | -53°C | 5.3% | 102.8hPa | 2.6V | 08:30:00 | 01:26:21 | 00:00:00 | |
| DF8AY | 2026-09-04 05:36:16 | 51.82046 | 15.30311 | 124° | 64km/h | 16360m | 6.1m/s | -52.9°C | 2.4% | 102.6hPa | 2.7V | 18:12:15 | 01:26:23 | 00:00:00 | |
| SONDE2-11 | 2026-09-04 05:36:16 | 51.82055 | 15.30289 | 122° | 64km/h | 16355m | 5.0m/s | -52.9°C | 2.3% | 102.7hPa | 2.7V | 00:00:00 | 00:00:00 | 00:00:00 | |
| S3001 | 2026-09-04 05:36:14 | 51.82073 | 15.30243 | 121° | 68km/h | 16343m | 4.2m/s | -53.0°C | 2.2% | 102.8hPa | 2.7V | 00:00:00 | 00:00:00 | 00:00:00 | |
| SP3BTT-10 | 2026-09-04 05:36:13 | 51.82073 | 15.30243 | 122° | 73km/h | 16344m | 4.2m/s | -53.0°C | 5.2% | 102.8hPa | 2.7V | 00:00:00 | 00:00:00 | 00:00:00 | |
| DB0DAN | 2026-09-04 05:36:10 | 51.82098 | 15.30173 | 120° | 62km/h | 16328m | 5.9m/s | -53.2°C | 2.3% | 103.11hPa | 2.7V | 00:00:00 | 00:00:00 | 00:00:00 | |
| BIOWL1-15 | 2026-09-04 05:36:07 | 51.82123 | 15.30102 | 120° | 68km/h | 16312m | 5.4m/s | -53.1°C | 2.3% | 0hPa | 2.6V | 18:12:15 | 01:26:14 | 00:00:00 | |
| DF8AY | 2026-09-04 05:36:05 | 51.82140 | 15.30054 | 120° | 69km/h | 16301m | 5.1m/s | -53°C | 2.1% | 103.5hPa | 2.7V | 18:12:15 | 01:26:12 | 00:00:00 | |
| BIOWL1-15 | 2026-09-04 05:35:57 | 51.82212 | 15.29862 | 121° | 68km/h | 16257m | 4.2m/s | -53.1°C | 2.1% | 0hPa | 2.6V | 18:12:15 | 01:26:04 | 00:00:00 | |
| DF8AY | 2026-09-04 05:35:55 | 51.82229 | 15.29815 | 119° | 64km/h | 16246m | 3.7m/s | -53.2°C | 2.1% | 104.4hPa | 2.7V | 18:12:15 | 01:26:02 | 00:00:00 | |
| BIOWL1-15 | 2026-09-04 05:35:47 | 51.82290 | 15.29635 | 119° | 64km/h | 16206m | 6.2m/s | 0°C | 0% | 0hPa | 2.7V | 18:12:15 | 01:25:54 | 00:00:00 | |
| DF8AY | 2026-09-04 05:35:45 | 51.82306 | 15.29590 | 122° | 66km/h | 16196m | 6.2m/s | -53.4°C | 2.1% | 105.3hPa | 2.7V | 18:12:15 | 01:25:52 | 00:00:00 | |
| BIOWL1-15 | 2026-09-04 05:35:35 | 51.82403 | 15.29370 | 126° | 69km/h | 16144m | 6.6m/s | 0°C | 0% | 0hPa | 2.7V | 18:12:15 | 01:25:42 | 00:00:00 | |
| DF8AY | 2026-09-04 05:35:34 | 51.82413 | 15.29347 | 127° | 69km/h | 16139m | 4.5m/s | -54.1°C | 2.3% | 106.2hPa | 2.7V | 18:12:15 | 01:25:41 | 00:00:00 | |
| BIOWL1-15 | 2026-09-04 05:35:25 | 51.82516 | 15.29132 | 125° | 75km/h | 16092m | 5.1m/s | 0°C | 0% | 0hPa | 2.7V | 18:12:15 | 01:25:32 | 00:00:00 | |
| DF8AY | 2026-09-04 05:35:24 | 51.82527 | 15.29106 | 125° | 75km/h | 16087m | 4.3m/s | -54.7°C | 2.4% | 107hPa | 2.7V | 18:12:15 | 01:25:31 | 00:00:00 | |
| BIOWL1-15 | 2026-09-04 05:35:15 | 51.82610 | 15.28862 | 113° | 75km/h | 16043m | 5m/s | 0°C | 0% | 0hPa | 2.6V | 18:12:15 | 01:25:22 | 00:00:00 | |
| DF8AY | 2026-09-04 05:35:13 | 51.82624 | 15.28809 | 113° | 69km/h | 16033m | 4.2m/s | -54.7°C | 2.7% | 108hPa | 2.7V | 18:12:15 | 01:25:20 | 00:00:00 | |
| BIOWL1-15 | 2026-09-04 05:35:06 | 51.82696 | 15.28588 | 120° | 68km/h | 15988m | 6m/s | 0°C | 0% | 0hPa | 2.6V | 18:12:15 | 01:25:11 | 00:00:00 | |
| DF8AY | 2026-09-04 05:35:02 | 51.82761 | 15.28412 | 122° | 75km/h | 15953m | 3.3m/s | -55.2°C | 2.9% | 109.4hPa | 2.7V | 18:12:15 | 01:25:04 | 00:00:00 | |
| BIOWL1-15 | 2026-09-04 05:34:51 | 51.82814 | 15.28247 | 114° | 77km/h | 15922m | 4.8m/s | 0°C | 0% | 0hPa | 2.7V | 18:12:15 | 01:24:58 | 00:00:00 | |
| DF8AY | 2026-09-04 05:34:49 | 51.82829 | 15.28191 | 114° | 73km/h | 15911m | 3.7m/s | -55.4°C | 3.4% | 110hPa | 2.8V | 18:12:15 | 01:24:56 | 00:00:00 | |
| DF8AY | 2026-09-04 05:34:38 | 51.82920 | 15.27913 | 121° | 69km/h | 15857m | 4.1m/s | -55.8°C | 3.9% | 111hPa | 2.7V | 18:12:15 | 01:24:45 | 00:00:00 | |
| DF8AY | 2026-09-04 05:34:28 | 51.83003 | 15.27652 | 114° | 75km/h | 15805m | 3.7m/s | -56.1°C | 4% | 111.9hPa | 2.6V | 18:12:15 | 01:24:35 | 00:00:00 | |
| DB0DAN | 2026-09-04 05:34:25 | 51.83026 | 15.27568 | 114° | 71km/h | 15791m | 6m/s | -56°C | 3.2% | 112.14hPa | 2.7V | 00:00:00 | 00:00:00 | 00:00:00 | |
| BIOWL1-15 | 2026-09-04 05:34:23 | 51.83056 | 15.27455 | 112° | 73km/h | 15771m | 5.8m/s | 0°C | 0% | 0hPa | 2.7V | 18:12:15 | 01:24:28 | 00:00:00 | |
| DF8AY | 2026-09-04 05:34:17 | 51.83081 | 15.27344 | 108° | 71km/h | 15752m | 5.5m/s | -56.2°C | 3.8% | 112.8hPa | 2.7V | 18:12:15 | 01:24:24 | 00:00:00 | |
| AA1-15 | 2026-09-04 05:34:12 | 51.83104 | 15.27203 | 103° | 71km/h | 15726m | 3.5m/s | -56°C | 3.8% | 113.3hPa | 2.8V | 18:12:15 | 01:24:19 | 00:00:00 | |
| BIOWL1-15 | 2026-09-04 05:34:09 | 51.83117 | 15.27119 | 105° | 69km/h | 15712m | 6.2m/s | 0°C | 0% | 0hPa | 2.7V | 18:12:15 | 01:24:16 | 00:00:00 | |
| DF8AY | 2026-09-04 05:34:06 | 51.83132 | 15.27039 | 107° | 68km/h | 15696m | 3.6m/s | -55.9°C | 3.7% | 113.8hPa | 2.7V | 18:12:15 | 01:24:13 | 00:00:00 | |
| AA1-15 | 2026-09-04 05:33:59 | 51.83168 | 15.26854 | 109° | 69km/h | 15662m | 5.5m/s | -55.9°C | 3.6% | 114.4hPa | 2.7V | 18:12:15 | 01:24:06 | 00:00:00 | |
| DF8AY | 2026-09-04 05:33:55 | 51.83190 | 15.26750 | 111° | 66km/h | 15641m | 6.1m/s | -56°C | 3.4% | 114.8hPa | 2.7V | 18:12:15 | 01:24:02 | 00:00:00 | |
| AA1-15 | 2026-09-04 05:33:48 | 51.83239 | 15.26583 | 116° | 66km/h | 15606m | 3.4m/s | -56.1°C | 3.3% | 115.4hPa | 2.7V | 18:12:15 | 01:23:55 | 00:00:00 | |
| EDDB2-12 | 2026-09-04 05:33:47 | 51.83247 | 15.26558 | 116° | 68km/h | 15601m | 6.2m/s | -56.2°C | 2.9% | 115.5hPa | 2.7V | 00:00:00 | 00:00:00 | 00:00:00 | |
| DF8AY | 2026-09-04 05:33:44 | 51.83269 | 15.26484 | 116° | 66km/h | 15587m | 4m/s | -56.1°C | 3.4% | 115.8hPa | 2.7V | 18:12:15 | 01:23:51 | 00:00:00 | |
| AA1-15 | 2026-09-04 05:33:37 | 51.83327 | 15.26320 | 124° | 68km/h | 15553m | 5.3m/s | -56°C | 3.5% | 116.4hPa | 2.8V | 18:12:15 | 01:23:44 | 00:00:00 | |
| DF8AY | 2026-09-04 05:33:33 | 51.83366 | 15.26227 | 122° | 71km/h | 15533m | 6.1m/s | -55.9°C | 3.5% | 116.8hPa | 2.7V | 18:12:15 | 01:23:40 | 00:00:00 | |
| AA1-15 | 2026-09-04 05:33:27 | 51.83417 | 15.26078 | 117° | 69km/h | 15502m | 6.4m/s | -55.8°C | 3.5% | 117.3hPa | 2.8V | 18:12:15 | 01:23:34 | 00:00:00 | |
| DF8AY | 2026-09-04 05:33:22 | 51.83459 | 15.25958 | 122° | 66km/h | 15478m | 4.9m/s | -55.6°C | 3.3% | 117.8hPa | 2.7V | 18:12:15 | 01:23:29 | 00:00:00 | |
| AA1-15 | 2026-09-04 05:33:16 | 51.83512 | 15.25823 | 119° | 66km/h | 15448m | 4.8m/s | 0°C | 0% | 118.4hPa | 2.8V | 18:12:15 | 01:23:23 | 00:00:00 | |
| DF8AY | 2026-09-04 05:33:11 | 51.83553 | 15.25693 | 118° | 75km/h | 15423m | 3m/s | -55.8°C | 3.7% | 118.8hPa | 2.7V | 18:12:15 | 01:23:18 | 00:00:00 | |
| AA1-15 | 2026-09-04 05:33:05 | 51.83614 | 15.25536 | 123° | 73km/h | 15394m | 5.6m/s | 0°C | 0% | 119.4hPa | 2.8V | 18:12:15 | 01:23:12 | 00:00:00 | |
| DF8AY | 2026-09-04 05:33:01 | 51.83649 | 15.25440 | 119° | 68km/h | 15374m | 5.7m/s | -56.4°C | 4.6% | 119.8hPa | 2.7V | 18:12:15 | 01:23:08 | 00:00:00 | |
| AA1-15 | 2026-09-04 05:32:54 | 51.83704 | 15.25264 | 118° | 71km/h | 15338m | 3.1m/s | 0°C | 0% | 120.4hPa | 2.7V | 18:12:15 | 01:23:01 | 00:00:00 | |
| DF8AY | 2026-09-04 05:32:50 | 51.83739 | 15.25161 | 120° | 71km/h | 15318m | 4.3m/s | -56.5°C | 4.6% | 120.8hPa | 2.7V | 18:12:15 | 01:22:57 | 00:00:00 | |
| EDDB2-12 | 2026-09-04 05:32:45 | 51.83787 | 15.25033 | 120° | 75km/h | 15294m | 5.8m/s | -56.4°C | 3.6% | 121.3hPa | 2.7V | 00:00:00 | 00:00:00 | 00:00:00 | |
| AA1-15 | 2026-09-04 05:32:44 | 51.83797 | 15.25005 | 121° | 78km/h | 15289m | 4.3m/s | 0°C | 0% | 121.4hPa | 2.7V | 18:12:15 | 01:22:51 | 00:00:00 | |
| DF8AY | 2026-09-04 05:32:39 | 51.83848 | 15.24868 | 123° | 78km/h | 15263m | 6.1m/s | -56.9°C | 4.9% | 121.8hPa | 2.7V | 18:12:15 | 01:22:46 | 00:00:00 | |
| AA1-15 | 2026-09-04 05:32:34 | 51.83908 | 15.24738 | 127° | 80km/h | 15238m | 4.6m/s | 0°C | 0% | 122.3hPa | 2.7V | 18:12:15 | 01:22:41 | 00:00:00 | |
| DF8AY | 2026-09-04 05:32:28 | 51.83980 | 15.24571 | 123° | 86km/h | 15207m | 4.3m/s | -56.7°C | 4.9% | 122.9hPa | 2.7V | 18:12:15 | 01:22:35 | 00:00:00 | |
| AA1-15 | 2026-09-04 05:32:23 | 51.84036 | 15.24427 | 121° | 82km/h | 15182m | 5.1m/s | 0°C | 0% | 123.4hPa | 2.8V | 18:12:15 | 01:22:30 | 00:00:00 | |
| DF8AY | 2026-09-04 05:32:18 | 51.84090 | 15.24281 | 120° | 82km/h | 15156m | 3.4m/s | 0°C | 0% | 123.9hPa | 2.8V | 18:12:15 | 01:22:25 | 00:00:00 | |
| AA1-15 | 2026-09-04 05:32:13 | 51.84138 | 15.24133 | 115° | 82km/h | 15132m | 6.3m/s | 0°C | 0% | 124.4hPa | 2.8V | 18:12:15 | 01:22:20 | 00:00:00 | |
| DF8AY | 2026-09-04 05:32:07 | 51.84189 | 15.23951 | 115° | 78km/h | 15103m | 3.9m/s | 0°C | 0% | 0hPa | 2.8V | 18:12:15 | 01:22:14 | 00:00:00 | |
| AA1-15 | 2026-09-04 05:32:03 | 51.84222 | 15.23838 | 117° | 73km/h | 15083m | 5.1m/s | 0°C | 0% | 0hPa | 2.8V | 18:12:15 | 01:22:10 | 00:00:00 | |
| DF8AY | 2026-09-04 05:31:57 | 51.84268 | 15.23676 | 113° | 73km/h | 15054m | 6.2m/s | 0°C | 0% | 0hPa | 2.8V | 18:12:15 | 01:22:04 | 00:00:00 | |
| BIOWL1-15 | 2026-09-04 05:31:55 | 51.84283 | 15.23620 | 113° | 75km/h | 15042m | 5.9m/s | 0°C | 0% | 0hPa | 2.7V | 18:12:15 | 01:22:02 | 00:00:00 | |
| DF8AY | 2026-09-04 05:31:47 | 51.84343 | 15.23406 | 119° | 69km/h | 15004m | 5.9m/s | 0°C | 0% | 0hPa | 2.7V | 18:12:15 | 01:21:54 | 00:00:00 | |
| BIOWL1-15 | 2026-09-04 05:31:44 | 51.84380 | 15.23308 | 122° | 69km/h | 14985m | 6.4m/s | 0°C | 0% | 0hPa | 2.7V | 18:12:15 | 01:21:50 | 00:00:00 | |
| DF8AY-15 | 2026-09-04 05:31:44 | 51.84370 | 15.23333 | 122° | 69km/h | 14990m | 3.4m/s | 0°C | 0% | 0hPa | 2.7V | 00:00:00 | 01:21:51 | 00:00:00 | |
| EDDB2-12 | 2026-09-04 05:31:43 | 51.84380 | 15.23308 | 122° | 69km/h | 14985m | 6.4m/s | -57.0°C | 3.5% | 127.3hPa | 2.7V | 00:00:00 | 00:00:00 | 00:00:00 | |
| DO3MHA-11 | 2026-09-04 05:31:42 | 51.84389 | 15.23284 | 123° | 71km/h | 14980m | 3.9m/s | 0°C | 0% | 0hPa | 2.7V | 00:00:00 | 01:21:49 | 00:00:00 | |
| DB0NH | 2026-09-04 05:31:41 | 51.84398 | 15.23260 | 122° | 75km/h | 14975m | 6.4m/s | -56.9°C | 7.1% | 127.5hPa | 2.7V | 00:00:00 | 01:21:48 | 00:00:00 | |
| KRY50SP-1 | 2026-09-04 05:31:40 | 51.84398 | 15.23260 | 122° | 69km/h | 14975m | 6.4m/s | -57.0°C | 3.5% | 127.5hPa | 2.7V | 00:00:00 | 00:00:00 | 00:00:00 | |
| SQ6EMJ | 2026-09-04 05:31:39 | 51.84407 | 15.23235 | 122° | 71km/h | 14970m | 4.2m/s | -56.9°C | 3.5% | 127.6hPa | 2.7V | 00:00:00 | 00:00:00 | 00:00:00 | |
| DM0DOS-11 | 2026-09-04 05:31:37 | 51.84484 | 15.23042 | 123° | 71km/h | 14928m | 4.4m/s | -56.7°C | 6.9% | 128.5hPa | 2.7V | 08:30:00 | 01:21:39 | 00:00:00 | |
| BIOWL1-15 | 2026-09-04 05:31:29 | 51.84515 | 15.22968 | 123° | 73km/h | 14912m | 5.1m/s | 0°C | 0% | 0hPa | 2.8V | 18:12:15 | 01:21:36 | 00:00:00 | |
| POL2MAQ | 2026-09-04 05:31:28 | 51.84515 | 15.22968 | 124° | 73km/h | 14912m | 5.1m/s | -56.8°C | 0% | 0hPa | 2.7V | 00:00:00 | 00:00:00 | 00:00:00 | |
| NBG1-10 | 2026-09-04 05:31:26 | 51.84546 | 15.22892 | 125° | 80km/h | 14897m | 5.0m/s | -56.7°C | 7.0% | 129.1hPa | 2.7V | 00:00:00 | 01:21:33 | 00:00:00 | |
| SQ6EMJ | 2026-09-04 05:31:25 | 51.84546 | 15.22892 | 125° | 77km/h | 14897m | 5.1m/s | -56.8°C | 3.5% | 129.1hPa | 2.7V | 00:00:00 | 00:00:00 | 00:00:00 | |
| EDDB2-11 | 2026-09-04 05:31:23 | 51.84591 | 15.22790 | 126° | 77km/h | 14877m | 4.5m/s | -56.8°C | 3.5% | 129.5hPa | 2.7V | 00:00:00 | 00:00:00 | 00:00:00 | |
| DO3MHA-11 | 2026-09-04 05:31:22 | 51.84590 | 15.22790 | 127° | 77km/h | 14877m | 4.4m/s | 0°C | 0% | 0hPa | 2.7V | 00:00:00 | 01:21:29 | 00:00:00 | |
| DAC517 | 2026-09-04 05:31:20 | 51.84602 | 15.22764 | 127° | 77km/h | 14872m | 5.3m/s | -56.8°C | 3.5% | 129.6hPa | 2.7V | 00:00:00 | 00:00:00 | 00:00:00 | |
| SQ6EMJ | 2026-09-04 05:31:19 | 51.84613 | 15.22739 | 127° | 77km/h | 14868m | 3.9m/s | -56.9°C | 3.6% | 129.7hPa | 2.7V | 00:00:00 | 00:00:00 | 00:00:00 | |
| KRY50SP-1 | 2026-09-04 05:31:17 | 51.84636 | 15.22689 | 128° | 77km/h | 14858m | 5.0m/s | -57.0°C | 3.6% | 129.9hPa | 2.7V | 00:00:00 | 00:00:00 | 00:00:00 | |
| SP6BVK | 2026-09-04 05:31:16 | 51.84648 | 15.22664 | 128° | 75km/h | 14853m | 5.2m/s | -57.1°C | 3.6% | 130.0hPa | 2.7V | 00:00:00 | 00:00:00 | 00:00:00 | |
| DM0DOS-11 | 2026-09-04 05:31:15 | 51.84750 | 15.22461 | 131° | 86km/h | 14813m | 4.2m/s | -57.2°C | 7.2% | 130.8hPa | 2.7V | 08:30:00 | 01:21:16 | 00:00:00 | |
| BIOWL1-15 | 2026-09-04 05:31:03 | 51.84835 | 15.22302 | 128° | 86km/h | 14782m | 4.2m/s | 0°C | 0% | 0hPa | 2.7V | 18:12:15 | 01:21:10 | 00:00:00 | |
| SONCRA | 2026-09-04 05:30:56 | 51.84934 | 15.22078 | 124° | 82km/h | 14740m | 6.1m/s | -57.3°C | 3.9% | 132.3hPa | 2.7V | 00:00:00 | 00:00:00 | 00:00:00 | |
| EDDB2-11 | 2026-09-04 05:30:51 | 51.84981 | 15.21967 | 123° | 80km/h | 14721m | 6.2m/s | -57.5°C | 3.9% | 132.7hPa | 2.7V | 00:00:00 | 00:00:00 | 00:00:00 | |
| SP3WXH-11 | 2026-09-04 05:30:49 | 51.85016 | 15.21886 | 125° | 80km/h | 14705m | 4.7m/s | -57.5°C | 3.9% | 133.1hPa | 2.7V | 00:00:00 | 00:00:00 | 00:00:00 | |
| POL2MAQ | 2026-09-04 05:30:48 | 51.85004 | 15.21913 | 126° | 82km/h | 14711m | 6.0m/s | -57.5°C | 0% | 0hPa | 2.7V | 00:00:00 | 00:00:00 | 00:00:00 | |
| DL2RXE-15 | 2026-09-04 05:30:46 | 51.85028 | 15.21858 | 127° | 82km/h | 14700m | 5.6m/s | -57.5°C | 4.0% | 133.2hPa | 2.7V | 00:00:00 | 00:00:00 | 00:00:00 | |
| SQ6EMJ | 2026-09-04 05:30:45 | 51.85053 | 15.21803 | 128° | 88km/h | 14690m | 5.5m/s | -57.5°C | 0% | 0hPa | 2.7V | 00:00:00 | 00:00:00 | 00:00:00 | |
| KRY50SP-1 | 2026-09-04 05:30:43 | 51.85066 | 15.21774 | 127° | 89km/h | 14685m | 4.5m/s | -57.5°C | 4.0% | 133.5hPa | 2.7V | 00:00:00 | 00:00:00 | 00:00:00 | |
| DO3MHA-11 | 2026-09-04 05:30:42 | 51.85093 | 15.21715 | 127° | 91km/h | 14675m | 5.3m/s | 0°C | 0% | 0hPa | 2.7V | 00:00:00 | 01:20:49 | 00:00:00 | |
| DB0NH | 2026-09-04 05:30:41 | 51.85107 | 15.21685 | 127° | 84km/h | 14669m | 5.3m/s | -57.4°C | 7.7% | 133.8hPa | 2.7V | 00:00:00 | 01:20:48 | 00:00:00 | |
| SQ6EMJ | 2026-09-04 05:30:39 | 51.85135 | 15.21624 | 127° | 91km/h | 14660m | 5.2m/s | -57.4°C | 0% | 0hPa | 2.7V | 00:00:00 | 00:00:00 | 00:00:00 | |
| KRY50SP-1 | 2026-09-04 05:30:38 | 51.85135 | 15.21624 | 127° | 91km/h | 14660m | 5.2m/s | -57.4°C | 4.0% | 134.0hPa | 2.7V | 00:00:00 | 00:00:00 | 00:00:00 | |
| SP6BVK | 2026-09-04 05:30:35 | 51.85175 | 15.21535 | 127° | 88km/h | 14645m | 4.7m/s | -57.3°C | 4.0% | 134.4hPa | 2.7V | 00:00:00 | 00:00:00 | 00:00:00 | |
| SONDE2-11 | 2026-09-04 05:30:34 | 51.85200 | 15.21479 | 127° | 82km/h | 14634m | 6.2m/s | -57.4°C | 4.0% | 134.6hPa | 2.7V | 00:00:00 | 00:00:00 | 00:00:00 | |
| KRY50SP-1 | 2026-09-04 05:30:32 | 51.85213 | 15.21453 | 129° | 84km/h | 14629m | 4.4m/s | -57.4°C | 4.0% | 134.7hPa | 2.7V | 00:00:00 | 00:00:00 | 00:00:00 | |
| 13BRC | 2026-09-04 05:30:30 | 51.85238 | 15.21399 | 127° | 82km/h | 14619m | 3.6m/s | -57.4°C | 4.0% | 134.9hPa | 2.7V | 00:00:00 | 00:00:00 | 00:00:00 | |
| DO3MHA-11 | 2026-09-04 05:30:29 | 51.85264 | 15.21344 | 126° | 80km/h | 14609m | 5.3m/s | 0°C | 0% | 0hPa | 2.7V | 00:00:00 | 01:20:36 | 00:00:00 | |
| KRY50SP-1 | 2026-09-04 05:30:27 | 51.85276 | 15.21315 | 126° | 86km/h | 14605m | 3.9m/s | -57.3°C | 4.1% | 135.2hPa | 2.7V | 00:00:00 | 00:00:00 | 00:00:00 | |
| DB0DAN | 2026-09-04 05:30:25 | 51.85309 | 15.21230 | 120° | 78km/h | 14590m | 6m/s | -57.3°C | 4.1% | 135.53hPa | 2.7V | 00:00:00 | 00:00:00 | 00:00:00 | |
| SONCRA | 2026-09-04 05:30:25 | 51.85319 | 15.21201 | 120° | 80km/h | 14584m | 4.4m/s | -57.2°C | 4.1% | 135.6hPa | 2.7V | 00:00:00 | 00:00:00 | 00:00:00 | |
| SP3BTT-10 | 2026-09-04 05:30:24 | 51.85319 | 15.21201 | 121° | 88km/h | 14585m | 4.4m/s | -57.2°C | 7.8% | 135.6hPa | 2.7V | 00:00:00 | 00:00:00 | 08:30:00 | |
| KRY50SP-1 | 2026-09-04 05:30:21 | 51.85339 | 15.21145 | 121° | 78km/h | 14576m | 4.1m/s | -57.3°C | 4.2% | 135.9hPa | 2.7V | 00:00:00 | 00:00:00 | 00:00:00 | |
| NBG1-10 | 2026-09-04 05:30:20 | 51.85360 | 15.21090 | 122° | 82km/h | 14566m | 4.5m/s | -57.3°C | 8.0% | 136.0hPa | 2.7V | 00:00:00 | 01:20:27 | 00:00:00 | |
| SP3WXH-11 | 2026-09-04 05:30:18 | 51.85393 | 15.21007 | 125° | 80km/h | 14551m | 3.7m/s | -57.7°C | 4.3% | 136.4hPa | 2.7V | 00:00:00 | 00:00:00 | 00:00:00 | |
| SQ6EMJ | 2026-09-04 05:30:16 | 51.85406 | 15.20979 | 126° | 84km/h | 14546m | 5.2m/s | -57.9°C | 0% | 0hPa | 2.7V | 00:00:00 | 00:00:00 | 00:00:00 | |
| SP6BVK | 2026-09-04 05:30:15 | 51.85406 | 15.20979 | 126° | 84km/h | 14546m | 5.2m/s | -57.9°C | 4.5% | 136.5hPa | 2.7V | 00:00:00 | 00:00:00 | 00:00:00 | |
| DB0DAN | 2026-09-04 05:30:10 | 51.85475 | 15.20815 | 123° | 75km/h | 14517m | 5.9m/s | -58.2°C | 4.6% | 137.1hPa | 2.7V | 00:00:00 | 00:00:00 | 00:00:00 | |
| EDDB2-12 | 2026-09-04 05:30:10 | 51.85475 | 15.20815 | 123° | 77km/h | 14517m | 5.9m/s | -58.2°C | 4.6% | 137.1hPa | 2.7V | 00:00:00 | 00:00:00 | 00:00:00 | |
| 13BRC | 2026-09-04 05:30:09 | 51.85475 | 15.20815 | 124° | 78km/h | 14517m | 5.9m/s | -58.2°C | 4.6% | 137.1hPa | 2.7V | 00:00:00 | 00:00:00 | 00:00:00 | |
| SQ6EMJ | 2026-09-04 05:30:08 | 51.85486 | 15.20788 | 123° | 78km/h | 14512m | 5.1m/s | -58.2°C | 0% | 0hPa | 2.7V | 00:00:00 | 00:00:00 | 00:00:00 | |
| POL2MAQ | 2026-09-04 05:30:04 | 51.85528 | 15.20682 | 127° | 77km/h | 14493m | 3.7m/s | 0°C | 0% | 0hPa | 2.7V | 00:00:00 | 00:00:00 | 00:00:00 | |
| SONDE2-11 | 2026-09-04 05:30:03 | 51.85552 | 15.20630 | 126° | 80km/h | 14483m | 4.5m/s | -58.0°C | 5.1% | 137.8hPa | 2.7V | 00:00:00 | 00:00:00 | 00:00:00 | |
| S3001 | 2026-09-04 05:30:01 | 51.85577 | 15.20576 | 126° | 86km/h | 14471m | 5.4m/s | -57.9°C | 5.1% | 138.1hPa | 2.7V | 00:00:00 | 00:00:00 | 00:00:00 | |
| KRY50SP-1 | 2026-09-04 05:29:59 | 51.85590 | 15.20547 | 127° | 88km/h | 14466m | 5.0m/s | -57.9°C | 5.0% | 138.2hPa | 2.7V | 00:00:00 | 00:00:00 | 00:00:00 | |
| DAC517 | 2026-09-04 05:29:58 | 51.85603 | 15.20517 | 125° | 89km/h | 14462m | 3.3m/s | -58.0°C | 5.1% | 138.3hPa | 2.7V | 00:00:00 | 00:00:00 | 00:00:00 | |
| DL2RXE-15 | 2026-09-04 05:29:57 | 51.85616 | 15.20487 | 126° | 89km/h | 14457m | 6.2m/s | -58.1°C | 5.1% | 138.4hPa | 2.7V | 00:00:00 | 00:00:00 | 00:00:00 | |
| DM0DOS-11 | 2026-09-04 05:29:56 | 51.85680 | 15.20340 | 125° | 86km/h | 14431m | 6.3m/s | -58.1°C | 9.1% | 139hPa | 2.7V | 08:30:00 | 01:20:00 | 00:00:00 | |
| DB0DAN | 2026-09-04 05:29:55 | 51.85655 | 15.20398 | 124° | 84km/h | 14442m | 4m/s | -58.1°C | 5.1% | 138.79hPa | 2.7V | 00:00:00 | 00:00:00 | 00:00:00 | |
| EDDB2-11 | 2026-09-04 05:29:49 | 51.85731 | 15.20222 | 124° | 91km/h | 14410m | 4.0m/s | -58.2°C | 5.3% | 139.5hPa | 2.8V | 00:00:00 | 00:00:00 | 00:00:00 | |
| SP3WXH-11 | 2026-09-04 05:29:47 | 51.85772 | 15.20127 | 124° | 93km/h | 14394m | 5.5m/s | -58.3°C | 5.4% | 139.8hPa | 2.8V | 00:00:00 | 00:00:00 | 00:00:00 | |
| OE3JTB-15 | 2026-09-04 05:29:44 | 51.85799 | 15.20062 | 125° | 97km/h | 14384m | 6.4m/s | -58.3°C | 9.7% | 140.0hPa | 2.8V | 00:00:00 | 00:00:00 | 00:00:00 | |
| SQ6EMJ | 2026-09-04 05:29:42 | 51.85813 | 15.20030 | 127° | 97km/h | 14378m | 4.6m/s | 0°C | 0% | 0hPa | 2.8V | 00:00:00 | 00:00:00 | 00:00:00 | |
| DB0DAN | 2026-09-04 05:29:40 | 51.85857 | 15.19934 | 127° | 93km/h | 14362m | 6.9m/s | -58.2°C | 5.5% | 140.53hPa | 2.8V | 00:00:00 | 00:00:00 | 00:00:00 | |
| SP3BTT-10 | 2026-09-04 05:29:40 | 51.85856 | 15.19934 | 127° | 102km/h | 14362m | 6.9m/s | -58.1°C | 9.5% | 140.5hPa | 2.8V | 00:00:00 | 00:00:00 | 00:00:00 | |
| EDDB2-12 | 2026-09-04 05:29:39 | 51.85871 | 15.19902 | 126° | 95km/h | 14357m | 4.5m/s | -58.2°C | 5.5% | 140.6hPa | 2.8V | 00:00:00 | 00:00:00 | 00:00:00 | |
| DAC517 | 2026-09-04 05:29:37 | 51.85886 | 15.19870 | 127° | 97km/h | 14351m | 6.5m/s | -58.2°C | 5.5% | 140.8hPa | 2.8V | 00:00:00 | 00:00:00 | 00:00:00 | |
| KRY50SP-1 | 2026-09-04 05:29:36 | 51.85900 | 15.19838 | 127° | 97km/h | 14345m | 5.3m/s | -58.3°C | 5.5% | 140.9hPa | 2.8V | 00:00:00 | 00:00:00 | 00:00:00 | |
| SP6BVK | 2026-09-04 05:29:34 | 51.85929 | 15.19775 | 127° | 95km/h | 14335m | 5.5m/s | -58.4°C | 5.5% | 141.1hPa | 2.8V | 00:00:00 | 00:00:00 | 00:00:00 | |
| SONDE2-11 | 2026-09-04 05:29:32 | 51.85970 | 15.19681 | 125° | 93km/h | 14320m | 5.6m/s | -58.6°C | 5.6% | 141.4hPa | 2.8V | 00:00:00 | 00:00:00 | 00:00:00 | |
| KRY50SP-1 | 2026-09-04 05:29:31 | 51.85970 | 15.19680 | 127° | 95km/h | 14320m | 5.6m/s | -58.6°C | 5.6% | 141.4hPa | 2.8V | 00:00:00 | 00:00:00 | 00:00:00 | |
| S3001 | 2026-09-04 05:29:30 | 51.85997 | 15.19619 | 124° | 91km/h | 14309m | 5.7m/s | -58.7°C | 5.6% | 141.7hPa | 2.8V | 00:00:00 | 00:00:00 | 00:00:00 | |
| 13BRC | 2026-09-04 05:29:28 | 51.86010 | 15.19588 | 126° | 91km/h | 14305m | 4.6m/s | -58.9°C | 5.7% | 141.8hPa | 2.8V | 00:00:00 | 00:00:00 | 00:00:00 | |
| KRY50SP-1 | 2026-09-04 05:29:26 | 51.86037 | 15.19526 | 126° | 93km/h | 14295m | 5.1m/s | -59.0°C | 5.8% | 142.0hPa | 2.8V | 00:00:00 | 00:00:00 | 00:00:00 | |
| SQ6EMJ | 2026-09-04 05:29:24 | 51.86064 | 15.19461 | 124° | 99km/h | 14284m | 5.3m/s | 0°C | 0% | 0hPa | 2.8V | 00:00:00 | 00:00:00 | 00:00:00 | |
| KRY50SP-1 | 2026-09-04 05:29:20 | 51.86120 | 15.19319 | 122° | 106km/h | 14264m | 4.2m/s | -59.1°C | 5.9% | 142.7hPa | 2.8V | 00:00:00 | 00:00:00 | 00:00:00 | |
| POL2MAQ | 2026-09-04 05:29:19 | 51.86134 | 15.19282 | 122° | 104km/h | 14259m | 5.4m/s | 0°C | 0% | 0hPa | 2.8V | 00:00:00 | 00:00:00 | 00:00:00 | |
| EDDB2-11 | 2026-09-04 05:29:18 | 51.86160 | 15.19211 | 120° | 99km/h | 14249m | 4.7m/s | -59.1°C | 5.9% | 143.1hPa | 2.8V | 00:00:00 | 00:00:00 | 00:00:00 | |
| DAC517 | 2026-09-04 05:29:17 | 51.86160 | 15.19211 | 121° | 100km/h | 14249m | 4.7m/s | -59.1°C | 5.9% | 143.1hPa | 2.8V | 00:00:00 | 00:00:00 | 00:00:00 | |
| SP3WXH-11 | 2026-09-04 05:29:16 | 51.86199 | 15.19109 | 122° | 95km/h | 14234m | 4.9m/s | -59.2°C | 6.2% | 143.4hPa | 2.8V | 00:00:00 | 00:00:00 | 00:00:00 | |
| OE3JTB-15 | 2026-09-04 05:29:15 | 51.86199 | 15.19109 | 123° | 104km/h | 14234m | 4.8m/s | -59.2°C | 10.5% | 143.4hPa | 2.8V | 00:00:00 | 01:19:22 | 00:00:00 | |
| SP6BVK | 2026-09-04 05:29:14 | 51.86199 | 15.19109 | 124° | 97km/h | 14234m | 4.9m/s | -59.2°C | 6.2% | 143.4hPa | 2.8V | 00:00:00 | 00:00:00 | 00:00:00 | |
| SQ6EMJ | 2026-09-04 05:29:11 | 51.86253 | 15.18975 | 123° | 100km/h | 14214m | 5.1m/s | 0°C | 0% | 0hPa | 2.8V | 00:00:00 | 00:00:00 | 00:00:00 | |
| KRY50SP-1 | 2026-09-04 05:29:10 | 51.86253 | 15.18975 | 123° | 100km/h | 14214m | 5.1m/s | -59.5°C | 6.4% | 143.9hPa | 2.8V | 00:00:00 | 00:00:00 | 00:00:00 | |
| DM0DOS-11 | 2026-09-04 05:29:08 | 51.86330 | 15.18763 | 120° | 100km/h | 14182m | 5.1m/s | -59.6°C | 11.2% | 144.6hPa | 2.8V | 08:30:00 | 01:19:12 | 00:00:00 | |
| 13BRC | 2026-09-04 05:29:07 | 51.86292 | 15.18871 | 122° | 100km/h | 14198m | 5.7m/s | -59.5°C | 6.6% | 144.2hPa | 2.8V | 00:00:00 | 00:00:00 | 00:00:00 | |
| SQ6EMJ | 2026-09-04 05:29:05 | 51.86317 | 15.18799 | 120° | 100km/h | 14188m | 5.2m/s | 0°C | 0% | 0hPa | 2.8V | 00:00:00 | 00:00:00 | 00:00:00 | |
| KRY50SP-1 | 2026-09-04 05:29:04 | 51.86330 | 15.18763 | 121° | 100km/h | 14183m | 5.1m/s | -59.6°C | 6.6% | 144.6hPa | 2.8V | 00:00:00 | 00:00:00 | 00:00:00 | |
| SONDE2-11 | 2026-09-04 05:29:01 | 51.86384 | 15.18620 | 123° | 104km/h | 14161m | 4.6m/s | -59.8°C | 6.8% | 145.1hPa | 2.8V | 00:00:00 | 00:00:00 | 00:00:00 | |
| S3001 | 2026-09-04 05:28:59 | 51.86414 | 15.18547 | 123° | 108km/h | 14150m | 4.0m/s | -59.9°C | 6.9% | 145.3hPa | 2.8V | 00:00:00 | 00:00:00 | 00:00:00 | |
| POL2MAQ | 2026-09-04 05:28:58 | 51.86414 | 15.18547 | 124° | 108km/h | 14150m | 4.0m/s | 0°C | 0% | 0hPa | 2.8V | 00:00:00 | 00:00:00 | 00:00:00 | |
| DAC517 | 2026-09-04 05:28:57 | 51.86429 | 15.18510 | 125° | 108km/h | 14145m | 6.1m/s | -59.8°C | 7.0% | 145.4hPa | 2.8V | 00:00:00 | 00:00:00 | 00:00:00 | |
| DB0DAN | 2026-09-04 05:28:55 | 51.86473 | 15.18400 | 122° | 102km/h | 14130m | 4m/s | -59.9°C | 7.1% | 145.78hPa | 2.8V | 00:00:00 | 00:00:00 | 00:00:00 | |
| SQ6EMJ | 2026-09-04 05:28:55 | 51.86473 | 15.18400 | 123° | 108km/h | 14130m | 4.0m/s | 0°C | 0% | 0hPa | 2.8V | 00:00:00 | 00:00:00 | 00:00:00 | |
| DM0DOS-11 | 2026-09-04 05:28:54 | 51.86559 | 15.18171 | 120° | 110km/h | 14101m | 4.1m/s | -60°C | 12.1% | 146.5hPa | 2.8V | 08:30:00 | 01:18:56 | 00:00:00 | |
| SONCRA | 2026-09-04 05:28:51 | 51.86530 | 15.18248 | 121° | 110km/h | 14111m | 4.8m/s | -60.0°C | 7.3% | 146.3hPa | 2.7V | 00:00:00 | 00:00:00 | 00:00:00 | |
| EDDB2-11 | 2026-09-04 05:28:47 | 51.86586 | 15.18093 | 118° | 108km/h | 14091m | 5.1m/s | -60.1°C | 7.4% | 146.7hPa | 2.7V | 00:00:00 | 00:00:00 | 00:00:00 | |
| OE3JTB-15 | 2026-09-04 05:28:46 | 51.86599 | 15.18054 | 119° | 108km/h | 14086m | 5.2m/s | -60.2°C | 12.4% | 146.8hPa | 2.7V | 00:00:00 | 00:00:00 | 08:30:00 | |
| SP3WXH-11 | 2026-09-04 05:28:45 | 51.86625 | 15.17976 | 117° | 110km/h | 14077m | 5.5m/s | -60.4°C | 7.7% | 147.1hPa | 2.7V | 00:00:00 | 00:00:00 | 00:00:00 | |
| DM0DOS-11 | 2026-09-04 05:28:43 | 51.86689 | 15.17776 | 115° | 111km/h | 14053m | 3.2m/s | -60.2°C | 13% | 147.6hPa | 2.7V | 08:30:00 | 01:18:46 | 00:00:00 | |
| DF8AY | 2026-09-04 05:28:36 | 51.86781 | 15.17451 | 115° | 110km/h | 14012m | 5m/s | 0°C | 0% | 0hPa | 2.7V | 18:12:15 | 01:18:38 | 00:00:00 | |
| DM0DOS-11 | 2026-09-04 05:28:33 | 51.86803 | 15.17371 | 114° | 108km/h | 14002m | 5.3m/s | -60°C | 13.2% | 148.8hPa | 2.8V | 08:30:00 | 01:18:36 | 00:00:00 | |
| SP6BVK | 2026-09-04 05:28:32 | 51.86758 | 15.17532 | 115° | 108km/h | 14023m | 5.0m/s | -60.0°C | 8.0% | 148.3hPa | 2.8V | 00:00:00 | 00:00:00 | 00:00:00 | |
| KRY50SP-1 | 2026-09-04 05:28:31 | 51.86769 | 15.17491 | 115° | 110km/h | 14017m | 6.0m/s | -60.1°C | 8.1% | 148.5hPa | 2.8V | 00:00:00 | 00:00:00 | 00:00:00 | |
| SONDE2-11 | 2026-09-04 05:28:30 | 51.86792 | 15.17411 | 114° | 106km/h | 14007m | 4.9m/s | -60.1°C | 8.2% | 148.7hPa | 2.8V | 00:00:00 | 00:00:00 | 00:00:00 | |
| DB0DAN | 2026-09-04 05:28:25 | 51.86848 | 15.17213 | 114° | 100km/h | 13981m | 6.4m/s | -60°C | 8.2% | 149.32hPa | 2.8V | 00:00:00 | 00:00:00 | 00:00:00 | |
| DM0DOS-11 | 2026-09-04 05:28:23 | 51.86910 | 15.16977 | 112° | 104km/h | 13952m | 5.5m/s | -60.1°C | 13.3% | 150hPa | 2.8V | 08:30:00 | 01:18:26 | 00:00:00 | |
| KRY50SP-1 | 2026-09-04 05:28:21 | 51.86890 | 15.17056 | 114° | 106km/h | 13961m | 6.3m/s | -60.1°C | 8.3% | 149.8hPa | 2.8V | 00:00:00 | 00:00:00 | 00:00:00 | |
| SONCRA | 2026-09-04 05:28:20 | 51.86900 | 15.17016 | 112° | 104km/h | 13956m | 3.1m/s | -60.1°C | 8.4% | 149.9hPa | 2.8V | 00:00:00 | 00:00:00 | 00:00:00 | |
| OE3JTB-15 | 2026-09-04 05:28:17 | 51.86931 | 15.16899 | 114° | 95km/h | 13942m | 5.6m/s | -60.2°C | 13.8% | 150.2hPa | 2.8V | 00:00:00 | 00:00:00 | 00:00:00 | |
| KRY50SP-1 | 2026-09-04 05:28:16 | 51.86941 | 15.16860 | 115° | 104km/h | 13938m | 4.0m/s | -60.2°C | 8.8% | 150.4hPa | 2.8V | 00:00:00 | 00:00:00 | 00:00:00 | |
| SP3WXH-11 | 2026-09-04 05:28:14 | 51.86972 | 15.16747 | 113° | 97km/h | 13922m | 5.3m/s | -60.1°C | 8.9% | 150.7hPa | 2.8V | 00:00:00 | 00:00:00 | 00:00:00 | |
| DM0DOS-11 | 2026-09-04 05:28:11 | 51.87034 | 15.16500 | 112° | 93km/h | 13889m | 5.5m/s | -60°C | 14.4% | 151.6hPa | 2.8V | 08:30:00 | 01:18:13 | 00:00:00 | |
| DB0DAN | 2026-09-04 05:28:10 | 51.86999 | 15.16641 | 112° | 86km/h | 13909m | 4.9m/s | -60.1°C | 9% | 151.11hPa | 2.8V | 00:00:00 | 00:00:00 | 00:00:00 | |
| DB0NH | 2026-09-04 05:28:09 | 51.87007 | 15.16606 | 113° | 97km/h | 13904m | 3.7m/s | -60.0°C | 14.2% | 151.1hPa | 2.7V | 00:00:00 | 01:18:16 | 00:00:00 | |
| EDDB2-12 | 2026-09-04 05:28:06 | 51.87044 | 15.16465 | 112° | 95km/h | 13884m | 4.5m/s | -60.0°C | 9.2% | 151.7hPa | 2.7V | 00:00:00 | 00:00:00 | 00:00:00 | |
| 13BRC | 2026-09-04 05:28:05 | 51.87044 | 15.16465 | 114° | 95km/h | 13884m | 4.5m/s | -60.0°C | 9.2% | 151.7hPa | 2.7V | 00:00:00 | 00:00:00 | 00:00:00 | |
| SONDE2-11 | 2026-09-04 05:27:59 | 51.87100 | 15.16249 | 112° | 95km/h | 13856m | 3.5m/s | -59.8°C | 9.3% | 152.4hPa | 2.7V | 00:00:00 | 00:00:00 | 00:00:00 | |
| S3001 | 2026-09-04 05:27:57 | 51.87128 | 15.16143 | 112° | 93km/h | 13840m | 5.7m/s | -59.8°C | 9.6% | 152.8hPa | 2.7V | 00:00:00 | 00:00:00 | 00:00:00 | |
| DB0DAN | 2026-09-04 05:27:55 | 51.87137 | 15.16107 | 114° | 89km/h | 13836m | 3.3m/s | -59.8°C | 9.7% | 152.87hPa | 2.7V | 00:00:00 | 00:00:00 | 00:00:00 | |
| KRY50SP-1 | 2026-09-04 05:27:55 | 51.87137 | 15.16107 | 115° | 95km/h | 13836m | 3.3m/s | -59.8°C | 9.7% | 152.9hPa | 2.8V | 00:00:00 | 00:00:00 | 00:00:00 | |
| SP6BVK | 2026-09-04 05:27:51 | 51.87167 | 15.16003 | 117° | 95km/h | 13822m | 5.9m/s | -59.8°C | 9.9% | 153.2hPa | 2.8V | 00:00:00 | 00:00:00 | 00:00:00 | |
| DM0DOS-11 | 2026-09-04 05:27:50 | 51.87246 | 15.15755 | 117° | 99km/h | 13785m | 3.9m/s | -60.3°C | 16.4% | 154.1hPa | 2.8V | 08:30:00 | 01:17:52 | 00:00:00 | |
| SONCRA | 2026-09-04 05:27:49 | 51.87200 | 15.15897 | 117° | 95km/h | 13807m | 4.7m/s | -60.0°C | 10.1% | 153.6hPa | 2.7V | 00:00:00 | 00:00:00 | 00:00:00 | |
| EDDB2-11 | 2026-09-04 05:27:45 | 51.87246 | 15.15755 | 117° | 99km/h | 13785m | 3.9m/s | -60.3°C | 10.9% | 154.1hPa | 2.7V | 00:00:00 | 00:00:00 | 00:00:00 | |
| AA1-15 | 2026-09-04 05:27:41 | 51.87293 | 15.15609 | 119° | 102km/h | 13766m | 3.8m/s | -60.3°C | 15.6% | 154.6hPa | 2.7V | 18:12:15 | 01:17:48 | 00:00:00 | |
| DB0DAN | 2026-09-04 05:27:40 | 51.87306 | 15.15573 | 120° | 99km/h | 13761m | 5.8m/s | -60.3°C | 11.9% | 154.7hPa | 2.7V | 00:00:00 | 00:00:00 | 00:00:00 | |
| KRY50SP-1 | 2026-09-04 05:27:39 | 51.87319 | 15.15536 | 121° | 102km/h | 13756m | 4.5m/s | -60.3°C | 11.9% | 154.8hPa | 2.7V | 00:00:00 | 00:00:00 | 00:00:00 | |
| DB0NH | 2026-09-04 05:27:38 | 51.87332 | 15.15500 | 121° | 97km/h | 13751m | 5.0m/s | -60.2°C | 17.7% | 154.9hPa | 2.7V | 00:00:00 | 01:17:45 | 08:30:00 | |
| DM0DOS-11 | 2026-09-04 05:27:36 | 51.87371 | 15.15392 | 120° | 102km/h | 13736m | 6.4m/s | -60.3°C | 18.2% | 155.3hPa | 2.7V | 08:30:00 | 01:17:42 | 00:00:00 | |
| EDDB2-12 | 2026-09-04 05:27:35 | 51.87384 | 15.15357 | 120° | 99km/h | 13731m | 4.4m/s | -60.2°C | 12.6% | 155.4hPa | 2.7V | 00:00:00 | 00:00:00 | 00:00:00 | |
| KRY50SP-1 | 2026-09-04 05:27:34 | 51.87384 | 15.15356 | 121° | 100km/h | 13731m | 4.4m/s | -60.2°C | 12.6% | 155.4hPa | 2.7V | 00:00:00 | 00:00:00 | 00:00:00 | |
| DM0DOS-11 | 2026-09-04 05:27:30 | 51.87497 | 15.15047 | 123° | 97km/h | 13684m | 3.3m/s | -60.5°C | 21.3% | 156.6hPa | 2.7V | 08:30:00 | 01:17:32 | 00:00:00 | |
| AA1-15 | 2026-09-04 05:27:24 | 51.87511 | 15.15015 | 125° | 97km/h | 13680m | 6.1m/s | -60.6°C | 20.7% | 156.7hPa | 2.8V | 18:12:15 | 01:17:31 | 00:00:00 | |
| 13BRC | 2026-09-04 05:27:23 | 51.87511 | 15.15014 | 126° | 97km/h | 13680m | 6.1m/s | -60.6°C | 15.2% | 156.7hPa | 2.7V | 00:00:00 | 00:00:00 | 00:00:00 | |
| KRY50SP-1 | 2026-09-04 05:27:22 | 51.87524 | 15.14983 | 127° | 95km/h | 13675m | 3.7m/s | -60.5°C | 15.5% | 156.9hPa | 2.7V | 00:00:00 | 00:00:00 | 00:00:00 | |
| DM0DOS-11 | 2026-09-04 05:27:16 | 51.87639 | 15.14729 | 126° | 97km/h | 13633m | 5.2m/s | -60.7°C | 25.4% | 157.9hPa | 2.7V | 08:30:00 | 01:17:22 | 00:00:00 | |
| AA1-15 | 2026-09-04 05:27:13 | 51.87669 | 15.14665 | 127° | 99km/h | 13623m | 4.7m/s | -60.7°C | 26.1% | 158.2hPa | 2.7V | 18:12:15 | 01:17:20 | 00:00:00 | |
| KRY50SP-1 | 2026-09-04 05:27:11 | 51.87684 | 15.14633 | 130° | 99km/h | 13620m | 2.6m/s | -60.8°C | 20.3% | 158.3hPa | 2.8V | 00:00:00 | 00:00:00 | 00:00:00 | |
| DM0DOS-11 | 2026-09-04 05:27:10 | 51.87801 | 15.14427 | 133° | 100km/h | 13582m | 4m/s | -60.7°C | 31.6% | 159.2hPa | 2.8V | 08:30:00 | 01:17:12 | 00:00:00 | |
| OE3JTB-15 | 2026-09-04 05:27:09 | 51.87734 | 15.14543 | 133° | 115km/h | 13603m | 6.1m/s | -60.7°C | 28.8% | 158.6hPa | 2.7V | 00:00:00 | 00:00:00 | 00:00:00 | |
| KRY50SP-1 | 2026-09-04 05:27:07 | 51.87767 | 15.14485 | 134° | 97km/h | 13592m | 4.4m/s | -60.7°C | 22.8% | 158.9hPa | 2.7V | 00:00:00 | 00:00:00 | 00:00:00 | |
| DL2RXE-15 | 2026-09-04 05:27:06 | 51.87767 | 15.14485 | 134° | 97km/h | 13592m | 4.4m/s | -60.7°C | 22.8% | 158.9hPa | 2.7V | 00:00:00 | 00:00:00 | 00:00:00 | |
| EDDB2-12 | 2026-09-04 05:27:04 | 51.87834 | 15.14363 | 126° | 106km/h | 13572m | 3.5m/s | -60.9°C | 25.3% | 159.4hPa | 2.7V | 00:00:00 | 00:00:00 | 00:00:00 | |
| 13BRC | 2026-09-04 05:27:02 | 51.87834 | 15.14363 | 128° | 108km/h | 13572m | 3.5m/s | -60.9°C | 25.3% | 159.4hPa | 2.7V | 00:00:00 | 00:00:00 | 00:00:00 | |
| SONDE2-11 | 2026-09-04 05:26:57 | 51.87947 | 15.14144 | 136° | 113km/h | 13535m | 10.6m/s | -61.2°C | 28.5% | 160.3hPa | 2.7V | 00:00:00 | 00:00:00 | 00:00:00 | |
| DM0DOS-11 | 2026-09-04 05:26:56 | 51.87989 | 15.14082 | 138° | 110km/h | 13519m | 4.7m/s | -61.5°C | 39.8% | 160.8hPa | 2.7V | 08:30:00 | 01:17:02 | 00:00:00 | |
| AA1-15 | 2026-09-04 05:26:53 | 51.88031 | 15.14021 | 137° | 115km/h | 13508m | 5.9m/s | -61.6°C | 42.7% | 161hPa | 2.8V | 18:12:15 | 01:17:00 | 00:00:00 | |
| SONCRA | 2026-09-04 05:26:47 | 51.88159 | 15.13809 | 133° | 120km/h | 13478m | 5.8m/s | -62.1°C | 36.7% | 161.9hPa | 2.7V | 00:00:00 | 00:00:00 | 00:00:00 | |
| AA1-15 | 2026-09-04 05:26:42 | 51.88266 | 15.13627 | 135° | 126km/h | 13454m | 4.4m/s | -62.3°C | 53.2% | 162.6hPa | 2.7V | 18:12:15 | 01:16:49 | 00:00:00 | |
| 13BRC | 2026-09-04 05:26:41 | 51.88266 | 15.13627 | 136° | 126km/h | 13454m | 4.4m/s | -62.3°C | 41.3% | 162.6hPa | 2.8V | 00:00:00 | 00:00:00 | 00:00:00 | |
| OE3JTB-15 | 2026-09-04 05:26:40 | 51.88312 | 15.13552 | 135° | 141km/h | 13444m | 6.0m/s | -62.4°C | 53.7% | 162.8hPa | 2.8V | 00:00:00 | 00:00:00 | 00:00:00 | |
| DL2RXE-15 | 2026-09-04 05:26:39 | 51.88312 | 15.13552 | 135° | 131km/h | 13444m | 6.1m/s | -62.5°C | 43.2% | 162.8hPa | 2.8V | 00:00:00 | 00:00:00 | 00:00:00 | |
| DM0DOS-11 | 2026-09-04 05:26:36 | 51.88430 | 15.13359 | 135° | 135km/h | 13418m | 4.8m/s | -62.9°C | 59.5% | 163.5hPa | 2.8V | 08:30:00 | 01:16:42 | 00:00:00 | |
| DAC517 | 2026-09-04 05:26:34 | 51.88430 | 15.13359 | 136° | 135km/h | 13418m | 4.8m/s | -62.9°C | 48.3% | 163.5hPa | 2.7V | 00:00:00 | 00:00:00 | 00:00:00 | |
| EDDB2-12 | 2026-09-04 05:26:33 | 51.88503 | 15.13244 | 136° | 135km/h | 13404m | 6.4m/s | -63.6°C | 52.8% | 163.9hPa | 2.7V | 00:00:00 | 00:00:00 | 00:00:00 | |
| DM0DOS-11 | 2026-09-04 05:26:30 | 51.88680 | 15.12971 | 134° | 141km/h | 13369m | 4.4m/s | 0°C | 0% | 0hPa | 2.7V | 08:30:00 | 01:16:32 | 00:00:00 | |
| AA1-15 | 2026-09-04 05:26:30 | 51.88554 | 15.13168 | 137° | 137km/h | 13393m | 5.7m/s | -64°C | 66% | 164.2hPa | 2.7V | 18:12:15 | 01:16:37 | 00:00:00 | |
| SP6BVK | 2026-09-04 05:26:29 | 51.88553 | 15.13168 | 138° | 137km/h | 13394m | 5.7m/s | -64.0°C | 55.5% | 164.2hPa | 2.8V | 00:00:00 | 00:00:00 | 00:00:00 | |
| KRY50SP-1 | 2026-09-04 05:26:28 | 51.88579 | 15.13129 | 138° | 139km/h | 13389m | 4.4m/s | -64.2°C | 56.6% | 164.3hPa | 2.8V | 00:00:00 | 00:00:00 | 00:00:00 | |
| SONDE2-11 | 2026-09-04 05:26:26 | 51.88655 | 15.13011 | 135° | 139km/h | 13374m | 4.8m/s | -64.8°C | 61.6% | 164.7hPa | 2.8V | 00:00:00 | 00:00:00 | 00:00:00 | |
| KRY50SP-1 | 2026-09-04 05:26:22 | 51.88731 | 15.12887 | 135° | 146km/h | 13359m | 4.8m/s | -64.9°C | 62.7% | 165.1hPa | 2.8V | 00:00:00 | 00:00:00 | 00:00:00 | |
| 13BRC | 2026-09-04 05:26:21 | 51.88756 | 15.12844 | 135° | 146km/h | 13353m | 6.3m/s | -65.0°C | 63.1% | 165.3hPa | 2.8V | 00:00:00 | 00:00:00 | 00:00:00 | |
| DL2RXE-15 | 2026-09-04 05:26:18 | 51.88832 | 15.12712 | 134° | 148km/h | 13338m | 4.1m/s | -65.1°C | 63.0% | 165.7hPa | 2.8V | 00:00:00 | 00:00:00 | 00:00:00 | |
| DM0DOS-11 | 2026-09-04 05:26:16 | 51.88932 | 15.12536 | 132° | 144km/h | 13317m | 5.8m/s | 0°C | 0% | 0hPa | 2.8V | 08:30:00 | 01:16:22 | 00:00:00 | |
| SONCRA | 2026-09-04 05:26:16 | 51.88908 | 15.12580 | 132° | 146km/h | 13323m | 4.9m/s | -65.2°C | 62.9% | 166.1hPa | 2.8V | 00:00:00 | 00:00:00 | 00:00:00 | |
| DAC517 | 2026-09-04 05:26:13 | 51.88957 | 15.12492 | 133° | 142km/h | 13312m | 5.0m/s | -65.2°C | 63.7% | 166.4hPa | 2.8V | 00:00:00 | 00:00:00 | 00:00:00 | |
| EDDB2-11 | 2026-09-04 05:26:12 | 51.89004 | 15.12404 | 130° | 142km/h | 13301m | 4.6m/s | -65.3°C | 64.9% | 166.7hPa | 2.8V | 00:00:00 | 00:00:00 | 00:00:00 | |
| OE3JTB-15 | 2026-09-04 05:26:11 | 51.89027 | 15.12359 | 130° | 144km/h | 13297m | 5.3m/s | -65.3°C | 78.8% | 166.7hPa | 2.8V | 00:00:00 | 01:16:18 | 00:00:00 | |
| DM0DOS-11 | 2026-09-04 05:26:10 | 51.89164 | 15.12089 | 130° | 144km/h | 13267m | 4.4m/s | 0°C | 0% | 0hPa | 2.8V | 08:30:00 | 01:16:12 | 00:00:00 | |
| SP3WXH-11 | 2026-09-04 05:26:10 | 51.89073 | 15.12270 | 128° | 141km/h | 13287m | 4.8m/s | -65.3°C | 65.7% | 167.1hPa | 2.7V | 00:00:00 | 00:00:00 | 00:00:00 | |
| SP6BVK | 2026-09-04 05:26:08 | 51.89072 | 15.12270 | 130° | 142km/h | 13287m | 4.8m/s | -65.3°C | 65.8% | 167.0hPa | 2.7V | 00:00:00 | 00:00:00 | 00:00:00 | |
| DB0NH | 2026-09-04 05:26:06 | 51.89141 | 15.12134 | 130° | 146km/h | 13272m | 4.7m/s | -65.3°C | 82.4% | 167.4hPa | 2.7V | 00:00:00 | 01:16:13 | 00:00:00 | |
| KRY50SP-1 | 2026-09-04 05:26:05 | 51.89141 | 15.12134 | 131° | 144km/h | 13272m | 4.7m/s | -65.3°C | 67.5% | 167.5hPa | 2.7V | 00:00:00 | 00:00:00 | 00:00:00 | |
| EDDB2-12 | 2026-09-04 05:26:02 | 51.89260 | 15.11909 | 130° | 142km/h | 13247m | 4.8m/s | -65.9°C | 68.2% | 168.1hPa | 2.7V | 00:00:00 | 00:00:00 | 00:00:00 | |
| KRY50SP-1 | 2026-09-04 05:26:00 | 51.89260 | 15.11909 | 132° | 142km/h | 13248m | 4.8m/s | -65.9°C | 68.3% | 168.1hPa | 2.7V | 00:00:00 | 00:00:00 | 00:00:00 | |
| DM0DOS-11 | 2026-09-04 05:25:56 | 51.89396 | 15.11646 | 129° | 139km/h | 13216m | 3.6m/s | 0°C | 0% | 0hPa | 2.7V | 08:30:00 | 01:16:02 | 00:00:00 | |
| SONDE2-11 | 2026-09-04 05:25:55 | 51.89418 | 15.11603 | 130° | 139km/h | 13211m | 5.9m/s | -65.9°C | 66.2% | 169.1hPa | 2.8V | 00:00:00 | 00:00:00 | 00:00:00 | |
| S3001 | 2026-09-04 05:25:53 | 51.89592 | 15.11293 | 131° | 148km/h | 13175m | 5.2m/s | -65.6°C | 64.1% | 170.0hPa | 2.8V | 00:00:00 | 00:00:00 | 00:00:00 | |
| DM0DOS-11 | 2026-09-04 05:25:50 | 51.89643 | 15.11199 | 130° | 151km/h | 13163m | 5.2m/s | 0°C | 0% | 0hPa | 2.8V | 08:30:00 | 01:15:52 | 00:00:00 | |
| SONCRA | 2026-09-04 05:25:45 | 51.89643 | 15.11199 | 130° | 151km/h | 13163m | 5.2m/s | -65.6°C | 62.5% | 170.3hPa | 2.7V | 00:00:00 | 00:00:00 | 00:00:00 | |
| DF8AY | 2026-09-04 05:25:37 | 51.89835 | 15.10811 | 129° | 159km/h | 13120m | 6.2m/s | -65.3°C | 68.9% | 171.7hPa | 2.7V | 18:12:15 | 01:15:44 | 00:00:00 | |
| DM0DOS-11 | 2026-09-04 05:25:36 | 51.89912 | 15.10661 | 129° | 157km/h | 13105m | 5.1m/s | 0°C | 0% | 0hPa | 2.8V | 08:30:00 | 01:15:41 | 00:00:00 | |
| DF8AY | 2026-09-04 05:25:27 | 51.90092 | 15.10309 | 129° | 161km/h | 13068m | 5.8m/s | -65.2°C | 70.3% | 173.1hPa | 2.8V | 18:12:15 | 01:15:34 | 00:00:00 | |
| SONDE2-11 | 2026-09-04 05:25:24 | 51.90195 | 15.10107 | 129° | 161km/h | 13048m | 6.3m/s | -65.2°C | 64.2% | 173.7hPa | 2.8V | 00:00:00 | 00:00:00 | 00:00:00 | |
| KRY50SP-1 | 2026-09-04 05:25:22 | 51.90195 | 15.10107 | 131° | 161km/h | 13048m | 6.3m/s | -65.2°C | 64.2% | 173.7hPa | 2.8V | 00:00:00 | 00:00:00 | 00:00:00 | |
| DM0DOS-11 | 2026-09-04 05:25:21 | 51.90326 | 15.09846 | 128° | 166km/h | 13020m | 3.6m/s | 0°C | 0% | 0hPa | 2.8V | 08:30:00 | 01:15:25 | 00:00:00 | |
| AA1-15 | 2026-09-04 05:25:20 | 51.90274 | 15.09952 | 129° | 166km/h | 13031m | 3.6m/s | -65.2°C | 70.4% | 174.2hPa | 2.7V | 18:12:15 | 01:15:27 | 00:00:00 | |
| DF8AY | 2026-09-04 05:25:16 | 51.90379 | 15.09738 | 128° | 170km/h | 13011m | 4.1m/s | -65.1°C | 70.3% | 174.8hPa | 2.7V | 18:12:15 | 01:15:23 | 00:00:00 | |
| SONCRA | 2026-09-04 05:25:14 | 51.90432 | 15.09629 | 127° | 168km/h | 13000m | 3.6m/s | -65.1°C | 65.9% | 175.1hPa | 2.8V | 00:00:00 | 00:00:00 | 00:00:00 | |
| OE3JTB-15 | 2026-09-04 05:25:13 | 51.90458 | 15.09574 | 129° | 172km/h | 12995m | 6.8m/s | 0°C | 0% | 0hPa | 2.8V | 00:00:00 | 00:00:00 | 00:00:00 | |
| DB0DAN | 2026-09-04 05:25:10 | 51.90538 | 15.09410 | 128° | 164km/h | 12979m | 6.1m/s | -65°C | 66% | 175.64hPa | 2.8V | 00:00:00 | 00:00:00 | 00:00:00 | |
| DF8AY | 2026-09-04 05:25:10 | 51.90672 | 15.09130 | 127° | 173km/h | 12953m | 4.2m/s | -64.9°C | 70.8% | 176.4hPa | 2.7V | 18:12:15 | 01:15:12 | 00:00:00 | |
| SP3WXH-11 | 2026-09-04 05:25:07 | 51.90618 | 15.09243 | 127° | 172km/h | 12963m | 4.6m/s | -64.9°C | 66.9% | 176.1hPa | 2.7V | 00:00:00 | 00:00:00 | 00:00:00 | |
| DB0NH | 2026-09-04 05:25:06 | 51.90645 | 15.09186 | 128° | 170km/h | 12958m | 5.5m/s | -64.9°C | 82.0% | 176.2hPa | 2.7V | 00:00:00 | 01:15:13 | 00:00:00 | |
| NBG1-10 | 2026-09-04 05:25:05 | 51.90671 | 15.09130 | 128° | 172km/h | 12953m | 4.1m/s | -64.9°C | 82.1% | 176.3hPa | 2.7V | 00:00:00 | 01:15:12 | 00:00:00 | |
| EDDB2-12 | 2026-09-04 05:25:00 | 51.90826 | 15.08796 | 125° | 166km/h | 12923m | 2.9m/s | -64.8°C | 67.0% | 177.3hPa | 2.7V | 00:00:00 | 00:00:00 | 00:00:00 | |
| DL2RXE-15 | 2026-09-04 05:24:59 | 51.90801 | 15.08851 | 127° | 168km/h | 12928m | 6.4m/s | -64.8°C | 67.0% | 177.1hPa | 2.7V | 00:00:00 | 00:00:00 | 00:00:00 | |
| 13BRC | 2026-09-04 05:24:58 | 51.90825 | 15.08796 | 127° | 168km/h | 12923m | 2.9m/s | -64.8°C | 67.0% | 177.3hPa | 2.7V | 00:00:00 | 00:00:00 | 00:00:00 | |
| DB0DAN | 2026-09-04 05:24:55 | 51.90928 | 15.08572 | 127° | 164km/h | 12904m | 4.6m/s | -64.7°C | 66.1% | 177.81hPa | 2.7V | 00:00:00 | 00:00:00 | 00:00:00 | |
| DF8AY | 2026-09-04 05:24:54 | 51.90954 | 15.08515 | 127° | 175km/h | 12899m | 5.8m/s | -64.7°C | 70.5% | 178hPa | 2.7V | 18:12:15 | 01:15:01 | 00:00:00 | |
| SONDE2-11 | 2026-09-04 05:24:53 | 51.91007 | 15.08401 | 126° | 173km/h | 12889m | 5.3m/s | -64.7°C | 66.7% | 178.2hPa | 2.8V | 00:00:00 | 00:00:00 | 00:00:00 | |
| DF8AY | 2026-09-04 05:24:48 | 51.91238 | 15.07900 | 126° | 168km/h | 12847m | 4.1m/s | -64.5°C | 68.8% | 179.5hPa | 2.8V | 18:12:15 | 01:14:50 | 00:00:00 | |
| SP6BVK | 2026-09-04 05:24:46 | 51.91137 | 15.08122 | 128° | 168km/h | 12865m | 6.1m/s | -64.6°C | 65.6% | 178.9hPa | 2.7V | 00:00:00 | 00:00:00 | 00:00:00 | |
| KRY50SP-1 | 2026-09-04 05:24:45 | 51.91188 | 15.08011 | 127° | 170km/h | 12857m | 4.4m/s | -64.6°C | 65.0% | 179.2hPa | 2.7V | 00:00:00 | 00:00:00 | 00:00:00 | |
| OE3JTB-15 | 2026-09-04 05:24:44 | 51.91213 | 15.07955 | 126° | 170km/h | 12852m | 6.0m/s | 0°C | 0% | 0hPa | 2.7V | 00:00:00 | 01:14:51 | 00:00:00 | |
| DB0DAN | 2026-09-04 05:24:40 | 51.91314 | 15.07734 | 126° | 161km/h | 12831m | 4.8m/s | -64.5°C | 65.5% | 179.96hPa | 2.7V | 00:00:00 | 00:00:00 | 00:00:00 | |
| EDDB2-11 | 2026-09-04 05:24:39 | 51.91339 | 15.07678 | 126° | 170km/h | 12826m | 5.8m/s | -64.4°C | 65.4% | 180.1hPa | 2.8V | 00:00:00 | 00:00:00 | 00:00:00 | |
| DM0DOS-11 | 2026-09-04 05:24:38 | 51.91417 | 15.07509 | 125° | 173km/h | 12812m | 3.9m/s | 0°C | 0% | 0hPa | 2.8V | 08:30:00 | 01:14:43 | 00:00:00 | |
| DF8AY | 2026-09-04 05:24:32 | 51.91519 | 15.07281 | 126° | 170km/h | 12794m | 4.5m/s | -64.2°C | 68.9% | 181hPa | 2.7V | 18:12:15 | 01:14:39 | 00:00:00 | |
| NBG1-10 | 2026-09-04 05:24:32 | 51.91519 | 15.07280 | 126° | 162km/h | 12795m | 4.4m/s | -64.1°C | 81.4% | 180.9hPa | 2.7V | 00:00:00 | 01:14:39 | 08:30:00 | |
| DAC517 | 2026-09-04 05:24:29 | 51.91569 | 15.07168 | 126° | 168km/h | 12785m | 4.0m/s | -64.0°C | 66.6% | 181.3hPa | 2.8V | 00:00:00 | 00:00:00 | 00:00:00 | |
| EDDB2-12 | 2026-09-04 05:24:28 | 51.91618 | 15.07056 | 124° | 168km/h | 12774m | 4.1m/s | -64.0°C | 66.7% | 181.6hPa | 2.8V | 00:00:00 | 00:00:00 | 00:00:00 | |
| KRY50SP-1 | 2026-09-04 05:24:27 | 51.91618 | 15.07056 | 126° | 168km/h | 12775m | 4.1m/s | -64.0°C | 66.7% | 181.6hPa | 2.8V | 00:00:00 | 00:00:00 | 00:00:00 | |
| DB0DAN | 2026-09-04 05:24:25 | 51.91691 | 15.06885 | 124° | 162km/h | 12761m | 6m/s | -63.9°C | 65.5% | 182.05hPa | 2.8V | 00:00:00 | 00:00:00 | 00:00:00 | |
| DF8AY | 2026-09-04 05:24:22 | 51.91765 | 15.06715 | 125° | 170km/h | 12745m | 6.1m/s | -63.8°C | 68.4% | 182.5hPa | 2.8V | 18:12:15 | 01:14:29 | 00:00:00 | |
| SONDE2-11 | 2026-09-04 05:24:22 | 51.91790 | 15.06658 | 125° | 170km/h | 12740m | 3.2m/s | -63.7°C | 65.9% | 182.7hPa | 2.8V | 00:00:00 | 00:00:00 | 00:00:00 | |
| DM0DOS-11 | 2026-09-04 05:24:21 | 51.91914 | 15.06378 | 125° | 166km/h | 12715m | 6.3m/s | 0°C | 0% | 0hPa | 2.8V | 08:30:00 | 01:14:23 | 00:00:00 | |
| DF8AY | 2026-09-04 05:24:11 | 51.92032 | 15.06098 | 124° | 166km/h | 12690m | 4.5m/s | -63.3°C | 67.8% | 184.1hPa | 2.8V | 18:12:15 | 01:14:18 | 00:00:00 | |
| DB0DAN | 2026-09-04 05:24:10 | 51.92056 | 15.06041 | 124° | 161km/h | 12685m | 5.5m/s | -63.2°C | 64.3% | 184.26hPa | 2.8V | 00:00:00 | 00:00:00 | 00:00:00 | |
| DM0DOS-11 | 2026-09-04 05:24:08 | 51.92153 | 15.05815 | 124° | 170km/h | 12665m | 5.1m/s | 0°C | 0% | 0hPa | 2.8V | 08:30:00 | 01:14:13 | 00:00:00 | |
| DF8AY | 2026-09-04 05:24:00 | 51.92300 | 15.05479 | 124° | 166km/h | 12635m | 3.4m/s | -62.8°C | 67.2% | 185.7hPa | 2.8V | 18:12:15 | 01:14:07 | 00:00:00 | |
| EDDB2-12 | 2026-09-04 05:23:58 | 51.92370 | 15.05309 | 123° | 166km/h | 12621m | 3.5m/s | -62.7°C | 63.0% | 186.2hPa | 2.8V | 00:00:00 | 00:00:00 | 00:00:00 | |
| 13BRC | 2026-09-04 05:23:57 | 51.92347 | 15.05366 | 124° | 166km/h | 12625m | 5.0m/s | -62.7°C | 62.9% | 186.0hPa | 2.8V | 00:00:00 | 00:00:00 | 00:00:00 | |
| DB0DAN | 2026-09-04 05:23:55 | 51.92416 | 15.05193 | 123° | 161km/h | 12611m | 3.7m/s | -62.6°C | 64% | 186.47hPa | 2.8V | 00:00:00 | 00:00:00 | 00:00:00 | |
| KRY50SP-1 | 2026-09-04 05:23:53 | 51.92463 | 15.05078 | 125° | 168km/h | 12602m | 3.0m/s | -62.5°C | 64.8% | 186.8hPa | 2.8V | 00:00:00 | 00:00:00 | 00:00:00 | |
| DM0DOS-11 | 2026-09-04 05:23:50 | 51.92654 | 15.04627 | 124° | 166km/h | 12565m | 3.9m/s | 0°C | 0% | 0hPa | 2.8V | 00:00:00 | 01:13:52 | 00:00:00 | |
| DF8AY | 2026-09-04 05:23:50 | 51.92535 | 15.04907 | 125° | 168km/h | 12588m | 6.4m/s | 0°C | 0% | 187.2hPa | 2.8V | 18:12:15 | 01:13:57 | 00:00:00 | |
| DAC517 | 2026-09-04 05:23:47 | 51.92583 | 15.04795 | 126° | 166km/h | 12579m | 5.2m/s | -62.4°C | 64.0% | 187.5hPa | 2.8V | 00:00:00 | 00:00:00 | 00:00:00 | |
| DL2RXE-15 | 2026-09-04 05:23:45 | 51.92630 | 15.04683 | 125° | 166km/h | 12570m | 5.5m/s | -62.3°C | 62.8% | 187.8hPa | 2.8V | 00:00:00 | 00:00:00 | 00:00:00 | |
| SP6BVK | 2026-09-04 05:23:43 | 51.92678 | 15.04570 | 125° | 168km/h | 12560m | 6.0m/s | -62.3°C | 62.0% | 188.0hPa | 2.8V | 00:00:00 | 00:00:00 | 00:00:00 | |
| DB0DAN | 2026-09-04 05:23:40 | 51.92774 | 15.04340 | 125° | 162km/h | 12540m | 3.5m/s | -62.1°C | 61.7% | 188.69hPa | 2.8V | 00:00:00 | 00:00:00 | 00:00:00 | |
| DF8AY | 2026-09-04 05:23:39 | 51.92799 | 15.04283 | 125° | 170km/h | 12536m | 5.8m/s | 0°C | 0% | 0hPa | 2.8V | 18:12:15 | 01:13:46 | 00:00:00 | |
| DM0DOS-11 | 2026-09-04 05:23:38 | 51.92897 | 15.04065 | 125° | 162km/h | 12517m | 5.4m/s | 0°C | 0% | 0hPa | 2.8V | 00:00:00 | 01:13:42 | 00:00:00 | |
| DF8AY | 2026-09-04 05:23:29 | 51.93039 | 15.03742 | 126° | 162km/h | 12489m | 5.1m/s | 0°C | 0% | 0hPa | 2.8V | 18:12:15 | 01:13:36 | 00:00:00 | |
| DB0DAN | 2026-09-04 05:23:25 | 51.93135 | 15.03528 | 126° | 153km/h | 12469m | 6.2m/s | -61.5°C | 60.4% | 190.89hPa | 2.7V | 00:00:00 | 00:00:00 | 00:00:00 | |
| DF8AY | 2026-09-04 05:23:18 | 51.93302 | 15.03149 | 125° | 164km/h | 12434m | 3.3m/s | 0°C | 0% | 0hPa | 2.8V | 18:12:15 | 01:13:25 | 00:00:00 | |
| 13BRC | 2026-09-04 05:23:15 | 51.93349 | 15.03039 | 127° | 164km/h | 12425m | 4.7m/s | -61.2°C | 58.6% | 192.1hPa | 2.7V | 00:00:00 | 00:00:00 | 00:00:00 | |
| KRY50SP-1 | 2026-09-04 05:23:13 | 51.93398 | 15.02930 | 127° | 162km/h | 12415m | 5.8m/s | -61.1°C | 58.5% | 192.5hPa | 2.7V | 00:00:00 | 00:00:00 | 00:00:00 | |
| DB0DAN | 2026-09-04 05:23:10 | 51.93494 | 15.02718 | 126° | 151km/h | 12396m | 4.9m/s | -60.9°C | 58.8% | 193hPa | 2.7V | 00:00:00 | 00:00:00 | 00:00:00 | |
| AA1-15 | 2026-09-04 05:23:08 | 51.93541 | 15.02612 | 126° | 161km/h | 12387m | 5.4m/s | -60.8°C | 64.4% | 193.3hPa | 2.8V | 18:12:15 | 01:13:15 | 00:00:00 | |
| EDDB2-11 | 2026-09-04 05:23:06 | 51.93588 | 15.02504 | 125° | 164km/h | 12378m | 5.3m/s | -60.8°C | 60.7% | 193.6hPa | 2.8V | 00:00:00 | 00:00:00 | 00:00:00 | |
| DL2RXE-15 | 2026-09-04 05:23:04 | 51.93612 | 15.02448 | 126° | 166km/h | 12374m | 3.0m/s | -60.7°C | 61.0% | 193.7hPa | 2.8V | 00:00:00 | 00:00:00 | 00:00:00 | |
| KRY50SP-1 | 2026-09-04 05:23:02 | 51.93661 | 15.02338 | 127° | 166km/h | 12365m | 3.6m/s | -60.7°C | 61.5% | 194.1hPa | 2.8V | 00:00:00 | 00:00:00 | 00:00:00 | |
| SP6BVK | 2026-09-04 05:23:01 | 51.93686 | 15.02283 | 128° | 164km/h | 12361m | 3.6m/s | -60.7°C | 60.9% | 194.2hPa | 2.8V | 00:00:00 | 00:00:00 | 00:00:00 | |
| KRY50SP-1 | 2026-09-04 05:22:58 | 51.93785 | 15.02068 | 128° | 162km/h | 12342m | 3.9m/s | -60.5°C | 60.3% | 194.8hPa | 2.8V | 00:00:00 | 00:00:00 | 00:00:00 | |
| AA1-15 | 2026-09-04 05:22:58 | 51.93809 | 15.02014 | 126° | 162km/h | 12338m | 5.3m/s | -60.5°C | 64% | 194.9hPa | 2.7V | 18:12:15 | 01:13:04 | 00:00:00 | |
| DB0DAN | 2026-09-04 05:22:55 | 51.93858 | 15.01906 | 126° | 157km/h | 12328m | 6m/s | -60.5°C | 59.1% | 195.2hPa | 2.8V | 00:00:00 | 00:00:00 | 00:00:00 | |
| AA1-15 | 2026-09-04 05:22:47 | 51.94051 | 15.01474 | 126° | 159km/h | 12293m | 5.7m/s | -60.3°C | 62.7% | 196.3hPa | 2.7V | 18:12:15 | 01:12:54 | 00:00:00 | |
| DB0NH | 2026-09-04 05:22:47 | 51.94051 | 15.01474 | 126° | 161km/h | 12293m | 5.6m/s | -60.2°C | 70.0% | 196.2hPa | 2.7V | 00:00:00 | 01:12:54 | 00:00:00 | |
| KRY50SP-1 | 2026-09-04 05:22:46 | 51.94051 | 15.01474 | 126° | 159km/h | 12293m | 5.7m/s | -60.3°C | 58.2% | 196.3hPa | 2.7V | 00:00:00 | 00:00:00 | 00:00:00 | |
| DAC517 | 2026-09-04 05:22:45 | 51.94075 | 15.01421 | 127° | 159km/h | 12288m | 3.2m/s | -60.2°C | 58.2% | 196.5hPa | 2.7V | 00:00:00 | 00:00:00 | 00:00:00 | |
| DB0DAN | 2026-09-04 05:22:40 | 51.94219 | 15.01105 | 126° | 155km/h | 12259m | 3.6m/s | -59.9°C | 57.2% | 197.39hPa | 2.7V | 00:00:00 | 00:00:00 | 00:00:00 | |
| AA1-15 | 2026-09-04 05:22:35 | 51.94337 | 15.00830 | 124° | 162km/h | 12235m | 5.3m/s | -59.7°C | 61.1% | 198.1hPa | 2.8V | 18:12:15 | 01:12:42 | 00:00:00 | |
| EDDB2-11 | 2026-09-04 05:22:35 | 51.94337 | 15.00830 | 124° | 161km/h | 12235m | 5.3m/s | -59.7°C | 56.8% | 198.1hPa | 2.8V | 00:00:00 | 00:00:00 | 00:00:00 | |
| 13BRC | 2026-09-04 05:22:34 | 51.94337 | 15.00830 | 125° | 162km/h | 12235m | 5.3m/s | -59.7°C | 56.8% | 198.1hPa | 2.8V | 00:00:00 | 00:00:00 | 00:00:00 | |
| SP3WXH-11 | 2026-09-04 05:22:32 | 51.94407 | 15.00668 | 125° | 159km/h | 12222m | 3.1m/s | -59.6°C | 56.9% | 198.5hPa | 2.8V | 00:00:00 | 00:00:00 | 00:00:00 | |
| DL2RXE-15 | 2026-09-04 05:22:31 | 51.94406 | 15.00669 | 127° | 159km/h | 12222m | 3.1m/s | -59.6°C | 57.0% | 198.5hPa | 2.8V | 00:00:00 | 00:00:00 | 00:00:00 | |
| KRY50SP-1 | 2026-09-04 05:22:30 | 51.94430 | 15.00616 | 127° | 159km/h | 12218m | 5.6m/s | -59.6°C | 56.4% | 198.7hPa | 2.8V | 00:00:00 | 00:00:00 | 00:00:00 | |
| DM0DOS-11 | 2026-09-04 05:22:27 | 51.94618 | 15.00185 | 124° | 162km/h | 12181m | 4.9m/s | 0°C | 0% | 0hPa | 2.8V | 00:00:00 | 01:12:30 | 00:00:00 | |
| DB0DAN | 2026-09-04 05:22:25 | 51.94571 | 15.00296 | 125° | 157km/h | 12190m | 5.4m/s | -59.3°C | 56.1% | 199.62hPa | 2.8V | 00:00:00 | 00:00:00 | 00:00:00 | |
| AA1-15 | 2026-09-04 05:22:25 | 51.94595 | 15.00240 | 124° | 164km/h | 12185m | 4.1m/s | -59.3°C | 60.4% | 199.7hPa | 2.8V | 18:12:15 | 01:12:31 | 00:00:00 | |
| EDDB2-12 | 2026-09-04 05:22:24 | 51.94595 | 15.00240 | 124° | 162km/h | 12185m | 4.1m/s | -59.3°C | 55.4% | 199.7hPa | 2.8V | 00:00:00 | 00:00:00 | 00:00:00 | |
| DAC517 | 2026-09-04 05:22:23 | 51.94595 | 15.00240 | 125° | 164km/h | 12186m | 4.1m/s | -59.3°C | 55.5% | 199.7hPa | 2.8V | 00:00:00 | 00:00:00 | 00:00:00 | |
| KRY50SP-1 | 2026-09-04 05:22:20 | 51.94664 | 15.00075 | 126° | 162km/h | 12172m | 6.2m/s | -59.2°C | 55.2% | 200.2hPa | 2.8V | 00:00:00 | 00:00:00 | 00:00:00 | |
| DM0DOS-11 | 2026-09-04 05:22:17 | 51.94878 | 14.99595 | 125° | 162km/h | 12128m | 4.2m/s | 0°C | 0% | 0hPa | 2.8V | 00:00:00 | 01:12:19 | 00:00:00 | |
| AA1-15 | 2026-09-04 05:22:14 | 51.94831 | 14.99703 | 125° | 159km/h | 12136m | 3.9m/s | -58.9°C | 60.6% | 201.3hPa | 2.7V | 18:12:15 | 01:12:21 | 00:00:00 | |
| 13BRC | 2026-09-04 05:22:13 | 51.94831 | 14.99703 | 126° | 159km/h | 12136m | 3.9m/s | -58.9°C | 56.9% | 201.3hPa | 2.8V | 00:00:00 | 00:00:00 | 00:00:00 | |
| DB0DAN | 2026-09-04 05:22:10 | 51.94925 | 14.99486 | 125° | 155km/h | 12117m | 7.2m/s | -58.8°C | 56.3% | 201.89hPa | 2.8V | 00:00:00 | 00:00:00 | 00:00:00 | |
| AA1-15 | 2026-09-04 05:22:03 | 51.95090 | 14.99107 | 126° | 162km/h | 12083m | 4.5m/s | -58.5°C | 59.9% | 203.1hPa | 2.8V | 18:12:15 | 01:12:10 | 00:00:00 | |
| DAC517 | 2026-09-04 05:22:01 | 51.95114 | 14.99053 | 127° | 162km/h | 12078m | 6.3m/s | -58.5°C | 54.6% | 203.2hPa | 2.7V | 00:00:00 | 00:00:00 | 00:00:00 | |
| SP6BVK | 2026-09-04 05:22:00 | 51.95138 | 14.99000 | 127° | 162km/h | 12071m | 7.4m/s | -58.4°C | 54.0% | 203.4hPa | 2.7V | 00:00:00 | 00:00:00 | 00:00:00 | |
| DM0DOS-11 | 2026-09-04 05:21:59 | 51.95312 | 14.98625 | 127° | 164km/h | 12036m | 3.5m/s | 0°C | 0% | 0hPa | 2.7V | 00:00:00 | 01:12:01 | 00:00:00 | |
| AA1-15 | 2026-09-04 05:21:52 | 51.95362 | 14.98518 | 127° | 162km/h | 12026m | 3.7m/s | -58°C | 56.8% | 204.9hPa | 2.7V | 18:12:15 | 01:11:59 | 00:00:00 | |
| SONDE2-11 | 2026-09-04 05:21:46 | 51.95509 | 14.98201 | 127° | 161km/h | 11996m | 6.3m/s | -57.8°C | 50.5% | 205.8hPa | 2.7V | 00:00:00 | 00:00:00 | 00:00:00 | |
| DM0DOS-11 | 2026-09-04 05:21:42 | 51.95636 | 14.97934 | 127° | 164km/h | 11972m | 5.6m/s | 0°C | 0% | 0hPa | 2.7V | 00:00:00 | 01:11:48 | 00:00:00 | |
| AA1-15 | 2026-09-04 05:21:41 | 51.95636 | 14.97934 | 127° | 164km/h | 11972m | 5.6m/s | -57.6°C | 54.4% | 206.6hPa | 2.7V | 18:12:15 | 01:11:48 | 00:00:00 | |
| AA1-15 | 2026-09-04 05:21:31 | 51.95884 | 14.97403 | 128° | 162km/h | 11927m | 5.5m/s | -57.2°C | 53.5% | 208.1hPa | 2.8V | 18:12:15 | 01:11:38 | 00:00:00 | |
| SP3WXH-11 | 2026-09-04 05:21:30 | 51.95909 | 14.97350 | 128° | 162km/h | 11922m | 4.4m/s | -57.2°C | 48.2% | 208.2hPa | 2.7V | 00:00:00 | 00:00:00 | 00:00:00 | |
| NBG1-10 | 2026-09-04 05:21:29 | 51.95934 | 14.97298 | 128° | 162km/h | 11917m | 6.6m/s | -57.1°C | 58.0% | 208.4hPa | 2.7V | 00:00:00 | 01:11:36 | 00:00:00 | |
| KRY50SP-1 | 2026-09-04 05:21:28 | 51.95934 | 14.97298 | 129° | 164km/h | 11917m | 6.6m/s | -57.2°C | 48.4% | 208.4hPa | 2.8V | 00:00:00 | 00:00:00 | 00:00:00 | |
| DB0DAN | 2026-09-04 05:21:25 | 51.96035 | 14.97088 | 127° | 155km/h | 11897m | 5.1m/s | -57.1°C | 49.4% | 209.04hPa | 2.8V | 00:00:00 | 00:00:00 | 00:00:00 | |
| AA1-15 | 2026-09-04 05:21:21 | 51.96135 | 14.96873 | 127° | 164km/h | 11878m | 7m/s | -57°C | 54.3% | 209.7hPa | 2.7V | 18:12:15 | 01:11:28 | 00:00:00 | |
| AA1-15 | 2026-09-04 05:21:10 | 51.96408 | 14.96287 | 127° | 162km/h | 11825m | 3.8m/s | -56.5°C | 54.1% | 211.4hPa | 2.7V | 18:12:15 | 01:11:17 | 00:00:00 | |
| AA1-15 | 2026-09-04 05:20:59 | 51.96680 | 14.95696 | 127° | 164km/h | 11772m | 5.2m/s | -56.1°C | 52.7% | 213.2hPa | 2.7V | 18:12:15 | 01:11:06 | 00:00:00 | |
| SP3WXH-11 | 2026-09-04 05:20:59 | 51.96680 | 14.95696 | 127° | 162km/h | 11772m | 5.2m/s | -56.1°C | 47.6% | 213.2hPa | 2.7V | 00:00:00 | 00:00:00 | 00:00:00 | |
| SP6BVK | 2026-09-04 05:20:58 | 51.96680 | 14.95696 | 128° | 164km/h | 11772m | 5.2m/s | -56.1°C | 47.6% | 213.2hPa | 2.7V | 00:00:00 | 00:00:00 | 00:00:00 | |
| DB0DAN | 2026-09-04 05:20:55 | 51.96779 | 14.95482 | 126° | 157km/h | 11752m | 4.6m/s | -55.9°C | 47.2% | 213.89hPa | 2.7V | 00:00:00 | 00:00:00 | 00:00:00 | |
| AA1-15 | 2026-09-04 05:20:49 | 51.96926 | 14.95158 | 126° | 162km/h | 11724m | 3.3m/s | -55.7°C | 51.6% | 214.9hPa | 2.7V | 18:12:15 | 01:10:56 | 00:00:00 | |
| AA1-15 | 2026-09-04 05:20:39 | 51.97167 | 14.94629 | 126° | 161km/h | 11677m | 3.9m/s | -55.3°C | 52% | 216.5hPa | 2.7V | 18:12:15 | 01:10:46 | 00:00:00 | |
| AA1-15 | 2026-09-04 05:20:29 | 51.97408 | 14.94093 | 127° | 162km/h | 11629m | 5.9m/s | -54.9°C | 52.7% | 218.1hPa | 2.7V | 18:12:15 | 01:10:36 | 00:00:00 | |
| SP3WXH-11 | 2026-09-04 05:20:28 | 51.97433 | 14.94040 | 127° | 161km/h | 11624m | 5.7m/s | -54.8°C | 46.7% | 218.3hPa | 2.7V | 00:00:00 | 00:00:00 | 00:00:00 | |
| DB0DAN | 2026-09-04 05:20:25 | 51.97508 | 14.93882 | 126° | 155km/h | 11609m | 4m/s | -54.7°C | 46.7% | 218.81hPa | 2.7V | 00:00:00 | 00:00:00 | 00:00:00 | |
| AA1-15 | 2026-09-04 05:20:08 | 51.97915 | 14.92979 | 126° | 162km/h | 11527m | 5.9m/s | -54°C | 55.2% | 221.6hPa | 2.8V | 18:12:15 | 01:10:15 | 00:00:00 | |
| AA1-15 | 2026-09-04 05:19:57 | 51.98179 | 14.92397 | 126° | 159km/h | 11473m | 4.4m/s | -53.5°C | 58.7% | 223.5hPa | 2.8V | 18:12:15 | 01:10:04 | 00:00:00 | |
| AA1-15 | 2026-09-04 05:19:47 | 51.98416 | 14.91862 | 125° | 157km/h | 11422m | 6.2m/s | -53.1°C | 57.2% | 225.2hPa | 2.8V | 18:12:15 | 01:09:54 | 00:00:00 | |
| KRY50SP-1 | 2026-09-04 05:19:44 | 51.98462 | 14.91756 | 127° | 157km/h | 11413m | 6.4m/s | -53.1°C | 52.3% | 225.6hPa | 2.8V | 00:00:00 | 00:00:00 | 00:00:00 | |
| DB0DAN | 2026-09-04 05:19:40 | 51.98582 | 14.91489 | 126° | 155km/h | 11389m | 4.4m/s | -52.8°C | 51.3% | 226.39hPa | 2.8V | 00:00:00 | 00:00:00 | 00:00:00 | |
| KRY50SP-1 | 2026-09-04 05:19:38 | 51.98605 | 14.91434 | 126° | 164km/h | 11384m | 6.4m/s | -52.8°C | 51.3% | 226.6hPa | 2.8V | 00:00:00 | 00:00:00 | 00:00:00 | |
| SP6BVK | 2026-09-04 05:19:36 | 51.98653 | 14.91326 | 126° | 159km/h | 11374m | 8.6m/s | -52.7°C | 51.4% | 226.9hPa | 2.8V | 00:00:00 | 00:00:00 | 00:00:00 | |
| DAC517 | 2026-09-04 05:19:33 | 51.98745 | 14.91113 | 126° | 159km/h | 11353m | 6.7m/s | -52.5°C | 51.1% | 227.7hPa | 2.8V | 00:00:00 | 00:00:00 | 00:00:00 | |
| SONCRA | 2026-09-04 05:19:32 | 51.98768 | 14.91059 | 124° | 161km/h | 11346m | 6.7m/s | 0°C | -1.0% | 227.8hPa | 2.8V | 00:00:00 | 00:00:00 | 00:00:00 | |
| 13BRC | 2026-09-04 05:19:29 | 51.98814 | 14.90950 | 125° | 159km/h | 11336m | 6.2m/s | -52.4°C | 51.6% | 228.2hPa | 2.8V | 00:00:00 | 00:00:00 | 00:00:00 | |
| KRY50SP-1 | 2026-09-04 05:19:28 | 51.98837 | 14.90897 | 125° | 159km/h | 11330m | 4.3m/s | -52.3°C | 51.8% | 228.4hPa | 2.8V | 00:00:00 | 00:00:00 | 00:00:00 | |
| DB0DAN | 2026-09-04 05:19:25 | 51.98926 | 14.90683 | 124° | 150km/h | 11311m | 4.4m/s | -52.1°C | 52.8% | 229.07hPa | 2.8V | 00:00:00 | 00:00:00 | 00:00:00 | |
| SP3BTT-10 | 2026-09-04 05:19:25 | 51.98926 | 14.90683 | 124° | 157km/h | 11311m | 4.3m/s | -52.1°C | 61.4% | 229.0hPa | 2.8V | 00:00:00 | 00:00:00 | 00:00:00 | |
| KRY50SP-1 | 2026-09-04 05:19:22 | 51.98969 | 14.90576 | 125° | 157km/h | 11302m | 5.0m/s | -52.1°C | 52.8% | 229.4hPa | 2.8V | 00:00:00 | 00:00:00 | 00:00:00 | |
| EDDB2-12 | 2026-09-04 05:19:18 | 51.99081 | 14.90309 | 124° | 157km/h | 11279m | 3.3m/s | -51.8°C | 53.9% | 230.3hPa | 2.8V | 00:00:00 | 00:00:00 | 00:00:00 | |
| KRY50SP-1 | 2026-09-04 05:19:17 | 51.99081 | 14.90308 | 126° | 159km/h | 11279m | 3.3m/s | -51.8°C | 53.9% | 230.3hPa | 2.8V | 00:00:00 | 00:00:00 | 00:00:00 | |
| SP6BVK | 2026-09-04 05:19:15 | 51.99127 | 14.90201 | 125° | 161km/h | 11269m | 4.3m/s | -51.8°C | 53.9% | 230.6hPa | 2.8V | 00:00:00 | 00:00:00 | 00:00:00 | |
| DL2RXE-15 | 2026-09-04 05:19:14 | 51.99150 | 14.90147 | 126° | 159km/h | 11263m | 6.2m/s | -51.7°C | 53.8% | 230.8hPa | 2.8V | 00:00:00 | 00:00:00 | 00:00:00 | |
| KRY50SP-1 | 2026-09-04 05:19:12 | 51.99196 | 14.90039 | 125° | 161km/h | 11254m | 5.6m/s | -51.7°C | 53.9% | 231.1hPa | 2.8V | 00:00:00 | 00:00:00 | 00:00:00 | |
| DB0DAN | 2026-09-04 05:19:10 | 51.99264 | 14.89877 | 124° | 151km/h | 11239m | 3.9m/s | -51.5°C | 54.5% | 231.66hPa | 2.8V | 00:00:00 | 00:00:00 | 00:00:00 | |
| AA1-15 | 2026-09-04 05:19:02 | 51.99440 | 14.89445 | 124° | 161km/h | 11201m | 6.2m/s | -51.2°C | 59.6% | 233hPa | 2.8V | 18:12:15 | 01:09:09 | 00:00:00 | |
| SONCRA | 2026-09-04 05:19:01 | 51.99463 | 14.89391 | 123° | 159km/h | 11196m | 3.9m/s | 0°C | -1.0% | -1.0hPa | 2.8V | 00:00:00 | 00:00:00 | 00:00:00 | |
| EDDB2-11 | 2026-09-04 05:18:58 | 51.99552 | 14.89178 | 124° | 155km/h | 11178m | 5.3m/s | -51.0°C | 55.7% | 233.8hPa | 2.8V | 00:00:00 | 00:00:00 | 00:00:00 | |
| DB0DAN | 2026-09-04 05:18:55 | 51.99597 | 14.89073 | 125° | 148km/h | 11168m | 3.6m/s | -50.9°C | 56.7% | 234.19hPa | 2.8V | 00:00:00 | 00:00:00 | 00:00:00 | |
| AA1-15 | 2026-09-04 05:18:52 | 51.99665 | 14.88916 | 125° | 155km/h | 11154m | 5.9m/s | -50.8°C | 61.2% | 234.7hPa | 2.8V | 18:12:15 | 01:08:59 | 00:00:00 | |
| EDDB2-12 | 2026-09-04 05:18:47 | 51.99778 | 14.88652 | 124° | 157km/h | 11131m | 4.9m/s | -50.6°C | 58.6% | 235.5hPa | 2.8V | 00:00:00 | 00:00:00 | 00:00:00 | |
| KRY50SP-1 | 2026-09-04 05:18:45 | 51.99800 | 14.88598 | 125° | 157km/h | 11126m | 4.9m/s | -50.6°C | 58.1% | 235.7hPa | 2.8V | 00:00:00 | 00:00:00 | 00:00:00 | |
| DB0DAN | 2026-09-04 05:18:40 | 51.99933 | 14.88278 | 124° | 148km/h | 11092m | 3.9m/s | -50.3°C | 58.7% | 236.86hPa | 2.8V | 00:00:00 | 00:00:00 | 00:00:00 | |
| AA1-15 | 2026-09-04 05:18:39 | 51.99955 | 14.88225 | 125° | 157km/h | 11088m | 5.5m/s | -50.3°C | 63.1% | 237.1hPa | 2.8V | 18:12:15 | 01:08:46 | 00:00:00 | |
| AA1-15 | 2026-09-04 05:18:28 | 52.00205 | 14.87644 | 125° | 157km/h | 11032m | 5.3m/s | -49.9°C | 64.8% | 239hPa | 2.8V | 18:12:15 | 01:08:35 | 00:00:00 | |
| 13BRC | 2026-09-04 05:18:27 | 52.00204 | 14.87644 | 125° | 157km/h | 11032m | 5.3m/s | -49.9°C | 61.1% | 239.0hPa | 2.8V | 00:00:00 | 00:00:00 | 00:00:00 | |
| DB0DAN | 2026-09-04 05:18:25 | 52.00271 | 14.87486 | 124° | 146km/h | 11018m | 4m/s | -49.7°C | 62.1% | 239.54hPa | 2.8V | 00:00:00 | 00:00:00 | 00:00:00 | |
| AA1-15 | 2026-09-04 05:18:17 | 52.00452 | 14.87060 | 124° | 159km/h | 10981m | 3.5m/s | -49.4°C | 67.4% | 240.9hPa | 2.8V | 18:12:15 | 01:08:24 | 00:00:00 | |
| EDDB2-12 | 2026-09-04 05:18:16 | 52.00475 | 14.87008 | 124° | 155km/h | 10977m | 5.4m/s | -49.4°C | 63.5% | 241.1hPa | 2.8V | 00:00:00 | 00:00:00 | 00:00:00 | |
| SP6BVK | 2026-09-04 05:18:12 | 52.00541 | 14.86852 | 126° | 151km/h | 10963m | 4.1m/s | -49.3°C | 63.5% | 241.6hPa | 2.8V | 00:00:00 | 00:00:00 | 00:00:00 | |
| DB0DAN | 2026-09-04 05:18:10 | 52.00606 | 14.86699 | 124° | 146km/h | 10948m | 5.6m/s | -49.1°C | 63.5% | 242.05hPa | 2.8V | 00:00:00 | 00:00:00 | 00:00:00 | |
| SONDE2-11 | 2026-09-04 05:18:09 | 52.00627 | 14.86646 | 123° | 153km/h | 10944m | 4.4m/s | -49.1°C | 63.2% | 242.3hPa | 2.9V | 00:00:00 | 00:00:00 | 00:00:00 | |
| DL2RXE-15 | 2026-09-04 05:18:07 | 52.00671 | 14.86540 | 124° | 157km/h | 10935m | 6.3m/s | -49.0°C | 62.7% | 242.6hPa | 2.9V | 00:00:00 | 00:00:00 | 00:00:00 | |
| DAC517 | 2026-09-04 05:18:06 | 52.00671 | 14.86540 | 124° | 157km/h | 10935m | 6.3m/s | -49.0°C | 62.7% | 242.6hPa | 2.9V | 00:00:00 | 00:00:00 | 00:00:00 | |
| MECKS9 | 2026-09-04 05:18:05 | 52.00692 | 14.86486 | 124° | 157km/h | 10930m | 3.8m/s | 0°C | 0% | 0hPa | 2.9V | 00:00:00 | 00:00:00 | 00:00:00 | |
| EDDB2-11 | 2026-09-04 05:17:56 | 52.00940 | 14.85910 | 124° | 155km/h | 10876m | 3.4m/s | -48.5°C | 60.6% | 244.9hPa | 2.9V | 00:00:00 | 00:00:00 | 00:00:00 | |
| SP3WXH-11 | 2026-09-04 05:17:53 | 52.00983 | 14.85803 | 122° | 155km/h | 10867m | 2.9m/s | -48.4°C | 59.9% | 245.2hPa | 2.9V | 00:00:00 | 00:00:00 | 00:00:00 | |
| EDDB2-12 | 2026-09-04 05:17:45 | 52.01160 | 14.85382 | 125° | 151km/h | 10829m | 5.6m/s | -48.1°C | 59.8% | 246.6hPa | 2.9V | 00:00:00 | 00:00:00 | 00:00:00 | |
| KRY50SP-1 | 2026-09-04 05:17:44 | 52.01160 | 14.85382 | 127° | 153km/h | 10829m | 5.6m/s | -48.1°C | 59.9% | 246.6hPa | 2.9V | 00:00:00 | 00:00:00 | 00:00:00 | |
| DB0NH | 2026-09-04 05:17:42 | 52.01229 | 14.85229 | 126° | 155km/h | 10816m | 4.5m/s | -48.0°C | 67.9% | 247.0hPa | 2.9V | 00:00:00 | 01:07:49 | 00:00:00 | |
| KRY50SP-1 | 2026-09-04 05:17:39 | 52.01274 | 14.85125 | 126° | 157km/h | 10805m | 5.2m/s | -47.9°C | 59.8% | 247.5hPa | 2.9V | 00:00:00 | 00:00:00 | 00:00:00 | |
| SONDE2-11 | 2026-09-04 05:17:38 | 52.01320 | 14.85019 | 125° | 157km/h | 10795m | 4.0m/s | -47.8°C | 60.3% | 247.8hPa | 2.9V | 00:00:00 | 00:00:00 | 00:00:00 | |
| S3001 | 2026-09-04 05:17:36 | 52.01365 | 14.84914 | 124° | 155km/h | 10787m | 3.6m/s | -47.7°C | 60.5% | 248.1hPa | 2.9V | 00:00:00 | 00:00:00 | 00:00:00 | |
| KRY50SP-1 | 2026-09-04 05:17:34 | 52.01388 | 14.84861 | 126° | 157km/h | 10782m | 5.6m/s | -47.7°C | 60.9% | 248.3hPa | 2.9V | 00:00:00 | 00:00:00 | 00:00:00 | |
| SP6BVK | 2026-09-04 05:17:31 | 52.01458 | 14.84707 | 128° | 153km/h | 10767m | 5.2m/s | -47.6°C | 60.2% | 248.9hPa | 2.9V | 00:00:00 | 00:00:00 | 00:00:00 | |
| KRY50SP-1 | 2026-09-04 05:17:29 | 52.01504 | 14.84607 | 128° | 151km/h | 10758m | 5.7m/s | -47.5°C | 60.4% | 249.2hPa | 2.9V | 00:00:00 | 00:00:00 | 00:00:00 | |
| DB0DAN | 2026-09-04 05:17:25 | 52.01619 | 14.84349 | 125° | 151km/h | 10736m | 6.8m/s | -47.3°C | 59.4% | 250hPa | 2.9V | 00:00:00 | 00:00:00 | 00:00:00 | |
| SP3BTT-10 | 2026-09-04 05:17:25 | 52.01619 | 14.84349 | 126° | 153km/h | 10737m | 6.7m/s | -47.3°C | 67.3% | 250.0hPa | 2.8V | 00:00:00 | 00:00:00 | 00:00:00 | |
| KRY50SP-1 | 2026-09-04 05:17:24 | 52.01619 | 14.84349 | 126° | 159km/h | 10737m | 6.8m/s | -47.3°C | 59.4% | 250.0hPa | 2.8V | 00:00:00 | 00:00:00 | 00:00:00 | |
| SP3WXH-11 | 2026-09-04 05:17:22 | 52.01687 | 14.84189 | 124° | 155km/h | 10723m | 2.4m/s | -47.2°C | 60.7% | 250.6hPa | 2.8V | 00:00:00 | 00:00:00 | 00:00:00 | |
| KRY50SP-1 | 2026-09-04 05:17:18 | 52.01755 | 14.84033 | 126° | 153km/h | 10712m | 4.9m/s | -47.1°C | 61.8% | 251.0hPa | 2.8V | 00:00:00 | 00:00:00 | 00:00:00 | |
| EDDB2-12 | 2026-09-04 05:17:14 | 52.01869 | 14.83773 | 124° | 155km/h | 10690m | 4.7m/s | -46.9°C | 63.6% | 251.9hPa | 2.8V | 00:00:00 | 00:00:00 | 00:00:00 | |
| DL2RXE-15 | 2026-09-04 05:17:12 | 52.01891 | 14.83721 | 126° | 155km/h | 10685m | 4.3m/s | -46.9°C | 63.4% | 252.0hPa | 2.8V | 00:00:00 | 00:00:00 | 00:00:00 | |
| DB0DAN | 2026-09-04 05:17:10 | 52.01959 | 14.83564 | 125° | 150km/h | 10671m | 6.3m/s | -46.8°C | 62.9% | 252.57hPa | 2.8V | 00:00:00 | 00:00:00 | 00:00:00 | |
| SONDE2-11 | 2026-09-04 05:17:07 | 52.02027 | 14.83404 | 125° | 157km/h | 10655m | 5.2m/s | -46.6°C | 61.3% | 253.2hPa | 2.8V | 00:00:00 | 00:00:00 | 00:00:00 | |
| DAC517 | 2026-09-04 05:17:06 | 52.02050 | 14.83351 | 126° | 159km/h | 10648m | 7.0m/s | -46.6°C | 61.6% | 253.4hPa | 2.8V | 00:00:00 | 00:00:00 | 00:00:00 | |
| S3001 | 2026-09-04 05:17:05 | 52.02073 | 14.83298 | 124° | 155km/h | 10643m | 4.1m/s | -46.5°C | 61.4% | 253.6hPa | 2.8V | 00:00:00 | 00:00:00 | 00:00:00 | |
| 13BRC | 2026-09-04 05:17:04 | 52.02073 | 14.83298 | 125° | 155km/h | 10643m | 4.1m/s | -46.5°C | 61.4% | 253.6hPa | 2.8V | 00:00:00 | 00:00:00 | 00:00:00 | |
| EDDB2-11 | 2026-09-04 05:16:53 | 52.02334 | 14.82678 | 122° | 157km/h | 10587m | 3.9m/s | -46.0°C | 60.3% | 255.7hPa | 2.8V | 00:00:00 | 00:00:00 | 00:00:00 | |
| SP3WXH-11 | 2026-09-04 05:16:51 | 52.02376 | 14.82570 | 122° | 155km/h | 10576m | 4.7m/s | -45.9°C | 60.0% | 256.1hPa | 2.8V | 00:00:00 | 00:00:00 | 00:00:00 | |
| DL2RXE-15 | 2026-09-04 05:16:50 | 52.02377 | 14.82570 | 123° | 157km/h | 10576m | 4.7m/s | -45.9°C | 60.1% | 256.1hPa | 2.8V | 00:00:00 | 00:00:00 | 00:00:00 | |
| KRY50SP-1 | 2026-09-04 05:16:48 | 52.02419 | 14.82461 | 123° | 155km/h | 10565m | 4.0m/s | -45.8°C | 60.4% | 256.5hPa | 2.8V | 00:00:00 | 00:00:00 | 00:00:00 | |
| DAC517 | 2026-09-04 05:16:44 | 52.02503 | 14.82251 | 124° | 151km/h | 10548m | 3.6m/s | -45.7°C | 58.4% | 257.2hPa | 2.8V | 00:00:00 | 00:00:00 | 00:00:00 | |
| EDDB2-12 | 2026-09-04 05:16:43 | 52.02545 | 14.82149 | 124° | 150km/h | 10539m | 5.2m/s | -45.6°C | 57.6% | 257.5hPa | 2.8V | 00:00:00 | 00:00:00 | 00:00:00 | |
| KRY50SP-1 | 2026-09-04 05:16:42 | 52.02545 | 14.82149 | 125° | 151km/h | 10539m | 5.2m/s | -45.6°C | 57.6% | 257.5hPa | 2.8V | 00:00:00 | 00:00:00 | 00:00:00 | |
| DB0DAN | 2026-09-04 05:16:40 | 52.02611 | 14.81994 | 124° | 146km/h | 10524m | 4.3m/s | -45.5°C | 57.1% | 258.09hPa | 2.8V | 00:00:00 | 00:00:00 | 00:00:00 | |
| SP3BTT-10 | 2026-09-04 05:16:40 | 52.02610 | 14.81994 | 125° | 155km/h | 10525m | 4.2m/s | -45.4°C | 64.4% | 258.0hPa | 2.9V | 00:00:00 | 00:00:00 | 00:00:00 | |
| KRY50SP-1 | 2026-09-04 05:16:37 | 52.02655 | 14.81890 | 125° | 155km/h | 10515m | 4.3m/s | -45.4°C | 56.8% | 258.4hPa | 2.9V | 00:00:00 | 00:00:00 | 00:00:00 | |
| SONDE2-11 | 2026-09-04 05:16:36 | 52.02697 | 14.81784 | 122° | 151km/h | 10505m | 4.1m/s | -45.3°C | 56.2% | 258.8hPa | 2.9V | 00:00:00 | 00:00:00 | 00:00:00 | |
| S3001 | 2026-09-04 05:16:34 | 52.02739 | 14.81679 | 122° | 151km/h | 10496m | 3.8m/s | -45.2°C | 55.3% | 259.1hPa | 2.9V | 00:00:00 | 00:00:00 | 00:00:00 | |
| NBG1-10 | 2026-09-04 05:16:31 | 52.02801 | 14.81523 | 123° | 153km/h | 10481m | 6.4m/s | -45.0°C | 62.2% | 259.7hPa | 2.9V | 00:00:00 | 01:06:38 | 00:00:00 | |
| SP6BVK | 2026-09-04 05:16:30 | 52.02801 | 14.81523 | 123° | 151km/h | 10481m | 6.4m/s | -45.1°C | 55.2% | 259.7hPa | 2.9V | 00:00:00 | 00:00:00 | 00:00:00 | |
| DB0DAN | 2026-09-04 05:16:25 | 52.02925 | 14.81206 | 122° | 144km/h | 10452m | 4.2m/s | -44.9°C | 55.7% | 260.84hPa | 2.9V | 00:00:00 | 00:00:00 | 00:00:00 | |
| AA1-15 | 2026-09-04 05:16:13 | 52.03177 | 14.80579 | 124° | 153km/h | 10398m | 4.8m/s | -44.5°C | 58.3% | 262.9hPa | 2.9V | 18:12:15 | 01:06:20 | 00:00:00 | |
| DB0DAN | 2026-09-04 05:16:10 | 52.03240 | 14.80421 | 122° | 144km/h | 10386m | 2.3m/s | -44.3°C | 54.3% | 263.5hPa | 2.8V | 00:00:00 | 00:00:00 | 00:00:00 | |
| KRY50SP-1 | 2026-09-04 05:16:07 | 52.03281 | 14.80316 | 124° | 153km/h | 10377m | 2.5m/s | -44.2°C | 54.5% | 263.9hPa | 2.9V | 00:00:00 | 00:00:00 | 00:00:00 | |
| SONDE2-11 | 2026-09-04 05:16:05 | 52.03344 | 14.80158 | 123° | 151km/h | 10364m | 4.8m/s | -44.1°C | 53.7% | 264.4hPa | 2.9V | 00:00:00 | 00:00:00 | 00:00:00 | |
| S3001 | 2026-09-04 05:16:03 | 52.03387 | 14.80053 | 123° | 153km/h | 10355m | 5.6m/s | -44.1°C | 53.7% | 264.7hPa | 2.9V | 00:00:00 | 00:00:00 | 00:00:00 | |
| 13BRC | 2026-09-04 05:16:02 | 52.03387 | 14.80053 | 124° | 155km/h | 10356m | 5.6m/s | -44.1°C | 53.7% | 264.7hPa | 2.9V | 00:00:00 | 00:00:00 | 00:00:00 | |
| NBG1-10 | 2026-09-04 05:15:58 | 52.03492 | 14.79782 | 121° | 153km/h | 10333m | 4.0m/s | 0°C | 0% | 0hPa | 2.9V | 00:00:00 | 01:06:05 | 00:00:00 | |
| DB0DAN | 2026-09-04 05:15:55 | 52.03552 | 14.79618 | 121° | 146km/h | 10321m | 5.2m/s | -43.8°C | 53.5% | 266.02hPa | 2.9V | 00:00:00 | 00:00:00 | 00:00:00 | |
| AA1-15 | 2026-09-04 05:15:50 | 52.03654 | 14.79349 | 122° | 155km/h | 10298m | 5.3m/s | -43.6°C | 56.5% | 266.9hPa | 2.9V | 18:12:15 | 01:05:57 | 00:00:00 | |
| SP3WXH-11 | 2026-09-04 05:15:49 | 52.03675 | 14.79295 | 122° | 155km/h | 10294m | 2.6m/s | -43.5°C | 54.3% | 267.1hPa | 2.8V | 00:00:00 | 00:00:00 | 00:00:00 | |
| DL2RXE-15 | 2026-09-04 05:15:48 | 52.03675 | 14.79295 | 124° | 155km/h | 10294m | 2.6m/s | -43.5°C | 54.3% | 267.1hPa | 2.8V | 00:00:00 | 00:00:00 | 00:00:00 | |
| DAC517 | 2026-09-04 05:15:42 | 52.03800 | 14.78976 | 123° | 153km/h | 10270m | 5.7m/s | -43.4°C | 55.6% | 268.2hPa | 2.8V | 00:00:00 | 00:00:00 | 00:00:00 | |
| DB0DAN | 2026-09-04 05:15:40 | 52.03862 | 14.78818 | 122° | 144km/h | 10252m | 4.3m/s | -43.2°C | 54.9% | 268.77hPa | 2.8V | 00:00:00 | 00:00:00 | 00:00:00 | |
| AA1-15 | 2026-09-04 05:15:39 | 52.03882 | 14.78765 | 122° | 151km/h | 10248m | 4.5m/s | -43.2°C | 58.6% | 269hPa | 2.8V | 18:12:15 | 01:05:46 | 00:00:00 | |
| AA1-15 | 2026-09-04 05:15:28 | 52.04101 | 14.78180 | 123° | 151km/h | 10200m | 4.4m/s | -42.8°C | 56% | 270.9hPa | 2.9V | 18:12:15 | 01:05:35 | 00:00:00 | |
| DL2RXE-15 | 2026-09-04 05:15:27 | 52.04101 | 14.78180 | 123° | 151km/h | 10200m | 4.4m/s | -42.8°C | 52.6% | 270.9hPa | 2.9V | 00:00:00 | 00:00:00 | 00:00:00 | |
| DB0DAN | 2026-09-04 05:15:25 | 52.04164 | 14.78022 | 122° | 148km/h | 10186m | 4.9m/s | -42.7°C | 52.6% | 271.44hPa | 2.9V | 00:00:00 | 00:00:00 | 00:00:00 | |
| AA1-15 | 2026-09-04 05:15:18 | 52.04311 | 14.77652 | 123° | 150km/h | 10156m | 4.8m/s | -42.5°C | 56.2% | 272.6hPa | 2.9V | 18:12:15 | 01:05:25 | 00:00:00 | |
| KRY50SP-1 | 2026-09-04 05:15:15 | 52.04373 | 14.77496 | 124° | 150km/h | 10143m | 3.9m/s | -42.3°C | 53.6% | 273.2hPa | 2.9V | 00:00:00 | 00:00:00 | 00:00:00 | |
| DB0DAN | 2026-09-04 05:15:10 | 52.04479 | 14.77234 | 122° | 144km/h | 10120m | 5.8m/s | -42.2°C | 53.5% | 274.08hPa | 2.9V | 00:00:00 | 00:00:00 | 00:00:00 | |
| AA1-15 | 2026-09-04 05:15:05 | 52.04581 | 14.76974 | 123° | 150km/h | 10096m | 3.5m/s | -41.9°C | 56.5% | 275.1hPa | 2.9V | 18:12:15 | 01:05:12 | 00:00:00 | |
| KRY50SP-1 | 2026-09-04 05:15:04 | 52.04581 | 14.76974 | 124° | 150km/h | 10096m | 3.5m/s | -41.9°C | 53.1% | 275.1hPa | 2.9V | 00:00:00 | 00:00:00 | 00:00:00 | |
| SONDE2-11 | 2026-09-04 05:15:03 | 52.04643 | 14.76819 | 123° | 150km/h | 10082m | 5.3m/s | -41.8°C | 53.0% | 275.7hPa | 2.9V | 00:00:00 | 00:00:00 | 00:00:00 | |
| S3001 | 2026-09-04 05:15:01 | 52.04665 | 14.76767 | 123° | 150km/h | 10078m | 3.7m/s | -41.8°C | 53.3% | 275.8hPa | 2.9V | 00:00:00 | 00:00:00 | 00:00:00 | |
| DL2RXE-15 | 2026-09-04 05:14:58 | 52.04706 | 14.76664 | 124° | 150km/h | 10070m | 4.3m/s | -41.7°C | 52.9% | 276.1hPa | 2.9V | 00:00:00 | 00:00:00 | 00:00:00 | |
| DB0DAN | 2026-09-04 05:14:55 | 52.04786 | 14.76461 | 122° | 137km/h | 10052m | 5.3m/s | -41.6°C | 52.8% | 276.9hPa | 2.9V | 00:00:00 | 00:00:00 | 00:00:00 | |
| AA1-15 | 2026-09-04 05:14:54 | 52.04806 | 14.76411 | 123° | 144km/h | 10047m | 4.4m/s | -41.5°C | 56% | 277.1hPa | 2.8V | 18:12:15 | 01:05:01 | 00:00:00 | |
| EDDB2-11 | 2026-09-04 05:14:49 | 52.04907 | 14.76153 | 121° | 151km/h | 10025m | 4.1m/s | -41.4°C | 53.7% | 277.9hPa | 2.8V | 00:00:00 | 00:00:00 | 00:00:00 | |
| SP3WXH-11 | 2026-09-04 05:14:47 | 52.04948 | 14.76047 | 121° | 151km/h | 10015m | 3.2m/s | -41.3°C | 55.4% | 278.3hPa | 2.8V | 00:00:00 | 00:00:00 | 00:00:00 | |
| KRY50SP-1 | 2026-09-04 05:14:42 | 52.05027 | 14.75839 | 124° | 148km/h | 9997m | 4.7m/s | -41.2°C | 59.2% | 279.0hPa | 2.8V | 00:00:00 | 00:00:00 | 00:00:00 | |
| DB0DAN | 2026-09-04 05:14:40 | 52.05089 | 14.75687 | 124° | 142km/h | 9986m | 2.4m/s | -41.2°C | 63.1% | 279.53hPa | 2.8V | 00:00:00 | 00:00:00 | 00:00:00 | |
| EDDB2-12 | 2026-09-04 05:14:39 | 52.05130 | 14.75584 | 122° | 150km/h | 9978m | 3.9m/s | -41.1°C | 63.2% | 279.9hPa | 2.9V | 00:00:00 | 00:00:00 | 00:00:00 | |
| DL2RXE-15 | 2026-09-04 05:14:38 | 52.05130 | 14.75584 | 124° | 151km/h | 9978m | 3.9m/s | -41.1°C | 63.2% | 279.9hPa | 2.9V | 00:00:00 | 00:00:00 | 00:00:00 | |
| KRY50SP-1 | 2026-09-04 05:14:37 | 52.05130 | 14.75584 | 124° | 151km/h | 9978m | 3.9m/s | -41.1°C | 63.2% | 279.9hPa | 2.9V | 00:00:00 | 00:00:00 | 00:00:00 | |
| KRY50SP-1 | 2026-09-04 05:14:31 | 52.05254 | 14.75272 | 124° | 148km/h | 9952m | 3.3m/s | -40.9°C | 65.1% | 281.0hPa | 2.9V | 00:00:00 | 00:00:00 | 00:00:00 | |
| S3001 | 2026-09-04 05:14:30 | 52.05295 | 14.75170 | 122° | 146km/h | 9943m | 2.2m/s | -40.8°C | 66.4% | 281.4hPa | 2.9V | 00:00:00 | 00:00:00 | 00:00:00 | |
| DB0DAN | 2026-09-04 05:14:25 | 52.05398 | 14.74919 | 123° | 141km/h | 9922m | 3.9m/s | -40.6°C | 68.5% | 282.26hPa | 2.9V | 00:00:00 | 00:00:00 | 00:00:00 | |
| SP3BTT-10 | 2026-09-04 05:14:25 | 52.05397 | 14.74919 | 124° | 139km/h | 9922m | 3.9m/s | -40.6°C | 75.5% | 282.2hPa | 2.9V | 00:00:00 | 00:00:00 | 00:00:00 | |
| 13BRC | 2026-09-04 05:14:21 | 52.05459 | 14.74769 | 124° | 146km/h | 9908m | 5.6m/s | -40.5°C | 69.6% | 282.7hPa | 2.9V | 00:00:00 | 00:00:00 | 00:00:00 | |
| KRY50SP-1 | 2026-09-04 05:14:20 | 52.05478 | 14.74719 | 123° | 142km/h | 9903m | 6.4m/s | -40.5°C | 70.1% | 283.0hPa | 2.9V | 00:00:00 | 00:00:00 | 00:00:00 | |
| EDDB2-11 | 2026-09-04 05:14:18 | 52.05536 | 14.74570 | 121° | 141km/h | 9888m | 6.4m/s | -40.3°C | 72.1% | 283.6hPa | 2.9V | 00:00:00 | 00:00:00 | 00:00:00 | |
| SP3WXH-11 | 2026-09-04 05:14:16 | 52.05574 | 14.74471 | 122° | 142km/h | 9879m | 5.3m/s | -40.3°C | 73.9% | 284.0hPa | 2.9V | 00:00:00 | 00:00:00 | 00:00:00 | |
| KRY50SP-1 | 2026-09-04 05:14:15 | 52.05574 | 14.74471 | 123° | 144km/h | 9879m | 5.3m/s | -40.3°C | 73.9% | 284.0hPa | 2.9V | 00:00:00 | 00:00:00 | 00:00:00 | |
| DB0DAN | 2026-09-04 05:14:10 | 52.05694 | 14.74173 | 123° | 139km/h | 9853m | 6.4m/s | -40°C | 74.9% | 285.08hPa | 2.9V | 00:00:00 | 00:00:00 | 00:00:00 | |
| KRY50SP-1 | 2026-09-04 05:14:09 | 52.05694 | 14.74173 | 124° | 146km/h | 9853m | 6.4m/s | -40.0°C | 75.0% | 285.1hPa | 2.9V | 00:00:00 | 00:00:00 | 00:00:00 | |
| EDDB2-12 | 2026-09-04 05:14:08 | 52.05752 | 14.74021 | 120° | 144km/h | 9839m | 2.8m/s | -39.9°C | 75.4% | 285.7hPa | 2.9V | 00:00:00 | 00:00:00 | 00:00:00 | |
| SP6BVK | 2026-09-04 05:14:06 | 52.05752 | 14.74021 | 122° | 144km/h | 9840m | 2.8m/s | -39.9°C | 75.5% | 285.7hPa | 2.9V | 00:00:00 | 00:00:00 | 00:00:00 | |
| DL2RXE-15 | 2026-09-04 05:14:05 | 52.05771 | 14.73969 | 122° | 146km/h | 9836m | 5.5m/s | -39.9°C | 74.4% | 285.8hPa | 2.9V | 00:00:00 | 00:00:00 | 00:00:00 | |
| KRY50SP-1 | 2026-09-04 05:14:03 | 52.05808 | 14.73866 | 122° | 146km/h | 9828m | 5.9m/s | -39.8°C | 74.4% | 286.2hPa | 2.9V | 00:00:00 | 00:00:00 | 00:00:00 | |
| SONDE2-11 | 2026-09-04 05:14:01 | 52.05883 | 14.73669 | 122° | 137km/h | 9807m | 5.2m/s | -39.6°C | 73.0% | 287.0hPa | 2.9V | 00:00:00 | 00:00:00 | 00:00:00 | |
| S3001 | 2026-09-04 05:13:59 | 52.05920 | 14.73576 | 122° | 133km/h | 9797m | 2.8m/s | -39.5°C | 73.5% | 287.4hPa | 2.9V | 00:00:00 | 00:00:00 | 00:00:00 | |
| DAC517 | 2026-09-04 05:13:58 | 52.05901 | 14.73623 | 124° | 133km/h | 9802m | 5.6m/s | -39.6°C | 73.6% | 287.2hPa | 2.9V | 00:00:00 | 00:00:00 | 00:00:00 | |
| KRY50SP-1 | 2026-09-04 05:13:57 | 52.05919 | 14.73576 | 124° | 133km/h | 9797m | 2.8m/s | -39.5°C | 73.6% | 287.4hPa | 2.9V | 00:00:00 | 00:00:00 | 00:00:00 | |
| DB0DAN | 2026-09-04 05:13:55 | 52.05975 | 14.73435 | 122° | 131km/h | 9784m | 5.5m/s | -39.4°C | 72.7% | 287.87hPa | 2.9V | 00:00:00 | 00:00:00 | 00:00:00 | |
| AA1-15 | 2026-09-04 05:13:49 | 52.06085 | 14.73141 | 121° | 139km/h | 9756m | 2.1m/s | -39.1°C | 73.6% | 289.1hPa | 2.9V | 18:12:15 | 01:03:56 | 00:00:00 | |
| EDDB2-11 | 2026-09-04 05:13:47 | 52.06121 | 14.73044 | 120° | 135km/h | 9749m | 5.2m/s | -39.1°C | 74.1% | 289.4hPa | 2.9V | 00:00:00 | 00:00:00 | 00:00:00 | |
| SP6BVK | 2026-09-04 05:13:45 | 52.06138 | 14.72996 | 122° | 137km/h | 9745m | 2.9m/s | -39.1°C | 74.5% | 289.6hPa | 2.9V | 00:00:00 | 00:00:00 | 00:00:00 | |
| DL2RXE-15 | 2026-09-04 05:13:44 | 52.06156 | 14.72948 | 123° | 137km/h | 9742m | 4.6m/s | -39.0°C | 74.7% | 289.8hPa | 2.9V | 00:00:00 | 00:00:00 | 00:00:00 | |
| DB0DAN | 2026-09-04 05:13:40 | 52.06247 | 14.72706 | 120° | 131km/h | 9716m | 3.6m/s | -38.9°C | 77.5% | 290.65hPa | 2.9V | 00:00:00 | 00:00:00 | 00:00:00 | |
| AA1-15 | 2026-09-04 05:13:38 | 52.06283 | 14.72606 | 120° | 141km/h | 9707m | 2.9m/s | -38.8°C | 76.4% | 291.1hPa | 2.8V | 18:12:15 | 01:03:45 | 00:00:00 | |
| AA1-15 | 2026-09-04 05:13:28 | 52.06465 | 14.72122 | 124° | 139km/h | 9664m | 5.4m/s | -38.4°C | 75.1% | 292.9hPa | 2.9V | 18:12:15 | 01:03:35 | 00:00:00 | |
| AA1-15 | 2026-09-04 05:13:17 | 52.06665 | 14.71595 | 122° | 137km/h | 9614m | 3.3m/s | -37.9°C | 73.6% | 295.2hPa | 2.8V | 18:12:15 | 01:03:24 | 00:00:00 | |
| EDDB2-11 | 2026-09-04 05:13:16 | 52.06684 | 14.71548 | 122° | 137km/h | 9610m | 4.0m/s | -37.9°C | 72.1% | 295.3hPa | 2.8V | 00:00:00 | 00:00:00 | 00:00:00 | |
| SP3WXH-11 | 2026-09-04 05:13:14 | 52.06720 | 14.71452 | 121° | 137km/h | 9600m | 4.0m/s | -37.8°C | 71.5% | 295.7hPa | 2.8V | 00:00:00 | 00:00:00 | 00:00:00 | |
| DB0DAN | 2026-09-04 05:13:10 | 52.06792 | 14.71258 | 121° | 131km/h | 9582m | 3.5m/s | -37.6°C | 71.1% | 296.55hPa | 2.8V | 00:00:00 | 00:00:00 | 00:00:00 | |
| KRY50SP-1 | 2026-09-04 05:13:09 | 52.06792 | 14.71258 | 122° | 137km/h | 9582m | 3.5m/s | -37.6°C | 71.2% | 296.6hPa | 2.8V | 00:00:00 | 00:00:00 | 00:00:00 | |
| EDDB2-12 | 2026-09-04 05:13:06 | 52.06880 | 14.71017 | 120° | 135km/h | 9560m | 3.9m/s | -37.4°C | 69.6% | 297.4hPa | 2.8V | 00:00:00 | 00:00:00 | 00:00:00 | |
| SP6BVK | 2026-09-04 05:13:04 | 52.06879 | 14.71017 | 121° | 137km/h | 9561m | 3.9m/s | -37.4°C | 69.7% | 297.4hPa | 2.8V | 00:00:00 | 00:00:00 | 00:00:00 | |
| SONDE2-11 | 2026-09-04 05:12:59 | 52.07004 | 14.70685 | 122° | 135km/h | 9529m | 3.6m/s | -37.1°C | 67.8% | 298.9hPa | 2.8V | 00:00:00 | 00:00:00 | 00:00:00 | |
| S3001 | 2026-09-04 05:12:57 | 52.07041 | 14.70591 | 121° | 135km/h | 9520m | 3.1m/s | -37.0°C | 67.6% | 299.3hPa | 2.8V | 00:00:00 | 00:00:00 | 00:00:00 | |
| DB0DAN | 2026-09-04 05:12:55 | 52.07059 | 14.70543 | 121° | 131km/h | 9515m | 5.5m/s | -37°C | 66.7% | 299.4hPa | 2.8V | 00:00:00 | 00:00:00 | 00:00:00 | |
| AA1-15 | 2026-09-04 05:12:54 | 52.07077 | 14.70495 | 121° | 137km/h | 9511m | 3.6m/s | -37°C | 67.7% | 299.7hPa | 2.9V | 18:12:15 | 01:03:01 | 00:00:00 | |
| SONCRA | 2026-09-04 05:12:49 | 52.07177 | 14.70208 | 118° | 128km/h | 9483m | 6.5m/s | -36.7°C | 65.4% | 300.9hPa | 2.9V | 00:00:00 | 00:00:00 | 00:00:00 | |
| EDDB2-11 | 2026-09-04 05:12:45 | 52.07227 | 14.70068 | 122° | 133km/h | 9470m | 4.6m/s | -36.6°C | 65.5% | 301.4hPa | 2.9V | 00:00:00 | 00:00:00 | 00:00:00 | |
| AA1-15 | 2026-09-04 05:12:44 | 52.07246 | 14.70022 | 123° | 135km/h | 9465m | 5.1m/s | -36.6°C | 64.9% | 301.6hPa | 2.9V | 18:12:15 | 01:02:51 | 00:00:00 | |
| SP6BVK | 2026-09-04 05:12:43 | 52.07246 | 14.70022 | 124° | 135km/h | 9465m | 5.1m/s | -36.6°C | 65.1% | 301.6hPa | 2.8V | 00:00:00 | 00:00:00 | 00:00:00 | |
| DB0DAN | 2026-09-04 05:12:40 | 52.07317 | 14.69829 | 120° | 131km/h | 9447m | 6.1m/s | -36.4°C | 63.1% | 302.43hPa | 2.8V | 00:00:00 | 00:00:00 | 00:00:00 | |
| AA1-15 | 2026-09-04 05:12:25 | 52.07567 | 14.69134 | 122° | 130km/h | 9363m | 3.5m/s | -35.8°C | 66.4% | 306.1hPa | 2.8V | 18:12:15 | 01:02:32 | 00:00:00 | |
| DB0DAN | 2026-09-04 05:12:25 | 52.07567 | 14.69134 | 122° | 124km/h | 9363m | 3.5m/s | -35.8°C | 64.4% | 306.09hPa | 2.8V | 00:00:00 | 00:00:00 | 00:00:00 | |
| SP3BTT-10 | 2026-09-04 05:12:25 | 52.07567 | 14.69134 | 122° | 131km/h | 9363m | 3.4m/s | -35.7°C | 70.3% | 306.0hPa | 2.9V | 00:00:00 | 00:00:00 | 00:00:00 | |
| KRY50SP-1 | 2026-09-04 05:12:24 | 52.07567 | 14.69134 | 123° | 130km/h | 9363m | 3.5m/s | -35.8°C | 64.5% | 306.1hPa | 2.9V | 00:00:00 | 00:00:00 | 00:00:00 | |
| SP6BVK | 2026-09-04 05:12:22 | 52.07601 | 14.69043 | 123° | 130km/h | 9355m | 5.0m/s | -35.7°C | 63.8% | 306.5hPa | 2.9V | 00:00:00 | 00:00:00 | 00:00:00 | |
| KRY50SP-1 | 2026-09-04 05:12:19 | 52.07654 | 14.68910 | 124° | 130km/h | 9340m | 4.2m/s | -35.5°C | 63.9% | 307.1hPa | 2.9V | 00:00:00 | 00:00:00 | 00:00:00 | |
| 13BRC | 2026-09-04 05:12:17 | 52.07690 | 14.68822 | 125° | 128km/h | 9331m | 3.9m/s | -35.5°C | 63.6% | 307.5hPa | 2.9V | 00:00:00 | 00:00:00 | 00:00:00 | |
| EDDB2-11 | 2026-09-04 05:12:14 | 52.07762 | 14.68648 | 124° | 128km/h | 9314m | 3.0m/s | -35.4°C | 63.9% | 308.3hPa | 2.9V | 00:00:00 | 00:00:00 | 00:00:00 | |
| DB0DAN | 2026-09-04 05:12:10 | 52.07833 | 14.68470 | 123° | 122km/h | 9299m | 4.1m/s | -35.2°C | 64.5% | 308.96hPa | 2.9V | 00:00:00 | 00:00:00 | 00:00:00 | |
| AA1-15 | 2026-09-04 05:12:05 | 52.07924 | 14.68251 | 125° | 130km/h | 9277m | 6.5m/s | -35°C | 66.4% | 310hPa | 2.8V | 18:12:15 | 01:02:12 | 00:00:00 | |
| AA1-15 | 2026-09-04 05:11:55 | 52.08104 | 14.67808 | 122° | 130km/h | 9232m | 5.7m/s | -34.6°C | 66.5% | 312hPa | 2.9V | 18:12:15 | 01:02:02 | 00:00:00 | |
| DB0DAN | 2026-09-04 05:11:55 | 52.08104 | 14.67808 | 122° | 124km/h | 9232m | 5.7m/s | -34.6°C | 64.1% | 312.04hPa | 2.9V | 00:00:00 | 00:00:00 | 00:00:00 | |
| AA1-15 | 2026-09-04 05:11:45 | 52.08287 | 14.67369 | 124° | 131km/h | 9181m | 4.9m/s | -34.2°C | 66.2% | 314.1hPa | 2.9V | 18:12:15 | 01:01:52 | 00:00:00 | |
| EDDB2-11 | 2026-09-04 05:11:43 | 52.08325 | 14.67280 | 124° | 131km/h | 9172m | 4.7m/s | -34.1°C | 64.8% | 314.5hPa | 2.9V | 00:00:00 | 00:00:00 | 00:00:00 | |
| DB0DAN | 2026-09-04 05:11:40 | 52.08381 | 14.67144 | 123° | 126km/h | 9160m | 3.4m/s | -34°C | 64.5% | 315.1hPa | 2.9V | 00:00:00 | 00:00:00 | 00:00:00 | |
| AA1-15 | 2026-09-04 05:11:34 | 52.08491 | 14.66871 | 123° | 131km/h | 9133m | 4.8m/s | -33.8°C | 65.3% | 316.3hPa | 2.8V | 18:12:15 | 01:01:41 | 00:00:00 | |
| EDDB2-12 | 2026-09-04 05:11:32 | 52.08527 | 14.66781 | 123° | 130km/h | 9124m | 5.5m/s | -33.7°C | 62.6% | 316.7hPa | 2.8V | 00:00:00 | 00:00:00 | 00:00:00 | |
| KRY50SP-1 | 2026-09-04 05:11:30 | 52.08545 | 14.66736 | 125° | 130km/h | 9120m | 4.6m/s | -33.6°C | 62.1% | 317.0hPa | 2.8V | 00:00:00 | 00:00:00 | 00:00:00 | |
| DB0DAN | 2026-09-04 05:11:25 | 52.08655 | 14.66471 | 123° | 124km/h | 9093m | 6.2m/s | -33.4°C | 61.1% | 318.15hPa | 2.8V | 00:00:00 | 00:00:00 | 00:00:00 | |
| AA1-15 | 2026-09-04 05:11:24 | 52.08673 | 14.66426 | 123° | 130km/h | 9088m | 3.8m/s | -33.3°C | 63.3% | 318.4hPa | 2.9V | 18:12:15 | 01:01:31 | 00:00:00 | |
| AA1-15 | 2026-09-04 05:11:13 | 52.08876 | 14.65936 | 122° | 131km/h | 9039m | 4.4m/s | -32.9°C | 60.8% | 320.6hPa | 2.9V | 18:12:15 | 01:01:20 | 00:00:00 | |
| DB0DAN | 2026-09-04 05:11:10 | 52.08928 | 14.65804 | 124° | 119km/h | 9028m | 4.7m/s | -32.8°C | 59.3% | 321.24hPa | 2.9V | 00:00:00 | 00:00:00 | 00:00:00 | |
| KRY50SP-1 | 2026-09-04 05:11:09 | 52.08927 | 14.65803 | 125° | 124km/h | 9028m | 4.7m/s | -32.8°C | 59.3% | 321.2hPa | 2.8V | 00:00:00 | 00:00:00 | 00:00:00 | |
| DAC517 | 2026-09-04 05:11:05 | 52.08998 | 14.65630 | 124° | 130km/h | 9009m | 6.3m/s | -32.6°C | 60.2% | 322.2hPa | 2.8V | 00:00:00 | 00:00:00 | 00:00:00 | |
| KRY50SP-1 | 2026-09-04 05:11:03 | 52.09034 | 14.65541 | 125° | 131km/h | 8996m | 5.2m/s | -32.6°C | 61.3% | 322.6hPa | 2.8V | 00:00:00 | 00:00:00 | 00:00:00 | |
| EDDB2-12 | 2026-09-04 05:11:02 | 52.09088 | 14.65407 | 123° | 128km/h | 8982m | 6.9m/s | -32.5°C | 63.4% | 323.2hPa | 2.8V | 00:00:00 | 00:00:00 | 00:00:00 | |
| SP6BVK | 2026-09-04 05:11:00 | 52.09106 | 14.65362 | 124° | 130km/h | 8976m | 5.8m/s | -32.4°C | 64.4% | 323.4hPa | 2.8V | 00:00:00 | 00:00:00 | 00:00:00 | |
| KRY50SP-1 | 2026-09-04 05:10:59 | 52.09125 | 14.65318 | 125° | 128km/h | 8970m | 6.8m/s | -32.4°C | 64.8% | 323.7hPa | 2.8V | 00:00:00 | 00:00:00 | 00:00:00 | |
| DB0DAN | 2026-09-04 05:10:55 | 52.09197 | 14.65145 | 125° | 122km/h | 8948m | 5.8m/s | -32.2°C | 66.9% | 324.68hPa | 2.8V | 00:00:00 | 00:00:00 | 00:00:00 | |
| AA1-15 | 2026-09-04 05:10:53 | 52.09234 | 14.65057 | 123° | 130km/h | 8939m | 4.8m/s | -32.2°C | 69% | 325.1hPa | 2.9V | 18:12:15 | 01:01:00 | 00:00:00 | |
| S3001 | 2026-09-04 05:10:53 | 52.09251 | 14.65013 | 122° | 128km/h | 8935m | 3.9m/s | -32.1°C | 67.6% | 325.3hPa | 2.9V | 00:00:00 | 00:00:00 | 00:00:00 | |
| AA1-15 | 2026-09-04 05:10:43 | 52.09415 | 14.64604 | 124° | 133km/h | 8895m | 2.8m/s | -31.8°C | 70.6% | 327.3hPa | 2.9V | 18:12:15 | 01:00:50 | 00:00:00 | |
| KRY50SP-1 | 2026-09-04 05:10:43 | 52.09415 | 14.64604 | 125° | 133km/h | 8895m | 2.8m/s | -31.8°C | 69.4% | 327.3hPa | 2.9V | 00:00:00 | 00:00:00 | 00:00:00 | |
| DB0DAN | 2026-09-04 05:10:40 | 52.09472 | 14.64468 | 124° | 128km/h | 8882m | 3.7m/s | -31.6°C | 69.9% | 327.87hPa | 2.9V | 00:00:00 | 00:00:00 | 00:00:00 | |
| SP6BVK | 2026-09-04 05:10:39 | 52.09472 | 14.64468 | 125° | 133km/h | 8882m | 3.7m/s | -31.6°C | 70.0% | 327.9hPa | 2.8V | 00:00:00 | 00:00:00 | 00:00:00 | |
| KRY50SP-1 | 2026-09-04 05:10:36 | 52.09527 | 14.64332 | 124° | 130km/h | 8870m | 6.0m/s | -31.6°C | 69.3% | 328.5hPa | 2.8V | 00:00:00 | 00:00:00 | 00:00:00 | |
| 13BRC | 2026-09-04 05:10:33 | 52.09582 | 14.64198 | 125° | 131km/h | 8855m | 5.5m/s | -31.5°C | 69.9% | 329.2hPa | 2.8V | 00:00:00 | 00:00:00 | 00:00:00 | |
| DL2RXE-15 | 2026-09-04 05:10:32 | 52.09620 | 14.64107 | 125° | 135km/h | 8845m | 5.6m/s | -31.4°C | 0% | 329.6hPa | 2.8V | 00:00:00 | 00:00:00 | 00:00:00 | |
| EDDB2-12 | 2026-09-04 05:10:30 | 52.09659 | 14.64015 | 124° | 137km/h | 8836m | 3.8m/s | -31.3°C | 73.7% | 330.0hPa | 2.8V | 00:00:00 | 00:00:00 | 00:00:00 | |
| DB0DAN | 2026-09-04 05:10:25 | 52.09747 | 14.63776 | 118° | 126km/h | 8811m | 4.6m/s | -31.2°C | 77.1% | 331.12hPa | 2.8V | 00:00:00 | 00:00:00 | 00:00:00 | |
| SP3BTT-10 | 2026-09-04 05:10:24 | 52.09763 | 14.63730 | 119° | 128km/h | 8807m | 3.6m/s | -31.1°C | 83.7% | 331.3hPa | 2.9V | 00:00:00 | 00:00:00 | 00:00:00 | |
| SONDE2-11 | 2026-09-04 05:10:23 | 52.09778 | 14.63686 | 120° | 120km/h | 8804m | 3.7m/s | -31.1°C | 78.0% | 331.5hPa | 2.9V | 00:00:00 | 00:00:00 | 00:00:00 | |
| KRY50SP-1 | 2026-09-04 05:10:21 | 52.09795 | 14.63644 | 125° | 120km/h | 8800m | 3.7m/s | -31.0°C | 77.8% | 331.7hPa | 2.9V | 00:00:00 | 00:00:00 | 00:00:00 | |
| SP6BVK | 2026-09-04 05:10:19 | 52.09833 | 14.63566 | 132° | 124km/h | 8788m | 7.7m/s | -30.9°C | 77.0% | 332.1hPa | 2.9V | 00:00:00 | 00:00:00 | 00:00:00 | |
| KRY50SP-1 | 2026-09-04 05:10:16 | 52.09897 | 14.63444 | 129° | 137km/h | 8767m | 7.2m/s | -30.8°C | 77.8% | 333.2hPa | 2.9V | 00:00:00 | 00:00:00 | 00:00:00 | |
| SONCRA | 2026-09-04 05:10:13 | 52.09970 | 14.63251 | 117° | 131km/h | 8734m | 7.5m/s | -30.5°C | 77.9% | 334.8hPa | 2.9V | 00:00:00 | 00:00:00 | 00:00:00 | |
| 13BRC | 2026-09-04 05:10:12 | 52.09970 | 14.63251 | 119° | 133km/h | 8734m | 7.5m/s | -30.5°C | 77.9% | 334.8hPa | 2.9V | 00:00:00 | 00:00:00 | 00:00:00 | |
| DB0DAN | 2026-09-04 05:10:10 | 52.10016 | 14.63122 | 123° | 110km/h | 8715m | 8.4m/s | -30.3°C | 76.2% | 335.68hPa | 2.9V | 00:00:00 | 00:00:00 | 00:00:00 | |
| DL2RXE-15 | 2026-09-04 05:10:04 | 52.10108 | 14.62893 | 124° | 148km/h | 8678m | 8.5m/s | -30.0°C | 0% | 0hPa | 2.9V | 00:00:00 | 00:00:00 | 00:00:00 | |
| KRY50SP-1 | 2026-09-04 05:09:59 | 52.10189 | 14.62647 | 122° | 126km/h | 8638m | 9.0m/s | -29.7°C | 72.6% | 339.3hPa | 2.9V | 00:00:00 | 00:00:00 | 00:00:00 | |
| SP6BVK | 2026-09-04 05:09:58 | 52.10205 | 14.62604 | 125° | 124km/h | 8630m | 6.5m/s | -29.6°C | 72.5% | 339.6hPa | 2.9V | 00:00:00 | 00:00:00 | 00:00:00 | |
| DB0DAN | 2026-09-04 05:09:55 | 52.10273 | 14.62429 | 119° | 130km/h | 8610m | 6.6m/s | -29.4°C | 72.7% | 340.55hPa | 2.9V | 00:00:00 | 00:00:00 | 00:00:00 | |
| SONDE2-11 | 2026-09-04 05:09:52 | 52.10327 | 14.62270 | 117° | 151km/h | 8588m | 6.0m/s | -29.2°C | 70.9% | 341.5hPa | 2.9V | 00:00:00 | 00:00:00 | 00:00:00 | |
| S3001 | 2026-09-04 05:09:50 | 52.10362 | 14.62158 | 115° | 150km/h | 8579m | 5.7m/s | -29.2°C | 70.8% | 342.0hPa | 2.9V | 00:00:00 | 00:00:00 | 00:00:00 | |
| KRY50SP-1 | 2026-09-04 05:09:48 | 52.10378 | 14.62103 | 117° | 146km/h | 8573m | 6.8m/s | -29.1°C | 70.7% | 342.3hPa | 2.9V | 00:00:00 | 00:00:00 | 00:00:00 | |
| DAC517 | 2026-09-04 05:09:45 | 52.10452 | 14.61867 | 122° | 117km/h | 8532m | 7.3m/s | -28.8°C | 69.2% | 344.2hPa | 2.9V | 00:00:00 | 00:00:00 | 00:00:00 | |
| DL2RXE-15 | 2026-09-04 05:09:43 | 52.10452 | 14.61867 | 122° | 117km/h | 8532m | 7.3m/s | -28.8°C | 0% | 344.2hPa | 2.9V | 00:00:00 | 00:00:00 | 00:00:00 | |
| KRY50SP-1 | 2026-09-04 05:09:42 | 52.10468 | 14.61825 | 123° | 119km/h | 8526m | 3.4m/s | -28.7°C | 70.0% | 344.5hPa | 2.9V | 00:00:00 | 00:00:00 | 00:00:00 | |
| DB0DAN | 2026-09-04 05:09:40 | 52.10519 | 14.61698 | 123° | 120km/h | 8512m | 6.3m/s | -28.6°C | 69% | 345.21hPa | 2.9V | 00:00:00 | 00:00:00 | 00:00:00 | |
| EDDB2-11 | 2026-09-04 05:09:40 | 52.10536 | 14.61654 | 123° | 126km/h | 8505m | 7.1m/s | -28.6°C | 68.8% | 345.5hPa | 2.7V | 00:00:00 | 00:00:00 | 00:00:00 | |
| SP3BTT-10 | 2026-09-04 05:09:39 | 52.10536 | 14.61654 | 124° | 124km/h | 8505m | 7.0m/s | -28.5°C | 73.7% | 345.5hPa | 2.7V | 00:00:00 | 00:00:00 | 00:00:00 | |
| SP6BVK | 2026-09-04 05:09:38 | 52.10536 | 14.61654 | 124° | 128km/h | 8505m | 7.1m/s | -28.6°C | 68.8% | 345.5hPa | 2.9V | 00:00:00 | 00:00:00 | 00:00:00 | |
| KRY50SP-1 | 2026-09-04 05:09:36 | 52.10569 | 14.61562 | 119° | 131km/h | 8492m | 5.7m/s | -28.5°C | 68.8% | 346.2hPa | 2.9V | 00:00:00 | 00:00:00 | 00:00:00 | |
| 13BRC | 2026-09-04 05:09:32 | 52.10648 | 14.61319 | 120° | 133km/h | 8462m | 6.8m/s | -28.3°C | 66.4% | 347.8hPa | 2.9V | 00:00:00 | 00:00:00 | 00:00:00 | |
| KRY50SP-1 | 2026-09-04 05:09:31 | 52.10648 | 14.61319 | 120° | 133km/h | 8462m | 6.8m/s | -28.3°C | 66.4% | 347.8hPa | 2.9V | 00:00:00 | 00:00:00 | 00:00:00 | |
| EDDB2-12 | 2026-09-04 05:09:28 | 52.10714 | 14.61127 | 119° | 131km/h | 8434m | 3.7m/s | -28.3°C | 70.9% | 349.0hPa | 2.9V | 00:00:00 | 00:00:00 | 00:00:00 | |
| DB0DAN | 2026-09-04 05:09:25 | 52.10762 | 14.60987 | 118° | 120km/h | 8420m | 6.5m/s | -28.2°C | 71.5% | 349.63hPa | 2.9V | 00:00:00 | 00:00:00 | 00:00:00 | |
| DAC517 | 2026-09-04 05:09:23 | 52.10789 | 14.60896 | 116° | 120km/h | 8411m | 6.1m/s | -28.1°C | 71.5% | 350.1hPa | 2.8V | 00:00:00 | 00:00:00 | 00:00:00 | |
| SONDE2-11 | 2026-09-04 05:09:21 | 52.10813 | 14.60805 | 111° | 120km/h | 8401m | 5.4m/s | -28.0°C | 71.5% | 350.6hPa | 2.8V | 00:00:00 | 00:00:00 | 00:00:00 | |
| S3001 | 2026-09-04 05:09:20 | 52.10837 | 14.60710 | 113° | 130km/h | 8391m | 4.1m/s | -27.9°C | 71.9% | 351.1hPa | 2.8V | 00:00:00 | 00:00:00 | 00:00:00 | |
| SP6BVK | 2026-09-04 05:09:17 | 52.10850 | 14.60660 | 115° | 131km/h | 8386m | 7.0m/s | -27.9°C | 71.3% | 351.3hPa | 2.8V | 00:00:00 | 00:00:00 | 00:00:00 | |
| DL2RXE-15 | 2026-09-04 05:09:15 | 52.10877 | 14.60561 | 114° | 131km/h | 8371m | 7.4m/s | -27.8°C | 0% | 0hPa | 2.8V | 00:00:00 | 00:00:00 | 00:00:00 | |
| DB0DAN | 2026-09-04 05:09:10 | 52.10949 | 14.60281 | 115° | 113km/h | 8331m | 9.4m/s | -27.6°C | 75.8% | 354.06hPa | 2.8V | 00:00:00 | 00:00:00 | 00:00:00 | |
| AA1-15 | 2026-09-04 05:09:09 | 52.10962 | 14.60237 | 116° | 122km/h | 8323m | 6.9m/s | -27.6°C | 77.2% | 354.3hPa | 2.9V | 18:12:15 | 00:59:16 | 00:00:00 | |
| EDDB2-11 | 2026-09-04 05:09:08 | 52.10976 | 14.60192 | 116° | 120km/h | 8317m | 6.9m/s | -27.5°C | 75.5% | 354.7hPa | 2.9V | 00:00:00 | 00:00:00 | 00:00:00 | |
| KRY50SP-1 | 2026-09-04 05:09:04 | 52.11018 | 14.60055 | 117° | 124km/h | 8300m | 4.1m/s | -27.4°C | 76.8% | 355.6hPa | 2.9V | 00:00:00 | 00:00:00 | 00:00:00 | |
| EDDB2-12 | 2026-09-04 05:08:58 | 52.11120 | 14.59687 | 115° | 120km/h | 8265m | 5.8m/s | -27.2°C | 78.7% | 357.4hPa | 2.9V | 00:00:00 | 00:00:00 | 00:00:00 | |
| DB0DAN | 2026-09-04 05:08:55 | 52.11146 | 14.59598 | 115° | 113km/h | 8256m | 5.7m/s | -27.1°C | 78% | 357.87hPa | 2.9V | 00:00:00 | 00:00:00 | 00:00:00 | |
| SONDE2-11 | 2026-09-04 05:08:50 | 52.11208 | 14.59375 | 113° | 119km/h | 8225m | 5.2m/s | -27.0°C | 81.1% | 359.4hPa | 2.8V | 00:00:00 | 00:00:00 | 00:00:00 | |
| S3001 | 2026-09-04 05:08:48 | 52.11232 | 14.59283 | 113° | 120km/h | 8215m | 3.6m/s | -26.9°C | 81.1% | 359.9hPa | 2.8V | 00:00:00 | 00:00:00 | 00:00:00 | |
| KRY50SP-1 | 2026-09-04 05:08:47 | 52.11232 | 14.59283 | 114° | 122km/h | 8216m | 3.6m/s | -26.9°C | 81.1% | 359.9hPa | 2.8V | 00:00:00 | 00:00:00 | 00:00:00 | |
| KRY50SP-1 | 2026-09-04 05:08:42 | 52.11296 | 14.59057 | 117° | 120km/h | 8195m | 5.2m/s | -26.7°C | 79.7% | 360.8hPa | 2.8V | 00:00:00 | 00:00:00 | 00:00:00 | |
| DB0DAN | 2026-09-04 05:08:40 | 52.11338 | 14.58924 | 118° | 115km/h | 8181m | 4.8m/s | -26.6°C | 79.6% | 361.56hPa | 2.8V | 00:00:00 | 00:00:00 | 00:00:00 | |
| AA1-15 | 2026-09-04 05:08:37 | 52.11381 | 14.58791 | 116° | 122km/h | 8168m | 4.7m/s | -26.5°C | 79.9% | 362.2hPa | 2.9V | 18:12:15 | 00:58:44 | 00:00:00 | |
| AA1-15 | 2026-09-04 05:08:25 | 52.11538 | 14.58255 | 117° | 120km/h | 8107m | 6.3m/s | -26.2°C | 83.5% | 365.4hPa | 2.9V | 18:12:15 | 00:58:32 | 00:00:00 | |
| DB0DAN | 2026-09-04 05:08:25 | 52.11538 | 14.58255 | 117° | 115km/h | 8107m | 6.3m/s | -26.2°C | 84.6% | 365.39hPa | 2.9V | 00:00:00 | 00:00:00 | 00:00:00 | |
| AA1-15 | 2026-09-04 05:08:15 | 52.11675 | 14.57802 | 115° | 122km/h | 8036m | 6.6m/s | -25.7°C | 84.7% | 368.6hPa | 2.9V | 18:12:15 | 00:58:22 | 00:00:00 | |
| DB0DAN | 2026-09-04 05:08:10 | 52.11743 | 14.57574 | 116° | 119km/h | 8012m | 3.9m/s | -25.6°C | 86.8% | 370.04hPa | 2.9V | 00:00:00 | 00:00:00 | 00:00:00 | |
| AA1-15 | 2026-09-04 05:08:04 | 52.11829 | 14.57303 | 117° | 126km/h | 7985m | 3.3m/s | -25.4°C | 85.4% | 371.4hPa | 2.9V | 18:12:15 | 00:58:11 | 00:00:00 | |
| DAC517 | 2026-09-04 05:08:00 | 52.11885 | 14.57119 | 118° | 124km/h | 7968m | 4.3m/s | -25.3°C | 87.9% | 372.4hPa | 2.9V | 00:00:00 | 00:00:00 | 00:00:00 | |
| DB0DAN | 2026-09-04 05:07:55 | 52.11956 | 14.56885 | 117° | 122km/h | 7941m | 5.6m/s | -25.1°C | 89.2% | 373.7hPa | 2.9V | 00:00:00 | 00:00:00 | 00:00:00 | |
| AA1-15 | 2026-09-04 05:07:53 | 52.11985 | 14.56792 | 116° | 126km/h | 7932m | 5.1m/s | -25°C | 86.1% | 374.2hPa | 2.9V | 18:12:15 | 00:58:00 | 00:00:00 | |
| SONDE2-11 | 2026-09-04 05:07:48 | 52.12057 | 14.56569 | 118° | 120km/h | 7909m | 3.3m/s | -24.8°C | 89.3% | 375.4hPa | 2.9V | 00:00:00 | 00:00:00 | 00:00:00 | |
| S3001 | 2026-09-04 05:07:46 | 52.12087 | 14.56478 | 117° | 126km/h | 7900m | 2.7m/s | -24.7°C | 90.3% | 375.8hPa | 2.9V | 00:00:00 | 00:00:00 | 00:00:00 | |
| AA1-15 | 2026-09-04 05:07:43 | 52.12132 | 14.56336 | 117° | 131km/h | 7885m | 3.9m/s | -24.6°C | 88.7% | 376.7hPa | 2.9V | 18:12:15 | 00:57:50 | 00:00:00 | |
| DB0DAN | 2026-09-04 05:07:40 | 52.12178 | 14.56193 | 118° | 122km/h | 7873m | 4.1m/s | -24.6°C | 91.8% | 377.3hPa | 2.8V | 00:00:00 | 00:00:00 | 00:00:00 | |
| AA1-15 | 2026-09-04 05:07:33 | 52.12288 | 14.55864 | 118° | 128km/h | 7837m | 2.9m/s | -24.3°C | 87.4% | 379.1hPa | 2.9V | 18:12:15 | 00:57:40 | 00:00:00 | |
| KRY50SP-1 | 2026-09-04 05:07:31 | 52.12303 | 14.55818 | 119° | 126km/h | 7834m | 5.6m/s | 0°C | 0% | 379.3hPa | 2.9V | 00:00:00 | 00:00:00 | 00:00:00 | |
| 13BRC | 2026-09-04 05:07:27 | 52.12362 | 14.55639 | 119° | 124km/h | 7814m | 6.4m/s | -24.1°C | 90.8% | 380.3hPa | 2.9V | 00:00:00 | 00:00:00 | 00:00:00 | |
| DB0DAN | 2026-09-04 05:07:25 | 52.12405 | 14.55500 | 116° | 120km/h | 7799m | 5.5m/s | -24°C | 89.6% | 381.01hPa | 2.9V | 00:00:00 | 00:00:00 | 00:00:00 | |
| AA1-15 | 2026-09-04 05:07:22 | 52.12450 | 14.55362 | 119° | 126km/h | 7786m | 3.9m/s | -23.9°C | 87% | 381.7hPa | 2.8V | 18:12:15 | 00:57:29 | 00:00:00 | |
| DAC517 | 2026-09-04 05:07:21 | 52.12480 | 14.55273 | 120° | 122km/h | 7776m | 4.9m/s | -23.8°C | 88.4% | 382.3hPa | 2.9V | 00:00:00 | 00:00:00 | 00:00:00 | |
| KRY50SP-1 | 2026-09-04 05:07:19 | 52.12480 | 14.55273 | 120° | 122km/h | 7776m | 4.9m/s | 0°C | 0% | 0hPa | 2.9V | 00:00:00 | 00:00:00 | 00:00:00 | |
| SONDE2-11 | 2026-09-04 05:07:17 | 52.12526 | 14.55144 | 121° | 120km/h | 7762m | 3.5m/s | -23.7°C | 88.4% | 383.0hPa | 2.9V | 00:00:00 | 00:00:00 | 00:00:00 | |
| S3001 | 2026-09-04 05:07:15 | 52.12558 | 14.55059 | 121° | 120km/h | 7754m | 4.8m/s | -23.6°C | 87.7% | 383.4hPa | 2.9V | 00:00:00 | 00:00:00 | 00:00:00 | |
| SP6BVK | 2026-09-04 05:07:13 | 52.12574 | 14.55016 | 121° | 119km/h | 7749m | 5.5m/s | -23.6°C | 88.0% | 383.6hPa | 2.9V | 00:00:00 | 00:00:00 | 00:00:00 | |
| DB0DAN | 2026-09-04 05:07:10 | 52.12631 | 14.54842 | 117° | 115km/h | 7729m | 6.8m/s | -23.5°C | 88.7% | 384.63hPa | 2.9V | 00:00:00 | 00:00:00 | 00:00:00 | |
| SP3BTT-10 | 2026-09-04 05:07:09 | 52.12644 | 14.54797 | 117° | 126km/h | 7723m | 3.6m/s | -23.4°C | 94.5% | 384.9hPa | 2.9V | 00:00:00 | 00:00:00 | 00:00:00 | |
| 13BRC | 2026-09-04 05:07:06 | 52.12674 | 14.54706 | 120° | 128km/h | 7714m | 4.2m/s | -23.3°C | 90.0% | 385.6hPa | 2.9V | 00:00:00 | 00:00:00 | 00:00:00 | |
| EDDB2-11 | 2026-09-04 05:07:04 | 52.12728 | 14.54568 | 126° | 137km/h | 7698m | 6.8m/s | -23.2°C | 86.8% | 386.2hPa | 2.9V | 00:00:00 | 00:00:00 | 00:00:00 | |
| DAC517 | 2026-09-04 05:07:01 | 52.12794 | 14.54381 | 113° | 126km/h | 7665m | 7.8m/s | -22.9°C | 86.3% | 388.0hPa | 2.9V | 00:00:00 | 00:00:00 | 00:00:00 | |
| DB0DAN | 2026-09-04 05:06:55 | 52.12848 | 14.54166 | 118° | 97km/h | 7633m | 7m/s | -22.6°C | 84.9% | 389.71hPa | 2.9V | 00:00:00 | 00:00:00 | 00:00:00 | |
| EDDB2-12 | 2026-09-04 05:06:54 | 52.12873 | 14.54091 | 118° | 104km/h | 7625m | 4.9m/s | -22.6°C | 85.5% | 390.2hPa | 2.9V | 00:00:00 | 00:00:00 | 00:00:00 | |
| SONDE2-11 | 2026-09-04 05:06:46 | 52.12974 | 14.53765 | 120° | 135km/h | 7575m | 7.0m/s | -22.1°C | 84.3% | 392.9hPa | 2.9V | 00:00:00 | 00:00:00 | 00:00:00 | |
| DL2RXE-15 | 2026-09-04 05:06:45 | 52.12974 | 14.53765 | 121° | 135km/h | 7575m | 7.0m/s | -22.1°C | 0% | 0hPa | 2.9V | 00:00:00 | 00:00:00 | 00:00:00 | |
| S3001 | 2026-09-04 05:06:44 | 52.13004 | 14.53670 | 114° | 126km/h | 7561m | 8.0m/s | -22.0°C | 83.5% | 393.6hPa | 2.9V | 00:00:00 | 00:00:00 | 00:00:00 | |
| DB0DAN | 2026-09-04 05:06:40 | 52.13048 | 14.53477 | 112° | 117km/h | 7532m | 5m/s | -21.8°C | 83.4% | 395.2hPa | 2.9V | 00:00:00 | 00:00:00 | 00:00:00 | |
| SP6BVK | 2026-09-04 05:06:32 | 52.13136 | 14.53161 | 118° | 130km/h | 7490m | 4.5m/s | -21.4°C | 82.9% | 397.4hPa | 2.8V | 00:00:00 | 00:00:00 | 00:00:00 | |
| KRY50SP-1 | 2026-09-04 05:06:31 | 52.13151 | 14.53113 | 120° | 131km/h | 7486m | 3.8m/s | 0°C | 0% | 0hPa | 2.8V | 00:00:00 | 00:00:00 | 00:00:00 | |
| DB0DAN | 2026-09-04 05:06:25 | 52.13254 | 14.52787 | 111° | 111km/h | 7445m | 6.7m/s | -21.1°C | 80.8% | 399.84hPa | 2.8V | 00:00:00 | 00:00:00 | 00:00:00 | |
| 13BRC | 2026-09-04 05:06:24 | 52.13254 | 14.52787 | 112° | 117km/h | 7445m | 6.7m/s | -21.1°C | 80.8% | 399.8hPa | 2.9V | 00:00:00 | 00:00:00 | 00:00:00 | |
| SP3BTT-10 | 2026-09-04 05:06:23 | 52.13276 | 14.52695 | 111° | 115km/h | 7429m | 8.0m/s | -20.9°C | 84.3% | 400.6hPa | 2.9V | 00:00:00 | 00:00:00 | 00:00:00 | |
| EDDB2-12 | 2026-09-04 05:06:22 | 52.13288 | 14.52645 | 110° | 131km/h | 7423m | 4.9m/s | -20.9°C | 80.4% | 400.9hPa | 2.9V | 00:00:00 | 00:00:00 | 00:00:00 | |
| KRY50SP-1 | 2026-09-04 05:06:19 | 52.13312 | 14.52544 | 114° | 128km/h | 7414m | 3.7m/s | 0°C | 0% | 0hPa | 2.9V | 00:00:00 | 00:00:00 | 00:00:00 | |
| DAC517 | 2026-09-04 05:06:17 | 52.13376 | 14.52332 | 116° | 106km/h | 7382m | 7.0m/s | -20.9°C | 85.3% | 403.2hPa | 2.9V | 00:00:00 | 00:00:00 | 00:00:00 | |
| SONDE2-11 | 2026-09-04 05:06:15 | 52.13376 | 14.52332 | 114° | 106km/h | 7382m | 7.0m/s | -20.9°C | 85.2% | 403.2hPa | 2.9V | 00:00:00 | 00:00:00 | 00:00:00 | |
| S3001 | 2026-09-04 05:06:13 | 52.13398 | 14.52250 | 112° | 110km/h | 7369m | 8.6m/s | -20.8°C | 83.9% | 403.9hPa | 2.9V | 00:00:00 | 00:00:00 | 00:00:00 | |
| SP6BVK | 2026-09-04 05:06:12 | 52.13397 | 14.52250 | 113° | 110km/h | 7369m | 8.6m/s | -20.8°C | 83.9% | 403.9hPa | 2.9V | 00:00:00 | 00:00:00 | 00:00:00 | |
| DB0DAN | 2026-09-04 05:06:10 | 52.13428 | 14.52124 | 111° | 104km/h | 7347m | 4.9m/s | -20.7°C | 85% | 405.06hPa | 2.9V | 00:00:00 | 00:00:00 | 00:00:00 | |
| KRY50SP-1 | 2026-09-04 05:06:07 | 52.13447 | 14.52039 | 112° | 111km/h | 7338m | 4.0m/s | 0°C | 0% | 0hPa | 2.9V | 00:00:00 | 00:00:00 | 00:00:00 | |
| 13BRC | 2026-09-04 05:06:03 | 52.13488 | 14.51869 | 113° | 111km/h | 7321m | 4.7m/s | -20.6°C | 88.4% | 406.5hPa | 2.9V | 00:00:00 | 00:00:00 | 00:00:00 | |
| EDDB2-11 | 2026-09-04 05:06:02 | 52.13520 | 14.51741 | 112° | 111km/h | 7308m | 5.1m/s | -20.5°C | 89.9% | 407.2hPa | 2.9V | 00:00:00 | 00:00:00 | 00:00:00 | |
| KRY50SP-1 | 2026-09-04 05:06:00 | 52.13520 | 14.51741 | 113° | 111km/h | 7309m | 5.1m/s | 0°C | 0% | 0hPa | 2.9V | 00:00:00 | 00:00:00 | 00:00:00 | |
| DL2RXE-15 | 2026-09-04 05:05:57 | 52.13553 | 14.51613 | 114° | 113km/h | 7294m | 4.4m/s | -20.4°C | 0% | 0hPa | 2.9V | 00:00:00 | 00:00:00 | 00:00:00 | |
| DB0DAN | 2026-09-04 05:05:55 | 52.13587 | 14.51483 | 113° | 110km/h | 7280m | 5m/s | -20.3°C | 90.5% | 408.77hPa | 2.9V | 00:00:00 | 00:00:00 | 00:00:00 | |
| AA1-15 | 2026-09-04 05:05:46 | 52.13686 | 14.51097 | 113° | 108km/h | 7239m | 7m/s | -20°C | 85.7% | 411.1hPa | 2.9V | 18:12:15 | 00:55:53 | 00:00:00 | |
| SONDE2-11 | 2026-09-04 05:05:44 | 52.13708 | 14.51014 | 113° | 111km/h | 7229m | 4.9m/s | -19.9°C | 89.6% | 411.6hPa | 2.9V | 00:00:00 | 00:00:00 | 00:00:00 | |
| 13BRC | 2026-09-04 05:05:43 | 52.13708 | 14.51014 | 114° | 111km/h | 7229m | 4.9m/s | -19.9°C | 89.6% | 411.6hPa | 2.9V | 00:00:00 | 00:00:00 | 00:00:00 | |
| DB0DAN | 2026-09-04 05:05:40 | 52.13754 | 14.50841 | 114° | 110km/h | 7213m | 5.3m/s | -19.8°C | 89% | 412.43hPa | 2.9V | 00:00:00 | 00:00:00 | 00:00:00 | |
| KRY50SP-1 | 2026-09-04 05:05:38 | 52.13765 | 14.50798 | 114° | 115km/h | 7209m | 3.0m/s | 0°C | 0% | 0hPa | 2.9V | 00:00:00 | 00:00:00 | 00:00:00 | |
| DL2RXE-15 | 2026-09-04 05:05:37 | 52.13776 | 14.50755 | 113° | 115km/h | 7205m | 5.3m/s | -19.8°C | 0% | 412.9hPa | 2.9V | 00:00:00 | 00:00:00 | 00:00:00 | |
| SP6BVK | 2026-09-04 05:05:30 | 52.13853 | 14.50453 | 115° | 113km/h | 7173m | 3.6m/s | -19.6°C | 90.6% | 414.8hPa | 2.9V | 00:00:00 | 00:00:00 | 00:00:00 | |
| DB0DAN | 2026-09-04 05:05:25 | 52.13921 | 14.50193 | 112° | 111km/h | 7146m | 7m/s | -19.4°C | 90.1% | 416.29hPa | 2.9V | 00:00:00 | 00:00:00 | 00:00:00 | |
| 13BRC | 2026-09-04 05:05:24 | 52.13932 | 14.50148 | 113° | 117km/h | 7139m | 6.5m/s | -19.4°C | 90.4% | 416.6hPa | 2.8V | 00:00:00 | 00:00:00 | 00:00:00 | |
| SP3BTT-10 | 2026-09-04 05:05:23 | 52.13943 | 14.50103 | 113° | 119km/h | 7134m | 5.5m/s | -19.3°C | 95.9% | 416.9hPa | 2.8V | 00:00:00 | 00:00:00 | 00:00:00 | |
| EDDB2-12 | 2026-09-04 05:05:20 | 52.13978 | 14.49971 | 115° | 117km/h | 7120m | 2.4m/s | -19.2°C | 94.2% | 417.8hPa | 2.8V | 00:00:00 | 00:00:00 | 00:00:00 | |
| KRY50SP-1 | 2026-09-04 05:05:15 | 52.14029 | 14.49798 | 117° | 113km/h | 7104m | 6.0m/s | 0°C | 0% | 0hPa | 2.8V | 00:00:00 | 00:00:00 | 00:00:00 | |
| SONDE2-11 | 2026-09-04 05:05:13 | 52.14065 | 14.49667 | 112° | 119km/h | 7085m | 3.9m/s | -19.0°C | 94.9% | 419.7hPa | 2.8V | 00:00:00 | 00:00:00 | 00:00:00 | |
| DAC517 | 2026-09-04 05:05:12 | 52.14065 | 14.49667 | 114° | 120km/h | 7085m | 3.9m/s | -19.0°C | 95.0% | 419.7hPa | 2.8V | 00:00:00 | 00:00:00 | 00:00:00 | |
| DB0DAN | 2026-09-04 05:05:10 | 52.14098 | 14.49525 | 110° | 117km/h | 7073m | 2.8m/s | -19.1°C | 96.2% | 420.33hPa | 2.8V | 00:00:00 | 00:00:00 | 00:00:00 | |
| AA1-15 | 2026-09-04 05:05:10 | 52.14098 | 14.49525 | 110° | 122km/h | 7073m | 2.8m/s | -19.1°C | 91.5% | 420.3hPa | 2.8V | 18:12:15 | 00:55:17 | 00:00:00 | |
| AA1-15 | 2026-09-04 05:04:59 | 52.14250 | 14.49041 | 124° | 120km/h | 7016m | 4.5m/s | -18.6°C | 90.7% | 423.5hPa | 2.9V | 18:12:15 | 00:55:06 | 00:00:00 | |
| DB0DAN | 2026-09-04 05:04:55 | 52.14314 | 14.48877 | 122° | 113km/h | 6993m | 10.3m/s | -18.6°C | 96.8% | 424.74hPa | 2.9V | 00:00:00 | 00:00:00 | 00:00:00 | |
| AA1-15 | 2026-09-04 05:04:49 | 52.14396 | 14.48613 | 112° | 124km/h | 6945m | 7m/s | -18.2°C | 92% | 427.6hPa | 2.9V | 18:12:15 | 00:54:56 | 00:00:00 | |
| DL2RXE-15 | 2026-09-04 05:04:49 | 52.14396 | 14.48613 | 113° | 124km/h | 6945m | 7.0m/s | -18.2°C | 0% | 427.6hPa | 2.9V | 00:00:00 | 00:00:00 | 00:00:00 | |
| KRY50SP-1 | 2026-09-04 05:04:46 | 52.14422 | 14.48524 | 119° | 115km/h | 6932m | 8.6m/s | 0°C | 0% | 0hPa | 2.9V | 00:00:00 | 00:00:00 | 00:00:00 | |
| DB0DAN | 2026-09-04 05:04:40 | 52.14513 | 14.48239 | 117° | 115km/h | 6873m | 8m/s | -17.7°C | 95.2% | 431.62hPa | 2.9V | 00:00:00 | 00:00:00 | 00:00:00 | |
| AA1-15 | 2026-09-04 05:04:38 | 52.14542 | 14.48150 | 118° | 124km/h | 6861m | 5.8m/s | -17.6°C | 91.3% | 432.2hPa | 2.9V | 18:12:15 | 00:54:45 | 00:00:00 | |
| AA1-15 | 2026-09-04 05:04:28 | 52.14677 | 14.47719 | 119° | 115km/h | 6809m | 6.8m/s | -17.1°C | 88% | 435.5hPa | 2.8V | 18:12:15 | 00:54:35 | 00:00:00 | |
| DB0DAN | 2026-09-04 05:04:25 | 52.14719 | 14.47595 | 119° | 110km/h | 6793m | 4.9m/s | -17°C | 91.5% | 436.35hPa | 2.9V | 00:00:00 | 00:00:00 | 00:00:00 | |
| AA1-15 | 2026-09-04 05:04:17 | 52.14818 | 14.47233 | 112° | 128km/h | 6754m | 3.5m/s | -16.7°C | 85.7% | 438.7hPa | 2.9V | 18:12:15 | 00:54:24 | 00:00:00 | |
| KRY50SP-1 | 2026-09-04 05:04:14 | 52.14844 | 14.47140 | 119° | 119km/h | 6744m | 5.6m/s | 0°C | 0% | 0hPa | 2.8V | 00:00:00 | 00:00:00 | 00:00:00 | |
| DB0DAN | 2026-09-04 05:04:10 | 52.14909 | 14.46953 | 117° | 99km/h | 6711m | 4.7m/s | -16.3°C | 88.9% | 441.11hPa | 2.8V | 00:00:00 | 00:00:00 | 00:00:00 | |
| AA1-15 | 2026-09-04 05:04:06 | 52.14955 | 14.46781 | 113° | 126km/h | 6687m | 6.8m/s | -16.2°C | 88.7% | 0hPa | 2.9V | 18:12:15 | 00:54:13 | 00:00:00 | |
| KRY50SP-1 | 2026-09-04 05:04:02 | 52.14994 | 14.46643 | 117° | 117km/h | 6668m | 3.5m/s | 0°C | 0% | 0hPa | 2.9V | 00:00:00 | 00:00:00 | 00:00:00 | |
| EDDB2-11 | 2026-09-04 05:03:58 | 52.15075 | 14.46386 | 115° | 119km/h | 6630m | 2.4m/s | -15.8°C | 88.9% | 445.9hPa | 2.9V | 00:00:00 | 00:00:00 | 00:00:00 | |
| DB0DAN | 2026-09-04 05:03:55 | 52.15100 | 14.46298 | 114° | 111km/h | 6622m | 2.9m/s | -15.8°C | 89% | 446.37hPa | 2.9V | 00:00:00 | 00:00:00 | 00:00:00 | |
| AA1-15 | 2026-09-04 05:03:48 | 52.15189 | 14.46018 | 125° | 106km/h | 6590m | 3.4m/s | -15.5°C | 89.5% | 0hPa | 2.9V | 18:12:15 | 00:53:55 | 00:00:00 | |
| DAC517 | 2026-09-04 05:03:47 | 52.15205 | 14.45982 | 128° | 106km/h | 6587m | 3.7m/s | -15.5°C | 90.2% | 448.4hPa | 2.9V | 00:00:00 | 00:00:00 | 00:00:00 | |
| SONDE2-11 | 2026-09-04 05:03:40 | 52.15308 | 14.45695 | 117° | 119km/h | 6538m | 6.3m/s | -15.4°C | 93.7% | 451.4hPa | 2.9V | 00:00:00 | 00:00:00 | 00:00:00 | |
| DB0DAN | 2026-09-04 05:03:40 | 52.15308 | 14.45695 | 117° | 113km/h | 6538m | 6.3m/s | -15.4°C | 93.7% | 451.41hPa | 2.9V | 00:00:00 | 00:00:00 | 00:00:00 | |
| KRY50SP-1 | 2026-09-04 05:03:39 | 52.15308 | 14.45695 | 118° | 119km/h | 6539m | 6.3m/s | 0°C | 0% | 0hPa | 2.9V | 00:00:00 | 00:00:00 | 00:00:00 | |
| KRY50SP-1 | 2026-09-04 05:03:32 | 52.15410 | 14.45420 | 118° | 111km/h | 6507m | 4.9m/s | 0°C | 0% | 0hPa | 2.9V | 00:00:00 | 00:00:00 | 00:00:00 | |
| DL2RXE-15 | 2026-09-04 05:03:29 | 52.15443 | 14.45292 | 112° | 113km/h | 6487m | 6.0m/s | -15.3°C | 0% | 0hPa | 2.9V | 00:00:00 | 00:00:00 | 00:00:00 | |
| DB0DAN | 2026-09-04 05:03:25 | 52.15510 | 14.45078 | 121° | 110km/h | 6459m | 9.2m/s | -15.2°C | 97% | 456.19hPa | 2.9V | 00:00:00 | 00:00:00 | 00:00:00 | |
| AA1-15 | 2026-09-04 05:03:22 | 52.15548 | 14.44958 | 115° | 108km/h | 6440m | 2m/s | -15.1°C | 92% | 0hPa | 2.9V | 18:12:15 | 00:53:29 | 00:00:00 | |
| AA1-15 | 2026-09-04 05:03:12 | 52.15676 | 14.44579 | 127° | 113km/h | 6387m | 9m/s | -14.7°C | 94.9% | 0hPa | 2.9V | 18:12:15 | 00:53:19 | 00:00:00 | |
| SONDE2-11 | 2026-09-04 05:03:09 | 52.15724 | 14.44469 | 121° | 106km/h | 6365m | 7.0m/s | -14.5°C | 98.6% | 462.0hPa | 2.9V | 00:00:00 | 00:00:00 | 00:00:00 | |
| 13BRC | 2026-09-04 05:02:59 | 52.15845 | 14.44118 | 120° | 100km/h | 6287m | 7.1m/s | -14.0°C | 97.4% | 466.6hPa | 2.9V | 00:00:00 | 00:00:00 | 00:00:00 | |
| DB0DAN | 2026-09-04 05:02:55 | 52.15908 | 14.43929 | 119° | 104km/h | 6254m | 5.2m/s | -13.7°C | 96.5% | 468.63hPa | 2.9V | 00:00:00 | 00:00:00 | 00:00:00 | |
| AA1-15 | 2026-09-04 05:02:53 | 52.15936 | 14.43848 | 121° | 117km/h | 6244m | 6.3m/s | -13.6°C | 92% | 0hPa | 2.9V | 18:12:15 | 00:53:00 | 00:00:00 | |
| EDDB2-12 | 2026-09-04 05:02:45 | 52.16057 | 14.43504 | 118° | 108km/h | 6208m | 5.8m/s | -13.3°C | 94.9% | 471.6hPa | 2.9V | 00:00:00 | 00:00:00 | 00:00:00 | |
| AA1-15 | 2026-09-04 05:02:43 | 52.16080 | 14.43430 | 115° | 95km/h | 6196m | 6.7m/s | -13.2°C | 93.7% | 0hPa | 2.9V | 18:12:15 | 00:52:50 | 00:00:00 | |
| DL2RXE-15 | 2026-09-04 05:02:42 | 52.16080 | 14.43430 | 116° | 95km/h | 6196m | 6.7m/s | -13.2°C | 0% | 0hPa | 2.9V | 00:00:00 | 00:00:00 | 00:00:00 | |
| DB0DAN | 2026-09-04 05:02:40 | 52.16114 | 14.43325 | 119° | 95km/h | 6178m | 7.1m/s | -13.1°C | 93.7% | 473.39hPa | 2.9V | 00:00:00 | 00:00:00 | 00:00:00 | |
| AA1-15 | 2026-09-04 05:02:32 | 52.16219 | 14.43012 | 119° | 115km/h | 6124m | 6m/s | 0°C | 0% | 0hPa | 2.9V | 18:12:15 | 00:52:39 | 00:00:00 | |
| AA1-15 | 2026-09-04 05:02:21 | 52.16374 | 14.42574 | 120° | 104km/h | 6068m | 5.5m/s | 0°C | 0% | 0hPa | 2.9V | 18:12:15 | 00:52:28 | 00:00:00 | |
| AA1-15 | 2026-09-04 05:02:11 | 52.16483 | 14.42179 | 116° | 111km/h | 6010m | 6.6m/s | 0°C | 0% | 0hPa | 2.8V | 18:12:15 | 00:52:18 | 00:00:00 | |
| DB0DAN | 2026-09-04 05:02:10 | 52.16495 | 14.42139 | 115° | 104km/h | 6004m | 6.4m/s | -12.3°C | 99% | 484.17hPa | 2.9V | 00:00:00 | 00:00:00 | 00:00:00 | |
| AA1-15 | 2026-09-04 05:02:01 | 52.16597 | 14.41766 | 113° | 106km/h | 5952m | 6.4m/s | 0°C | 0% | 0hPa | 2.9V | 18:12:15 | 00:52:08 | 00:00:00 | |
| 13BRC | 2026-09-04 05:01:57 | 52.16624 | 14.41647 | 110° | 102km/h | 5936m | 5.2m/s | -11.8°C | 94.9% | 488.5hPa | 2.9V | 00:00:00 | 00:00:00 | 00:00:00 | |
| Es werden nur die letzten 3500 von 3683 Frames angezeigt. GPX/KML und Diagramme bleiben verfügbar. | |||||||||||||||